<?xml version="1.0" encoding="UTF-8" standalone="no" ?>
<gpx xmlns="http://www.topografix.com/GPX/1/1" xmlns:xsi="http://www.w3.org/2001/XMLSchema-instance" xsi:schemaLocation="http://www.topografix.com/GPX/1/1 http://www.topografix.com/GPX/1/1/gpx.xsd" version="1.1" creator="VisuGPX - https://www.visugpx.com">
  <metadata>
    <name>Escaut, Canal Nimy-Blaton Péronnes, Foret de Bon-Secours.</name>
  </metadata>
  <trk>
    <name><![CDATA[Parcours du 2022-04-10 09:23:02]]></name>
    <extensions>
      <line xmlns="http://www.topografix.com/GPX/gpx_style/0/2">
        <color>0000FF</color>
        <width>4</width>
      </line>
    </extensions>
    <trkseg>
      <trkpt lat="50.45003" lon="3.52618">
        <ele>28.9</ele>
        <time>2022-04-10T07:23:09.438Z</time>
      </trkpt>
      <trkpt lat="50.45012" lon="3.52611">
        <ele>28.6</ele>
        <time>2022-04-10T07:23:10.000Z</time>
      </trkpt>
      <trkpt lat="50.4502" lon="3.52606">
        <ele>28.2</ele>
        <time>2022-04-10T07:23:12.000Z</time>
      </trkpt>
      <trkpt lat="50.45025" lon="3.52601">
        <ele>28.1</ele>
        <time>2022-04-10T07:23:14.000Z</time>
      </trkpt>
      <trkpt lat="50.4503" lon="3.52597">
        <ele>28</ele>
        <time>2022-04-10T07:23:16.000Z</time>
      </trkpt>
      <trkpt lat="50.45037" lon="3.52591">
        <ele>27.8</ele>
        <time>2022-04-10T07:23:18.000Z</time>
      </trkpt>
      <trkpt lat="50.45042" lon="3.52587">
        <ele>27.5</ele>
        <time>2022-04-10T07:23:19.047Z</time>
      </trkpt>
      <trkpt lat="50.4505" lon="3.52581">
        <ele>27.2</ele>
        <time>2022-04-10T07:23:20.000Z</time>
      </trkpt>
      <trkpt lat="50.45059" lon="3.52571">
        <ele>26.9</ele>
        <time>2022-04-10T07:23:22.152Z</time>
      </trkpt>
      <trkpt lat="50.45068" lon="3.5256">
        <ele>26.6</ele>
        <time>2022-04-10T07:23:24.000Z</time>
      </trkpt>
      <trkpt lat="50.45071" lon="3.52555">
        <ele>26.4</ele>
        <time>2022-04-10T07:23:25.000Z</time>
      </trkpt>
      <trkpt lat="50.45075" lon="3.52548">
        <ele>26</ele>
        <time>2022-04-10T07:23:26.000Z</time>
      </trkpt>
      <trkpt lat="50.45079" lon="3.52541">
        <ele>25.6</ele>
        <time>2022-04-10T07:23:27.000Z</time>
      </trkpt>
      <trkpt lat="50.45082" lon="3.52533">
        <ele>25.3</ele>
        <time>2022-04-10T07:23:28.000Z</time>
      </trkpt>
      <trkpt lat="50.45086" lon="3.52526">
        <ele>24.9</ele>
        <time>2022-04-10T07:23:29.000Z</time>
      </trkpt>
      <trkpt lat="50.4509" lon="3.52518">
        <ele>24.7</ele>
        <time>2022-04-10T07:23:30.000Z</time>
      </trkpt>
      <trkpt lat="50.45097" lon="3.52503">
        <ele>24.1</ele>
        <time>2022-04-10T07:23:32.000Z</time>
      </trkpt>
      <trkpt lat="50.45102" lon="3.52495">
        <ele>23.9</ele>
        <time>2022-04-10T07:23:33.000Z</time>
      </trkpt>
      <trkpt lat="50.45107" lon="3.52488">
        <ele>23.6</ele>
        <time>2022-04-10T07:23:34.000Z</time>
      </trkpt>
      <trkpt lat="50.45112" lon="3.52479">
        <ele>23.2</ele>
        <time>2022-04-10T07:23:35.000Z</time>
      </trkpt>
      <trkpt lat="50.45117" lon="3.52469">
        <ele>22.7</ele>
        <time>2022-04-10T07:23:36.000Z</time>
      </trkpt>
      <trkpt lat="50.45122" lon="3.5246">
        <ele>22.1</ele>
        <time>2022-04-10T07:23:37.000Z</time>
      </trkpt>
      <trkpt lat="50.45128" lon="3.52449">
        <ele>21.5</ele>
        <time>2022-04-10T07:23:38.000Z</time>
      </trkpt>
      <trkpt lat="50.45133" lon="3.52441">
        <ele>21.2</ele>
        <time>2022-04-10T07:23:39.000Z</time>
      </trkpt>
      <trkpt lat="50.45139" lon="3.52432">
        <ele>21</ele>
        <time>2022-04-10T07:23:40.000Z</time>
      </trkpt>
      <trkpt lat="50.45146" lon="3.52422">
        <ele>20.8</ele>
        <time>2022-04-10T07:23:41.000Z</time>
      </trkpt>
      <trkpt lat="50.45151" lon="3.52415">
        <ele>20.5</ele>
        <time>2022-04-10T07:23:42.000Z</time>
      </trkpt>
      <trkpt lat="50.45157" lon="3.52408">
        <ele>20.2</ele>
        <time>2022-04-10T07:23:43.000Z</time>
      </trkpt>
      <trkpt lat="50.45163" lon="3.524">
        <ele>20.1</ele>
        <time>2022-04-10T07:23:44.000Z</time>
      </trkpt>
      <trkpt lat="50.45168" lon="3.52393">
        <ele>20</ele>
        <time>2022-04-10T07:23:45.000Z</time>
      </trkpt>
      <trkpt lat="50.45173" lon="3.52385">
        <ele>19.7</ele>
        <time>2022-04-10T07:23:46.000Z</time>
      </trkpt>
      <trkpt lat="50.45179" lon="3.52378">
        <ele>19.3</ele>
        <time>2022-04-10T07:23:47.000Z</time>
      </trkpt>
      <trkpt lat="50.45184" lon="3.5237">
        <ele>19.1</ele>
        <time>2022-04-10T07:23:48.000Z</time>
      </trkpt>
      <trkpt lat="50.45193" lon="3.52361">
        <ele>19</ele>
        <time>2022-04-10T07:23:49.000Z</time>
      </trkpt>
      <trkpt lat="50.45197" lon="3.52354">
        <ele>19</ele>
        <time>2022-04-10T07:23:50.000Z</time>
      </trkpt>
      <trkpt lat="50.45204" lon="3.52345">
        <ele>19</ele>
        <time>2022-04-10T07:23:51.000Z</time>
      </trkpt>
      <trkpt lat="50.45209" lon="3.52339">
        <ele>19</ele>
        <time>2022-04-10T07:23:52.000Z</time>
      </trkpt>
      <trkpt lat="50.45216" lon="3.52328">
        <ele>19</ele>
        <time>2022-04-10T07:23:53.000Z</time>
      </trkpt>
      <trkpt lat="50.45225" lon="3.52317">
        <ele>19</ele>
        <time>2022-04-10T07:23:55.000Z</time>
      </trkpt>
      <trkpt lat="50.45231" lon="3.52308">
        <ele>19</ele>
        <time>2022-04-10T07:23:57.000Z</time>
      </trkpt>
      <trkpt lat="50.45236" lon="3.52302">
        <ele>19</ele>
        <time>2022-04-10T07:23:58.000Z</time>
      </trkpt>
      <trkpt lat="50.45241" lon="3.52294">
        <ele>19</ele>
        <time>2022-04-10T07:24:00.000Z</time>
      </trkpt>
      <trkpt lat="50.45246" lon="3.52289">
        <ele>19</ele>
        <time>2022-04-10T07:24:01.000Z</time>
      </trkpt>
      <trkpt lat="50.45252" lon="3.5228">
        <ele>19</ele>
        <time>2022-04-10T07:24:03.000Z</time>
      </trkpt>
      <trkpt lat="50.45257" lon="3.52273">
        <ele>19</ele>
        <time>2022-04-10T07:24:04.000Z</time>
      </trkpt>
      <trkpt lat="50.45263" lon="3.52264">
        <ele>19.2</ele>
        <time>2022-04-10T07:24:06.000Z</time>
      </trkpt>
      <trkpt lat="50.45268" lon="3.52257">
        <ele>19.5</ele>
        <time>2022-04-10T07:24:07.000Z</time>
      </trkpt>
      <trkpt lat="50.45272" lon="3.52249">
        <ele>19.8</ele>
        <time>2022-04-10T07:24:09.000Z</time>
      </trkpt>
      <trkpt lat="50.45275" lon="3.52243">
        <ele>19.9</ele>
        <time>2022-04-10T07:24:10.000Z</time>
      </trkpt>
      <trkpt lat="50.45281" lon="3.52234">
        <ele>20</ele>
        <time>2022-04-10T07:24:12.000Z</time>
      </trkpt>
      <trkpt lat="50.45284" lon="3.52229">
        <ele>20</ele>
        <time>2022-04-10T07:24:13.000Z</time>
      </trkpt>
      <trkpt lat="50.45287" lon="3.52224">
        <ele>20</ele>
        <time>2022-04-10T07:24:14.000Z</time>
      </trkpt>
      <trkpt lat="50.45292" lon="3.52217">
        <ele>20</ele>
        <time>2022-04-10T07:24:16.008Z</time>
      </trkpt>
      <trkpt lat="50.45296" lon="3.52213">
        <ele>20</ele>
        <time>2022-04-10T07:24:17.000Z</time>
      </trkpt>
      <trkpt lat="50.45299" lon="3.52209">
        <ele>20</ele>
        <time>2022-04-10T07:24:18.000Z</time>
      </trkpt>
      <trkpt lat="50.45305" lon="3.52199">
        <ele>20</ele>
        <time>2022-04-10T07:24:20.000Z</time>
      </trkpt>
      <trkpt lat="50.45309" lon="3.5219">
        <ele>20.1</ele>
        <time>2022-04-10T07:24:21.000Z</time>
      </trkpt>
      <trkpt lat="50.45313" lon="3.52181">
        <ele>20.3</ele>
        <time>2022-04-10T07:24:23.000Z</time>
      </trkpt>
      <trkpt lat="50.45322" lon="3.52171">
        <ele>20.6</ele>
        <time>2022-04-10T07:24:25.000Z</time>
      </trkpt>
      <trkpt lat="50.45331" lon="3.52156">
        <ele>20.9</ele>
        <time>2022-04-10T07:24:27.767Z</time>
      </trkpt>
      <trkpt lat="50.45336" lon="3.5215">
        <ele>21</ele>
        <time>2022-04-10T07:24:29.022Z</time>
      </trkpt>
      <trkpt lat="50.4534" lon="3.52141">
        <ele>21</ele>
        <time>2022-04-10T07:24:31.000Z</time>
      </trkpt>
      <trkpt lat="50.45347" lon="3.52129">
        <ele>21</ele>
        <time>2022-04-10T07:24:33.805Z</time>
      </trkpt>
      <trkpt lat="50.45352" lon="3.52121">
        <ele>21</ele>
        <time>2022-04-10T07:24:35.000Z</time>
      </trkpt>
      <trkpt lat="50.45357" lon="3.52113">
        <ele>21</ele>
        <time>2022-04-10T07:24:38.000Z</time>
      </trkpt>
      <trkpt lat="50.45362" lon="3.52104">
        <ele>21.3</ele>
        <time>2022-04-10T07:24:39.000Z</time>
      </trkpt>
      <trkpt lat="50.45367" lon="3.52098">
        <ele>21.6</ele>
        <time>2022-04-10T07:24:41.000Z</time>
      </trkpt>
      <trkpt lat="50.45371" lon="3.52091">
        <ele>21.8</ele>
        <time>2022-04-10T07:24:42.000Z</time>
      </trkpt>
      <trkpt lat="50.45375" lon="3.52084">
        <ele>22</ele>
        <time>2022-04-10T07:24:44.000Z</time>
      </trkpt>
      <trkpt lat="50.45379" lon="3.52075">
        <ele>22</ele>
        <time>2022-04-10T07:24:45.984Z</time>
      </trkpt>
      <trkpt lat="50.45387" lon="3.52067">
        <ele>22</ele>
        <time>2022-04-10T07:24:48.000Z</time>
      </trkpt>
      <trkpt lat="50.45391" lon="3.52061">
        <ele>22.1</ele>
        <time>2022-04-10T07:24:49.546Z</time>
      </trkpt>
      <trkpt lat="50.45396" lon="3.52054">
        <ele>22.3</ele>
        <time>2022-04-10T07:24:52.000Z</time>
      </trkpt>
      <trkpt lat="50.454" lon="3.52049">
        <ele>22.4</ele>
        <time>2022-04-10T07:24:53.000Z</time>
      </trkpt>
      <trkpt lat="50.45407" lon="3.5204">
        <ele>22.7</ele>
        <time>2022-04-10T07:24:55.000Z</time>
      </trkpt>
      <trkpt lat="50.45416" lon="3.52029">
        <ele>23</ele>
        <time>2022-04-10T07:24:58.000Z</time>
      </trkpt>
      <trkpt lat="50.45422" lon="3.52023">
        <ele>23</ele>
        <time>2022-04-10T07:25:00.000Z</time>
      </trkpt>
      <trkpt lat="50.45427" lon="3.52016">
        <ele>23.2</ele>
        <time>2022-04-10T07:25:02.000Z</time>
      </trkpt>
      <trkpt lat="50.45431" lon="3.5201">
        <ele>23.3</ele>
        <time>2022-04-10T07:25:04.441Z</time>
      </trkpt>
      <trkpt lat="50.45437" lon="3.52006">
        <ele>23.6</ele>
        <time>2022-04-10T07:25:06.584Z</time>
      </trkpt>
      <trkpt lat="50.45444" lon="3.52005">
        <ele>23.8</ele>
        <time>2022-04-10T07:25:09.000Z</time>
      </trkpt>
      <trkpt lat="50.45449" lon="3.52002">
        <ele>24.1</ele>
        <time>2022-04-10T07:25:11.000Z</time>
      </trkpt>
      <trkpt lat="50.45455" lon="3.52001">
        <ele>24.4</ele>
        <time>2022-04-10T07:25:13.000Z</time>
      </trkpt>
      <trkpt lat="50.45463" lon="3.51995">
        <ele>24.7</ele>
        <time>2022-04-10T07:25:15.307Z</time>
      </trkpt>
      <trkpt lat="50.45469" lon="3.5199">
        <ele>24.9</ele>
        <time>2022-04-10T07:25:17.574Z</time>
      </trkpt>
      <trkpt lat="50.45476" lon="3.51985">
        <ele>25.2</ele>
        <time>2022-04-10T07:25:20.005Z</time>
      </trkpt>
      <trkpt lat="50.45482" lon="3.51978">
        <ele>25.7</ele>
        <time>2022-04-10T07:25:22.056Z</time>
      </trkpt>
      <trkpt lat="50.45489" lon="3.51972">
        <ele>26.2</ele>
        <time>2022-04-10T07:25:24.106Z</time>
      </trkpt>
      <trkpt lat="50.45496" lon="3.51963">
        <ele>26.8</ele>
        <time>2022-04-10T07:25:27.000Z</time>
      </trkpt>
      <trkpt lat="50.45501" lon="3.51961">
        <ele>27.1</ele>
        <time>2022-04-10T07:25:28.943Z</time>
      </trkpt>
      <trkpt lat="50.45505" lon="3.51956">
        <ele>27.5</ele>
        <time>2022-04-10T07:25:31.004Z</time>
      </trkpt>
      <trkpt lat="50.45511" lon="3.51953">
        <ele>28.1</ele>
        <time>2022-04-10T07:25:33.442Z</time>
      </trkpt>
      <trkpt lat="50.45516" lon="3.51947">
        <ele>28.7</ele>
        <time>2022-04-10T07:25:35.986Z</time>
      </trkpt>
      <trkpt lat="50.45521" lon="3.51941">
        <ele>29.3</ele>
        <time>2022-04-10T07:25:38.000Z</time>
      </trkpt>
      <trkpt lat="50.45527" lon="3.51936">
        <ele>29.9</ele>
        <time>2022-04-10T07:25:40.000Z</time>
      </trkpt>
      <trkpt lat="50.45531" lon="3.5193">
        <ele>30.1</ele>
        <time>2022-04-10T07:25:42.000Z</time>
      </trkpt>
      <trkpt lat="50.45537" lon="3.51925">
        <ele>30.1</ele>
        <time>2022-04-10T07:25:44.000Z</time>
      </trkpt>
      <trkpt lat="50.45541" lon="3.51921">
        <ele>30.1</ele>
        <time>2022-04-10T07:25:46.000Z</time>
      </trkpt>
      <trkpt lat="50.45546" lon="3.51916">
        <ele>30</ele>
        <time>2022-04-10T07:25:48.000Z</time>
      </trkpt>
      <trkpt lat="50.45552" lon="3.51911">
        <ele>30.2</ele>
        <time>2022-04-10T07:25:50.000Z</time>
      </trkpt>
      <trkpt lat="50.45557" lon="3.51905">
        <ele>30.6</ele>
        <time>2022-04-10T07:25:52.303Z</time>
      </trkpt>
      <trkpt lat="50.45562" lon="3.51898">
        <ele>31.2</ele>
        <time>2022-04-10T07:25:54.502Z</time>
      </trkpt>
      <trkpt lat="50.45566" lon="3.51892">
        <ele>31.6</ele>
        <time>2022-04-10T07:25:55.950Z</time>
      </trkpt>
      <trkpt lat="50.4557" lon="3.51884">
        <ele>32</ele>
        <time>2022-04-10T07:25:58.206Z</time>
      </trkpt>
      <trkpt lat="50.45573" lon="3.51879">
        <ele>32.1</ele>
        <time>2022-04-10T07:25:59.769Z</time>
      </trkpt>
      <trkpt lat="50.45578" lon="3.5187">
        <ele>32.2</ele>
        <time>2022-04-10T07:26:02.626Z</time>
      </trkpt>
      <trkpt lat="50.45582" lon="3.51861">
        <ele>32</ele>
        <time>2022-04-10T07:26:05.122Z</time>
      </trkpt>
      <trkpt lat="50.45585" lon="3.51855">
        <ele>32.1</ele>
        <time>2022-04-10T07:26:06.764Z</time>
      </trkpt>
      <trkpt lat="50.45589" lon="3.51847">
        <ele>32.2</ele>
        <time>2022-04-10T07:26:09.000Z</time>
      </trkpt>
      <trkpt lat="50.45594" lon="3.51838">
        <ele>32.4</ele>
        <time>2022-04-10T07:26:11.444Z</time>
      </trkpt>
      <trkpt lat="50.45597" lon="3.51832">
        <ele>32.5</ele>
        <time>2022-04-10T07:26:12.645Z</time>
      </trkpt>
      <trkpt lat="50.45603" lon="3.5182">
        <ele>32.4</ele>
        <time>2022-04-10T07:26:16.000Z</time>
      </trkpt>
      <trkpt lat="50.45608" lon="3.51815">
        <ele>32.3</ele>
        <time>2022-04-10T07:26:18.000Z</time>
      </trkpt>
      <trkpt lat="50.45611" lon="3.51809">
        <ele>32.1</ele>
        <time>2022-04-10T07:26:20.000Z</time>
      </trkpt>
      <trkpt lat="50.45617" lon="3.51802">
        <ele>32.3</ele>
        <time>2022-04-10T07:26:21.981Z</time>
      </trkpt>
      <trkpt lat="50.45622" lon="3.51795">
        <ele>32.5</ele>
        <time>2022-04-10T07:26:24.565Z</time>
      </trkpt>
      <trkpt lat="50.45625" lon="3.51789">
        <ele>32.5</ele>
        <time>2022-04-10T07:26:27.085Z</time>
      </trkpt>
      <trkpt lat="50.4563" lon="3.51783">
        <ele>32.4</ele>
        <time>2022-04-10T07:26:29.283Z</time>
      </trkpt>
      <trkpt lat="50.45637" lon="3.51777">
        <ele>32.1</ele>
        <time>2022-04-10T07:26:32.000Z</time>
      </trkpt>
      <trkpt lat="50.45641" lon="3.51771">
        <ele>32.3</ele>
        <time>2022-04-10T07:26:34.204Z</time>
      </trkpt>
      <trkpt lat="50.45645" lon="3.51767">
        <ele>32.5</ele>
        <time>2022-04-10T07:26:35.764Z</time>
      </trkpt>
      <trkpt lat="50.4565" lon="3.51764">
        <ele>32.7</ele>
        <time>2022-04-10T07:26:36.844Z</time>
      </trkpt>
      <trkpt lat="50.45654" lon="3.51758">
        <ele>32.9</ele>
        <time>2022-04-10T07:26:39.383Z</time>
      </trkpt>
      <trkpt lat="50.4566" lon="3.51754">
        <ele>33</ele>
        <time>2022-04-10T07:26:41.624Z</time>
      </trkpt>
      <trkpt lat="50.45665" lon="3.5175">
        <ele>33</ele>
        <time>2022-04-10T07:26:44.083Z</time>
      </trkpt>
      <trkpt lat="50.45671" lon="3.51742">
        <ele>33.2</ele>
        <time>2022-04-10T07:26:46.000Z</time>
      </trkpt>
      <trkpt lat="50.45676" lon="3.51737">
        <ele>33.3</ele>
        <time>2022-04-10T07:26:48.201Z</time>
      </trkpt>
      <trkpt lat="50.45682" lon="3.5173">
        <ele>33.6</ele>
        <time>2022-04-10T07:26:50.184Z</time>
      </trkpt>
      <trkpt lat="50.45686" lon="3.51725">
        <ele>33.7</ele>
        <time>2022-04-10T07:26:52.142Z</time>
      </trkpt>
      <trkpt lat="50.45692" lon="3.51717">
        <ele>33.9</ele>
        <time>2022-04-10T07:26:54.000Z</time>
      </trkpt>
      <trkpt lat="50.45696" lon="3.51712">
        <ele>34</ele>
        <time>2022-04-10T07:26:56.000Z</time>
      </trkpt>
      <trkpt lat="50.45703" lon="3.51704">
        <ele>33.9</ele>
        <time>2022-04-10T07:26:57.963Z</time>
      </trkpt>
      <trkpt lat="50.45707" lon="3.51697">
        <ele>34</ele>
        <time>2022-04-10T07:26:59.965Z</time>
      </trkpt>
      <trkpt lat="50.45712" lon="3.51689">
        <ele>34</ele>
        <time>2022-04-10T07:27:02.180Z</time>
      </trkpt>
      <trkpt lat="50.45719" lon="3.51683">
        <ele>34</ele>
        <time>2022-04-10T07:27:04.984Z</time>
      </trkpt>
      <trkpt lat="50.45724" lon="3.51673">
        <ele>34</ele>
        <time>2022-04-10T07:27:08.123Z</time>
      </trkpt>
      <trkpt lat="50.45728" lon="3.51665">
        <ele>34</ele>
        <time>2022-04-10T07:27:09.862Z</time>
      </trkpt>
      <trkpt lat="50.45732" lon="3.51661">
        <ele>34</ele>
        <time>2022-04-10T07:27:11.825Z</time>
      </trkpt>
      <trkpt lat="50.45739" lon="3.51652">
        <ele>34</ele>
        <time>2022-04-10T07:27:14.642Z</time>
      </trkpt>
      <trkpt lat="50.45745" lon="3.51643">
        <ele>34</ele>
        <time>2022-04-10T07:27:17.006Z</time>
      </trkpt>
      <trkpt lat="50.45753" lon="3.51635">
        <ele>34</ele>
        <time>2022-04-10T07:27:19.443Z</time>
      </trkpt>
      <trkpt lat="50.45758" lon="3.5163">
        <ele>34</ele>
        <time>2022-04-10T07:27:21.000Z</time>
      </trkpt>
      <trkpt lat="50.45763" lon="3.51622">
        <ele>34</ele>
        <time>2022-04-10T07:27:23.102Z</time>
      </trkpt>
      <trkpt lat="50.45771" lon="3.51615">
        <ele>34</ele>
        <time>2022-04-10T07:27:25.000Z</time>
      </trkpt>
      <trkpt lat="50.45779" lon="3.51608">
        <ele>34</ele>
        <time>2022-04-10T07:27:27.000Z</time>
      </trkpt>
      <trkpt lat="50.45786" lon="3.516">
        <ele>34</ele>
        <time>2022-04-10T07:27:29.016Z</time>
      </trkpt>
      <trkpt lat="50.45791" lon="3.51596">
        <ele>34</ele>
        <time>2022-04-10T07:27:30.000Z</time>
      </trkpt>
      <trkpt lat="50.45796" lon="3.51592">
        <ele>34</ele>
        <time>2022-04-10T07:27:31.000Z</time>
      </trkpt>
      <trkpt lat="50.458" lon="3.51589">
        <ele>34</ele>
        <time>2022-04-10T07:27:32.000Z</time>
      </trkpt>
      <trkpt lat="50.45804" lon="3.51585">
        <ele>34</ele>
        <time>2022-04-10T07:27:33.000Z</time>
      </trkpt>
      <trkpt lat="50.45808" lon="3.51581">
        <ele>34</ele>
        <time>2022-04-10T07:27:34.000Z</time>
      </trkpt>
      <trkpt lat="50.45812" lon="3.51577">
        <ele>34</ele>
        <time>2022-04-10T07:27:35.000Z</time>
      </trkpt>
      <trkpt lat="50.45816" lon="3.51574">
        <ele>34</ele>
        <time>2022-04-10T07:27:36.000Z</time>
      </trkpt>
      <trkpt lat="50.45824" lon="3.51566">
        <ele>34</ele>
        <time>2022-04-10T07:27:38.000Z</time>
      </trkpt>
      <trkpt lat="50.45828" lon="3.51563">
        <ele>34</ele>
        <time>2022-04-10T07:27:39.000Z</time>
      </trkpt>
      <trkpt lat="50.45832" lon="3.51559">
        <ele>34</ele>
        <time>2022-04-10T07:27:40.000Z</time>
      </trkpt>
      <trkpt lat="50.45836" lon="3.51555">
        <ele>34</ele>
        <time>2022-04-10T07:27:41.000Z</time>
      </trkpt>
      <trkpt lat="50.45845" lon="3.5155">
        <ele>34</ele>
        <time>2022-04-10T07:27:43.000Z</time>
      </trkpt>
      <trkpt lat="50.4585" lon="3.51548">
        <ele>34</ele>
        <time>2022-04-10T07:27:44.000Z</time>
      </trkpt>
      <trkpt lat="50.45854" lon="3.51545">
        <ele>34</ele>
        <time>2022-04-10T07:27:45.000Z</time>
      </trkpt>
      <trkpt lat="50.45859" lon="3.51543">
        <ele>34</ele>
        <time>2022-04-10T07:27:46.000Z</time>
      </trkpt>
      <trkpt lat="50.45863" lon="3.51541">
        <ele>34</ele>
        <time>2022-04-10T07:27:47.000Z</time>
      </trkpt>
      <trkpt lat="50.45868" lon="3.51538">
        <ele>33.9</ele>
        <time>2022-04-10T07:27:48.000Z</time>
      </trkpt>
      <trkpt lat="50.45872" lon="3.51536">
        <ele>33.9</ele>
        <time>2022-04-10T07:27:49.000Z</time>
      </trkpt>
      <trkpt lat="50.45877" lon="3.51535">
        <ele>33.9</ele>
        <time>2022-04-10T07:27:50.000Z</time>
      </trkpt>
      <trkpt lat="50.45882" lon="3.51532">
        <ele>33.9</ele>
        <time>2022-04-10T07:27:51.000Z</time>
      </trkpt>
      <trkpt lat="50.45887" lon="3.51529">
        <ele>34</ele>
        <time>2022-04-10T07:27:52.000Z</time>
      </trkpt>
      <trkpt lat="50.45892" lon="3.51526">
        <ele>33.9</ele>
        <time>2022-04-10T07:27:53.000Z</time>
      </trkpt>
      <trkpt lat="50.45896" lon="3.51523">
        <ele>33.8</ele>
        <time>2022-04-10T07:27:54.000Z</time>
      </trkpt>
      <trkpt lat="50.45901" lon="3.5152">
        <ele>33.7</ele>
        <time>2022-04-10T07:27:55.000Z</time>
      </trkpt>
      <trkpt lat="50.45906" lon="3.51517">
        <ele>33.6</ele>
        <time>2022-04-10T07:27:56.000Z</time>
      </trkpt>
      <trkpt lat="50.4591" lon="3.51514">
        <ele>33.6</ele>
        <time>2022-04-10T07:27:57.000Z</time>
      </trkpt>
      <trkpt lat="50.45914" lon="3.51511">
        <ele>33.6</ele>
        <time>2022-04-10T07:27:58.000Z</time>
      </trkpt>
      <trkpt lat="50.45924" lon="3.51505">
        <ele>33.6</ele>
        <time>2022-04-10T07:28:00.000Z</time>
      </trkpt>
      <trkpt lat="50.45929" lon="3.51501">
        <ele>33.6</ele>
        <time>2022-04-10T07:28:01.000Z</time>
      </trkpt>
      <trkpt lat="50.45934" lon="3.51496">
        <ele>33.5</ele>
        <time>2022-04-10T07:28:02.000Z</time>
      </trkpt>
      <trkpt lat="50.45939" lon="3.51491">
        <ele>33.5</ele>
        <time>2022-04-10T07:28:03.000Z</time>
      </trkpt>
      <trkpt lat="50.45943" lon="3.51487">
        <ele>33.5</ele>
        <time>2022-04-10T07:28:04.000Z</time>
      </trkpt>
      <trkpt lat="50.45948" lon="3.51483">
        <ele>33.5</ele>
        <time>2022-04-10T07:28:05.000Z</time>
      </trkpt>
      <trkpt lat="50.45953" lon="3.51478">
        <ele>33.5</ele>
        <time>2022-04-10T07:28:06.000Z</time>
      </trkpt>
      <trkpt lat="50.45958" lon="3.51474">
        <ele>33.5</ele>
        <time>2022-04-10T07:28:07.000Z</time>
      </trkpt>
      <trkpt lat="50.45963" lon="3.5147">
        <ele>33.3</ele>
        <time>2022-04-10T07:28:08.000Z</time>
      </trkpt>
      <trkpt lat="50.45968" lon="3.51466">
        <ele>33.2</ele>
        <time>2022-04-10T07:28:09.102Z</time>
      </trkpt>
      <trkpt lat="50.45973" lon="3.51461">
        <ele>33</ele>
        <time>2022-04-10T07:28:10.000Z</time>
      </trkpt>
      <trkpt lat="50.45979" lon="3.51457">
        <ele>33</ele>
        <time>2022-04-10T07:28:11.000Z</time>
      </trkpt>
      <trkpt lat="50.45984" lon="3.51453">
        <ele>33</ele>
        <time>2022-04-10T07:28:12.000Z</time>
      </trkpt>
      <trkpt lat="50.45989" lon="3.51448">
        <ele>33</ele>
        <time>2022-04-10T07:28:13.000Z</time>
      </trkpt>
      <trkpt lat="50.45994" lon="3.51444">
        <ele>33</ele>
        <time>2022-04-10T07:28:14.000Z</time>
      </trkpt>
      <trkpt lat="50.45999" lon="3.51439">
        <ele>33</ele>
        <time>2022-04-10T07:28:15.000Z</time>
      </trkpt>
      <trkpt lat="50.46004" lon="3.51434">
        <ele>32.8</ele>
        <time>2022-04-10T07:28:16.000Z</time>
      </trkpt>
      <trkpt lat="50.4601" lon="3.5143">
        <ele>32.6</ele>
        <time>2022-04-10T07:28:17.000Z</time>
      </trkpt>
      <trkpt lat="50.46015" lon="3.51425">
        <ele>32.5</ele>
        <time>2022-04-10T07:28:18.000Z</time>
      </trkpt>
      <trkpt lat="50.4602" lon="3.51422">
        <ele>32.3</ele>
        <time>2022-04-10T07:28:19.000Z</time>
      </trkpt>
      <trkpt lat="50.46025" lon="3.51418">
        <ele>32.1</ele>
        <time>2022-04-10T07:28:20.000Z</time>
      </trkpt>
      <trkpt lat="50.4603" lon="3.51414">
        <ele>32.1</ele>
        <time>2022-04-10T07:28:21.000Z</time>
      </trkpt>
      <trkpt lat="50.46037" lon="3.51408">
        <ele>32.2</ele>
        <time>2022-04-10T07:28:22.000Z</time>
      </trkpt>
      <trkpt lat="50.46044" lon="3.51401">
        <ele>32.2</ele>
        <time>2022-04-10T07:28:24.000Z</time>
      </trkpt>
      <trkpt lat="50.46049" lon="3.51395">
        <ele>32.2</ele>
        <time>2022-04-10T07:28:25.000Z</time>
      </trkpt>
      <trkpt lat="50.46054" lon="3.51389">
        <ele>32.1</ele>
        <time>2022-04-10T07:28:26.000Z</time>
      </trkpt>
      <trkpt lat="50.46058" lon="3.51384">
        <ele>31.9</ele>
        <time>2022-04-10T07:28:27.000Z</time>
      </trkpt>
      <trkpt lat="50.46063" lon="3.51378">
        <ele>31.8</ele>
        <time>2022-04-10T07:28:28.000Z</time>
      </trkpt>
      <trkpt lat="50.46068" lon="3.5137">
        <ele>31.9</ele>
        <time>2022-04-10T07:28:29.000Z</time>
      </trkpt>
      <trkpt lat="50.46071" lon="3.51364">
        <ele>32</ele>
        <time>2022-04-10T07:28:30.000Z</time>
      </trkpt>
      <trkpt lat="50.46075" lon="3.51356">
        <ele>32</ele>
        <time>2022-04-10T07:28:33.000Z</time>
      </trkpt>
      <trkpt lat="50.4607" lon="3.51361">
        <ele>32</ele>
        <time>2022-04-10T07:28:37.000Z</time>
      </trkpt>
      <trkpt lat="50.46069" lon="3.51368">
        <ele>31.9</ele>
        <time>2022-04-10T07:28:39.000Z</time>
      </trkpt>
      <trkpt lat="50.46068" lon="3.51374">
        <ele>31.8</ele>
        <time>2022-04-10T07:29:11.839Z</time>
      </trkpt>
      <trkpt lat="50.46072" lon="3.51381">
        <ele>31.6</ele>
        <time>2022-04-10T07:29:13.000Z</time>
      </trkpt>
      <trkpt lat="50.46082" lon="3.51394">
        <ele>31.1</ele>
        <time>2022-04-10T07:29:15.677Z</time>
      </trkpt>
      <trkpt lat="50.46087" lon="3.51401">
        <ele>30.9</ele>
        <time>2022-04-10T07:29:17.000Z</time>
      </trkpt>
      <trkpt lat="50.4609" lon="3.51406">
        <ele>30.8</ele>
        <time>2022-04-10T07:29:18.000Z</time>
      </trkpt>
      <trkpt lat="50.46094" lon="3.51411">
        <ele>30.7</ele>
        <time>2022-04-10T07:29:19.000Z</time>
      </trkpt>
      <trkpt lat="50.46098" lon="3.51416">
        <ele>30.5</ele>
        <time>2022-04-10T07:29:20.000Z</time>
      </trkpt>
      <trkpt lat="50.46104" lon="3.51424">
        <ele>30.3</ele>
        <time>2022-04-10T07:29:21.000Z</time>
      </trkpt>
      <trkpt lat="50.46109" lon="3.51429">
        <ele>30.1</ele>
        <time>2022-04-10T07:29:22.000Z</time>
      </trkpt>
      <trkpt lat="50.46113" lon="3.51434">
        <ele>30</ele>
        <time>2022-04-10T07:29:23.000Z</time>
      </trkpt>
      <trkpt lat="50.46116" lon="3.51439">
        <ele>29.8</ele>
        <time>2022-04-10T07:29:24.000Z</time>
      </trkpt>
      <trkpt lat="50.46123" lon="3.51448">
        <ele>29.6</ele>
        <time>2022-04-10T07:29:25.000Z</time>
      </trkpt>
      <trkpt lat="50.4613" lon="3.51458">
        <ele>29.5</ele>
        <time>2022-04-10T07:29:27.000Z</time>
      </trkpt>
      <trkpt lat="50.46136" lon="3.51466">
        <ele>29.2</ele>
        <time>2022-04-10T07:29:28.000Z</time>
      </trkpt>
      <trkpt lat="50.4614" lon="3.5147">
        <ele>29</ele>
        <time>2022-04-10T07:29:29.000Z</time>
      </trkpt>
      <trkpt lat="50.46144" lon="3.51476">
        <ele>28.8</ele>
        <time>2022-04-10T07:29:30.000Z</time>
      </trkpt>
      <trkpt lat="50.46151" lon="3.51483">
        <ele>28.4</ele>
        <time>2022-04-10T07:29:31.000Z</time>
      </trkpt>
      <trkpt lat="50.46155" lon="3.51488">
        <ele>28.1</ele>
        <time>2022-04-10T07:29:32.000Z</time>
      </trkpt>
      <trkpt lat="50.46162" lon="3.51495">
        <ele>27.5</ele>
        <time>2022-04-10T07:29:33.000Z</time>
      </trkpt>
      <trkpt lat="50.46166" lon="3.515">
        <ele>27.1</ele>
        <time>2022-04-10T07:29:34.000Z</time>
      </trkpt>
      <trkpt lat="50.4617" lon="3.51505">
        <ele>27.1</ele>
        <time>2022-04-10T07:29:35.000Z</time>
      </trkpt>
      <trkpt lat="50.46177" lon="3.51513">
        <ele>27.1</ele>
        <time>2022-04-10T07:29:36.000Z</time>
      </trkpt>
      <trkpt lat="50.46182" lon="3.51518">
        <ele>27</ele>
        <time>2022-04-10T07:29:37.000Z</time>
      </trkpt>
      <trkpt lat="50.46189" lon="3.51524">
        <ele>26.5</ele>
        <time>2022-04-10T07:29:38.000Z</time>
      </trkpt>
      <trkpt lat="50.46193" lon="3.51527">
        <ele>26.1</ele>
        <time>2022-04-10T07:29:39.000Z</time>
      </trkpt>
      <trkpt lat="50.46198" lon="3.5153">
        <ele>25.9</ele>
        <time>2022-04-10T07:29:40.000Z</time>
      </trkpt>
      <trkpt lat="50.46204" lon="3.51533">
        <ele>25.8</ele>
        <time>2022-04-10T07:29:41.000Z</time>
      </trkpt>
      <trkpt lat="50.46209" lon="3.51535">
        <ele>25.6</ele>
        <time>2022-04-10T07:29:42.000Z</time>
      </trkpt>
      <trkpt lat="50.46215" lon="3.51536">
        <ele>25.4</ele>
        <time>2022-04-10T07:29:42.958Z</time>
      </trkpt>
      <trkpt lat="50.46222" lon="3.51537">
        <ele>25</ele>
        <time>2022-04-10T07:29:44.000Z</time>
      </trkpt>
      <trkpt lat="50.46229" lon="3.51536">
        <ele>24.6</ele>
        <time>2022-04-10T07:29:45.000Z</time>
      </trkpt>
      <trkpt lat="50.46236" lon="3.51534">
        <ele>24.1</ele>
        <time>2022-04-10T07:29:46.000Z</time>
      </trkpt>
      <trkpt lat="50.46242" lon="3.51531">
        <ele>23.7</ele>
        <time>2022-04-10T07:29:47.000Z</time>
      </trkpt>
      <trkpt lat="50.46248" lon="3.51527">
        <ele>23.2</ele>
        <time>2022-04-10T07:29:48.000Z</time>
      </trkpt>
      <trkpt lat="50.46253" lon="3.51524">
        <ele>23.2</ele>
        <time>2022-04-10T07:29:49.000Z</time>
      </trkpt>
      <trkpt lat="50.46258" lon="3.51521">
        <ele>23.1</ele>
        <time>2022-04-10T07:29:49.909Z</time>
      </trkpt>
      <trkpt lat="50.46265" lon="3.5152">
        <ele>22.9</ele>
        <time>2022-04-10T07:29:51.000Z</time>
      </trkpt>
      <trkpt lat="50.4627" lon="3.51522">
        <ele>22.5</ele>
        <time>2022-04-10T07:29:52.000Z</time>
      </trkpt>
      <trkpt lat="50.46276" lon="3.51526">
        <ele>22.1</ele>
        <time>2022-04-10T07:29:53.000Z</time>
      </trkpt>
      <trkpt lat="50.4628" lon="3.51532">
        <ele>22.1</ele>
        <time>2022-04-10T07:29:54.000Z</time>
      </trkpt>
      <trkpt lat="50.46286" lon="3.51541">
        <ele>22.2</ele>
        <time>2022-04-10T07:29:55.000Z</time>
      </trkpt>
      <trkpt lat="50.46292" lon="3.51547">
        <ele>22</ele>
        <time>2022-04-10T07:29:56.000Z</time>
      </trkpt>
      <trkpt lat="50.46296" lon="3.51553">
        <ele>21.7</ele>
        <time>2022-04-10T07:29:57.000Z</time>
      </trkpt>
      <trkpt lat="50.46304" lon="3.51563">
        <ele>21.1</ele>
        <time>2022-04-10T07:29:58.000Z</time>
      </trkpt>
      <trkpt lat="50.46308" lon="3.51568">
        <ele>20.9</ele>
        <time>2022-04-10T07:29:59.000Z</time>
      </trkpt>
      <trkpt lat="50.46313" lon="3.51574">
        <ele>20.7</ele>
        <time>2022-04-10T07:30:00.000Z</time>
      </trkpt>
      <trkpt lat="50.46317" lon="3.51579">
        <ele>20.6</ele>
        <time>2022-04-10T07:30:01.000Z</time>
      </trkpt>
      <trkpt lat="50.46322" lon="3.51585">
        <ele>20.4</ele>
        <time>2022-04-10T07:30:02.000Z</time>
      </trkpt>
      <trkpt lat="50.46327" lon="3.5159">
        <ele>20.2</ele>
        <time>2022-04-10T07:30:03.000Z</time>
      </trkpt>
      <trkpt lat="50.46333" lon="3.51598">
        <ele>20</ele>
        <time>2022-04-10T07:30:04.000Z</time>
      </trkpt>
      <trkpt lat="50.4634" lon="3.51607">
        <ele>19.8</ele>
        <time>2022-04-10T07:30:06.000Z</time>
      </trkpt>
      <trkpt lat="50.46346" lon="3.51613">
        <ele>19.5</ele>
        <time>2022-04-10T07:30:08.000Z</time>
      </trkpt>
      <trkpt lat="50.46353" lon="3.51619">
        <ele>19</ele>
        <time>2022-04-10T07:30:10.252Z</time>
      </trkpt>
      <trkpt lat="50.46357" lon="3.51627">
        <ele>18.6</ele>
        <time>2022-04-10T07:30:13.000Z</time>
      </trkpt>
      <trkpt lat="50.46356" lon="3.51643">
        <ele>18.1</ele>
        <time>2022-04-10T07:30:15.000Z</time>
      </trkpt>
      <trkpt lat="50.46359" lon="3.51651">
        <ele>18</ele>
        <time>2022-04-10T07:30:16.000Z</time>
      </trkpt>
      <trkpt lat="50.46364" lon="3.51656">
        <ele>18</ele>
        <time>2022-04-10T07:30:17.000Z</time>
      </trkpt>
      <trkpt lat="50.4637" lon="3.5166">
        <ele>18</ele>
        <time>2022-04-10T07:30:18.000Z</time>
      </trkpt>
      <trkpt lat="50.46377" lon="3.51666">
        <ele>18</ele>
        <time>2022-04-10T07:30:19.000Z</time>
      </trkpt>
      <trkpt lat="50.46384" lon="3.5167">
        <ele>17.9</ele>
        <time>2022-04-10T07:30:20.000Z</time>
      </trkpt>
      <trkpt lat="50.4639" lon="3.51676">
        <ele>17.6</ele>
        <time>2022-04-10T07:30:21.000Z</time>
      </trkpt>
      <trkpt lat="50.46396" lon="3.51682">
        <ele>17.5</ele>
        <time>2022-04-10T07:30:22.000Z</time>
      </trkpt>
      <trkpt lat="50.46401" lon="3.51688">
        <ele>17.5</ele>
        <time>2022-04-10T07:30:23.000Z</time>
      </trkpt>
      <trkpt lat="50.46407" lon="3.51693">
        <ele>17.6</ele>
        <time>2022-04-10T07:30:24.000Z</time>
      </trkpt>
      <trkpt lat="50.46412" lon="3.51698">
        <ele>17.6</ele>
        <time>2022-04-10T07:30:25.000Z</time>
      </trkpt>
      <trkpt lat="50.46418" lon="3.51705">
        <ele>17.3</ele>
        <time>2022-04-10T07:30:26.000Z</time>
      </trkpt>
      <trkpt lat="50.46422" lon="3.5171">
        <ele>16.9</ele>
        <time>2022-04-10T07:30:27.000Z</time>
      </trkpt>
      <trkpt lat="50.46427" lon="3.51716">
        <ele>16.7</ele>
        <time>2022-04-10T07:30:28.000Z</time>
      </trkpt>
      <trkpt lat="50.46434" lon="3.51724">
        <ele>16.6</ele>
        <time>2022-04-10T07:30:29.000Z</time>
      </trkpt>
      <trkpt lat="50.46438" lon="3.5173">
        <ele>16.6</ele>
        <time>2022-04-10T07:30:30.000Z</time>
      </trkpt>
      <trkpt lat="50.46442" lon="3.51736">
        <ele>16.5</ele>
        <time>2022-04-10T07:30:31.000Z</time>
      </trkpt>
      <trkpt lat="50.46446" lon="3.51742">
        <ele>16.3</ele>
        <time>2022-04-10T07:30:32.000Z</time>
      </trkpt>
      <trkpt lat="50.4645" lon="3.51748">
        <ele>16.3</ele>
        <time>2022-04-10T07:30:33.000Z</time>
      </trkpt>
      <trkpt lat="50.46455" lon="3.51753">
        <ele>16.4</ele>
        <time>2022-04-10T07:30:34.085Z</time>
      </trkpt>
      <trkpt lat="50.46459" lon="3.51761">
        <ele>16.5</ele>
        <time>2022-04-10T07:30:35.000Z</time>
      </trkpt>
      <trkpt lat="50.46464" lon="3.51767">
        <ele>16.7</ele>
        <time>2022-04-10T07:30:36.000Z</time>
      </trkpt>
      <trkpt lat="50.46468" lon="3.51773">
        <ele>16.9</ele>
        <time>2022-04-10T07:30:37.000Z</time>
      </trkpt>
      <trkpt lat="50.46473" lon="3.51779">
        <ele>17</ele>
        <time>2022-04-10T07:30:38.000Z</time>
      </trkpt>
      <trkpt lat="50.46477" lon="3.51784">
        <ele>17</ele>
        <time>2022-04-10T07:30:39.000Z</time>
      </trkpt>
      <trkpt lat="50.46481" lon="3.51789">
        <ele>17.1</ele>
        <time>2022-04-10T07:30:39.941Z</time>
      </trkpt>
      <trkpt lat="50.46487" lon="3.51796">
        <ele>17.2</ele>
        <time>2022-04-10T07:30:41.000Z</time>
      </trkpt>
      <trkpt lat="50.46491" lon="3.51802">
        <ele>17.4</ele>
        <time>2022-04-10T07:30:42.000Z</time>
      </trkpt>
      <trkpt lat="50.46496" lon="3.51808">
        <ele>17.5</ele>
        <time>2022-04-10T07:30:43.000Z</time>
      </trkpt>
      <trkpt lat="50.465" lon="3.51814">
        <ele>17.4</ele>
        <time>2022-04-10T07:30:44.000Z</time>
      </trkpt>
      <trkpt lat="50.46505" lon="3.5182">
        <ele>17.1</ele>
        <time>2022-04-10T07:30:45.000Z</time>
      </trkpt>
      <trkpt lat="50.46509" lon="3.51825">
        <ele>16.8</ele>
        <time>2022-04-10T07:30:46.000Z</time>
      </trkpt>
      <trkpt lat="50.46514" lon="3.51831">
        <ele>16.6</ele>
        <time>2022-04-10T07:30:47.000Z</time>
      </trkpt>
      <trkpt lat="50.46519" lon="3.51838">
        <ele>16.7</ele>
        <time>2022-04-10T07:30:48.000Z</time>
      </trkpt>
      <trkpt lat="50.46524" lon="3.51845">
        <ele>16.8</ele>
        <time>2022-04-10T07:30:49.000Z</time>
      </trkpt>
      <trkpt lat="50.46528" lon="3.51851">
        <ele>17</ele>
        <time>2022-04-10T07:30:50.000Z</time>
      </trkpt>
      <trkpt lat="50.46532" lon="3.51857">
        <ele>17</ele>
        <time>2022-04-10T07:30:51.000Z</time>
      </trkpt>
      <trkpt lat="50.46537" lon="3.51863">
        <ele>17</ele>
        <time>2022-04-10T07:30:52.000Z</time>
      </trkpt>
      <trkpt lat="50.46544" lon="3.51872">
        <ele>16.8</ele>
        <time>2022-04-10T07:30:53.000Z</time>
      </trkpt>
      <trkpt lat="50.46548" lon="3.51878">
        <ele>16.8</ele>
        <time>2022-04-10T07:30:54.000Z</time>
      </trkpt>
      <trkpt lat="50.46552" lon="3.51882">
        <ele>16.9</ele>
        <time>2022-04-10T07:30:55.000Z</time>
      </trkpt>
      <trkpt lat="50.4656" lon="3.51891">
        <ele>17</ele>
        <time>2022-04-10T07:30:57.000Z</time>
      </trkpt>
      <trkpt lat="50.46565" lon="3.51896">
        <ele>17</ele>
        <time>2022-04-10T07:31:02.000Z</time>
      </trkpt>
      <trkpt lat="50.4657" lon="3.51902">
        <ele>17</ele>
        <time>2022-04-10T07:31:04.000Z</time>
      </trkpt>
      <trkpt lat="50.46574" lon="3.51911">
        <ele>17</ele>
        <time>2022-04-10T07:31:06.233Z</time>
      </trkpt>
      <trkpt lat="50.46579" lon="3.51916">
        <ele>17</ele>
        <time>2022-04-10T07:31:07.654Z</time>
      </trkpt>
      <trkpt lat="50.46587" lon="3.51926">
        <ele>17</ele>
        <time>2022-04-10T07:31:09.000Z</time>
      </trkpt>
      <trkpt lat="50.46591" lon="3.51929">
        <ele>17</ele>
        <time>2022-04-10T07:31:10.000Z</time>
      </trkpt>
      <trkpt lat="50.46598" lon="3.51935">
        <ele>17</ele>
        <time>2022-04-10T07:31:12.000Z</time>
      </trkpt>
      <trkpt lat="50.46603" lon="3.51941">
        <ele>17</ele>
        <time>2022-04-10T07:31:13.000Z</time>
      </trkpt>
      <trkpt lat="50.46612" lon="3.51947">
        <ele>16.9</ele>
        <time>2022-04-10T07:31:15.000Z</time>
      </trkpt>
      <trkpt lat="50.46619" lon="3.51953">
        <ele>16.8</ele>
        <time>2022-04-10T07:31:17.000Z</time>
      </trkpt>
      <trkpt lat="50.46626" lon="3.51957">
        <ele>16.8</ele>
        <time>2022-04-10T07:31:18.000Z</time>
      </trkpt>
      <trkpt lat="50.46631" lon="3.5196">
        <ele>16.8</ele>
        <time>2022-04-10T07:31:19.000Z</time>
      </trkpt>
      <trkpt lat="50.46635" lon="3.51963">
        <ele>16.9</ele>
        <time>2022-04-10T07:31:20.000Z</time>
      </trkpt>
      <trkpt lat="50.46646" lon="3.5197">
        <ele>17</ele>
        <time>2022-04-10T07:31:22.000Z</time>
      </trkpt>
      <trkpt lat="50.46655" lon="3.51976">
        <ele>17</ele>
        <time>2022-04-10T07:31:24.000Z</time>
      </trkpt>
      <trkpt lat="50.4666" lon="3.51979">
        <ele>17</ele>
        <time>2022-04-10T07:31:25.000Z</time>
      </trkpt>
      <trkpt lat="50.46668" lon="3.51984">
        <ele>17</ele>
        <time>2022-04-10T07:31:27.000Z</time>
      </trkpt>
      <trkpt lat="50.46675" lon="3.51989">
        <ele>17</ele>
        <time>2022-04-10T07:31:28.000Z</time>
      </trkpt>
      <trkpt lat="50.46684" lon="3.51994">
        <ele>17</ele>
        <time>2022-04-10T07:31:30.000Z</time>
      </trkpt>
      <trkpt lat="50.46693" lon="3.52001">
        <ele>17</ele>
        <time>2022-04-10T07:31:32.000Z</time>
      </trkpt>
      <trkpt lat="50.46701" lon="3.52006">
        <ele>17</ele>
        <time>2022-04-10T07:31:34.000Z</time>
      </trkpt>
      <trkpt lat="50.46705" lon="3.5201">
        <ele>17</ele>
        <time>2022-04-10T07:31:35.000Z</time>
      </trkpt>
      <trkpt lat="50.46713" lon="3.52015">
        <ele>17</ele>
        <time>2022-04-10T07:31:36.000Z</time>
      </trkpt>
      <trkpt lat="50.46722" lon="3.52022">
        <ele>17</ele>
        <time>2022-04-10T07:31:38.000Z</time>
      </trkpt>
      <trkpt lat="50.46727" lon="3.52025">
        <ele>17</ele>
        <time>2022-04-10T07:31:39.000Z</time>
      </trkpt>
      <trkpt lat="50.46735" lon="3.5203">
        <ele>17</ele>
        <time>2022-04-10T07:31:41.000Z</time>
      </trkpt>
      <trkpt lat="50.46741" lon="3.52036">
        <ele>17</ele>
        <time>2022-04-10T07:31:42.000Z</time>
      </trkpt>
      <trkpt lat="50.46749" lon="3.52041">
        <ele>17</ele>
        <time>2022-04-10T07:31:44.000Z</time>
      </trkpt>
      <trkpt lat="50.46756" lon="3.52045">
        <ele>16.9</ele>
        <time>2022-04-10T07:31:45.000Z</time>
      </trkpt>
      <trkpt lat="50.46766" lon="3.52053">
        <ele>17</ele>
        <time>2022-04-10T07:31:47.000Z</time>
      </trkpt>
      <trkpt lat="50.46773" lon="3.5206">
        <ele>17</ele>
        <time>2022-04-10T07:31:49.000Z</time>
      </trkpt>
      <trkpt lat="50.46779" lon="3.52065">
        <ele>17</ele>
        <time>2022-04-10T07:31:50.000Z</time>
      </trkpt>
      <trkpt lat="50.46787" lon="3.52072">
        <ele>17</ele>
        <time>2022-04-10T07:31:52.000Z</time>
      </trkpt>
      <trkpt lat="50.46793" lon="3.52078">
        <ele>17</ele>
        <time>2022-04-10T07:31:53.000Z</time>
      </trkpt>
      <trkpt lat="50.46803" lon="3.52086">
        <ele>17.1</ele>
        <time>2022-04-10T07:31:55.000Z</time>
      </trkpt>
      <trkpt lat="50.4681" lon="3.52093">
        <ele>17.4</ele>
        <time>2022-04-10T07:31:57.000Z</time>
      </trkpt>
      <trkpt lat="50.46816" lon="3.52098">
        <ele>17.7</ele>
        <time>2022-04-10T07:31:58.000Z</time>
      </trkpt>
      <trkpt lat="50.46824" lon="3.52105">
        <ele>18.3</ele>
        <time>2022-04-10T07:32:00.000Z</time>
      </trkpt>
      <trkpt lat="50.46831" lon="3.52111">
        <ele>18.9</ele>
        <time>2022-04-10T07:32:02.000Z</time>
      </trkpt>
      <trkpt lat="50.46837" lon="3.52115">
        <ele>18.9</ele>
        <time>2022-04-10T07:32:04.000Z</time>
      </trkpt>
      <trkpt lat="50.46843" lon="3.52122">
        <ele>18.9</ele>
        <time>2022-04-10T07:32:06.000Z</time>
      </trkpt>
      <trkpt lat="50.46848" lon="3.52126">
        <ele>19</ele>
        <time>2022-04-10T07:32:07.000Z</time>
      </trkpt>
      <trkpt lat="50.46856" lon="3.52131">
        <ele>19.4</ele>
        <time>2022-04-10T07:32:10.181Z</time>
      </trkpt>
      <trkpt lat="50.4686" lon="3.52136">
        <ele>19.8</ele>
        <time>2022-04-10T07:32:11.661Z</time>
      </trkpt>
      <trkpt lat="50.46865" lon="3.52142">
        <ele>20</ele>
        <time>2022-04-10T07:32:12.698Z</time>
      </trkpt>
      <trkpt lat="50.4687" lon="3.52146">
        <ele>20</ele>
        <time>2022-04-10T07:32:14.523Z</time>
      </trkpt>
      <trkpt lat="50.46876" lon="3.52151">
        <ele>19.9</ele>
        <time>2022-04-10T07:32:16.000Z</time>
      </trkpt>
      <trkpt lat="50.46881" lon="3.52155">
        <ele>19.9</ele>
        <time>2022-04-10T07:32:18.123Z</time>
      </trkpt>
      <trkpt lat="50.46885" lon="3.5216">
        <ele>19.9</ele>
        <time>2022-04-10T07:32:19.802Z</time>
      </trkpt>
      <trkpt lat="50.46894" lon="3.52169">
        <ele>19.4</ele>
        <time>2022-04-10T07:32:23.183Z</time>
      </trkpt>
      <trkpt lat="50.46899" lon="3.52175">
        <ele>18.7</ele>
        <time>2022-04-10T07:32:25.000Z</time>
      </trkpt>
      <trkpt lat="50.46906" lon="3.52181">
        <ele>18</ele>
        <time>2022-04-10T07:32:28.101Z</time>
      </trkpt>
      <trkpt lat="50.4691" lon="3.52187">
        <ele>17.5</ele>
        <time>2022-04-10T07:32:30.962Z</time>
      </trkpt>
      <trkpt lat="50.46914" lon="3.52192">
        <ele>17.2</ele>
        <time>2022-04-10T07:32:33.000Z</time>
      </trkpt>
      <trkpt lat="50.46919" lon="3.52197">
        <ele>16.9</ele>
        <time>2022-04-10T07:32:35.000Z</time>
      </trkpt>
      <trkpt lat="50.46924" lon="3.52202">
        <ele>16.8</ele>
        <time>2022-04-10T07:32:36.980Z</time>
      </trkpt>
      <trkpt lat="50.46929" lon="3.52207">
        <ele>16.8</ele>
        <time>2022-04-10T07:32:39.000Z</time>
      </trkpt>
      <trkpt lat="50.46935" lon="3.52212">
        <ele>16.8</ele>
        <time>2022-04-10T07:32:41.000Z</time>
      </trkpt>
      <trkpt lat="50.46939" lon="3.52216">
        <ele>16.8</ele>
        <time>2022-04-10T07:32:42.000Z</time>
      </trkpt>
      <trkpt lat="50.46944" lon="3.52223">
        <ele>17</ele>
        <time>2022-04-10T07:32:44.000Z</time>
      </trkpt>
      <trkpt lat="50.46949" lon="3.52228">
        <ele>17.2</ele>
        <time>2022-04-10T07:32:45.000Z</time>
      </trkpt>
      <trkpt lat="50.46953" lon="3.52233">
        <ele>17.7</ele>
        <time>2022-04-10T07:32:46.000Z</time>
      </trkpt>
      <trkpt lat="50.46961" lon="3.52242">
        <ele>18.9</ele>
        <time>2022-04-10T07:32:48.000Z</time>
      </trkpt>
      <trkpt lat="50.46965" lon="3.52249">
        <ele>19.9</ele>
        <time>2022-04-10T07:32:50.000Z</time>
      </trkpt>
      <trkpt lat="50.4697" lon="3.52255">
        <ele>20.4</ele>
        <time>2022-04-10T07:32:51.000Z</time>
      </trkpt>
      <trkpt lat="50.46977" lon="3.52263">
        <ele>19.8</ele>
        <time>2022-04-10T07:32:53.000Z</time>
      </trkpt>
      <trkpt lat="50.46983" lon="3.5227">
        <ele>19</ele>
        <time>2022-04-10T07:32:54.000Z</time>
      </trkpt>
      <trkpt lat="50.46987" lon="3.52276">
        <ele>18.6</ele>
        <time>2022-04-10T07:32:58.000Z</time>
      </trkpt>
      <trkpt lat="50.46983" lon="3.52279">
        <ele>18.6</ele>
        <time>2022-04-10T07:33:17.000Z</time>
      </trkpt>
      <trkpt lat="50.46974" lon="3.52281">
        <ele>18.8</ele>
        <time>2022-04-10T07:33:19.654Z</time>
      </trkpt>
      <trkpt lat="50.46968" lon="3.5228">
        <ele>18.8</ele>
        <time>2022-04-10T07:33:20.635Z</time>
      </trkpt>
      <trkpt lat="50.46961" lon="3.52281">
        <ele>18.5</ele>
        <time>2022-04-10T07:33:22.350Z</time>
      </trkpt>
      <trkpt lat="50.46955" lon="3.52276">
        <ele>18.4</ele>
        <time>2022-04-10T07:33:24.434Z</time>
      </trkpt>
      <trkpt lat="50.46953" lon="3.52268">
        <ele>18.3</ele>
        <time>2022-04-10T07:33:25.668Z</time>
      </trkpt>
      <trkpt lat="50.4695" lon="3.52259">
        <ele>17.9</ele>
        <time>2022-04-10T07:33:27.074Z</time>
      </trkpt>
      <trkpt lat="50.46954" lon="3.52245">
        <ele>18.1</ele>
        <time>2022-04-10T07:33:29.000Z</time>
      </trkpt>
      <trkpt lat="50.46957" lon="3.52238">
        <ele>18.3</ele>
        <time>2022-04-10T07:33:30.000Z</time>
      </trkpt>
      <trkpt lat="50.46961" lon="3.52231">
        <ele>18.2</ele>
        <time>2022-04-10T07:33:31.000Z</time>
      </trkpt>
      <trkpt lat="50.46965" lon="3.52223">
        <ele>17.8</ele>
        <time>2022-04-10T07:33:32.000Z</time>
      </trkpt>
      <trkpt lat="50.46968" lon="3.52213">
        <ele>17.3</ele>
        <time>2022-04-10T07:33:33.000Z</time>
      </trkpt>
      <trkpt lat="50.46971" lon="3.52207">
        <ele>16.9</ele>
        <time>2022-04-10T07:33:34.000Z</time>
      </trkpt>
      <trkpt lat="50.46973" lon="3.52202">
        <ele>16.6</ele>
        <time>2022-04-10T07:33:35.000Z</time>
      </trkpt>
      <trkpt lat="50.46978" lon="3.52193">
        <ele>16.4</ele>
        <time>2022-04-10T07:33:36.000Z</time>
      </trkpt>
      <trkpt lat="50.46986" lon="3.52183">
        <ele>16.8</ele>
        <time>2022-04-10T07:33:38.000Z</time>
      </trkpt>
      <trkpt lat="50.46991" lon="3.52178">
        <ele>17</ele>
        <time>2022-04-10T07:33:39.000Z</time>
      </trkpt>
      <trkpt lat="50.46995" lon="3.52172">
        <ele>17</ele>
        <time>2022-04-10T07:33:40.000Z</time>
      </trkpt>
      <trkpt lat="50.46999" lon="3.52165">
        <ele>17</ele>
        <time>2022-04-10T07:33:41.000Z</time>
      </trkpt>
      <trkpt lat="50.47004" lon="3.52156">
        <ele>17.4</ele>
        <time>2022-04-10T07:33:42.000Z</time>
      </trkpt>
      <trkpt lat="50.47009" lon="3.52145">
        <ele>17.8</ele>
        <time>2022-04-10T07:33:44.000Z</time>
      </trkpt>
      <trkpt lat="50.47013" lon="3.52137">
        <ele>18</ele>
        <time>2022-04-10T07:33:45.000Z</time>
      </trkpt>
      <trkpt lat="50.47017" lon="3.5213">
        <ele>17.9</ele>
        <time>2022-04-10T07:33:46.000Z</time>
      </trkpt>
      <trkpt lat="50.47019" lon="3.52123">
        <ele>17.8</ele>
        <time>2022-04-10T07:33:47.000Z</time>
      </trkpt>
      <trkpt lat="50.47022" lon="3.52117">
        <ele>17.8</ele>
        <time>2022-04-10T07:33:48.000Z</time>
      </trkpt>
      <trkpt lat="50.47025" lon="3.52112">
        <ele>17.9</ele>
        <time>2022-04-10T07:33:49.000Z</time>
      </trkpt>
      <trkpt lat="50.47029" lon="3.52107">
        <ele>17.8</ele>
        <time>2022-04-10T07:33:50.000Z</time>
      </trkpt>
      <trkpt lat="50.47035" lon="3.52099">
        <ele>17.7</ele>
        <time>2022-04-10T07:33:51.000Z</time>
      </trkpt>
      <trkpt lat="50.47043" lon="3.52095">
        <ele>17.7</ele>
        <time>2022-04-10T07:33:53.000Z</time>
      </trkpt>
      <trkpt lat="50.47048" lon="3.52088">
        <ele>17.8</ele>
        <time>2022-04-10T07:33:54.000Z</time>
      </trkpt>
      <trkpt lat="50.47052" lon="3.52081">
        <ele>17.9</ele>
        <time>2022-04-10T07:33:55.000Z</time>
      </trkpt>
      <trkpt lat="50.47055" lon="3.52075">
        <ele>18</ele>
        <time>2022-04-10T07:33:56.000Z</time>
      </trkpt>
      <trkpt lat="50.4706" lon="3.52066">
        <ele>18</ele>
        <time>2022-04-10T07:33:58.085Z</time>
      </trkpt>
      <trkpt lat="50.47063" lon="3.52059">
        <ele>18</ele>
        <time>2022-04-10T07:33:59.000Z</time>
      </trkpt>
      <trkpt lat="50.47067" lon="3.52053">
        <ele>17.9</ele>
        <time>2022-04-10T07:34:00.000Z</time>
      </trkpt>
      <trkpt lat="50.4707" lon="3.52046">
        <ele>17.8</ele>
        <time>2022-04-10T07:34:01.000Z</time>
      </trkpt>
      <trkpt lat="50.47074" lon="3.52037">
        <ele>17.8</ele>
        <time>2022-04-10T07:34:02.000Z</time>
      </trkpt>
      <trkpt lat="50.47079" lon="3.52025">
        <ele>17.8</ele>
        <time>2022-04-10T07:34:03.980Z</time>
      </trkpt>
      <trkpt lat="50.47082" lon="3.52017">
        <ele>18</ele>
        <time>2022-04-10T07:34:05.000Z</time>
      </trkpt>
      <trkpt lat="50.47086" lon="3.52006">
        <ele>17.9</ele>
        <time>2022-04-10T07:34:06.000Z</time>
      </trkpt>
      <trkpt lat="50.47091" lon="3.51993">
        <ele>17.6</ele>
        <time>2022-04-10T07:34:08.000Z</time>
      </trkpt>
      <trkpt lat="50.47094" lon="3.51984">
        <ele>17.3</ele>
        <time>2022-04-10T07:34:09.000Z</time>
      </trkpt>
      <trkpt lat="50.471" lon="3.51974">
        <ele>17</ele>
        <time>2022-04-10T07:34:11.000Z</time>
      </trkpt>
      <trkpt lat="50.47104" lon="3.51965">
        <ele>17</ele>
        <time>2022-04-10T07:34:12.000Z</time>
      </trkpt>
      <trkpt lat="50.47107" lon="3.51957">
        <ele>17</ele>
        <time>2022-04-10T07:34:13.000Z</time>
      </trkpt>
      <trkpt lat="50.4711" lon="3.51951">
        <ele>17</ele>
        <time>2022-04-10T07:34:14.000Z</time>
      </trkpt>
      <trkpt lat="50.47112" lon="3.51945">
        <ele>17</ele>
        <time>2022-04-10T07:34:15.000Z</time>
      </trkpt>
      <trkpt lat="50.47115" lon="3.51935">
        <ele>17</ele>
        <time>2022-04-10T07:34:16.000Z</time>
      </trkpt>
      <trkpt lat="50.4712" lon="3.51924">
        <ele>17</ele>
        <time>2022-04-10T07:34:18.000Z</time>
      </trkpt>
      <trkpt lat="50.47124" lon="3.51915">
        <ele>17</ele>
        <time>2022-04-10T07:34:19.000Z</time>
      </trkpt>
      <trkpt lat="50.47127" lon="3.51909">
        <ele>17</ele>
        <time>2022-04-10T07:34:20.000Z</time>
      </trkpt>
      <trkpt lat="50.47134" lon="3.51894">
        <ele>17</ele>
        <time>2022-04-10T07:34:22.000Z</time>
      </trkpt>
      <trkpt lat="50.47139" lon="3.51885">
        <ele>17</ele>
        <time>2022-04-10T07:34:24.000Z</time>
      </trkpt>
      <trkpt lat="50.47142" lon="3.5188">
        <ele>17</ele>
        <time>2022-04-10T07:34:25.000Z</time>
      </trkpt>
      <trkpt lat="50.47146" lon="3.51874">
        <ele>17</ele>
        <time>2022-04-10T07:34:26.000Z</time>
      </trkpt>
      <trkpt lat="50.47149" lon="3.51869">
        <ele>17</ele>
        <time>2022-04-10T07:34:27.000Z</time>
      </trkpt>
      <trkpt lat="50.47153" lon="3.51862">
        <ele>17</ele>
        <time>2022-04-10T07:34:28.000Z</time>
      </trkpt>
      <trkpt lat="50.47156" lon="3.51857">
        <ele>17</ele>
        <time>2022-04-10T07:34:29.000Z</time>
      </trkpt>
      <trkpt lat="50.47158" lon="3.5185">
        <ele>17</ele>
        <time>2022-04-10T07:34:30.000Z</time>
      </trkpt>
      <trkpt lat="50.47164" lon="3.51836">
        <ele>17</ele>
        <time>2022-04-10T07:34:32.000Z</time>
      </trkpt>
      <trkpt lat="50.47167" lon="3.5183">
        <ele>17</ele>
        <time>2022-04-10T07:34:33.000Z</time>
      </trkpt>
      <trkpt lat="50.4717" lon="3.51824">
        <ele>17</ele>
        <time>2022-04-10T07:34:34.000Z</time>
      </trkpt>
      <trkpt lat="50.47173" lon="3.51819">
        <ele>17</ele>
        <time>2022-04-10T07:34:35.000Z</time>
      </trkpt>
      <trkpt lat="50.47178" lon="3.5181">
        <ele>17</ele>
        <time>2022-04-10T07:34:36.000Z</time>
      </trkpt>
      <trkpt lat="50.47184" lon="3.51796">
        <ele>17</ele>
        <time>2022-04-10T07:34:38.000Z</time>
      </trkpt>
      <trkpt lat="50.47188" lon="3.51791">
        <ele>17</ele>
        <time>2022-04-10T07:34:39.000Z</time>
      </trkpt>
      <trkpt lat="50.47194" lon="3.5178">
        <ele>17</ele>
        <time>2022-04-10T07:34:41.000Z</time>
      </trkpt>
      <trkpt lat="50.47199" lon="3.51772">
        <ele>16.9</ele>
        <time>2022-04-10T07:34:42.000Z</time>
      </trkpt>
      <trkpt lat="50.47203" lon="3.51762">
        <ele>16.9</ele>
        <time>2022-04-10T07:34:44.000Z</time>
      </trkpt>
      <trkpt lat="50.47208" lon="3.51755">
        <ele>16.9</ele>
        <time>2022-04-10T07:34:45.000Z</time>
      </trkpt>
      <trkpt lat="50.4721" lon="3.51749">
        <ele>17</ele>
        <time>2022-04-10T07:34:46.000Z</time>
      </trkpt>
      <trkpt lat="50.47215" lon="3.51739">
        <ele>17</ele>
        <time>2022-04-10T07:34:48.000Z</time>
      </trkpt>
      <trkpt lat="50.47219" lon="3.5173">
        <ele>17</ele>
        <time>2022-04-10T07:34:49.000Z</time>
      </trkpt>
      <trkpt lat="50.47225" lon="3.51719">
        <ele>17</ele>
        <time>2022-04-10T07:34:51.000Z</time>
      </trkpt>
      <trkpt lat="50.47227" lon="3.51713">
        <ele>17</ele>
        <time>2022-04-10T07:34:52.000Z</time>
      </trkpt>
      <trkpt lat="50.47232" lon="3.51703">
        <ele>17</ele>
        <time>2022-04-10T07:34:54.000Z</time>
      </trkpt>
      <trkpt lat="50.47237" lon="3.51695">
        <ele>17</ele>
        <time>2022-04-10T07:34:55.000Z</time>
      </trkpt>
      <trkpt lat="50.47242" lon="3.51685">
        <ele>17</ele>
        <time>2022-04-10T07:34:57.000Z</time>
      </trkpt>
      <trkpt lat="50.47246" lon="3.51677">
        <ele>17</ele>
        <time>2022-04-10T07:34:58.000Z</time>
      </trkpt>
      <trkpt lat="50.47253" lon="3.51665">
        <ele>16.9</ele>
        <time>2022-04-10T07:35:00.000Z</time>
      </trkpt>
      <trkpt lat="50.47256" lon="3.5166">
        <ele>16.8</ele>
        <time>2022-04-10T07:35:01.000Z</time>
      </trkpt>
      <trkpt lat="50.47261" lon="3.51651">
        <ele>16.8</ele>
        <time>2022-04-10T07:35:03.000Z</time>
      </trkpt>
      <trkpt lat="50.47265" lon="3.51643">
        <ele>16.9</ele>
        <time>2022-04-10T07:35:04.000Z</time>
      </trkpt>
      <trkpt lat="50.47271" lon="3.51632">
        <ele>17</ele>
        <time>2022-04-10T07:35:06.000Z</time>
      </trkpt>
      <trkpt lat="50.47276" lon="3.51623">
        <ele>17</ele>
        <time>2022-04-10T07:35:08.000Z</time>
      </trkpt>
      <trkpt lat="50.47281" lon="3.5161">
        <ele>16.9</ele>
        <time>2022-04-10T07:35:10.000Z</time>
      </trkpt>
      <trkpt lat="50.47285" lon="3.51603">
        <ele>16.7</ele>
        <time>2022-04-10T07:35:12.000Z</time>
      </trkpt>
      <trkpt lat="50.47289" lon="3.51593">
        <ele>16.6</ele>
        <time>2022-04-10T07:35:13.000Z</time>
      </trkpt>
      <trkpt lat="50.47292" lon="3.51587">
        <ele>16.5</ele>
        <time>2022-04-10T07:35:14.000Z</time>
      </trkpt>
      <trkpt lat="50.47297" lon="3.51577">
        <ele>16.5</ele>
        <time>2022-04-10T07:35:16.000Z</time>
      </trkpt>
      <trkpt lat="50.47302" lon="3.51569">
        <ele>16.6</ele>
        <time>2022-04-10T07:35:17.000Z</time>
      </trkpt>
      <trkpt lat="50.47307" lon="3.51557">
        <ele>16.9</ele>
        <time>2022-04-10T07:35:19.000Z</time>
      </trkpt>
      <trkpt lat="50.47312" lon="3.51548">
        <ele>16.8</ele>
        <time>2022-04-10T07:35:21.000Z</time>
      </trkpt>
      <trkpt lat="50.47316" lon="3.5154">
        <ele>16.8</ele>
        <time>2022-04-10T07:35:22.000Z</time>
      </trkpt>
      <trkpt lat="50.47321" lon="3.51529">
        <ele>17</ele>
        <time>2022-04-10T07:35:24.000Z</time>
      </trkpt>
      <trkpt lat="50.47327" lon="3.51516">
        <ele>17</ele>
        <time>2022-04-10T07:35:26.000Z</time>
      </trkpt>
      <trkpt lat="50.47331" lon="3.51508">
        <ele>17</ele>
        <time>2022-04-10T07:35:28.000Z</time>
      </trkpt>
      <trkpt lat="50.47335" lon="3.51499">
        <ele>16.9</ele>
        <time>2022-04-10T07:35:29.000Z</time>
      </trkpt>
      <trkpt lat="50.47338" lon="3.51493">
        <ele>16.8</ele>
        <time>2022-04-10T07:35:30.000Z</time>
      </trkpt>
      <trkpt lat="50.47343" lon="3.51483">
        <ele>16.7</ele>
        <time>2022-04-10T07:35:32.000Z</time>
      </trkpt>
      <trkpt lat="50.47346" lon="3.51477">
        <ele>16.6</ele>
        <time>2022-04-10T07:35:33.000Z</time>
      </trkpt>
      <trkpt lat="50.47352" lon="3.51465">
        <ele>16.2</ele>
        <time>2022-04-10T07:35:35.000Z</time>
      </trkpt>
      <trkpt lat="50.47355" lon="3.51458">
        <ele>16.1</ele>
        <time>2022-04-10T07:35:36.000Z</time>
      </trkpt>
      <trkpt lat="50.4736" lon="3.51448">
        <ele>16</ele>
        <time>2022-04-10T07:35:38.000Z</time>
      </trkpt>
      <trkpt lat="50.47364" lon="3.51439">
        <ele>16</ele>
        <time>2022-04-10T07:35:39.000Z</time>
      </trkpt>
      <trkpt lat="50.4737" lon="3.51428">
        <ele>16</ele>
        <time>2022-04-10T07:35:41.000Z</time>
      </trkpt>
      <trkpt lat="50.47373" lon="3.51422">
        <ele>16</ele>
        <time>2022-04-10T07:35:42.000Z</time>
      </trkpt>
      <trkpt lat="50.47376" lon="3.51416">
        <ele>16</ele>
        <time>2022-04-10T07:35:43.000Z</time>
      </trkpt>
      <trkpt lat="50.47382" lon="3.51411">
        <ele>16</ele>
        <time>2022-04-10T07:35:45.032Z</time>
      </trkpt>
      <trkpt lat="50.47383" lon="3.51404">
        <ele>16</ele>
        <time>2022-04-10T07:35:46.000Z</time>
      </trkpt>
      <trkpt lat="50.47387" lon="3.51395">
        <ele>16</ele>
        <time>2022-04-10T07:35:47.000Z</time>
      </trkpt>
      <trkpt lat="50.4739" lon="3.51389">
        <ele>16</ele>
        <time>2022-04-10T07:35:48.000Z</time>
      </trkpt>
      <trkpt lat="50.47395" lon="3.51379">
        <ele>16</ele>
        <time>2022-04-10T07:35:50.000Z</time>
      </trkpt>
      <trkpt lat="50.47399" lon="3.51371">
        <ele>16</ele>
        <time>2022-04-10T07:35:51.000Z</time>
      </trkpt>
      <trkpt lat="50.47405" lon="3.5136">
        <ele>16</ele>
        <time>2022-04-10T07:35:53.000Z</time>
      </trkpt>
      <trkpt lat="50.4741" lon="3.5135">
        <ele>16</ele>
        <time>2022-04-10T07:35:55.000Z</time>
      </trkpt>
      <trkpt lat="50.47414" lon="3.51342">
        <ele>16</ele>
        <time>2022-04-10T07:35:56.000Z</time>
      </trkpt>
      <trkpt lat="50.47418" lon="3.51332">
        <ele>16</ele>
        <time>2022-04-10T07:35:58.000Z</time>
      </trkpt>
      <trkpt lat="50.47421" lon="3.51324">
        <ele>16</ele>
        <time>2022-04-10T07:35:59.000Z</time>
      </trkpt>
      <trkpt lat="50.47428" lon="3.51313">
        <ele>16</ele>
        <time>2022-04-10T07:36:01.000Z</time>
      </trkpt>
      <trkpt lat="50.47434" lon="3.51302">
        <ele>16</ele>
        <time>2022-04-10T07:36:03.000Z</time>
      </trkpt>
      <trkpt lat="50.47437" lon="3.51296">
        <ele>16</ele>
        <time>2022-04-10T07:36:04.000Z</time>
      </trkpt>
      <trkpt lat="50.47441" lon="3.51287">
        <ele>16</ele>
        <time>2022-04-10T07:36:06.000Z</time>
      </trkpt>
      <trkpt lat="50.47445" lon="3.51278">
        <ele>16</ele>
        <time>2022-04-10T07:36:07.000Z</time>
      </trkpt>
      <trkpt lat="50.47448" lon="3.51272">
        <ele>16</ele>
        <time>2022-04-10T07:36:08.998Z</time>
      </trkpt>
      <trkpt lat="50.47453" lon="3.51261">
        <ele>16</ele>
        <time>2022-04-10T07:36:10.036Z</time>
      </trkpt>
      <trkpt lat="50.47456" lon="3.51254">
        <ele>16</ele>
        <time>2022-04-10T07:36:10.995Z</time>
      </trkpt>
      <trkpt lat="50.47461" lon="3.51244">
        <ele>16</ele>
        <time>2022-04-10T07:36:13.158Z</time>
      </trkpt>
      <trkpt lat="50.47466" lon="3.51235">
        <ele>16</ele>
        <time>2022-04-10T07:36:15.000Z</time>
      </trkpt>
      <trkpt lat="50.4747" lon="3.51226">
        <ele>16</ele>
        <time>2022-04-10T07:36:16.202Z</time>
      </trkpt>
      <trkpt lat="50.47476" lon="3.51216">
        <ele>16</ele>
        <time>2022-04-10T07:36:18.316Z</time>
      </trkpt>
      <trkpt lat="50.4748" lon="3.51208">
        <ele>16</ele>
        <time>2022-04-10T07:36:20.135Z</time>
      </trkpt>
      <trkpt lat="50.47484" lon="3.51199">
        <ele>16</ele>
        <time>2022-04-10T07:36:22.000Z</time>
      </trkpt>
      <trkpt lat="50.47488" lon="3.51191">
        <ele>16.1</ele>
        <time>2022-04-10T07:36:22.995Z</time>
      </trkpt>
      <trkpt lat="50.47491" lon="3.51186">
        <ele>16.2</ele>
        <time>2022-04-10T07:36:24.000Z</time>
      </trkpt>
      <trkpt lat="50.47496" lon="3.51177">
        <ele>16.5</ele>
        <time>2022-04-10T07:36:26.000Z</time>
      </trkpt>
      <trkpt lat="50.47501" lon="3.51167">
        <ele>17</ele>
        <time>2022-04-10T07:36:28.000Z</time>
      </trkpt>
      <trkpt lat="50.47505" lon="3.51161">
        <ele>17</ele>
        <time>2022-04-10T07:36:30.000Z</time>
      </trkpt>
      <trkpt lat="50.47507" lon="3.51153">
        <ele>17</ele>
        <time>2022-04-10T07:36:31.000Z</time>
      </trkpt>
      <trkpt lat="50.47509" lon="3.51144">
        <ele>17</ele>
        <time>2022-04-10T07:36:33.122Z</time>
      </trkpt>
      <trkpt lat="50.47518" lon="3.51135">
        <ele>17.1</ele>
        <time>2022-04-10T07:36:35.000Z</time>
      </trkpt>
      <trkpt lat="50.47522" lon="3.51127">
        <ele>17.3</ele>
        <time>2022-04-10T07:36:36.000Z</time>
      </trkpt>
      <trkpt lat="50.47525" lon="3.51121">
        <ele>17.6</ele>
        <time>2022-04-10T07:36:37.000Z</time>
      </trkpt>
      <trkpt lat="50.47528" lon="3.51115">
        <ele>17.9</ele>
        <time>2022-04-10T07:36:38.000Z</time>
      </trkpt>
      <trkpt lat="50.47532" lon="3.51101">
        <ele>17.7</ele>
        <time>2022-04-10T07:36:42.000Z</time>
      </trkpt>
      <trkpt lat="50.47538" lon="3.5109">
        <ele>17.5</ele>
        <time>2022-04-10T07:36:43.000Z</time>
      </trkpt>
      <trkpt lat="50.47545" lon="3.51079">
        <ele>17.5</ele>
        <time>2022-04-10T07:36:45.000Z</time>
      </trkpt>
      <trkpt lat="50.47554" lon="3.51059">
        <ele>17.1</ele>
        <time>2022-04-10T07:36:48.000Z</time>
      </trkpt>
      <trkpt lat="50.47557" lon="3.51052">
        <ele>17</ele>
        <time>2022-04-10T07:36:49.636Z</time>
      </trkpt>
      <trkpt lat="50.4756" lon="3.51045">
        <ele>17</ele>
        <time>2022-04-10T07:36:51.159Z</time>
      </trkpt>
      <trkpt lat="50.47565" lon="3.51036">
        <ele>17</ele>
        <time>2022-04-10T07:36:52.956Z</time>
      </trkpt>
      <trkpt lat="50.47568" lon="3.51027">
        <ele>17</ele>
        <time>2022-04-10T07:36:54.000Z</time>
      </trkpt>
      <trkpt lat="50.47574" lon="3.51014">
        <ele>17</ele>
        <time>2022-04-10T07:36:56.000Z</time>
      </trkpt>
      <trkpt lat="50.47577" lon="3.51009">
        <ele>17</ele>
        <time>2022-04-10T07:36:57.000Z</time>
      </trkpt>
      <trkpt lat="50.47582" lon="3.51001">
        <ele>17</ele>
        <time>2022-04-10T07:36:59.000Z</time>
      </trkpt>
      <trkpt lat="50.47586" lon="3.5101">
        <ele>17</ele>
        <time>2022-04-10T07:37:01.000Z</time>
      </trkpt>
      <trkpt lat="50.47588" lon="3.51">
        <ele>17</ele>
        <time>2022-04-10T07:37:02.177Z</time>
      </trkpt>
      <trkpt lat="50.47594" lon="3.50983">
        <ele>17</ele>
        <time>2022-04-10T07:37:03.939Z</time>
      </trkpt>
      <trkpt lat="50.47598" lon="3.50972">
        <ele>17</ele>
        <time>2022-04-10T07:37:05.997Z</time>
      </trkpt>
      <trkpt lat="50.47602" lon="3.50963">
        <ele>17</ele>
        <time>2022-04-10T07:37:07.000Z</time>
      </trkpt>
      <trkpt lat="50.47605" lon="3.50954">
        <ele>17</ele>
        <time>2022-04-10T07:37:09.000Z</time>
      </trkpt>
      <trkpt lat="50.4761" lon="3.50944">
        <ele>17</ele>
        <time>2022-04-10T07:37:10.000Z</time>
      </trkpt>
      <trkpt lat="50.47613" lon="3.50936">
        <ele>17</ele>
        <time>2022-04-10T07:37:11.418Z</time>
      </trkpt>
      <trkpt lat="50.47616" lon="3.50929">
        <ele>17</ele>
        <time>2022-04-10T07:37:12.534Z</time>
      </trkpt>
      <trkpt lat="50.47619" lon="3.50923">
        <ele>17</ele>
        <time>2022-04-10T07:37:14.000Z</time>
      </trkpt>
      <trkpt lat="50.47625" lon="3.50914">
        <ele>17</ele>
        <time>2022-04-10T07:37:16.000Z</time>
      </trkpt>
      <trkpt lat="50.47627" lon="3.50906">
        <ele>17</ele>
        <time>2022-04-10T07:37:17.000Z</time>
      </trkpt>
      <trkpt lat="50.47627" lon="3.50898">
        <ele>17</ele>
        <time>2022-04-10T07:37:18.342Z</time>
      </trkpt>
      <trkpt lat="50.47633" lon="3.50888">
        <ele>17</ele>
        <time>2022-04-10T07:37:19.744Z</time>
      </trkpt>
      <trkpt lat="50.47638" lon="3.50881">
        <ele>17</ele>
        <time>2022-04-10T07:37:21.102Z</time>
      </trkpt>
      <trkpt lat="50.47646" lon="3.5087">
        <ele>17</ele>
        <time>2022-04-10T07:37:23.113Z</time>
      </trkpt>
      <trkpt lat="50.4765" lon="3.50863">
        <ele>17</ele>
        <time>2022-04-10T07:37:24.820Z</time>
      </trkpt>
      <trkpt lat="50.47654" lon="3.50856">
        <ele>17</ele>
        <time>2022-04-10T07:37:26.022Z</time>
      </trkpt>
      <trkpt lat="50.47657" lon="3.50851">
        <ele>17</ele>
        <time>2022-04-10T07:37:27.083Z</time>
      </trkpt>
      <trkpt lat="50.47664" lon="3.50837">
        <ele>17</ele>
        <time>2022-04-10T07:37:30.000Z</time>
      </trkpt>
      <trkpt lat="50.47668" lon="3.50827">
        <ele>17</ele>
        <time>2022-04-10T07:37:31.939Z</time>
      </trkpt>
      <trkpt lat="50.47671" lon="3.5082">
        <ele>17</ele>
        <time>2022-04-10T07:37:33.000Z</time>
      </trkpt>
      <trkpt lat="50.47677" lon="3.50807">
        <ele>17</ele>
        <time>2022-04-10T07:37:35.000Z</time>
      </trkpt>
      <trkpt lat="50.47682" lon="3.50797">
        <ele>17</ele>
        <time>2022-04-10T07:37:37.000Z</time>
      </trkpt>
      <trkpt lat="50.47687" lon="3.50788">
        <ele>17</ele>
        <time>2022-04-10T07:37:38.000Z</time>
      </trkpt>
      <trkpt lat="50.47693" lon="3.50776">
        <ele>17</ele>
        <time>2022-04-10T07:37:40.000Z</time>
      </trkpt>
      <trkpt lat="50.47698" lon="3.50768">
        <ele>17</ele>
        <time>2022-04-10T07:37:42.000Z</time>
      </trkpt>
      <trkpt lat="50.47702" lon="3.50759">
        <ele>17</ele>
        <time>2022-04-10T07:37:43.000Z</time>
      </trkpt>
      <trkpt lat="50.47707" lon="3.50751">
        <ele>17</ele>
        <time>2022-04-10T07:37:45.000Z</time>
      </trkpt>
      <trkpt lat="50.47712" lon="3.50745">
        <ele>17</ele>
        <time>2022-04-10T07:37:47.000Z</time>
      </trkpt>
      <trkpt lat="50.47719" lon="3.50734">
        <ele>17</ele>
        <time>2022-04-10T07:37:49.000Z</time>
      </trkpt>
      <trkpt lat="50.47725" lon="3.50723">
        <ele>17</ele>
        <time>2022-04-10T07:37:51.110Z</time>
      </trkpt>
      <trkpt lat="50.47727" lon="3.50715">
        <ele>17</ele>
        <time>2022-04-10T07:37:53.465Z</time>
      </trkpt>
      <trkpt lat="50.47731" lon="3.50709">
        <ele>17</ele>
        <time>2022-04-10T07:37:54.868Z</time>
      </trkpt>
      <trkpt lat="50.47734" lon="3.507">
        <ele>17</ele>
        <time>2022-04-10T07:37:56.106Z</time>
      </trkpt>
      <trkpt lat="50.47738" lon="3.50692">
        <ele>16.9</ele>
        <time>2022-04-10T07:37:57.149Z</time>
      </trkpt>
      <trkpt lat="50.47741" lon="3.50685">
        <ele>16.6</ele>
        <time>2022-04-10T07:37:58.449Z</time>
      </trkpt>
      <trkpt lat="50.47744" lon="3.50677">
        <ele>16.4</ele>
        <time>2022-04-10T07:37:59.926Z</time>
      </trkpt>
      <trkpt lat="50.47749" lon="3.50665">
        <ele>16</ele>
        <time>2022-04-10T07:38:03.000Z</time>
      </trkpt>
      <trkpt lat="50.47758" lon="3.50649">
        <ele>17.2</ele>
        <time>2022-04-10T07:38:06.026Z</time>
      </trkpt>
      <trkpt lat="50.47763" lon="3.50641">
        <ele>18.2</ele>
        <time>2022-04-10T07:38:07.709Z</time>
      </trkpt>
      <trkpt lat="50.47766" lon="3.50636">
        <ele>18.7</ele>
        <time>2022-04-10T07:38:09.000Z</time>
      </trkpt>
      <trkpt lat="50.47769" lon="3.5063">
        <ele>18.9</ele>
        <time>2022-04-10T07:38:11.000Z</time>
      </trkpt>
      <trkpt lat="50.47772" lon="3.50622">
        <ele>19</ele>
        <time>2022-04-10T07:38:12.000Z</time>
      </trkpt>
      <trkpt lat="50.47775" lon="3.50616">
        <ele>19</ele>
        <time>2022-04-10T07:38:13.189Z</time>
      </trkpt>
      <trkpt lat="50.47778" lon="3.5061">
        <ele>18.9</ele>
        <time>2022-04-10T07:38:14.628Z</time>
      </trkpt>
      <trkpt lat="50.47785" lon="3.50597">
        <ele>18.5</ele>
        <time>2022-04-10T07:38:17.000Z</time>
      </trkpt>
      <trkpt lat="50.47789" lon="3.5059">
        <ele>18.7</ele>
        <time>2022-04-10T07:38:19.000Z</time>
      </trkpt>
      <trkpt lat="50.47795" lon="3.50582">
        <ele>19.4</ele>
        <time>2022-04-10T07:38:21.151Z</time>
      </trkpt>
      <trkpt lat="50.47799" lon="3.50574">
        <ele>19.5</ele>
        <time>2022-04-10T07:38:22.727Z</time>
      </trkpt>
      <trkpt lat="50.47804" lon="3.50568">
        <ele>19.7</ele>
        <time>2022-04-10T07:38:26.148Z</time>
      </trkpt>
      <trkpt lat="50.4781" lon="3.50559">
        <ele>19.3</ele>
        <time>2022-04-10T07:38:28.010Z</time>
      </trkpt>
      <trkpt lat="50.47814" lon="3.50549">
        <ele>18.8</ele>
        <time>2022-04-10T07:38:30.000Z</time>
      </trkpt>
      <trkpt lat="50.47818" lon="3.50542">
        <ele>18.7</ele>
        <time>2022-04-10T07:38:32.028Z</time>
      </trkpt>
      <trkpt lat="50.47822" lon="3.50536">
        <ele>18.7</ele>
        <time>2022-04-10T07:38:33.000Z</time>
      </trkpt>
      <trkpt lat="50.47827" lon="3.5053">
        <ele>19.1</ele>
        <time>2022-04-10T07:38:34.806Z</time>
      </trkpt>
      <trkpt lat="50.47831" lon="3.50523">
        <ele>19.3</ele>
        <time>2022-04-10T07:38:36.000Z</time>
      </trkpt>
      <trkpt lat="50.47837" lon="3.50514">
        <ele>19</ele>
        <time>2022-04-10T07:38:38.000Z</time>
      </trkpt>
      <trkpt lat="50.4784" lon="3.50508">
        <ele>18.8</ele>
        <time>2022-04-10T07:38:39.000Z</time>
      </trkpt>
      <trkpt lat="50.47843" lon="3.50502">
        <ele>18.8</ele>
        <time>2022-04-10T07:38:40.000Z</time>
      </trkpt>
      <trkpt lat="50.47849" lon="3.50493">
        <ele>18.6</ele>
        <time>2022-04-10T07:38:41.928Z</time>
      </trkpt>
      <trkpt lat="50.47852" lon="3.50486">
        <ele>18.5</ele>
        <time>2022-04-10T07:38:44.000Z</time>
      </trkpt>
      <trkpt lat="50.47857" lon="3.50477">
        <ele>18.7</ele>
        <time>2022-04-10T07:38:45.125Z</time>
      </trkpt>
      <trkpt lat="50.47864" lon="3.50468">
        <ele>18.7</ele>
        <time>2022-04-10T07:38:46.989Z</time>
      </trkpt>
      <trkpt lat="50.47869" lon="3.5046">
        <ele>18.3</ele>
        <time>2022-04-10T07:38:49.000Z</time>
      </trkpt>
      <trkpt lat="50.47875" lon="3.50451">
        <ele>18.5</ele>
        <time>2022-04-10T07:38:51.107Z</time>
      </trkpt>
      <trkpt lat="50.47882" lon="3.50438">
        <ele>19</ele>
        <time>2022-04-10T07:38:53.910Z</time>
      </trkpt>
      <trkpt lat="50.47886" lon="3.50431">
        <ele>19.2</ele>
        <time>2022-04-10T07:38:56.000Z</time>
      </trkpt>
      <trkpt lat="50.47891" lon="3.50422">
        <ele>19.2</ele>
        <time>2022-04-10T07:38:58.000Z</time>
      </trkpt>
      <trkpt lat="50.47896" lon="3.50412">
        <ele>18.6</ele>
        <time>2022-04-10T07:39:00.000Z</time>
      </trkpt>
      <trkpt lat="50.47899" lon="3.50405">
        <ele>18.2</ele>
        <time>2022-04-10T07:39:02.000Z</time>
      </trkpt>
      <trkpt lat="50.47903" lon="3.504">
        <ele>18.1</ele>
        <time>2022-04-10T07:39:03.000Z</time>
      </trkpt>
      <trkpt lat="50.47907" lon="3.50395">
        <ele>18.2</ele>
        <time>2022-04-10T07:39:04.000Z</time>
      </trkpt>
      <trkpt lat="50.47911" lon="3.50387">
        <ele>18.3</ele>
        <time>2022-04-10T07:39:05.000Z</time>
      </trkpt>
      <trkpt lat="50.47916" lon="3.50379">
        <ele>18.6</ele>
        <time>2022-04-10T07:39:07.000Z</time>
      </trkpt>
      <trkpt lat="50.47921" lon="3.50371">
        <ele>18.5</ele>
        <time>2022-04-10T07:39:09.130Z</time>
      </trkpt>
      <trkpt lat="50.47925" lon="3.50366">
        <ele>18.6</ele>
        <time>2022-04-10T07:39:10.450Z</time>
      </trkpt>
      <trkpt lat="50.47928" lon="3.50362">
        <ele>18.8</ele>
        <time>2022-04-10T07:39:11.625Z</time>
      </trkpt>
      <trkpt lat="50.47934" lon="3.50351">
        <ele>18.6</ele>
        <time>2022-04-10T07:39:14.000Z</time>
      </trkpt>
      <trkpt lat="50.47938" lon="3.50345">
        <ele>18.7</ele>
        <time>2022-04-10T07:39:16.000Z</time>
      </trkpt>
      <trkpt lat="50.47942" lon="3.5034">
        <ele>18.9</ele>
        <time>2022-04-10T07:39:17.000Z</time>
      </trkpt>
      <trkpt lat="50.47947" lon="3.5033">
        <ele>18.6</ele>
        <time>2022-04-10T07:39:19.285Z</time>
      </trkpt>
      <trkpt lat="50.47952" lon="3.50323">
        <ele>18.1</ele>
        <time>2022-04-10T07:39:21.350Z</time>
      </trkpt>
      <trkpt lat="50.47956" lon="3.50318">
        <ele>18.1</ele>
        <time>2022-04-10T07:39:23.087Z</time>
      </trkpt>
      <trkpt lat="50.47961" lon="3.50313">
        <ele>18.4</ele>
        <time>2022-04-10T07:39:25.000Z</time>
      </trkpt>
      <trkpt lat="50.47964" lon="3.50305">
        <ele>18.8</ele>
        <time>2022-04-10T07:39:26.927Z</time>
      </trkpt>
      <trkpt lat="50.47969" lon="3.50299">
        <ele>19.3</ele>
        <time>2022-04-10T07:39:29.087Z</time>
      </trkpt>
      <trkpt lat="50.47973" lon="3.50291">
        <ele>19.4</ele>
        <time>2022-04-10T07:39:30.929Z</time>
      </trkpt>
      <trkpt lat="50.47978" lon="3.50284">
        <ele>19.1</ele>
        <time>2022-04-10T07:39:33.000Z</time>
      </trkpt>
      <trkpt lat="50.47983" lon="3.50278">
        <ele>19</ele>
        <time>2022-04-10T07:39:35.000Z</time>
      </trkpt>
      <trkpt lat="50.47986" lon="3.50273">
        <ele>18.8</ele>
        <time>2022-04-10T07:39:36.000Z</time>
      </trkpt>
      <trkpt lat="50.47991" lon="3.50264">
        <ele>18.9</ele>
        <time>2022-04-10T07:39:38.389Z</time>
      </trkpt>
      <trkpt lat="50.47995" lon="3.50257">
        <ele>19.3</ele>
        <time>2022-04-10T07:39:39.350Z</time>
      </trkpt>
      <trkpt lat="50.48" lon="3.50249">
        <ele>19.8</ele>
        <time>2022-04-10T07:39:42.000Z</time>
      </trkpt>
      <trkpt lat="50.48005" lon="3.50242">
        <ele>19</ele>
        <time>2022-04-10T07:39:44.000Z</time>
      </trkpt>
      <trkpt lat="50.48008" lon="3.50237">
        <ele>18.7</ele>
        <time>2022-04-10T07:39:45.000Z</time>
      </trkpt>
      <trkpt lat="50.48012" lon="3.5023">
        <ele>18.5</ele>
        <time>2022-04-10T07:39:46.000Z</time>
      </trkpt>
      <trkpt lat="50.48018" lon="3.50222">
        <ele>18.9</ele>
        <time>2022-04-10T07:39:47.488Z</time>
      </trkpt>
      <trkpt lat="50.48022" lon="3.50214">
        <ele>19.1</ele>
        <time>2022-04-10T07:39:49.000Z</time>
      </trkpt>
      <trkpt lat="50.48027" lon="3.50204">
        <ele>19.3</ele>
        <time>2022-04-10T07:39:50.987Z</time>
      </trkpt>
      <trkpt lat="50.48035" lon="3.50192">
        <ele>19.1</ele>
        <time>2022-04-10T07:39:53.186Z</time>
      </trkpt>
      <trkpt lat="50.48038" lon="3.50184">
        <ele>18.6</ele>
        <time>2022-04-10T07:39:54.791Z</time>
      </trkpt>
      <trkpt lat="50.48042" lon="3.50177">
        <ele>18.5</ele>
        <time>2022-04-10T07:39:57.107Z</time>
      </trkpt>
      <trkpt lat="50.48045" lon="3.50171">
        <ele>18.6</ele>
        <time>2022-04-10T07:39:58.000Z</time>
      </trkpt>
      <trkpt lat="50.48049" lon="3.50164">
        <ele>19</ele>
        <time>2022-04-10T07:40:00.000Z</time>
      </trkpt>
      <trkpt lat="50.48054" lon="3.50158">
        <ele>19.1</ele>
        <time>2022-04-10T07:40:01.000Z</time>
      </trkpt>
      <trkpt lat="50.48058" lon="3.50151">
        <ele>18.9</ele>
        <time>2022-04-10T07:40:03.024Z</time>
      </trkpt>
      <trkpt lat="50.48062" lon="3.50144">
        <ele>18.7</ele>
        <time>2022-04-10T07:40:04.000Z</time>
      </trkpt>
      <trkpt lat="50.48066" lon="3.50139">
        <ele>18.7</ele>
        <time>2022-04-10T07:40:05.000Z</time>
      </trkpt>
      <trkpt lat="50.4807" lon="3.50133">
        <ele>18.8</ele>
        <time>2022-04-10T07:40:06.365Z</time>
      </trkpt>
      <trkpt lat="50.48075" lon="3.50125">
        <ele>19.1</ele>
        <time>2022-04-10T07:40:07.787Z</time>
      </trkpt>
      <trkpt lat="50.48079" lon="3.50119">
        <ele>19.4</ele>
        <time>2022-04-10T07:40:08.691Z</time>
      </trkpt>
      <trkpt lat="50.48084" lon="3.5011">
        <ele>19.9</ele>
        <time>2022-04-10T07:40:11.000Z</time>
      </trkpt>
      <trkpt lat="50.48088" lon="3.50099">
        <ele>18.8</ele>
        <time>2022-04-10T07:40:13.000Z</time>
      </trkpt>
      <trkpt lat="50.48092" lon="3.50093">
        <ele>18.6</ele>
        <time>2022-04-10T07:40:14.000Z</time>
      </trkpt>
      <trkpt lat="50.48097" lon="3.50085">
        <ele>18.5</ele>
        <time>2022-04-10T07:40:15.466Z</time>
      </trkpt>
      <trkpt lat="50.48099" lon="3.50078">
        <ele>18.4</ele>
        <time>2022-04-10T07:40:16.426Z</time>
      </trkpt>
      <trkpt lat="50.48107" lon="3.5007">
        <ele>18.7</ele>
        <time>2022-04-10T07:40:20.000Z</time>
      </trkpt>
      <trkpt lat="50.48113" lon="3.50062">
        <ele>18.5</ele>
        <time>2022-04-10T07:40:22.000Z</time>
      </trkpt>
      <trkpt lat="50.48117" lon="3.50057">
        <ele>18.3</ele>
        <time>2022-04-10T07:40:23.000Z</time>
      </trkpt>
      <trkpt lat="50.48124" lon="3.50046">
        <ele>18.1</ele>
        <time>2022-04-10T07:40:25.090Z</time>
      </trkpt>
      <trkpt lat="50.48135" lon="3.50031">
        <ele>18.6</ele>
        <time>2022-04-10T07:40:28.210Z</time>
      </trkpt>
      <trkpt lat="50.48139" lon="3.50026">
        <ele>18.9</ele>
        <time>2022-04-10T07:40:31.000Z</time>
      </trkpt>
      <trkpt lat="50.48144" lon="3.50017">
        <ele>18.6</ele>
        <time>2022-04-10T07:40:33.000Z</time>
      </trkpt>
      <trkpt lat="50.48148" lon="3.5001">
        <ele>18.5</ele>
        <time>2022-04-10T07:40:35.029Z</time>
      </trkpt>
      <trkpt lat="50.48152" lon="3.50004">
        <ele>18.5</ele>
        <time>2022-04-10T07:40:36.009Z</time>
      </trkpt>
      <trkpt lat="50.48155" lon="3.49997">
        <ele>18.4</ele>
        <time>2022-04-10T07:40:37.328Z</time>
      </trkpt>
      <trkpt lat="50.48159" lon="3.49989">
        <ele>18.2</ele>
        <time>2022-04-10T07:40:38.634Z</time>
      </trkpt>
      <trkpt lat="50.48163" lon="3.49981">
        <ele>18.1</ele>
        <time>2022-04-10T07:40:39.805Z</time>
      </trkpt>
      <trkpt lat="50.48168" lon="3.49975">
        <ele>18.1</ele>
        <time>2022-04-10T07:40:41.945Z</time>
      </trkpt>
      <trkpt lat="50.48172" lon="3.4997">
        <ele>18</ele>
        <time>2022-04-10T07:40:43.000Z</time>
      </trkpt>
      <trkpt lat="50.48174" lon="3.49962">
        <ele>17.9</ele>
        <time>2022-04-10T07:40:44.005Z</time>
      </trkpt>
      <trkpt lat="50.48179" lon="3.49957">
        <ele>18.2</ele>
        <time>2022-04-10T07:40:45.451Z</time>
      </trkpt>
      <trkpt lat="50.48183" lon="3.49954">
        <ele>18.5</ele>
        <time>2022-04-10T07:40:46.550Z</time>
      </trkpt>
      <trkpt lat="50.48186" lon="3.49945">
        <ele>19.1</ele>
        <time>2022-04-10T07:40:49.000Z</time>
      </trkpt>
      <trkpt lat="50.4819" lon="3.4994">
        <ele>19.2</ele>
        <time>2022-04-10T07:40:50.049Z</time>
      </trkpt>
      <trkpt lat="50.48193" lon="3.49934">
        <ele>19.1</ele>
        <time>2022-04-10T07:40:51.128Z</time>
      </trkpt>
      <trkpt lat="50.48199" lon="3.49927">
        <ele>18.7</ele>
        <time>2022-04-10T07:40:53.000Z</time>
      </trkpt>
      <trkpt lat="50.48203" lon="3.49921">
        <ele>18.5</ele>
        <time>2022-04-10T07:40:55.000Z</time>
      </trkpt>
      <trkpt lat="50.48206" lon="3.49913">
        <ele>18.3</ele>
        <time>2022-04-10T07:40:57.000Z</time>
      </trkpt>
      <trkpt lat="50.4821" lon="3.49904">
        <ele>18.2</ele>
        <time>2022-04-10T07:40:59.000Z</time>
      </trkpt>
      <trkpt lat="50.48215" lon="3.499">
        <ele>18.4</ele>
        <time>2022-04-10T07:41:01.000Z</time>
      </trkpt>
      <trkpt lat="50.4822" lon="3.49893">
        <ele>18.8</ele>
        <time>2022-04-10T07:41:03.348Z</time>
      </trkpt>
      <trkpt lat="50.48223" lon="3.49886">
        <ele>18.8</ele>
        <time>2022-04-10T07:41:04.431Z</time>
      </trkpt>
      <trkpt lat="50.48227" lon="3.49879">
        <ele>18.4</ele>
        <time>2022-04-10T07:41:16.000Z</time>
      </trkpt>
      <trkpt lat="50.48231" lon="3.49873">
        <ele>18.3</ele>
        <time>2022-04-10T07:41:18.000Z</time>
      </trkpt>
      <trkpt lat="50.48236" lon="3.49865">
        <ele>18.5</ele>
        <time>2022-04-10T07:41:20.000Z</time>
      </trkpt>
      <trkpt lat="50.48239" lon="3.49859">
        <ele>18.7</ele>
        <time>2022-04-10T07:41:21.409Z</time>
      </trkpt>
      <trkpt lat="50.48243" lon="3.49853">
        <ele>18.9</ele>
        <time>2022-04-10T07:41:22.767Z</time>
      </trkpt>
      <trkpt lat="50.48246" lon="3.49846">
        <ele>19.1</ele>
        <time>2022-04-10T07:41:24.000Z</time>
      </trkpt>
      <trkpt lat="50.48251" lon="3.49839">
        <ele>19.2</ele>
        <time>2022-04-10T07:41:25.652Z</time>
      </trkpt>
      <trkpt lat="50.48256" lon="3.49831">
        <ele>18.8</ele>
        <time>2022-04-10T07:41:27.087Z</time>
      </trkpt>
      <trkpt lat="50.48263" lon="3.49821">
        <ele>18.5</ele>
        <time>2022-04-10T07:41:29.966Z</time>
      </trkpt>
      <trkpt lat="50.48267" lon="3.49813">
        <ele>18.6</ele>
        <time>2022-04-10T07:41:32.290Z</time>
      </trkpt>
      <trkpt lat="50.48272" lon="3.49801">
        <ele>18.8</ele>
        <time>2022-04-10T07:41:34.000Z</time>
      </trkpt>
      <trkpt lat="50.48279" lon="3.4979">
        <ele>18.9</ele>
        <time>2022-04-10T07:41:36.627Z</time>
      </trkpt>
      <trkpt lat="50.48284" lon="3.49785">
        <ele>18.6</ele>
        <time>2022-04-10T07:41:39.191Z</time>
      </trkpt>
      <trkpt lat="50.48289" lon="3.49777">
        <ele>18.4</ele>
        <time>2022-04-10T07:41:40.812Z</time>
      </trkpt>
      <trkpt lat="50.48292" lon="3.49772">
        <ele>18.3</ele>
        <time>2022-04-10T07:41:42.000Z</time>
      </trkpt>
      <trkpt lat="50.48296" lon="3.49767">
        <ele>18.4</ele>
        <time>2022-04-10T07:41:43.368Z</time>
      </trkpt>
      <trkpt lat="50.48299" lon="3.49763">
        <ele>18.5</ele>
        <time>2022-04-10T07:41:44.509Z</time>
      </trkpt>
      <trkpt lat="50.48304" lon="3.49756">
        <ele>18.8</ele>
        <time>2022-04-10T07:41:45.893Z</time>
      </trkpt>
      <trkpt lat="50.48314" lon="3.49749">
        <ele>18.9</ele>
        <time>2022-04-10T07:41:49.000Z</time>
      </trkpt>
      <trkpt lat="50.48321" lon="3.49741">
        <ele>18.7</ele>
        <time>2022-04-10T07:41:51.708Z</time>
      </trkpt>
      <trkpt lat="50.48325" lon="3.49735">
        <ele>18.7</ele>
        <time>2022-04-10T07:41:52.866Z</time>
      </trkpt>
      <trkpt lat="50.48328" lon="3.49727">
        <ele>18.7</ele>
        <time>2022-04-10T07:41:55.192Z</time>
      </trkpt>
      <trkpt lat="50.4833" lon="3.4972">
        <ele>18.8</ele>
        <time>2022-04-10T07:41:56.150Z</time>
      </trkpt>
      <trkpt lat="50.48334" lon="3.49709">
        <ele>19</ele>
        <time>2022-04-10T07:41:58.088Z</time>
      </trkpt>
      <trkpt lat="50.48336" lon="3.49702">
        <ele>19</ele>
        <time>2022-04-10T07:41:59.648Z</time>
      </trkpt>
      <trkpt lat="50.48338" lon="3.49695">
        <ele>19</ele>
        <time>2022-04-10T07:42:01.789Z</time>
      </trkpt>
      <trkpt lat="50.48341" lon="3.49688">
        <ele>18.5</ele>
        <time>2022-04-10T07:42:03.000Z</time>
      </trkpt>
      <trkpt lat="50.48344" lon="3.49682">
        <ele>18.2</ele>
        <time>2022-04-10T07:42:04.486Z</time>
      </trkpt>
      <trkpt lat="50.4835" lon="3.49675">
        <ele>18.1</ele>
        <time>2022-04-10T07:42:06.109Z</time>
      </trkpt>
      <trkpt lat="50.48355" lon="3.49666">
        <ele>18.3</ele>
        <time>2022-04-10T07:42:08.175Z</time>
      </trkpt>
      <trkpt lat="50.4836" lon="3.49657">
        <ele>18.6</ele>
        <time>2022-04-10T07:42:10.429Z</time>
      </trkpt>
      <trkpt lat="50.48368" lon="3.49645">
        <ele>18.9</ele>
        <time>2022-04-10T07:42:12.928Z</time>
      </trkpt>
      <trkpt lat="50.48372" lon="3.49639">
        <ele>19.1</ele>
        <time>2022-04-10T07:42:15.000Z</time>
      </trkpt>
      <trkpt lat="50.48375" lon="3.49632">
        <ele>19</ele>
        <time>2022-04-10T07:42:16.000Z</time>
      </trkpt>
      <trkpt lat="50.48377" lon="3.49625">
        <ele>18.8</ele>
        <time>2022-04-10T07:42:17.000Z</time>
      </trkpt>
      <trkpt lat="50.48384" lon="3.49614">
        <ele>18.6</ele>
        <time>2022-04-10T07:42:19.647Z</time>
      </trkpt>
      <trkpt lat="50.4839" lon="3.49604">
        <ele>18.5</ele>
        <time>2022-04-10T07:42:23.000Z</time>
      </trkpt>
      <trkpt lat="50.48397" lon="3.49594">
        <ele>18.6</ele>
        <time>2022-04-10T07:42:25.000Z</time>
      </trkpt>
      <trkpt lat="50.48402" lon="3.49585">
        <ele>18.9</ele>
        <time>2022-04-10T07:42:27.150Z</time>
      </trkpt>
      <trkpt lat="50.48408" lon="3.49574">
        <ele>19.1</ele>
        <time>2022-04-10T07:42:28.566Z</time>
      </trkpt>
      <trkpt lat="50.48414" lon="3.49565">
        <ele>19.3</ele>
        <time>2022-04-10T07:42:30.000Z</time>
      </trkpt>
      <trkpt lat="50.48418" lon="3.49559">
        <ele>19.3</ele>
        <time>2022-04-10T07:42:31.000Z</time>
      </trkpt>
      <trkpt lat="50.48421" lon="3.49554">
        <ele>19.1</ele>
        <time>2022-04-10T07:42:32.000Z</time>
      </trkpt>
      <trkpt lat="50.48425" lon="3.49547">
        <ele>18.9</ele>
        <time>2022-04-10T07:42:33.650Z</time>
      </trkpt>
      <trkpt lat="50.48429" lon="3.4954">
        <ele>18.7</ele>
        <time>2022-04-10T07:42:34.710Z</time>
      </trkpt>
      <trkpt lat="50.48434" lon="3.49535">
        <ele>18.9</ele>
        <time>2022-04-10T07:42:37.248Z</time>
      </trkpt>
      <trkpt lat="50.48439" lon="3.49527">
        <ele>19.2</ele>
        <time>2022-04-10T07:42:38.652Z</time>
      </trkpt>
      <trkpt lat="50.48445" lon="3.49518">
        <ele>18.9</ele>
        <time>2022-04-10T07:42:40.369Z</time>
      </trkpt>
      <trkpt lat="50.4845" lon="3.4951">
        <ele>18.3</ele>
        <time>2022-04-10T07:42:42.000Z</time>
      </trkpt>
      <trkpt lat="50.48453" lon="3.49504">
        <ele>18</ele>
        <time>2022-04-10T07:42:44.000Z</time>
      </trkpt>
      <trkpt lat="50.48459" lon="3.49495">
        <ele>18</ele>
        <time>2022-04-10T07:42:46.000Z</time>
      </trkpt>
      <trkpt lat="50.48464" lon="3.4949">
        <ele>18.1</ele>
        <time>2022-04-10T07:42:48.029Z</time>
      </trkpt>
      <trkpt lat="50.48468" lon="3.49485">
        <ele>18.2</ele>
        <time>2022-04-10T07:42:49.642Z</time>
      </trkpt>
      <trkpt lat="50.48474" lon="3.49475">
        <ele>18.1</ele>
        <time>2022-04-10T07:42:52.000Z</time>
      </trkpt>
      <trkpt lat="50.48478" lon="3.49466">
        <ele>18</ele>
        <time>2022-04-10T07:42:54.000Z</time>
      </trkpt>
      <trkpt lat="50.48484" lon="3.49455">
        <ele>18</ele>
        <time>2022-04-10T07:42:56.668Z</time>
      </trkpt>
      <trkpt lat="50.48489" lon="3.49448">
        <ele>18.3</ele>
        <time>2022-04-10T07:42:58.025Z</time>
      </trkpt>
      <trkpt lat="50.48494" lon="3.49441">
        <ele>18.3</ele>
        <time>2022-04-10T07:43:00.000Z</time>
      </trkpt>
      <trkpt lat="50.48501" lon="3.49427">
        <ele>17.8</ele>
        <time>2022-04-10T07:43:02.809Z</time>
      </trkpt>
      <trkpt lat="50.48505" lon="3.49419">
        <ele>17.5</ele>
        <time>2022-04-10T07:43:04.000Z</time>
      </trkpt>
      <trkpt lat="50.48509" lon="3.49413">
        <ele>17.6</ele>
        <time>2022-04-10T07:43:06.000Z</time>
      </trkpt>
      <trkpt lat="50.48513" lon="3.49405">
        <ele>17.8</ele>
        <time>2022-04-10T07:43:07.000Z</time>
      </trkpt>
      <trkpt lat="50.48517" lon="3.49398">
        <ele>17.8</ele>
        <time>2022-04-10T07:43:08.973Z</time>
      </trkpt>
      <trkpt lat="50.4852" lon="3.49388">
        <ele>17.6</ele>
        <time>2022-04-10T07:43:09.891Z</time>
      </trkpt>
      <trkpt lat="50.48524" lon="3.49383">
        <ele>17.5</ele>
        <time>2022-04-10T07:43:11.156Z</time>
      </trkpt>
      <trkpt lat="50.48532" lon="3.49375">
        <ele>17.1</ele>
        <time>2022-04-10T07:43:13.000Z</time>
      </trkpt>
      <trkpt lat="50.48536" lon="3.4937">
        <ele>17</ele>
        <time>2022-04-10T07:43:14.000Z</time>
      </trkpt>
      <trkpt lat="50.4854" lon="3.49364">
        <ele>17</ele>
        <time>2022-04-10T07:43:15.000Z</time>
      </trkpt>
      <trkpt lat="50.48544" lon="3.49359">
        <ele>17.1</ele>
        <time>2022-04-10T07:43:16.693Z</time>
      </trkpt>
      <trkpt lat="50.48555" lon="3.49349">
        <ele>17.5</ele>
        <time>2022-04-10T07:43:19.110Z</time>
      </trkpt>
      <trkpt lat="50.48558" lon="3.49343">
        <ele>17.3</ele>
        <time>2022-04-10T07:43:20.000Z</time>
      </trkpt>
      <trkpt lat="50.48561" lon="3.49334">
        <ele>17</ele>
        <time>2022-04-10T07:43:22.071Z</time>
      </trkpt>
      <trkpt lat="50.48567" lon="3.49324">
        <ele>16.8</ele>
        <time>2022-04-10T07:43:24.000Z</time>
      </trkpt>
      <trkpt lat="50.48574" lon="3.49315">
        <ele>16.8</ele>
        <time>2022-04-10T07:43:26.000Z</time>
      </trkpt>
      <trkpt lat="50.48579" lon="3.49307">
        <ele>16.8</ele>
        <time>2022-04-10T07:43:27.000Z</time>
      </trkpt>
      <trkpt lat="50.48585" lon="3.49298">
        <ele>17</ele>
        <time>2022-04-10T07:43:29.000Z</time>
      </trkpt>
      <trkpt lat="50.48589" lon="3.49292">
        <ele>17</ele>
        <time>2022-04-10T07:43:30.000Z</time>
      </trkpt>
      <trkpt lat="50.48596" lon="3.4928">
        <ele>17</ele>
        <time>2022-04-10T07:43:32.000Z</time>
      </trkpt>
      <trkpt lat="50.486" lon="3.49272">
        <ele>17.1</ele>
        <time>2022-04-10T07:43:33.918Z</time>
      </trkpt>
      <trkpt lat="50.48607" lon="3.49261">
        <ele>17.5</ele>
        <time>2022-04-10T07:43:36.000Z</time>
      </trkpt>
      <trkpt lat="50.48612" lon="3.49253">
        <ele>17.9</ele>
        <time>2022-04-10T07:43:37.478Z</time>
      </trkpt>
      <trkpt lat="50.48617" lon="3.49245">
        <ele>18</ele>
        <time>2022-04-10T07:43:38.737Z</time>
      </trkpt>
      <trkpt lat="50.4862" lon="3.49239">
        <ele>18</ele>
        <time>2022-04-10T07:43:40.000Z</time>
      </trkpt>
      <trkpt lat="50.48626" lon="3.49229">
        <ele>18</ele>
        <time>2022-04-10T07:43:42.077Z</time>
      </trkpt>
      <trkpt lat="50.48631" lon="3.49222">
        <ele>18</ele>
        <time>2022-04-10T07:43:43.685Z</time>
      </trkpt>
      <trkpt lat="50.48634" lon="3.49216">
        <ele>18</ele>
        <time>2022-04-10T07:43:45.318Z</time>
      </trkpt>
      <trkpt lat="50.4864" lon="3.49207">
        <ele>18</ele>
        <time>2022-04-10T07:43:47.674Z</time>
      </trkpt>
      <trkpt lat="50.48645" lon="3.49199">
        <ele>18.2</ele>
        <time>2022-04-10T07:43:49.138Z</time>
      </trkpt>
      <trkpt lat="50.48648" lon="3.49194">
        <ele>18.3</ele>
        <time>2022-04-10T07:43:50.117Z</time>
      </trkpt>
      <trkpt lat="50.48652" lon="3.49186">
        <ele>18.2</ele>
        <time>2022-04-10T07:43:52.000Z</time>
      </trkpt>
      <trkpt lat="50.4866" lon="3.49174">
        <ele>18</ele>
        <time>2022-04-10T07:43:54.000Z</time>
      </trkpt>
      <trkpt lat="50.48667" lon="3.49161">
        <ele>18</ele>
        <time>2022-04-10T07:43:56.000Z</time>
      </trkpt>
      <trkpt lat="50.4867" lon="3.49153">
        <ele>18.1</ele>
        <time>2022-04-10T07:43:57.436Z</time>
      </trkpt>
      <trkpt lat="50.48674" lon="3.49146">
        <ele>18.3</ele>
        <time>2022-04-10T07:43:58.666Z</time>
      </trkpt>
      <trkpt lat="50.48678" lon="3.4914">
        <ele>18.4</ele>
        <time>2022-04-10T07:43:59.794Z</time>
      </trkpt>
      <trkpt lat="50.48682" lon="3.49134">
        <ele>18.6</ele>
        <time>2022-04-10T07:44:01.000Z</time>
      </trkpt>
      <trkpt lat="50.48687" lon="3.49128">
        <ele>18.7</ele>
        <time>2022-04-10T07:44:01.995Z</time>
      </trkpt>
      <trkpt lat="50.48691" lon="3.49122">
        <ele>18.9</ele>
        <time>2022-04-10T07:44:04.000Z</time>
      </trkpt>
      <trkpt lat="50.48695" lon="3.49117">
        <ele>19</ele>
        <time>2022-04-10T07:44:05.000Z</time>
      </trkpt>
      <trkpt lat="50.48701" lon="3.49106">
        <ele>19</ele>
        <time>2022-04-10T07:44:07.454Z</time>
      </trkpt>
      <trkpt lat="50.48706" lon="3.491">
        <ele>19</ele>
        <time>2022-04-10T07:44:08.917Z</time>
      </trkpt>
      <trkpt lat="50.48709" lon="3.49095">
        <ele>19</ele>
        <time>2022-04-10T07:44:11.000Z</time>
      </trkpt>
      <trkpt lat="50.48713" lon="3.49088">
        <ele>19</ele>
        <time>2022-04-10T07:44:11.936Z</time>
      </trkpt>
      <trkpt lat="50.48719" lon="3.49076">
        <ele>18.8</ele>
        <time>2022-04-10T07:44:14.000Z</time>
      </trkpt>
      <trkpt lat="50.48722" lon="3.4907">
        <ele>18.5</ele>
        <time>2022-04-10T07:44:15.673Z</time>
      </trkpt>
      <trkpt lat="50.48727" lon="3.49063">
        <ele>18.4</ele>
        <time>2022-04-10T07:44:19.000Z</time>
      </trkpt>
      <trkpt lat="50.48731" lon="3.49056">
        <ele>18.3</ele>
        <time>2022-04-10T07:44:21.000Z</time>
      </trkpt>
      <trkpt lat="50.48734" lon="3.4905">
        <ele>18.3</ele>
        <time>2022-04-10T07:44:22.000Z</time>
      </trkpt>
      <trkpt lat="50.48739" lon="3.49042">
        <ele>18.3</ele>
        <time>2022-04-10T07:44:24.000Z</time>
      </trkpt>
      <trkpt lat="50.48743" lon="3.49036">
        <ele>18.2</ele>
        <time>2022-04-10T07:44:25.000Z</time>
      </trkpt>
      <trkpt lat="50.48747" lon="3.4903">
        <ele>18.1</ele>
        <time>2022-04-10T07:44:26.000Z</time>
      </trkpt>
      <trkpt lat="50.4875" lon="3.49021">
        <ele>18</ele>
        <time>2022-04-10T07:44:28.000Z</time>
      </trkpt>
      <trkpt lat="50.48755" lon="3.49012">
        <ele>18</ele>
        <time>2022-04-10T07:44:30.000Z</time>
      </trkpt>
      <trkpt lat="50.48759" lon="3.49006">
        <ele>18</ele>
        <time>2022-04-10T07:44:32.000Z</time>
      </trkpt>
      <trkpt lat="50.48762" lon="3.49">
        <ele>18</ele>
        <time>2022-04-10T07:44:34.014Z</time>
      </trkpt>
      <trkpt lat="50.48766" lon="3.48992">
        <ele>17.9</ele>
        <time>2022-04-10T07:44:35.218Z</time>
      </trkpt>
      <trkpt lat="50.48771" lon="3.48984">
        <ele>17.9</ele>
        <time>2022-04-10T07:44:36.811Z</time>
      </trkpt>
      <trkpt lat="50.48774" lon="3.48978">
        <ele>17.9</ele>
        <time>2022-04-10T07:44:37.854Z</time>
      </trkpt>
      <trkpt lat="50.48781" lon="3.4897">
        <ele>17.9</ele>
        <time>2022-04-10T07:44:40.000Z</time>
      </trkpt>
      <trkpt lat="50.48785" lon="3.48965">
        <ele>17.8</ele>
        <time>2022-04-10T07:44:41.000Z</time>
      </trkpt>
      <trkpt lat="50.48789" lon="3.48959">
        <ele>17.7</ele>
        <time>2022-04-10T07:44:43.076Z</time>
      </trkpt>
      <trkpt lat="50.48793" lon="3.48953">
        <ele>17.7</ele>
        <time>2022-04-10T07:44:44.156Z</time>
      </trkpt>
      <trkpt lat="50.48798" lon="3.48945">
        <ele>17.7</ele>
        <time>2022-04-10T07:44:46.096Z</time>
      </trkpt>
      <trkpt lat="50.48802" lon="3.48934">
        <ele>17.6</ele>
        <time>2022-04-10T07:44:48.000Z</time>
      </trkpt>
      <trkpt lat="50.48806" lon="3.48928">
        <ele>17.4</ele>
        <time>2022-04-10T07:44:48.992Z</time>
      </trkpt>
      <trkpt lat="50.48811" lon="3.48922">
        <ele>17.1</ele>
        <time>2022-04-10T07:44:52.000Z</time>
      </trkpt>
      <trkpt lat="50.48816" lon="3.48914">
        <ele>17</ele>
        <time>2022-04-10T07:44:54.000Z</time>
      </trkpt>
      <trkpt lat="50.48824" lon="3.489">
        <ele>17.4</ele>
        <time>2022-04-10T07:44:56.035Z</time>
      </trkpt>
      <trkpt lat="50.48828" lon="3.48894">
        <ele>17.7</ele>
        <time>2022-04-10T07:44:56.956Z</time>
      </trkpt>
      <trkpt lat="50.48832" lon="3.48885">
        <ele>17.8</ele>
        <time>2022-04-10T07:44:58.694Z</time>
      </trkpt>
      <trkpt lat="50.48837" lon="3.48878">
        <ele>17.6</ele>
        <time>2022-04-10T07:45:00.000Z</time>
      </trkpt>
      <trkpt lat="50.48843" lon="3.48869">
        <ele>17.4</ele>
        <time>2022-04-10T07:45:02.700Z</time>
      </trkpt>
      <trkpt lat="50.48846" lon="3.48862">
        <ele>17.5</ele>
        <time>2022-04-10T07:45:03.854Z</time>
      </trkpt>
      <trkpt lat="50.48851" lon="3.48857">
        <ele>17.6</ele>
        <time>2022-04-10T07:45:07.000Z</time>
      </trkpt>
      <trkpt lat="50.48854" lon="3.48852">
        <ele>17.7</ele>
        <time>2022-04-10T07:45:08.000Z</time>
      </trkpt>
      <trkpt lat="50.48859" lon="3.48841">
        <ele>17.9</ele>
        <time>2022-04-10T07:45:10.000Z</time>
      </trkpt>
      <trkpt lat="50.48864" lon="3.48834">
        <ele>17.9</ele>
        <time>2022-04-10T07:45:12.000Z</time>
      </trkpt>
      <trkpt lat="50.4887" lon="3.48824">
        <ele>17.6</ele>
        <time>2022-04-10T07:45:13.139Z</time>
      </trkpt>
      <trkpt lat="50.48875" lon="3.48816">
        <ele>17.5</ele>
        <time>2022-04-10T07:45:14.838Z</time>
      </trkpt>
      <trkpt lat="50.48879" lon="3.48812">
        <ele>17.6</ele>
        <time>2022-04-10T07:45:15.997Z</time>
      </trkpt>
      <trkpt lat="50.48884" lon="3.48803">
        <ele>17.8</ele>
        <time>2022-04-10T07:45:18.000Z</time>
      </trkpt>
      <trkpt lat="50.4889" lon="3.48794">
        <ele>18</ele>
        <time>2022-04-10T07:45:21.176Z</time>
      </trkpt>
      <trkpt lat="50.48895" lon="3.48785">
        <ele>17.9</ele>
        <time>2022-04-10T07:45:23.574Z</time>
      </trkpt>
      <trkpt lat="50.48899" lon="3.48778">
        <ele>18</ele>
        <time>2022-04-10T07:45:24.731Z</time>
      </trkpt>
      <trkpt lat="50.48903" lon="3.48772">
        <ele>17.9</ele>
        <time>2022-04-10T07:45:26.973Z</time>
      </trkpt>
      <trkpt lat="50.48908" lon="3.48764">
        <ele>17.8</ele>
        <time>2022-04-10T07:45:29.075Z</time>
      </trkpt>
      <trkpt lat="50.48914" lon="3.48755">
        <ele>17.9</ele>
        <time>2022-04-10T07:45:31.256Z</time>
      </trkpt>
      <trkpt lat="50.48921" lon="3.48743">
        <ele>17.7</ele>
        <time>2022-04-10T07:45:33.834Z</time>
      </trkpt>
      <trkpt lat="50.48925" lon="3.48737">
        <ele>17.5</ele>
        <time>2022-04-10T07:45:34.836Z</time>
      </trkpt>
      <trkpt lat="50.48931" lon="3.48727">
        <ele>17.5</ele>
        <time>2022-04-10T07:45:37.052Z</time>
      </trkpt>
      <trkpt lat="50.48937" lon="3.48717">
        <ele>17.7</ele>
        <time>2022-04-10T07:45:39.116Z</time>
      </trkpt>
      <trkpt lat="50.48943" lon="3.48707">
        <ele>17.9</ele>
        <time>2022-04-10T07:45:41.675Z</time>
      </trkpt>
      <trkpt lat="50.4895" lon="3.48696">
        <ele>17.8</ele>
        <time>2022-04-10T07:45:43.935Z</time>
      </trkpt>
      <trkpt lat="50.48956" lon="3.48691">
        <ele>17.6</ele>
        <time>2022-04-10T07:45:46.000Z</time>
      </trkpt>
      <trkpt lat="50.48959" lon="3.48685">
        <ele>17.5</ele>
        <time>2022-04-10T07:45:47.000Z</time>
      </trkpt>
      <trkpt lat="50.48965" lon="3.48674">
        <ele>17.6</ele>
        <time>2022-04-10T07:45:49.000Z</time>
      </trkpt>
      <trkpt lat="50.48969" lon="3.48667">
        <ele>17.9</ele>
        <time>2022-04-10T07:45:51.000Z</time>
      </trkpt>
      <trkpt lat="50.48975" lon="3.48659">
        <ele>18</ele>
        <time>2022-04-10T07:45:53.073Z</time>
      </trkpt>
      <trkpt lat="50.48982" lon="3.48649">
        <ele>17.8</ele>
        <time>2022-04-10T07:45:55.000Z</time>
      </trkpt>
      <trkpt lat="50.48989" lon="3.48638">
        <ele>17.4</ele>
        <time>2022-04-10T07:45:58.182Z</time>
      </trkpt>
      <trkpt lat="50.48995" lon="3.4863">
        <ele>17.1</ele>
        <time>2022-04-10T07:46:00.273Z</time>
      </trkpt>
      <trkpt lat="50.48998" lon="3.48624">
        <ele>17</ele>
        <time>2022-04-10T07:46:01.675Z</time>
      </trkpt>
      <trkpt lat="50.49004" lon="3.48617">
        <ele>17</ele>
        <time>2022-04-10T07:46:03.835Z</time>
      </trkpt>
      <trkpt lat="50.49009" lon="3.4861">
        <ele>17</ele>
        <time>2022-04-10T07:46:06.000Z</time>
      </trkpt>
      <trkpt lat="50.49015" lon="3.486">
        <ele>17</ele>
        <time>2022-04-10T07:46:08.000Z</time>
      </trkpt>
      <trkpt lat="50.4902" lon="3.48593">
        <ele>17</ele>
        <time>2022-04-10T07:46:10.915Z</time>
      </trkpt>
      <trkpt lat="50.49025" lon="3.48585">
        <ele>17</ele>
        <time>2022-04-10T07:46:15.000Z</time>
      </trkpt>
      <trkpt lat="50.49025" lon="3.48577">
        <ele>17.2</ele>
        <time>2022-04-10T07:46:17.636Z</time>
      </trkpt>
      <trkpt lat="50.49025" lon="3.48568">
        <ele>17.5</ele>
        <time>2022-04-10T07:46:21.775Z</time>
      </trkpt>
      <trkpt lat="50.4903" lon="3.48567">
        <ele>17.5</ele>
        <time>2022-04-10T07:46:36.000Z</time>
      </trkpt>
      <trkpt lat="50.49034" lon="3.48563">
        <ele>17.5</ele>
        <time>2022-04-10T07:46:39.000Z</time>
      </trkpt>
      <trkpt lat="50.49038" lon="3.48557">
        <ele>17.6</ele>
        <time>2022-04-10T07:46:42.175Z</time>
      </trkpt>
      <trkpt lat="50.49045" lon="3.48548">
        <ele>17.6</ele>
        <time>2022-04-10T07:46:45.000Z</time>
      </trkpt>
      <trkpt lat="50.49049" lon="3.4854">
        <ele>17.7</ele>
        <time>2022-04-10T07:46:46.936Z</time>
      </trkpt>
      <trkpt lat="50.49053" lon="3.48533">
        <ele>17.8</ele>
        <time>2022-04-10T07:46:47.876Z</time>
      </trkpt>
      <trkpt lat="50.49058" lon="3.48525">
        <ele>17.8</ele>
        <time>2022-04-10T07:46:49.975Z</time>
      </trkpt>
      <trkpt lat="50.49062" lon="3.48519">
        <ele>17.6</ele>
        <time>2022-04-10T07:46:51.978Z</time>
      </trkpt>
      <trkpt lat="50.49066" lon="3.48512">
        <ele>17.4</ele>
        <time>2022-04-10T07:46:53.000Z</time>
      </trkpt>
      <trkpt lat="50.4907" lon="3.48506">
        <ele>17.4</ele>
        <time>2022-04-10T07:46:54.000Z</time>
      </trkpt>
      <trkpt lat="50.49078" lon="3.48494">
        <ele>17.2</ele>
        <time>2022-04-10T07:46:57.000Z</time>
      </trkpt>
      <trkpt lat="50.49087" lon="3.48477">
        <ele>16.9</ele>
        <time>2022-04-10T07:47:00.034Z</time>
      </trkpt>
      <trkpt lat="50.49091" lon="3.4847">
        <ele>16.8</ele>
        <time>2022-04-10T07:47:02.093Z</time>
      </trkpt>
      <trkpt lat="50.49095" lon="3.48463">
        <ele>16.7</ele>
        <time>2022-04-10T07:47:03.000Z</time>
      </trkpt>
      <trkpt lat="50.491" lon="3.48456">
        <ele>16.8</ele>
        <time>2022-04-10T07:47:04.000Z</time>
      </trkpt>
      <trkpt lat="50.49104" lon="3.48448">
        <ele>16.9</ele>
        <time>2022-04-10T07:47:05.298Z</time>
      </trkpt>
      <trkpt lat="50.49109" lon="3.48439">
        <ele>17</ele>
        <time>2022-04-10T07:47:06.873Z</time>
      </trkpt>
      <trkpt lat="50.49112" lon="3.48434">
        <ele>17</ele>
        <time>2022-04-10T07:47:09.000Z</time>
      </trkpt>
      <trkpt lat="50.49116" lon="3.48428">
        <ele>16.8</ele>
        <time>2022-04-10T07:47:10.000Z</time>
      </trkpt>
      <trkpt lat="50.4912" lon="3.48422">
        <ele>16.7</ele>
        <time>2022-04-10T07:47:11.000Z</time>
      </trkpt>
      <trkpt lat="50.49122" lon="3.48416">
        <ele>16.6</ele>
        <time>2022-04-10T07:47:12.000Z</time>
      </trkpt>
      <trkpt lat="50.49127" lon="3.48408">
        <ele>16.6</ele>
        <time>2022-04-10T07:47:14.015Z</time>
      </trkpt>
      <trkpt lat="50.4913" lon="3.48402">
        <ele>16.7</ele>
        <time>2022-04-10T07:47:15.992Z</time>
      </trkpt>
      <trkpt lat="50.49133" lon="3.48396">
        <ele>16.8</ele>
        <time>2022-04-10T07:47:17.000Z</time>
      </trkpt>
      <trkpt lat="50.49137" lon="3.48387">
        <ele>17</ele>
        <time>2022-04-10T07:47:19.112Z</time>
      </trkpt>
      <trkpt lat="50.49141" lon="3.4838">
        <ele>16.9</ele>
        <time>2022-04-10T07:47:20.000Z</time>
      </trkpt>
      <trkpt lat="50.49145" lon="3.48374">
        <ele>16.9</ele>
        <time>2022-04-10T07:47:21.000Z</time>
      </trkpt>
      <trkpt lat="50.49149" lon="3.48366">
        <ele>16.9</ele>
        <time>2022-04-10T07:47:22.176Z</time>
      </trkpt>
      <trkpt lat="50.49154" lon="3.48358">
        <ele>17</ele>
        <time>2022-04-10T07:47:23.646Z</time>
      </trkpt>
      <trkpt lat="50.49161" lon="3.4835">
        <ele>16.9</ele>
        <time>2022-04-10T07:47:26.000Z</time>
      </trkpt>
      <trkpt lat="50.49164" lon="3.48345">
        <ele>17</ele>
        <time>2022-04-10T07:47:27.435Z</time>
      </trkpt>
      <trkpt lat="50.49169" lon="3.48336">
        <ele>16.9</ele>
        <time>2022-04-10T07:47:28.713Z</time>
      </trkpt>
      <trkpt lat="50.49173" lon="3.4833">
        <ele>16.8</ele>
        <time>2022-04-10T07:47:31.000Z</time>
      </trkpt>
      <trkpt lat="50.49177" lon="3.48324">
        <ele>16.8</ele>
        <time>2022-04-10T07:47:32.000Z</time>
      </trkpt>
      <trkpt lat="50.49181" lon="3.48318">
        <ele>16.8</ele>
        <time>2022-04-10T07:47:33.000Z</time>
      </trkpt>
      <trkpt lat="50.49186" lon="3.48309">
        <ele>16.9</ele>
        <time>2022-04-10T07:47:34.997Z</time>
      </trkpt>
      <trkpt lat="50.4919" lon="3.48302">
        <ele>17</ele>
        <time>2022-04-10T07:47:37.000Z</time>
      </trkpt>
      <trkpt lat="50.49197" lon="3.48291">
        <ele>16.9</ele>
        <time>2022-04-10T07:47:39.000Z</time>
      </trkpt>
      <trkpt lat="50.49201" lon="3.48285">
        <ele>16.8</ele>
        <time>2022-04-10T07:47:40.000Z</time>
      </trkpt>
      <trkpt lat="50.49206" lon="3.48276">
        <ele>16.6</ele>
        <time>2022-04-10T07:47:42.000Z</time>
      </trkpt>
      <trkpt lat="50.49216" lon="3.48266">
        <ele>16.5</ele>
        <time>2022-04-10T07:47:44.000Z</time>
      </trkpt>
      <trkpt lat="50.49223" lon="3.48256">
        <ele>16.8</ele>
        <time>2022-04-10T07:47:46.000Z</time>
      </trkpt>
      <trkpt lat="50.49228" lon="3.48248">
        <ele>16.8</ele>
        <time>2022-04-10T07:47:47.000Z</time>
      </trkpt>
      <trkpt lat="50.49231" lon="3.48242">
        <ele>16.5</ele>
        <time>2022-04-10T07:47:48.000Z</time>
      </trkpt>
      <trkpt lat="50.49236" lon="3.48233">
        <ele>16.2</ele>
        <time>2022-04-10T07:47:50.000Z</time>
      </trkpt>
      <trkpt lat="50.49243" lon="3.48221">
        <ele>16</ele>
        <time>2022-04-10T07:47:52.000Z</time>
      </trkpt>
      <trkpt lat="50.49247" lon="3.48215">
        <ele>16</ele>
        <time>2022-04-10T07:47:53.000Z</time>
      </trkpt>
      <trkpt lat="50.49252" lon="3.48207">
        <ele>16</ele>
        <time>2022-04-10T07:47:55.000Z</time>
      </trkpt>
      <trkpt lat="50.49258" lon="3.48198">
        <ele>16</ele>
        <time>2022-04-10T07:47:57.000Z</time>
      </trkpt>
      <trkpt lat="50.49267" lon="3.48185">
        <ele>16</ele>
        <time>2022-04-10T07:47:59.000Z</time>
      </trkpt>
      <trkpt lat="50.49271" lon="3.48176">
        <ele>16</ele>
        <time>2022-04-10T07:48:01.000Z</time>
      </trkpt>
      <trkpt lat="50.49274" lon="3.48171">
        <ele>16</ele>
        <time>2022-04-10T07:48:02.000Z</time>
      </trkpt>
      <trkpt lat="50.49278" lon="3.48166">
        <ele>16</ele>
        <time>2022-04-10T07:48:03.000Z</time>
      </trkpt>
      <trkpt lat="50.49284" lon="3.48157">
        <ele>15.9</ele>
        <time>2022-04-10T07:48:04.000Z</time>
      </trkpt>
      <trkpt lat="50.49286" lon="3.48145">
        <ele>15.9</ele>
        <time>2022-04-10T07:48:05.865Z</time>
      </trkpt>
      <trkpt lat="50.49291" lon="3.48143">
        <ele>15.9</ele>
        <time>2022-04-10T07:48:07.000Z</time>
      </trkpt>
      <trkpt lat="50.49295" lon="3.48136">
        <ele>16</ele>
        <time>2022-04-10T07:48:08.000Z</time>
      </trkpt>
      <trkpt lat="50.49301" lon="3.48126">
        <ele>16</ele>
        <time>2022-04-10T07:48:10.000Z</time>
      </trkpt>
      <trkpt lat="50.49305" lon="3.48119">
        <ele>16</ele>
        <time>2022-04-10T07:48:11.000Z</time>
      </trkpt>
      <trkpt lat="50.4931" lon="3.48125">
        <ele>15.8</ele>
        <time>2022-04-10T07:48:13.195Z</time>
      </trkpt>
      <trkpt lat="50.49315" lon="3.48109">
        <ele>15.7</ele>
        <time>2022-04-10T07:48:14.750Z</time>
      </trkpt>
      <trkpt lat="50.49322" lon="3.48094">
        <ele>15.8</ele>
        <time>2022-04-10T07:48:16.651Z</time>
      </trkpt>
      <trkpt lat="50.49326" lon="3.48085">
        <ele>16</ele>
        <time>2022-04-10T07:48:19.000Z</time>
      </trkpt>
      <trkpt lat="50.49331" lon="3.48077">
        <ele>16</ele>
        <time>2022-04-10T07:48:20.000Z</time>
      </trkpt>
      <trkpt lat="50.49335" lon="3.48071">
        <ele>16</ele>
        <time>2022-04-10T07:48:21.000Z</time>
      </trkpt>
      <trkpt lat="50.49339" lon="3.48064">
        <ele>15.9</ele>
        <time>2022-04-10T07:48:22.000Z</time>
      </trkpt>
      <trkpt lat="50.49344" lon="3.48056">
        <ele>16</ele>
        <time>2022-04-10T07:48:23.952Z</time>
      </trkpt>
      <trkpt lat="50.49348" lon="3.48049">
        <ele>16.1</ele>
        <time>2022-04-10T07:48:26.000Z</time>
      </trkpt>
      <trkpt lat="50.49354" lon="3.4804">
        <ele>16.4</ele>
        <time>2022-04-10T07:48:28.000Z</time>
      </trkpt>
      <trkpt lat="50.49358" lon="3.48033">
        <ele>16.7</ele>
        <time>2022-04-10T07:48:29.933Z</time>
      </trkpt>
      <trkpt lat="50.49363" lon="3.48026">
        <ele>16.9</ele>
        <time>2022-04-10T07:48:31.192Z</time>
      </trkpt>
      <trkpt lat="50.49368" lon="3.48016">
        <ele>16.4</ele>
        <time>2022-04-10T07:48:33.654Z</time>
      </trkpt>
      <trkpt lat="50.49372" lon="3.4801">
        <ele>16.2</ele>
        <time>2022-04-10T07:48:34.940Z</time>
      </trkpt>
      <trkpt lat="50.49377" lon="3.47999">
        <ele>16</ele>
        <time>2022-04-10T07:48:37.093Z</time>
      </trkpt>
      <trkpt lat="50.49382" lon="3.47993">
        <ele>16</ele>
        <time>2022-04-10T07:48:39.000Z</time>
      </trkpt>
      <trkpt lat="50.49387" lon="3.47985">
        <ele>16</ele>
        <time>2022-04-10T07:48:41.000Z</time>
      </trkpt>
      <trkpt lat="50.49392" lon="3.47976">
        <ele>16</ele>
        <time>2022-04-10T07:48:44.000Z</time>
      </trkpt>
      <trkpt lat="50.49397" lon="3.47969">
        <ele>16.1</ele>
        <time>2022-04-10T07:48:45.000Z</time>
      </trkpt>
      <trkpt lat="50.49403" lon="3.47959">
        <ele>16.2</ele>
        <time>2022-04-10T07:48:47.000Z</time>
      </trkpt>
      <trkpt lat="50.49407" lon="3.47952">
        <ele>16.2</ele>
        <time>2022-04-10T07:48:49.175Z</time>
      </trkpt>
      <trkpt lat="50.49413" lon="3.47944">
        <ele>16.1</ele>
        <time>2022-04-10T07:48:51.069Z</time>
      </trkpt>
      <trkpt lat="50.49416" lon="3.47937">
        <ele>16</ele>
        <time>2022-04-10T07:48:52.648Z</time>
      </trkpt>
      <trkpt lat="50.4942" lon="3.4793">
        <ele>16</ele>
        <time>2022-04-10T07:48:53.968Z</time>
      </trkpt>
      <trkpt lat="50.49422" lon="3.47923">
        <ele>16</ele>
        <time>2022-04-10T07:48:55.074Z</time>
      </trkpt>
      <trkpt lat="50.49427" lon="3.4791">
        <ele>16.1</ele>
        <time>2022-04-10T07:48:57.000Z</time>
      </trkpt>
      <trkpt lat="50.49435" lon="3.47898">
        <ele>16.2</ele>
        <time>2022-04-10T07:48:59.000Z</time>
      </trkpt>
      <trkpt lat="50.4944" lon="3.4789">
        <ele>16.2</ele>
        <time>2022-04-10T07:49:01.053Z</time>
      </trkpt>
      <trkpt lat="50.49443" lon="3.47884">
        <ele>16.1</ele>
        <time>2022-04-10T07:49:02.951Z</time>
      </trkpt>
      <trkpt lat="50.49446" lon="3.47878">
        <ele>16</ele>
        <time>2022-04-10T07:49:04.000Z</time>
      </trkpt>
      <trkpt lat="50.4945" lon="3.47872">
        <ele>16</ele>
        <time>2022-04-10T07:49:04.971Z</time>
      </trkpt>
      <trkpt lat="50.49456" lon="3.47861">
        <ele>16</ele>
        <time>2022-04-10T07:49:08.000Z</time>
      </trkpt>
      <trkpt lat="50.49462" lon="3.47852">
        <ele>16</ele>
        <time>2022-04-10T07:49:10.000Z</time>
      </trkpt>
      <trkpt lat="50.49472" lon="3.47837">
        <ele>16</ele>
        <time>2022-04-10T07:49:13.000Z</time>
      </trkpt>
      <trkpt lat="50.49476" lon="3.4783">
        <ele>16</ele>
        <time>2022-04-10T07:49:13.969Z</time>
      </trkpt>
      <trkpt lat="50.49481" lon="3.4782">
        <ele>16</ele>
        <time>2022-04-10T07:49:15.953Z</time>
      </trkpt>
      <trkpt lat="50.49484" lon="3.47814">
        <ele>16</ele>
        <time>2022-04-10T07:49:17.070Z</time>
      </trkpt>
      <trkpt lat="50.4949" lon="3.47806">
        <ele>16</ele>
        <time>2022-04-10T07:49:19.053Z</time>
      </trkpt>
      <trkpt lat="50.49496" lon="3.47794">
        <ele>16</ele>
        <time>2022-04-10T07:49:21.969Z</time>
      </trkpt>
      <trkpt lat="50.49501" lon="3.47787">
        <ele>16</ele>
        <time>2022-04-10T07:49:24.181Z</time>
      </trkpt>
      <trkpt lat="50.49506" lon="3.4778">
        <ele>16</ele>
        <time>2022-04-10T07:49:26.049Z</time>
      </trkpt>
      <trkpt lat="50.49511" lon="3.47779">
        <ele>16</ele>
        <time>2022-04-10T07:49:28.090Z</time>
      </trkpt>
      <trkpt lat="50.49515" lon="3.47772">
        <ele>16</ele>
        <time>2022-04-10T07:49:30.609Z</time>
      </trkpt>
      <trkpt lat="50.49519" lon="3.47765">
        <ele>16</ele>
        <time>2022-04-10T07:49:32.050Z</time>
      </trkpt>
      <trkpt lat="50.49523" lon="3.47758">
        <ele>16</ele>
        <time>2022-04-10T07:49:33.000Z</time>
      </trkpt>
      <trkpt lat="50.49528" lon="3.4775">
        <ele>16</ele>
        <time>2022-04-10T07:49:35.094Z</time>
      </trkpt>
      <trkpt lat="50.49532" lon="3.47746">
        <ele>16</ele>
        <time>2022-04-10T07:49:36.174Z</time>
      </trkpt>
      <trkpt lat="50.49536" lon="3.47741">
        <ele>16</ele>
        <time>2022-04-10T07:49:38.092Z</time>
      </trkpt>
      <trkpt lat="50.49541" lon="3.47737">
        <ele>16</ele>
        <time>2022-04-10T07:49:39.093Z</time>
      </trkpt>
      <trkpt lat="50.49548" lon="3.47731">
        <ele>16</ele>
        <time>2022-04-10T07:49:41.028Z</time>
      </trkpt>
      <trkpt lat="50.49556" lon="3.47727">
        <ele>16</ele>
        <time>2022-04-10T07:49:44.000Z</time>
      </trkpt>
      <trkpt lat="50.4956" lon="3.47723">
        <ele>16</ele>
        <time>2022-04-10T07:49:46.000Z</time>
      </trkpt>
      <trkpt lat="50.49566" lon="3.47719">
        <ele>16</ele>
        <time>2022-04-10T07:49:48.354Z</time>
      </trkpt>
      <trkpt lat="50.49571" lon="3.47712">
        <ele>16</ele>
        <time>2022-04-10T07:49:50.772Z</time>
      </trkpt>
      <trkpt lat="50.49575" lon="3.47706">
        <ele>16</ele>
        <time>2022-04-10T07:49:52.750Z</time>
      </trkpt>
      <trkpt lat="50.49582" lon="3.47697">
        <ele>16</ele>
        <time>2022-04-10T07:49:55.000Z</time>
      </trkpt>
      <trkpt lat="50.49587" lon="3.47692">
        <ele>16</ele>
        <time>2022-04-10T07:49:57.095Z</time>
      </trkpt>
      <trkpt lat="50.49592" lon="3.4769">
        <ele>16</ele>
        <time>2022-04-10T07:49:59.193Z</time>
      </trkpt>
      <trkpt lat="50.49598" lon="3.47695">
        <ele>16</ele>
        <time>2022-04-10T07:50:01.512Z</time>
      </trkpt>
      <trkpt lat="50.49602" lon="3.477">
        <ele>16.1</ele>
        <time>2022-04-10T07:50:03.617Z</time>
      </trkpt>
      <trkpt lat="50.49605" lon="3.47707">
        <ele>16.4</ele>
        <time>2022-04-10T07:50:06.510Z</time>
      </trkpt>
      <trkpt lat="50.4961" lon="3.47713">
        <ele>16.6</ele>
        <time>2022-04-10T07:50:10.000Z</time>
      </trkpt>
      <trkpt lat="50.49615" lon="3.47718">
        <ele>16.9</ele>
        <time>2022-04-10T07:50:13.000Z</time>
      </trkpt>
      <trkpt lat="50.49621" lon="3.47725">
        <ele>17</ele>
        <time>2022-04-10T07:50:16.052Z</time>
      </trkpt>
      <trkpt lat="50.49629" lon="3.47734">
        <ele>17</ele>
        <time>2022-04-10T07:50:18.892Z</time>
      </trkpt>
      <trkpt lat="50.49633" lon="3.47742">
        <ele>17</ele>
        <time>2022-04-10T07:50:21.000Z</time>
      </trkpt>
      <trkpt lat="50.49637" lon="3.47751">
        <ele>17</ele>
        <time>2022-04-10T07:50:23.033Z</time>
      </trkpt>
      <trkpt lat="50.49642" lon="3.4776">
        <ele>17</ele>
        <time>2022-04-10T07:50:26.000Z</time>
      </trkpt>
      <trkpt lat="50.49647" lon="3.47765">
        <ele>17</ele>
        <time>2022-04-10T07:51:21.000Z</time>
      </trkpt>
      <trkpt lat="50.4965" lon="3.47771">
        <ele>17</ele>
        <time>2022-04-10T07:51:22.955Z</time>
      </trkpt>
      <trkpt lat="50.49652" lon="3.47777">
        <ele>17</ele>
        <time>2022-04-10T07:51:34.000Z</time>
      </trkpt>
      <trkpt lat="50.49656" lon="3.47784">
        <ele>17</ele>
        <time>2022-04-10T07:51:37.000Z</time>
      </trkpt>
      <trkpt lat="50.49658" lon="3.47792">
        <ele>17</ele>
        <time>2022-04-10T07:51:40.000Z</time>
      </trkpt>
      <trkpt lat="50.4966" lon="3.47802">
        <ele>17</ele>
        <time>2022-04-10T07:51:44.000Z</time>
      </trkpt>
      <trkpt lat="50.49663" lon="3.47811">
        <ele>17</ele>
        <time>2022-04-10T07:51:51.714Z</time>
      </trkpt>
      <trkpt lat="50.49669" lon="3.47818">
        <ele>17</ele>
        <time>2022-04-10T07:51:54.000Z</time>
      </trkpt>
      <trkpt lat="50.49675" lon="3.47822">
        <ele>16.8</ele>
        <time>2022-04-10T07:51:56.000Z</time>
      </trkpt>
      <trkpt lat="50.4968" lon="3.47822">
        <ele>16.7</ele>
        <time>2022-04-10T07:51:58.000Z</time>
      </trkpt>
      <trkpt lat="50.49687" lon="3.47827">
        <ele>16.4</ele>
        <time>2022-04-10T07:52:00.728Z</time>
      </trkpt>
      <trkpt lat="50.49695" lon="3.47831">
        <ele>16.1</ele>
        <time>2022-04-10T07:52:04.000Z</time>
      </trkpt>
      <trkpt lat="50.497" lon="3.47824">
        <ele>16.3</ele>
        <time>2022-04-10T07:52:07.000Z</time>
      </trkpt>
      <trkpt lat="50.497" lon="3.47813">
        <ele>16.6</ele>
        <time>2022-04-10T07:52:09.151Z</time>
      </trkpt>
      <trkpt lat="50.49705" lon="3.47809">
        <ele>16.5</ele>
        <time>2022-04-10T07:52:10.470Z</time>
      </trkpt>
      <trkpt lat="50.4971" lon="3.47813">
        <ele>16.3</ele>
        <time>2022-04-10T07:52:12.030Z</time>
      </trkpt>
      <trkpt lat="50.49713" lon="3.47819">
        <ele>16.2</ele>
        <time>2022-04-10T07:52:13.000Z</time>
      </trkpt>
      <trkpt lat="50.49719" lon="3.47827">
        <ele>16</ele>
        <time>2022-04-10T07:52:14.093Z</time>
      </trkpt>
      <trkpt lat="50.49722" lon="3.47834">
        <ele>16</ele>
        <time>2022-04-10T07:52:15.000Z</time>
      </trkpt>
      <trkpt lat="50.49729" lon="3.47848">
        <ele>16</ele>
        <time>2022-04-10T07:52:17.410Z</time>
      </trkpt>
      <trkpt lat="50.49734" lon="3.47857">
        <ele>16</ele>
        <time>2022-04-10T07:52:18.773Z</time>
      </trkpt>
      <trkpt lat="50.49738" lon="3.47861">
        <ele>16</ele>
        <time>2022-04-10T07:52:20.114Z</time>
      </trkpt>
      <trkpt lat="50.49744" lon="3.47868">
        <ele>16</ele>
        <time>2022-04-10T07:52:21.488Z</time>
      </trkpt>
      <trkpt lat="50.49751" lon="3.47872">
        <ele>16</ele>
        <time>2022-04-10T07:52:23.000Z</time>
      </trkpt>
      <trkpt lat="50.49758" lon="3.47872">
        <ele>16</ele>
        <time>2022-04-10T07:52:25.000Z</time>
      </trkpt>
      <trkpt lat="50.49766" lon="3.47872">
        <ele>16</ele>
        <time>2022-04-10T07:52:27.056Z</time>
      </trkpt>
      <trkpt lat="50.49771" lon="3.47874">
        <ele>16</ele>
        <time>2022-04-10T07:52:28.000Z</time>
      </trkpt>
      <trkpt lat="50.4978" lon="3.47874">
        <ele>16</ele>
        <time>2022-04-10T07:52:30.000Z</time>
      </trkpt>
      <trkpt lat="50.4979" lon="3.47875">
        <ele>16</ele>
        <time>2022-04-10T07:52:33.148Z</time>
      </trkpt>
      <trkpt lat="50.49796" lon="3.47875">
        <ele>16</ele>
        <time>2022-04-10T07:52:34.385Z</time>
      </trkpt>
      <trkpt lat="50.49801" lon="3.47876">
        <ele>16</ele>
        <time>2022-04-10T07:52:35.486Z</time>
      </trkpt>
      <trkpt lat="50.49807" lon="3.47877">
        <ele>16.1</ele>
        <time>2022-04-10T07:52:36.925Z</time>
      </trkpt>
      <trkpt lat="50.49812" lon="3.47877">
        <ele>16.2</ele>
        <time>2022-04-10T07:52:38.189Z</time>
      </trkpt>
      <trkpt lat="50.49823" lon="3.47879">
        <ele>16.6</ele>
        <time>2022-04-10T07:52:40.745Z</time>
      </trkpt>
      <trkpt lat="50.49831" lon="3.47879">
        <ele>16.9</ele>
        <time>2022-04-10T07:52:42.853Z</time>
      </trkpt>
      <trkpt lat="50.49836" lon="3.47877">
        <ele>17.1</ele>
        <time>2022-04-10T07:52:44.008Z</time>
      </trkpt>
      <trkpt lat="50.49839" lon="3.4787">
        <ele>17.3</ele>
        <time>2022-04-10T07:52:45.000Z</time>
      </trkpt>
      <trkpt lat="50.4984" lon="3.47863">
        <ele>17.5</ele>
        <time>2022-04-10T07:52:46.000Z</time>
      </trkpt>
      <trkpt lat="50.49841" lon="3.47856">
        <ele>17.6</ele>
        <time>2022-04-10T07:52:47.000Z</time>
      </trkpt>
      <trkpt lat="50.49842" lon="3.47849">
        <ele>17.6</ele>
        <time>2022-04-10T07:52:48.000Z</time>
      </trkpt>
      <trkpt lat="50.49843" lon="3.47837">
        <ele>17.7</ele>
        <time>2022-04-10T07:52:50.000Z</time>
      </trkpt>
      <trkpt lat="50.49842" lon="3.47828">
        <ele>17.7</ele>
        <time>2022-04-10T07:52:51.000Z</time>
      </trkpt>
      <trkpt lat="50.49846" lon="3.47822">
        <ele>18.1</ele>
        <time>2022-04-10T07:52:52.000Z</time>
      </trkpt>
      <trkpt lat="50.49849" lon="3.47811">
        <ele>18.6</ele>
        <time>2022-04-10T07:52:53.935Z</time>
      </trkpt>
      <trkpt lat="50.49852" lon="3.47803">
        <ele>19</ele>
        <time>2022-04-10T07:52:55.191Z</time>
      </trkpt>
      <trkpt lat="50.49853" lon="3.47794">
        <ele>19.2</ele>
        <time>2022-04-10T07:52:56.622Z</time>
      </trkpt>
      <trkpt lat="50.49854" lon="3.47786">
        <ele>19.3</ele>
        <time>2022-04-10T07:52:57.857Z</time>
      </trkpt>
      <trkpt lat="50.49855" lon="3.47779">
        <ele>19.4</ele>
        <time>2022-04-10T07:52:59.000Z</time>
      </trkpt>
      <trkpt lat="50.49856" lon="3.47772">
        <ele>19.4</ele>
        <time>2022-04-10T07:53:00.000Z</time>
      </trkpt>
      <trkpt lat="50.49857" lon="3.4776">
        <ele>19.6</ele>
        <time>2022-04-10T07:53:02.000Z</time>
      </trkpt>
      <trkpt lat="50.4986" lon="3.47744">
        <ele>19.8</ele>
        <time>2022-04-10T07:53:04.776Z</time>
      </trkpt>
      <trkpt lat="50.49862" lon="3.47729">
        <ele>20</ele>
        <time>2022-04-10T07:53:07.656Z</time>
      </trkpt>
      <trkpt lat="50.49863" lon="3.47717">
        <ele>20</ele>
        <time>2022-04-10T07:53:09.659Z</time>
      </trkpt>
      <trkpt lat="50.49866" lon="3.47704">
        <ele>19.8</ele>
        <time>2022-04-10T07:53:12.000Z</time>
      </trkpt>
      <trkpt lat="50.49868" lon="3.47694">
        <ele>19.8</ele>
        <time>2022-04-10T07:53:14.000Z</time>
      </trkpt>
      <trkpt lat="50.4987" lon="3.4768">
        <ele>19.9</ele>
        <time>2022-04-10T07:53:16.000Z</time>
      </trkpt>
      <trkpt lat="50.49872" lon="3.47667">
        <ele>20.1</ele>
        <time>2022-04-10T07:53:18.000Z</time>
      </trkpt>
      <trkpt lat="50.49873" lon="3.47659">
        <ele>20.1</ele>
        <time>2022-04-10T07:53:19.000Z</time>
      </trkpt>
      <trkpt lat="50.49874" lon="3.47651">
        <ele>20.1</ele>
        <time>2022-04-10T07:53:21.019Z</time>
      </trkpt>
      <trkpt lat="50.49876" lon="3.47642">
        <ele>20.2</ele>
        <time>2022-04-10T07:53:21.997Z</time>
      </trkpt>
      <trkpt lat="50.49878" lon="3.47633">
        <ele>20.2</ele>
        <time>2022-04-10T07:53:24.000Z</time>
      </trkpt>
      <trkpt lat="50.4988" lon="3.47626">
        <ele>20.3</ele>
        <time>2022-04-10T07:53:25.000Z</time>
      </trkpt>
      <trkpt lat="50.49883" lon="3.47615">
        <ele>20.6</ele>
        <time>2022-04-10T07:53:28.000Z</time>
      </trkpt>
      <trkpt lat="50.49884" lon="3.47607">
        <ele>20.5</ele>
        <time>2022-04-10T07:53:29.000Z</time>
      </trkpt>
      <trkpt lat="50.49888" lon="3.47595">
        <ele>20.4</ele>
        <time>2022-04-10T07:53:31.000Z</time>
      </trkpt>
      <trkpt lat="50.49893" lon="3.47582">
        <ele>20.1</ele>
        <time>2022-04-10T07:53:33.398Z</time>
      </trkpt>
      <trkpt lat="50.49897" lon="3.47567">
        <ele>20.3</ele>
        <time>2022-04-10T07:53:36.158Z</time>
      </trkpt>
      <trkpt lat="50.49899" lon="3.47555">
        <ele>20.4</ele>
        <time>2022-04-10T07:53:38.122Z</time>
      </trkpt>
      <trkpt lat="50.49902" lon="3.47539">
        <ele>20.5</ele>
        <time>2022-04-10T07:53:41.076Z</time>
      </trkpt>
      <trkpt lat="50.49903" lon="3.47531">
        <ele>20.5</ele>
        <time>2022-04-10T07:53:42.441Z</time>
      </trkpt>
      <trkpt lat="50.49906" lon="3.47522">
        <ele>20.5</ele>
        <time>2022-04-10T07:53:44.000Z</time>
      </trkpt>
      <trkpt lat="50.49907" lon="3.47515">
        <ele>20.5</ele>
        <time>2022-04-10T07:53:45.801Z</time>
      </trkpt>
      <trkpt lat="50.4991" lon="3.47505">
        <ele>20.6</ele>
        <time>2022-04-10T07:53:47.142Z</time>
      </trkpt>
      <trkpt lat="50.49911" lon="3.47497">
        <ele>20.5</ele>
        <time>2022-04-10T07:53:48.757Z</time>
      </trkpt>
      <trkpt lat="50.49913" lon="3.47488">
        <ele>20.4</ele>
        <time>2022-04-10T07:53:49.879Z</time>
      </trkpt>
      <trkpt lat="50.49915" lon="3.47477">
        <ele>20.1</ele>
        <time>2022-04-10T07:53:51.977Z</time>
      </trkpt>
      <trkpt lat="50.49921" lon="3.47464">
        <ele>20.2</ele>
        <time>2022-04-10T07:53:55.000Z</time>
      </trkpt>
      <trkpt lat="50.49924" lon="3.47452">
        <ele>20.3</ele>
        <time>2022-04-10T07:53:57.000Z</time>
      </trkpt>
      <trkpt lat="50.49926" lon="3.47442">
        <ele>20.3</ele>
        <time>2022-04-10T07:53:59.204Z</time>
      </trkpt>
      <trkpt lat="50.49927" lon="3.47434">
        <ele>20.4</ele>
        <time>2022-04-10T07:54:00.677Z</time>
      </trkpt>
      <trkpt lat="50.49931" lon="3.47419">
        <ele>20.5</ele>
        <time>2022-04-10T07:54:04.000Z</time>
      </trkpt>
      <trkpt lat="50.49934" lon="3.4741">
        <ele>20.5</ele>
        <time>2022-04-10T07:54:06.000Z</time>
      </trkpt>
      <trkpt lat="50.49936" lon="3.47399">
        <ele>20.5</ele>
        <time>2022-04-10T07:54:08.121Z</time>
      </trkpt>
      <trkpt lat="50.4994" lon="3.4739">
        <ele>20.7</ele>
        <time>2022-04-10T07:54:09.841Z</time>
      </trkpt>
      <trkpt lat="50.49942" lon="3.47382">
        <ele>20.8</ele>
        <time>2022-04-10T07:54:11.000Z</time>
      </trkpt>
      <trkpt lat="50.49944" lon="3.47374">
        <ele>20.9</ele>
        <time>2022-04-10T07:54:12.456Z</time>
      </trkpt>
      <trkpt lat="50.49946" lon="3.47365">
        <ele>21.1</ele>
        <time>2022-04-10T07:54:13.681Z</time>
      </trkpt>
      <trkpt lat="50.49946" lon="3.47356">
        <ele>20.9</ele>
        <time>2022-04-10T07:54:15.960Z</time>
      </trkpt>
      <trkpt lat="50.49949" lon="3.47345">
        <ele>20.7</ele>
        <time>2022-04-10T07:54:17.190Z</time>
      </trkpt>
      <trkpt lat="50.49951" lon="3.47336">
        <ele>20.5</ele>
        <time>2022-04-10T07:54:19.257Z</time>
      </trkpt>
      <trkpt lat="50.49953" lon="3.47327">
        <ele>20.6</ele>
        <time>2022-04-10T07:54:20.321Z</time>
      </trkpt>
      <trkpt lat="50.49956" lon="3.47315">
        <ele>20.8</ele>
        <time>2022-04-10T07:54:21.942Z</time>
      </trkpt>
      <trkpt lat="50.49958" lon="3.47306">
        <ele>21</ele>
        <time>2022-04-10T07:54:23.720Z</time>
      </trkpt>
      <trkpt lat="50.49961" lon="3.473">
        <ele>21.2</ele>
        <time>2022-04-10T07:54:25.123Z</time>
      </trkpt>
      <trkpt lat="50.49966" lon="3.47286">
        <ele>21.5</ele>
        <time>2022-04-10T07:54:26.938Z</time>
      </trkpt>
      <trkpt lat="50.4997" lon="3.47269">
        <ele>21.8</ele>
        <time>2022-04-10T07:54:29.695Z</time>
      </trkpt>
      <trkpt lat="50.49972" lon="3.4726">
        <ele>22</ele>
        <time>2022-04-10T07:54:31.698Z</time>
      </trkpt>
      <trkpt lat="50.49975" lon="3.47245">
        <ele>21.9</ele>
        <time>2022-04-10T07:54:33.137Z</time>
      </trkpt>
      <trkpt lat="50.49976" lon="3.47238">
        <ele>21.7</ele>
        <time>2022-04-10T07:54:35.000Z</time>
      </trkpt>
      <trkpt lat="50.49978" lon="3.47221">
        <ele>21.2</ele>
        <time>2022-04-10T07:54:37.000Z</time>
      </trkpt>
      <trkpt lat="50.4998" lon="3.47206">
        <ele>21.3</ele>
        <time>2022-04-10T07:54:39.000Z</time>
      </trkpt>
      <trkpt lat="50.49983" lon="3.47195">
        <ele>21.4</ele>
        <time>2022-04-10T07:54:41.000Z</time>
      </trkpt>
      <trkpt lat="50.49985" lon="3.47185">
        <ele>21.1</ele>
        <time>2022-04-10T07:54:42.000Z</time>
      </trkpt>
      <trkpt lat="50.49987" lon="3.47173">
        <ele>20.7</ele>
        <time>2022-04-10T07:54:44.000Z</time>
      </trkpt>
      <trkpt lat="50.49989" lon="3.47162">
        <ele>20.6</ele>
        <time>2022-04-10T07:54:45.000Z</time>
      </trkpt>
      <trkpt lat="50.49992" lon="3.47144">
        <ele>20.7</ele>
        <time>2022-04-10T07:54:47.000Z</time>
      </trkpt>
      <trkpt lat="50.49994" lon="3.47136">
        <ele>20.7</ele>
        <time>2022-04-10T07:54:48.000Z</time>
      </trkpt>
      <trkpt lat="50.49996" lon="3.47123">
        <ele>20.3</ele>
        <time>2022-04-10T07:54:50.000Z</time>
      </trkpt>
      <trkpt lat="50.49998" lon="3.47116">
        <ele>20.1</ele>
        <time>2022-04-10T07:54:51.000Z</time>
      </trkpt>
      <trkpt lat="50.49999" lon="3.47107">
        <ele>20</ele>
        <time>2022-04-10T07:54:52.000Z</time>
      </trkpt>
      <trkpt lat="50.50001" lon="3.47099">
        <ele>20</ele>
        <time>2022-04-10T07:54:53.000Z</time>
      </trkpt>
      <trkpt lat="50.50002" lon="3.47091">
        <ele>20.1</ele>
        <time>2022-04-10T07:54:54.000Z</time>
      </trkpt>
      <trkpt lat="50.50003" lon="3.47083">
        <ele>20.1</ele>
        <time>2022-04-10T07:54:55.000Z</time>
      </trkpt>
      <trkpt lat="50.50005" lon="3.47075">
        <ele>19.9</ele>
        <time>2022-04-10T07:54:56.000Z</time>
      </trkpt>
      <trkpt lat="50.50007" lon="3.47067">
        <ele>19.7</ele>
        <time>2022-04-10T07:54:57.000Z</time>
      </trkpt>
      <trkpt lat="50.50008" lon="3.47061">
        <ele>19.5</ele>
        <time>2022-04-10T07:54:57.993Z</time>
      </trkpt>
      <trkpt lat="50.50011" lon="3.47052">
        <ele>19.4</ele>
        <time>2022-04-10T07:54:59.000Z</time>
      </trkpt>
      <trkpt lat="50.50013" lon="3.47044">
        <ele>19.5</ele>
        <time>2022-04-10T07:55:00.000Z</time>
      </trkpt>
      <trkpt lat="50.50015" lon="3.47035">
        <ele>19.5</ele>
        <time>2022-04-10T07:55:01.000Z</time>
      </trkpt>
      <trkpt lat="50.50017" lon="3.47028">
        <ele>19.6</ele>
        <time>2022-04-10T07:55:02.000Z</time>
      </trkpt>
      <trkpt lat="50.50019" lon="3.47021">
        <ele>19.6</ele>
        <time>2022-04-10T07:55:03.000Z</time>
      </trkpt>
      <trkpt lat="50.50021" lon="3.47014">
        <ele>19.7</ele>
        <time>2022-04-10T07:55:04.000Z</time>
      </trkpt>
      <trkpt lat="50.50024" lon="3.47007">
        <ele>19.8</ele>
        <time>2022-04-10T07:55:05.000Z</time>
      </trkpt>
      <trkpt lat="50.50027" lon="3.47">
        <ele>20</ele>
        <time>2022-04-10T07:55:06.000Z</time>
      </trkpt>
      <trkpt lat="50.5003" lon="3.46994">
        <ele>19.9</ele>
        <time>2022-04-10T07:55:07.000Z</time>
      </trkpt>
      <trkpt lat="50.50033" lon="3.46986">
        <ele>19.8</ele>
        <time>2022-04-10T07:55:08.000Z</time>
      </trkpt>
      <trkpt lat="50.50035" lon="3.46979">
        <ele>19.7</ele>
        <time>2022-04-10T07:55:09.000Z</time>
      </trkpt>
      <trkpt lat="50.50037" lon="3.46972">
        <ele>19.7</ele>
        <time>2022-04-10T07:55:10.000Z</time>
      </trkpt>
      <trkpt lat="50.5004" lon="3.46964">
        <ele>19.9</ele>
        <time>2022-04-10T07:55:11.000Z</time>
      </trkpt>
      <trkpt lat="50.50043" lon="3.46957">
        <ele>20.1</ele>
        <time>2022-04-10T07:55:12.000Z</time>
      </trkpt>
      <trkpt lat="50.50045" lon="3.4695">
        <ele>20.3</ele>
        <time>2022-04-10T07:55:13.000Z</time>
      </trkpt>
      <trkpt lat="50.50048" lon="3.46943">
        <ele>20.4</ele>
        <time>2022-04-10T07:55:14.000Z</time>
      </trkpt>
      <trkpt lat="50.50051" lon="3.46934">
        <ele>20.3</ele>
        <time>2022-04-10T07:55:15.000Z</time>
      </trkpt>
      <trkpt lat="50.50055" lon="3.46923">
        <ele>20.2</ele>
        <time>2022-04-10T07:55:17.075Z</time>
      </trkpt>
      <trkpt lat="50.5006" lon="3.46911">
        <ele>20.3</ele>
        <time>2022-04-10T07:55:19.000Z</time>
      </trkpt>
      <trkpt lat="50.50062" lon="3.46905">
        <ele>20.5</ele>
        <time>2022-04-10T07:55:20.000Z</time>
      </trkpt>
      <trkpt lat="50.50066" lon="3.46893">
        <ele>20.8</ele>
        <time>2022-04-10T07:55:22.000Z</time>
      </trkpt>
      <trkpt lat="50.50069" lon="3.46886">
        <ele>20.9</ele>
        <time>2022-04-10T07:55:23.000Z</time>
      </trkpt>
      <trkpt lat="50.50073" lon="3.46874">
        <ele>20.9</ele>
        <time>2022-04-10T07:55:25.000Z</time>
      </trkpt>
      <trkpt lat="50.50076" lon="3.46869">
        <ele>20.9</ele>
        <time>2022-04-10T07:55:26.000Z</time>
      </trkpt>
      <trkpt lat="50.5008" lon="3.46859">
        <ele>20.9</ele>
        <time>2022-04-10T07:55:28.000Z</time>
      </trkpt>
      <trkpt lat="50.50083" lon="3.46852">
        <ele>21</ele>
        <time>2022-04-10T07:55:29.000Z</time>
      </trkpt>
      <trkpt lat="50.50088" lon="3.46841">
        <ele>21.2</ele>
        <time>2022-04-10T07:55:31.000Z</time>
      </trkpt>
      <trkpt lat="50.50094" lon="3.4683">
        <ele>21.2</ele>
        <time>2022-04-10T07:55:33.093Z</time>
      </trkpt>
      <trkpt lat="50.50099" lon="3.46819">
        <ele>21.1</ele>
        <time>2022-04-10T07:55:35.000Z</time>
      </trkpt>
      <trkpt lat="50.50103" lon="3.46807">
        <ele>20.7</ele>
        <time>2022-04-10T07:55:37.000Z</time>
      </trkpt>
      <trkpt lat="50.50107" lon="3.46797">
        <ele>20.8</ele>
        <time>2022-04-10T07:55:38.992Z</time>
      </trkpt>
      <trkpt lat="50.50111" lon="3.46789">
        <ele>21</ele>
        <time>2022-04-10T07:55:40.633Z</time>
      </trkpt>
      <trkpt lat="50.50114" lon="3.46781">
        <ele>21.1</ele>
        <time>2022-04-10T07:55:42.000Z</time>
      </trkpt>
      <trkpt lat="50.50119" lon="3.4677">
        <ele>20.8</ele>
        <time>2022-04-10T07:55:44.075Z</time>
      </trkpt>
      <trkpt lat="50.50124" lon="3.46759">
        <ele>20.4</ele>
        <time>2022-04-10T07:55:46.000Z</time>
      </trkpt>
      <trkpt lat="50.50129" lon="3.46748">
        <ele>20.2</ele>
        <time>2022-04-10T07:55:48.086Z</time>
      </trkpt>
      <trkpt lat="50.50135" lon="3.46736">
        <ele>20.2</ele>
        <time>2022-04-10T07:55:50.293Z</time>
      </trkpt>
      <trkpt lat="50.50141" lon="3.46726">
        <ele>20.3</ele>
        <time>2022-04-10T07:55:52.000Z</time>
      </trkpt>
      <trkpt lat="50.50146" lon="3.46722">
        <ele>20.7</ele>
        <time>2022-04-10T07:55:54.000Z</time>
      </trkpt>
      <trkpt lat="50.50148" lon="3.46715">
        <ele>20.8</ele>
        <time>2022-04-10T07:55:55.000Z</time>
      </trkpt>
      <trkpt lat="50.50152" lon="3.46705">
        <ele>20.8</ele>
        <time>2022-04-10T07:55:56.000Z</time>
      </trkpt>
      <trkpt lat="50.50155" lon="3.46699">
        <ele>20.9</ele>
        <time>2022-04-10T07:55:57.000Z</time>
      </trkpt>
      <trkpt lat="50.50157" lon="3.46692">
        <ele>20.9</ele>
        <time>2022-04-10T07:55:58.000Z</time>
      </trkpt>
      <trkpt lat="50.5016" lon="3.46685">
        <ele>20.9</ele>
        <time>2022-04-10T07:55:59.000Z</time>
      </trkpt>
      <trkpt lat="50.50163" lon="3.4668">
        <ele>21.1</ele>
        <time>2022-04-10T07:56:00.000Z</time>
      </trkpt>
      <trkpt lat="50.50166" lon="3.46674">
        <ele>21.2</ele>
        <time>2022-04-10T07:56:01.000Z</time>
      </trkpt>
      <trkpt lat="50.50171" lon="3.46665">
        <ele>21.3</ele>
        <time>2022-04-10T07:56:02.000Z</time>
      </trkpt>
      <trkpt lat="50.50175" lon="3.46654">
        <ele>21.3</ele>
        <time>2022-04-10T07:56:04.000Z</time>
      </trkpt>
      <trkpt lat="50.50179" lon="3.46645">
        <ele>21.5</ele>
        <time>2022-04-10T07:56:06.000Z</time>
      </trkpt>
      <trkpt lat="50.50183" lon="3.46636">
        <ele>21.8</ele>
        <time>2022-04-10T07:56:07.000Z</time>
      </trkpt>
      <trkpt lat="50.50188" lon="3.46629">
        <ele>22</ele>
        <time>2022-04-10T07:56:09.000Z</time>
      </trkpt>
      <trkpt lat="50.50192" lon="3.46619">
        <ele>22</ele>
        <time>2022-04-10T07:56:10.975Z</time>
      </trkpt>
      <trkpt lat="50.50197" lon="3.46609">
        <ele>22.1</ele>
        <time>2022-04-10T07:56:13.000Z</time>
      </trkpt>
      <trkpt lat="50.502" lon="3.46603">
        <ele>22.1</ele>
        <time>2022-04-10T07:56:14.000Z</time>
      </trkpt>
      <trkpt lat="50.50203" lon="3.46597">
        <ele>22.1</ele>
        <time>2022-04-10T07:56:15.000Z</time>
      </trkpt>
      <trkpt lat="50.50206" lon="3.46589">
        <ele>22.1</ele>
        <time>2022-04-10T07:56:16.000Z</time>
      </trkpt>
      <trkpt lat="50.50214" lon="3.46577">
        <ele>22.1</ele>
        <time>2022-04-10T07:56:18.000Z</time>
      </trkpt>
      <trkpt lat="50.50218" lon="3.46572">
        <ele>22.2</ele>
        <time>2022-04-10T07:56:19.000Z</time>
      </trkpt>
      <trkpt lat="50.50225" lon="3.46563">
        <ele>22.4</ele>
        <time>2022-04-10T07:56:21.940Z</time>
      </trkpt>
      <trkpt lat="50.50231" lon="3.46555">
        <ele>22.3</ele>
        <time>2022-04-10T07:56:24.000Z</time>
      </trkpt>
      <trkpt lat="50.50236" lon="3.46545">
        <ele>22.5</ele>
        <time>2022-04-10T07:56:26.000Z</time>
      </trkpt>
      <trkpt lat="50.50242" lon="3.46538">
        <ele>22.7</ele>
        <time>2022-04-10T07:56:27.000Z</time>
      </trkpt>
      <trkpt lat="50.50247" lon="3.4653">
        <ele>22.9</ele>
        <time>2022-04-10T07:56:29.000Z</time>
      </trkpt>
      <trkpt lat="50.50255" lon="3.46517">
        <ele>23</ele>
        <time>2022-04-10T07:56:31.000Z</time>
      </trkpt>
      <trkpt lat="50.5026" lon="3.4651">
        <ele>23</ele>
        <time>2022-04-10T07:56:32.000Z</time>
      </trkpt>
      <trkpt lat="50.50263" lon="3.46504">
        <ele>23</ele>
        <time>2022-04-10T07:56:34.000Z</time>
      </trkpt>
      <trkpt lat="50.50268" lon="3.46494">
        <ele>22.8</ele>
        <time>2022-04-10T07:56:36.000Z</time>
      </trkpt>
      <trkpt lat="50.50272" lon="3.46488">
        <ele>22.6</ele>
        <time>2022-04-10T07:56:37.000Z</time>
      </trkpt>
      <trkpt lat="50.50276" lon="3.4648">
        <ele>22.3</ele>
        <time>2022-04-10T07:56:38.000Z</time>
      </trkpt>
      <trkpt lat="50.50281" lon="3.46471">
        <ele>22</ele>
        <time>2022-04-10T07:56:40.000Z</time>
      </trkpt>
      <trkpt lat="50.50285" lon="3.46463">
        <ele>22</ele>
        <time>2022-04-10T07:56:41.000Z</time>
      </trkpt>
      <trkpt lat="50.5029" lon="3.46451">
        <ele>22</ele>
        <time>2022-04-10T07:56:43.000Z</time>
      </trkpt>
      <trkpt lat="50.50298" lon="3.46442">
        <ele>21.9</ele>
        <time>2022-04-10T07:56:45.000Z</time>
      </trkpt>
      <trkpt lat="50.50303" lon="3.4643">
        <ele>21.5</ele>
        <time>2022-04-10T07:56:47.000Z</time>
      </trkpt>
      <trkpt lat="50.50309" lon="3.46421">
        <ele>21.2</ele>
        <time>2022-04-10T07:56:49.000Z</time>
      </trkpt>
      <trkpt lat="50.50307" lon="3.46411">
        <ele>21</ele>
        <time>2022-04-10T07:56:51.000Z</time>
      </trkpt>
      <trkpt lat="50.50309" lon="3.46405">
        <ele>21.1</ele>
        <time>2022-04-10T07:56:54.000Z</time>
      </trkpt>
      <trkpt lat="50.50301" lon="3.46397">
        <ele>21</ele>
        <time>2022-04-10T07:56:56.000Z</time>
      </trkpt>
      <trkpt lat="50.50296" lon="3.46394">
        <ele>21</ele>
        <time>2022-04-10T07:56:58.000Z</time>
      </trkpt>
      <trkpt lat="50.50286" lon="3.4639">
        <ele>21</ele>
        <time>2022-04-10T07:57:00.000Z</time>
      </trkpt>
      <trkpt lat="50.50279" lon="3.46388">
        <ele>21</ele>
        <time>2022-04-10T07:57:02.000Z</time>
      </trkpt>
      <trkpt lat="50.50273" lon="3.46385">
        <ele>21</ele>
        <time>2022-04-10T07:57:03.000Z</time>
      </trkpt>
      <trkpt lat="50.50266" lon="3.46377">
        <ele>20.8</ele>
        <time>2022-04-10T07:57:05.000Z</time>
      </trkpt>
      <trkpt lat="50.50262" lon="3.46373">
        <ele>20.7</ele>
        <time>2022-04-10T07:57:06.000Z</time>
      </trkpt>
      <trkpt lat="50.50258" lon="3.46368">
        <ele>20.5</ele>
        <time>2022-04-10T07:57:07.000Z</time>
      </trkpt>
      <trkpt lat="50.50251" lon="3.46361">
        <ele>20.1</ele>
        <time>2022-04-10T07:57:08.000Z</time>
      </trkpt>
      <trkpt lat="50.50244" lon="3.46357">
        <ele>20.1</ele>
        <time>2022-04-10T07:57:10.000Z</time>
      </trkpt>
      <trkpt lat="50.50239" lon="3.46354">
        <ele>20.2</ele>
        <time>2022-04-10T07:57:11.000Z</time>
      </trkpt>
      <trkpt lat="50.50231" lon="3.46348">
        <ele>20.1</ele>
        <time>2022-04-10T07:57:13.000Z</time>
      </trkpt>
      <trkpt lat="50.50222" lon="3.46342">
        <ele>20</ele>
        <time>2022-04-10T07:57:15.000Z</time>
      </trkpt>
      <trkpt lat="50.50217" lon="3.46339">
        <ele>19.9</ele>
        <time>2022-04-10T07:57:16.000Z</time>
      </trkpt>
      <trkpt lat="50.50213" lon="3.46336">
        <ele>19.7</ele>
        <time>2022-04-10T07:57:17.000Z</time>
      </trkpt>
      <trkpt lat="50.50208" lon="3.46333">
        <ele>19.5</ele>
        <time>2022-04-10T07:57:18.000Z</time>
      </trkpt>
      <trkpt lat="50.50204" lon="3.46331">
        <ele>19.3</ele>
        <time>2022-04-10T07:57:19.000Z</time>
      </trkpt>
      <trkpt lat="50.50199" lon="3.46327">
        <ele>19.2</ele>
        <time>2022-04-10T07:57:20.000Z</time>
      </trkpt>
      <trkpt lat="50.50195" lon="3.46324">
        <ele>19</ele>
        <time>2022-04-10T07:57:21.000Z</time>
      </trkpt>
      <trkpt lat="50.5019" lon="3.46321">
        <ele>19.1</ele>
        <time>2022-04-10T07:57:22.000Z</time>
      </trkpt>
      <trkpt lat="50.50185" lon="3.46319">
        <ele>19.2</ele>
        <time>2022-04-10T07:57:23.000Z</time>
      </trkpt>
      <trkpt lat="50.50181" lon="3.46316">
        <ele>19.2</ele>
        <time>2022-04-10T07:57:24.000Z</time>
      </trkpt>
      <trkpt lat="50.50176" lon="3.46314">
        <ele>19.2</ele>
        <time>2022-04-10T07:57:25.000Z</time>
      </trkpt>
      <trkpt lat="50.50171" lon="3.46312">
        <ele>19.2</ele>
        <time>2022-04-10T07:57:26.000Z</time>
      </trkpt>
      <trkpt lat="50.50163" lon="3.46309">
        <ele>19.1</ele>
        <time>2022-04-10T07:57:28.000Z</time>
      </trkpt>
      <trkpt lat="50.50155" lon="3.46304">
        <ele>19</ele>
        <time>2022-04-10T07:57:30.000Z</time>
      </trkpt>
      <trkpt lat="50.5015" lon="3.46301">
        <ele>19</ele>
        <time>2022-04-10T07:57:31.000Z</time>
      </trkpt>
      <trkpt lat="50.50146" lon="3.46298">
        <ele>19</ele>
        <time>2022-04-10T07:57:32.000Z</time>
      </trkpt>
      <trkpt lat="50.50139" lon="3.46293">
        <ele>19</ele>
        <time>2022-04-10T07:57:34.000Z</time>
      </trkpt>
      <trkpt lat="50.50131" lon="3.46286">
        <ele>19</ele>
        <time>2022-04-10T07:57:36.000Z</time>
      </trkpt>
      <trkpt lat="50.50125" lon="3.46282">
        <ele>19</ele>
        <time>2022-04-10T07:57:38.000Z</time>
      </trkpt>
      <trkpt lat="50.50119" lon="3.4628">
        <ele>19</ele>
        <time>2022-04-10T07:57:40.170Z</time>
      </trkpt>
      <trkpt lat="50.50115" lon="3.46276">
        <ele>18.9</ele>
        <time>2022-04-10T07:57:41.149Z</time>
      </trkpt>
      <trkpt lat="50.50109" lon="3.46271">
        <ele>18.7</ele>
        <time>2022-04-10T07:57:42.650Z</time>
      </trkpt>
      <trkpt lat="50.50104" lon="3.46266">
        <ele>18.6</ele>
        <time>2022-04-10T07:57:43.850Z</time>
      </trkpt>
      <trkpt lat="50.501" lon="3.46262">
        <ele>18.4</ele>
        <time>2022-04-10T07:57:44.869Z</time>
      </trkpt>
      <trkpt lat="50.50096" lon="3.46257">
        <ele>18.3</ele>
        <time>2022-04-10T07:57:46.000Z</time>
      </trkpt>
      <trkpt lat="50.50092" lon="3.46253">
        <ele>18.1</ele>
        <time>2022-04-10T07:57:47.000Z</time>
      </trkpt>
      <trkpt lat="50.50084" lon="3.46248">
        <ele>18</ele>
        <time>2022-04-10T07:57:49.000Z</time>
      </trkpt>
      <trkpt lat="50.50079" lon="3.46244">
        <ele>18.1</ele>
        <time>2022-04-10T07:57:50.549Z</time>
      </trkpt>
      <trkpt lat="50.50075" lon="3.46241">
        <ele>18.2</ele>
        <time>2022-04-10T07:57:51.726Z</time>
      </trkpt>
      <trkpt lat="50.5007" lon="3.46239">
        <ele>18.3</ele>
        <time>2022-04-10T07:57:53.000Z</time>
      </trkpt>
      <trkpt lat="50.50062" lon="3.46233">
        <ele>18.3</ele>
        <time>2022-04-10T07:57:55.000Z</time>
      </trkpt>
      <trkpt lat="50.50055" lon="3.46226">
        <ele>18.2</ele>
        <time>2022-04-10T07:57:57.000Z</time>
      </trkpt>
      <trkpt lat="50.50051" lon="3.46224">
        <ele>18.2</ele>
        <time>2022-04-10T07:57:58.109Z</time>
      </trkpt>
      <trkpt lat="50.50043" lon="3.46219">
        <ele>18.4</ele>
        <time>2022-04-10T07:58:00.050Z</time>
      </trkpt>
      <trkpt lat="50.50038" lon="3.46216">
        <ele>18.6</ele>
        <time>2022-04-10T07:58:01.427Z</time>
      </trkpt>
      <trkpt lat="50.50033" lon="3.46211">
        <ele>18.8</ele>
        <time>2022-04-10T07:58:03.069Z</time>
      </trkpt>
      <trkpt lat="50.50026" lon="3.46207">
        <ele>19</ele>
        <time>2022-04-10T07:58:05.000Z</time>
      </trkpt>
      <trkpt lat="50.50019" lon="3.46204">
        <ele>19.1</ele>
        <time>2022-04-10T07:58:07.000Z</time>
      </trkpt>
      <trkpt lat="50.50013" lon="3.462">
        <ele>19.1</ele>
        <time>2022-04-10T07:58:09.000Z</time>
      </trkpt>
      <trkpt lat="50.5001" lon="3.46191">
        <ele>19</ele>
        <time>2022-04-10T07:58:10.913Z</time>
      </trkpt>
      <trkpt lat="50.5001" lon="3.46177">
        <ele>19</ele>
        <time>2022-04-10T07:58:13.000Z</time>
      </trkpt>
      <trkpt lat="50.50013" lon="3.46164">
        <ele>19</ele>
        <time>2022-04-10T07:58:15.000Z</time>
      </trkpt>
      <trkpt lat="50.50015" lon="3.46157">
        <ele>18.8</ele>
        <time>2022-04-10T07:58:16.000Z</time>
      </trkpt>
      <trkpt lat="50.50016" lon="3.46149">
        <ele>18.7</ele>
        <time>2022-04-10T07:58:17.000Z</time>
      </trkpt>
      <trkpt lat="50.50017" lon="3.46141">
        <ele>18.5</ele>
        <time>2022-04-10T07:58:18.000Z</time>
      </trkpt>
      <trkpt lat="50.50019" lon="3.46128">
        <ele>18.5</ele>
        <time>2022-04-10T07:58:20.000Z</time>
      </trkpt>
      <trkpt lat="50.5002" lon="3.46114">
        <ele>18.5</ele>
        <time>2022-04-10T07:58:22.000Z</time>
      </trkpt>
      <trkpt lat="50.50021" lon="3.46107">
        <ele>18.5</ele>
        <time>2022-04-10T07:58:23.000Z</time>
      </trkpt>
      <trkpt lat="50.50022" lon="3.46093">
        <ele>18.6</ele>
        <time>2022-04-10T07:58:25.000Z</time>
      </trkpt>
      <trkpt lat="50.50022" lon="3.46081">
        <ele>18.6</ele>
        <time>2022-04-10T07:58:27.065Z</time>
      </trkpt>
      <trkpt lat="50.50027" lon="3.46068">
        <ele>18.1</ele>
        <time>2022-04-10T07:58:29.250Z</time>
      </trkpt>
      <trkpt lat="50.5003" lon="3.46049">
        <ele>17.9</ele>
        <time>2022-04-10T07:58:31.000Z</time>
      </trkpt>
      <trkpt lat="50.50032" lon="3.46037">
        <ele>17.9</ele>
        <time>2022-04-10T07:58:33.435Z</time>
      </trkpt>
      <trkpt lat="50.50031" lon="3.46021">
        <ele>17.9</ele>
        <time>2022-04-10T07:58:34.963Z</time>
      </trkpt>
      <trkpt lat="50.50032" lon="3.4601">
        <ele>17.9</ele>
        <time>2022-04-10T07:58:36.933Z</time>
      </trkpt>
      <trkpt lat="50.50032" lon="3.46">
        <ele>17.9</ele>
        <time>2022-04-10T07:58:38.000Z</time>
      </trkpt>
      <trkpt lat="50.50031" lon="3.4599">
        <ele>18.2</ele>
        <time>2022-04-10T07:58:39.215Z</time>
      </trkpt>
      <trkpt lat="50.5003" lon="3.45982">
        <ele>18.5</ele>
        <time>2022-04-10T07:58:41.000Z</time>
      </trkpt>
      <trkpt lat="50.5003" lon="3.4597">
        <ele>18.7</ele>
        <time>2022-04-10T07:58:42.471Z</time>
      </trkpt>
      <trkpt lat="50.50031" lon="3.45962">
        <ele>18.5</ele>
        <time>2022-04-10T07:58:43.940Z</time>
      </trkpt>
      <trkpt lat="50.50031" lon="3.45953">
        <ele>18.2</ele>
        <time>2022-04-10T07:58:45.000Z</time>
      </trkpt>
      <trkpt lat="50.50031" lon="3.45944">
        <ele>18</ele>
        <time>2022-04-10T07:58:45.994Z</time>
      </trkpt>
      <trkpt lat="50.5003" lon="3.4593">
        <ele>18</ele>
        <time>2022-04-10T07:58:48.000Z</time>
      </trkpt>
      <trkpt lat="50.50031" lon="3.45922">
        <ele>18</ele>
        <time>2022-04-10T07:58:49.000Z</time>
      </trkpt>
      <trkpt lat="50.5003" lon="3.45905">
        <ele>18.4</ele>
        <time>2022-04-10T07:58:52.000Z</time>
      </trkpt>
      <trkpt lat="50.50029" lon="3.45895">
        <ele>18.7</ele>
        <time>2022-04-10T07:58:54.000Z</time>
      </trkpt>
      <trkpt lat="50.50027" lon="3.45886">
        <ele>18.9</ele>
        <time>2022-04-10T07:58:55.000Z</time>
      </trkpt>
      <trkpt lat="50.50026" lon="3.45875">
        <ele>18.4</ele>
        <time>2022-04-10T07:58:56.000Z</time>
      </trkpt>
      <trkpt lat="50.50025" lon="3.45867">
        <ele>18.1</ele>
        <time>2022-04-10T07:58:57.000Z</time>
      </trkpt>
      <trkpt lat="50.50026" lon="3.45854">
        <ele>17.9</ele>
        <time>2022-04-10T07:58:59.000Z</time>
      </trkpt>
      <trkpt lat="50.50024" lon="3.45842">
        <ele>17.9</ele>
        <time>2022-04-10T07:59:00.912Z</time>
      </trkpt>
      <trkpt lat="50.50023" lon="3.45831">
        <ele>17.8</ele>
        <time>2022-04-10T07:59:02.876Z</time>
      </trkpt>
      <trkpt lat="50.50022" lon="3.4582">
        <ele>17.7</ele>
        <time>2022-04-10T07:59:03.937Z</time>
      </trkpt>
      <trkpt lat="50.50022" lon="3.4581">
        <ele>17.6</ele>
        <time>2022-04-10T07:59:05.113Z</time>
      </trkpt>
      <trkpt lat="50.50023" lon="3.458">
        <ele>17.6</ele>
        <time>2022-04-10T07:59:07.000Z</time>
      </trkpt>
      <trkpt lat="50.50027" lon="3.45789">
        <ele>17.9</ele>
        <time>2022-04-10T07:59:10.000Z</time>
      </trkpt>
      <trkpt lat="50.50029" lon="3.45779">
        <ele>18</ele>
        <time>2022-04-10T07:59:11.162Z</time>
      </trkpt>
      <trkpt lat="50.50031" lon="3.4577">
        <ele>18</ele>
        <time>2022-04-10T07:59:13.000Z</time>
      </trkpt>
      <trkpt lat="50.50032" lon="3.45763">
        <ele>17.9</ele>
        <time>2022-04-10T07:59:14.000Z</time>
      </trkpt>
      <trkpt lat="50.50034" lon="3.45749">
        <ele>17.8</ele>
        <time>2022-04-10T07:59:16.000Z</time>
      </trkpt>
      <trkpt lat="50.50036" lon="3.45738">
        <ele>17.7</ele>
        <time>2022-04-10T07:59:17.000Z</time>
      </trkpt>
      <trkpt lat="50.50039" lon="3.45723">
        <ele>17.6</ele>
        <time>2022-04-10T07:59:19.000Z</time>
      </trkpt>
      <trkpt lat="50.50041" lon="3.4571">
        <ele>17.3</ele>
        <time>2022-04-10T07:59:21.000Z</time>
      </trkpt>
      <trkpt lat="50.50042" lon="3.457">
        <ele>17.1</ele>
        <time>2022-04-10T07:59:22.000Z</time>
      </trkpt>
      <trkpt lat="50.50045" lon="3.45686">
        <ele>17.1</ele>
        <time>2022-04-10T07:59:24.000Z</time>
      </trkpt>
      <trkpt lat="50.50047" lon="3.45675">
        <ele>17.2</ele>
        <time>2022-04-10T07:59:25.000Z</time>
      </trkpt>
      <trkpt lat="50.50048" lon="3.45666">
        <ele>17.4</ele>
        <time>2022-04-10T07:59:26.000Z</time>
      </trkpt>
      <trkpt lat="50.50049" lon="3.45656">
        <ele>17.5</ele>
        <time>2022-04-10T07:59:28.000Z</time>
      </trkpt>
      <trkpt lat="50.5005" lon="3.45648">
        <ele>17.6</ele>
        <time>2022-04-10T07:59:29.000Z</time>
      </trkpt>
      <trkpt lat="50.50051" lon="3.45631">
        <ele>17.6</ele>
        <time>2022-04-10T07:59:31.000Z</time>
      </trkpt>
      <trkpt lat="50.50054" lon="3.45616">
        <ele>17.8</ele>
        <time>2022-04-10T07:59:33.000Z</time>
      </trkpt>
      <trkpt lat="50.50056" lon="3.45609">
        <ele>18</ele>
        <time>2022-04-10T07:59:35.047Z</time>
      </trkpt>
      <trkpt lat="50.50058" lon="3.45601">
        <ele>18</ele>
        <time>2022-04-10T07:59:36.000Z</time>
      </trkpt>
      <trkpt lat="50.50059" lon="3.45588">
        <ele>18</ele>
        <time>2022-04-10T07:59:38.000Z</time>
      </trkpt>
      <trkpt lat="50.50063" lon="3.45569">
        <ele>18</ele>
        <time>2022-04-10T07:59:40.000Z</time>
      </trkpt>
      <trkpt lat="50.50066" lon="3.45561">
        <ele>18</ele>
        <time>2022-04-10T07:59:41.000Z</time>
      </trkpt>
      <trkpt lat="50.50069" lon="3.45548">
        <ele>17.8</ele>
        <time>2022-04-10T07:59:43.845Z</time>
      </trkpt>
      <trkpt lat="50.50067" lon="3.45534">
        <ele>17.4</ele>
        <time>2022-04-10T07:59:46.000Z</time>
      </trkpt>
      <trkpt lat="50.50063" lon="3.45523">
        <ele>17</ele>
        <time>2022-04-10T07:59:48.000Z</time>
      </trkpt>
      <trkpt lat="50.5006" lon="3.45511">
        <ele>17.4</ele>
        <time>2022-04-10T07:59:50.000Z</time>
      </trkpt>
      <trkpt lat="50.50058" lon="3.45502">
        <ele>17.9</ele>
        <time>2022-04-10T07:59:51.184Z</time>
      </trkpt>
      <trkpt lat="50.50054" lon="3.45491">
        <ele>17.9</ele>
        <time>2022-04-10T07:59:53.000Z</time>
      </trkpt>
      <trkpt lat="50.50054" lon="3.45483">
        <ele>17.9</ele>
        <time>2022-04-10T07:59:54.000Z</time>
      </trkpt>
      <trkpt lat="50.50055" lon="3.45475">
        <ele>18</ele>
        <time>2022-04-10T07:59:55.363Z</time>
      </trkpt>
      <trkpt lat="50.50056" lon="3.45468">
        <ele>18</ele>
        <time>2022-04-10T07:59:56.480Z</time>
      </trkpt>
      <trkpt lat="50.50059" lon="3.45458">
        <ele>18.1</ele>
        <time>2022-04-10T07:59:58.000Z</time>
      </trkpt>
      <trkpt lat="50.50061" lon="3.45452">
        <ele>18.1</ele>
        <time>2022-04-10T07:59:59.000Z</time>
      </trkpt>
      <trkpt lat="50.50064" lon="3.45439">
        <ele>18.2</ele>
        <time>2022-04-10T08:00:01.000Z</time>
      </trkpt>
      <trkpt lat="50.50064" lon="3.45431">
        <ele>18.2</ele>
        <time>2022-04-10T08:00:02.000Z</time>
      </trkpt>
      <trkpt lat="50.50065" lon="3.45424">
        <ele>18.1</ele>
        <time>2022-04-10T08:00:03.000Z</time>
      </trkpt>
      <trkpt lat="50.50067" lon="3.4541">
        <ele>17.9</ele>
        <time>2022-04-10T08:00:05.000Z</time>
      </trkpt>
      <trkpt lat="50.50071" lon="3.45399">
        <ele>17.7</ele>
        <time>2022-04-10T08:00:07.000Z</time>
      </trkpt>
      <trkpt lat="50.50072" lon="3.45382">
        <ele>17.7</ele>
        <time>2022-04-10T08:00:09.000Z</time>
      </trkpt>
      <trkpt lat="50.50073" lon="3.45375">
        <ele>17.8</ele>
        <time>2022-04-10T08:00:10.000Z</time>
      </trkpt>
      <trkpt lat="50.50075" lon="3.45361">
        <ele>18</ele>
        <time>2022-04-10T08:00:12.000Z</time>
      </trkpt>
      <trkpt lat="50.50075" lon="3.45354">
        <ele>18.1</ele>
        <time>2022-04-10T08:00:13.000Z</time>
      </trkpt>
      <trkpt lat="50.50076" lon="3.45339">
        <ele>18.4</ele>
        <time>2022-04-10T08:00:15.000Z</time>
      </trkpt>
      <trkpt lat="50.50077" lon="3.45332">
        <ele>18.5</ele>
        <time>2022-04-10T08:00:16.000Z</time>
      </trkpt>
      <trkpt lat="50.50078" lon="3.4532">
        <ele>18.7</ele>
        <time>2022-04-10T08:00:18.000Z</time>
      </trkpt>
      <trkpt lat="50.50079" lon="3.45312">
        <ele>18.8</ele>
        <time>2022-04-10T08:00:19.000Z</time>
      </trkpt>
      <trkpt lat="50.50081" lon="3.45304">
        <ele>18.9</ele>
        <time>2022-04-10T08:00:20.000Z</time>
      </trkpt>
      <trkpt lat="50.50082" lon="3.45296">
        <ele>18.9</ele>
        <time>2022-04-10T08:00:21.000Z</time>
      </trkpt>
      <trkpt lat="50.50083" lon="3.45288">
        <ele>19</ele>
        <time>2022-04-10T08:00:22.000Z</time>
      </trkpt>
      <trkpt lat="50.50085" lon="3.45275">
        <ele>19.1</ele>
        <time>2022-04-10T08:00:24.000Z</time>
      </trkpt>
      <trkpt lat="50.50088" lon="3.45261">
        <ele>19.5</ele>
        <time>2022-04-10T08:00:26.000Z</time>
      </trkpt>
      <trkpt lat="50.5009" lon="3.45252">
        <ele>19.7</ele>
        <time>2022-04-10T08:00:28.000Z</time>
      </trkpt>
      <trkpt lat="50.50092" lon="3.45243">
        <ele>19.9</ele>
        <time>2022-04-10T08:00:30.000Z</time>
      </trkpt>
      <trkpt lat="50.50093" lon="3.45235">
        <ele>20</ele>
        <time>2022-04-10T08:00:32.000Z</time>
      </trkpt>
      <trkpt lat="50.50094" lon="3.45227">
        <ele>20.1</ele>
        <time>2022-04-10T08:00:35.000Z</time>
      </trkpt>
      <trkpt lat="50.50095" lon="3.45219">
        <ele>20.1</ele>
        <time>2022-04-10T08:00:36.922Z</time>
      </trkpt>
      <trkpt lat="50.50095" lon="3.45207">
        <ele>19.9</ele>
        <time>2022-04-10T08:00:39.000Z</time>
      </trkpt>
      <trkpt lat="50.50095" lon="3.45198">
        <ele>19.7</ele>
        <time>2022-04-10T08:00:40.000Z</time>
      </trkpt>
      <trkpt lat="50.50095" lon="3.45189">
        <ele>19.5</ele>
        <time>2022-04-10T08:00:41.000Z</time>
      </trkpt>
      <trkpt lat="50.50096" lon="3.4518">
        <ele>19.3</ele>
        <time>2022-04-10T08:00:42.000Z</time>
      </trkpt>
      <trkpt lat="50.50097" lon="3.45169">
        <ele>19.1</ele>
        <time>2022-04-10T08:00:43.000Z</time>
      </trkpt>
      <trkpt lat="50.50098" lon="3.45159">
        <ele>18.7</ele>
        <time>2022-04-10T08:00:44.000Z</time>
      </trkpt>
      <trkpt lat="50.50099" lon="3.45147">
        <ele>18.3</ele>
        <time>2022-04-10T08:00:45.000Z</time>
      </trkpt>
      <trkpt lat="50.50101" lon="3.45134">
        <ele>18</ele>
        <time>2022-04-10T08:00:46.000Z</time>
      </trkpt>
      <trkpt lat="50.50101" lon="3.45122">
        <ele>18</ele>
        <time>2022-04-10T08:00:47.000Z</time>
      </trkpt>
      <trkpt lat="50.50102" lon="3.45111">
        <ele>18</ele>
        <time>2022-04-10T08:00:48.000Z</time>
      </trkpt>
      <trkpt lat="50.50102" lon="3.45099">
        <ele>18</ele>
        <time>2022-04-10T08:00:49.000Z</time>
      </trkpt>
      <trkpt lat="50.50102" lon="3.45088">
        <ele>18</ele>
        <time>2022-04-10T08:00:50.000Z</time>
      </trkpt>
      <trkpt lat="50.50102" lon="3.45078">
        <ele>18</ele>
        <time>2022-04-10T08:00:51.000Z</time>
      </trkpt>
      <trkpt lat="50.50103" lon="3.45068">
        <ele>18</ele>
        <time>2022-04-10T08:00:52.000Z</time>
      </trkpt>
      <trkpt lat="50.50104" lon="3.45056">
        <ele>18</ele>
        <time>2022-04-10T08:00:53.000Z</time>
      </trkpt>
      <trkpt lat="50.50105" lon="3.45046">
        <ele>18</ele>
        <time>2022-04-10T08:00:54.000Z</time>
      </trkpt>
      <trkpt lat="50.50106" lon="3.45036">
        <ele>18</ele>
        <time>2022-04-10T08:00:55.000Z</time>
      </trkpt>
      <trkpt lat="50.50107" lon="3.45026">
        <ele>18</ele>
        <time>2022-04-10T08:00:56.000Z</time>
      </trkpt>
      <trkpt lat="50.50109" lon="3.45017">
        <ele>18</ele>
        <time>2022-04-10T08:00:57.000Z</time>
      </trkpt>
      <trkpt lat="50.50111" lon="3.45007">
        <ele>18</ele>
        <time>2022-04-10T08:00:58.000Z</time>
      </trkpt>
      <trkpt lat="50.50112" lon="3.44997">
        <ele>18</ele>
        <time>2022-04-10T08:00:59.000Z</time>
      </trkpt>
      <trkpt lat="50.50113" lon="3.44988">
        <ele>18</ele>
        <time>2022-04-10T08:01:00.000Z</time>
      </trkpt>
      <trkpt lat="50.50115" lon="3.4498">
        <ele>18</ele>
        <time>2022-04-10T08:01:01.000Z</time>
      </trkpt>
      <trkpt lat="50.50116" lon="3.44973">
        <ele>18</ele>
        <time>2022-04-10T08:01:02.000Z</time>
      </trkpt>
      <trkpt lat="50.50117" lon="3.44966">
        <ele>18</ele>
        <time>2022-04-10T08:01:03.000Z</time>
      </trkpt>
      <trkpt lat="50.50119" lon="3.44952">
        <ele>18.2</ele>
        <time>2022-04-10T08:01:05.000Z</time>
      </trkpt>
      <trkpt lat="50.50121" lon="3.44938">
        <ele>18.4</ele>
        <time>2022-04-10T08:01:07.000Z</time>
      </trkpt>
      <trkpt lat="50.50122" lon="3.44931">
        <ele>18.4</ele>
        <time>2022-04-10T08:01:08.000Z</time>
      </trkpt>
      <trkpt lat="50.50125" lon="3.44917">
        <ele>18.5</ele>
        <time>2022-04-10T08:01:10.000Z</time>
      </trkpt>
      <trkpt lat="50.50126" lon="3.44905">
        <ele>18.5</ele>
        <time>2022-04-10T08:01:12.000Z</time>
      </trkpt>
      <trkpt lat="50.50126" lon="3.44898">
        <ele>18.5</ele>
        <time>2022-04-10T08:01:13.000Z</time>
      </trkpt>
      <trkpt lat="50.50129" lon="3.44886">
        <ele>18.6</ele>
        <time>2022-04-10T08:01:15.000Z</time>
      </trkpt>
      <trkpt lat="50.50131" lon="3.44878">
        <ele>18.6</ele>
        <time>2022-04-10T08:01:16.427Z</time>
      </trkpt>
      <trkpt lat="50.50135" lon="3.4487">
        <ele>18.8</ele>
        <time>2022-04-10T08:01:17.870Z</time>
      </trkpt>
      <trkpt lat="50.50137" lon="3.44863">
        <ele>18.9</ele>
        <time>2022-04-10T08:01:19.000Z</time>
      </trkpt>
      <trkpt lat="50.50142" lon="3.44852">
        <ele>18.7</ele>
        <time>2022-04-10T08:01:21.000Z</time>
      </trkpt>
      <trkpt lat="50.5015" lon="3.44838">
        <ele>18.5</ele>
        <time>2022-04-10T08:01:24.029Z</time>
      </trkpt>
      <trkpt lat="50.50155" lon="3.44827">
        <ele>18.3</ele>
        <time>2022-04-10T08:01:26.000Z</time>
      </trkpt>
      <trkpt lat="50.50161" lon="3.44817">
        <ele>18</ele>
        <time>2022-04-10T08:01:28.000Z</time>
      </trkpt>
      <trkpt lat="50.50166" lon="3.44806">
        <ele>18</ele>
        <time>2022-04-10T08:01:30.000Z</time>
      </trkpt>
      <trkpt lat="50.50169" lon="3.448">
        <ele>18.1</ele>
        <time>2022-04-10T08:01:31.000Z</time>
      </trkpt>
      <trkpt lat="50.50173" lon="3.44794">
        <ele>18.2</ele>
        <time>2022-04-10T08:01:32.000Z</time>
      </trkpt>
      <trkpt lat="50.50178" lon="3.44783">
        <ele>18.4</ele>
        <time>2022-04-10T08:01:34.000Z</time>
      </trkpt>
      <trkpt lat="50.50181" lon="3.44777">
        <ele>18.5</ele>
        <time>2022-04-10T08:01:35.000Z</time>
      </trkpt>
      <trkpt lat="50.50184" lon="3.4477">
        <ele>18.3</ele>
        <time>2022-04-10T08:01:36.000Z</time>
      </trkpt>
      <trkpt lat="50.50187" lon="3.44763">
        <ele>18.2</ele>
        <time>2022-04-10T08:01:37.000Z</time>
      </trkpt>
      <trkpt lat="50.50189" lon="3.44756">
        <ele>18</ele>
        <time>2022-04-10T08:01:38.000Z</time>
      </trkpt>
      <trkpt lat="50.50191" lon="3.44749">
        <ele>17.9</ele>
        <time>2022-04-10T08:01:39.000Z</time>
      </trkpt>
      <trkpt lat="50.50193" lon="3.44742">
        <ele>17.9</ele>
        <time>2022-04-10T08:01:40.000Z</time>
      </trkpt>
      <trkpt lat="50.50195" lon="3.4473">
        <ele>18</ele>
        <time>2022-04-10T08:01:42.000Z</time>
      </trkpt>
      <trkpt lat="50.50198" lon="3.44717">
        <ele>18</ele>
        <time>2022-04-10T08:01:44.000Z</time>
      </trkpt>
      <trkpt lat="50.50199" lon="3.4471">
        <ele>18</ele>
        <time>2022-04-10T08:01:45.000Z</time>
      </trkpt>
      <trkpt lat="50.50202" lon="3.44697">
        <ele>18</ele>
        <time>2022-04-10T08:01:47.000Z</time>
      </trkpt>
      <trkpt lat="50.50204" lon="3.4469">
        <ele>18</ele>
        <time>2022-04-10T08:01:48.000Z</time>
      </trkpt>
      <trkpt lat="50.50207" lon="3.44678">
        <ele>18</ele>
        <time>2022-04-10T08:01:50.000Z</time>
      </trkpt>
      <trkpt lat="50.50208" lon="3.44671">
        <ele>18</ele>
        <time>2022-04-10T08:01:51.000Z</time>
      </trkpt>
      <trkpt lat="50.5021" lon="3.44658">
        <ele>17.9</ele>
        <time>2022-04-10T08:01:53.000Z</time>
      </trkpt>
      <trkpt lat="50.50213" lon="3.44648">
        <ele>17.8</ele>
        <time>2022-04-10T08:01:54.000Z</time>
      </trkpt>
      <trkpt lat="50.50216" lon="3.44637">
        <ele>17.8</ele>
        <time>2022-04-10T08:01:56.000Z</time>
      </trkpt>
      <trkpt lat="50.50219" lon="3.44627">
        <ele>17.9</ele>
        <time>2022-04-10T08:01:58.000Z</time>
      </trkpt>
      <trkpt lat="50.50223" lon="3.44615">
        <ele>18</ele>
        <time>2022-04-10T08:02:00.000Z</time>
      </trkpt>
      <trkpt lat="50.50225" lon="3.44605">
        <ele>18.1</ele>
        <time>2022-04-10T08:02:02.077Z</time>
      </trkpt>
      <trkpt lat="50.50227" lon="3.44598">
        <ele>18.2</ele>
        <time>2022-04-10T08:02:03.000Z</time>
      </trkpt>
      <trkpt lat="50.50228" lon="3.44591">
        <ele>18.2</ele>
        <time>2022-04-10T08:02:04.000Z</time>
      </trkpt>
      <trkpt lat="50.5023" lon="3.44585">
        <ele>18.3</ele>
        <time>2022-04-10T08:02:05.000Z</time>
      </trkpt>
      <trkpt lat="50.50234" lon="3.44573">
        <ele>18.3</ele>
        <time>2022-04-10T08:02:07.000Z</time>
      </trkpt>
      <trkpt lat="50.50237" lon="3.44561">
        <ele>18.1</ele>
        <time>2022-04-10T08:02:09.000Z</time>
      </trkpt>
      <trkpt lat="50.5024" lon="3.4455">
        <ele>17.9</ele>
        <time>2022-04-10T08:02:11.000Z</time>
      </trkpt>
      <trkpt lat="50.50241" lon="3.44543">
        <ele>17.9</ele>
        <time>2022-04-10T08:02:12.000Z</time>
      </trkpt>
      <trkpt lat="50.50244" lon="3.4453">
        <ele>17.8</ele>
        <time>2022-04-10T08:02:14.000Z</time>
      </trkpt>
      <trkpt lat="50.50247" lon="3.44518">
        <ele>17.9</ele>
        <time>2022-04-10T08:02:16.000Z</time>
      </trkpt>
      <trkpt lat="50.5025" lon="3.4451">
        <ele>18</ele>
        <time>2022-04-10T08:02:17.000Z</time>
      </trkpt>
      <trkpt lat="50.50253" lon="3.44499">
        <ele>18.1</ele>
        <time>2022-04-10T08:02:19.000Z</time>
      </trkpt>
      <trkpt lat="50.50256" lon="3.44482">
        <ele>18.2</ele>
        <time>2022-04-10T08:02:22.052Z</time>
      </trkpt>
      <trkpt lat="50.50259" lon="3.4447">
        <ele>18.2</ele>
        <time>2022-04-10T08:02:24.067Z</time>
      </trkpt>
      <trkpt lat="50.50263" lon="3.44458">
        <ele>17.9</ele>
        <time>2022-04-10T08:02:26.000Z</time>
      </trkpt>
      <trkpt lat="50.50268" lon="3.44441">
        <ele>17.9</ele>
        <time>2022-04-10T08:02:28.000Z</time>
      </trkpt>
      <trkpt lat="50.5027" lon="3.44432">
        <ele>18.2</ele>
        <time>2022-04-10T08:02:30.000Z</time>
      </trkpt>
      <trkpt lat="50.50275" lon="3.44416">
        <ele>18.7</ele>
        <time>2022-04-10T08:02:32.000Z</time>
      </trkpt>
      <trkpt lat="50.50278" lon="3.44407">
        <ele>18.7</ele>
        <time>2022-04-10T08:02:34.012Z</time>
      </trkpt>
      <trkpt lat="50.50282" lon="3.44398">
        <ele>18.9</ele>
        <time>2022-04-10T08:02:36.000Z</time>
      </trkpt>
      <trkpt lat="50.50285" lon="3.44387">
        <ele>19</ele>
        <time>2022-04-10T08:02:37.170Z</time>
      </trkpt>
      <trkpt lat="50.50287" lon="3.4438">
        <ele>19.2</ele>
        <time>2022-04-10T08:02:38.091Z</time>
      </trkpt>
      <trkpt lat="50.50292" lon="3.44364">
        <ele>19.6</ele>
        <time>2022-04-10T08:02:40.788Z</time>
      </trkpt>
      <trkpt lat="50.50295" lon="3.44355">
        <ele>19.6</ele>
        <time>2022-04-10T08:02:42.949Z</time>
      </trkpt>
      <trkpt lat="50.50299" lon="3.44347">
        <ele>19.4</ele>
        <time>2022-04-10T08:02:44.000Z</time>
      </trkpt>
      <trkpt lat="50.50304" lon="3.44335">
        <ele>18.8</ele>
        <time>2022-04-10T08:02:46.000Z</time>
      </trkpt>
      <trkpt lat="50.50312" lon="3.44312">
        <ele>19.1</ele>
        <time>2022-04-10T08:02:50.000Z</time>
      </trkpt>
      <trkpt lat="50.50317" lon="3.44301">
        <ele>19.3</ele>
        <time>2022-04-10T08:02:52.000Z</time>
      </trkpt>
      <trkpt lat="50.5032" lon="3.44292">
        <ele>19.4</ele>
        <time>2022-04-10T08:02:53.000Z</time>
      </trkpt>
      <trkpt lat="50.50324" lon="3.44283">
        <ele>19.5</ele>
        <time>2022-04-10T08:02:54.000Z</time>
      </trkpt>
      <trkpt lat="50.50325" lon="3.4427">
        <ele>18.9</ele>
        <time>2022-04-10T08:02:55.667Z</time>
      </trkpt>
      <trkpt lat="50.50329" lon="3.44262">
        <ele>18.6</ele>
        <time>2022-04-10T08:02:56.919Z</time>
      </trkpt>
      <trkpt lat="50.50334" lon="3.44252">
        <ele>18.3</ele>
        <time>2022-04-10T08:02:59.019Z</time>
      </trkpt>
      <trkpt lat="50.50336" lon="3.44246">
        <ele>18.3</ele>
        <time>2022-04-10T08:03:01.000Z</time>
      </trkpt>
      <trkpt lat="50.50339" lon="3.44237">
        <ele>18.6</ele>
        <time>2022-04-10T08:03:02.059Z</time>
      </trkpt>
      <trkpt lat="50.50342" lon="3.4423">
        <ele>19</ele>
        <time>2022-04-10T08:03:03.000Z</time>
      </trkpt>
      <trkpt lat="50.50345" lon="3.44223">
        <ele>19.6</ele>
        <time>2022-04-10T08:03:04.033Z</time>
      </trkpt>
      <trkpt lat="50.5035" lon="3.44214">
        <ele>19.8</ele>
        <time>2022-04-10T08:03:06.177Z</time>
      </trkpt>
      <trkpt lat="50.50354" lon="3.44203">
        <ele>19.7</ele>
        <time>2022-04-10T08:03:07.800Z</time>
      </trkpt>
      <trkpt lat="50.50361" lon="3.44191">
        <ele>19.7</ele>
        <time>2022-04-10T08:03:10.000Z</time>
      </trkpt>
      <trkpt lat="50.50363" lon="3.4418">
        <ele>19.1</ele>
        <time>2022-04-10T08:03:12.000Z</time>
      </trkpt>
      <trkpt lat="50.50366" lon="3.44174">
        <ele>18.9</ele>
        <time>2022-04-10T08:03:13.000Z</time>
      </trkpt>
      <trkpt lat="50.50369" lon="3.44167">
        <ele>18.6</ele>
        <time>2022-04-10T08:03:14.000Z</time>
      </trkpt>
      <trkpt lat="50.50374" lon="3.44157">
        <ele>18.4</ele>
        <time>2022-04-10T08:03:16.000Z</time>
      </trkpt>
      <trkpt lat="50.50378" lon="3.44148">
        <ele>18.3</ele>
        <time>2022-04-10T08:03:17.000Z</time>
      </trkpt>
      <trkpt lat="50.50382" lon="3.44138">
        <ele>18.2</ele>
        <time>2022-04-10T08:03:19.000Z</time>
      </trkpt>
      <trkpt lat="50.50386" lon="3.44129">
        <ele>18.3</ele>
        <time>2022-04-10T08:03:20.000Z</time>
      </trkpt>
      <trkpt lat="50.5039" lon="3.44119">
        <ele>18.4</ele>
        <time>2022-04-10T08:03:22.000Z</time>
      </trkpt>
      <trkpt lat="50.50394" lon="3.44111">
        <ele>18.5</ele>
        <time>2022-04-10T08:03:23.000Z</time>
      </trkpt>
      <trkpt lat="50.50396" lon="3.44104">
        <ele>18.2</ele>
        <time>2022-04-10T08:03:24.000Z</time>
      </trkpt>
      <trkpt lat="50.50399" lon="3.44097">
        <ele>17.9</ele>
        <time>2022-04-10T08:03:25.000Z</time>
      </trkpt>
      <trkpt lat="50.50402" lon="3.44092">
        <ele>17.7</ele>
        <time>2022-04-10T08:03:26.000Z</time>
      </trkpt>
      <trkpt lat="50.50407" lon="3.44081">
        <ele>17.2</ele>
        <time>2022-04-10T08:03:28.000Z</time>
      </trkpt>
      <trkpt lat="50.5041" lon="3.44073">
        <ele>17.4</ele>
        <time>2022-04-10T08:03:29.000Z</time>
      </trkpt>
      <trkpt lat="50.50415" lon="3.44063">
        <ele>17.8</ele>
        <time>2022-04-10T08:03:31.000Z</time>
      </trkpt>
      <trkpt lat="50.50418" lon="3.44055">
        <ele>17.8</ele>
        <time>2022-04-10T08:03:32.000Z</time>
      </trkpt>
      <trkpt lat="50.50422" lon="3.44049">
        <ele>17.3</ele>
        <time>2022-04-10T08:03:33.000Z</time>
      </trkpt>
      <trkpt lat="50.50425" lon="3.44043">
        <ele>17</ele>
        <time>2022-04-10T08:03:34.000Z</time>
      </trkpt>
      <trkpt lat="50.50431" lon="3.44034">
        <ele>17</ele>
        <time>2022-04-10T08:03:36.000Z</time>
      </trkpt>
      <trkpt lat="50.50435" lon="3.44026">
        <ele>17.3</ele>
        <time>2022-04-10T08:03:37.000Z</time>
      </trkpt>
      <trkpt lat="50.50441" lon="3.44015">
        <ele>17.7</ele>
        <time>2022-04-10T08:03:39.000Z</time>
      </trkpt>
      <trkpt lat="50.50446" lon="3.44005">
        <ele>18</ele>
        <time>2022-04-10T08:03:41.000Z</time>
      </trkpt>
      <trkpt lat="50.50455" lon="3.43992">
        <ele>18</ele>
        <time>2022-04-10T08:03:43.000Z</time>
      </trkpt>
      <trkpt lat="50.50459" lon="3.4398">
        <ele>17.9</ele>
        <time>2022-04-10T08:03:45.000Z</time>
      </trkpt>
      <trkpt lat="50.50464" lon="3.4397">
        <ele>18</ele>
        <time>2022-04-10T08:03:47.000Z</time>
      </trkpt>
      <trkpt lat="50.5047" lon="3.43962">
        <ele>18.4</ele>
        <time>2022-04-10T08:03:49.000Z</time>
      </trkpt>
      <trkpt lat="50.50474" lon="3.43955">
        <ele>18.5</ele>
        <time>2022-04-10T08:03:51.000Z</time>
      </trkpt>
      <trkpt lat="50.50477" lon="3.43949">
        <ele>18.7</ele>
        <time>2022-04-10T08:03:52.000Z</time>
      </trkpt>
      <trkpt lat="50.50483" lon="3.4394">
        <ele>18.8</ele>
        <time>2022-04-10T08:03:53.000Z</time>
      </trkpt>
      <trkpt lat="50.50487" lon="3.43933">
        <ele>18.8</ele>
        <time>2022-04-10T08:03:54.000Z</time>
      </trkpt>
      <trkpt lat="50.50491" lon="3.43925">
        <ele>18.7</ele>
        <time>2022-04-10T08:03:56.000Z</time>
      </trkpt>
      <trkpt lat="50.50497" lon="3.43915">
        <ele>18.6</ele>
        <time>2022-04-10T08:03:58.000Z</time>
      </trkpt>
      <trkpt lat="50.50503" lon="3.43904">
        <ele>18.9</ele>
        <time>2022-04-10T08:03:59.000Z</time>
      </trkpt>
      <trkpt lat="50.50504" lon="3.43912">
        <ele>19.2</ele>
        <time>2022-04-10T08:04:01.000Z</time>
      </trkpt>
      <trkpt lat="50.5051" lon="3.439">
        <ele>19.7</ele>
        <time>2022-04-10T08:04:02.000Z</time>
      </trkpt>
      <trkpt lat="50.50516" lon="3.43884">
        <ele>19.9</ele>
        <time>2022-04-10T08:04:03.688Z</time>
      </trkpt>
      <trkpt lat="50.50519" lon="3.43874">
        <ele>19.5</ele>
        <time>2022-04-10T08:04:05.130Z</time>
      </trkpt>
      <trkpt lat="50.50521" lon="3.43863">
        <ele>19</ele>
        <time>2022-04-10T08:04:06.923Z</time>
      </trkpt>
      <trkpt lat="50.50521" lon="3.43872">
        <ele>19.6</ele>
        <time>2022-04-10T08:04:08.000Z</time>
      </trkpt>
      <trkpt lat="50.50524" lon="3.43863">
        <ele>19.4</ele>
        <time>2022-04-10T08:04:09.000Z</time>
      </trkpt>
      <trkpt lat="50.50527" lon="3.43847">
        <ele>18.9</ele>
        <time>2022-04-10T08:04:10.000Z</time>
      </trkpt>
      <trkpt lat="50.50529" lon="3.43841">
        <ele>18.7</ele>
        <time>2022-04-10T08:04:11.000Z</time>
      </trkpt>
      <trkpt lat="50.50534" lon="3.4384">
        <ele>19.3</ele>
        <time>2022-04-10T08:04:13.616Z</time>
      </trkpt>
      <trkpt lat="50.5054" lon="3.43819">
        <ele>18.8</ele>
        <time>2022-04-10T08:04:15.000Z</time>
      </trkpt>
      <trkpt lat="50.50543" lon="3.43812">
        <ele>18.7</ele>
        <time>2022-04-10T08:04:16.000Z</time>
      </trkpt>
      <trkpt lat="50.50546" lon="3.43807">
        <ele>18.7</ele>
        <time>2022-04-10T08:04:17.000Z</time>
      </trkpt>
      <trkpt lat="50.50554" lon="3.43795">
        <ele>19.1</ele>
        <time>2022-04-10T08:04:19.000Z</time>
      </trkpt>
      <trkpt lat="50.50559" lon="3.43789">
        <ele>19.1</ele>
        <time>2022-04-10T08:04:20.972Z</time>
      </trkpt>
      <trkpt lat="50.50563" lon="3.43781">
        <ele>19.1</ele>
        <time>2022-04-10T08:04:22.000Z</time>
      </trkpt>
      <trkpt lat="50.50568" lon="3.43775">
        <ele>19</ele>
        <time>2022-04-10T08:04:23.000Z</time>
      </trkpt>
      <trkpt lat="50.50572" lon="3.43768">
        <ele>18.8</ele>
        <time>2022-04-10T08:04:25.000Z</time>
      </trkpt>
      <trkpt lat="50.50577" lon="3.43761">
        <ele>18.5</ele>
        <time>2022-04-10T08:04:26.000Z</time>
      </trkpt>
      <trkpt lat="50.50582" lon="3.43753">
        <ele>18.2</ele>
        <time>2022-04-10T08:04:28.000Z</time>
      </trkpt>
      <trkpt lat="50.50586" lon="3.43746">
        <ele>18.2</ele>
        <time>2022-04-10T08:04:29.000Z</time>
      </trkpt>
      <trkpt lat="50.5059" lon="3.4374">
        <ele>18.3</ele>
        <time>2022-04-10T08:04:30.000Z</time>
      </trkpt>
      <trkpt lat="50.50596" lon="3.4373">
        <ele>18.4</ele>
        <time>2022-04-10T08:04:32.000Z</time>
      </trkpt>
      <trkpt lat="50.50602" lon="3.43723">
        <ele>18.4</ele>
        <time>2022-04-10T08:04:33.071Z</time>
      </trkpt>
      <trkpt lat="50.5061" lon="3.4371">
        <ele>18.5</ele>
        <time>2022-04-10T08:04:36.000Z</time>
      </trkpt>
      <trkpt lat="50.50615" lon="3.43701">
        <ele>18.4</ele>
        <time>2022-04-10T08:04:38.087Z</time>
      </trkpt>
      <trkpt lat="50.5062" lon="3.43695">
        <ele>18.3</ele>
        <time>2022-04-10T08:04:39.000Z</time>
      </trkpt>
      <trkpt lat="50.50624" lon="3.43684">
        <ele>17.9</ele>
        <time>2022-04-10T08:04:41.000Z</time>
      </trkpt>
      <trkpt lat="50.5063" lon="3.43676">
        <ele>17.8</ele>
        <time>2022-04-10T08:04:42.029Z</time>
      </trkpt>
      <trkpt lat="50.50634" lon="3.4367">
        <ele>17.8</ele>
        <time>2022-04-10T08:04:44.000Z</time>
      </trkpt>
      <trkpt lat="50.50632" lon="3.4366">
        <ele>17.3</ele>
        <time>2022-04-10T08:04:46.015Z</time>
      </trkpt>
      <trkpt lat="50.50638" lon="3.43656">
        <ele>17.6</ele>
        <time>2022-04-10T08:04:47.292Z</time>
      </trkpt>
      <trkpt lat="50.50646" lon="3.43648">
        <ele>17.8</ele>
        <time>2022-04-10T08:04:48.492Z</time>
      </trkpt>
      <trkpt lat="50.50651" lon="3.43643">
        <ele>17.7</ele>
        <time>2022-04-10T08:04:49.893Z</time>
      </trkpt>
      <trkpt lat="50.50656" lon="3.43635">
        <ele>17.5</ele>
        <time>2022-04-10T08:04:50.834Z</time>
      </trkpt>
      <trkpt lat="50.50659" lon="3.43629">
        <ele>17.5</ele>
        <time>2022-04-10T08:04:52.000Z</time>
      </trkpt>
      <trkpt lat="50.50667" lon="3.43619">
        <ele>18.1</ele>
        <time>2022-04-10T08:04:54.045Z</time>
      </trkpt>
      <trkpt lat="50.50672" lon="3.43611">
        <ele>18.4</ele>
        <time>2022-04-10T08:04:56.000Z</time>
      </trkpt>
      <trkpt lat="50.50676" lon="3.43605">
        <ele>18.2</ele>
        <time>2022-04-10T08:04:57.000Z</time>
      </trkpt>
      <trkpt lat="50.5068" lon="3.43598">
        <ele>18.2</ele>
        <time>2022-04-10T08:04:58.000Z</time>
      </trkpt>
      <trkpt lat="50.50688" lon="3.4359">
        <ele>18.6</ele>
        <time>2022-04-10T08:05:00.822Z</time>
      </trkpt>
      <trkpt lat="50.5069" lon="3.43584">
        <ele>18.6</ele>
        <time>2022-04-10T08:05:02.065Z</time>
      </trkpt>
      <trkpt lat="50.50698" lon="3.43569">
        <ele>18.1</ele>
        <time>2022-04-10T08:05:04.123Z</time>
      </trkpt>
      <trkpt lat="50.50704" lon="3.43559">
        <ele>17.6</ele>
        <time>2022-04-10T08:05:05.664Z</time>
      </trkpt>
      <trkpt lat="50.50707" lon="3.43554">
        <ele>17.4</ele>
        <time>2022-04-10T08:05:06.965Z</time>
      </trkpt>
      <trkpt lat="50.50711" lon="3.43548">
        <ele>17.4</ele>
        <time>2022-04-10T08:05:08.000Z</time>
      </trkpt>
      <trkpt lat="50.50716" lon="3.43539">
        <ele>17.5</ele>
        <time>2022-04-10T08:05:09.761Z</time>
      </trkpt>
      <trkpt lat="50.50722" lon="3.43531">
        <ele>17.9</ele>
        <time>2022-04-10T08:05:11.904Z</time>
      </trkpt>
      <trkpt lat="50.50726" lon="3.43525">
        <ele>17.9</ele>
        <time>2022-04-10T08:05:12.924Z</time>
      </trkpt>
      <trkpt lat="50.50732" lon="3.43517">
        <ele>17.7</ele>
        <time>2022-04-10T08:05:14.961Z</time>
      </trkpt>
      <trkpt lat="50.50736" lon="3.4351">
        <ele>17.5</ele>
        <time>2022-04-10T08:05:16.160Z</time>
      </trkpt>
      <trkpt lat="50.50743" lon="3.43498">
        <ele>17.5</ele>
        <time>2022-04-10T08:05:18.763Z</time>
      </trkpt>
      <trkpt lat="50.50747" lon="3.43493">
        <ele>17.5</ele>
        <time>2022-04-10T08:05:21.000Z</time>
      </trkpt>
      <trkpt lat="50.50751" lon="3.43485">
        <ele>17.6</ele>
        <time>2022-04-10T08:05:22.004Z</time>
      </trkpt>
      <trkpt lat="50.50758" lon="3.43475">
        <ele>17.9</ele>
        <time>2022-04-10T08:05:24.123Z</time>
      </trkpt>
      <trkpt lat="50.50764" lon="3.43463">
        <ele>17.9</ele>
        <time>2022-04-10T08:05:26.827Z</time>
      </trkpt>
      <trkpt lat="50.50772" lon="3.43452">
        <ele>17.9</ele>
        <time>2022-04-10T08:05:28.842Z</time>
      </trkpt>
      <trkpt lat="50.50777" lon="3.43445">
        <ele>18</ele>
        <time>2022-04-10T08:05:30.188Z</time>
      </trkpt>
      <trkpt lat="50.50785" lon="3.43432">
        <ele>17.6</ele>
        <time>2022-04-10T08:05:33.000Z</time>
      </trkpt>
      <trkpt lat="50.5079" lon="3.43431">
        <ele>17.9</ele>
        <time>2022-04-10T08:05:34.966Z</time>
      </trkpt>
      <trkpt lat="50.50792" lon="3.43424">
        <ele>17.6</ele>
        <time>2022-04-10T08:05:36.000Z</time>
      </trkpt>
      <trkpt lat="50.50798" lon="3.43417">
        <ele>17.5</ele>
        <time>2022-04-10T08:05:38.000Z</time>
      </trkpt>
      <trkpt lat="50.50804" lon="3.4342">
        <ele>18.1</ele>
        <time>2022-04-10T08:05:39.194Z</time>
      </trkpt>
      <trkpt lat="50.50806" lon="3.43408">
        <ele>18</ele>
        <time>2022-04-10T08:05:40.274Z</time>
      </trkpt>
      <trkpt lat="50.50811" lon="3.43396">
        <ele>18.4</ele>
        <time>2022-04-10T08:05:41.455Z</time>
      </trkpt>
      <trkpt lat="50.50815" lon="3.43387">
        <ele>18.5</ele>
        <time>2022-04-10T08:05:42.793Z</time>
      </trkpt>
      <trkpt lat="50.50819" lon="3.43378">
        <ele>18</ele>
        <time>2022-04-10T08:05:45.000Z</time>
      </trkpt>
      <trkpt lat="50.50824" lon="3.4337">
        <ele>17.7</ele>
        <time>2022-04-10T08:05:46.154Z</time>
      </trkpt>
      <trkpt lat="50.50829" lon="3.43359">
        <ele>17.5</ele>
        <time>2022-04-10T08:05:47.990Z</time>
      </trkpt>
      <trkpt lat="50.50838" lon="3.43347">
        <ele>17.8</ele>
        <time>2022-04-10T08:05:51.000Z</time>
      </trkpt>
      <trkpt lat="50.5084" lon="3.43337">
        <ele>17.6</ele>
        <time>2022-04-10T08:05:54.000Z</time>
      </trkpt>
      <trkpt lat="50.50845" lon="3.43334">
        <ele>17.8</ele>
        <time>2022-04-10T08:05:59.000Z</time>
      </trkpt>
      <trkpt lat="50.50851" lon="3.43331">
        <ele>18.2</ele>
        <time>2022-04-10T08:06:01.000Z</time>
      </trkpt>
      <trkpt lat="50.50857" lon="3.43317">
        <ele>18.1</ele>
        <time>2022-04-10T08:06:04.000Z</time>
      </trkpt>
      <trkpt lat="50.50864" lon="3.43307">
        <ele>18.2</ele>
        <time>2022-04-10T08:06:06.000Z</time>
      </trkpt>
      <trkpt lat="50.50871" lon="3.43297">
        <ele>17.8</ele>
        <time>2022-04-10T08:06:08.000Z</time>
      </trkpt>
      <trkpt lat="50.50875" lon="3.4329">
        <ele>17.6</ele>
        <time>2022-04-10T08:06:09.013Z</time>
      </trkpt>
      <trkpt lat="50.5088" lon="3.43283">
        <ele>17.6</ele>
        <time>2022-04-10T08:06:10.812Z</time>
      </trkpt>
      <trkpt lat="50.50883" lon="3.43278">
        <ele>17.6</ele>
        <time>2022-04-10T08:06:11.736Z</time>
      </trkpt>
      <trkpt lat="50.50888" lon="3.43271">
        <ele>17.7</ele>
        <time>2022-04-10T08:06:14.000Z</time>
      </trkpt>
      <trkpt lat="50.50892" lon="3.43265">
        <ele>17.8</ele>
        <time>2022-04-10T08:06:15.000Z</time>
      </trkpt>
      <trkpt lat="50.50897" lon="3.43256">
        <ele>17.8</ele>
        <time>2022-04-10T08:06:17.000Z</time>
      </trkpt>
      <trkpt lat="50.50902" lon="3.43249">
        <ele>17.8</ele>
        <time>2022-04-10T08:06:18.000Z</time>
      </trkpt>
      <trkpt lat="50.50909" lon="3.43237">
        <ele>17.9</ele>
        <time>2022-04-10T08:06:20.000Z</time>
      </trkpt>
      <trkpt lat="50.50914" lon="3.43231">
        <ele>18.1</ele>
        <time>2022-04-10T08:06:22.000Z</time>
      </trkpt>
      <trkpt lat="50.50917" lon="3.43225">
        <ele>18.1</ele>
        <time>2022-04-10T08:06:23.000Z</time>
      </trkpt>
      <trkpt lat="50.50925" lon="3.43211">
        <ele>17.9</ele>
        <time>2022-04-10T08:06:25.000Z</time>
      </trkpt>
      <trkpt lat="50.50929" lon="3.43205">
        <ele>17.9</ele>
        <time>2022-04-10T08:06:27.000Z</time>
      </trkpt>
      <trkpt lat="50.50933" lon="3.43199">
        <ele>18</ele>
        <time>2022-04-10T08:06:28.000Z</time>
      </trkpt>
      <trkpt lat="50.50938" lon="3.4319">
        <ele>18.1</ele>
        <time>2022-04-10T08:06:30.000Z</time>
      </trkpt>
      <trkpt lat="50.50942" lon="3.43183">
        <ele>18.4</ele>
        <time>2022-04-10T08:06:31.000Z</time>
      </trkpt>
      <trkpt lat="50.50948" lon="3.43175">
        <ele>18.5</ele>
        <time>2022-04-10T08:06:33.000Z</time>
      </trkpt>
      <trkpt lat="50.50953" lon="3.43168">
        <ele>18.6</ele>
        <time>2022-04-10T08:06:34.000Z</time>
      </trkpt>
      <trkpt lat="50.50958" lon="3.4316">
        <ele>18.4</ele>
        <time>2022-04-10T08:06:36.000Z</time>
      </trkpt>
      <trkpt lat="50.50962" lon="3.43153">
        <ele>18.1</ele>
        <time>2022-04-10T08:06:37.000Z</time>
      </trkpt>
      <trkpt lat="50.50971" lon="3.4314">
        <ele>17.9</ele>
        <time>2022-04-10T08:06:40.000Z</time>
      </trkpt>
      <trkpt lat="50.50975" lon="3.43133">
        <ele>17.8</ele>
        <time>2022-04-10T08:06:41.000Z</time>
      </trkpt>
      <trkpt lat="50.5098" lon="3.43125">
        <ele>17.7</ele>
        <time>2022-04-10T08:06:42.402Z</time>
      </trkpt>
      <trkpt lat="50.50985" lon="3.43118">
        <ele>17.8</ele>
        <time>2022-04-10T08:06:44.000Z</time>
      </trkpt>
      <trkpt lat="50.50989" lon="3.43112">
        <ele>17.9</ele>
        <time>2022-04-10T08:06:45.000Z</time>
      </trkpt>
      <trkpt lat="50.50994" lon="3.43105">
        <ele>18.1</ele>
        <time>2022-04-10T08:06:47.083Z</time>
      </trkpt>
      <trkpt lat="50.50997" lon="3.43097">
        <ele>18.2</ele>
        <time>2022-04-10T08:06:48.382Z</time>
      </trkpt>
      <trkpt lat="50.51001" lon="3.4309">
        <ele>18.3</ele>
        <time>2022-04-10T08:06:50.000Z</time>
      </trkpt>
      <trkpt lat="50.51005" lon="3.43083">
        <ele>18.1</ele>
        <time>2022-04-10T08:06:51.000Z</time>
      </trkpt>
      <trkpt lat="50.5101" lon="3.43074">
        <ele>17.6</ele>
        <time>2022-04-10T08:06:53.000Z</time>
      </trkpt>
      <trkpt lat="50.51015" lon="3.43067">
        <ele>17.4</ele>
        <time>2022-04-10T08:06:54.000Z</time>
      </trkpt>
      <trkpt lat="50.51021" lon="3.43061">
        <ele>17.5</ele>
        <time>2022-04-10T08:06:56.000Z</time>
      </trkpt>
      <trkpt lat="50.5103" lon="3.43058">
        <ele>18.2</ele>
        <time>2022-04-10T08:06:58.000Z</time>
      </trkpt>
      <trkpt lat="50.51038" lon="3.43038">
        <ele>17.6</ele>
        <time>2022-04-10T08:07:01.117Z</time>
      </trkpt>
      <trkpt lat="50.51042" lon="3.43029">
        <ele>17.6</ele>
        <time>2022-04-10T08:07:03.000Z</time>
      </trkpt>
      <trkpt lat="50.51046" lon="3.43022">
        <ele>17.8</ele>
        <time>2022-04-10T08:07:04.000Z</time>
      </trkpt>
      <trkpt lat="50.5105" lon="3.43015">
        <ele>18</ele>
        <time>2022-04-10T08:07:06.000Z</time>
      </trkpt>
      <trkpt lat="50.51054" lon="3.43007">
        <ele>18.1</ele>
        <time>2022-04-10T08:07:07.000Z</time>
      </trkpt>
      <trkpt lat="50.51058" lon="3.43002">
        <ele>18.2</ele>
        <time>2022-04-10T08:07:08.158Z</time>
      </trkpt>
      <trkpt lat="50.51062" lon="3.42995">
        <ele>18</ele>
        <time>2022-04-10T08:07:09.894Z</time>
      </trkpt>
      <trkpt lat="50.51066" lon="3.42988">
        <ele>17.8</ele>
        <time>2022-04-10T08:07:10.936Z</time>
      </trkpt>
      <trkpt lat="50.5107" lon="3.42982">
        <ele>17.8</ele>
        <time>2022-04-10T08:07:12.000Z</time>
      </trkpt>
      <trkpt lat="50.51077" lon="3.42976">
        <ele>18.2</ele>
        <time>2022-04-10T08:07:14.000Z</time>
      </trkpt>
      <trkpt lat="50.5108" lon="3.42969">
        <ele>18.3</ele>
        <time>2022-04-10T08:07:15.000Z</time>
      </trkpt>
      <trkpt lat="50.51086" lon="3.4296">
        <ele>18.3</ele>
        <time>2022-04-10T08:07:17.000Z</time>
      </trkpt>
      <trkpt lat="50.51092" lon="3.42953">
        <ele>18.3</ele>
        <time>2022-04-10T08:07:19.112Z</time>
      </trkpt>
      <trkpt lat="50.51096" lon="3.42947">
        <ele>18.4</ele>
        <time>2022-04-10T08:07:20.074Z</time>
      </trkpt>
      <trkpt lat="50.511" lon="3.4294">
        <ele>18.5</ele>
        <time>2022-04-10T08:07:21.955Z</time>
      </trkpt>
      <trkpt lat="50.51104" lon="3.42932">
        <ele>18.3</ele>
        <time>2022-04-10T08:07:23.000Z</time>
      </trkpt>
      <trkpt lat="50.5111" lon="3.42921">
        <ele>18.1</ele>
        <time>2022-04-10T08:07:24.937Z</time>
      </trkpt>
      <trkpt lat="50.51114" lon="3.42915">
        <ele>18.1</ele>
        <time>2022-04-10T08:07:27.000Z</time>
      </trkpt>
      <trkpt lat="50.51121" lon="3.42907">
        <ele>18.1</ele>
        <time>2022-04-10T08:07:28.876Z</time>
      </trkpt>
      <trkpt lat="50.51129" lon="3.42899">
        <ele>18.4</ele>
        <time>2022-04-10T08:07:31.173Z</time>
      </trkpt>
      <trkpt lat="50.51136" lon="3.42888">
        <ele>18.6</ele>
        <time>2022-04-10T08:07:33.133Z</time>
      </trkpt>
      <trkpt lat="50.51141" lon="3.42879">
        <ele>18.4</ele>
        <time>2022-04-10T08:07:35.076Z</time>
      </trkpt>
      <trkpt lat="50.51145" lon="3.42871">
        <ele>18.2</ele>
        <time>2022-04-10T08:07:36.036Z</time>
      </trkpt>
      <trkpt lat="50.51147" lon="3.42864">
        <ele>18.1</ele>
        <time>2022-04-10T08:07:37.138Z</time>
      </trkpt>
      <trkpt lat="50.51153" lon="3.42855">
        <ele>18</ele>
        <time>2022-04-10T08:07:39.175Z</time>
      </trkpt>
      <trkpt lat="50.51158" lon="3.42847">
        <ele>18</ele>
        <time>2022-04-10T08:07:41.000Z</time>
      </trkpt>
      <trkpt lat="50.51162" lon="3.4284">
        <ele>18</ele>
        <time>2022-04-10T08:07:43.000Z</time>
      </trkpt>
      <trkpt lat="50.51167" lon="3.42833">
        <ele>18</ele>
        <time>2022-04-10T08:07:43.994Z</time>
      </trkpt>
      <trkpt lat="50.51171" lon="3.42828">
        <ele>17.8</ele>
        <time>2022-04-10T08:07:45.000Z</time>
      </trkpt>
      <trkpt lat="50.51174" lon="3.42822">
        <ele>17.6</ele>
        <time>2022-04-10T08:07:46.361Z</time>
      </trkpt>
      <trkpt lat="50.51178" lon="3.42815">
        <ele>17.6</ele>
        <time>2022-04-10T08:07:48.000Z</time>
      </trkpt>
      <trkpt lat="50.51183" lon="3.42808">
        <ele>17.8</ele>
        <time>2022-04-10T08:07:50.000Z</time>
      </trkpt>
      <trkpt lat="50.51187" lon="3.42801">
        <ele>18</ele>
        <time>2022-04-10T08:07:51.000Z</time>
      </trkpt>
      <trkpt lat="50.5119" lon="3.42795">
        <ele>18.1</ele>
        <time>2022-04-10T08:07:52.000Z</time>
      </trkpt>
      <trkpt lat="50.51193" lon="3.4279">
        <ele>18.3</ele>
        <time>2022-04-10T08:07:53.000Z</time>
      </trkpt>
      <trkpt lat="50.51198" lon="3.42783">
        <ele>18.2</ele>
        <time>2022-04-10T08:07:55.000Z</time>
      </trkpt>
      <trkpt lat="50.51203" lon="3.42775">
        <ele>18</ele>
        <time>2022-04-10T08:07:57.000Z</time>
      </trkpt>
      <trkpt lat="50.51207" lon="3.42769">
        <ele>17.7</ele>
        <time>2022-04-10T08:07:58.000Z</time>
      </trkpt>
      <trkpt lat="50.51213" lon="3.42758">
        <ele>17.5</ele>
        <time>2022-04-10T08:08:00.000Z</time>
      </trkpt>
      <trkpt lat="50.51217" lon="3.42752">
        <ele>17.5</ele>
        <time>2022-04-10T08:08:02.000Z</time>
      </trkpt>
      <trkpt lat="50.51221" lon="3.42746">
        <ele>17.7</ele>
        <time>2022-04-10T08:08:03.000Z</time>
      </trkpt>
      <trkpt lat="50.51227" lon="3.42736">
        <ele>17.6</ele>
        <time>2022-04-10T08:08:05.000Z</time>
      </trkpt>
      <trkpt lat="50.51232" lon="3.4273">
        <ele>17.7</ele>
        <time>2022-04-10T08:08:07.000Z</time>
      </trkpt>
      <trkpt lat="50.51237" lon="3.42722">
        <ele>18.1</ele>
        <time>2022-04-10T08:08:09.000Z</time>
      </trkpt>
      <trkpt lat="50.51244" lon="3.4271">
        <ele>18.1</ele>
        <time>2022-04-10T08:08:11.000Z</time>
      </trkpt>
      <trkpt lat="50.5125" lon="3.42701">
        <ele>18.2</ele>
        <time>2022-04-10T08:08:13.000Z</time>
      </trkpt>
      <trkpt lat="50.51257" lon="3.42689">
        <ele>17.8</ele>
        <time>2022-04-10T08:08:15.000Z</time>
      </trkpt>
      <trkpt lat="50.51262" lon="3.42682">
        <ele>17.5</ele>
        <time>2022-04-10T08:08:17.000Z</time>
      </trkpt>
      <trkpt lat="50.51266" lon="3.42676">
        <ele>17.3</ele>
        <time>2022-04-10T08:08:18.000Z</time>
      </trkpt>
      <trkpt lat="50.51271" lon="3.42668">
        <ele>17.3</ele>
        <time>2022-04-10T08:08:20.000Z</time>
      </trkpt>
      <trkpt lat="50.51275" lon="3.42663">
        <ele>17.4</ele>
        <time>2022-04-10T08:08:21.000Z</time>
      </trkpt>
      <trkpt lat="50.51278" lon="3.42658">
        <ele>17.4</ele>
        <time>2022-04-10T08:08:22.000Z</time>
      </trkpt>
      <trkpt lat="50.51282" lon="3.42653">
        <ele>17.3</ele>
        <time>2022-04-10T08:08:23.000Z</time>
      </trkpt>
      <trkpt lat="50.5129" lon="3.42643">
        <ele>17.5</ele>
        <time>2022-04-10T08:08:25.000Z</time>
      </trkpt>
      <trkpt lat="50.51296" lon="3.42635">
        <ele>17.7</ele>
        <time>2022-04-10T08:08:27.000Z</time>
      </trkpt>
      <trkpt lat="50.51302" lon="3.42626">
        <ele>17.7</ele>
        <time>2022-04-10T08:08:29.000Z</time>
      </trkpt>
      <trkpt lat="50.51309" lon="3.42617">
        <ele>17.6</ele>
        <time>2022-04-10T08:08:31.000Z</time>
      </trkpt>
      <trkpt lat="50.51313" lon="3.42613">
        <ele>17.6</ele>
        <time>2022-04-10T08:08:32.000Z</time>
      </trkpt>
      <trkpt lat="50.51316" lon="3.42609">
        <ele>17.6</ele>
        <time>2022-04-10T08:08:33.000Z</time>
      </trkpt>
      <trkpt lat="50.51322" lon="3.42602">
        <ele>17.7</ele>
        <time>2022-04-10T08:08:34.000Z</time>
      </trkpt>
      <trkpt lat="50.51327" lon="3.42594">
        <ele>17.8</ele>
        <time>2022-04-10T08:08:36.000Z</time>
      </trkpt>
      <trkpt lat="50.51334" lon="3.42585">
        <ele>18.1</ele>
        <time>2022-04-10T08:08:38.000Z</time>
      </trkpt>
      <trkpt lat="50.51338" lon="3.4258">
        <ele>18</ele>
        <time>2022-04-10T08:08:39.000Z</time>
      </trkpt>
      <trkpt lat="50.51342" lon="3.42576">
        <ele>17.9</ele>
        <time>2022-04-10T08:08:40.000Z</time>
      </trkpt>
      <trkpt lat="50.51349" lon="3.42568">
        <ele>17.8</ele>
        <time>2022-04-10T08:08:42.000Z</time>
      </trkpt>
      <trkpt lat="50.51353" lon="3.42563">
        <ele>17.7</ele>
        <time>2022-04-10T08:08:43.000Z</time>
      </trkpt>
      <trkpt lat="50.51357" lon="3.42558">
        <ele>17.8</ele>
        <time>2022-04-10T08:08:44.000Z</time>
      </trkpt>
      <trkpt lat="50.51361" lon="3.42553">
        <ele>17.8</ele>
        <time>2022-04-10T08:08:45.000Z</time>
      </trkpt>
      <trkpt lat="50.51365" lon="3.42549">
        <ele>17.6</ele>
        <time>2022-04-10T08:08:46.000Z</time>
      </trkpt>
      <trkpt lat="50.51369" lon="3.42545">
        <ele>17.5</ele>
        <time>2022-04-10T08:08:47.000Z</time>
      </trkpt>
      <trkpt lat="50.51373" lon="3.42541">
        <ele>17.4</ele>
        <time>2022-04-10T08:08:48.000Z</time>
      </trkpt>
      <trkpt lat="50.5138" lon="3.42532">
        <ele>17.4</ele>
        <time>2022-04-10T08:08:50.000Z</time>
      </trkpt>
      <trkpt lat="50.51384" lon="3.42528">
        <ele>17.5</ele>
        <time>2022-04-10T08:08:51.000Z</time>
      </trkpt>
      <trkpt lat="50.51388" lon="3.42524">
        <ele>17.7</ele>
        <time>2022-04-10T08:08:52.000Z</time>
      </trkpt>
      <trkpt lat="50.51392" lon="3.4252">
        <ele>17.7</ele>
        <time>2022-04-10T08:08:53.000Z</time>
      </trkpt>
      <trkpt lat="50.51396" lon="3.42516">
        <ele>17.7</ele>
        <time>2022-04-10T08:08:54.000Z</time>
      </trkpt>
      <trkpt lat="50.51404" lon="3.42508">
        <ele>17.6</ele>
        <time>2022-04-10T08:08:56.000Z</time>
      </trkpt>
      <trkpt lat="50.51408" lon="3.42503">
        <ele>17.6</ele>
        <time>2022-04-10T08:08:57.000Z</time>
      </trkpt>
      <trkpt lat="50.51412" lon="3.42498">
        <ele>17.5</ele>
        <time>2022-04-10T08:08:58.000Z</time>
      </trkpt>
      <trkpt lat="50.51416" lon="3.42494">
        <ele>17.4</ele>
        <time>2022-04-10T08:08:59.000Z</time>
      </trkpt>
      <trkpt lat="50.5142" lon="3.42491">
        <ele>17.3</ele>
        <time>2022-04-10T08:09:00.000Z</time>
      </trkpt>
      <trkpt lat="50.51425" lon="3.42487">
        <ele>17.4</ele>
        <time>2022-04-10T08:09:01.000Z</time>
      </trkpt>
      <trkpt lat="50.51429" lon="3.42483">
        <ele>17.6</ele>
        <time>2022-04-10T08:09:02.000Z</time>
      </trkpt>
      <trkpt lat="50.51433" lon="3.42479">
        <ele>17.8</ele>
        <time>2022-04-10T08:09:03.000Z</time>
      </trkpt>
      <trkpt lat="50.51437" lon="3.42475">
        <ele>18.1</ele>
        <time>2022-04-10T08:09:04.000Z</time>
      </trkpt>
      <trkpt lat="50.51441" lon="3.42471">
        <ele>18.4</ele>
        <time>2022-04-10T08:09:05.000Z</time>
      </trkpt>
      <trkpt lat="50.51448" lon="3.42464">
        <ele>18.1</ele>
        <time>2022-04-10T08:09:07.043Z</time>
      </trkpt>
      <trkpt lat="50.51454" lon="3.4246">
        <ele>17.9</ele>
        <time>2022-04-10T08:09:08.000Z</time>
      </trkpt>
      <trkpt lat="50.51459" lon="3.42456">
        <ele>17.8</ele>
        <time>2022-04-10T08:09:09.000Z</time>
      </trkpt>
      <trkpt lat="50.51463" lon="3.42453">
        <ele>17.8</ele>
        <time>2022-04-10T08:09:10.000Z</time>
      </trkpt>
      <trkpt lat="50.51472" lon="3.42445">
        <ele>18</ele>
        <time>2022-04-10T08:09:12.000Z</time>
      </trkpt>
      <trkpt lat="50.51476" lon="3.42442">
        <ele>17.6</ele>
        <time>2022-04-10T08:09:13.000Z</time>
      </trkpt>
      <trkpt lat="50.5148" lon="3.42438">
        <ele>17.3</ele>
        <time>2022-04-10T08:09:14.000Z</time>
      </trkpt>
      <trkpt lat="50.51484" lon="3.42435">
        <ele>17.1</ele>
        <time>2022-04-10T08:09:15.000Z</time>
      </trkpt>
      <trkpt lat="50.51488" lon="3.42432">
        <ele>17.1</ele>
        <time>2022-04-10T08:09:16.000Z</time>
      </trkpt>
      <trkpt lat="50.51497" lon="3.42425">
        <ele>17.5</ele>
        <time>2022-04-10T08:09:18.000Z</time>
      </trkpt>
      <trkpt lat="50.51502" lon="3.42422">
        <ele>17.8</ele>
        <time>2022-04-10T08:09:19.000Z</time>
      </trkpt>
      <trkpt lat="50.51506" lon="3.42418">
        <ele>17.9</ele>
        <time>2022-04-10T08:09:20.000Z</time>
      </trkpt>
      <trkpt lat="50.5151" lon="3.42415">
        <ele>17.8</ele>
        <time>2022-04-10T08:09:21.000Z</time>
      </trkpt>
      <trkpt lat="50.51519" lon="3.42408">
        <ele>17.5</ele>
        <time>2022-04-10T08:09:23.000Z</time>
      </trkpt>
      <trkpt lat="50.51526" lon="3.42404">
        <ele>17.5</ele>
        <time>2022-04-10T08:09:25.000Z</time>
      </trkpt>
      <trkpt lat="50.51533" lon="3.42399">
        <ele>17.4</ele>
        <time>2022-04-10T08:09:27.000Z</time>
      </trkpt>
      <trkpt lat="50.51541" lon="3.42393">
        <ele>17.5</ele>
        <time>2022-04-10T08:09:29.000Z</time>
      </trkpt>
      <trkpt lat="50.51547" lon="3.42387">
        <ele>17.6</ele>
        <time>2022-04-10T08:09:31.000Z</time>
      </trkpt>
      <trkpt lat="50.51554" lon="3.42377">
        <ele>17.5</ele>
        <time>2022-04-10T08:09:33.308Z</time>
      </trkpt>
      <trkpt lat="50.51556" lon="3.42371">
        <ele>17.4</ele>
        <time>2022-04-10T08:09:34.456Z</time>
      </trkpt>
      <trkpt lat="50.51561" lon="3.42362">
        <ele>17.7</ele>
        <time>2022-04-10T08:09:36.000Z</time>
      </trkpt>
      <trkpt lat="50.51566" lon="3.42352">
        <ele>17.9</ele>
        <time>2022-04-10T08:09:38.000Z</time>
      </trkpt>
      <trkpt lat="50.51569" lon="3.42347">
        <ele>17.9</ele>
        <time>2022-04-10T08:09:39.039Z</time>
      </trkpt>
      <trkpt lat="50.51572" lon="3.42341">
        <ele>17.9</ele>
        <time>2022-04-10T08:09:40.000Z</time>
      </trkpt>
      <trkpt lat="50.51575" lon="3.42334">
        <ele>17.8</ele>
        <time>2022-04-10T08:09:41.000Z</time>
      </trkpt>
      <trkpt lat="50.51578" lon="3.42329">
        <ele>18.2</ele>
        <time>2022-04-10T08:09:42.000Z</time>
      </trkpt>
      <trkpt lat="50.51583" lon="3.42325">
        <ele>18.6</ele>
        <time>2022-04-10T08:09:43.000Z</time>
      </trkpt>
      <trkpt lat="50.51587" lon="3.42322">
        <ele>18.6</ele>
        <time>2022-04-10T08:09:44.000Z</time>
      </trkpt>
      <trkpt lat="50.51592" lon="3.42318">
        <ele>18.4</ele>
        <time>2022-04-10T08:09:45.000Z</time>
      </trkpt>
      <trkpt lat="50.51596" lon="3.42315">
        <ele>18.2</ele>
        <time>2022-04-10T08:09:46.000Z</time>
      </trkpt>
      <trkpt lat="50.51605" lon="3.4231">
        <ele>17.7</ele>
        <time>2022-04-10T08:09:48.000Z</time>
      </trkpt>
      <trkpt lat="50.51611" lon="3.42308">
        <ele>17.3</ele>
        <time>2022-04-10T08:09:49.000Z</time>
      </trkpt>
      <trkpt lat="50.51615" lon="3.42306">
        <ele>17.1</ele>
        <time>2022-04-10T08:09:50.000Z</time>
      </trkpt>
      <trkpt lat="50.51626" lon="3.42306">
        <ele>17</ele>
        <time>2022-04-10T08:09:52.000Z</time>
      </trkpt>
      <trkpt lat="50.5163" lon="3.42305">
        <ele>17</ele>
        <time>2022-04-10T08:09:53.000Z</time>
      </trkpt>
      <trkpt lat="50.51636" lon="3.42305">
        <ele>17</ele>
        <time>2022-04-10T08:09:54.000Z</time>
      </trkpt>
      <trkpt lat="50.51641" lon="3.42305">
        <ele>17</ele>
        <time>2022-04-10T08:09:55.000Z</time>
      </trkpt>
      <trkpt lat="50.51645" lon="3.42305">
        <ele>17.2</ele>
        <time>2022-04-10T08:09:56.000Z</time>
      </trkpt>
      <trkpt lat="50.5165" lon="3.42305">
        <ele>17.4</ele>
        <time>2022-04-10T08:09:57.000Z</time>
      </trkpt>
      <trkpt lat="50.51655" lon="3.42304">
        <ele>17.5</ele>
        <time>2022-04-10T08:09:58.000Z</time>
      </trkpt>
      <trkpt lat="50.5166" lon="3.42304">
        <ele>17.6</ele>
        <time>2022-04-10T08:09:59.000Z</time>
      </trkpt>
      <trkpt lat="50.51665" lon="3.42302">
        <ele>17.6</ele>
        <time>2022-04-10T08:10:00.000Z</time>
      </trkpt>
      <trkpt lat="50.5167" lon="3.42299">
        <ele>17.4</ele>
        <time>2022-04-10T08:10:01.000Z</time>
      </trkpt>
      <trkpt lat="50.51679" lon="3.42295">
        <ele>17.3</ele>
        <time>2022-04-10T08:10:03.000Z</time>
      </trkpt>
      <trkpt lat="50.51684" lon="3.42292">
        <ele>17.4</ele>
        <time>2022-04-10T08:10:04.000Z</time>
      </trkpt>
      <trkpt lat="50.51688" lon="3.4229">
        <ele>17.6</ele>
        <time>2022-04-10T08:10:05.000Z</time>
      </trkpt>
      <trkpt lat="50.51693" lon="3.42287">
        <ele>17.9</ele>
        <time>2022-04-10T08:10:06.000Z</time>
      </trkpt>
      <trkpt lat="50.51698" lon="3.42285">
        <ele>18</ele>
        <time>2022-04-10T08:10:07.000Z</time>
      </trkpt>
      <trkpt lat="50.51702" lon="3.42284">
        <ele>18</ele>
        <time>2022-04-10T08:10:08.000Z</time>
      </trkpt>
      <trkpt lat="50.51708" lon="3.42282">
        <ele>18</ele>
        <time>2022-04-10T08:10:09.000Z</time>
      </trkpt>
      <trkpt lat="50.51713" lon="3.42281">
        <ele>18</ele>
        <time>2022-04-10T08:10:10.000Z</time>
      </trkpt>
      <trkpt lat="50.51717" lon="3.42279">
        <ele>18</ele>
        <time>2022-04-10T08:10:11.000Z</time>
      </trkpt>
      <trkpt lat="50.51727" lon="3.42276">
        <ele>17.9</ele>
        <time>2022-04-10T08:10:13.000Z</time>
      </trkpt>
      <trkpt lat="50.51732" lon="3.42274">
        <ele>17.9</ele>
        <time>2022-04-10T08:10:14.000Z</time>
      </trkpt>
      <trkpt lat="50.51741" lon="3.4227">
        <ele>17.7</ele>
        <time>2022-04-10T08:10:16.000Z</time>
      </trkpt>
      <trkpt lat="50.5175" lon="3.42268">
        <ele>17.6</ele>
        <time>2022-04-10T08:10:18.000Z</time>
      </trkpt>
      <trkpt lat="50.51756" lon="3.42267">
        <ele>17.6</ele>
        <time>2022-04-10T08:10:19.000Z</time>
      </trkpt>
      <trkpt lat="50.5176" lon="3.42266">
        <ele>17.6</ele>
        <time>2022-04-10T08:10:20.000Z</time>
      </trkpt>
      <trkpt lat="50.51766" lon="3.42265">
        <ele>17.5</ele>
        <time>2022-04-10T08:10:21.000Z</time>
      </trkpt>
      <trkpt lat="50.51771" lon="3.42264">
        <ele>17.5</ele>
        <time>2022-04-10T08:10:22.000Z</time>
      </trkpt>
      <trkpt lat="50.51781" lon="3.42261">
        <ele>17.4</ele>
        <time>2022-04-10T08:10:24.000Z</time>
      </trkpt>
      <trkpt lat="50.51786" lon="3.4226">
        <ele>17.4</ele>
        <time>2022-04-10T08:10:25.000Z</time>
      </trkpt>
      <trkpt lat="50.51791" lon="3.42258">
        <ele>17.5</ele>
        <time>2022-04-10T08:10:26.000Z</time>
      </trkpt>
      <trkpt lat="50.51796" lon="3.42257">
        <ele>17.6</ele>
        <time>2022-04-10T08:10:27.000Z</time>
      </trkpt>
      <trkpt lat="50.51802" lon="3.42256">
        <ele>17.7</ele>
        <time>2022-04-10T08:10:28.000Z</time>
      </trkpt>
      <trkpt lat="50.51806" lon="3.42255">
        <ele>17.8</ele>
        <time>2022-04-10T08:10:29.000Z</time>
      </trkpt>
      <trkpt lat="50.51812" lon="3.42254">
        <ele>17.8</ele>
        <time>2022-04-10T08:10:30.000Z</time>
      </trkpt>
      <trkpt lat="50.51817" lon="3.42254">
        <ele>17.9</ele>
        <time>2022-04-10T08:10:31.000Z</time>
      </trkpt>
      <trkpt lat="50.51822" lon="3.42253">
        <ele>17.9</ele>
        <time>2022-04-10T08:10:32.000Z</time>
      </trkpt>
      <trkpt lat="50.51827" lon="3.42252">
        <ele>17.9</ele>
        <time>2022-04-10T08:10:33.000Z</time>
      </trkpt>
      <trkpt lat="50.51832" lon="3.42251">
        <ele>18</ele>
        <time>2022-04-10T08:10:34.000Z</time>
      </trkpt>
      <trkpt lat="50.51838" lon="3.4225">
        <ele>18</ele>
        <time>2022-04-10T08:10:35.000Z</time>
      </trkpt>
      <trkpt lat="50.51844" lon="3.42249">
        <ele>18</ele>
        <time>2022-04-10T08:10:36.000Z</time>
      </trkpt>
      <trkpt lat="50.51853" lon="3.4225">
        <ele>18</ele>
        <time>2022-04-10T08:10:38.000Z</time>
      </trkpt>
      <trkpt lat="50.51858" lon="3.42249">
        <ele>18</ele>
        <time>2022-04-10T08:10:39.000Z</time>
      </trkpt>
      <trkpt lat="50.51863" lon="3.42249">
        <ele>18</ele>
        <time>2022-04-10T08:10:40.000Z</time>
      </trkpt>
      <trkpt lat="50.51868" lon="3.42248">
        <ele>17.9</ele>
        <time>2022-04-10T08:10:41.000Z</time>
      </trkpt>
      <trkpt lat="50.51873" lon="3.42248">
        <ele>17.9</ele>
        <time>2022-04-10T08:10:42.000Z</time>
      </trkpt>
      <trkpt lat="50.51881" lon="3.42249">
        <ele>18</ele>
        <time>2022-04-10T08:10:44.066Z</time>
      </trkpt>
      <trkpt lat="50.51886" lon="3.42249">
        <ele>18</ele>
        <time>2022-04-10T08:10:45.000Z</time>
      </trkpt>
      <trkpt lat="50.51891" lon="3.42248">
        <ele>17.9</ele>
        <time>2022-04-10T08:10:46.000Z</time>
      </trkpt>
      <trkpt lat="50.51896" lon="3.42248">
        <ele>17.9</ele>
        <time>2022-04-10T08:10:47.000Z</time>
      </trkpt>
      <trkpt lat="50.51901" lon="3.42248">
        <ele>17.9</ele>
        <time>2022-04-10T08:10:48.000Z</time>
      </trkpt>
      <trkpt lat="50.51905" lon="3.42249">
        <ele>17.9</ele>
        <time>2022-04-10T08:10:49.000Z</time>
      </trkpt>
      <trkpt lat="50.5191" lon="3.42249">
        <ele>17.9</ele>
        <time>2022-04-10T08:10:50.000Z</time>
      </trkpt>
      <trkpt lat="50.51919" lon="3.4225">
        <ele>17.9</ele>
        <time>2022-04-10T08:10:52.000Z</time>
      </trkpt>
      <trkpt lat="50.51924" lon="3.42251">
        <ele>17.7</ele>
        <time>2022-04-10T08:10:53.000Z</time>
      </trkpt>
      <trkpt lat="50.51929" lon="3.42252">
        <ele>17.5</ele>
        <time>2022-04-10T08:10:54.000Z</time>
      </trkpt>
      <trkpt lat="50.51934" lon="3.42253">
        <ele>17.3</ele>
        <time>2022-04-10T08:10:55.000Z</time>
      </trkpt>
      <trkpt lat="50.51943" lon="3.42254">
        <ele>17</ele>
        <time>2022-04-10T08:10:57.000Z</time>
      </trkpt>
      <trkpt lat="50.51948" lon="3.42255">
        <ele>17</ele>
        <time>2022-04-10T08:10:58.000Z</time>
      </trkpt>
      <trkpt lat="50.51952" lon="3.42256">
        <ele>17.1</ele>
        <time>2022-04-10T08:10:59.000Z</time>
      </trkpt>
      <trkpt lat="50.51958" lon="3.42257">
        <ele>17.1</ele>
        <time>2022-04-10T08:11:00.000Z</time>
      </trkpt>
      <trkpt lat="50.51963" lon="3.42258">
        <ele>17.2</ele>
        <time>2022-04-10T08:11:01.000Z</time>
      </trkpt>
      <trkpt lat="50.51968" lon="3.42259">
        <ele>17.3</ele>
        <time>2022-04-10T08:11:02.000Z</time>
      </trkpt>
      <trkpt lat="50.51973" lon="3.4226">
        <ele>17.3</ele>
        <time>2022-04-10T08:11:03.000Z</time>
      </trkpt>
      <trkpt lat="50.51978" lon="3.42261">
        <ele>17.3</ele>
        <time>2022-04-10T08:11:04.000Z</time>
      </trkpt>
      <trkpt lat="50.51988" lon="3.42264">
        <ele>17.2</ele>
        <time>2022-04-10T08:11:06.000Z</time>
      </trkpt>
      <trkpt lat="50.51993" lon="3.42265">
        <ele>17.2</ele>
        <time>2022-04-10T08:11:07.000Z</time>
      </trkpt>
      <trkpt lat="50.51998" lon="3.42266">
        <ele>17.2</ele>
        <time>2022-04-10T08:11:08.000Z</time>
      </trkpt>
      <trkpt lat="50.52003" lon="3.42267">
        <ele>17.2</ele>
        <time>2022-04-10T08:11:09.000Z</time>
      </trkpt>
      <trkpt lat="50.5201" lon="3.42269">
        <ele>17.2</ele>
        <time>2022-04-10T08:11:10.000Z</time>
      </trkpt>
      <trkpt lat="50.52015" lon="3.4227">
        <ele>17.3</ele>
        <time>2022-04-10T08:11:11.000Z</time>
      </trkpt>
      <trkpt lat="50.52023" lon="3.42272">
        <ele>17.4</ele>
        <time>2022-04-10T08:11:13.000Z</time>
      </trkpt>
      <trkpt lat="50.52032" lon="3.42275">
        <ele>17.5</ele>
        <time>2022-04-10T08:11:15.000Z</time>
      </trkpt>
      <trkpt lat="50.52036" lon="3.42277">
        <ele>17.6</ele>
        <time>2022-04-10T08:11:16.000Z</time>
      </trkpt>
      <trkpt lat="50.52041" lon="3.42279">
        <ele>17.5</ele>
        <time>2022-04-10T08:11:17.000Z</time>
      </trkpt>
      <trkpt lat="50.52046" lon="3.42281">
        <ele>17.3</ele>
        <time>2022-04-10T08:11:18.000Z</time>
      </trkpt>
      <trkpt lat="50.52053" lon="3.42284">
        <ele>17.1</ele>
        <time>2022-04-10T08:11:19.000Z</time>
      </trkpt>
      <trkpt lat="50.52062" lon="3.42288">
        <ele>16.9</ele>
        <time>2022-04-10T08:11:21.000Z</time>
      </trkpt>
      <trkpt lat="50.52067" lon="3.42291">
        <ele>17</ele>
        <time>2022-04-10T08:11:22.000Z</time>
      </trkpt>
      <trkpt lat="50.52074" lon="3.42294">
        <ele>17.1</ele>
        <time>2022-04-10T08:11:24.011Z</time>
      </trkpt>
      <trkpt lat="50.52078" lon="3.42296">
        <ele>17.3</ele>
        <time>2022-04-10T08:11:25.000Z</time>
      </trkpt>
      <trkpt lat="50.52085" lon="3.42299">
        <ele>17.5</ele>
        <time>2022-04-10T08:11:26.000Z</time>
      </trkpt>
      <trkpt lat="50.52092" lon="3.42302">
        <ele>17.5</ele>
        <time>2022-04-10T08:11:28.000Z</time>
      </trkpt>
      <trkpt lat="50.52097" lon="3.42305">
        <ele>17.4</ele>
        <time>2022-04-10T08:11:29.000Z</time>
      </trkpt>
      <trkpt lat="50.52109" lon="3.4231">
        <ele>17.1</ele>
        <time>2022-04-10T08:11:31.000Z</time>
      </trkpt>
      <trkpt lat="50.52115" lon="3.42313">
        <ele>16.9</ele>
        <time>2022-04-10T08:11:33.000Z</time>
      </trkpt>
      <trkpt lat="50.5212" lon="3.42315">
        <ele>16.9</ele>
        <time>2022-04-10T08:11:34.000Z</time>
      </trkpt>
      <trkpt lat="50.52126" lon="3.42319">
        <ele>17</ele>
        <time>2022-04-10T08:11:35.000Z</time>
      </trkpt>
      <trkpt lat="50.52133" lon="3.42324">
        <ele>17.3</ele>
        <time>2022-04-10T08:11:37.000Z</time>
      </trkpt>
      <trkpt lat="50.52138" lon="3.42326">
        <ele>17.5</ele>
        <time>2022-04-10T08:11:38.000Z</time>
      </trkpt>
      <trkpt lat="50.52146" lon="3.4233">
        <ele>17.3</ele>
        <time>2022-04-10T08:11:39.000Z</time>
      </trkpt>
      <trkpt lat="50.52155" lon="3.42336">
        <ele>16.9</ele>
        <time>2022-04-10T08:11:41.000Z</time>
      </trkpt>
      <trkpt lat="50.52159" lon="3.42339">
        <ele>16.8</ele>
        <time>2022-04-10T08:11:42.000Z</time>
      </trkpt>
      <trkpt lat="50.52167" lon="3.42344">
        <ele>16.8</ele>
        <time>2022-04-10T08:11:44.000Z</time>
      </trkpt>
      <trkpt lat="50.52176" lon="3.42351">
        <ele>16.9</ele>
        <time>2022-04-10T08:11:46.000Z</time>
      </trkpt>
      <trkpt lat="50.52185" lon="3.42357">
        <ele>17</ele>
        <time>2022-04-10T08:11:48.000Z</time>
      </trkpt>
      <trkpt lat="50.52189" lon="3.42361">
        <ele>17.1</ele>
        <time>2022-04-10T08:11:49.000Z</time>
      </trkpt>
      <trkpt lat="50.52199" lon="3.42369">
        <ele>17</ele>
        <time>2022-04-10T08:11:51.000Z</time>
      </trkpt>
      <trkpt lat="50.52206" lon="3.42374">
        <ele>17</ele>
        <time>2022-04-10T08:11:53.000Z</time>
      </trkpt>
      <trkpt lat="50.52211" lon="3.42378">
        <ele>17.2</ele>
        <time>2022-04-10T08:11:54.000Z</time>
      </trkpt>
      <trkpt lat="50.52218" lon="3.42384">
        <ele>17.5</ele>
        <time>2022-04-10T08:11:56.000Z</time>
      </trkpt>
      <trkpt lat="50.52223" lon="3.42389">
        <ele>17.9</ele>
        <time>2022-04-10T08:11:57.000Z</time>
      </trkpt>
      <trkpt lat="50.52227" lon="3.42393">
        <ele>17.6</ele>
        <time>2022-04-10T08:11:58.000Z</time>
      </trkpt>
      <trkpt lat="50.52231" lon="3.42397">
        <ele>17.3</ele>
        <time>2022-04-10T08:11:59.000Z</time>
      </trkpt>
      <trkpt lat="50.52238" lon="3.42403">
        <ele>17.1</ele>
        <time>2022-04-10T08:12:01.000Z</time>
      </trkpt>
      <trkpt lat="50.52244" lon="3.42408">
        <ele>17.2</ele>
        <time>2022-04-10T08:12:02.000Z</time>
      </trkpt>
      <trkpt lat="50.5225" lon="3.42414">
        <ele>17.7</ele>
        <time>2022-04-10T08:12:04.000Z</time>
      </trkpt>
      <trkpt lat="50.52257" lon="3.42425">
        <ele>17.5</ele>
        <time>2022-04-10T08:12:06.000Z</time>
      </trkpt>
      <trkpt lat="50.52261" lon="3.4243">
        <ele>17.4</ele>
        <time>2022-04-10T08:12:07.000Z</time>
      </trkpt>
      <trkpt lat="50.52268" lon="3.42438">
        <ele>17.5</ele>
        <time>2022-04-10T08:12:09.000Z</time>
      </trkpt>
      <trkpt lat="50.52274" lon="3.42444">
        <ele>17.9</ele>
        <time>2022-04-10T08:12:10.000Z</time>
      </trkpt>
      <trkpt lat="50.5228" lon="3.42451">
        <ele>17.8</ele>
        <time>2022-04-10T08:12:12.000Z</time>
      </trkpt>
      <trkpt lat="50.52285" lon="3.42458">
        <ele>17.5</ele>
        <time>2022-04-10T08:12:13.000Z</time>
      </trkpt>
      <trkpt lat="50.52289" lon="3.42462">
        <ele>17.3</ele>
        <time>2022-04-10T08:12:14.000Z</time>
      </trkpt>
      <trkpt lat="50.52297" lon="3.4247">
        <ele>17.2</ele>
        <time>2022-04-10T08:12:16.000Z</time>
      </trkpt>
      <trkpt lat="50.52304" lon="3.42477">
        <ele>17.2</ele>
        <time>2022-04-10T08:12:18.000Z</time>
      </trkpt>
      <trkpt lat="50.5231" lon="3.42484">
        <ele>17.1</ele>
        <time>2022-04-10T08:12:19.000Z</time>
      </trkpt>
      <trkpt lat="50.52317" lon="3.42492">
        <ele>16.9</ele>
        <time>2022-04-10T08:12:21.000Z</time>
      </trkpt>
      <trkpt lat="50.52322" lon="3.42498">
        <ele>16.8</ele>
        <time>2022-04-10T08:12:22.000Z</time>
      </trkpt>
      <trkpt lat="50.52325" lon="3.42503">
        <ele>16.7</ele>
        <time>2022-04-10T08:12:23.000Z</time>
      </trkpt>
      <trkpt lat="50.52329" lon="3.42508">
        <ele>16.8</ele>
        <time>2022-04-10T08:12:24.000Z</time>
      </trkpt>
      <trkpt lat="50.52332" lon="3.42513">
        <ele>17</ele>
        <time>2022-04-10T08:12:25.000Z</time>
      </trkpt>
      <trkpt lat="50.52338" lon="3.42521">
        <ele>17.2</ele>
        <time>2022-04-10T08:12:27.000Z</time>
      </trkpt>
      <trkpt lat="50.52342" lon="3.42525">
        <ele>17.2</ele>
        <time>2022-04-10T08:12:28.000Z</time>
      </trkpt>
      <trkpt lat="50.52346" lon="3.4253">
        <ele>17.2</ele>
        <time>2022-04-10T08:12:29.000Z</time>
      </trkpt>
      <trkpt lat="50.52351" lon="3.42537">
        <ele>17.1</ele>
        <time>2022-04-10T08:12:30.000Z</time>
      </trkpt>
      <trkpt lat="50.52356" lon="3.42542">
        <ele>17.2</ele>
        <time>2022-04-10T08:12:31.000Z</time>
      </trkpt>
      <trkpt lat="50.52362" lon="3.4255">
        <ele>17.5</ele>
        <time>2022-04-10T08:12:33.000Z</time>
      </trkpt>
      <trkpt lat="50.52369" lon="3.42559">
        <ele>17.3</ele>
        <time>2022-04-10T08:12:35.000Z</time>
      </trkpt>
      <trkpt lat="50.52374" lon="3.42566">
        <ele>17.1</ele>
        <time>2022-04-10T08:12:36.000Z</time>
      </trkpt>
      <trkpt lat="50.52382" lon="3.42577">
        <ele>17.4</ele>
        <time>2022-04-10T08:12:38.000Z</time>
      </trkpt>
      <trkpt lat="50.5239" lon="3.42586">
        <ele>17.8</ele>
        <time>2022-04-10T08:12:40.000Z</time>
      </trkpt>
      <trkpt lat="50.52394" lon="3.42591">
        <ele>17.3</ele>
        <time>2022-04-10T08:12:41.000Z</time>
      </trkpt>
      <trkpt lat="50.524" lon="3.426">
        <ele>16.9</ele>
        <time>2022-04-10T08:12:43.000Z</time>
      </trkpt>
      <trkpt lat="50.52406" lon="3.42608">
        <ele>16.9</ele>
        <time>2022-04-10T08:12:45.000Z</time>
      </trkpt>
      <trkpt lat="50.52412" lon="3.42614">
        <ele>17.1</ele>
        <time>2022-04-10T08:12:46.000Z</time>
      </trkpt>
      <trkpt lat="50.5242" lon="3.42625">
        <ele>17.3</ele>
        <time>2022-04-10T08:12:48.000Z</time>
      </trkpt>
      <trkpt lat="50.52424" lon="3.4263">
        <ele>17.1</ele>
        <time>2022-04-10T08:12:49.000Z</time>
      </trkpt>
      <trkpt lat="50.52431" lon="3.42638">
        <ele>17</ele>
        <time>2022-04-10T08:12:51.000Z</time>
      </trkpt>
      <trkpt lat="50.52439" lon="3.42649">
        <ele>16.9</ele>
        <time>2022-04-10T08:12:53.000Z</time>
      </trkpt>
      <trkpt lat="50.52443" lon="3.42654">
        <ele>17.1</ele>
        <time>2022-04-10T08:12:54.000Z</time>
      </trkpt>
      <trkpt lat="50.52449" lon="3.42663">
        <ele>17.4</ele>
        <time>2022-04-10T08:12:56.000Z</time>
      </trkpt>
      <trkpt lat="50.52457" lon="3.42674">
        <ele>17.2</ele>
        <time>2022-04-10T08:12:58.000Z</time>
      </trkpt>
      <trkpt lat="50.52463" lon="3.42681">
        <ele>17.2</ele>
        <time>2022-04-10T08:13:00.000Z</time>
      </trkpt>
      <trkpt lat="50.52468" lon="3.42687">
        <ele>17.4</ele>
        <time>2022-04-10T08:13:01.000Z</time>
      </trkpt>
      <trkpt lat="50.52474" lon="3.42697">
        <ele>17.7</ele>
        <time>2022-04-10T08:13:03.000Z</time>
      </trkpt>
      <trkpt lat="50.52479" lon="3.42706">
        <ele>17.1</ele>
        <time>2022-04-10T08:13:05.000Z</time>
      </trkpt>
      <trkpt lat="50.52487" lon="3.42716">
        <ele>16.9</ele>
        <time>2022-04-10T08:13:07.000Z</time>
      </trkpt>
      <trkpt lat="50.52493" lon="3.42726">
        <ele>17</ele>
        <time>2022-04-10T08:13:09.000Z</time>
      </trkpt>
      <trkpt lat="50.525" lon="3.42734">
        <ele>17</ele>
        <time>2022-04-10T08:13:11.000Z</time>
      </trkpt>
      <trkpt lat="50.52505" lon="3.4274">
        <ele>16.9</ele>
        <time>2022-04-10T08:13:12.000Z</time>
      </trkpt>
      <trkpt lat="50.52511" lon="3.42747">
        <ele>16.9</ele>
        <time>2022-04-10T08:13:14.000Z</time>
      </trkpt>
      <trkpt lat="50.52515" lon="3.42753">
        <ele>16.9</ele>
        <time>2022-04-10T08:13:15.000Z</time>
      </trkpt>
      <trkpt lat="50.52519" lon="3.42758">
        <ele>16.9</ele>
        <time>2022-04-10T08:13:16.000Z</time>
      </trkpt>
      <trkpt lat="50.52523" lon="3.42763">
        <ele>16.9</ele>
        <time>2022-04-10T08:13:17.000Z</time>
      </trkpt>
      <trkpt lat="50.5253" lon="3.4277">
        <ele>16.9</ele>
        <time>2022-04-10T08:13:19.000Z</time>
      </trkpt>
      <trkpt lat="50.52536" lon="3.42778">
        <ele>16.7</ele>
        <time>2022-04-10T08:13:20.000Z</time>
      </trkpt>
      <trkpt lat="50.52544" lon="3.42787">
        <ele>16.7</ele>
        <time>2022-04-10T08:13:22.000Z</time>
      </trkpt>
      <trkpt lat="50.52547" lon="3.42792">
        <ele>16.9</ele>
        <time>2022-04-10T08:13:23.000Z</time>
      </trkpt>
      <trkpt lat="50.52553" lon="3.428">
        <ele>17.5</ele>
        <time>2022-04-10T08:13:25.000Z</time>
      </trkpt>
      <trkpt lat="50.52559" lon="3.42807">
        <ele>17.8</ele>
        <time>2022-04-10T08:13:26.000Z</time>
      </trkpt>
      <trkpt lat="50.52565" lon="3.42815">
        <ele>17.8</ele>
        <time>2022-04-10T08:13:28.000Z</time>
      </trkpt>
      <trkpt lat="50.5257" lon="3.42821">
        <ele>17.8</ele>
        <time>2022-04-10T08:13:29.000Z</time>
      </trkpt>
      <trkpt lat="50.52574" lon="3.42825">
        <ele>17.8</ele>
        <time>2022-04-10T08:13:30.000Z</time>
      </trkpt>
      <trkpt lat="50.52582" lon="3.42833">
        <ele>18</ele>
        <time>2022-04-10T08:13:32.000Z</time>
      </trkpt>
      <trkpt lat="50.52588" lon="3.4284">
        <ele>17.8</ele>
        <time>2022-04-10T08:13:33.000Z</time>
      </trkpt>
      <trkpt lat="50.52594" lon="3.42847">
        <ele>17.7</ele>
        <time>2022-04-10T08:13:35.000Z</time>
      </trkpt>
      <trkpt lat="50.526" lon="3.42853">
        <ele>17.8</ele>
        <time>2022-04-10T08:13:36.000Z</time>
      </trkpt>
      <trkpt lat="50.52605" lon="3.42858">
        <ele>18</ele>
        <time>2022-04-10T08:13:37.000Z</time>
      </trkpt>
      <trkpt lat="50.52609" lon="3.42863">
        <ele>18.1</ele>
        <time>2022-04-10T08:13:38.000Z</time>
      </trkpt>
      <trkpt lat="50.52616" lon="3.4287">
        <ele>17.9</ele>
        <time>2022-04-10T08:13:40.000Z</time>
      </trkpt>
      <trkpt lat="50.5262" lon="3.42875">
        <ele>17.8</ele>
        <time>2022-04-10T08:13:41.000Z</time>
      </trkpt>
      <trkpt lat="50.52627" lon="3.42881">
        <ele>17.9</ele>
        <time>2022-04-10T08:13:42.000Z</time>
      </trkpt>
      <trkpt lat="50.52636" lon="3.42889">
        <ele>18.1</ele>
        <time>2022-04-10T08:13:44.000Z</time>
      </trkpt>
      <trkpt lat="50.52643" lon="3.42895">
        <ele>17.9</ele>
        <time>2022-04-10T08:13:46.000Z</time>
      </trkpt>
      <trkpt lat="50.5265" lon="3.42901">
        <ele>17.8</ele>
        <time>2022-04-10T08:13:47.000Z</time>
      </trkpt>
      <trkpt lat="50.52655" lon="3.42907">
        <ele>17.9</ele>
        <time>2022-04-10T08:13:48.000Z</time>
      </trkpt>
      <trkpt lat="50.52659" lon="3.42911">
        <ele>17.9</ele>
        <time>2022-04-10T08:13:49.000Z</time>
      </trkpt>
      <trkpt lat="50.52664" lon="3.42915">
        <ele>18</ele>
        <time>2022-04-10T08:13:50.000Z</time>
      </trkpt>
      <trkpt lat="50.52668" lon="3.42917">
        <ele>17.9</ele>
        <time>2022-04-10T08:13:51.000Z</time>
      </trkpt>
      <trkpt lat="50.52672" lon="3.4292">
        <ele>17.8</ele>
        <time>2022-04-10T08:13:52.000Z</time>
      </trkpt>
      <trkpt lat="50.52679" lon="3.42925">
        <ele>17.5</ele>
        <time>2022-04-10T08:13:53.000Z</time>
      </trkpt>
      <trkpt lat="50.52688" lon="3.42933">
        <ele>17.5</ele>
        <time>2022-04-10T08:13:55.000Z</time>
      </trkpt>
      <trkpt lat="50.52693" lon="3.42937">
        <ele>17.5</ele>
        <time>2022-04-10T08:13:56.000Z</time>
      </trkpt>
      <trkpt lat="50.52697" lon="3.4294">
        <ele>17.6</ele>
        <time>2022-04-10T08:13:57.000Z</time>
      </trkpt>
      <trkpt lat="50.52705" lon="3.42945">
        <ele>17.6</ele>
        <time>2022-04-10T08:13:59.000Z</time>
      </trkpt>
      <trkpt lat="50.52712" lon="3.42951">
        <ele>17.6</ele>
        <time>2022-04-10T08:14:00.000Z</time>
      </trkpt>
      <trkpt lat="50.52722" lon="3.42958">
        <ele>17.5</ele>
        <time>2022-04-10T08:14:02.000Z</time>
      </trkpt>
      <trkpt lat="50.52727" lon="3.42962">
        <ele>17.5</ele>
        <time>2022-04-10T08:14:03.000Z</time>
      </trkpt>
      <trkpt lat="50.52731" lon="3.42965">
        <ele>17.6</ele>
        <time>2022-04-10T08:14:04.000Z</time>
      </trkpt>
      <trkpt lat="50.52736" lon="3.42968">
        <ele>17.7</ele>
        <time>2022-04-10T08:14:05.000Z</time>
      </trkpt>
      <trkpt lat="50.5274" lon="3.42971">
        <ele>17.9</ele>
        <time>2022-04-10T08:14:06.000Z</time>
      </trkpt>
      <trkpt lat="50.52749" lon="3.42977">
        <ele>18.2</ele>
        <time>2022-04-10T08:14:08.000Z</time>
      </trkpt>
      <trkpt lat="50.52757" lon="3.4298">
        <ele>17.9</ele>
        <time>2022-04-10T08:14:09.000Z</time>
      </trkpt>
      <trkpt lat="50.52765" lon="3.42985">
        <ele>17.6</ele>
        <time>2022-04-10T08:14:11.000Z</time>
      </trkpt>
      <trkpt lat="50.52772" lon="3.42988">
        <ele>17.4</ele>
        <time>2022-04-10T08:14:12.000Z</time>
      </trkpt>
      <trkpt lat="50.52778" lon="3.4299">
        <ele>17.3</ele>
        <time>2022-04-10T08:14:13.000Z</time>
      </trkpt>
      <trkpt lat="50.52783" lon="3.42992">
        <ele>17.3</ele>
        <time>2022-04-10T08:14:14.000Z</time>
      </trkpt>
      <trkpt lat="50.52787" lon="3.42995">
        <ele>17.3</ele>
        <time>2022-04-10T08:14:15.000Z</time>
      </trkpt>
      <trkpt lat="50.52792" lon="3.42998">
        <ele>17.3</ele>
        <time>2022-04-10T08:14:16.000Z</time>
      </trkpt>
      <trkpt lat="50.52797" lon="3.43001">
        <ele>17.4</ele>
        <time>2022-04-10T08:14:17.000Z</time>
      </trkpt>
      <trkpt lat="50.52805" lon="3.43006">
        <ele>17.4</ele>
        <time>2022-04-10T08:14:18.000Z</time>
      </trkpt>
      <trkpt lat="50.52812" lon="3.4301">
        <ele>17.5</ele>
        <time>2022-04-10T08:14:20.000Z</time>
      </trkpt>
      <trkpt lat="50.52819" lon="3.43014">
        <ele>17.5</ele>
        <time>2022-04-10T08:14:21.000Z</time>
      </trkpt>
      <trkpt lat="50.52828" lon="3.43018">
        <ele>17.5</ele>
        <time>2022-04-10T08:14:23.000Z</time>
      </trkpt>
      <trkpt lat="50.52835" lon="3.43021">
        <ele>17.5</ele>
        <time>2022-04-10T08:14:24.000Z</time>
      </trkpt>
      <trkpt lat="50.52843" lon="3.43024">
        <ele>17.7</ele>
        <time>2022-04-10T08:14:26.000Z</time>
      </trkpt>
      <trkpt lat="50.52851" lon="3.43026">
        <ele>17.8</ele>
        <time>2022-04-10T08:14:27.000Z</time>
      </trkpt>
      <trkpt lat="50.52862" lon="3.4303">
        <ele>18.2</ele>
        <time>2022-04-10T08:14:29.000Z</time>
      </trkpt>
      <trkpt lat="50.52867" lon="3.43032">
        <ele>18.1</ele>
        <time>2022-04-10T08:14:30.000Z</time>
      </trkpt>
      <trkpt lat="50.52872" lon="3.43033">
        <ele>18</ele>
        <time>2022-04-10T08:14:31.000Z</time>
      </trkpt>
      <trkpt lat="50.52877" lon="3.43034">
        <ele>17.9</ele>
        <time>2022-04-10T08:14:32.000Z</time>
      </trkpt>
      <trkpt lat="50.52882" lon="3.43036">
        <ele>17.8</ele>
        <time>2022-04-10T08:14:33.000Z</time>
      </trkpt>
      <trkpt lat="50.52888" lon="3.43038">
        <ele>17.8</ele>
        <time>2022-04-10T08:14:34.000Z</time>
      </trkpt>
      <trkpt lat="50.52896" lon="3.43041">
        <ele>17.8</ele>
        <time>2022-04-10T08:14:35.000Z</time>
      </trkpt>
      <trkpt lat="50.52902" lon="3.43042">
        <ele>17.8</ele>
        <time>2022-04-10T08:14:36.000Z</time>
      </trkpt>
      <trkpt lat="50.52907" lon="3.43044">
        <ele>17.8</ele>
        <time>2022-04-10T08:14:37.000Z</time>
      </trkpt>
      <trkpt lat="50.52911" lon="3.43046">
        <ele>17.8</ele>
        <time>2022-04-10T08:14:38.000Z</time>
      </trkpt>
      <trkpt lat="50.52916" lon="3.43047">
        <ele>17.7</ele>
        <time>2022-04-10T08:14:39.000Z</time>
      </trkpt>
      <trkpt lat="50.52921" lon="3.43048">
        <ele>17.6</ele>
        <time>2022-04-10T08:14:40.000Z</time>
      </trkpt>
      <trkpt lat="50.52927" lon="3.4305">
        <ele>17.6</ele>
        <time>2022-04-10T08:14:41.000Z</time>
      </trkpt>
      <trkpt lat="50.52934" lon="3.43051">
        <ele>17.7</ele>
        <time>2022-04-10T08:14:42.000Z</time>
      </trkpt>
      <trkpt lat="50.52946" lon="3.43053">
        <ele>17.7</ele>
        <time>2022-04-10T08:14:44.000Z</time>
      </trkpt>
      <trkpt lat="50.52957" lon="3.43054">
        <ele>17.8</ele>
        <time>2022-04-10T08:14:46.000Z</time>
      </trkpt>
      <trkpt lat="50.52962" lon="3.43054">
        <ele>17.8</ele>
        <time>2022-04-10T08:14:47.000Z</time>
      </trkpt>
      <trkpt lat="50.52967" lon="3.43053">
        <ele>17.8</ele>
        <time>2022-04-10T08:14:48.000Z</time>
      </trkpt>
      <trkpt lat="50.52976" lon="3.43054">
        <ele>17.8</ele>
        <time>2022-04-10T08:14:50.000Z</time>
      </trkpt>
      <trkpt lat="50.52987" lon="3.43055">
        <ele>17.9</ele>
        <time>2022-04-10T08:14:52.000Z</time>
      </trkpt>
      <trkpt lat="50.52993" lon="3.43055">
        <ele>17.9</ele>
        <time>2022-04-10T08:14:53.000Z</time>
      </trkpt>
      <trkpt lat="50.52997" lon="3.43055">
        <ele>18</ele>
        <time>2022-04-10T08:14:54.000Z</time>
      </trkpt>
      <trkpt lat="50.53005" lon="3.43056">
        <ele>18</ele>
        <time>2022-04-10T08:14:56.000Z</time>
      </trkpt>
      <trkpt lat="50.53014" lon="3.43057">
        <ele>18</ele>
        <time>2022-04-10T08:14:58.000Z</time>
      </trkpt>
      <trkpt lat="50.53021" lon="3.43057">
        <ele>18</ele>
        <time>2022-04-10T08:14:59.000Z</time>
      </trkpt>
      <trkpt lat="50.53026" lon="3.43058">
        <ele>18</ele>
        <time>2022-04-10T08:15:00.000Z</time>
      </trkpt>
      <trkpt lat="50.53034" lon="3.43057">
        <ele>18</ele>
        <time>2022-04-10T08:15:02.000Z</time>
      </trkpt>
      <trkpt lat="50.53043" lon="3.43057">
        <ele>18</ele>
        <time>2022-04-10T08:15:04.000Z</time>
      </trkpt>
      <trkpt lat="50.53047" lon="3.43057">
        <ele>18</ele>
        <time>2022-04-10T08:15:05.000Z</time>
      </trkpt>
      <trkpt lat="50.53053" lon="3.43056">
        <ele>18</ele>
        <time>2022-04-10T08:15:06.000Z</time>
      </trkpt>
      <trkpt lat="50.53059" lon="3.43056">
        <ele>18</ele>
        <time>2022-04-10T08:15:07.000Z</time>
      </trkpt>
      <trkpt lat="50.53063" lon="3.43056">
        <ele>18</ele>
        <time>2022-04-10T08:15:08.000Z</time>
      </trkpt>
      <trkpt lat="50.53074" lon="3.43054">
        <ele>17.9</ele>
        <time>2022-04-10T08:15:10.000Z</time>
      </trkpt>
      <trkpt lat="50.53081" lon="3.43055">
        <ele>17.9</ele>
        <time>2022-04-10T08:15:12.000Z</time>
      </trkpt>
      <trkpt lat="50.53087" lon="3.43054">
        <ele>17.8</ele>
        <time>2022-04-10T08:15:13.000Z</time>
      </trkpt>
      <trkpt lat="50.53092" lon="3.43053">
        <ele>17.8</ele>
        <time>2022-04-10T08:15:14.000Z</time>
      </trkpt>
      <trkpt lat="50.53097" lon="3.43052">
        <ele>17.6</ele>
        <time>2022-04-10T08:15:15.000Z</time>
      </trkpt>
      <trkpt lat="50.53105" lon="3.43053">
        <ele>17.7</ele>
        <time>2022-04-10T08:15:17.000Z</time>
      </trkpt>
      <trkpt lat="50.53117" lon="3.43052">
        <ele>17.5</ele>
        <time>2022-04-10T08:15:19.000Z</time>
      </trkpt>
      <trkpt lat="50.53122" lon="3.43051">
        <ele>17.3</ele>
        <time>2022-04-10T08:15:19.929Z</time>
      </trkpt>
      <trkpt lat="50.53134" lon="3.4305">
        <ele>16.9</ele>
        <time>2022-04-10T08:15:23.090Z</time>
      </trkpt>
      <trkpt lat="50.5314" lon="3.43049">
        <ele>16.8</ele>
        <time>2022-04-10T08:15:24.153Z</time>
      </trkpt>
      <trkpt lat="50.53149" lon="3.43049">
        <ele>16.8</ele>
        <time>2022-04-10T08:15:27.000Z</time>
      </trkpt>
      <trkpt lat="50.53159" lon="3.43049">
        <ele>16.7</ele>
        <time>2022-04-10T08:15:29.000Z</time>
      </trkpt>
      <trkpt lat="50.53163" lon="3.43048">
        <ele>16.7</ele>
        <time>2022-04-10T08:15:30.000Z</time>
      </trkpt>
      <trkpt lat="50.53169" lon="3.43047">
        <ele>16.8</ele>
        <time>2022-04-10T08:15:31.000Z</time>
      </trkpt>
      <trkpt lat="50.53178" lon="3.43045">
        <ele>17</ele>
        <time>2022-04-10T08:15:33.000Z</time>
      </trkpt>
      <trkpt lat="50.53188" lon="3.43043">
        <ele>17.3</ele>
        <time>2022-04-10T08:15:35.000Z</time>
      </trkpt>
      <trkpt lat="50.53193" lon="3.43041">
        <ele>17.4</ele>
        <time>2022-04-10T08:15:36.000Z</time>
      </trkpt>
      <trkpt lat="50.53201" lon="3.43041">
        <ele>17.5</ele>
        <time>2022-04-10T08:15:38.000Z</time>
      </trkpt>
      <trkpt lat="50.53212" lon="3.43039">
        <ele>17.5</ele>
        <time>2022-04-10T08:15:40.000Z</time>
      </trkpt>
      <trkpt lat="50.53223" lon="3.43038">
        <ele>17.6</ele>
        <time>2022-04-10T08:15:42.000Z</time>
      </trkpt>
      <trkpt lat="50.53231" lon="3.43037">
        <ele>17.7</ele>
        <time>2022-04-10T08:15:44.000Z</time>
      </trkpt>
      <trkpt lat="50.53238" lon="3.43036">
        <ele>17.7</ele>
        <time>2022-04-10T08:15:45.000Z</time>
      </trkpt>
      <trkpt lat="50.53246" lon="3.43035">
        <ele>17.8</ele>
        <time>2022-04-10T08:15:47.000Z</time>
      </trkpt>
      <trkpt lat="50.53252" lon="3.43034">
        <ele>17.8</ele>
        <time>2022-04-10T08:15:48.000Z</time>
      </trkpt>
      <trkpt lat="50.53258" lon="3.43033">
        <ele>17.8</ele>
        <time>2022-04-10T08:15:49.000Z</time>
      </trkpt>
      <trkpt lat="50.53262" lon="3.43033">
        <ele>17.8</ele>
        <time>2022-04-10T08:15:50.000Z</time>
      </trkpt>
      <trkpt lat="50.53274" lon="3.43032">
        <ele>17.9</ele>
        <time>2022-04-10T08:15:52.000Z</time>
      </trkpt>
      <trkpt lat="50.53282" lon="3.43031">
        <ele>17.7</ele>
        <time>2022-04-10T08:15:54.000Z</time>
      </trkpt>
      <trkpt lat="50.53289" lon="3.43031">
        <ele>17.5</ele>
        <time>2022-04-10T08:15:55.000Z</time>
      </trkpt>
      <trkpt lat="50.53294" lon="3.43031">
        <ele>17.4</ele>
        <time>2022-04-10T08:15:56.000Z</time>
      </trkpt>
      <trkpt lat="50.53299" lon="3.43031">
        <ele>17.2</ele>
        <time>2022-04-10T08:15:57.000Z</time>
      </trkpt>
      <trkpt lat="50.53308" lon="3.43031">
        <ele>17</ele>
        <time>2022-04-10T08:15:59.000Z</time>
      </trkpt>
      <trkpt lat="50.53317" lon="3.43031">
        <ele>17</ele>
        <time>2022-04-10T08:16:01.000Z</time>
      </trkpt>
      <trkpt lat="50.53322" lon="3.43031">
        <ele>17</ele>
        <time>2022-04-10T08:16:02.000Z</time>
      </trkpt>
      <trkpt lat="50.5333" lon="3.43031">
        <ele>17</ele>
        <time>2022-04-10T08:16:03.000Z</time>
      </trkpt>
      <trkpt lat="50.53335" lon="3.43031">
        <ele>17</ele>
        <time>2022-04-10T08:16:04.000Z</time>
      </trkpt>
      <trkpt lat="50.5334" lon="3.43032">
        <ele>17</ele>
        <time>2022-04-10T08:16:05.000Z</time>
      </trkpt>
      <trkpt lat="50.53348" lon="3.43032">
        <ele>17</ele>
        <time>2022-04-10T08:16:07.000Z</time>
      </trkpt>
      <trkpt lat="50.53353" lon="3.43032">
        <ele>17</ele>
        <time>2022-04-10T08:16:08.000Z</time>
      </trkpt>
      <trkpt lat="50.53358" lon="3.43032">
        <ele>17</ele>
        <time>2022-04-10T08:16:09.000Z</time>
      </trkpt>
      <trkpt lat="50.53363" lon="3.43032">
        <ele>17.1</ele>
        <time>2022-04-10T08:16:10.000Z</time>
      </trkpt>
      <trkpt lat="50.53373" lon="3.43033">
        <ele>17.3</ele>
        <time>2022-04-10T08:16:12.000Z</time>
      </trkpt>
      <trkpt lat="50.53378" lon="3.43033">
        <ele>17.5</ele>
        <time>2022-04-10T08:16:13.000Z</time>
      </trkpt>
      <trkpt lat="50.53385" lon="3.43033">
        <ele>17.7</ele>
        <time>2022-04-10T08:16:14.000Z</time>
      </trkpt>
      <trkpt lat="50.53395" lon="3.43033">
        <ele>17.8</ele>
        <time>2022-04-10T08:16:16.000Z</time>
      </trkpt>
      <trkpt lat="50.53401" lon="3.43034">
        <ele>17.8</ele>
        <time>2022-04-10T08:16:18.000Z</time>
      </trkpt>
      <trkpt lat="50.53406" lon="3.43035">
        <ele>17.7</ele>
        <time>2022-04-10T08:16:19.000Z</time>
      </trkpt>
      <trkpt lat="50.53414" lon="3.43035">
        <ele>17.7</ele>
        <time>2022-04-10T08:16:20.000Z</time>
      </trkpt>
      <trkpt lat="50.53423" lon="3.43037">
        <ele>17.5</ele>
        <time>2022-04-10T08:16:22.000Z</time>
      </trkpt>
      <trkpt lat="50.5343" lon="3.43038">
        <ele>17.3</ele>
        <time>2022-04-10T08:16:24.000Z</time>
      </trkpt>
      <trkpt lat="50.53438" lon="3.43039">
        <ele>17.1</ele>
        <time>2022-04-10T08:16:25.000Z</time>
      </trkpt>
      <trkpt lat="50.53445" lon="3.4304">
        <ele>17</ele>
        <time>2022-04-10T08:16:27.000Z</time>
      </trkpt>
      <trkpt lat="50.53455" lon="3.43042">
        <ele>17</ele>
        <time>2022-04-10T08:16:29.000Z</time>
      </trkpt>
      <trkpt lat="50.5346" lon="3.43044">
        <ele>17.1</ele>
        <time>2022-04-10T08:16:30.000Z</time>
      </trkpt>
      <trkpt lat="50.53468" lon="3.43045">
        <ele>17.2</ele>
        <time>2022-04-10T08:16:32.000Z</time>
      </trkpt>
      <trkpt lat="50.53476" lon="3.43047">
        <ele>17.3</ele>
        <time>2022-04-10T08:16:34.000Z</time>
      </trkpt>
      <trkpt lat="50.53485" lon="3.43049">
        <ele>17.1</ele>
        <time>2022-04-10T08:16:36.000Z</time>
      </trkpt>
      <trkpt lat="50.53495" lon="3.43051">
        <ele>17</ele>
        <time>2022-04-10T08:16:38.000Z</time>
      </trkpt>
      <trkpt lat="50.53499" lon="3.43052">
        <ele>16.9</ele>
        <time>2022-04-10T08:16:39.000Z</time>
      </trkpt>
      <trkpt lat="50.53507" lon="3.43055">
        <ele>17</ele>
        <time>2022-04-10T08:16:41.000Z</time>
      </trkpt>
      <trkpt lat="50.53517" lon="3.43057">
        <ele>17</ele>
        <time>2022-04-10T08:16:43.000Z</time>
      </trkpt>
      <trkpt lat="50.53525" lon="3.4306">
        <ele>17</ele>
        <time>2022-04-10T08:16:45.000Z</time>
      </trkpt>
      <trkpt lat="50.5353" lon="3.43063">
        <ele>17</ele>
        <time>2022-04-10T08:16:46.000Z</time>
      </trkpt>
      <trkpt lat="50.53538" lon="3.43066">
        <ele>17</ele>
        <time>2022-04-10T08:16:48.000Z</time>
      </trkpt>
      <trkpt lat="50.53543" lon="3.43068">
        <ele>17</ele>
        <time>2022-04-10T08:16:49.000Z</time>
      </trkpt>
      <trkpt lat="50.53552" lon="3.43071">
        <ele>17</ele>
        <time>2022-04-10T08:16:51.000Z</time>
      </trkpt>
      <trkpt lat="50.53556" lon="3.43073">
        <ele>17</ele>
        <time>2022-04-10T08:16:52.000Z</time>
      </trkpt>
      <trkpt lat="50.53565" lon="3.43076">
        <ele>17.1</ele>
        <time>2022-04-10T08:16:54.000Z</time>
      </trkpt>
      <trkpt lat="50.53573" lon="3.43079">
        <ele>17.4</ele>
        <time>2022-04-10T08:16:56.000Z</time>
      </trkpt>
      <trkpt lat="50.53577" lon="3.43081">
        <ele>17.6</ele>
        <time>2022-04-10T08:16:57.000Z</time>
      </trkpt>
      <trkpt lat="50.53582" lon="3.43084">
        <ele>17.9</ele>
        <time>2022-04-10T08:16:58.000Z</time>
      </trkpt>
      <trkpt lat="50.5359" lon="3.43088">
        <ele>17.6</ele>
        <time>2022-04-10T08:17:00.000Z</time>
      </trkpt>
      <trkpt lat="50.53598" lon="3.43092">
        <ele>17.3</ele>
        <time>2022-04-10T08:17:02.000Z</time>
      </trkpt>
      <trkpt lat="50.53606" lon="3.43098">
        <ele>17.1</ele>
        <time>2022-04-10T08:17:04.000Z</time>
      </trkpt>
      <trkpt lat="50.53615" lon="3.43102">
        <ele>17</ele>
        <time>2022-04-10T08:17:06.000Z</time>
      </trkpt>
      <trkpt lat="50.53619" lon="3.43105">
        <ele>17.1</ele>
        <time>2022-04-10T08:17:07.000Z</time>
      </trkpt>
      <trkpt lat="50.53623" lon="3.43107">
        <ele>17.2</ele>
        <time>2022-04-10T08:17:08.000Z</time>
      </trkpt>
      <trkpt lat="50.53628" lon="3.4311">
        <ele>17.5</ele>
        <time>2022-04-10T08:17:09.000Z</time>
      </trkpt>
      <trkpt lat="50.53632" lon="3.43112">
        <ele>17.7</ele>
        <time>2022-04-10T08:17:10.000Z</time>
      </trkpt>
      <trkpt lat="50.53637" lon="3.43114">
        <ele>17.7</ele>
        <time>2022-04-10T08:17:11.000Z</time>
      </trkpt>
      <trkpt lat="50.53642" lon="3.43117">
        <ele>17.4</ele>
        <time>2022-04-10T08:17:12.000Z</time>
      </trkpt>
      <trkpt lat="50.53651" lon="3.43121">
        <ele>16.9</ele>
        <time>2022-04-10T08:17:14.000Z</time>
      </trkpt>
      <trkpt lat="50.53664" lon="3.43129">
        <ele>16.7</ele>
        <time>2022-04-10T08:17:16.838Z</time>
      </trkpt>
      <trkpt lat="50.53672" lon="3.43135">
        <ele>16.8</ele>
        <time>2022-04-10T08:17:19.000Z</time>
      </trkpt>
      <trkpt lat="50.53683" lon="3.43147">
        <ele>16.9</ele>
        <time>2022-04-10T08:17:21.863Z</time>
      </trkpt>
      <trkpt lat="50.53688" lon="3.43147">
        <ele>16.9</ele>
        <time>2022-04-10T08:17:23.000Z</time>
      </trkpt>
      <trkpt lat="50.53695" lon="3.43152">
        <ele>17</ele>
        <time>2022-04-10T08:17:24.000Z</time>
      </trkpt>
      <trkpt lat="50.53701" lon="3.43158">
        <ele>16.8</ele>
        <time>2022-04-10T08:17:26.000Z</time>
      </trkpt>
      <trkpt lat="50.53709" lon="3.43163">
        <ele>16.9</ele>
        <time>2022-04-10T08:17:27.000Z</time>
      </trkpt>
      <trkpt lat="50.53713" lon="3.43164">
        <ele>16.9</ele>
        <time>2022-04-10T08:17:28.000Z</time>
      </trkpt>
      <trkpt lat="50.53718" lon="3.43167">
        <ele>17</ele>
        <time>2022-04-10T08:17:29.168Z</time>
      </trkpt>
      <trkpt lat="50.53722" lon="3.43172">
        <ele>16.8</ele>
        <time>2022-04-10T08:17:31.000Z</time>
      </trkpt>
      <trkpt lat="50.53727" lon="3.43177">
        <ele>16.5</ele>
        <time>2022-04-10T08:17:32.000Z</time>
      </trkpt>
      <trkpt lat="50.53734" lon="3.43182">
        <ele>16.5</ele>
        <time>2022-04-10T08:17:34.000Z</time>
      </trkpt>
      <trkpt lat="50.53741" lon="3.43188">
        <ele>16.9</ele>
        <time>2022-04-10T08:17:36.000Z</time>
      </trkpt>
      <trkpt lat="50.53747" lon="3.43194">
        <ele>17.7</ele>
        <time>2022-04-10T08:17:37.927Z</time>
      </trkpt>
      <trkpt lat="50.53751" lon="3.43198">
        <ele>17.7</ele>
        <time>2022-04-10T08:17:39.000Z</time>
      </trkpt>
      <trkpt lat="50.5376" lon="3.43203">
        <ele>16.7</ele>
        <time>2022-04-10T08:17:41.000Z</time>
      </trkpt>
      <trkpt lat="50.53766" lon="3.43208">
        <ele>16.4</ele>
        <time>2022-04-10T08:17:42.000Z</time>
      </trkpt>
      <trkpt lat="50.53771" lon="3.43212">
        <ele>16.4</ele>
        <time>2022-04-10T08:17:43.000Z</time>
      </trkpt>
      <trkpt lat="50.53776" lon="3.43212">
        <ele>16.3</ele>
        <time>2022-04-10T08:17:44.000Z</time>
      </trkpt>
      <trkpt lat="50.53784" lon="3.43219">
        <ele>16.7</ele>
        <time>2022-04-10T08:17:46.000Z</time>
      </trkpt>
      <trkpt lat="50.53791" lon="3.43226">
        <ele>16.9</ele>
        <time>2022-04-10T08:17:48.000Z</time>
      </trkpt>
      <trkpt lat="50.53797" lon="3.4323">
        <ele>16.9</ele>
        <time>2022-04-10T08:17:49.000Z</time>
      </trkpt>
      <trkpt lat="50.53803" lon="3.43236">
        <ele>17</ele>
        <time>2022-04-10T08:17:51.000Z</time>
      </trkpt>
      <trkpt lat="50.53809" lon="3.43241">
        <ele>16.9</ele>
        <time>2022-04-10T08:17:52.000Z</time>
      </trkpt>
      <trkpt lat="50.53817" lon="3.43248">
        <ele>16.9</ele>
        <time>2022-04-10T08:17:54.000Z</time>
      </trkpt>
      <trkpt lat="50.53821" lon="3.4325">
        <ele>17</ele>
        <time>2022-04-10T08:17:55.000Z</time>
      </trkpt>
      <trkpt lat="50.53826" lon="3.43254">
        <ele>17</ele>
        <time>2022-04-10T08:17:56.000Z</time>
      </trkpt>
      <trkpt lat="50.5383" lon="3.43258">
        <ele>17</ele>
        <time>2022-04-10T08:17:57.000Z</time>
      </trkpt>
      <trkpt lat="50.53835" lon="3.43262">
        <ele>16.9</ele>
        <time>2022-04-10T08:17:58.000Z</time>
      </trkpt>
      <trkpt lat="50.5384" lon="3.43266">
        <ele>16.8</ele>
        <time>2022-04-10T08:17:59.000Z</time>
      </trkpt>
      <trkpt lat="50.53844" lon="3.4327">
        <ele>16.8</ele>
        <time>2022-04-10T08:18:00.000Z</time>
      </trkpt>
      <trkpt lat="50.53848" lon="3.43274">
        <ele>16.8</ele>
        <time>2022-04-10T08:18:01.000Z</time>
      </trkpt>
      <trkpt lat="50.53853" lon="3.43277">
        <ele>17</ele>
        <time>2022-04-10T08:18:02.000Z</time>
      </trkpt>
      <trkpt lat="50.53858" lon="3.4328">
        <ele>16.9</ele>
        <time>2022-04-10T08:18:03.000Z</time>
      </trkpt>
      <trkpt lat="50.53862" lon="3.43284">
        <ele>16.7</ele>
        <time>2022-04-10T08:18:04.000Z</time>
      </trkpt>
      <trkpt lat="50.53869" lon="3.43288">
        <ele>16.4</ele>
        <time>2022-04-10T08:18:05.000Z</time>
      </trkpt>
      <trkpt lat="50.53873" lon="3.43292">
        <ele>16.3</ele>
        <time>2022-04-10T08:18:06.000Z</time>
      </trkpt>
      <trkpt lat="50.53878" lon="3.43295">
        <ele>16.3</ele>
        <time>2022-04-10T08:18:07.000Z</time>
      </trkpt>
      <trkpt lat="50.53882" lon="3.43298">
        <ele>16.4</ele>
        <time>2022-04-10T08:18:08.000Z</time>
      </trkpt>
      <trkpt lat="50.5389" lon="3.43305">
        <ele>16.9</ele>
        <time>2022-04-10T08:18:10.000Z</time>
      </trkpt>
      <trkpt lat="50.53894" lon="3.43308">
        <ele>16.7</ele>
        <time>2022-04-10T08:18:11.000Z</time>
      </trkpt>
      <trkpt lat="50.53899" lon="3.43312">
        <ele>16.6</ele>
        <time>2022-04-10T08:18:12.000Z</time>
      </trkpt>
      <trkpt lat="50.53905" lon="3.43318">
        <ele>16.5</ele>
        <time>2022-04-10T08:18:13.000Z</time>
      </trkpt>
      <trkpt lat="50.53913" lon="3.43324">
        <ele>16.6</ele>
        <time>2022-04-10T08:18:15.000Z</time>
      </trkpt>
      <trkpt lat="50.53919" lon="3.43329">
        <ele>16.7</ele>
        <time>2022-04-10T08:18:16.000Z</time>
      </trkpt>
      <trkpt lat="50.53924" lon="3.43332">
        <ele>16.7</ele>
        <time>2022-04-10T08:18:17.000Z</time>
      </trkpt>
      <trkpt lat="50.53931" lon="3.43338">
        <ele>16.5</ele>
        <time>2022-04-10T08:18:19.000Z</time>
      </trkpt>
      <trkpt lat="50.53935" lon="3.43342">
        <ele>16.4</ele>
        <time>2022-04-10T08:18:20.000Z</time>
      </trkpt>
      <trkpt lat="50.53942" lon="3.43347">
        <ele>16.5</ele>
        <time>2022-04-10T08:18:21.000Z</time>
      </trkpt>
      <trkpt lat="50.53949" lon="3.43353">
        <ele>16.7</ele>
        <time>2022-04-10T08:18:23.000Z</time>
      </trkpt>
      <trkpt lat="50.53955" lon="3.43357">
        <ele>16.8</ele>
        <time>2022-04-10T08:18:24.000Z</time>
      </trkpt>
      <trkpt lat="50.5396" lon="3.43361">
        <ele>17</ele>
        <time>2022-04-10T08:18:25.000Z</time>
      </trkpt>
      <trkpt lat="50.53967" lon="3.43367">
        <ele>17</ele>
        <time>2022-04-10T08:18:27.000Z</time>
      </trkpt>
      <trkpt lat="50.53976" lon="3.43375">
        <ele>16.9</ele>
        <time>2022-04-10T08:18:29.000Z</time>
      </trkpt>
      <trkpt lat="50.53981" lon="3.4338">
        <ele>16.8</ele>
        <time>2022-04-10T08:18:31.000Z</time>
      </trkpt>
      <trkpt lat="50.53987" lon="3.43385">
        <ele>16.9</ele>
        <time>2022-04-10T08:18:32.000Z</time>
      </trkpt>
      <trkpt lat="50.53992" lon="3.43388">
        <ele>17</ele>
        <time>2022-04-10T08:18:33.000Z</time>
      </trkpt>
      <trkpt lat="50.53999" lon="3.43393">
        <ele>17</ele>
        <time>2022-04-10T08:18:35.000Z</time>
      </trkpt>
      <trkpt lat="50.54006" lon="3.43399">
        <ele>16.8</ele>
        <time>2022-04-10T08:18:37.000Z</time>
      </trkpt>
      <trkpt lat="50.54011" lon="3.43403">
        <ele>16.8</ele>
        <time>2022-04-10T08:18:38.000Z</time>
      </trkpt>
      <trkpt lat="50.54017" lon="3.43407">
        <ele>17</ele>
        <time>2022-04-10T08:18:39.000Z</time>
      </trkpt>
      <trkpt lat="50.54025" lon="3.43414">
        <ele>17.6</ele>
        <time>2022-04-10T08:18:41.000Z</time>
      </trkpt>
      <trkpt lat="50.54029" lon="3.43417">
        <ele>17.9</ele>
        <time>2022-04-10T08:18:42.000Z</time>
      </trkpt>
      <trkpt lat="50.54038" lon="3.43424">
        <ele>17</ele>
        <time>2022-04-10T08:18:44.000Z</time>
      </trkpt>
      <trkpt lat="50.54048" lon="3.43432">
        <ele>16.6</ele>
        <time>2022-04-10T08:18:46.000Z</time>
      </trkpt>
      <trkpt lat="50.54051" lon="3.43439">
        <ele>16.7</ele>
        <time>2022-04-10T08:18:49.082Z</time>
      </trkpt>
      <trkpt lat="50.54057" lon="3.43443">
        <ele>16.9</ele>
        <time>2022-04-10T08:18:50.000Z</time>
      </trkpt>
      <trkpt lat="50.54062" lon="3.43447">
        <ele>16.8</ele>
        <time>2022-04-10T08:18:51.021Z</time>
      </trkpt>
      <trkpt lat="50.54067" lon="3.4345">
        <ele>16.8</ele>
        <time>2022-04-10T08:18:52.000Z</time>
      </trkpt>
      <trkpt lat="50.54074" lon="3.43456">
        <ele>16.9</ele>
        <time>2022-04-10T08:18:54.199Z</time>
      </trkpt>
      <trkpt lat="50.54081" lon="3.43463">
        <ele>17.3</ele>
        <time>2022-04-10T08:18:55.608Z</time>
      </trkpt>
      <trkpt lat="50.54088" lon="3.43466">
        <ele>17.4</ele>
        <time>2022-04-10T08:18:57.000Z</time>
      </trkpt>
      <trkpt lat="50.54093" lon="3.4347">
        <ele>17.5</ele>
        <time>2022-04-10T08:18:58.000Z</time>
      </trkpt>
      <trkpt lat="50.54099" lon="3.43475">
        <ele>17.4</ele>
        <time>2022-04-10T08:18:59.681Z</time>
      </trkpt>
      <trkpt lat="50.54106" lon="3.43479">
        <ele>17.1</ele>
        <time>2022-04-10T08:19:02.000Z</time>
      </trkpt>
      <trkpt lat="50.54116" lon="3.43487">
        <ele>16.8</ele>
        <time>2022-04-10T08:19:04.082Z</time>
      </trkpt>
      <trkpt lat="50.54124" lon="3.43495">
        <ele>16.8</ele>
        <time>2022-04-10T08:19:06.000Z</time>
      </trkpt>
      <trkpt lat="50.5413" lon="3.435">
        <ele>17</ele>
        <time>2022-04-10T08:19:08.000Z</time>
      </trkpt>
      <trkpt lat="50.54141" lon="3.43509">
        <ele>16.9</ele>
        <time>2022-04-10T08:19:10.595Z</time>
      </trkpt>
      <trkpt lat="50.54145" lon="3.43512">
        <ele>16.7</ele>
        <time>2022-04-10T08:19:12.000Z</time>
      </trkpt>
      <trkpt lat="50.54153" lon="3.43514">
        <ele>16.5</ele>
        <time>2022-04-10T08:19:14.372Z</time>
      </trkpt>
      <trkpt lat="50.54164" lon="3.4352">
        <ele>16.5</ele>
        <time>2022-04-10T08:19:16.975Z</time>
      </trkpt>
      <trkpt lat="50.54169" lon="3.43526">
        <ele>16.7</ele>
        <time>2022-04-10T08:19:18.359Z</time>
      </trkpt>
      <trkpt lat="50.54177" lon="3.43533">
        <ele>16.3</ele>
        <time>2022-04-10T08:19:20.212Z</time>
      </trkpt>
      <trkpt lat="50.54183" lon="3.4354">
        <ele>16.1</ele>
        <time>2022-04-10T08:19:22.032Z</time>
      </trkpt>
      <trkpt lat="50.54187" lon="3.43545">
        <ele>16.3</ele>
        <time>2022-04-10T08:19:23.000Z</time>
      </trkpt>
      <trkpt lat="50.54191" lon="3.43548">
        <ele>16.5</ele>
        <time>2022-04-10T08:19:24.000Z</time>
      </trkpt>
      <trkpt lat="50.54195" lon="3.43553">
        <ele>16.8</ele>
        <time>2022-04-10T08:19:25.000Z</time>
      </trkpt>
      <trkpt lat="50.54199" lon="3.43556">
        <ele>16.8</ele>
        <time>2022-04-10T08:19:26.000Z</time>
      </trkpt>
      <trkpt lat="50.54207" lon="3.43565">
        <ele>16.5</ele>
        <time>2022-04-10T08:19:28.000Z</time>
      </trkpt>
      <trkpt lat="50.54212" lon="3.43568">
        <ele>16.5</ele>
        <time>2022-04-10T08:19:29.000Z</time>
      </trkpt>
      <trkpt lat="50.54216" lon="3.43572">
        <ele>16.5</ele>
        <time>2022-04-10T08:19:30.000Z</time>
      </trkpt>
      <trkpt lat="50.54225" lon="3.43578">
        <ele>16.8</ele>
        <time>2022-04-10T08:19:32.000Z</time>
      </trkpt>
      <trkpt lat="50.5423" lon="3.43581">
        <ele>16.9</ele>
        <time>2022-04-10T08:19:33.000Z</time>
      </trkpt>
      <trkpt lat="50.54235" lon="3.43584">
        <ele>17</ele>
        <time>2022-04-10T08:19:34.000Z</time>
      </trkpt>
      <trkpt lat="50.54239" lon="3.43587">
        <ele>17.1</ele>
        <time>2022-04-10T08:19:35.000Z</time>
      </trkpt>
      <trkpt lat="50.54249" lon="3.43594">
        <ele>17.4</ele>
        <time>2022-04-10T08:19:37.623Z</time>
      </trkpt>
      <trkpt lat="50.54254" lon="3.43597">
        <ele>17.4</ele>
        <time>2022-04-10T08:19:38.723Z</time>
      </trkpt>
      <trkpt lat="50.5426" lon="3.436">
        <ele>17.5</ele>
        <time>2022-04-10T08:19:40.162Z</time>
      </trkpt>
      <trkpt lat="50.54264" lon="3.43602">
        <ele>17.7</ele>
        <time>2022-04-10T08:19:41.122Z</time>
      </trkpt>
      <trkpt lat="50.54269" lon="3.43603">
        <ele>17.8</ele>
        <time>2022-04-10T08:19:42.000Z</time>
      </trkpt>
      <trkpt lat="50.54274" lon="3.43604">
        <ele>17.9</ele>
        <time>2022-04-10T08:19:43.000Z</time>
      </trkpt>
      <trkpt lat="50.54283" lon="3.43604">
        <ele>17.6</ele>
        <time>2022-04-10T08:19:45.000Z</time>
      </trkpt>
      <trkpt lat="50.54287" lon="3.43605">
        <ele>17.3</ele>
        <time>2022-04-10T08:19:46.000Z</time>
      </trkpt>
      <trkpt lat="50.54292" lon="3.43607">
        <ele>17.1</ele>
        <time>2022-04-10T08:19:47.000Z</time>
      </trkpt>
      <trkpt lat="50.54297" lon="3.43611">
        <ele>16.9</ele>
        <time>2022-04-10T08:19:48.000Z</time>
      </trkpt>
      <trkpt lat="50.54301" lon="3.43615">
        <ele>16.9</ele>
        <time>2022-04-10T08:19:49.000Z</time>
      </trkpt>
      <trkpt lat="50.54307" lon="3.43624">
        <ele>16.8</ele>
        <time>2022-04-10T08:19:51.085Z</time>
      </trkpt>
      <trkpt lat="50.54311" lon="3.43631">
        <ele>17</ele>
        <time>2022-04-10T08:19:52.276Z</time>
      </trkpt>
      <trkpt lat="50.54313" lon="3.43637">
        <ele>17.1</ele>
        <time>2022-04-10T08:19:53.405Z</time>
      </trkpt>
      <trkpt lat="50.54316" lon="3.43644">
        <ele>17.1</ele>
        <time>2022-04-10T08:19:54.518Z</time>
      </trkpt>
      <trkpt lat="50.54317" lon="3.43651">
        <ele>17.3</ele>
        <time>2022-04-10T08:19:55.671Z</time>
      </trkpt>
      <trkpt lat="50.5432" lon="3.43659">
        <ele>17.6</ele>
        <time>2022-04-10T08:19:56.962Z</time>
      </trkpt>
      <trkpt lat="50.54319" lon="3.43668">
        <ele>18</ele>
        <time>2022-04-10T08:19:59.000Z</time>
      </trkpt>
      <trkpt lat="50.54328" lon="3.43674">
        <ele>17.9</ele>
        <time>2022-04-10T08:20:01.000Z</time>
      </trkpt>
      <trkpt lat="50.54333" lon="3.43674">
        <ele>18</ele>
        <time>2022-04-10T08:20:02.000Z</time>
      </trkpt>
      <trkpt lat="50.54338" lon="3.43676">
        <ele>17.6</ele>
        <time>2022-04-10T08:20:03.000Z</time>
      </trkpt>
      <trkpt lat="50.54343" lon="3.43676">
        <ele>17.3</ele>
        <time>2022-04-10T08:20:04.011Z</time>
      </trkpt>
      <trkpt lat="50.54349" lon="3.43677">
        <ele>17</ele>
        <time>2022-04-10T08:20:05.000Z</time>
      </trkpt>
      <trkpt lat="50.54353" lon="3.43679">
        <ele>16.8</ele>
        <time>2022-04-10T08:20:06.000Z</time>
      </trkpt>
      <trkpt lat="50.54358" lon="3.4368">
        <ele>16.7</ele>
        <time>2022-04-10T08:20:07.000Z</time>
      </trkpt>
      <trkpt lat="50.54366" lon="3.43684">
        <ele>16.7</ele>
        <time>2022-04-10T08:20:09.000Z</time>
      </trkpt>
      <trkpt lat="50.54374" lon="3.43689">
        <ele>16.7</ele>
        <time>2022-04-10T08:20:11.040Z</time>
      </trkpt>
      <trkpt lat="50.54382" lon="3.43695">
        <ele>16.5</ele>
        <time>2022-04-10T08:20:13.103Z</time>
      </trkpt>
      <trkpt lat="50.54389" lon="3.43704">
        <ele>16.7</ele>
        <time>2022-04-10T08:20:15.000Z</time>
      </trkpt>
      <trkpt lat="50.54394" lon="3.43714">
        <ele>17</ele>
        <time>2022-04-10T08:20:17.000Z</time>
      </trkpt>
      <trkpt lat="50.54399" lon="3.43724">
        <ele>16.9</ele>
        <time>2022-04-10T08:20:19.000Z</time>
      </trkpt>
      <trkpt lat="50.54403" lon="3.43733">
        <ele>16.7</ele>
        <time>2022-04-10T08:20:20.000Z</time>
      </trkpt>
      <trkpt lat="50.54407" lon="3.43745">
        <ele>16.6</ele>
        <time>2022-04-10T08:20:22.000Z</time>
      </trkpt>
      <trkpt lat="50.5441" lon="3.43754">
        <ele>16.7</ele>
        <time>2022-04-10T08:20:24.000Z</time>
      </trkpt>
      <trkpt lat="50.54416" lon="3.43773">
        <ele>17.7</ele>
        <time>2022-04-10T08:20:27.000Z</time>
      </trkpt>
      <trkpt lat="50.54415" lon="3.43782">
        <ele>18</ele>
        <time>2022-04-10T08:20:28.430Z</time>
      </trkpt>
      <trkpt lat="50.54416" lon="3.4379">
        <ele>18</ele>
        <time>2022-04-10T08:20:29.407Z</time>
      </trkpt>
      <trkpt lat="50.54416" lon="3.438">
        <ele>18</ele>
        <time>2022-04-10T08:20:31.000Z</time>
      </trkpt>
      <trkpt lat="50.54413" lon="3.43805">
        <ele>17.9</ele>
        <time>2022-04-10T08:20:32.926Z</time>
      </trkpt>
      <trkpt lat="50.54409" lon="3.43797">
        <ele>17.8</ele>
        <time>2022-04-10T08:20:35.000Z</time>
      </trkpt>
      <trkpt lat="50.54411" lon="3.4379">
        <ele>17.9</ele>
        <time>2022-04-10T08:20:39.000Z</time>
      </trkpt>
      <trkpt lat="50.54411" lon="3.43808">
        <ele>17.7</ele>
        <time>2022-04-10T08:25:49.000Z</time>
      </trkpt>
      <trkpt lat="50.5441" lon="3.43816">
        <ele>17.6</ele>
        <time>2022-04-10T08:25:51.000Z</time>
      </trkpt>
      <trkpt lat="50.54406" lon="3.43829">
        <ele>17.4</ele>
        <time>2022-04-10T08:25:53.294Z</time>
      </trkpt>
      <trkpt lat="50.544" lon="3.43843">
        <ele>17.5</ele>
        <time>2022-04-10T08:25:55.435Z</time>
      </trkpt>
      <trkpt lat="50.54393" lon="3.43855">
        <ele>17.7</ele>
        <time>2022-04-10T08:25:57.955Z</time>
      </trkpt>
      <trkpt lat="50.54389" lon="3.43861">
        <ele>18</ele>
        <time>2022-04-10T08:25:59.112Z</time>
      </trkpt>
      <trkpt lat="50.54383" lon="3.4387">
        <ele>17.4</ele>
        <time>2022-04-10T08:26:01.052Z</time>
      </trkpt>
      <trkpt lat="50.54379" lon="3.43875">
        <ele>17.2</ele>
        <time>2022-04-10T08:26:02.000Z</time>
      </trkpt>
      <trkpt lat="50.54375" lon="3.4388">
        <ele>17.2</ele>
        <time>2022-04-10T08:26:03.045Z</time>
      </trkpt>
      <trkpt lat="50.54366" lon="3.43893">
        <ele>17.5</ele>
        <time>2022-04-10T08:26:05.874Z</time>
      </trkpt>
      <trkpt lat="50.5436" lon="3.43902">
        <ele>17.5</ele>
        <time>2022-04-10T08:26:08.000Z</time>
      </trkpt>
      <trkpt lat="50.54355" lon="3.43911">
        <ele>17.3</ele>
        <time>2022-04-10T08:26:10.000Z</time>
      </trkpt>
      <trkpt lat="50.54349" lon="3.43921">
        <ele>17.3</ele>
        <time>2022-04-10T08:26:12.269Z</time>
      </trkpt>
      <trkpt lat="50.54345" lon="3.43927">
        <ele>17.4</ele>
        <time>2022-04-10T08:26:13.739Z</time>
      </trkpt>
      <trkpt lat="50.54342" lon="3.43932">
        <ele>17.5</ele>
        <time>2022-04-10T08:26:14.852Z</time>
      </trkpt>
      <trkpt lat="50.54336" lon="3.4394">
        <ele>17.8</ele>
        <time>2022-04-10T08:26:17.051Z</time>
      </trkpt>
      <trkpt lat="50.54331" lon="3.43951">
        <ele>17.6</ele>
        <time>2022-04-10T08:26:19.000Z</time>
      </trkpt>
      <trkpt lat="50.54326" lon="3.43958">
        <ele>17.3</ele>
        <time>2022-04-10T08:26:21.038Z</time>
      </trkpt>
      <trkpt lat="50.54322" lon="3.43965">
        <ele>17.1</ele>
        <time>2022-04-10T08:26:22.712Z</time>
      </trkpt>
      <trkpt lat="50.54317" lon="3.43974">
        <ele>17.2</ele>
        <time>2022-04-10T08:26:25.030Z</time>
      </trkpt>
      <trkpt lat="50.54311" lon="3.43984">
        <ele>17.5</ele>
        <time>2022-04-10T08:26:27.552Z</time>
      </trkpt>
      <trkpt lat="50.54308" lon="3.4399">
        <ele>17.8</ele>
        <time>2022-04-10T08:26:28.935Z</time>
      </trkpt>
      <trkpt lat="50.54303" lon="3.44">
        <ele>18</ele>
        <time>2022-04-10T08:26:31.315Z</time>
      </trkpt>
      <trkpt lat="50.54299" lon="3.44009">
        <ele>17.5</ele>
        <time>2022-04-10T08:26:33.332Z</time>
      </trkpt>
      <trkpt lat="50.54295" lon="3.44016">
        <ele>17.3</ele>
        <time>2022-04-10T08:26:34.911Z</time>
      </trkpt>
      <trkpt lat="50.54292" lon="3.44023">
        <ele>17.2</ele>
        <time>2022-04-10T08:26:36.000Z</time>
      </trkpt>
      <trkpt lat="50.54288" lon="3.44031">
        <ele>17.2</ele>
        <time>2022-04-10T08:26:37.954Z</time>
      </trkpt>
      <trkpt lat="50.54283" lon="3.44041">
        <ele>17.6</ele>
        <time>2022-04-10T08:26:40.032Z</time>
      </trkpt>
      <trkpt lat="50.54276" lon="3.44055">
        <ele>18</ele>
        <time>2022-04-10T08:26:43.174Z</time>
      </trkpt>
      <trkpt lat="50.54273" lon="3.44063">
        <ele>17.6</ele>
        <time>2022-04-10T08:26:44.675Z</time>
      </trkpt>
      <trkpt lat="50.5427" lon="3.44069">
        <ele>17.3</ele>
        <time>2022-04-10T08:26:46.035Z</time>
      </trkpt>
      <trkpt lat="50.54265" lon="3.44079">
        <ele>17.1</ele>
        <time>2022-04-10T08:26:48.000Z</time>
      </trkpt>
      <trkpt lat="50.54261" lon="3.44089">
        <ele>17.2</ele>
        <time>2022-04-10T08:26:50.000Z</time>
      </trkpt>
      <trkpt lat="50.54255" lon="3.44104">
        <ele>17.6</ele>
        <time>2022-04-10T08:26:52.729Z</time>
      </trkpt>
      <trkpt lat="50.54252" lon="3.44112">
        <ele>17.8</ele>
        <time>2022-04-10T08:26:54.115Z</time>
      </trkpt>
      <trkpt lat="50.54249" lon="3.44119">
        <ele>17.7</ele>
        <time>2022-04-10T08:26:55.174Z</time>
      </trkpt>
      <trkpt lat="50.54245" lon="3.44128">
        <ele>17.5</ele>
        <time>2022-04-10T08:26:56.876Z</time>
      </trkpt>
      <trkpt lat="50.54241" lon="3.44141">
        <ele>17.3</ele>
        <time>2022-04-10T08:26:59.133Z</time>
      </trkpt>
      <trkpt lat="50.54238" lon="3.44148">
        <ele>17.1</ele>
        <time>2022-04-10T08:27:00.333Z</time>
      </trkpt>
      <trkpt lat="50.54233" lon="3.4416">
        <ele>17</ele>
        <time>2022-04-10T08:27:02.654Z</time>
      </trkpt>
      <trkpt lat="50.54231" lon="3.44167">
        <ele>17</ele>
        <time>2022-04-10T08:27:03.873Z</time>
      </trkpt>
      <trkpt lat="50.54229" lon="3.44174">
        <ele>17.3</ele>
        <time>2022-04-10T08:27:05.113Z</time>
      </trkpt>
      <trkpt lat="50.54225" lon="3.44187">
        <ele>17.7</ele>
        <time>2022-04-10T08:27:07.194Z</time>
      </trkpt>
      <trkpt lat="50.54222" lon="3.44196">
        <ele>17.9</ele>
        <time>2022-04-10T08:27:08.610Z</time>
      </trkpt>
      <trkpt lat="50.5422" lon="3.44204">
        <ele>17.7</ele>
        <time>2022-04-10T08:27:09.838Z</time>
      </trkpt>
      <trkpt lat="50.54218" lon="3.44211">
        <ele>17.5</ele>
        <time>2022-04-10T08:27:11.212Z</time>
      </trkpt>
      <trkpt lat="50.54214" lon="3.44221">
        <ele>17.3</ele>
        <time>2022-04-10T08:27:12.772Z</time>
      </trkpt>
      <trkpt lat="50.54211" lon="3.44233">
        <ele>17.2</ele>
        <time>2022-04-10T08:27:14.732Z</time>
      </trkpt>
      <trkpt lat="50.54208" lon="3.44241">
        <ele>17.2</ele>
        <time>2022-04-10T08:27:16.000Z</time>
      </trkpt>
      <trkpt lat="50.54203" lon="3.44256">
        <ele>17.4</ele>
        <time>2022-04-10T08:27:18.514Z</time>
      </trkpt>
      <trkpt lat="50.54201" lon="3.44265">
        <ele>17.5</ele>
        <time>2022-04-10T08:27:19.852Z</time>
      </trkpt>
      <trkpt lat="50.54199" lon="3.44272">
        <ele>17.7</ele>
        <time>2022-04-10T08:27:21.000Z</time>
      </trkpt>
      <trkpt lat="50.54197" lon="3.44279">
        <ele>17.8</ele>
        <time>2022-04-10T08:27:22.000Z</time>
      </trkpt>
      <trkpt lat="50.54194" lon="3.44292">
        <ele>18</ele>
        <time>2022-04-10T08:27:24.053Z</time>
      </trkpt>
      <trkpt lat="50.54192" lon="3.443">
        <ele>18</ele>
        <time>2022-04-10T08:27:25.152Z</time>
      </trkpt>
      <trkpt lat="50.5419" lon="3.44313">
        <ele>17.6</ele>
        <time>2022-04-10T08:27:26.852Z</time>
      </trkpt>
      <trkpt lat="50.54189" lon="3.4432">
        <ele>17.1</ele>
        <time>2022-04-10T08:27:28.000Z</time>
      </trkpt>
      <trkpt lat="50.54187" lon="3.44327">
        <ele>16.9</ele>
        <time>2022-04-10T08:27:29.000Z</time>
      </trkpt>
      <trkpt lat="50.54185" lon="3.44334">
        <ele>16.7</ele>
        <time>2022-04-10T08:27:30.000Z</time>
      </trkpt>
      <trkpt lat="50.54184" lon="3.44342">
        <ele>16.8</ele>
        <time>2022-04-10T08:27:31.000Z</time>
      </trkpt>
      <trkpt lat="50.54182" lon="3.44349">
        <ele>16.9</ele>
        <time>2022-04-10T08:27:32.000Z</time>
      </trkpt>
      <trkpt lat="50.54181" lon="3.44356">
        <ele>17</ele>
        <time>2022-04-10T08:27:33.000Z</time>
      </trkpt>
      <trkpt lat="50.54179" lon="3.44363">
        <ele>17.1</ele>
        <time>2022-04-10T08:27:34.000Z</time>
      </trkpt>
      <trkpt lat="50.54178" lon="3.4437">
        <ele>17.2</ele>
        <time>2022-04-10T08:27:35.000Z</time>
      </trkpt>
      <trkpt lat="50.54176" lon="3.44377">
        <ele>17.3</ele>
        <time>2022-04-10T08:27:36.000Z</time>
      </trkpt>
      <trkpt lat="50.54174" lon="3.44384">
        <ele>17.5</ele>
        <time>2022-04-10T08:27:37.000Z</time>
      </trkpt>
      <trkpt lat="50.54172" lon="3.44391">
        <ele>17.6</ele>
        <time>2022-04-10T08:27:38.000Z</time>
      </trkpt>
      <trkpt lat="50.54171" lon="3.44399">
        <ele>17.7</ele>
        <time>2022-04-10T08:27:39.000Z</time>
      </trkpt>
      <trkpt lat="50.5417" lon="3.44406">
        <ele>17.8</ele>
        <time>2022-04-10T08:27:40.000Z</time>
      </trkpt>
      <trkpt lat="50.54169" lon="3.44414">
        <ele>17.9</ele>
        <time>2022-04-10T08:27:41.000Z</time>
      </trkpt>
      <trkpt lat="50.54167" lon="3.44421">
        <ele>17.9</ele>
        <time>2022-04-10T08:27:42.000Z</time>
      </trkpt>
      <trkpt lat="50.54166" lon="3.44429">
        <ele>18</ele>
        <time>2022-04-10T08:27:43.000Z</time>
      </trkpt>
      <trkpt lat="50.54164" lon="3.44436">
        <ele>17.8</ele>
        <time>2022-04-10T08:27:44.000Z</time>
      </trkpt>
      <trkpt lat="50.54163" lon="3.44444">
        <ele>17.8</ele>
        <time>2022-04-10T08:27:45.000Z</time>
      </trkpt>
      <trkpt lat="50.54162" lon="3.44452">
        <ele>17.3</ele>
        <time>2022-04-10T08:27:46.000Z</time>
      </trkpt>
      <trkpt lat="50.54161" lon="3.44459">
        <ele>17</ele>
        <time>2022-04-10T08:27:47.000Z</time>
      </trkpt>
      <trkpt lat="50.5416" lon="3.44467">
        <ele>16.7</ele>
        <time>2022-04-10T08:27:48.000Z</time>
      </trkpt>
      <trkpt lat="50.54159" lon="3.44475">
        <ele>16.6</ele>
        <time>2022-04-10T08:27:49.000Z</time>
      </trkpt>
      <trkpt lat="50.54158" lon="3.44482">
        <ele>16.8</ele>
        <time>2022-04-10T08:27:50.000Z</time>
      </trkpt>
      <trkpt lat="50.54157" lon="3.4449">
        <ele>16.9</ele>
        <time>2022-04-10T08:27:51.000Z</time>
      </trkpt>
      <trkpt lat="50.54156" lon="3.44498">
        <ele>17.1</ele>
        <time>2022-04-10T08:27:52.000Z</time>
      </trkpt>
      <trkpt lat="50.54155" lon="3.44505">
        <ele>17.3</ele>
        <time>2022-04-10T08:27:53.000Z</time>
      </trkpt>
      <trkpt lat="50.54154" lon="3.44512">
        <ele>17.4</ele>
        <time>2022-04-10T08:27:54.000Z</time>
      </trkpt>
      <trkpt lat="50.54153" lon="3.4452">
        <ele>17.5</ele>
        <time>2022-04-10T08:27:55.000Z</time>
      </trkpt>
      <trkpt lat="50.54151" lon="3.44527">
        <ele>17.6</ele>
        <time>2022-04-10T08:27:56.000Z</time>
      </trkpt>
      <trkpt lat="50.5415" lon="3.44535">
        <ele>17.8</ele>
        <time>2022-04-10T08:27:57.000Z</time>
      </trkpt>
      <trkpt lat="50.54149" lon="3.44542">
        <ele>17.9</ele>
        <time>2022-04-10T08:27:58.000Z</time>
      </trkpt>
      <trkpt lat="50.54148" lon="3.44549">
        <ele>18</ele>
        <time>2022-04-10T08:27:59.000Z</time>
      </trkpt>
      <trkpt lat="50.54147" lon="3.44556">
        <ele>18.1</ele>
        <time>2022-04-10T08:28:00.000Z</time>
      </trkpt>
      <trkpt lat="50.54146" lon="3.44564">
        <ele>18.2</ele>
        <time>2022-04-10T08:28:01.000Z</time>
      </trkpt>
      <trkpt lat="50.54145" lon="3.44571">
        <ele>18.4</ele>
        <time>2022-04-10T08:28:02.000Z</time>
      </trkpt>
      <trkpt lat="50.54142" lon="3.44584">
        <ele>18.6</ele>
        <time>2022-04-10T08:28:04.000Z</time>
      </trkpt>
      <trkpt lat="50.54141" lon="3.44598">
        <ele>18.8</ele>
        <time>2022-04-10T08:28:06.000Z</time>
      </trkpt>
      <trkpt lat="50.54139" lon="3.44609">
        <ele>19</ele>
        <time>2022-04-10T08:28:08.000Z</time>
      </trkpt>
      <trkpt lat="50.54137" lon="3.44618">
        <ele>19.1</ele>
        <time>2022-04-10T08:28:10.000Z</time>
      </trkpt>
      <trkpt lat="50.54135" lon="3.44629">
        <ele>19.2</ele>
        <time>2022-04-10T08:28:12.000Z</time>
      </trkpt>
      <trkpt lat="50.54133" lon="3.44638">
        <ele>19.4</ele>
        <time>2022-04-10T08:28:14.000Z</time>
      </trkpt>
      <trkpt lat="50.54132" lon="3.44646">
        <ele>19.5</ele>
        <time>2022-04-10T08:28:16.000Z</time>
      </trkpt>
      <trkpt lat="50.54131" lon="3.44656">
        <ele>19.8</ele>
        <time>2022-04-10T08:28:18.000Z</time>
      </trkpt>
      <trkpt lat="50.54129" lon="3.44666">
        <ele>20.1</ele>
        <time>2022-04-10T08:28:20.000Z</time>
      </trkpt>
      <trkpt lat="50.54128" lon="3.44675">
        <ele>20.7</ele>
        <time>2022-04-10T08:28:22.000Z</time>
      </trkpt>
      <trkpt lat="50.54128" lon="3.44684">
        <ele>21.3</ele>
        <time>2022-04-10T08:28:24.000Z</time>
      </trkpt>
      <trkpt lat="50.54127" lon="3.44692">
        <ele>21.9</ele>
        <time>2022-04-10T08:28:26.000Z</time>
      </trkpt>
      <trkpt lat="50.54131" lon="3.44688">
        <ele>21.5</ele>
        <time>2022-04-10T08:28:33.000Z</time>
      </trkpt>
      <trkpt lat="50.54125" lon="3.44695">
        <ele>22</ele>
        <time>2022-04-10T08:28:41.000Z</time>
      </trkpt>
      <trkpt lat="50.54123" lon="3.44705">
        <ele>22</ele>
        <time>2022-04-10T08:28:43.000Z</time>
      </trkpt>
      <trkpt lat="50.54122" lon="3.44718">
        <ele>22</ele>
        <time>2022-04-10T08:28:46.000Z</time>
      </trkpt>
      <trkpt lat="50.54121" lon="3.44725">
        <ele>22</ele>
        <time>2022-04-10T08:28:47.023Z</time>
      </trkpt>
      <trkpt lat="50.5412" lon="3.44734">
        <ele>22</ele>
        <time>2022-04-10T08:28:48.000Z</time>
      </trkpt>
      <trkpt lat="50.54117" lon="3.44759">
        <ele>22</ele>
        <time>2022-04-10T08:28:50.000Z</time>
      </trkpt>
      <trkpt lat="50.54116" lon="3.44769">
        <ele>22</ele>
        <time>2022-04-10T08:28:51.000Z</time>
      </trkpt>
      <trkpt lat="50.54115" lon="3.44778">
        <ele>22</ele>
        <time>2022-04-10T08:28:52.000Z</time>
      </trkpt>
      <trkpt lat="50.54114" lon="3.44787">
        <ele>22</ele>
        <time>2022-04-10T08:28:53.000Z</time>
      </trkpt>
      <trkpt lat="50.54112" lon="3.44796">
        <ele>22</ele>
        <time>2022-04-10T08:28:54.000Z</time>
      </trkpt>
      <trkpt lat="50.54112" lon="3.44805">
        <ele>22</ele>
        <time>2022-04-10T08:28:55.000Z</time>
      </trkpt>
      <trkpt lat="50.54111" lon="3.44814">
        <ele>22</ele>
        <time>2022-04-10T08:28:56.000Z</time>
      </trkpt>
      <trkpt lat="50.5411" lon="3.44822">
        <ele>22</ele>
        <time>2022-04-10T08:28:57.000Z</time>
      </trkpt>
      <trkpt lat="50.54108" lon="3.44831">
        <ele>22</ele>
        <time>2022-04-10T08:28:58.000Z</time>
      </trkpt>
      <trkpt lat="50.54107" lon="3.44838">
        <ele>22</ele>
        <time>2022-04-10T08:28:59.000Z</time>
      </trkpt>
      <trkpt lat="50.54106" lon="3.44846">
        <ele>22</ele>
        <time>2022-04-10T08:29:00.000Z</time>
      </trkpt>
      <trkpt lat="50.54105" lon="3.44854">
        <ele>22</ele>
        <time>2022-04-10T08:29:01.000Z</time>
      </trkpt>
      <trkpt lat="50.54104" lon="3.44862">
        <ele>22</ele>
        <time>2022-04-10T08:29:02.000Z</time>
      </trkpt>
      <trkpt lat="50.54103" lon="3.4487">
        <ele>22</ele>
        <time>2022-04-10T08:29:03.000Z</time>
      </trkpt>
      <trkpt lat="50.54102" lon="3.44877">
        <ele>22</ele>
        <time>2022-04-10T08:29:04.000Z</time>
      </trkpt>
      <trkpt lat="50.54101" lon="3.44885">
        <ele>22</ele>
        <time>2022-04-10T08:29:05.000Z</time>
      </trkpt>
      <trkpt lat="50.54099" lon="3.44892">
        <ele>22</ele>
        <time>2022-04-10T08:29:06.000Z</time>
      </trkpt>
      <trkpt lat="50.54098" lon="3.44899">
        <ele>22</ele>
        <time>2022-04-10T08:29:07.000Z</time>
      </trkpt>
      <trkpt lat="50.54097" lon="3.44906">
        <ele>22</ele>
        <time>2022-04-10T08:29:08.000Z</time>
      </trkpt>
      <trkpt lat="50.54095" lon="3.44913">
        <ele>22</ele>
        <time>2022-04-10T08:29:09.000Z</time>
      </trkpt>
      <trkpt lat="50.54094" lon="3.4492">
        <ele>22</ele>
        <time>2022-04-10T08:29:10.000Z</time>
      </trkpt>
      <trkpt lat="50.54093" lon="3.44927">
        <ele>22</ele>
        <time>2022-04-10T08:29:11.000Z</time>
      </trkpt>
      <trkpt lat="50.54092" lon="3.44934">
        <ele>22</ele>
        <time>2022-04-10T08:29:12.000Z</time>
      </trkpt>
      <trkpt lat="50.5409" lon="3.44947">
        <ele>22</ele>
        <time>2022-04-10T08:29:14.000Z</time>
      </trkpt>
      <trkpt lat="50.54089" lon="3.44958">
        <ele>21.9</ele>
        <time>2022-04-10T08:29:16.000Z</time>
      </trkpt>
      <trkpt lat="50.54087" lon="3.44965">
        <ele>21.9</ele>
        <time>2022-04-10T08:29:17.000Z</time>
      </trkpt>
      <trkpt lat="50.54085" lon="3.44976">
        <ele>21.9</ele>
        <time>2022-04-10T08:29:19.000Z</time>
      </trkpt>
      <trkpt lat="50.54084" lon="3.44989">
        <ele>22</ele>
        <time>2022-04-10T08:29:21.000Z</time>
      </trkpt>
      <trkpt lat="50.54082" lon="3.45">
        <ele>22</ele>
        <time>2022-04-10T08:29:22.992Z</time>
      </trkpt>
      <trkpt lat="50.54081" lon="3.45007">
        <ele>21.9</ele>
        <time>2022-04-10T08:29:24.000Z</time>
      </trkpt>
      <trkpt lat="50.5408" lon="3.45014">
        <ele>21.7</ele>
        <time>2022-04-10T08:29:25.000Z</time>
      </trkpt>
      <trkpt lat="50.54078" lon="3.45021">
        <ele>21.6</ele>
        <time>2022-04-10T08:29:26.000Z</time>
      </trkpt>
      <trkpt lat="50.54076" lon="3.45032">
        <ele>21.5</ele>
        <time>2022-04-10T08:29:27.610Z</time>
      </trkpt>
      <trkpt lat="50.54075" lon="3.45042">
        <ele>21.5</ele>
        <time>2022-04-10T08:29:29.127Z</time>
      </trkpt>
      <trkpt lat="50.54073" lon="3.45055">
        <ele>21.4</ele>
        <time>2022-04-10T08:29:31.192Z</time>
      </trkpt>
      <trkpt lat="50.54071" lon="3.45067">
        <ele>21.5</ele>
        <time>2022-04-10T08:29:33.000Z</time>
      </trkpt>
      <trkpt lat="50.54064" lon="3.45078">
        <ele>21.7</ele>
        <time>2022-04-10T08:29:34.929Z</time>
      </trkpt>
      <trkpt lat="50.54059" lon="3.45081">
        <ele>21.9</ele>
        <time>2022-04-10T08:29:37.450Z</time>
      </trkpt>
      <trkpt lat="50.54055" lon="3.45085">
        <ele>22</ele>
        <time>2022-04-10T08:29:40.000Z</time>
      </trkpt>
      <trkpt lat="50.54067" lon="3.45101">
        <ele>21.6</ele>
        <time>2022-04-10T08:41:34.000Z</time>
      </trkpt>
      <trkpt lat="50.54066" lon="3.45108">
        <ele>21.6</ele>
        <time>2022-04-10T08:41:36.104Z</time>
      </trkpt>
      <trkpt lat="50.54064" lon="3.4512">
        <ele>21.7</ele>
        <time>2022-04-10T08:41:38.743Z</time>
      </trkpt>
      <trkpt lat="50.54062" lon="3.45135">
        <ele>21.8</ele>
        <time>2022-04-10T08:41:41.002Z</time>
      </trkpt>
      <trkpt lat="50.54061" lon="3.45143">
        <ele>21.8</ele>
        <time>2022-04-10T08:41:42.000Z</time>
      </trkpt>
      <trkpt lat="50.5406" lon="3.4515">
        <ele>21.8</ele>
        <time>2022-04-10T08:41:43.147Z</time>
      </trkpt>
      <trkpt lat="50.54059" lon="3.45161">
        <ele>21.9</ele>
        <time>2022-04-10T08:41:44.346Z</time>
      </trkpt>
      <trkpt lat="50.54057" lon="3.45171">
        <ele>21.9</ele>
        <time>2022-04-10T08:41:45.863Z</time>
      </trkpt>
      <trkpt lat="50.54056" lon="3.45178">
        <ele>22</ele>
        <time>2022-04-10T08:41:47.015Z</time>
      </trkpt>
      <trkpt lat="50.54053" lon="3.45191">
        <ele>22.1</ele>
        <time>2022-04-10T08:41:49.029Z</time>
      </trkpt>
      <trkpt lat="50.54049" lon="3.45207">
        <ele>21.9</ele>
        <time>2022-04-10T08:41:51.447Z</time>
      </trkpt>
      <trkpt lat="50.54048" lon="3.45217">
        <ele>21.7</ele>
        <time>2022-04-10T08:41:53.044Z</time>
      </trkpt>
      <trkpt lat="50.54047" lon="3.45224">
        <ele>21.6</ele>
        <time>2022-04-10T08:41:54.000Z</time>
      </trkpt>
      <trkpt lat="50.54044" lon="3.45236">
        <ele>21.8</ele>
        <time>2022-04-10T08:41:56.000Z</time>
      </trkpt>
      <trkpt lat="50.54043" lon="3.45248">
        <ele>21.9</ele>
        <time>2022-04-10T08:41:58.000Z</time>
      </trkpt>
      <trkpt lat="50.54039" lon="3.45265">
        <ele>22.2</ele>
        <time>2022-04-10T08:42:00.763Z</time>
      </trkpt>
      <trkpt lat="50.54038" lon="3.45274">
        <ele>22.2</ele>
        <time>2022-04-10T08:42:02.000Z</time>
      </trkpt>
      <trkpt lat="50.54037" lon="3.45287">
        <ele>22.1</ele>
        <time>2022-04-10T08:42:04.000Z</time>
      </trkpt>
      <trkpt lat="50.54034" lon="3.453">
        <ele>21.9</ele>
        <time>2022-04-10T08:42:06.000Z</time>
      </trkpt>
      <trkpt lat="50.54032" lon="3.45312">
        <ele>21.8</ele>
        <time>2022-04-10T08:42:08.105Z</time>
      </trkpt>
      <trkpt lat="50.5403" lon="3.45325">
        <ele>21.9</ele>
        <time>2022-04-10T08:42:10.000Z</time>
      </trkpt>
      <trkpt lat="50.54029" lon="3.45332">
        <ele>22</ele>
        <time>2022-04-10T08:42:11.025Z</time>
      </trkpt>
      <trkpt lat="50.54028" lon="3.45339">
        <ele>21.8</ele>
        <time>2022-04-10T08:42:12.002Z</time>
      </trkpt>
      <trkpt lat="50.54027" lon="3.45346">
        <ele>21.6</ele>
        <time>2022-04-10T08:42:12.983Z</time>
      </trkpt>
      <trkpt lat="50.54025" lon="3.45362">
        <ele>21.2</ele>
        <time>2022-04-10T08:42:15.000Z</time>
      </trkpt>
      <trkpt lat="50.54024" lon="3.45369">
        <ele>21.3</ele>
        <time>2022-04-10T08:42:16.000Z</time>
      </trkpt>
      <trkpt lat="50.54023" lon="3.45376">
        <ele>21.4</ele>
        <time>2022-04-10T08:42:17.000Z</time>
      </trkpt>
      <trkpt lat="50.54022" lon="3.45383">
        <ele>21.4</ele>
        <time>2022-04-10T08:42:18.000Z</time>
      </trkpt>
      <trkpt lat="50.54021" lon="3.4539">
        <ele>21.5</ele>
        <time>2022-04-10T08:42:19.000Z</time>
      </trkpt>
      <trkpt lat="50.54019" lon="3.45397">
        <ele>21.6</ele>
        <time>2022-04-10T08:42:20.000Z</time>
      </trkpt>
      <trkpt lat="50.54018" lon="3.45404">
        <ele>21.7</ele>
        <time>2022-04-10T08:42:21.000Z</time>
      </trkpt>
      <trkpt lat="50.54017" lon="3.45411">
        <ele>21.8</ele>
        <time>2022-04-10T08:42:22.000Z</time>
      </trkpt>
      <trkpt lat="50.54016" lon="3.45418">
        <ele>21.8</ele>
        <time>2022-04-10T08:42:23.000Z</time>
      </trkpt>
      <trkpt lat="50.54014" lon="3.45425">
        <ele>21.8</ele>
        <time>2022-04-10T08:42:24.000Z</time>
      </trkpt>
      <trkpt lat="50.54013" lon="3.45432">
        <ele>21.8</ele>
        <time>2022-04-10T08:42:25.000Z</time>
      </trkpt>
      <trkpt lat="50.54009" lon="3.45452">
        <ele>21.7</ele>
        <time>2022-04-10T08:42:29.000Z</time>
      </trkpt>
      <trkpt lat="50.54007" lon="3.45468">
        <ele>21.8</ele>
        <time>2022-04-10T08:42:31.016Z</time>
      </trkpt>
      <trkpt lat="50.54006" lon="3.45476">
        <ele>21.8</ele>
        <time>2022-04-10T08:42:32.116Z</time>
      </trkpt>
      <trkpt lat="50.54003" lon="3.45493">
        <ele>21.9</ele>
        <time>2022-04-10T08:42:34.000Z</time>
      </trkpt>
      <trkpt lat="50.54002" lon="3.455">
        <ele>21.9</ele>
        <time>2022-04-10T08:42:35.000Z</time>
      </trkpt>
      <trkpt lat="50.54001" lon="3.45508">
        <ele>22</ele>
        <time>2022-04-10T08:42:36.000Z</time>
      </trkpt>
      <trkpt lat="50.54" lon="3.45515">
        <ele>22</ele>
        <time>2022-04-10T08:42:37.000Z</time>
      </trkpt>
      <trkpt lat="50.53999" lon="3.45522">
        <ele>22</ele>
        <time>2022-04-10T08:42:38.000Z</time>
      </trkpt>
      <trkpt lat="50.53998" lon="3.45529">
        <ele>22</ele>
        <time>2022-04-10T08:42:39.000Z</time>
      </trkpt>
      <trkpt lat="50.53996" lon="3.45536">
        <ele>21.9</ele>
        <time>2022-04-10T08:42:40.000Z</time>
      </trkpt>
      <trkpt lat="50.53995" lon="3.45543">
        <ele>21.7</ele>
        <time>2022-04-10T08:42:41.000Z</time>
      </trkpt>
      <trkpt lat="50.53993" lon="3.4555">
        <ele>21.6</ele>
        <time>2022-04-10T08:42:42.000Z</time>
      </trkpt>
      <trkpt lat="50.53992" lon="3.45557">
        <ele>21.6</ele>
        <time>2022-04-10T08:42:43.000Z</time>
      </trkpt>
      <trkpt lat="50.53991" lon="3.45564">
        <ele>21.6</ele>
        <time>2022-04-10T08:42:44.000Z</time>
      </trkpt>
      <trkpt lat="50.5399" lon="3.45571">
        <ele>21.7</ele>
        <time>2022-04-10T08:42:45.000Z</time>
      </trkpt>
      <trkpt lat="50.53989" lon="3.45579">
        <ele>21.8</ele>
        <time>2022-04-10T08:42:46.000Z</time>
      </trkpt>
      <trkpt lat="50.53988" lon="3.45586">
        <ele>21.8</ele>
        <time>2022-04-10T08:42:47.000Z</time>
      </trkpt>
      <trkpt lat="50.53987" lon="3.45593">
        <ele>21.9</ele>
        <time>2022-04-10T08:42:48.000Z</time>
      </trkpt>
      <trkpt lat="50.53986" lon="3.45599">
        <ele>22</ele>
        <time>2022-04-10T08:42:49.000Z</time>
      </trkpt>
      <trkpt lat="50.53985" lon="3.45606">
        <ele>22.1</ele>
        <time>2022-04-10T08:42:50.000Z</time>
      </trkpt>
      <trkpt lat="50.53984" lon="3.45613">
        <ele>22.1</ele>
        <time>2022-04-10T08:42:51.000Z</time>
      </trkpt>
      <trkpt lat="50.53982" lon="3.4562">
        <ele>22.1</ele>
        <time>2022-04-10T08:42:52.000Z</time>
      </trkpt>
      <trkpt lat="50.53981" lon="3.45627">
        <ele>22</ele>
        <time>2022-04-10T08:42:53.000Z</time>
      </trkpt>
      <trkpt lat="50.53981" lon="3.45634">
        <ele>21.8</ele>
        <time>2022-04-10T08:42:54.000Z</time>
      </trkpt>
      <trkpt lat="50.5398" lon="3.45641">
        <ele>21.7</ele>
        <time>2022-04-10T08:42:55.000Z</time>
      </trkpt>
      <trkpt lat="50.53979" lon="3.45648">
        <ele>21.8</ele>
        <time>2022-04-10T08:42:56.000Z</time>
      </trkpt>
      <trkpt lat="50.53977" lon="3.45661">
        <ele>21.8</ele>
        <time>2022-04-10T08:42:58.000Z</time>
      </trkpt>
      <trkpt lat="50.53975" lon="3.45674">
        <ele>21.9</ele>
        <time>2022-04-10T08:43:00.000Z</time>
      </trkpt>
      <trkpt lat="50.53973" lon="3.45686">
        <ele>22</ele>
        <time>2022-04-10T08:43:02.000Z</time>
      </trkpt>
      <trkpt lat="50.53971" lon="3.45699">
        <ele>22.1</ele>
        <time>2022-04-10T08:43:04.000Z</time>
      </trkpt>
      <trkpt lat="50.5397" lon="3.45706">
        <ele>22.1</ele>
        <time>2022-04-10T08:43:05.000Z</time>
      </trkpt>
      <trkpt lat="50.53967" lon="3.45718">
        <ele>22.2</ele>
        <time>2022-04-10T08:43:07.000Z</time>
      </trkpt>
      <trkpt lat="50.53966" lon="3.45726">
        <ele>22.1</ele>
        <time>2022-04-10T08:43:08.337Z</time>
      </trkpt>
      <trkpt lat="50.53965" lon="3.45737">
        <ele>21.9</ele>
        <time>2022-04-10T08:43:10.000Z</time>
      </trkpt>
      <trkpt lat="50.53963" lon="3.4575">
        <ele>21.7</ele>
        <time>2022-04-10T08:43:12.000Z</time>
      </trkpt>
      <trkpt lat="50.5396" lon="3.45762">
        <ele>21.9</ele>
        <time>2022-04-10T08:43:14.000Z</time>
      </trkpt>
      <trkpt lat="50.53959" lon="3.45775">
        <ele>22</ele>
        <time>2022-04-10T08:43:16.000Z</time>
      </trkpt>
      <trkpt lat="50.53957" lon="3.45788">
        <ele>22.1</ele>
        <time>2022-04-10T08:43:18.000Z</time>
      </trkpt>
      <trkpt lat="50.53955" lon="3.45799">
        <ele>22.2</ele>
        <time>2022-04-10T08:43:19.835Z</time>
      </trkpt>
      <trkpt lat="50.53952" lon="3.45811">
        <ele>22.3</ele>
        <time>2022-04-10T08:43:22.000Z</time>
      </trkpt>
      <trkpt lat="50.5395" lon="3.45823">
        <ele>22.1</ele>
        <time>2022-04-10T08:43:24.000Z</time>
      </trkpt>
      <trkpt lat="50.53948" lon="3.45835">
        <ele>21.9</ele>
        <time>2022-04-10T08:43:26.055Z</time>
      </trkpt>
      <trkpt lat="50.53946" lon="3.45848">
        <ele>21.9</ele>
        <time>2022-04-10T08:43:28.000Z</time>
      </trkpt>
      <trkpt lat="50.53944" lon="3.45859">
        <ele>22</ele>
        <time>2022-04-10T08:43:30.000Z</time>
      </trkpt>
      <trkpt lat="50.53942" lon="3.45873">
        <ele>22</ele>
        <time>2022-04-10T08:43:32.000Z</time>
      </trkpt>
      <trkpt lat="50.5394" lon="3.45885">
        <ele>22.1</ele>
        <time>2022-04-10T08:43:33.971Z</time>
      </trkpt>
      <trkpt lat="50.53939" lon="3.45892">
        <ele>22.1</ele>
        <time>2022-04-10T08:43:35.000Z</time>
      </trkpt>
      <trkpt lat="50.53937" lon="3.45903">
        <ele>21.9</ele>
        <time>2022-04-10T08:43:36.796Z</time>
      </trkpt>
      <trkpt lat="50.53937" lon="3.45912">
        <ele>21.7</ele>
        <time>2022-04-10T08:43:38.115Z</time>
      </trkpt>
      <trkpt lat="50.53935" lon="3.45923">
        <ele>21.7</ele>
        <time>2022-04-10T08:43:39.897Z</time>
      </trkpt>
      <trkpt lat="50.53935" lon="3.4593">
        <ele>21.7</ele>
        <time>2022-04-10T08:43:41.000Z</time>
      </trkpt>
      <trkpt lat="50.53932" lon="3.45943">
        <ele>21.9</ele>
        <time>2022-04-10T08:43:43.000Z</time>
      </trkpt>
      <trkpt lat="50.5393" lon="3.45955">
        <ele>22.1</ele>
        <time>2022-04-10T08:43:45.000Z</time>
      </trkpt>
      <trkpt lat="50.53928" lon="3.45966">
        <ele>22.2</ele>
        <time>2022-04-10T08:43:46.954Z</time>
      </trkpt>
      <trkpt lat="50.53926" lon="3.45977">
        <ele>22.2</ele>
        <time>2022-04-10T08:43:49.000Z</time>
      </trkpt>
      <trkpt lat="50.53924" lon="3.45989">
        <ele>22</ele>
        <time>2022-04-10T08:43:51.000Z</time>
      </trkpt>
      <trkpt lat="50.53922" lon="3.46001">
        <ele>21.8</ele>
        <time>2022-04-10T08:43:53.000Z</time>
      </trkpt>
      <trkpt lat="50.53919" lon="3.46019">
        <ele>21.9</ele>
        <time>2022-04-10T08:43:56.000Z</time>
      </trkpt>
      <trkpt lat="50.53917" lon="3.4603">
        <ele>22</ele>
        <time>2022-04-10T08:43:58.000Z</time>
      </trkpt>
      <trkpt lat="50.53916" lon="3.46041">
        <ele>22</ele>
        <time>2022-04-10T08:44:00.000Z</time>
      </trkpt>
      <trkpt lat="50.53914" lon="3.46053">
        <ele>22</ele>
        <time>2022-04-10T08:44:02.114Z</time>
      </trkpt>
      <trkpt lat="50.53912" lon="3.46065">
        <ele>21.7</ele>
        <time>2022-04-10T08:44:04.000Z</time>
      </trkpt>
      <trkpt lat="50.5391" lon="3.46074">
        <ele>21.5</ele>
        <time>2022-04-10T08:44:05.596Z</time>
      </trkpt>
      <trkpt lat="50.53909" lon="3.46081">
        <ele>21.3</ele>
        <time>2022-04-10T08:44:06.735Z</time>
      </trkpt>
      <trkpt lat="50.53908" lon="3.46089">
        <ele>21.3</ele>
        <time>2022-04-10T08:44:08.019Z</time>
      </trkpt>
      <trkpt lat="50.53906" lon="3.46102">
        <ele>21.4</ele>
        <time>2022-04-10T08:44:10.000Z</time>
      </trkpt>
      <trkpt lat="50.53904" lon="3.46116">
        <ele>21.4</ele>
        <time>2022-04-10T08:44:12.000Z</time>
      </trkpt>
      <trkpt lat="50.53902" lon="3.46129">
        <ele>21.5</ele>
        <time>2022-04-10T08:44:13.977Z</time>
      </trkpt>
      <trkpt lat="50.53901" lon="3.46141">
        <ele>21.6</ele>
        <time>2022-04-10T08:44:16.000Z</time>
      </trkpt>
      <trkpt lat="50.539" lon="3.46148">
        <ele>21.6</ele>
        <time>2022-04-10T08:44:17.000Z</time>
      </trkpt>
      <trkpt lat="50.53897" lon="3.46162">
        <ele>21.7</ele>
        <time>2022-04-10T08:44:19.000Z</time>
      </trkpt>
      <trkpt lat="50.53895" lon="3.46176">
        <ele>21.9</ele>
        <time>2022-04-10T08:44:21.000Z</time>
      </trkpt>
      <trkpt lat="50.53894" lon="3.46183">
        <ele>21.9</ele>
        <time>2022-04-10T08:44:22.000Z</time>
      </trkpt>
      <trkpt lat="50.53893" lon="3.4619">
        <ele>22</ele>
        <time>2022-04-10T08:44:23.000Z</time>
      </trkpt>
      <trkpt lat="50.53891" lon="3.46203">
        <ele>22</ele>
        <time>2022-04-10T08:44:25.000Z</time>
      </trkpt>
      <trkpt lat="50.53888" lon="3.46221">
        <ele>22</ele>
        <time>2022-04-10T08:44:27.754Z</time>
      </trkpt>
      <trkpt lat="50.53887" lon="3.4623">
        <ele>21.9</ele>
        <time>2022-04-10T08:44:29.092Z</time>
      </trkpt>
      <trkpt lat="50.53884" lon="3.46244">
        <ele>22</ele>
        <time>2022-04-10T08:44:31.000Z</time>
      </trkpt>
      <trkpt lat="50.53883" lon="3.46251">
        <ele>22</ele>
        <time>2022-04-10T08:44:32.133Z</time>
      </trkpt>
      <trkpt lat="50.53882" lon="3.46259">
        <ele>22</ele>
        <time>2022-04-10T08:44:33.294Z</time>
      </trkpt>
      <trkpt lat="50.5388" lon="3.4627">
        <ele>22</ele>
        <time>2022-04-10T08:44:35.000Z</time>
      </trkpt>
      <trkpt lat="50.53879" lon="3.46278">
        <ele>22</ele>
        <time>2022-04-10T08:44:36.136Z</time>
      </trkpt>
      <trkpt lat="50.53878" lon="3.46286">
        <ele>22</ele>
        <time>2022-04-10T08:44:37.443Z</time>
      </trkpt>
      <trkpt lat="50.53876" lon="3.46297">
        <ele>22</ele>
        <time>2022-04-10T08:44:39.000Z</time>
      </trkpt>
      <trkpt lat="50.53874" lon="3.46307">
        <ele>22</ele>
        <time>2022-04-10T08:44:40.674Z</time>
      </trkpt>
      <trkpt lat="50.53872" lon="3.46315">
        <ele>22</ele>
        <time>2022-04-10T08:44:42.000Z</time>
      </trkpt>
      <trkpt lat="50.5387" lon="3.46328">
        <ele>22</ele>
        <time>2022-04-10T08:44:43.974Z</time>
      </trkpt>
      <trkpt lat="50.53868" lon="3.46339">
        <ele>22</ele>
        <time>2022-04-10T08:44:45.000Z</time>
      </trkpt>
      <trkpt lat="50.53866" lon="3.4635">
        <ele>22</ele>
        <time>2022-04-10T08:44:46.000Z</time>
      </trkpt>
      <trkpt lat="50.53865" lon="3.46358">
        <ele>22</ele>
        <time>2022-04-10T08:44:47.000Z</time>
      </trkpt>
      <trkpt lat="50.53864" lon="3.46369">
        <ele>22</ele>
        <time>2022-04-10T08:44:49.000Z</time>
      </trkpt>
      <trkpt lat="50.53863" lon="3.46382">
        <ele>22</ele>
        <time>2022-04-10T08:44:51.000Z</time>
      </trkpt>
      <trkpt lat="50.53862" lon="3.46392">
        <ele>22</ele>
        <time>2022-04-10T08:44:52.000Z</time>
      </trkpt>
      <trkpt lat="50.5386" lon="3.46407">
        <ele>22</ele>
        <time>2022-04-10T08:44:54.000Z</time>
      </trkpt>
      <trkpt lat="50.53858" lon="3.46421">
        <ele>21.9</ele>
        <time>2022-04-10T08:44:56.000Z</time>
      </trkpt>
      <trkpt lat="50.53857" lon="3.46431">
        <ele>21.6</ele>
        <time>2022-04-10T08:44:58.000Z</time>
      </trkpt>
      <trkpt lat="50.53855" lon="3.4644">
        <ele>21.4</ele>
        <time>2022-04-10T08:44:59.000Z</time>
      </trkpt>
      <trkpt lat="50.53852" lon="3.46451">
        <ele>21.5</ele>
        <time>2022-04-10T08:45:01.000Z</time>
      </trkpt>
      <trkpt lat="50.5385" lon="3.46459">
        <ele>21.7</ele>
        <time>2022-04-10T08:45:02.000Z</time>
      </trkpt>
      <trkpt lat="50.53848" lon="3.4647">
        <ele>22</ele>
        <time>2022-04-10T08:45:04.000Z</time>
      </trkpt>
      <trkpt lat="50.53845" lon="3.46481">
        <ele>22</ele>
        <time>2022-04-10T08:45:06.000Z</time>
      </trkpt>
      <trkpt lat="50.53843" lon="3.46489">
        <ele>22</ele>
        <time>2022-04-10T08:45:07.000Z</time>
      </trkpt>
      <trkpt lat="50.53842" lon="3.46507">
        <ele>22</ele>
        <time>2022-04-10T08:45:09.903Z</time>
      </trkpt>
      <trkpt lat="50.53839" lon="3.46517">
        <ele>22</ele>
        <time>2022-04-10T08:45:11.000Z</time>
      </trkpt>
      <trkpt lat="50.53836" lon="3.46525">
        <ele>22</ele>
        <time>2022-04-10T08:45:12.000Z</time>
      </trkpt>
      <trkpt lat="50.53833" lon="3.46537">
        <ele>22</ele>
        <time>2022-04-10T08:45:14.000Z</time>
      </trkpt>
      <trkpt lat="50.53829" lon="3.46547">
        <ele>22.1</ele>
        <time>2022-04-10T08:45:16.000Z</time>
      </trkpt>
      <trkpt lat="50.53826" lon="3.46559">
        <ele>22.3</ele>
        <time>2022-04-10T08:45:18.000Z</time>
      </trkpt>
      <trkpt lat="50.53824" lon="3.46572">
        <ele>22.5</ele>
        <time>2022-04-10T08:45:20.000Z</time>
      </trkpt>
      <trkpt lat="50.53822" lon="3.46582">
        <ele>22.8</ele>
        <time>2022-04-10T08:45:21.682Z</time>
      </trkpt>
      <trkpt lat="50.53818" lon="3.46596">
        <ele>23.1</ele>
        <time>2022-04-10T08:45:23.863Z</time>
      </trkpt>
      <trkpt lat="50.53815" lon="3.46609">
        <ele>23.4</ele>
        <time>2022-04-10T08:45:26.000Z</time>
      </trkpt>
      <trkpt lat="50.53812" lon="3.46615">
        <ele>23.4</ele>
        <time>2022-04-10T08:45:27.080Z</time>
      </trkpt>
      <trkpt lat="50.53808" lon="3.46627">
        <ele>23.3</ele>
        <time>2022-04-10T08:45:29.000Z</time>
      </trkpt>
      <trkpt lat="50.53804" lon="3.46638">
        <ele>23.3</ele>
        <time>2022-04-10T08:45:31.000Z</time>
      </trkpt>
      <trkpt lat="50.538" lon="3.4665">
        <ele>23.9</ele>
        <time>2022-04-10T08:45:33.000Z</time>
      </trkpt>
      <trkpt lat="50.53797" lon="3.46663">
        <ele>24.5</ele>
        <time>2022-04-10T08:45:35.082Z</time>
      </trkpt>
      <trkpt lat="50.53795" lon="3.4667">
        <ele>24.8</ele>
        <time>2022-04-10T08:45:36.042Z</time>
      </trkpt>
      <trkpt lat="50.53794" lon="3.46676">
        <ele>25</ele>
        <time>2022-04-10T08:45:37.000Z</time>
      </trkpt>
      <trkpt lat="50.53792" lon="3.46689">
        <ele>25.2</ele>
        <time>2022-04-10T08:45:39.000Z</time>
      </trkpt>
      <trkpt lat="50.5379" lon="3.46703">
        <ele>25</ele>
        <time>2022-04-10T08:45:40.920Z</time>
      </trkpt>
      <trkpt lat="50.53789" lon="3.4671">
        <ele>24.9</ele>
        <time>2022-04-10T08:45:42.000Z</time>
      </trkpt>
      <trkpt lat="50.53787" lon="3.46723">
        <ele>24.7</ele>
        <time>2022-04-10T08:45:44.000Z</time>
      </trkpt>
      <trkpt lat="50.53784" lon="3.46735">
        <ele>24.3</ele>
        <time>2022-04-10T08:45:46.000Z</time>
      </trkpt>
      <trkpt lat="50.53782" lon="3.46748">
        <ele>23.8</ele>
        <time>2022-04-10T08:45:48.000Z</time>
      </trkpt>
      <trkpt lat="50.5378" lon="3.46755">
        <ele>23.7</ele>
        <time>2022-04-10T08:45:49.123Z</time>
      </trkpt>
      <trkpt lat="50.53778" lon="3.46763">
        <ele>23.5</ele>
        <time>2022-04-10T08:45:50.362Z</time>
      </trkpt>
      <trkpt lat="50.53775" lon="3.46773">
        <ele>23.9</ele>
        <time>2022-04-10T08:45:51.879Z</time>
      </trkpt>
      <trkpt lat="50.53773" lon="3.4678">
        <ele>24.2</ele>
        <time>2022-04-10T08:45:53.000Z</time>
      </trkpt>
      <trkpt lat="50.5377" lon="3.46792">
        <ele>24.7</ele>
        <time>2022-04-10T08:45:55.000Z</time>
      </trkpt>
      <trkpt lat="50.53766" lon="3.46805">
        <ele>25.1</ele>
        <time>2022-04-10T08:45:57.000Z</time>
      </trkpt>
      <trkpt lat="50.53764" lon="3.46812">
        <ele>25.2</ele>
        <time>2022-04-10T08:45:58.000Z</time>
      </trkpt>
      <trkpt lat="50.53762" lon="3.46825">
        <ele>25.3</ele>
        <time>2022-04-10T08:46:00.000Z</time>
      </trkpt>
      <trkpt lat="50.5376" lon="3.46834">
        <ele>25.3</ele>
        <time>2022-04-10T08:46:01.360Z</time>
      </trkpt>
      <trkpt lat="50.53758" lon="3.46841">
        <ele>25.4</ele>
        <time>2022-04-10T08:46:02.483Z</time>
      </trkpt>
      <trkpt lat="50.53755" lon="3.46849">
        <ele>25.6</ele>
        <time>2022-04-10T08:46:03.843Z</time>
      </trkpt>
      <trkpt lat="50.53752" lon="3.46859">
        <ele>25.8</ele>
        <time>2022-04-10T08:46:05.983Z</time>
      </trkpt>
      <trkpt lat="50.53749" lon="3.46868">
        <ele>26.3</ele>
        <time>2022-04-10T08:46:08.061Z</time>
      </trkpt>
      <trkpt lat="50.53748" lon="3.46876">
        <ele>26.8</ele>
        <time>2022-04-10T08:46:10.000Z</time>
      </trkpt>
      <trkpt lat="50.53745" lon="3.46883">
        <ele>27.5</ele>
        <time>2022-04-10T08:46:12.041Z</time>
      </trkpt>
      <trkpt lat="50.53743" lon="3.46891">
        <ele>28.1</ele>
        <time>2022-04-10T08:46:14.023Z</time>
      </trkpt>
      <trkpt lat="50.5374" lon="3.469">
        <ele>28.5</ele>
        <time>2022-04-10T08:46:16.140Z</time>
      </trkpt>
      <trkpt lat="50.53738" lon="3.46908">
        <ele>28.8</ele>
        <time>2022-04-10T08:46:18.282Z</time>
      </trkpt>
      <trkpt lat="50.53735" lon="3.46919">
        <ele>29.4</ele>
        <time>2022-04-10T08:46:21.000Z</time>
      </trkpt>
      <trkpt lat="50.53733" lon="3.46928">
        <ele>29.4</ele>
        <time>2022-04-10T08:46:23.130Z</time>
      </trkpt>
      <trkpt lat="50.53731" lon="3.46936">
        <ele>29.7</ele>
        <time>2022-04-10T08:46:25.000Z</time>
      </trkpt>
      <trkpt lat="50.53729" lon="3.46943">
        <ele>30</ele>
        <time>2022-04-10T08:46:27.000Z</time>
      </trkpt>
      <trkpt lat="50.53727" lon="3.4695">
        <ele>30.6</ele>
        <time>2022-04-10T08:46:29.000Z</time>
      </trkpt>
      <trkpt lat="50.53726" lon="3.46958">
        <ele>30.9</ele>
        <time>2022-04-10T08:46:31.000Z</time>
      </trkpt>
      <trkpt lat="50.53724" lon="3.46967">
        <ele>31.4</ele>
        <time>2022-04-10T08:46:33.000Z</time>
      </trkpt>
      <trkpt lat="50.53721" lon="3.46975">
        <ele>32</ele>
        <time>2022-04-10T08:46:35.000Z</time>
      </trkpt>
      <trkpt lat="50.53719" lon="3.46982">
        <ele>32</ele>
        <time>2022-04-10T08:46:37.000Z</time>
      </trkpt>
      <trkpt lat="50.53717" lon="3.46989">
        <ele>32.1</ele>
        <time>2022-04-10T08:46:39.000Z</time>
      </trkpt>
      <trkpt lat="50.53714" lon="3.46996">
        <ele>32.3</ele>
        <time>2022-04-10T08:46:41.000Z</time>
      </trkpt>
      <trkpt lat="50.53712" lon="3.47005">
        <ele>32.4</ele>
        <time>2022-04-10T08:46:43.000Z</time>
      </trkpt>
      <trkpt lat="50.5371" lon="3.47014">
        <ele>32.5</ele>
        <time>2022-04-10T08:46:45.000Z</time>
      </trkpt>
      <trkpt lat="50.53709" lon="3.47023">
        <ele>32.6</ele>
        <time>2022-04-10T08:46:47.060Z</time>
      </trkpt>
      <trkpt lat="50.53708" lon="3.47031">
        <ele>32.5</ele>
        <time>2022-04-10T08:46:49.000Z</time>
      </trkpt>
      <trkpt lat="50.53707" lon="3.47038">
        <ele>32.6</ele>
        <time>2022-04-10T08:46:51.000Z</time>
      </trkpt>
      <trkpt lat="50.53707" lon="3.47046">
        <ele>32.5</ele>
        <time>2022-04-10T08:46:53.000Z</time>
      </trkpt>
      <trkpt lat="50.53706" lon="3.47053">
        <ele>32.5</ele>
        <time>2022-04-10T08:46:55.043Z</time>
      </trkpt>
      <trkpt lat="50.53707" lon="3.47061">
        <ele>32.6</ele>
        <time>2022-04-10T08:46:57.000Z</time>
      </trkpt>
      <trkpt lat="50.53707" lon="3.47074">
        <ele>33</ele>
        <time>2022-04-10T08:46:59.760Z</time>
      </trkpt>
      <trkpt lat="50.53708" lon="3.47086">
        <ele>33.2</ele>
        <time>2022-04-10T08:47:02.000Z</time>
      </trkpt>
      <trkpt lat="50.5371" lon="3.47096">
        <ele>33.6</ele>
        <time>2022-04-10T08:47:04.020Z</time>
      </trkpt>
      <trkpt lat="50.53711" lon="3.47103">
        <ele>33.9</ele>
        <time>2022-04-10T08:47:05.321Z</time>
      </trkpt>
      <trkpt lat="50.53714" lon="3.47111">
        <ele>34.3</ele>
        <time>2022-04-10T08:47:07.000Z</time>
      </trkpt>
      <trkpt lat="50.5372" lon="3.47116">
        <ele>34.3</ele>
        <time>2022-04-10T08:47:09.059Z</time>
      </trkpt>
      <trkpt lat="50.53725" lon="3.47123">
        <ele>33.5</ele>
        <time>2022-04-10T08:47:11.143Z</time>
      </trkpt>
      <trkpt lat="50.53727" lon="3.47133">
        <ele>33.8</ele>
        <time>2022-04-10T08:47:13.000Z</time>
      </trkpt>
      <trkpt lat="50.53727" lon="3.4714">
        <ele>34.4</ele>
        <time>2022-04-10T08:47:14.382Z</time>
      </trkpt>
      <trkpt lat="50.53725" lon="3.47147">
        <ele>34.7</ele>
        <time>2022-04-10T08:47:15.845Z</time>
      </trkpt>
      <trkpt lat="50.53722" lon="3.47159">
        <ele>35</ele>
        <time>2022-04-10T08:47:18.000Z</time>
      </trkpt>
      <trkpt lat="50.53721" lon="3.47172">
        <ele>35</ele>
        <time>2022-04-10T08:47:20.061Z</time>
      </trkpt>
      <trkpt lat="50.53719" lon="3.47185">
        <ele>35</ele>
        <time>2022-04-10T08:47:22.000Z</time>
      </trkpt>
      <trkpt lat="50.53717" lon="3.47197">
        <ele>35</ele>
        <time>2022-04-10T08:47:24.001Z</time>
      </trkpt>
      <trkpt lat="50.53715" lon="3.47206">
        <ele>35</ele>
        <time>2022-04-10T08:47:25.361Z</time>
      </trkpt>
      <trkpt lat="50.53713" lon="3.47216">
        <ele>35</ele>
        <time>2022-04-10T08:47:27.000Z</time>
      </trkpt>
      <trkpt lat="50.53711" lon="3.47231">
        <ele>35</ele>
        <time>2022-04-10T08:47:29.063Z</time>
      </trkpt>
      <trkpt lat="50.53709" lon="3.47239">
        <ele>35</ele>
        <time>2022-04-10T08:47:30.192Z</time>
      </trkpt>
      <trkpt lat="50.53709" lon="3.4725">
        <ele>35</ele>
        <time>2022-04-10T08:47:31.641Z</time>
      </trkpt>
      <trkpt lat="50.53708" lon="3.47258">
        <ele>35</ele>
        <time>2022-04-10T08:47:32.839Z</time>
      </trkpt>
      <trkpt lat="50.53707" lon="3.47266">
        <ele>35</ele>
        <time>2022-04-10T08:47:34.000Z</time>
      </trkpt>
      <trkpt lat="50.53704" lon="3.47279">
        <ele>35</ele>
        <time>2022-04-10T08:47:36.060Z</time>
      </trkpt>
      <trkpt lat="50.53703" lon="3.47292">
        <ele>35</ele>
        <time>2022-04-10T08:47:38.000Z</time>
      </trkpt>
      <trkpt lat="50.53701" lon="3.4731">
        <ele>35</ele>
        <time>2022-04-10T08:47:40.861Z</time>
      </trkpt>
      <trkpt lat="50.53698" lon="3.47325">
        <ele>35</ele>
        <time>2022-04-10T08:47:43.423Z</time>
      </trkpt>
      <trkpt lat="50.53696" lon="3.47332">
        <ele>35</ele>
        <time>2022-04-10T08:47:44.683Z</time>
      </trkpt>
      <trkpt lat="50.53694" lon="3.47344">
        <ele>35</ele>
        <time>2022-04-10T08:47:46.621Z</time>
      </trkpt>
      <trkpt lat="50.53693" lon="3.47351">
        <ele>35</ele>
        <time>2022-04-10T08:47:47.741Z</time>
      </trkpt>
      <trkpt lat="50.53691" lon="3.47358">
        <ele>35</ele>
        <time>2022-04-10T08:47:49.021Z</time>
      </trkpt>
      <trkpt lat="50.5369" lon="3.47373">
        <ele>35.1</ele>
        <time>2022-04-10T08:47:51.323Z</time>
      </trkpt>
      <trkpt lat="50.53689" lon="3.47382">
        <ele>35.2</ele>
        <time>2022-04-10T08:47:52.659Z</time>
      </trkpt>
      <trkpt lat="50.53686" lon="3.47396">
        <ele>35.2</ele>
        <time>2022-04-10T08:47:55.000Z</time>
      </trkpt>
      <trkpt lat="50.53685" lon="3.47407">
        <ele>35.1</ele>
        <time>2022-04-10T08:47:56.943Z</time>
      </trkpt>
      <trkpt lat="50.53682" lon="3.47421">
        <ele>35</ele>
        <time>2022-04-10T08:47:59.083Z</time>
      </trkpt>
      <trkpt lat="50.53681" lon="3.47429">
        <ele>35</ele>
        <time>2022-04-10T08:48:00.343Z</time>
      </trkpt>
      <trkpt lat="50.53679" lon="3.47436">
        <ele>35</ele>
        <time>2022-04-10T08:48:01.579Z</time>
      </trkpt>
      <trkpt lat="50.53678" lon="3.47446">
        <ele>35</ele>
        <time>2022-04-10T08:48:03.083Z</time>
      </trkpt>
      <trkpt lat="50.53676" lon="3.47453">
        <ele>35</ele>
        <time>2022-04-10T08:48:04.000Z</time>
      </trkpt>
      <trkpt lat="50.53675" lon="3.47461">
        <ele>35</ele>
        <time>2022-04-10T08:48:05.142Z</time>
      </trkpt>
      <trkpt lat="50.53673" lon="3.47474">
        <ele>35</ele>
        <time>2022-04-10T08:48:06.903Z</time>
      </trkpt>
      <trkpt lat="50.53671" lon="3.47484">
        <ele>34.9</ele>
        <time>2022-04-10T08:48:08.000Z</time>
      </trkpt>
      <trkpt lat="50.5367" lon="3.47492">
        <ele>34.9</ele>
        <time>2022-04-10T08:48:09.000Z</time>
      </trkpt>
      <trkpt lat="50.53669" lon="3.47499">
        <ele>34.9</ele>
        <time>2022-04-10T08:48:10.000Z</time>
      </trkpt>
      <trkpt lat="50.53667" lon="3.47507">
        <ele>34.7</ele>
        <time>2022-04-10T08:48:11.000Z</time>
      </trkpt>
      <trkpt lat="50.53666" lon="3.47514">
        <ele>34.5</ele>
        <time>2022-04-10T08:48:12.000Z</time>
      </trkpt>
      <trkpt lat="50.53664" lon="3.47522">
        <ele>34.3</ele>
        <time>2022-04-10T08:48:13.000Z</time>
      </trkpt>
      <trkpt lat="50.53662" lon="3.4753">
        <ele>34.2</ele>
        <time>2022-04-10T08:48:14.000Z</time>
      </trkpt>
      <trkpt lat="50.53661" lon="3.47537">
        <ele>34.2</ele>
        <time>2022-04-10T08:48:15.000Z</time>
      </trkpt>
      <trkpt lat="50.5366" lon="3.47545">
        <ele>34.2</ele>
        <time>2022-04-10T08:48:16.000Z</time>
      </trkpt>
      <trkpt lat="50.53659" lon="3.47553">
        <ele>34.3</ele>
        <time>2022-04-10T08:48:17.000Z</time>
      </trkpt>
      <trkpt lat="50.53657" lon="3.47561">
        <ele>34.5</ele>
        <time>2022-04-10T08:48:18.000Z</time>
      </trkpt>
      <trkpt lat="50.53656" lon="3.47568">
        <ele>34.7</ele>
        <time>2022-04-10T08:48:19.000Z</time>
      </trkpt>
      <trkpt lat="50.53654" lon="3.47576">
        <ele>34.9</ele>
        <time>2022-04-10T08:48:20.000Z</time>
      </trkpt>
      <trkpt lat="50.53653" lon="3.47584">
        <ele>35</ele>
        <time>2022-04-10T08:48:21.000Z</time>
      </trkpt>
      <trkpt lat="50.53652" lon="3.47592">
        <ele>35</ele>
        <time>2022-04-10T08:48:22.000Z</time>
      </trkpt>
      <trkpt lat="50.53651" lon="3.47599">
        <ele>35</ele>
        <time>2022-04-10T08:48:23.000Z</time>
      </trkpt>
      <trkpt lat="50.53649" lon="3.47607">
        <ele>35</ele>
        <time>2022-04-10T08:48:24.000Z</time>
      </trkpt>
      <trkpt lat="50.53648" lon="3.47614">
        <ele>35</ele>
        <time>2022-04-10T08:48:25.000Z</time>
      </trkpt>
      <trkpt lat="50.53646" lon="3.47622">
        <ele>35</ele>
        <time>2022-04-10T08:48:26.000Z</time>
      </trkpt>
      <trkpt lat="50.53644" lon="3.47629">
        <ele>35</ele>
        <time>2022-04-10T08:48:27.000Z</time>
      </trkpt>
      <trkpt lat="50.53643" lon="3.47637">
        <ele>35</ele>
        <time>2022-04-10T08:48:28.000Z</time>
      </trkpt>
      <trkpt lat="50.53642" lon="3.47645">
        <ele>35</ele>
        <time>2022-04-10T08:48:29.000Z</time>
      </trkpt>
      <trkpt lat="50.5364" lon="3.47653">
        <ele>35</ele>
        <time>2022-04-10T08:48:30.000Z</time>
      </trkpt>
      <trkpt lat="50.53639" lon="3.47661">
        <ele>35</ele>
        <time>2022-04-10T08:48:31.000Z</time>
      </trkpt>
      <trkpt lat="50.53638" lon="3.47669">
        <ele>35</ele>
        <time>2022-04-10T08:48:32.000Z</time>
      </trkpt>
      <trkpt lat="50.53637" lon="3.47677">
        <ele>34.9</ele>
        <time>2022-04-10T08:48:33.000Z</time>
      </trkpt>
      <trkpt lat="50.53635" lon="3.47685">
        <ele>35</ele>
        <time>2022-04-10T08:48:34.000Z</time>
      </trkpt>
      <trkpt lat="50.53634" lon="3.47693">
        <ele>35</ele>
        <time>2022-04-10T08:48:35.000Z</time>
      </trkpt>
      <trkpt lat="50.53633" lon="3.477">
        <ele>35</ele>
        <time>2022-04-10T08:48:36.000Z</time>
      </trkpt>
      <trkpt lat="50.53632" lon="3.47708">
        <ele>35</ele>
        <time>2022-04-10T08:48:37.000Z</time>
      </trkpt>
      <trkpt lat="50.53631" lon="3.47716">
        <ele>35</ele>
        <time>2022-04-10T08:48:38.000Z</time>
      </trkpt>
      <trkpt lat="50.53631" lon="3.47724">
        <ele>35</ele>
        <time>2022-04-10T08:48:39.000Z</time>
      </trkpt>
      <trkpt lat="50.5363" lon="3.47732">
        <ele>35</ele>
        <time>2022-04-10T08:48:40.000Z</time>
      </trkpt>
      <trkpt lat="50.5363" lon="3.4774">
        <ele>35</ele>
        <time>2022-04-10T08:48:41.000Z</time>
      </trkpt>
      <trkpt lat="50.53628" lon="3.47747">
        <ele>35</ele>
        <time>2022-04-10T08:48:42.000Z</time>
      </trkpt>
      <trkpt lat="50.53626" lon="3.47754">
        <ele>34.9</ele>
        <time>2022-04-10T08:48:43.000Z</time>
      </trkpt>
      <trkpt lat="50.53625" lon="3.47762">
        <ele>34.8</ele>
        <time>2022-04-10T08:48:44.000Z</time>
      </trkpt>
      <trkpt lat="50.53624" lon="3.4777">
        <ele>34.7</ele>
        <time>2022-04-10T08:48:45.000Z</time>
      </trkpt>
      <trkpt lat="50.53623" lon="3.47778">
        <ele>34.6</ele>
        <time>2022-04-10T08:48:46.000Z</time>
      </trkpt>
      <trkpt lat="50.53622" lon="3.47786">
        <ele>34.6</ele>
        <time>2022-04-10T08:48:47.000Z</time>
      </trkpt>
      <trkpt lat="50.53621" lon="3.47794">
        <ele>34.7</ele>
        <time>2022-04-10T08:48:48.000Z</time>
      </trkpt>
      <trkpt lat="50.5362" lon="3.47802">
        <ele>34.7</ele>
        <time>2022-04-10T08:48:49.000Z</time>
      </trkpt>
      <trkpt lat="50.53618" lon="3.4781">
        <ele>34.7</ele>
        <time>2022-04-10T08:48:50.000Z</time>
      </trkpt>
      <trkpt lat="50.53617" lon="3.47818">
        <ele>34.8</ele>
        <time>2022-04-10T08:48:51.000Z</time>
      </trkpt>
      <trkpt lat="50.53615" lon="3.47825">
        <ele>34.8</ele>
        <time>2022-04-10T08:48:52.000Z</time>
      </trkpt>
      <trkpt lat="50.53614" lon="3.47833">
        <ele>34.9</ele>
        <time>2022-04-10T08:48:53.000Z</time>
      </trkpt>
      <trkpt lat="50.53612" lon="3.4784">
        <ele>35</ele>
        <time>2022-04-10T08:48:54.000Z</time>
      </trkpt>
      <trkpt lat="50.5361" lon="3.47847">
        <ele>35</ele>
        <time>2022-04-10T08:48:55.000Z</time>
      </trkpt>
      <trkpt lat="50.53608" lon="3.47855">
        <ele>35.1</ele>
        <time>2022-04-10T08:48:56.000Z</time>
      </trkpt>
      <trkpt lat="50.53607" lon="3.47863">
        <ele>35.2</ele>
        <time>2022-04-10T08:48:57.000Z</time>
      </trkpt>
      <trkpt lat="50.53606" lon="3.47871">
        <ele>35.2</ele>
        <time>2022-04-10T08:48:58.000Z</time>
      </trkpt>
      <trkpt lat="50.53604" lon="3.47878">
        <ele>35.3</ele>
        <time>2022-04-10T08:48:59.000Z</time>
      </trkpt>
      <trkpt lat="50.53603" lon="3.47886">
        <ele>35.3</ele>
        <time>2022-04-10T08:49:00.000Z</time>
      </trkpt>
      <trkpt lat="50.53602" lon="3.47893">
        <ele>35.3</ele>
        <time>2022-04-10T08:49:01.000Z</time>
      </trkpt>
      <trkpt lat="50.536" lon="3.47901">
        <ele>35.4</ele>
        <time>2022-04-10T08:49:02.000Z</time>
      </trkpt>
      <trkpt lat="50.53599" lon="3.47909">
        <ele>35.4</ele>
        <time>2022-04-10T08:49:03.000Z</time>
      </trkpt>
      <trkpt lat="50.53598" lon="3.47917">
        <ele>35.5</ele>
        <time>2022-04-10T08:49:04.000Z</time>
      </trkpt>
      <trkpt lat="50.53597" lon="3.47925">
        <ele>35.5</ele>
        <time>2022-04-10T08:49:05.000Z</time>
      </trkpt>
      <trkpt lat="50.53596" lon="3.47933">
        <ele>35.5</ele>
        <time>2022-04-10T08:49:06.000Z</time>
      </trkpt>
      <trkpt lat="50.53595" lon="3.47941">
        <ele>35.6</ele>
        <time>2022-04-10T08:49:07.000Z</time>
      </trkpt>
      <trkpt lat="50.53594" lon="3.47949">
        <ele>35.5</ele>
        <time>2022-04-10T08:49:08.000Z</time>
      </trkpt>
      <trkpt lat="50.53593" lon="3.47957">
        <ele>35.2</ele>
        <time>2022-04-10T08:49:09.000Z</time>
      </trkpt>
      <trkpt lat="50.53592" lon="3.47965">
        <ele>35</ele>
        <time>2022-04-10T08:49:10.000Z</time>
      </trkpt>
      <trkpt lat="50.5359" lon="3.47973">
        <ele>34.7</ele>
        <time>2022-04-10T08:49:11.000Z</time>
      </trkpt>
      <trkpt lat="50.53589" lon="3.47981">
        <ele>34.8</ele>
        <time>2022-04-10T08:49:12.000Z</time>
      </trkpt>
      <trkpt lat="50.53588" lon="3.47989">
        <ele>34.8</ele>
        <time>2022-04-10T08:49:13.000Z</time>
      </trkpt>
      <trkpt lat="50.53587" lon="3.47996">
        <ele>34.9</ele>
        <time>2022-04-10T08:49:14.000Z</time>
      </trkpt>
      <trkpt lat="50.53585" lon="3.48004">
        <ele>34.9</ele>
        <time>2022-04-10T08:49:15.000Z</time>
      </trkpt>
      <trkpt lat="50.53584" lon="3.48011">
        <ele>35</ele>
        <time>2022-04-10T08:49:16.000Z</time>
      </trkpt>
      <trkpt lat="50.53582" lon="3.48019">
        <ele>35</ele>
        <time>2022-04-10T08:49:17.000Z</time>
      </trkpt>
      <trkpt lat="50.53581" lon="3.48027">
        <ele>35.1</ele>
        <time>2022-04-10T08:49:18.000Z</time>
      </trkpt>
      <trkpt lat="50.53579" lon="3.48035">
        <ele>35.2</ele>
        <time>2022-04-10T08:49:19.000Z</time>
      </trkpt>
      <trkpt lat="50.53577" lon="3.48042">
        <ele>35.2</ele>
        <time>2022-04-10T08:49:20.000Z</time>
      </trkpt>
      <trkpt lat="50.53576" lon="3.4805">
        <ele>35.3</ele>
        <time>2022-04-10T08:49:21.000Z</time>
      </trkpt>
      <trkpt lat="50.53575" lon="3.48058">
        <ele>35.3</ele>
        <time>2022-04-10T08:49:22.000Z</time>
      </trkpt>
      <trkpt lat="50.53573" lon="3.48065">
        <ele>35.5</ele>
        <time>2022-04-10T08:49:23.000Z</time>
      </trkpt>
      <trkpt lat="50.53572" lon="3.48073">
        <ele>35.6</ele>
        <time>2022-04-10T08:49:24.000Z</time>
      </trkpt>
      <trkpt lat="50.53571" lon="3.4808">
        <ele>35.9</ele>
        <time>2022-04-10T08:49:25.000Z</time>
      </trkpt>
      <trkpt lat="50.53569" lon="3.48088">
        <ele>36</ele>
        <time>2022-04-10T08:49:26.000Z</time>
      </trkpt>
      <trkpt lat="50.53568" lon="3.48096">
        <ele>35.9</ele>
        <time>2022-04-10T08:49:27.000Z</time>
      </trkpt>
      <trkpt lat="50.53567" lon="3.48104">
        <ele>35.9</ele>
        <time>2022-04-10T08:49:28.000Z</time>
      </trkpt>
      <trkpt lat="50.53566" lon="3.48112">
        <ele>35.9</ele>
        <time>2022-04-10T08:49:29.000Z</time>
      </trkpt>
      <trkpt lat="50.53564" lon="3.4812">
        <ele>35.9</ele>
        <time>2022-04-10T08:49:30.000Z</time>
      </trkpt>
      <trkpt lat="50.53564" lon="3.48128">
        <ele>36</ele>
        <time>2022-04-10T08:49:31.000Z</time>
      </trkpt>
      <trkpt lat="50.53562" lon="3.48137">
        <ele>36</ele>
        <time>2022-04-10T08:49:32.000Z</time>
      </trkpt>
      <trkpt lat="50.53561" lon="3.48145">
        <ele>36.1</ele>
        <time>2022-04-10T08:49:33.000Z</time>
      </trkpt>
      <trkpt lat="50.53559" lon="3.48153">
        <ele>36</ele>
        <time>2022-04-10T08:49:34.000Z</time>
      </trkpt>
      <trkpt lat="50.53558" lon="3.48162">
        <ele>35.9</ele>
        <time>2022-04-10T08:49:35.000Z</time>
      </trkpt>
      <trkpt lat="50.53557" lon="3.4817">
        <ele>35.7</ele>
        <time>2022-04-10T08:49:36.000Z</time>
      </trkpt>
      <trkpt lat="50.53556" lon="3.48178">
        <ele>35.5</ele>
        <time>2022-04-10T08:49:37.000Z</time>
      </trkpt>
      <trkpt lat="50.53555" lon="3.48186">
        <ele>35.3</ele>
        <time>2022-04-10T08:49:38.000Z</time>
      </trkpt>
      <trkpt lat="50.53555" lon="3.48194">
        <ele>35.2</ele>
        <time>2022-04-10T08:49:39.000Z</time>
      </trkpt>
      <trkpt lat="50.53554" lon="3.48202">
        <ele>35.3</ele>
        <time>2022-04-10T08:49:40.000Z</time>
      </trkpt>
      <trkpt lat="50.53553" lon="3.48209">
        <ele>35.4</ele>
        <time>2022-04-10T08:49:41.000Z</time>
      </trkpt>
      <trkpt lat="50.53552" lon="3.48217">
        <ele>35.5</ele>
        <time>2022-04-10T08:49:42.000Z</time>
      </trkpt>
      <trkpt lat="50.53551" lon="3.48225">
        <ele>35.6</ele>
        <time>2022-04-10T08:49:43.000Z</time>
      </trkpt>
      <trkpt lat="50.5355" lon="3.48232">
        <ele>35.5</ele>
        <time>2022-04-10T08:49:44.000Z</time>
      </trkpt>
      <trkpt lat="50.53549" lon="3.4824">
        <ele>35.4</ele>
        <time>2022-04-10T08:49:45.000Z</time>
      </trkpt>
      <trkpt lat="50.53548" lon="3.48248">
        <ele>35.4</ele>
        <time>2022-04-10T08:49:46.000Z</time>
      </trkpt>
      <trkpt lat="50.53547" lon="3.48255">
        <ele>35.6</ele>
        <time>2022-04-10T08:49:47.000Z</time>
      </trkpt>
      <trkpt lat="50.53546" lon="3.48263">
        <ele>35.7</ele>
        <time>2022-04-10T08:49:48.000Z</time>
      </trkpt>
      <trkpt lat="50.53545" lon="3.48271">
        <ele>35.9</ele>
        <time>2022-04-10T08:49:49.000Z</time>
      </trkpt>
      <trkpt lat="50.53544" lon="3.48279">
        <ele>36</ele>
        <time>2022-04-10T08:49:50.000Z</time>
      </trkpt>
      <trkpt lat="50.53543" lon="3.48286">
        <ele>35.9</ele>
        <time>2022-04-10T08:49:51.000Z</time>
      </trkpt>
      <trkpt lat="50.53542" lon="3.48294">
        <ele>35.8</ele>
        <time>2022-04-10T08:49:52.000Z</time>
      </trkpt>
      <trkpt lat="50.53541" lon="3.48302">
        <ele>35.7</ele>
        <time>2022-04-10T08:49:53.000Z</time>
      </trkpt>
      <trkpt lat="50.5354" lon="3.48309">
        <ele>35.6</ele>
        <time>2022-04-10T08:49:54.000Z</time>
      </trkpt>
      <trkpt lat="50.5354" lon="3.48317">
        <ele>35.4</ele>
        <time>2022-04-10T08:49:55.000Z</time>
      </trkpt>
      <trkpt lat="50.53539" lon="3.48325">
        <ele>35.2</ele>
        <time>2022-04-10T08:49:56.000Z</time>
      </trkpt>
      <trkpt lat="50.53538" lon="3.48332">
        <ele>34.9</ele>
        <time>2022-04-10T08:49:57.000Z</time>
      </trkpt>
      <trkpt lat="50.53537" lon="3.4834">
        <ele>34.9</ele>
        <time>2022-04-10T08:49:58.000Z</time>
      </trkpt>
      <trkpt lat="50.53536" lon="3.48347">
        <ele>34.8</ele>
        <time>2022-04-10T08:49:59.000Z</time>
      </trkpt>
      <trkpt lat="50.53534" lon="3.48355">
        <ele>34.7</ele>
        <time>2022-04-10T08:50:00.000Z</time>
      </trkpt>
      <trkpt lat="50.53533" lon="3.48362">
        <ele>34.7</ele>
        <time>2022-04-10T08:50:01.000Z</time>
      </trkpt>
      <trkpt lat="50.53531" lon="3.4837">
        <ele>34.8</ele>
        <time>2022-04-10T08:50:02.000Z</time>
      </trkpt>
      <trkpt lat="50.5353" lon="3.48377">
        <ele>34.9</ele>
        <time>2022-04-10T08:50:03.000Z</time>
      </trkpt>
      <trkpt lat="50.53528" lon="3.48385">
        <ele>35</ele>
        <time>2022-04-10T08:50:04.000Z</time>
      </trkpt>
      <trkpt lat="50.53527" lon="3.48392">
        <ele>35</ele>
        <time>2022-04-10T08:50:05.000Z</time>
      </trkpt>
      <trkpt lat="50.53526" lon="3.484">
        <ele>35</ele>
        <time>2022-04-10T08:50:06.000Z</time>
      </trkpt>
      <trkpt lat="50.53525" lon="3.48408">
        <ele>34.9</ele>
        <time>2022-04-10T08:50:07.000Z</time>
      </trkpt>
      <trkpt lat="50.53524" lon="3.48415">
        <ele>35</ele>
        <time>2022-04-10T08:50:08.000Z</time>
      </trkpt>
      <trkpt lat="50.53522" lon="3.48423">
        <ele>35.1</ele>
        <time>2022-04-10T08:50:09.000Z</time>
      </trkpt>
      <trkpt lat="50.53521" lon="3.4843">
        <ele>35.3</ele>
        <time>2022-04-10T08:50:10.000Z</time>
      </trkpt>
      <trkpt lat="50.5352" lon="3.48437">
        <ele>35.5</ele>
        <time>2022-04-10T08:50:11.000Z</time>
      </trkpt>
      <trkpt lat="50.53518" lon="3.48445">
        <ele>35.7</ele>
        <time>2022-04-10T08:50:12.000Z</time>
      </trkpt>
      <trkpt lat="50.53517" lon="3.48452">
        <ele>35.9</ele>
        <time>2022-04-10T08:50:13.000Z</time>
      </trkpt>
      <trkpt lat="50.53515" lon="3.4846">
        <ele>36.1</ele>
        <time>2022-04-10T08:50:14.000Z</time>
      </trkpt>
      <trkpt lat="50.53513" lon="3.48467">
        <ele>36.2</ele>
        <time>2022-04-10T08:50:15.000Z</time>
      </trkpt>
      <trkpt lat="50.53512" lon="3.48475">
        <ele>36.2</ele>
        <time>2022-04-10T08:50:16.000Z</time>
      </trkpt>
      <trkpt lat="50.53511" lon="3.48482">
        <ele>36.1</ele>
        <time>2022-04-10T08:50:17.000Z</time>
      </trkpt>
      <trkpt lat="50.53509" lon="3.4849">
        <ele>36.1</ele>
        <time>2022-04-10T08:50:18.000Z</time>
      </trkpt>
      <trkpt lat="50.53508" lon="3.48497">
        <ele>36</ele>
        <time>2022-04-10T08:50:19.000Z</time>
      </trkpt>
      <trkpt lat="50.53506" lon="3.48504">
        <ele>36</ele>
        <time>2022-04-10T08:50:20.000Z</time>
      </trkpt>
      <trkpt lat="50.53505" lon="3.48512">
        <ele>35.9</ele>
        <time>2022-04-10T08:50:21.000Z</time>
      </trkpt>
      <trkpt lat="50.53504" lon="3.48519">
        <ele>35.9</ele>
        <time>2022-04-10T08:50:22.000Z</time>
      </trkpt>
      <trkpt lat="50.53502" lon="3.48527">
        <ele>35.8</ele>
        <time>2022-04-10T08:50:23.000Z</time>
      </trkpt>
      <trkpt lat="50.53501" lon="3.48534">
        <ele>35.7</ele>
        <time>2022-04-10T08:50:24.000Z</time>
      </trkpt>
      <trkpt lat="50.535" lon="3.48541">
        <ele>35.5</ele>
        <time>2022-04-10T08:50:25.000Z</time>
      </trkpt>
      <trkpt lat="50.53499" lon="3.48549">
        <ele>35.4</ele>
        <time>2022-04-10T08:50:26.000Z</time>
      </trkpt>
      <trkpt lat="50.53498" lon="3.48557">
        <ele>35.3</ele>
        <time>2022-04-10T08:50:27.000Z</time>
      </trkpt>
      <trkpt lat="50.53497" lon="3.48564">
        <ele>35.4</ele>
        <time>2022-04-10T08:50:28.000Z</time>
      </trkpt>
      <trkpt lat="50.53496" lon="3.48571">
        <ele>35.5</ele>
        <time>2022-04-10T08:50:29.000Z</time>
      </trkpt>
      <trkpt lat="50.53495" lon="3.48578">
        <ele>35.5</ele>
        <time>2022-04-10T08:50:30.000Z</time>
      </trkpt>
      <trkpt lat="50.53494" lon="3.48586">
        <ele>35.6</ele>
        <time>2022-04-10T08:50:31.000Z</time>
      </trkpt>
      <trkpt lat="50.53493" lon="3.48593">
        <ele>35.6</ele>
        <time>2022-04-10T08:50:32.000Z</time>
      </trkpt>
      <trkpt lat="50.53492" lon="3.486">
        <ele>35.6</ele>
        <time>2022-04-10T08:50:33.000Z</time>
      </trkpt>
      <trkpt lat="50.53491" lon="3.48607">
        <ele>35.6</ele>
        <time>2022-04-10T08:50:34.000Z</time>
      </trkpt>
      <trkpt lat="50.5349" lon="3.48615">
        <ele>35.7</ele>
        <time>2022-04-10T08:50:35.000Z</time>
      </trkpt>
      <trkpt lat="50.5349" lon="3.48622">
        <ele>35.9</ele>
        <time>2022-04-10T08:50:36.000Z</time>
      </trkpt>
      <trkpt lat="50.53489" lon="3.48629">
        <ele>36</ele>
        <time>2022-04-10T08:50:37.000Z</time>
      </trkpt>
      <trkpt lat="50.53488" lon="3.48636">
        <ele>36.2</ele>
        <time>2022-04-10T08:50:38.000Z</time>
      </trkpt>
      <trkpt lat="50.53487" lon="3.48643">
        <ele>36.1</ele>
        <time>2022-04-10T08:50:39.000Z</time>
      </trkpt>
      <trkpt lat="50.53486" lon="3.4865">
        <ele>35.9</ele>
        <time>2022-04-10T08:50:40.000Z</time>
      </trkpt>
      <trkpt lat="50.53485" lon="3.48657">
        <ele>35.6</ele>
        <time>2022-04-10T08:50:41.000Z</time>
      </trkpt>
      <trkpt lat="50.53484" lon="3.48664">
        <ele>35.5</ele>
        <time>2022-04-10T08:50:42.000Z</time>
      </trkpt>
      <trkpt lat="50.53482" lon="3.48671">
        <ele>35.5</ele>
        <time>2022-04-10T08:50:43.000Z</time>
      </trkpt>
      <trkpt lat="50.53481" lon="3.48678">
        <ele>35.5</ele>
        <time>2022-04-10T08:50:44.000Z</time>
      </trkpt>
      <trkpt lat="50.5348" lon="3.48685">
        <ele>35.4</ele>
        <time>2022-04-10T08:50:45.000Z</time>
      </trkpt>
      <trkpt lat="50.53478" lon="3.48692">
        <ele>35.4</ele>
        <time>2022-04-10T08:50:46.000Z</time>
      </trkpt>
      <trkpt lat="50.53477" lon="3.48699">
        <ele>35.3</ele>
        <time>2022-04-10T08:50:47.000Z</time>
      </trkpt>
      <trkpt lat="50.53476" lon="3.48707">
        <ele>35.2</ele>
        <time>2022-04-10T08:50:48.000Z</time>
      </trkpt>
      <trkpt lat="50.53474" lon="3.48714">
        <ele>35.1</ele>
        <time>2022-04-10T08:50:49.000Z</time>
      </trkpt>
      <trkpt lat="50.53473" lon="3.48721">
        <ele>35</ele>
        <time>2022-04-10T08:50:50.000Z</time>
      </trkpt>
      <trkpt lat="50.53472" lon="3.48728">
        <ele>35.2</ele>
        <time>2022-04-10T08:50:51.000Z</time>
      </trkpt>
      <trkpt lat="50.5347" lon="3.48735">
        <ele>35.4</ele>
        <time>2022-04-10T08:50:52.000Z</time>
      </trkpt>
      <trkpt lat="50.5347" lon="3.48742">
        <ele>35.6</ele>
        <time>2022-04-10T08:50:53.000Z</time>
      </trkpt>
      <trkpt lat="50.53469" lon="3.48749">
        <ele>35.7</ele>
        <time>2022-04-10T08:50:54.000Z</time>
      </trkpt>
      <trkpt lat="50.53468" lon="3.48757">
        <ele>35.6</ele>
        <time>2022-04-10T08:50:55.000Z</time>
      </trkpt>
      <trkpt lat="50.53467" lon="3.48764">
        <ele>35.6</ele>
        <time>2022-04-10T08:50:56.000Z</time>
      </trkpt>
      <trkpt lat="50.53467" lon="3.48772">
        <ele>35.5</ele>
        <time>2022-04-10T08:50:57.000Z</time>
      </trkpt>
      <trkpt lat="50.53466" lon="3.48779">
        <ele>35.4</ele>
        <time>2022-04-10T08:50:58.000Z</time>
      </trkpt>
      <trkpt lat="50.53464" lon="3.48787">
        <ele>35.4</ele>
        <time>2022-04-10T08:50:59.000Z</time>
      </trkpt>
      <trkpt lat="50.53463" lon="3.48795">
        <ele>35.3</ele>
        <time>2022-04-10T08:51:00.000Z</time>
      </trkpt>
      <trkpt lat="50.53463" lon="3.48802">
        <ele>35.2</ele>
        <time>2022-04-10T08:51:01.000Z</time>
      </trkpt>
      <trkpt lat="50.53462" lon="3.4881">
        <ele>35.2</ele>
        <time>2022-04-10T08:51:02.000Z</time>
      </trkpt>
      <trkpt lat="50.53461" lon="3.48817">
        <ele>35.3</ele>
        <time>2022-04-10T08:51:03.000Z</time>
      </trkpt>
      <trkpt lat="50.5346" lon="3.48825">
        <ele>35.4</ele>
        <time>2022-04-10T08:51:04.000Z</time>
      </trkpt>
      <trkpt lat="50.53459" lon="3.48833">
        <ele>35.5</ele>
        <time>2022-04-10T08:51:05.000Z</time>
      </trkpt>
      <trkpt lat="50.53457" lon="3.4884">
        <ele>35.4</ele>
        <time>2022-04-10T08:51:06.000Z</time>
      </trkpt>
      <trkpt lat="50.53456" lon="3.48848">
        <ele>35.3</ele>
        <time>2022-04-10T08:51:07.000Z</time>
      </trkpt>
      <trkpt lat="50.53454" lon="3.48855">
        <ele>35.2</ele>
        <time>2022-04-10T08:51:08.000Z</time>
      </trkpt>
      <trkpt lat="50.53453" lon="3.48862">
        <ele>35.1</ele>
        <time>2022-04-10T08:51:09.000Z</time>
      </trkpt>
      <trkpt lat="50.53452" lon="3.4887">
        <ele>35</ele>
        <time>2022-04-10T08:51:10.000Z</time>
      </trkpt>
      <trkpt lat="50.5345" lon="3.48877">
        <ele>34.9</ele>
        <time>2022-04-10T08:51:11.000Z</time>
      </trkpt>
      <trkpt lat="50.53449" lon="3.48884">
        <ele>34.8</ele>
        <time>2022-04-10T08:51:12.000Z</time>
      </trkpt>
      <trkpt lat="50.53448" lon="3.48892">
        <ele>34.8</ele>
        <time>2022-04-10T08:51:13.000Z</time>
      </trkpt>
      <trkpt lat="50.53446" lon="3.48899">
        <ele>34.9</ele>
        <time>2022-04-10T08:51:14.000Z</time>
      </trkpt>
      <trkpt lat="50.53445" lon="3.48906">
        <ele>35</ele>
        <time>2022-04-10T08:51:15.000Z</time>
      </trkpt>
      <trkpt lat="50.53444" lon="3.48913">
        <ele>35.2</ele>
        <time>2022-04-10T08:51:16.000Z</time>
      </trkpt>
      <trkpt lat="50.53442" lon="3.4892">
        <ele>35.3</ele>
        <time>2022-04-10T08:51:17.000Z</time>
      </trkpt>
      <trkpt lat="50.53441" lon="3.48928">
        <ele>35.3</ele>
        <time>2022-04-10T08:51:18.000Z</time>
      </trkpt>
      <trkpt lat="50.5344" lon="3.48935">
        <ele>35.3</ele>
        <time>2022-04-10T08:51:19.000Z</time>
      </trkpt>
      <trkpt lat="50.53439" lon="3.48942">
        <ele>35.3</ele>
        <time>2022-04-10T08:51:20.000Z</time>
      </trkpt>
      <trkpt lat="50.53438" lon="3.48949">
        <ele>35.4</ele>
        <time>2022-04-10T08:51:21.000Z</time>
      </trkpt>
      <trkpt lat="50.53437" lon="3.48956">
        <ele>35.6</ele>
        <time>2022-04-10T08:51:22.000Z</time>
      </trkpt>
      <trkpt lat="50.53435" lon="3.48963">
        <ele>35.8</ele>
        <time>2022-04-10T08:51:23.000Z</time>
      </trkpt>
      <trkpt lat="50.53434" lon="3.4897">
        <ele>35.9</ele>
        <time>2022-04-10T08:51:24.000Z</time>
      </trkpt>
      <trkpt lat="50.53432" lon="3.48977">
        <ele>36</ele>
        <time>2022-04-10T08:51:25.000Z</time>
      </trkpt>
      <trkpt lat="50.53431" lon="3.48984">
        <ele>36</ele>
        <time>2022-04-10T08:51:26.000Z</time>
      </trkpt>
      <trkpt lat="50.53429" lon="3.48991">
        <ele>36</ele>
        <time>2022-04-10T08:51:27.000Z</time>
      </trkpt>
      <trkpt lat="50.53428" lon="3.48998">
        <ele>36</ele>
        <time>2022-04-10T08:51:28.000Z</time>
      </trkpt>
      <trkpt lat="50.53427" lon="3.49005">
        <ele>35.9</ele>
        <time>2022-04-10T08:51:29.000Z</time>
      </trkpt>
      <trkpt lat="50.53426" lon="3.49012">
        <ele>35.8</ele>
        <time>2022-04-10T08:51:30.000Z</time>
      </trkpt>
      <trkpt lat="50.53424" lon="3.49019">
        <ele>35.6</ele>
        <time>2022-04-10T08:51:31.000Z</time>
      </trkpt>
      <trkpt lat="50.53422" lon="3.49033">
        <ele>35.4</ele>
        <time>2022-04-10T08:51:33.000Z</time>
      </trkpt>
      <trkpt lat="50.53421" lon="3.4904">
        <ele>35.5</ele>
        <time>2022-04-10T08:51:34.000Z</time>
      </trkpt>
      <trkpt lat="50.5342" lon="3.49047">
        <ele>35.6</ele>
        <time>2022-04-10T08:51:35.000Z</time>
      </trkpt>
      <trkpt lat="50.53419" lon="3.49054">
        <ele>35.8</ele>
        <time>2022-04-10T08:51:36.000Z</time>
      </trkpt>
      <trkpt lat="50.53418" lon="3.49061">
        <ele>35.7</ele>
        <time>2022-04-10T08:51:37.000Z</time>
      </trkpt>
      <trkpt lat="50.53416" lon="3.49075">
        <ele>35.6</ele>
        <time>2022-04-10T08:51:39.000Z</time>
      </trkpt>
      <trkpt lat="50.53414" lon="3.49081">
        <ele>35.7</ele>
        <time>2022-04-10T08:51:40.000Z</time>
      </trkpt>
      <trkpt lat="50.53413" lon="3.49089">
        <ele>35.7</ele>
        <time>2022-04-10T08:51:41.000Z</time>
      </trkpt>
      <trkpt lat="50.53412" lon="3.49096">
        <ele>35.7</ele>
        <time>2022-04-10T08:51:42.000Z</time>
      </trkpt>
      <trkpt lat="50.53411" lon="3.49103">
        <ele>35.7</ele>
        <time>2022-04-10T08:51:43.000Z</time>
      </trkpt>
      <trkpt lat="50.5341" lon="3.4911">
        <ele>35.7</ele>
        <time>2022-04-10T08:51:44.000Z</time>
      </trkpt>
      <trkpt lat="50.53409" lon="3.49118">
        <ele>35.9</ele>
        <time>2022-04-10T08:51:45.000Z</time>
      </trkpt>
      <trkpt lat="50.53408" lon="3.49125">
        <ele>36</ele>
        <time>2022-04-10T08:51:46.000Z</time>
      </trkpt>
      <trkpt lat="50.53407" lon="3.49132">
        <ele>36</ele>
        <time>2022-04-10T08:51:47.000Z</time>
      </trkpt>
      <trkpt lat="50.53406" lon="3.4914">
        <ele>35.9</ele>
        <time>2022-04-10T08:51:48.000Z</time>
      </trkpt>
      <trkpt lat="50.53405" lon="3.49147">
        <ele>35.8</ele>
        <time>2022-04-10T08:51:49.000Z</time>
      </trkpt>
      <trkpt lat="50.53404" lon="3.49154">
        <ele>35.7</ele>
        <time>2022-04-10T08:51:50.000Z</time>
      </trkpt>
      <trkpt lat="50.53404" lon="3.49162">
        <ele>35.5</ele>
        <time>2022-04-10T08:51:51.000Z</time>
      </trkpt>
      <trkpt lat="50.53403" lon="3.49169">
        <ele>35.5</ele>
        <time>2022-04-10T08:51:52.000Z</time>
      </trkpt>
      <trkpt lat="50.53402" lon="3.49176">
        <ele>35.5</ele>
        <time>2022-04-10T08:51:53.000Z</time>
      </trkpt>
      <trkpt lat="50.53401" lon="3.49183">
        <ele>35.5</ele>
        <time>2022-04-10T08:51:54.000Z</time>
      </trkpt>
      <trkpt lat="50.534" lon="3.4919">
        <ele>35.6</ele>
        <time>2022-04-10T08:51:55.000Z</time>
      </trkpt>
      <trkpt lat="50.53398" lon="3.49197">
        <ele>35.6</ele>
        <time>2022-04-10T08:51:56.000Z</time>
      </trkpt>
      <trkpt lat="50.53397" lon="3.49205">
        <ele>35.6</ele>
        <time>2022-04-10T08:51:57.000Z</time>
      </trkpt>
      <trkpt lat="50.53395" lon="3.49212">
        <ele>35.6</ele>
        <time>2022-04-10T08:51:58.000Z</time>
      </trkpt>
      <trkpt lat="50.53394" lon="3.49218">
        <ele>35.6</ele>
        <time>2022-04-10T08:51:59.000Z</time>
      </trkpt>
      <trkpt lat="50.53392" lon="3.49225">
        <ele>35.6</ele>
        <time>2022-04-10T08:52:00.000Z</time>
      </trkpt>
      <trkpt lat="50.5339" lon="3.49238">
        <ele>35.3</ele>
        <time>2022-04-10T08:52:02.000Z</time>
      </trkpt>
      <trkpt lat="50.53387" lon="3.49251">
        <ele>35.4</ele>
        <time>2022-04-10T08:52:04.000Z</time>
      </trkpt>
      <trkpt lat="50.53385" lon="3.49262">
        <ele>35.5</ele>
        <time>2022-04-10T08:52:06.000Z</time>
      </trkpt>
      <trkpt lat="50.53384" lon="3.49276">
        <ele>35.4</ele>
        <time>2022-04-10T08:52:08.000Z</time>
      </trkpt>
      <trkpt lat="50.53383" lon="3.49284">
        <ele>35.5</ele>
        <time>2022-04-10T08:52:09.000Z</time>
      </trkpt>
      <trkpt lat="50.53381" lon="3.49292">
        <ele>35.8</ele>
        <time>2022-04-10T08:52:10.000Z</time>
      </trkpt>
      <trkpt lat="50.5338" lon="3.49299">
        <ele>36</ele>
        <time>2022-04-10T08:52:11.000Z</time>
      </trkpt>
      <trkpt lat="50.53379" lon="3.49307">
        <ele>36.2</ele>
        <time>2022-04-10T08:52:12.000Z</time>
      </trkpt>
      <trkpt lat="50.53378" lon="3.49315">
        <ele>36.3</ele>
        <time>2022-04-10T08:52:13.000Z</time>
      </trkpt>
      <trkpt lat="50.53376" lon="3.49322">
        <ele>36.5</ele>
        <time>2022-04-10T08:52:14.000Z</time>
      </trkpt>
      <trkpt lat="50.53375" lon="3.49329">
        <ele>36.7</ele>
        <time>2022-04-10T08:52:15.000Z</time>
      </trkpt>
      <trkpt lat="50.53373" lon="3.49336">
        <ele>36.7</ele>
        <time>2022-04-10T08:52:16.000Z</time>
      </trkpt>
      <trkpt lat="50.53372" lon="3.49343">
        <ele>36.5</ele>
        <time>2022-04-10T08:52:17.000Z</time>
      </trkpt>
      <trkpt lat="50.53371" lon="3.49351">
        <ele>36.2</ele>
        <time>2022-04-10T08:52:18.000Z</time>
      </trkpt>
      <trkpt lat="50.5337" lon="3.49358">
        <ele>36</ele>
        <time>2022-04-10T08:52:19.000Z</time>
      </trkpt>
      <trkpt lat="50.53369" lon="3.49365">
        <ele>35.8</ele>
        <time>2022-04-10T08:52:20.000Z</time>
      </trkpt>
      <trkpt lat="50.53367" lon="3.49378">
        <ele>35.7</ele>
        <time>2022-04-10T08:52:22.000Z</time>
      </trkpt>
      <trkpt lat="50.53365" lon="3.49391">
        <ele>35.5</ele>
        <time>2022-04-10T08:52:24.000Z</time>
      </trkpt>
      <trkpt lat="50.53363" lon="3.49405">
        <ele>35.3</ele>
        <time>2022-04-10T08:52:26.000Z</time>
      </trkpt>
      <trkpt lat="50.53361" lon="3.49416">
        <ele>35</ele>
        <time>2022-04-10T08:52:28.000Z</time>
      </trkpt>
      <trkpt lat="50.5336" lon="3.49428">
        <ele>35.3</ele>
        <time>2022-04-10T08:52:30.000Z</time>
      </trkpt>
      <trkpt lat="50.53358" lon="3.4944">
        <ele>35.7</ele>
        <time>2022-04-10T08:52:32.034Z</time>
      </trkpt>
      <trkpt lat="50.53356" lon="3.49454">
        <ele>35.7</ele>
        <time>2022-04-10T08:52:34.117Z</time>
      </trkpt>
      <trkpt lat="50.53354" lon="3.49466">
        <ele>35.7</ele>
        <time>2022-04-10T08:52:36.000Z</time>
      </trkpt>
      <trkpt lat="50.53353" lon="3.49473">
        <ele>35.7</ele>
        <time>2022-04-10T08:52:37.000Z</time>
      </trkpt>
      <trkpt lat="50.53352" lon="3.49481">
        <ele>35.7</ele>
        <time>2022-04-10T08:52:38.000Z</time>
      </trkpt>
      <trkpt lat="50.5335" lon="3.49494">
        <ele>35.7</ele>
        <time>2022-04-10T08:52:40.000Z</time>
      </trkpt>
      <trkpt lat="50.53348" lon="3.49507">
        <ele>35.7</ele>
        <time>2022-04-10T08:52:42.114Z</time>
      </trkpt>
      <trkpt lat="50.53346" lon="3.49518">
        <ele>35.9</ele>
        <time>2022-04-10T08:52:43.818Z</time>
      </trkpt>
      <trkpt lat="50.53344" lon="3.4953">
        <ele>36.1</ele>
        <time>2022-04-10T08:52:46.000Z</time>
      </trkpt>
      <trkpt lat="50.53341" lon="3.49547">
        <ele>35.6</ele>
        <time>2022-04-10T08:52:48.555Z</time>
      </trkpt>
      <trkpt lat="50.5334" lon="3.49554">
        <ele>35.4</ele>
        <time>2022-04-10T08:52:49.658Z</time>
      </trkpt>
      <trkpt lat="50.53339" lon="3.49563">
        <ele>35.2</ele>
        <time>2022-04-10T08:52:51.000Z</time>
      </trkpt>
      <trkpt lat="50.53337" lon="3.49575">
        <ele>35</ele>
        <time>2022-04-10T08:52:52.914Z</time>
      </trkpt>
      <trkpt lat="50.53335" lon="3.49588">
        <ele>34.9</ele>
        <time>2022-04-10T08:52:55.000Z</time>
      </trkpt>
      <trkpt lat="50.53333" lon="3.496">
        <ele>35</ele>
        <time>2022-04-10T08:52:57.000Z</time>
      </trkpt>
      <trkpt lat="50.53331" lon="3.49612">
        <ele>35.5</ele>
        <time>2022-04-10T08:52:59.000Z</time>
      </trkpt>
      <trkpt lat="50.53329" lon="3.49625">
        <ele>35.6</ele>
        <time>2022-04-10T08:53:01.000Z</time>
      </trkpt>
      <trkpt lat="50.53327" lon="3.49635">
        <ele>35.5</ele>
        <time>2022-04-10T08:53:02.677Z</time>
      </trkpt>
      <trkpt lat="50.53326" lon="3.49643">
        <ele>35.6</ele>
        <time>2022-04-10T08:53:03.953Z</time>
      </trkpt>
      <trkpt lat="50.53324" lon="3.49655">
        <ele>35.9</ele>
        <time>2022-04-10T08:53:05.920Z</time>
      </trkpt>
      <trkpt lat="50.53323" lon="3.49662">
        <ele>36</ele>
        <time>2022-04-10T08:53:07.000Z</time>
      </trkpt>
      <trkpt lat="50.53321" lon="3.49674">
        <ele>36</ele>
        <time>2022-04-10T08:53:09.000Z</time>
      </trkpt>
      <trkpt lat="50.53319" lon="3.49687">
        <ele>35.8</ele>
        <time>2022-04-10T08:53:11.000Z</time>
      </trkpt>
      <trkpt lat="50.53317" lon="3.49699">
        <ele>35.7</ele>
        <time>2022-04-10T08:53:13.000Z</time>
      </trkpt>
      <trkpt lat="50.53316" lon="3.49711">
        <ele>35.4</ele>
        <time>2022-04-10T08:53:15.037Z</time>
      </trkpt>
      <trkpt lat="50.53314" lon="3.49724">
        <ele>35.1</ele>
        <time>2022-04-10T08:53:17.000Z</time>
      </trkpt>
      <trkpt lat="50.53312" lon="3.49736">
        <ele>34.9</ele>
        <time>2022-04-10T08:53:18.915Z</time>
      </trkpt>
      <trkpt lat="50.53311" lon="3.49743">
        <ele>34.8</ele>
        <time>2022-04-10T08:53:20.000Z</time>
      </trkpt>
      <trkpt lat="50.53308" lon="3.49758">
        <ele>34.8</ele>
        <time>2022-04-10T08:53:22.437Z</time>
      </trkpt>
      <trkpt lat="50.53307" lon="3.49768">
        <ele>34.9</ele>
        <time>2022-04-10T08:53:24.000Z</time>
      </trkpt>
      <trkpt lat="50.53305" lon="3.4978">
        <ele>35.2</ele>
        <time>2022-04-10T08:53:26.000Z</time>
      </trkpt>
      <trkpt lat="50.53303" lon="3.49792">
        <ele>35.2</ele>
        <time>2022-04-10T08:53:28.000Z</time>
      </trkpt>
      <trkpt lat="50.53301" lon="3.49805">
        <ele>35.2</ele>
        <time>2022-04-10T08:53:30.036Z</time>
      </trkpt>
      <trkpt lat="50.533" lon="3.49817">
        <ele>35.3</ele>
        <time>2022-04-10T08:53:32.000Z</time>
      </trkpt>
      <trkpt lat="50.53299" lon="3.49825">
        <ele>35.4</ele>
        <time>2022-04-10T08:53:33.157Z</time>
      </trkpt>
      <trkpt lat="50.53297" lon="3.49835">
        <ele>35.5</ele>
        <time>2022-04-10T08:53:34.681Z</time>
      </trkpt>
      <trkpt lat="50.53295" lon="3.49844">
        <ele>35.5</ele>
        <time>2022-04-10T08:53:36.000Z</time>
      </trkpt>
      <trkpt lat="50.53293" lon="3.49857">
        <ele>35.5</ele>
        <time>2022-04-10T08:53:38.000Z</time>
      </trkpt>
      <trkpt lat="50.53291" lon="3.49868">
        <ele>35.5</ele>
        <time>2022-04-10T08:53:39.957Z</time>
      </trkpt>
      <trkpt lat="50.53289" lon="3.49881">
        <ele>35.6</ele>
        <time>2022-04-10T08:53:42.000Z</time>
      </trkpt>
      <trkpt lat="50.53287" lon="3.49893">
        <ele>35.6</ele>
        <time>2022-04-10T08:53:44.000Z</time>
      </trkpt>
      <trkpt lat="50.53286" lon="3.49906">
        <ele>35.4</ele>
        <time>2022-04-10T08:53:46.077Z</time>
      </trkpt>
      <trkpt lat="50.53284" lon="3.4992">
        <ele>35.3</ele>
        <time>2022-04-10T08:53:48.219Z</time>
      </trkpt>
      <trkpt lat="50.53282" lon="3.49932">
        <ele>35.1</ele>
        <time>2022-04-10T08:53:50.000Z</time>
      </trkpt>
      <trkpt lat="50.5328" lon="3.49944">
        <ele>34.9</ele>
        <time>2022-04-10T08:53:52.000Z</time>
      </trkpt>
      <trkpt lat="50.53277" lon="3.49957">
        <ele>34.7</ele>
        <time>2022-04-10T08:53:54.000Z</time>
      </trkpt>
      <trkpt lat="50.53275" lon="3.49969">
        <ele>34.8</ele>
        <time>2022-04-10T08:53:56.000Z</time>
      </trkpt>
      <trkpt lat="50.53273" lon="3.49982">
        <ele>35.1</ele>
        <time>2022-04-10T08:53:57.960Z</time>
      </trkpt>
      <trkpt lat="50.53272" lon="3.49989">
        <ele>35.3</ele>
        <time>2022-04-10T08:53:59.113Z</time>
      </trkpt>
      <trkpt lat="50.5327" lon="3.50004">
        <ele>35.3</ele>
        <time>2022-04-10T08:54:01.335Z</time>
      </trkpt>
      <trkpt lat="50.53268" lon="3.50012">
        <ele>35.3</ele>
        <time>2022-04-10T08:54:02.638Z</time>
      </trkpt>
      <trkpt lat="50.53267" lon="3.5002">
        <ele>35.3</ele>
        <time>2022-04-10T08:54:04.000Z</time>
      </trkpt>
      <trkpt lat="50.53265" lon="3.50033">
        <ele>35.3</ele>
        <time>2022-04-10T08:54:06.000Z</time>
      </trkpt>
      <trkpt lat="50.53263" lon="3.50044">
        <ele>35.4</ele>
        <time>2022-04-10T08:54:07.935Z</time>
      </trkpt>
      <trkpt lat="50.5326" lon="3.50056">
        <ele>35.5</ele>
        <time>2022-04-10T08:54:10.000Z</time>
      </trkpt>
      <trkpt lat="50.53257" lon="3.50069">
        <ele>35.3</ele>
        <time>2022-04-10T08:54:12.000Z</time>
      </trkpt>
      <trkpt lat="50.53256" lon="3.50081">
        <ele>34.8</ele>
        <time>2022-04-10T08:54:13.917Z</time>
      </trkpt>
      <trkpt lat="50.53254" lon="3.50088">
        <ele>34.7</ele>
        <time>2022-04-10T08:54:15.000Z</time>
      </trkpt>
      <trkpt lat="50.53251" lon="3.501">
        <ele>34.9</ele>
        <time>2022-04-10T08:54:17.000Z</time>
      </trkpt>
      <trkpt lat="50.53249" lon="3.50112">
        <ele>35.2</ele>
        <time>2022-04-10T08:54:18.896Z</time>
      </trkpt>
      <trkpt lat="50.53246" lon="3.50125">
        <ele>35.3</ele>
        <time>2022-04-10T08:54:20.959Z</time>
      </trkpt>
      <trkpt lat="50.53245" lon="3.50132">
        <ele>35.3</ele>
        <time>2022-04-10T08:54:22.037Z</time>
      </trkpt>
      <trkpt lat="50.53243" lon="3.50139">
        <ele>35.2</ele>
        <time>2022-04-10T08:54:23.093Z</time>
      </trkpt>
      <trkpt lat="50.53242" lon="3.50147">
        <ele>35.2</ele>
        <time>2022-04-10T08:54:24.097Z</time>
      </trkpt>
      <trkpt lat="50.5324" lon="3.50154">
        <ele>35.2</ele>
        <time>2022-04-10T08:54:25.178Z</time>
      </trkpt>
      <trkpt lat="50.53238" lon="3.50166">
        <ele>35.2</ele>
        <time>2022-04-10T08:54:27.000Z</time>
      </trkpt>
      <trkpt lat="50.53233" lon="3.50184">
        <ele>35.3</ele>
        <time>2022-04-10T08:54:30.118Z</time>
      </trkpt>
      <trkpt lat="50.53231" lon="3.50196">
        <ele>35</ele>
        <time>2022-04-10T08:54:32.000Z</time>
      </trkpt>
      <trkpt lat="50.53228" lon="3.50209">
        <ele>35</ele>
        <time>2022-04-10T08:54:34.000Z</time>
      </trkpt>
      <trkpt lat="50.53225" lon="3.50221">
        <ele>34.9</ele>
        <time>2022-04-10T08:54:36.000Z</time>
      </trkpt>
      <trkpt lat="50.53222" lon="3.50233">
        <ele>35.2</ele>
        <time>2022-04-10T08:54:38.000Z</time>
      </trkpt>
      <trkpt lat="50.53219" lon="3.50245">
        <ele>35.6</ele>
        <time>2022-04-10T08:54:40.000Z</time>
      </trkpt>
      <trkpt lat="50.53217" lon="3.50252">
        <ele>35.8</ele>
        <time>2022-04-10T08:54:41.000Z</time>
      </trkpt>
      <trkpt lat="50.53216" lon="3.50259">
        <ele>35.6</ele>
        <time>2022-04-10T08:54:42.000Z</time>
      </trkpt>
      <trkpt lat="50.53214" lon="3.50265">
        <ele>35.6</ele>
        <time>2022-04-10T08:54:43.000Z</time>
      </trkpt>
      <trkpt lat="50.53212" lon="3.50279">
        <ele>35.3</ele>
        <time>2022-04-10T08:54:45.000Z</time>
      </trkpt>
      <trkpt lat="50.53209" lon="3.50292">
        <ele>35.2</ele>
        <time>2022-04-10T08:54:47.000Z</time>
      </trkpt>
      <trkpt lat="50.53206" lon="3.50304">
        <ele>34.8</ele>
        <time>2022-04-10T08:54:49.000Z</time>
      </trkpt>
      <trkpt lat="50.53203" lon="3.50317">
        <ele>34.8</ele>
        <time>2022-04-10T08:54:51.000Z</time>
      </trkpt>
      <trkpt lat="50.532" lon="3.5033">
        <ele>34.7</ele>
        <time>2022-04-10T08:54:53.000Z</time>
      </trkpt>
      <trkpt lat="50.53198" lon="3.50337">
        <ele>34.6</ele>
        <time>2022-04-10T08:54:54.000Z</time>
      </trkpt>
      <trkpt lat="50.53196" lon="3.50344">
        <ele>34.5</ele>
        <time>2022-04-10T08:54:55.156Z</time>
      </trkpt>
      <trkpt lat="50.53194" lon="3.50352">
        <ele>34.4</ele>
        <time>2022-04-10T08:54:56.395Z</time>
      </trkpt>
      <trkpt lat="50.53192" lon="3.50359">
        <ele>34.6</ele>
        <time>2022-04-10T08:54:57.496Z</time>
      </trkpt>
      <trkpt lat="50.5319" lon="3.50366">
        <ele>34.7</ele>
        <time>2022-04-10T08:54:58.714Z</time>
      </trkpt>
      <trkpt lat="50.53187" lon="3.50379">
        <ele>34.9</ele>
        <time>2022-04-10T08:55:00.715Z</time>
      </trkpt>
      <trkpt lat="50.53184" lon="3.50386">
        <ele>34.9</ele>
        <time>2022-04-10T08:55:02.017Z</time>
      </trkpt>
      <trkpt lat="50.53181" lon="3.504">
        <ele>35.1</ele>
        <time>2022-04-10T08:55:04.276Z</time>
      </trkpt>
      <trkpt lat="50.53178" lon="3.50411">
        <ele>35.1</ele>
        <time>2022-04-10T08:55:06.137Z</time>
      </trkpt>
      <trkpt lat="50.53176" lon="3.50419">
        <ele>35</ele>
        <time>2022-04-10T08:55:07.480Z</time>
      </trkpt>
      <trkpt lat="50.53173" lon="3.50432">
        <ele>34.9</ele>
        <time>2022-04-10T08:55:09.615Z</time>
      </trkpt>
      <trkpt lat="50.5317" lon="3.50438">
        <ele>34.9</ele>
        <time>2022-04-10T08:55:10.896Z</time>
      </trkpt>
      <trkpt lat="50.53165" lon="3.50449">
        <ele>35.1</ele>
        <time>2022-04-10T08:55:13.000Z</time>
      </trkpt>
      <trkpt lat="50.53163" lon="3.50456">
        <ele>35.4</ele>
        <time>2022-04-10T08:55:14.376Z</time>
      </trkpt>
      <trkpt lat="50.53159" lon="3.50467">
        <ele>35.6</ele>
        <time>2022-04-10T08:55:16.479Z</time>
      </trkpt>
      <trkpt lat="50.53154" lon="3.50481">
        <ele>35.7</ele>
        <time>2022-04-10T08:55:19.000Z</time>
      </trkpt>
      <trkpt lat="50.5315" lon="3.50491">
        <ele>35.5</ele>
        <time>2022-04-10T08:55:20.936Z</time>
      </trkpt>
      <trkpt lat="50.53148" lon="3.50498">
        <ele>35.1</ele>
        <time>2022-04-10T08:55:22.157Z</time>
      </trkpt>
      <trkpt lat="50.53144" lon="3.50509">
        <ele>35.2</ele>
        <time>2022-04-10T08:55:24.000Z</time>
      </trkpt>
      <trkpt lat="50.53141" lon="3.5052">
        <ele>35.1</ele>
        <time>2022-04-10T08:55:26.058Z</time>
      </trkpt>
      <trkpt lat="50.53138" lon="3.50531">
        <ele>35.1</ele>
        <time>2022-04-10T08:55:28.000Z</time>
      </trkpt>
      <trkpt lat="50.53135" lon="3.50542">
        <ele>35.4</ele>
        <time>2022-04-10T08:55:30.000Z</time>
      </trkpt>
      <trkpt lat="50.53132" lon="3.50552">
        <ele>35.4</ele>
        <time>2022-04-10T08:55:32.115Z</time>
      </trkpt>
      <trkpt lat="50.5313" lon="3.5056">
        <ele>35.4</ele>
        <time>2022-04-10T08:55:33.354Z</time>
      </trkpt>
      <trkpt lat="50.53127" lon="3.50568">
        <ele>35.3</ele>
        <time>2022-04-10T08:55:35.000Z</time>
      </trkpt>
      <trkpt lat="50.53123" lon="3.5058">
        <ele>34.9</ele>
        <time>2022-04-10T08:55:37.175Z</time>
      </trkpt>
      <trkpt lat="50.53119" lon="3.50591">
        <ele>34.9</ele>
        <time>2022-04-10T08:55:39.000Z</time>
      </trkpt>
      <trkpt lat="50.53116" lon="3.50603">
        <ele>34.9</ele>
        <time>2022-04-10T08:55:41.000Z</time>
      </trkpt>
      <trkpt lat="50.53112" lon="3.50614">
        <ele>34.8</ele>
        <time>2022-04-10T08:55:43.000Z</time>
      </trkpt>
      <trkpt lat="50.53109" lon="3.50625">
        <ele>34.9</ele>
        <time>2022-04-10T08:55:45.000Z</time>
      </trkpt>
      <trkpt lat="50.53105" lon="3.50637">
        <ele>35.1</ele>
        <time>2022-04-10T08:55:47.000Z</time>
      </trkpt>
      <trkpt lat="50.53102" lon="3.50649">
        <ele>35.1</ele>
        <time>2022-04-10T08:55:49.000Z</time>
      </trkpt>
      <trkpt lat="50.531" lon="3.50655">
        <ele>35</ele>
        <time>2022-04-10T08:55:50.000Z</time>
      </trkpt>
      <trkpt lat="50.53097" lon="3.50662">
        <ele>34.9</ele>
        <time>2022-04-10T08:55:51.000Z</time>
      </trkpt>
      <trkpt lat="50.53093" lon="3.50673">
        <ele>34.8</ele>
        <time>2022-04-10T08:55:53.000Z</time>
      </trkpt>
      <trkpt lat="50.5309" lon="3.50685">
        <ele>34.8</ele>
        <time>2022-04-10T08:55:55.037Z</time>
      </trkpt>
      <trkpt lat="50.53086" lon="3.50697">
        <ele>34.7</ele>
        <time>2022-04-10T08:55:57.000Z</time>
      </trkpt>
      <trkpt lat="50.53083" lon="3.50703">
        <ele>34.7</ele>
        <time>2022-04-10T08:55:58.000Z</time>
      </trkpt>
      <trkpt lat="50.53079" lon="3.50715">
        <ele>35.1</ele>
        <time>2022-04-10T08:55:59.955Z</time>
      </trkpt>
      <trkpt lat="50.53077" lon="3.50722">
        <ele>35.1</ele>
        <time>2022-04-10T08:56:01.135Z</time>
      </trkpt>
      <trkpt lat="50.53075" lon="3.50728">
        <ele>35.1</ele>
        <time>2022-04-10T08:56:02.199Z</time>
      </trkpt>
      <trkpt lat="50.53072" lon="3.50739">
        <ele>35</ele>
        <time>2022-04-10T08:56:04.000Z</time>
      </trkpt>
      <trkpt lat="50.53068" lon="3.5075">
        <ele>34.7</ele>
        <time>2022-04-10T08:56:06.000Z</time>
      </trkpt>
      <trkpt lat="50.53063" lon="3.5076">
        <ele>34.9</ele>
        <time>2022-04-10T08:56:07.975Z</time>
      </trkpt>
      <trkpt lat="50.53059" lon="3.50771">
        <ele>35</ele>
        <time>2022-04-10T08:56:09.916Z</time>
      </trkpt>
      <trkpt lat="50.53055" lon="3.50783">
        <ele>34.8</ele>
        <time>2022-04-10T08:56:12.000Z</time>
      </trkpt>
      <trkpt lat="50.53049" lon="3.50799">
        <ele>34.7</ele>
        <time>2022-04-10T08:56:15.000Z</time>
      </trkpt>
      <trkpt lat="50.53045" lon="3.50809">
        <ele>34.7</ele>
        <time>2022-04-10T08:56:17.000Z</time>
      </trkpt>
      <trkpt lat="50.53042" lon="3.50819">
        <ele>34.7</ele>
        <time>2022-04-10T08:56:18.915Z</time>
      </trkpt>
      <trkpt lat="50.53038" lon="3.5083">
        <ele>34.5</ele>
        <time>2022-04-10T08:56:21.000Z</time>
      </trkpt>
      <trkpt lat="50.53034" lon="3.5084">
        <ele>34.4</ele>
        <time>2022-04-10T08:56:23.000Z</time>
      </trkpt>
      <trkpt lat="50.53029" lon="3.50851">
        <ele>34.3</ele>
        <time>2022-04-10T08:56:25.000Z</time>
      </trkpt>
      <trkpt lat="50.53024" lon="3.50862">
        <ele>34.7</ele>
        <time>2022-04-10T08:56:27.000Z</time>
      </trkpt>
      <trkpt lat="50.53022" lon="3.50868">
        <ele>34.9</ele>
        <time>2022-04-10T08:56:28.000Z</time>
      </trkpt>
      <trkpt lat="50.53015" lon="3.50884">
        <ele>35.2</ele>
        <time>2022-04-10T08:56:30.856Z</time>
      </trkpt>
      <trkpt lat="50.53013" lon="3.5089">
        <ele>35.1</ele>
        <time>2022-04-10T08:56:32.021Z</time>
      </trkpt>
      <trkpt lat="50.53008" lon="3.50901">
        <ele>35.2</ele>
        <time>2022-04-10T08:56:34.000Z</time>
      </trkpt>
      <trkpt lat="50.53006" lon="3.50907">
        <ele>35.1</ele>
        <time>2022-04-10T08:56:35.139Z</time>
      </trkpt>
      <trkpt lat="50.53001" lon="3.50919">
        <ele>34.9</ele>
        <time>2022-04-10T08:56:37.000Z</time>
      </trkpt>
      <trkpt lat="50.52997" lon="3.50929">
        <ele>35.4</ele>
        <time>2022-04-10T08:56:39.000Z</time>
      </trkpt>
      <trkpt lat="50.52993" lon="3.5094">
        <ele>35.8</ele>
        <time>2022-04-10T08:56:41.000Z</time>
      </trkpt>
      <trkpt lat="50.52988" lon="3.50951">
        <ele>35.8</ele>
        <time>2022-04-10T08:56:43.000Z</time>
      </trkpt>
      <trkpt lat="50.52984" lon="3.50963">
        <ele>35.3</ele>
        <time>2022-04-10T08:56:45.000Z</time>
      </trkpt>
      <trkpt lat="50.52978" lon="3.50975">
        <ele>34.8</ele>
        <time>2022-04-10T08:56:47.137Z</time>
      </trkpt>
      <trkpt lat="50.52974" lon="3.50983">
        <ele>34.9</ele>
        <time>2022-04-10T08:56:48.533Z</time>
      </trkpt>
      <trkpt lat="50.52971" lon="3.5099">
        <ele>35.2</ele>
        <time>2022-04-10T08:56:49.758Z</time>
      </trkpt>
      <trkpt lat="50.52967" lon="3.50997">
        <ele>35.6</ele>
        <time>2022-04-10T08:56:51.000Z</time>
      </trkpt>
      <trkpt lat="50.52963" lon="3.51008">
        <ele>35.6</ele>
        <time>2022-04-10T08:56:53.000Z</time>
      </trkpt>
      <trkpt lat="50.5296" lon="3.51014">
        <ele>35.4</ele>
        <time>2022-04-10T08:56:54.000Z</time>
      </trkpt>
      <trkpt lat="50.52957" lon="3.5102">
        <ele>35.1</ele>
        <time>2022-04-10T08:56:55.000Z</time>
      </trkpt>
      <trkpt lat="50.52952" lon="3.51031">
        <ele>34.7</ele>
        <time>2022-04-10T08:56:57.000Z</time>
      </trkpt>
      <trkpt lat="50.52947" lon="3.51041">
        <ele>34.9</ele>
        <time>2022-04-10T08:56:58.916Z</time>
      </trkpt>
      <trkpt lat="50.52943" lon="3.51047">
        <ele>35.2</ele>
        <time>2022-04-10T08:57:00.000Z</time>
      </trkpt>
      <trkpt lat="50.52938" lon="3.51057">
        <ele>35.7</ele>
        <time>2022-04-10T08:57:02.000Z</time>
      </trkpt>
      <trkpt lat="50.52935" lon="3.51063">
        <ele>35.6</ele>
        <time>2022-04-10T08:57:03.000Z</time>
      </trkpt>
      <trkpt lat="50.52931" lon="3.51068">
        <ele>35.5</ele>
        <time>2022-04-10T08:57:04.000Z</time>
      </trkpt>
      <trkpt lat="50.52928" lon="3.51074">
        <ele>35.3</ele>
        <time>2022-04-10T08:57:05.000Z</time>
      </trkpt>
      <trkpt lat="50.52925" lon="3.5108">
        <ele>35</ele>
        <time>2022-04-10T08:57:06.000Z</time>
      </trkpt>
      <trkpt lat="50.52922" lon="3.51086">
        <ele>34.8</ele>
        <time>2022-04-10T08:57:07.000Z</time>
      </trkpt>
      <trkpt lat="50.52919" lon="3.51091">
        <ele>34.9</ele>
        <time>2022-04-10T08:57:08.000Z</time>
      </trkpt>
      <trkpt lat="50.52916" lon="3.51097">
        <ele>35.1</ele>
        <time>2022-04-10T08:57:09.000Z</time>
      </trkpt>
      <trkpt lat="50.5291" lon="3.51108">
        <ele>35.7</ele>
        <time>2022-04-10T08:57:11.000Z</time>
      </trkpt>
      <trkpt lat="50.52904" lon="3.51115">
        <ele>36.1</ele>
        <time>2022-04-10T08:57:13.000Z</time>
      </trkpt>
      <trkpt lat="50.52898" lon="3.51125">
        <ele>35.8</ele>
        <time>2022-04-10T08:57:15.000Z</time>
      </trkpt>
      <trkpt lat="50.52896" lon="3.51132">
        <ele>35.4</ele>
        <time>2022-04-10T08:57:16.000Z</time>
      </trkpt>
      <trkpt lat="50.52891" lon="3.51143">
        <ele>34.8</ele>
        <time>2022-04-10T08:57:18.000Z</time>
      </trkpt>
      <trkpt lat="50.52886" lon="3.51153">
        <ele>34.8</ele>
        <time>2022-04-10T08:57:20.000Z</time>
      </trkpt>
      <trkpt lat="50.5288" lon="3.51164">
        <ele>35</ele>
        <time>2022-04-10T08:57:22.000Z</time>
      </trkpt>
      <trkpt lat="50.52876" lon="3.51171">
        <ele>35.3</ele>
        <time>2022-04-10T08:57:23.717Z</time>
      </trkpt>
      <trkpt lat="50.52872" lon="3.51178">
        <ele>35.3</ele>
        <time>2022-04-10T08:57:25.000Z</time>
      </trkpt>
      <trkpt lat="50.52867" lon="3.51187">
        <ele>35.2</ele>
        <time>2022-04-10T08:57:27.000Z</time>
      </trkpt>
      <trkpt lat="50.52861" lon="3.51198">
        <ele>35</ele>
        <time>2022-04-10T08:57:29.000Z</time>
      </trkpt>
      <trkpt lat="50.52855" lon="3.51208">
        <ele>35.4</ele>
        <time>2022-04-10T08:57:30.976Z</time>
      </trkpt>
      <trkpt lat="50.52852" lon="3.51214">
        <ele>35.6</ele>
        <time>2022-04-10T08:57:32.154Z</time>
      </trkpt>
      <trkpt lat="50.52847" lon="3.51225">
        <ele>35.9</ele>
        <time>2022-04-10T08:57:34.155Z</time>
      </trkpt>
      <trkpt lat="50.52841" lon="3.51236">
        <ele>35.6</ele>
        <time>2022-04-10T08:57:36.000Z</time>
      </trkpt>
      <trkpt lat="50.52838" lon="3.51241">
        <ele>35.4</ele>
        <time>2022-04-10T08:57:37.000Z</time>
      </trkpt>
      <trkpt lat="50.52832" lon="3.51252">
        <ele>35.1</ele>
        <time>2022-04-10T08:57:39.000Z</time>
      </trkpt>
      <trkpt lat="50.52829" lon="3.51257">
        <ele>35.3</ele>
        <time>2022-04-10T08:57:40.000Z</time>
      </trkpt>
      <trkpt lat="50.52825" lon="3.51265">
        <ele>35.4</ele>
        <time>2022-04-10T08:57:41.513Z</time>
      </trkpt>
      <trkpt lat="50.52819" lon="3.51275">
        <ele>35.6</ele>
        <time>2022-04-10T08:57:43.497Z</time>
      </trkpt>
      <trkpt lat="50.52812" lon="3.51287">
        <ele>35.4</ele>
        <time>2022-04-10T08:57:46.000Z</time>
      </trkpt>
      <trkpt lat="50.52807" lon="3.51299">
        <ele>35.2</ele>
        <time>2022-04-10T08:57:48.000Z</time>
      </trkpt>
      <trkpt lat="50.52804" lon="3.51304">
        <ele>35.2</ele>
        <time>2022-04-10T08:57:49.000Z</time>
      </trkpt>
      <trkpt lat="50.52798" lon="3.51314">
        <ele>35.2</ele>
        <time>2022-04-10T08:57:51.000Z</time>
      </trkpt>
      <trkpt lat="50.52793" lon="3.51325">
        <ele>35.2</ele>
        <time>2022-04-10T08:57:53.000Z</time>
      </trkpt>
      <trkpt lat="50.52787" lon="3.51335">
        <ele>35.3</ele>
        <time>2022-04-10T08:57:55.000Z</time>
      </trkpt>
      <trkpt lat="50.52784" lon="3.51341">
        <ele>35.3</ele>
        <time>2022-04-10T08:57:56.000Z</time>
      </trkpt>
      <trkpt lat="50.52781" lon="3.51347">
        <ele>35.3</ele>
        <time>2022-04-10T08:57:57.000Z</time>
      </trkpt>
      <trkpt lat="50.52778" lon="3.51353">
        <ele>35.3</ele>
        <time>2022-04-10T08:57:58.000Z</time>
      </trkpt>
      <trkpt lat="50.52775" lon="3.51359">
        <ele>35.4</ele>
        <time>2022-04-10T08:57:59.000Z</time>
      </trkpt>
      <trkpt lat="50.52772" lon="3.51364">
        <ele>35.5</ele>
        <time>2022-04-10T08:58:00.000Z</time>
      </trkpt>
      <trkpt lat="50.52769" lon="3.5137">
        <ele>35.4</ele>
        <time>2022-04-10T08:58:01.000Z</time>
      </trkpt>
      <trkpt lat="50.52766" lon="3.51376">
        <ele>35.3</ele>
        <time>2022-04-10T08:58:02.000Z</time>
      </trkpt>
      <trkpt lat="50.52763" lon="3.51382">
        <ele>35</ele>
        <time>2022-04-10T08:58:03.000Z</time>
      </trkpt>
      <trkpt lat="50.5276" lon="3.51387">
        <ele>34.8</ele>
        <time>2022-04-10T08:58:04.000Z</time>
      </trkpt>
      <trkpt lat="50.52757" lon="3.51393">
        <ele>34.6</ele>
        <time>2022-04-10T08:58:05.000Z</time>
      </trkpt>
      <trkpt lat="50.52755" lon="3.51398">
        <ele>34.5</ele>
        <time>2022-04-10T08:58:06.000Z</time>
      </trkpt>
      <trkpt lat="50.52752" lon="3.51404">
        <ele>34.4</ele>
        <time>2022-04-10T08:58:07.000Z</time>
      </trkpt>
      <trkpt lat="50.52749" lon="3.5141">
        <ele>34.4</ele>
        <time>2022-04-10T08:58:08.000Z</time>
      </trkpt>
      <trkpt lat="50.52746" lon="3.51416">
        <ele>34.6</ele>
        <time>2022-04-10T08:58:09.000Z</time>
      </trkpt>
      <trkpt lat="50.52743" lon="3.51422">
        <ele>34.8</ele>
        <time>2022-04-10T08:58:10.000Z</time>
      </trkpt>
      <trkpt lat="50.5274" lon="3.51428">
        <ele>35</ele>
        <time>2022-04-10T08:58:11.000Z</time>
      </trkpt>
      <trkpt lat="50.52737" lon="3.51434">
        <ele>35.2</ele>
        <time>2022-04-10T08:58:12.000Z</time>
      </trkpt>
      <trkpt lat="50.52732" lon="3.51444">
        <ele>35.7</ele>
        <time>2022-04-10T08:58:14.000Z</time>
      </trkpt>
      <trkpt lat="50.52727" lon="3.51453">
        <ele>35.6</ele>
        <time>2022-04-10T08:58:16.000Z</time>
      </trkpt>
      <trkpt lat="50.52722" lon="3.51462">
        <ele>35.1</ele>
        <time>2022-04-10T08:58:18.000Z</time>
      </trkpt>
      <trkpt lat="50.52719" lon="3.51467">
        <ele>35</ele>
        <time>2022-04-10T08:58:19.000Z</time>
      </trkpt>
      <trkpt lat="50.52716" lon="3.51473">
        <ele>35</ele>
        <time>2022-04-10T08:58:20.000Z</time>
      </trkpt>
      <trkpt lat="50.52717" lon="3.5148">
        <ele>34.5</ele>
        <time>2022-04-10T08:58:22.000Z</time>
      </trkpt>
      <trkpt lat="50.5271" lon="3.51493">
        <ele>34.5</ele>
        <time>2022-04-10T08:58:24.000Z</time>
      </trkpt>
      <trkpt lat="50.52707" lon="3.51498">
        <ele>34.3</ele>
        <time>2022-04-10T08:58:25.000Z</time>
      </trkpt>
      <trkpt lat="50.52704" lon="3.51503">
        <ele>34.3</ele>
        <time>2022-04-10T08:58:25.946Z</time>
      </trkpt>
      <trkpt lat="50.52699" lon="3.51509">
        <ele>34.4</ele>
        <time>2022-04-10T08:58:27.007Z</time>
      </trkpt>
      <trkpt lat="50.52696" lon="3.51515">
        <ele>34.4</ele>
        <time>2022-04-10T08:58:27.988Z</time>
      </trkpt>
      <trkpt lat="50.52693" lon="3.51522">
        <ele>34.4</ele>
        <time>2022-04-10T08:58:29.028Z</time>
      </trkpt>
      <trkpt lat="50.5269" lon="3.51527">
        <ele>34.7</ele>
        <time>2022-04-10T08:58:30.000Z</time>
      </trkpt>
      <trkpt lat="50.52687" lon="3.51534">
        <ele>34.9</ele>
        <time>2022-04-10T08:58:31.000Z</time>
      </trkpt>
      <trkpt lat="50.52684" lon="3.5154">
        <ele>35</ele>
        <time>2022-04-10T08:58:32.000Z</time>
      </trkpt>
      <trkpt lat="50.52682" lon="3.51546">
        <ele>34.9</ele>
        <time>2022-04-10T08:58:33.000Z</time>
      </trkpt>
      <trkpt lat="50.52678" lon="3.51553">
        <ele>34.8</ele>
        <time>2022-04-10T08:58:34.000Z</time>
      </trkpt>
      <trkpt lat="50.52674" lon="3.51559">
        <ele>34.5</ele>
        <time>2022-04-10T08:58:35.000Z</time>
      </trkpt>
      <trkpt lat="50.52671" lon="3.51564">
        <ele>34.3</ele>
        <time>2022-04-10T08:58:36.000Z</time>
      </trkpt>
      <trkpt lat="50.52668" lon="3.5157">
        <ele>33.9</ele>
        <time>2022-04-10T08:58:37.000Z</time>
      </trkpt>
      <trkpt lat="50.52665" lon="3.51576">
        <ele>33.6</ele>
        <time>2022-04-10T08:58:38.000Z</time>
      </trkpt>
      <trkpt lat="50.52661" lon="3.51582">
        <ele>33.6</ele>
        <time>2022-04-10T08:58:39.000Z</time>
      </trkpt>
      <trkpt lat="50.52658" lon="3.51588">
        <ele>33.9</ele>
        <time>2022-04-10T08:58:40.000Z</time>
      </trkpt>
      <trkpt lat="50.52655" lon="3.51594">
        <ele>34.1</ele>
        <time>2022-04-10T08:58:41.000Z</time>
      </trkpt>
      <trkpt lat="50.52652" lon="3.516">
        <ele>34.3</ele>
        <time>2022-04-10T08:58:42.000Z</time>
      </trkpt>
      <trkpt lat="50.52649" lon="3.51605">
        <ele>34.4</ele>
        <time>2022-04-10T08:58:43.000Z</time>
      </trkpt>
      <trkpt lat="50.52646" lon="3.51611">
        <ele>34.5</ele>
        <time>2022-04-10T08:58:44.000Z</time>
      </trkpt>
      <trkpt lat="50.52643" lon="3.51618">
        <ele>34.3</ele>
        <time>2022-04-10T08:58:45.000Z</time>
      </trkpt>
      <trkpt lat="50.5264" lon="3.51623">
        <ele>34.1</ele>
        <time>2022-04-10T08:58:46.000Z</time>
      </trkpt>
      <trkpt lat="50.52637" lon="3.51629">
        <ele>33.6</ele>
        <time>2022-04-10T08:58:47.000Z</time>
      </trkpt>
      <trkpt lat="50.52635" lon="3.51636">
        <ele>33.2</ele>
        <time>2022-04-10T08:58:48.000Z</time>
      </trkpt>
      <trkpt lat="50.52632" lon="3.51642">
        <ele>33.1</ele>
        <time>2022-04-10T08:58:49.000Z</time>
      </trkpt>
      <trkpt lat="50.52629" lon="3.51648">
        <ele>33.2</ele>
        <time>2022-04-10T08:58:50.000Z</time>
      </trkpt>
      <trkpt lat="50.52626" lon="3.51654">
        <ele>33.5</ele>
        <time>2022-04-10T08:58:51.000Z</time>
      </trkpt>
      <trkpt lat="50.52623" lon="3.5166">
        <ele>33.9</ele>
        <time>2022-04-10T08:58:52.000Z</time>
      </trkpt>
      <trkpt lat="50.5262" lon="3.51666">
        <ele>34.3</ele>
        <time>2022-04-10T08:58:53.000Z</time>
      </trkpt>
      <trkpt lat="50.52617" lon="3.51672">
        <ele>34.4</ele>
        <time>2022-04-10T08:58:54.000Z</time>
      </trkpt>
      <trkpt lat="50.52615" lon="3.51678">
        <ele>34.4</ele>
        <time>2022-04-10T08:58:55.000Z</time>
      </trkpt>
      <trkpt lat="50.52612" lon="3.51684">
        <ele>34.3</ele>
        <time>2022-04-10T08:58:56.000Z</time>
      </trkpt>
      <trkpt lat="50.52609" lon="3.51691">
        <ele>34</ele>
        <time>2022-04-10T08:58:57.000Z</time>
      </trkpt>
      <trkpt lat="50.52607" lon="3.51697">
        <ele>33.6</ele>
        <time>2022-04-10T08:58:58.000Z</time>
      </trkpt>
      <trkpt lat="50.52604" lon="3.51703">
        <ele>33.4</ele>
        <time>2022-04-10T08:58:59.000Z</time>
      </trkpt>
      <trkpt lat="50.52602" lon="3.51709">
        <ele>33.3</ele>
        <time>2022-04-10T08:59:00.000Z</time>
      </trkpt>
      <trkpt lat="50.52599" lon="3.51716">
        <ele>33.4</ele>
        <time>2022-04-10T08:59:01.000Z</time>
      </trkpt>
      <trkpt lat="50.52597" lon="3.51722">
        <ele>33.5</ele>
        <time>2022-04-10T08:59:02.000Z</time>
      </trkpt>
      <trkpt lat="50.52594" lon="3.51728">
        <ele>33.8</ele>
        <time>2022-04-10T08:59:03.000Z</time>
      </trkpt>
      <trkpt lat="50.52591" lon="3.51734">
        <ele>34</ele>
        <time>2022-04-10T08:59:04.000Z</time>
      </trkpt>
      <trkpt lat="50.52589" lon="3.51741">
        <ele>34.3</ele>
        <time>2022-04-10T08:59:05.000Z</time>
      </trkpt>
      <trkpt lat="50.52585" lon="3.51753">
        <ele>34.7</ele>
        <time>2022-04-10T08:59:07.000Z</time>
      </trkpt>
      <trkpt lat="50.5258" lon="3.51765">
        <ele>33.7</ele>
        <time>2022-04-10T08:59:09.000Z</time>
      </trkpt>
      <trkpt lat="50.52577" lon="3.5177">
        <ele>33.3</ele>
        <time>2022-04-10T08:59:10.000Z</time>
      </trkpt>
      <trkpt lat="50.52575" lon="3.51776">
        <ele>33</ele>
        <time>2022-04-10T08:59:11.000Z</time>
      </trkpt>
      <trkpt lat="50.52572" lon="3.51782">
        <ele>33.2</ele>
        <time>2022-04-10T08:59:12.000Z</time>
      </trkpt>
      <trkpt lat="50.52569" lon="3.51788">
        <ele>33.6</ele>
        <time>2022-04-10T08:59:13.000Z</time>
      </trkpt>
      <trkpt lat="50.52567" lon="3.51795">
        <ele>34</ele>
        <time>2022-04-10T08:59:14.000Z</time>
      </trkpt>
      <trkpt lat="50.52564" lon="3.51801">
        <ele>34.4</ele>
        <time>2022-04-10T08:59:15.000Z</time>
      </trkpt>
      <trkpt lat="50.52562" lon="3.51808">
        <ele>34.7</ele>
        <time>2022-04-10T08:59:16.000Z</time>
      </trkpt>
      <trkpt lat="50.5256" lon="3.51814">
        <ele>34.8</ele>
        <time>2022-04-10T08:59:17.000Z</time>
      </trkpt>
      <trkpt lat="50.52555" lon="3.51825">
        <ele>34.9</ele>
        <time>2022-04-10T08:59:19.000Z</time>
      </trkpt>
      <trkpt lat="50.52553" lon="3.51832">
        <ele>34.6</ele>
        <time>2022-04-10T08:59:20.000Z</time>
      </trkpt>
      <trkpt lat="50.52549" lon="3.51845">
        <ele>34.1</ele>
        <time>2022-04-10T08:59:22.000Z</time>
      </trkpt>
      <trkpt lat="50.52547" lon="3.51851">
        <ele>33.9</ele>
        <time>2022-04-10T08:59:23.000Z</time>
      </trkpt>
      <trkpt lat="50.52544" lon="3.51857">
        <ele>33.9</ele>
        <time>2022-04-10T08:59:24.000Z</time>
      </trkpt>
      <trkpt lat="50.52542" lon="3.51863">
        <ele>34</ele>
        <time>2022-04-10T08:59:25.000Z</time>
      </trkpt>
      <trkpt lat="50.5254" lon="3.5187">
        <ele>34.2</ele>
        <time>2022-04-10T08:59:26.000Z</time>
      </trkpt>
      <trkpt lat="50.52537" lon="3.5188">
        <ele>34.5</ele>
        <time>2022-04-10T08:59:28.000Z</time>
      </trkpt>
      <trkpt lat="50.52534" lon="3.51886">
        <ele>34.7</ele>
        <time>2022-04-10T08:59:29.000Z</time>
      </trkpt>
      <trkpt lat="50.52532" lon="3.51892">
        <ele>34.9</ele>
        <time>2022-04-10T08:59:30.000Z</time>
      </trkpt>
      <trkpt lat="50.5253" lon="3.51898">
        <ele>34.9</ele>
        <time>2022-04-10T08:59:31.000Z</time>
      </trkpt>
      <trkpt lat="50.52526" lon="3.5191">
        <ele>34.9</ele>
        <time>2022-04-10T08:59:33.000Z</time>
      </trkpt>
      <trkpt lat="50.52525" lon="3.5192">
        <ele>34.8</ele>
        <time>2022-04-10T08:59:35.000Z</time>
      </trkpt>
      <trkpt lat="50.52522" lon="3.51926">
        <ele>34.5</ele>
        <time>2022-04-10T08:59:36.000Z</time>
      </trkpt>
      <trkpt lat="50.52517" lon="3.51937">
        <ele>34.2</ele>
        <time>2022-04-10T08:59:38.000Z</time>
      </trkpt>
      <trkpt lat="50.52513" lon="3.51949">
        <ele>34.1</ele>
        <time>2022-04-10T08:59:39.959Z</time>
      </trkpt>
      <trkpt lat="50.52511" lon="3.51955">
        <ele>34.2</ele>
        <time>2022-04-10T08:59:41.038Z</time>
      </trkpt>
      <trkpt lat="50.52507" lon="3.51968">
        <ele>34.6</ele>
        <time>2022-04-10T08:59:43.000Z</time>
      </trkpt>
      <trkpt lat="50.52504" lon="3.51975">
        <ele>34.9</ele>
        <time>2022-04-10T08:59:44.121Z</time>
      </trkpt>
      <trkpt lat="50.52501" lon="3.51987">
        <ele>35</ele>
        <time>2022-04-10T08:59:46.000Z</time>
      </trkpt>
      <trkpt lat="50.52499" lon="3.51993">
        <ele>34.9</ele>
        <time>2022-04-10T08:59:47.102Z</time>
      </trkpt>
      <trkpt lat="50.52495" lon="3.52005">
        <ele>34.3</ele>
        <time>2022-04-10T08:59:49.000Z</time>
      </trkpt>
      <trkpt lat="50.52493" lon="3.52013">
        <ele>33.9</ele>
        <time>2022-04-10T08:59:50.141Z</time>
      </trkpt>
      <trkpt lat="50.52489" lon="3.52025">
        <ele>33.3</ele>
        <time>2022-04-10T08:59:52.000Z</time>
      </trkpt>
      <trkpt lat="50.52485" lon="3.52038">
        <ele>33.3</ele>
        <time>2022-04-10T08:59:54.000Z</time>
      </trkpt>
      <trkpt lat="50.52483" lon="3.52045">
        <ele>33.5</ele>
        <time>2022-04-10T08:59:55.198Z</time>
      </trkpt>
      <trkpt lat="50.5248" lon="3.52057">
        <ele>34</ele>
        <time>2022-04-10T08:59:57.000Z</time>
      </trkpt>
      <trkpt lat="50.52477" lon="3.52068">
        <ele>34.4</ele>
        <time>2022-04-10T08:59:59.000Z</time>
      </trkpt>
      <trkpt lat="50.52473" lon="3.52081">
        <ele>34.9</ele>
        <time>2022-04-10T09:00:01.000Z</time>
      </trkpt>
      <trkpt lat="50.52471" lon="3.52089">
        <ele>34.8</ele>
        <time>2022-04-10T09:00:02.182Z</time>
      </trkpt>
      <trkpt lat="50.52468" lon="3.521">
        <ele>34.4</ele>
        <time>2022-04-10T09:00:04.000Z</time>
      </trkpt>
      <trkpt lat="50.52465" lon="3.52112">
        <ele>34.3</ele>
        <time>2022-04-10T09:00:06.000Z</time>
      </trkpt>
      <trkpt lat="50.52462" lon="3.52123">
        <ele>34.1</ele>
        <time>2022-04-10T09:00:08.000Z</time>
      </trkpt>
      <trkpt lat="50.5246" lon="3.52135">
        <ele>34.3</ele>
        <time>2022-04-10T09:00:10.000Z</time>
      </trkpt>
      <trkpt lat="50.52454" lon="3.52153">
        <ele>34.7</ele>
        <time>2022-04-10T09:00:13.021Z</time>
      </trkpt>
      <trkpt lat="50.5245" lon="3.52165">
        <ele>34.8</ele>
        <time>2022-04-10T09:00:15.000Z</time>
      </trkpt>
      <trkpt lat="50.52447" lon="3.52177">
        <ele>34.9</ele>
        <time>2022-04-10T09:00:17.000Z</time>
      </trkpt>
      <trkpt lat="50.52444" lon="3.5219">
        <ele>34.9</ele>
        <time>2022-04-10T09:00:19.000Z</time>
      </trkpt>
      <trkpt lat="50.52441" lon="3.52202">
        <ele>34.4</ele>
        <time>2022-04-10T09:00:21.041Z</time>
      </trkpt>
      <trkpt lat="50.52437" lon="3.52215">
        <ele>33.9</ele>
        <time>2022-04-10T09:00:23.138Z</time>
      </trkpt>
      <trkpt lat="50.52436" lon="3.52222">
        <ele>33.7</ele>
        <time>2022-04-10T09:00:24.160Z</time>
      </trkpt>
      <trkpt lat="50.52433" lon="3.52233">
        <ele>33.7</ele>
        <time>2022-04-10T09:00:26.000Z</time>
      </trkpt>
      <trkpt lat="50.52429" lon="3.52245">
        <ele>33.9</ele>
        <time>2022-04-10T09:00:28.000Z</time>
      </trkpt>
      <trkpt lat="50.52427" lon="3.52252">
        <ele>34</ele>
        <time>2022-04-10T09:00:29.000Z</time>
      </trkpt>
      <trkpt lat="50.52424" lon="3.52264">
        <ele>34.4</ele>
        <time>2022-04-10T09:00:31.020Z</time>
      </trkpt>
      <trkpt lat="50.5242" lon="3.52276">
        <ele>34.8</ele>
        <time>2022-04-10T09:00:33.039Z</time>
      </trkpt>
      <trkpt lat="50.52418" lon="3.52288">
        <ele>35</ele>
        <time>2022-04-10T09:00:35.000Z</time>
      </trkpt>
      <trkpt lat="50.52415" lon="3.523">
        <ele>34.8</ele>
        <time>2022-04-10T09:00:37.000Z</time>
      </trkpt>
      <trkpt lat="50.52414" lon="3.52307">
        <ele>34.7</ele>
        <time>2022-04-10T09:00:38.183Z</time>
      </trkpt>
      <trkpt lat="50.52411" lon="3.5232">
        <ele>34.5</ele>
        <time>2022-04-10T09:00:40.000Z</time>
      </trkpt>
      <trkpt lat="50.52409" lon="3.52333">
        <ele>34.4</ele>
        <time>2022-04-10T09:00:42.000Z</time>
      </trkpt>
      <trkpt lat="50.52407" lon="3.52347">
        <ele>34.5</ele>
        <time>2022-04-10T09:00:44.000Z</time>
      </trkpt>
      <trkpt lat="50.52405" lon="3.5236">
        <ele>34.6</ele>
        <time>2022-04-10T09:00:46.000Z</time>
      </trkpt>
      <trkpt lat="50.52403" lon="3.52367">
        <ele>34.5</ele>
        <time>2022-04-10T09:00:47.000Z</time>
      </trkpt>
      <trkpt lat="50.524" lon="3.52385">
        <ele>34.4</ele>
        <time>2022-04-10T09:00:49.701Z</time>
      </trkpt>
      <trkpt lat="50.52399" lon="3.52393">
        <ele>34.4</ele>
        <time>2022-04-10T09:00:51.000Z</time>
      </trkpt>
      <trkpt lat="50.52395" lon="3.52409">
        <ele>34.6</ele>
        <time>2022-04-10T09:00:53.624Z</time>
      </trkpt>
      <trkpt lat="50.52393" lon="3.52424">
        <ele>34.9</ele>
        <time>2022-04-10T09:00:55.884Z</time>
      </trkpt>
      <trkpt lat="50.52392" lon="3.52432">
        <ele>34.9</ele>
        <time>2022-04-10T09:00:57.020Z</time>
      </trkpt>
      <trkpt lat="50.5239" lon="3.52439">
        <ele>34.9</ele>
        <time>2022-04-10T09:00:58.119Z</time>
      </trkpt>
      <trkpt lat="50.52389" lon="3.52447">
        <ele>35</ele>
        <time>2022-04-10T09:00:59.242Z</time>
      </trkpt>
      <trkpt lat="50.52386" lon="3.52458">
        <ele>34.7</ele>
        <time>2022-04-10T09:01:01.000Z</time>
      </trkpt>
      <trkpt lat="50.52383" lon="3.52478">
        <ele>34.4</ele>
        <time>2022-04-10T09:01:04.000Z</time>
      </trkpt>
      <trkpt lat="50.52381" lon="3.52491">
        <ele>34.3</ele>
        <time>2022-04-10T09:01:06.000Z</time>
      </trkpt>
      <trkpt lat="50.5238" lon="3.52498">
        <ele>34.3</ele>
        <time>2022-04-10T09:01:07.000Z</time>
      </trkpt>
      <trkpt lat="50.52378" lon="3.52511">
        <ele>34.4</ele>
        <time>2022-04-10T09:01:09.000Z</time>
      </trkpt>
      <trkpt lat="50.52376" lon="3.52521">
        <ele>34.4</ele>
        <time>2022-04-10T09:01:10.661Z</time>
      </trkpt>
      <trkpt lat="50.52376" lon="3.52529">
        <ele>34.5</ele>
        <time>2022-04-10T09:01:11.780Z</time>
      </trkpt>
      <trkpt lat="50.52375" lon="3.52536">
        <ele>34.7</ele>
        <time>2022-04-10T09:01:12.923Z</time>
      </trkpt>
      <trkpt lat="50.52374" lon="3.52544">
        <ele>34.8</ele>
        <time>2022-04-10T09:01:14.040Z</time>
      </trkpt>
      <trkpt lat="50.52372" lon="3.52556">
        <ele>35</ele>
        <time>2022-04-10T09:01:15.940Z</time>
      </trkpt>
      <trkpt lat="50.52371" lon="3.52563">
        <ele>35.4</ele>
        <time>2022-04-10T09:01:17.000Z</time>
      </trkpt>
      <trkpt lat="50.52368" lon="3.52579">
        <ele>36.6</ele>
        <time>2022-04-10T09:01:19.541Z</time>
      </trkpt>
      <trkpt lat="50.52367" lon="3.52589">
        <ele>36.7</ele>
        <time>2022-04-10T09:01:21.000Z</time>
      </trkpt>
      <trkpt lat="50.52366" lon="3.52602">
        <ele>35.7</ele>
        <time>2022-04-10T09:01:23.000Z</time>
      </trkpt>
      <trkpt lat="50.52365" lon="3.52615">
        <ele>34.9</ele>
        <time>2022-04-10T09:01:25.000Z</time>
      </trkpt>
      <trkpt lat="50.52363" lon="3.52628">
        <ele>34.9</ele>
        <time>2022-04-10T09:01:27.000Z</time>
      </trkpt>
      <trkpt lat="50.52361" lon="3.52643">
        <ele>35</ele>
        <time>2022-04-10T09:01:29.141Z</time>
      </trkpt>
      <trkpt lat="50.5236" lon="3.52653">
        <ele>34.8</ele>
        <time>2022-04-10T09:01:30.422Z</time>
      </trkpt>
      <trkpt lat="50.52359" lon="3.5266">
        <ele>34.8</ele>
        <time>2022-04-10T09:01:31.382Z</time>
      </trkpt>
      <trkpt lat="50.52358" lon="3.52673">
        <ele>34.7</ele>
        <time>2022-04-10T09:01:33.000Z</time>
      </trkpt>
      <trkpt lat="50.52357" lon="3.5268">
        <ele>34.7</ele>
        <time>2022-04-10T09:01:34.123Z</time>
      </trkpt>
      <trkpt lat="50.52355" lon="3.52695">
        <ele>34.8</ele>
        <time>2022-04-10T09:01:36.000Z</time>
      </trkpt>
      <trkpt lat="50.52355" lon="3.52703">
        <ele>34.5</ele>
        <time>2022-04-10T09:01:37.000Z</time>
      </trkpt>
      <trkpt lat="50.52354" lon="3.5271">
        <ele>34.3</ele>
        <time>2022-04-10T09:01:38.000Z</time>
      </trkpt>
      <trkpt lat="50.52354" lon="3.52717">
        <ele>34.1</ele>
        <time>2022-04-10T09:01:39.000Z</time>
      </trkpt>
      <trkpt lat="50.52353" lon="3.52724">
        <ele>34</ele>
        <time>2022-04-10T09:01:40.000Z</time>
      </trkpt>
      <trkpt lat="50.52352" lon="3.52731">
        <ele>34</ele>
        <time>2022-04-10T09:01:41.000Z</time>
      </trkpt>
      <trkpt lat="50.52351" lon="3.52738">
        <ele>34</ele>
        <time>2022-04-10T09:01:42.000Z</time>
      </trkpt>
      <trkpt lat="50.5235" lon="3.52745">
        <ele>34</ele>
        <time>2022-04-10T09:01:43.000Z</time>
      </trkpt>
      <trkpt lat="50.52349" lon="3.52753">
        <ele>34</ele>
        <time>2022-04-10T09:01:44.000Z</time>
      </trkpt>
      <trkpt lat="50.52348" lon="3.5276">
        <ele>34.2</ele>
        <time>2022-04-10T09:01:45.000Z</time>
      </trkpt>
      <trkpt lat="50.52348" lon="3.52767">
        <ele>34.3</ele>
        <time>2022-04-10T09:01:46.000Z</time>
      </trkpt>
      <trkpt lat="50.52348" lon="3.52774">
        <ele>34.4</ele>
        <time>2022-04-10T09:01:47.000Z</time>
      </trkpt>
      <trkpt lat="50.52347" lon="3.52781">
        <ele>34.5</ele>
        <time>2022-04-10T09:01:48.000Z</time>
      </trkpt>
      <trkpt lat="50.52346" lon="3.52789">
        <ele>34.5</ele>
        <time>2022-04-10T09:01:49.000Z</time>
      </trkpt>
      <trkpt lat="50.52346" lon="3.52796">
        <ele>34.6</ele>
        <time>2022-04-10T09:01:50.000Z</time>
      </trkpt>
      <trkpt lat="50.52345" lon="3.52803">
        <ele>34.6</ele>
        <time>2022-04-10T09:01:51.000Z</time>
      </trkpt>
      <trkpt lat="50.52345" lon="3.5281">
        <ele>34.6</ele>
        <time>2022-04-10T09:01:52.000Z</time>
      </trkpt>
      <trkpt lat="50.52344" lon="3.52817">
        <ele>34.6</ele>
        <time>2022-04-10T09:01:53.000Z</time>
      </trkpt>
      <trkpt lat="50.52344" lon="3.52824">
        <ele>34.6</ele>
        <time>2022-04-10T09:01:54.000Z</time>
      </trkpt>
      <trkpt lat="50.52344" lon="3.52832">
        <ele>34.6</ele>
        <time>2022-04-10T09:01:55.000Z</time>
      </trkpt>
      <trkpt lat="50.52344" lon="3.52839">
        <ele>34.6</ele>
        <time>2022-04-10T09:01:56.000Z</time>
      </trkpt>
      <trkpt lat="50.52343" lon="3.52846">
        <ele>34.6</ele>
        <time>2022-04-10T09:01:57.000Z</time>
      </trkpt>
      <trkpt lat="50.52342" lon="3.52853">
        <ele>34.7</ele>
        <time>2022-04-10T09:01:58.000Z</time>
      </trkpt>
      <trkpt lat="50.52342" lon="3.52861">
        <ele>34.7</ele>
        <time>2022-04-10T09:01:59.000Z</time>
      </trkpt>
      <trkpt lat="50.52341" lon="3.52868">
        <ele>34.7</ele>
        <time>2022-04-10T09:02:00.000Z</time>
      </trkpt>
      <trkpt lat="50.5234" lon="3.52875">
        <ele>34.7</ele>
        <time>2022-04-10T09:02:01.000Z</time>
      </trkpt>
      <trkpt lat="50.5234" lon="3.52883">
        <ele>34.7</ele>
        <time>2022-04-10T09:02:02.000Z</time>
      </trkpt>
      <trkpt lat="50.5234" lon="3.5289">
        <ele>34.8</ele>
        <time>2022-04-10T09:02:03.000Z</time>
      </trkpt>
      <trkpt lat="50.5234" lon="3.52897">
        <ele>34.8</ele>
        <time>2022-04-10T09:02:04.000Z</time>
      </trkpt>
      <trkpt lat="50.5234" lon="3.52905">
        <ele>34.8</ele>
        <time>2022-04-10T09:02:05.000Z</time>
      </trkpt>
      <trkpt lat="50.52339" lon="3.52912">
        <ele>34.8</ele>
        <time>2022-04-10T09:02:06.000Z</time>
      </trkpt>
      <trkpt lat="50.52339" lon="3.5292">
        <ele>34.8</ele>
        <time>2022-04-10T09:02:07.000Z</time>
      </trkpt>
      <trkpt lat="50.52339" lon="3.52927">
        <ele>34.7</ele>
        <time>2022-04-10T09:02:08.000Z</time>
      </trkpt>
      <trkpt lat="50.52338" lon="3.52935">
        <ele>34.7</ele>
        <time>2022-04-10T09:02:09.000Z</time>
      </trkpt>
      <trkpt lat="50.52338" lon="3.52942">
        <ele>34.7</ele>
        <time>2022-04-10T09:02:10.000Z</time>
      </trkpt>
      <trkpt lat="50.52338" lon="3.5295">
        <ele>34.7</ele>
        <time>2022-04-10T09:02:11.000Z</time>
      </trkpt>
      <trkpt lat="50.52337" lon="3.52957">
        <ele>34.7</ele>
        <time>2022-04-10T09:02:12.000Z</time>
      </trkpt>
      <trkpt lat="50.52337" lon="3.52964">
        <ele>34.7</ele>
        <time>2022-04-10T09:02:13.000Z</time>
      </trkpt>
      <trkpt lat="50.52337" lon="3.52972">
        <ele>34.8</ele>
        <time>2022-04-10T09:02:14.000Z</time>
      </trkpt>
      <trkpt lat="50.52337" lon="3.52979">
        <ele>34.8</ele>
        <time>2022-04-10T09:02:15.000Z</time>
      </trkpt>
      <trkpt lat="50.52337" lon="3.52987">
        <ele>34.8</ele>
        <time>2022-04-10T09:02:16.000Z</time>
      </trkpt>
      <trkpt lat="50.52336" lon="3.52995">
        <ele>34.8</ele>
        <time>2022-04-10T09:02:17.000Z</time>
      </trkpt>
      <trkpt lat="50.52336" lon="3.53002">
        <ele>34.7</ele>
        <time>2022-04-10T09:02:18.000Z</time>
      </trkpt>
      <trkpt lat="50.52336" lon="3.5301">
        <ele>34.5</ele>
        <time>2022-04-10T09:02:19.000Z</time>
      </trkpt>
      <trkpt lat="50.52336" lon="3.53017">
        <ele>34.2</ele>
        <time>2022-04-10T09:02:20.000Z</time>
      </trkpt>
      <trkpt lat="50.52336" lon="3.53025">
        <ele>34</ele>
        <time>2022-04-10T09:02:21.000Z</time>
      </trkpt>
      <trkpt lat="50.52336" lon="3.53033">
        <ele>33.9</ele>
        <time>2022-04-10T09:02:22.000Z</time>
      </trkpt>
      <trkpt lat="50.52336" lon="3.5304">
        <ele>33.9</ele>
        <time>2022-04-10T09:02:23.000Z</time>
      </trkpt>
      <trkpt lat="50.52335" lon="3.53047">
        <ele>33.9</ele>
        <time>2022-04-10T09:02:24.000Z</time>
      </trkpt>
      <trkpt lat="50.52334" lon="3.53055">
        <ele>34</ele>
        <time>2022-04-10T09:02:25.000Z</time>
      </trkpt>
      <trkpt lat="50.52334" lon="3.53062">
        <ele>34</ele>
        <time>2022-04-10T09:02:26.000Z</time>
      </trkpt>
      <trkpt lat="50.52334" lon="3.5307">
        <ele>34</ele>
        <time>2022-04-10T09:02:27.000Z</time>
      </trkpt>
      <trkpt lat="50.52334" lon="3.53077">
        <ele>34</ele>
        <time>2022-04-10T09:02:28.000Z</time>
      </trkpt>
      <trkpt lat="50.52334" lon="3.53085">
        <ele>34</ele>
        <time>2022-04-10T09:02:29.000Z</time>
      </trkpt>
      <trkpt lat="50.52334" lon="3.53093">
        <ele>34</ele>
        <time>2022-04-10T09:02:30.000Z</time>
      </trkpt>
      <trkpt lat="50.52334" lon="3.531">
        <ele>34</ele>
        <time>2022-04-10T09:02:31.000Z</time>
      </trkpt>
      <trkpt lat="50.52334" lon="3.53108">
        <ele>34</ele>
        <time>2022-04-10T09:02:32.000Z</time>
      </trkpt>
      <trkpt lat="50.52334" lon="3.53115">
        <ele>34</ele>
        <time>2022-04-10T09:02:33.000Z</time>
      </trkpt>
      <trkpt lat="50.52334" lon="3.53123">
        <ele>34</ele>
        <time>2022-04-10T09:02:34.000Z</time>
      </trkpt>
      <trkpt lat="50.52334" lon="3.5313">
        <ele>34</ele>
        <time>2022-04-10T09:02:35.000Z</time>
      </trkpt>
      <trkpt lat="50.52334" lon="3.53138">
        <ele>34</ele>
        <time>2022-04-10T09:02:36.000Z</time>
      </trkpt>
      <trkpt lat="50.52335" lon="3.53146">
        <ele>34</ele>
        <time>2022-04-10T09:02:37.000Z</time>
      </trkpt>
      <trkpt lat="50.52335" lon="3.53154">
        <ele>34</ele>
        <time>2022-04-10T09:02:38.000Z</time>
      </trkpt>
      <trkpt lat="50.52335" lon="3.53161">
        <ele>33.9</ele>
        <time>2022-04-10T09:02:39.000Z</time>
      </trkpt>
      <trkpt lat="50.52335" lon="3.53169">
        <ele>33.9</ele>
        <time>2022-04-10T09:02:40.000Z</time>
      </trkpt>
      <trkpt lat="50.52334" lon="3.53177">
        <ele>34</ele>
        <time>2022-04-10T09:02:41.000Z</time>
      </trkpt>
      <trkpt lat="50.52333" lon="3.53184">
        <ele>33.9</ele>
        <time>2022-04-10T09:02:42.000Z</time>
      </trkpt>
      <trkpt lat="50.52332" lon="3.53192">
        <ele>33.9</ele>
        <time>2022-04-10T09:02:43.000Z</time>
      </trkpt>
      <trkpt lat="50.52332" lon="3.53199">
        <ele>34</ele>
        <time>2022-04-10T09:02:44.000Z</time>
      </trkpt>
      <trkpt lat="50.52332" lon="3.53207">
        <ele>34.3</ele>
        <time>2022-04-10T09:02:45.000Z</time>
      </trkpt>
      <trkpt lat="50.52333" lon="3.53215">
        <ele>34.6</ele>
        <time>2022-04-10T09:02:46.000Z</time>
      </trkpt>
      <trkpt lat="50.52333" lon="3.53222">
        <ele>34.9</ele>
        <time>2022-04-10T09:02:47.000Z</time>
      </trkpt>
      <trkpt lat="50.52333" lon="3.5323">
        <ele>35</ele>
        <time>2022-04-10T09:02:48.000Z</time>
      </trkpt>
      <trkpt lat="50.52334" lon="3.53238">
        <ele>35</ele>
        <time>2022-04-10T09:02:49.000Z</time>
      </trkpt>
      <trkpt lat="50.52334" lon="3.53246">
        <ele>35</ele>
        <time>2022-04-10T09:02:50.000Z</time>
      </trkpt>
      <trkpt lat="50.52334" lon="3.53254">
        <ele>35</ele>
        <time>2022-04-10T09:02:51.000Z</time>
      </trkpt>
      <trkpt lat="50.52335" lon="3.53261">
        <ele>35</ele>
        <time>2022-04-10T09:02:52.000Z</time>
      </trkpt>
      <trkpt lat="50.52334" lon="3.53269">
        <ele>35</ele>
        <time>2022-04-10T09:02:53.000Z</time>
      </trkpt>
      <trkpt lat="50.52334" lon="3.53277">
        <ele>35</ele>
        <time>2022-04-10T09:02:54.000Z</time>
      </trkpt>
      <trkpt lat="50.52334" lon="3.53285">
        <ele>35</ele>
        <time>2022-04-10T09:02:55.000Z</time>
      </trkpt>
      <trkpt lat="50.52335" lon="3.53292">
        <ele>35</ele>
        <time>2022-04-10T09:02:56.000Z</time>
      </trkpt>
      <trkpt lat="50.52335" lon="3.533">
        <ele>35</ele>
        <time>2022-04-10T09:02:57.000Z</time>
      </trkpt>
      <trkpt lat="50.52335" lon="3.53308">
        <ele>35</ele>
        <time>2022-04-10T09:02:58.000Z</time>
      </trkpt>
      <trkpt lat="50.52335" lon="3.53316">
        <ele>35</ele>
        <time>2022-04-10T09:02:59.000Z</time>
      </trkpt>
      <trkpt lat="50.52336" lon="3.53323">
        <ele>34.9</ele>
        <time>2022-04-10T09:03:00.000Z</time>
      </trkpt>
      <trkpt lat="50.52337" lon="3.5333">
        <ele>34.9</ele>
        <time>2022-04-10T09:03:01.000Z</time>
      </trkpt>
      <trkpt lat="50.52337" lon="3.53338">
        <ele>34.9</ele>
        <time>2022-04-10T09:03:02.000Z</time>
      </trkpt>
      <trkpt lat="50.52337" lon="3.53346">
        <ele>34.9</ele>
        <time>2022-04-10T09:03:03.000Z</time>
      </trkpt>
      <trkpt lat="50.52338" lon="3.53353">
        <ele>34.8</ele>
        <time>2022-04-10T09:03:04.000Z</time>
      </trkpt>
      <trkpt lat="50.52339" lon="3.53361">
        <ele>34.8</ele>
        <time>2022-04-10T09:03:05.000Z</time>
      </trkpt>
      <trkpt lat="50.52339" lon="3.53368">
        <ele>34.8</ele>
        <time>2022-04-10T09:03:06.000Z</time>
      </trkpt>
      <trkpt lat="50.5234" lon="3.53376">
        <ele>34.8</ele>
        <time>2022-04-10T09:03:07.000Z</time>
      </trkpt>
      <trkpt lat="50.5234" lon="3.53383">
        <ele>34.8</ele>
        <time>2022-04-10T09:03:08.000Z</time>
      </trkpt>
      <trkpt lat="50.52341" lon="3.5339">
        <ele>34.7</ele>
        <time>2022-04-10T09:03:09.000Z</time>
      </trkpt>
      <trkpt lat="50.52341" lon="3.53397">
        <ele>34.5</ele>
        <time>2022-04-10T09:03:10.000Z</time>
      </trkpt>
      <trkpt lat="50.52342" lon="3.53405">
        <ele>34.3</ele>
        <time>2022-04-10T09:03:11.000Z</time>
      </trkpt>
      <trkpt lat="50.52343" lon="3.53412">
        <ele>34.1</ele>
        <time>2022-04-10T09:03:12.000Z</time>
      </trkpt>
      <trkpt lat="50.52344" lon="3.53419">
        <ele>34</ele>
        <time>2022-04-10T09:03:13.000Z</time>
      </trkpt>
      <trkpt lat="50.52345" lon="3.53426">
        <ele>34</ele>
        <time>2022-04-10T09:03:14.000Z</time>
      </trkpt>
      <trkpt lat="50.52346" lon="3.5344">
        <ele>34</ele>
        <time>2022-04-10T09:03:16.000Z</time>
      </trkpt>
      <trkpt lat="50.52347" lon="3.53447">
        <ele>34</ele>
        <time>2022-04-10T09:03:17.000Z</time>
      </trkpt>
      <trkpt lat="50.52347" lon="3.53454">
        <ele>33.8</ele>
        <time>2022-04-10T09:03:18.000Z</time>
      </trkpt>
      <trkpt lat="50.52348" lon="3.53461">
        <ele>33.7</ele>
        <time>2022-04-10T09:03:19.000Z</time>
      </trkpt>
      <trkpt lat="50.52348" lon="3.53468">
        <ele>33.6</ele>
        <time>2022-04-10T09:03:20.000Z</time>
      </trkpt>
      <trkpt lat="50.52349" lon="3.53476">
        <ele>33.5</ele>
        <time>2022-04-10T09:03:21.000Z</time>
      </trkpt>
      <trkpt lat="50.52349" lon="3.53483">
        <ele>33.6</ele>
        <time>2022-04-10T09:03:22.000Z</time>
      </trkpt>
      <trkpt lat="50.5235" lon="3.5349">
        <ele>33.6</ele>
        <time>2022-04-10T09:03:23.000Z</time>
      </trkpt>
      <trkpt lat="50.5235" lon="3.53497">
        <ele>33.6</ele>
        <time>2022-04-10T09:03:24.000Z</time>
      </trkpt>
      <trkpt lat="50.52351" lon="3.53505">
        <ele>33.6</ele>
        <time>2022-04-10T09:03:25.000Z</time>
      </trkpt>
      <trkpt lat="50.52351" lon="3.53512">
        <ele>33.6</ele>
        <time>2022-04-10T09:03:26.000Z</time>
      </trkpt>
      <trkpt lat="50.52352" lon="3.53519">
        <ele>33.7</ele>
        <time>2022-04-10T09:03:27.000Z</time>
      </trkpt>
      <trkpt lat="50.52352" lon="3.53527">
        <ele>33.7</ele>
        <time>2022-04-10T09:03:28.000Z</time>
      </trkpt>
      <trkpt lat="50.52353" lon="3.53534">
        <ele>33.6</ele>
        <time>2022-04-10T09:03:29.000Z</time>
      </trkpt>
      <trkpt lat="50.52354" lon="3.53548">
        <ele>33.6</ele>
        <time>2022-04-10T09:03:31.000Z</time>
      </trkpt>
      <trkpt lat="50.52355" lon="3.53562">
        <ele>33.6</ele>
        <time>2022-04-10T09:03:33.000Z</time>
      </trkpt>
      <trkpt lat="50.52356" lon="3.53573">
        <ele>33.6</ele>
        <time>2022-04-10T09:03:35.000Z</time>
      </trkpt>
      <trkpt lat="50.52357" lon="3.53582">
        <ele>33.7</ele>
        <time>2022-04-10T09:03:36.000Z</time>
      </trkpt>
      <trkpt lat="50.52359" lon="3.53596">
        <ele>33.8</ele>
        <time>2022-04-10T09:03:38.000Z</time>
      </trkpt>
      <trkpt lat="50.5236" lon="3.53609">
        <ele>33.9</ele>
        <time>2022-04-10T09:03:40.000Z</time>
      </trkpt>
      <trkpt lat="50.52361" lon="3.53622">
        <ele>34</ele>
        <time>2022-04-10T09:03:41.195Z</time>
      </trkpt>
      <trkpt lat="50.52364" lon="3.53637">
        <ele>33.9</ele>
        <time>2022-04-10T09:03:43.000Z</time>
      </trkpt>
      <trkpt lat="50.52365" lon="3.53649">
        <ele>34.2</ele>
        <time>2022-04-10T09:03:45.000Z</time>
      </trkpt>
      <trkpt lat="50.52366" lon="3.53658">
        <ele>34.4</ele>
        <time>2022-04-10T09:03:46.000Z</time>
      </trkpt>
      <trkpt lat="50.52368" lon="3.53667">
        <ele>34.5</ele>
        <time>2022-04-10T09:03:47.000Z</time>
      </trkpt>
      <trkpt lat="50.52369" lon="3.53674">
        <ele>34.2</ele>
        <time>2022-04-10T09:03:48.000Z</time>
      </trkpt>
      <trkpt lat="50.52371" lon="3.53682">
        <ele>34</ele>
        <time>2022-04-10T09:03:49.591Z</time>
      </trkpt>
      <trkpt lat="50.52372" lon="3.5369">
        <ele>33.7</ele>
        <time>2022-04-10T09:03:50.649Z</time>
      </trkpt>
      <trkpt lat="50.52373" lon="3.53704">
        <ele>33.5</ele>
        <time>2022-04-10T09:03:53.000Z</time>
      </trkpt>
      <trkpt lat="50.52376" lon="3.53721">
        <ele>33.5</ele>
        <time>2022-04-10T09:03:56.000Z</time>
      </trkpt>
      <trkpt lat="50.52379" lon="3.53735">
        <ele>33.5</ele>
        <time>2022-04-10T09:03:57.814Z</time>
      </trkpt>
      <trkpt lat="50.5238" lon="3.53745">
        <ele>33.4</ele>
        <time>2022-04-10T09:03:59.000Z</time>
      </trkpt>
      <trkpt lat="50.5238" lon="3.53757">
        <ele>33.3</ele>
        <time>2022-04-10T09:04:01.012Z</time>
      </trkpt>
      <trkpt lat="50.52382" lon="3.53768">
        <ele>33.3</ele>
        <time>2022-04-10T09:04:03.114Z</time>
      </trkpt>
      <trkpt lat="50.52383" lon="3.53776">
        <ele>33.4</ele>
        <time>2022-04-10T09:04:04.000Z</time>
      </trkpt>
      <trkpt lat="50.52384" lon="3.53786">
        <ele>33.5</ele>
        <time>2022-04-10T09:04:05.000Z</time>
      </trkpt>
      <trkpt lat="50.52385" lon="3.53796">
        <ele>33.6</ele>
        <time>2022-04-10T09:04:07.000Z</time>
      </trkpt>
      <trkpt lat="50.52388" lon="3.53806">
        <ele>33.9</ele>
        <time>2022-04-10T09:04:09.000Z</time>
      </trkpt>
      <trkpt lat="50.5239" lon="3.53818">
        <ele>34.4</ele>
        <time>2022-04-10T09:04:11.000Z</time>
      </trkpt>
      <trkpt lat="50.52392" lon="3.53828">
        <ele>34.6</ele>
        <time>2022-04-10T09:04:12.000Z</time>
      </trkpt>
      <trkpt lat="50.52394" lon="3.5384">
        <ele>34.5</ele>
        <time>2022-04-10T09:04:14.000Z</time>
      </trkpt>
      <trkpt lat="50.52396" lon="3.53849">
        <ele>34.2</ele>
        <time>2022-04-10T09:04:15.000Z</time>
      </trkpt>
      <trkpt lat="50.52398" lon="3.53857">
        <ele>34.1</ele>
        <time>2022-04-10T09:04:16.000Z</time>
      </trkpt>
      <trkpt lat="50.524" lon="3.53868">
        <ele>33.7</ele>
        <time>2022-04-10T09:04:18.000Z</time>
      </trkpt>
      <trkpt lat="50.52402" lon="3.53885">
        <ele>33.2</ele>
        <time>2022-04-10T09:04:20.000Z</time>
      </trkpt>
      <trkpt lat="50.52404" lon="3.53896">
        <ele>32.9</ele>
        <time>2022-04-10T09:04:22.000Z</time>
      </trkpt>
      <trkpt lat="50.52406" lon="3.53905">
        <ele>32.8</ele>
        <time>2022-04-10T09:04:23.000Z</time>
      </trkpt>
      <trkpt lat="50.52408" lon="3.53913">
        <ele>32.7</ele>
        <time>2022-04-10T09:04:24.000Z</time>
      </trkpt>
      <trkpt lat="50.5241" lon="3.53925">
        <ele>32.9</ele>
        <time>2022-04-10T09:04:26.000Z</time>
      </trkpt>
      <trkpt lat="50.52414" lon="3.53941">
        <ele>33.6</ele>
        <time>2022-04-10T09:04:28.000Z</time>
      </trkpt>
      <trkpt lat="50.52417" lon="3.53952">
        <ele>34.3</ele>
        <time>2022-04-10T09:04:30.000Z</time>
      </trkpt>
      <trkpt lat="50.52418" lon="3.53962">
        <ele>34.5</ele>
        <time>2022-04-10T09:04:31.000Z</time>
      </trkpt>
      <trkpt lat="50.5242" lon="3.5397">
        <ele>34.7</ele>
        <time>2022-04-10T09:04:32.000Z</time>
      </trkpt>
      <trkpt lat="50.52421" lon="3.53977">
        <ele>34.7</ele>
        <time>2022-04-10T09:04:33.000Z</time>
      </trkpt>
      <trkpt lat="50.52423" lon="3.53989">
        <ele>34.6</ele>
        <time>2022-04-10T09:04:35.000Z</time>
      </trkpt>
      <trkpt lat="50.52425" lon="3.54">
        <ele>34.4</ele>
        <time>2022-04-10T09:04:36.000Z</time>
      </trkpt>
      <trkpt lat="50.52428" lon="3.54015">
        <ele>34.1</ele>
        <time>2022-04-10T09:04:38.000Z</time>
      </trkpt>
      <trkpt lat="50.5243" lon="3.54022">
        <ele>34</ele>
        <time>2022-04-10T09:04:39.000Z</time>
      </trkpt>
      <trkpt lat="50.52431" lon="3.54034">
        <ele>33.8</ele>
        <time>2022-04-10T09:04:41.000Z</time>
      </trkpt>
      <trkpt lat="50.52433" lon="3.54044">
        <ele>33.5</ele>
        <time>2022-04-10T09:04:42.000Z</time>
      </trkpt>
      <trkpt lat="50.52435" lon="3.54056">
        <ele>33.3</ele>
        <time>2022-04-10T09:04:44.000Z</time>
      </trkpt>
      <trkpt lat="50.52437" lon="3.54065">
        <ele>33.3</ele>
        <time>2022-04-10T09:04:45.000Z</time>
      </trkpt>
      <trkpt lat="50.52439" lon="3.54077">
        <ele>33.4</ele>
        <time>2022-04-10T09:04:47.000Z</time>
      </trkpt>
      <trkpt lat="50.5244" lon="3.54088">
        <ele>33.6</ele>
        <time>2022-04-10T09:04:48.000Z</time>
      </trkpt>
      <trkpt lat="50.52442" lon="3.54097">
        <ele>33.8</ele>
        <time>2022-04-10T09:04:49.000Z</time>
      </trkpt>
      <trkpt lat="50.52444" lon="3.54104">
        <ele>34</ele>
        <time>2022-04-10T09:04:50.000Z</time>
      </trkpt>
      <trkpt lat="50.52448" lon="3.54118">
        <ele>33.9</ele>
        <time>2022-04-10T09:04:52.000Z</time>
      </trkpt>
      <trkpt lat="50.52449" lon="3.54125">
        <ele>33.8</ele>
        <time>2022-04-10T09:04:53.000Z</time>
      </trkpt>
      <trkpt lat="50.52451" lon="3.54133">
        <ele>33.8</ele>
        <time>2022-04-10T09:04:54.000Z</time>
      </trkpt>
      <trkpt lat="50.52453" lon="3.54144">
        <ele>33.7</ele>
        <time>2022-04-10T09:04:55.000Z</time>
      </trkpt>
      <trkpt lat="50.52455" lon="3.54152">
        <ele>33.8</ele>
        <time>2022-04-10T09:04:56.000Z</time>
      </trkpt>
      <trkpt lat="50.52457" lon="3.54165">
        <ele>34</ele>
        <time>2022-04-10T09:04:58.000Z</time>
      </trkpt>
      <trkpt lat="50.52459" lon="3.54177">
        <ele>33.8</ele>
        <time>2022-04-10T09:04:59.000Z</time>
      </trkpt>
      <trkpt lat="50.52461" lon="3.5419">
        <ele>33.7</ele>
        <time>2022-04-10T09:05:01.000Z</time>
      </trkpt>
      <trkpt lat="50.52463" lon="3.54201">
        <ele>33.6</ele>
        <time>2022-04-10T09:05:02.000Z</time>
      </trkpt>
      <trkpt lat="50.52465" lon="3.54209">
        <ele>33.6</ele>
        <time>2022-04-10T09:05:03.000Z</time>
      </trkpt>
      <trkpt lat="50.52467" lon="3.54217">
        <ele>33.6</ele>
        <time>2022-04-10T09:05:04.000Z</time>
      </trkpt>
      <trkpt lat="50.52468" lon="3.54224">
        <ele>33.7</ele>
        <time>2022-04-10T09:05:05.000Z</time>
      </trkpt>
      <trkpt lat="50.52469" lon="3.54231">
        <ele>33.7</ele>
        <time>2022-04-10T09:05:06.000Z</time>
      </trkpt>
      <trkpt lat="50.5247" lon="3.54238">
        <ele>33.8</ele>
        <time>2022-04-10T09:05:07.000Z</time>
      </trkpt>
      <trkpt lat="50.52473" lon="3.54249">
        <ele>34</ele>
        <time>2022-04-10T09:05:08.000Z</time>
      </trkpt>
      <trkpt lat="50.52477" lon="3.54261">
        <ele>34.5</ele>
        <time>2022-04-10T09:05:10.000Z</time>
      </trkpt>
      <trkpt lat="50.52481" lon="3.5427">
        <ele>34.8</ele>
        <time>2022-04-10T09:05:11.000Z</time>
      </trkpt>
      <trkpt lat="50.52484" lon="3.54277">
        <ele>35</ele>
        <time>2022-04-10T09:05:12.000Z</time>
      </trkpt>
      <trkpt lat="50.52486" lon="3.54283">
        <ele>34.9</ele>
        <time>2022-04-10T09:05:13.000Z</time>
      </trkpt>
      <trkpt lat="50.5249" lon="3.54295">
        <ele>34.6</ele>
        <time>2022-04-10T09:05:15.000Z</time>
      </trkpt>
      <trkpt lat="50.52493" lon="3.54307">
        <ele>34.2</ele>
        <time>2022-04-10T09:05:16.000Z</time>
      </trkpt>
      <trkpt lat="50.52497" lon="3.54322">
        <ele>34.1</ele>
        <time>2022-04-10T09:05:18.000Z</time>
      </trkpt>
      <trkpt lat="50.52499" lon="3.54329">
        <ele>34</ele>
        <time>2022-04-10T09:05:19.000Z</time>
      </trkpt>
      <trkpt lat="50.525" lon="3.54336">
        <ele>34</ele>
        <time>2022-04-10T09:05:20.000Z</time>
      </trkpt>
      <trkpt lat="50.52502" lon="3.54344">
        <ele>34</ele>
        <time>2022-04-10T09:05:21.000Z</time>
      </trkpt>
      <trkpt lat="50.52505" lon="3.54356">
        <ele>33.9</ele>
        <time>2022-04-10T09:05:22.000Z</time>
      </trkpt>
      <trkpt lat="50.52508" lon="3.54371">
        <ele>34</ele>
        <time>2022-04-10T09:05:24.000Z</time>
      </trkpt>
      <trkpt lat="50.52509" lon="3.54383">
        <ele>34.2</ele>
        <time>2022-04-10T09:05:25.000Z</time>
      </trkpt>
      <trkpt lat="50.52509" lon="3.54397">
        <ele>34.4</ele>
        <time>2022-04-10T09:05:27.000Z</time>
      </trkpt>
      <trkpt lat="50.5251" lon="3.54409">
        <ele>34.3</ele>
        <time>2022-04-10T09:05:28.000Z</time>
      </trkpt>
      <trkpt lat="50.52511" lon="3.54422">
        <ele>34</ele>
        <time>2022-04-10T09:05:30.000Z</time>
      </trkpt>
      <trkpt lat="50.52513" lon="3.54433">
        <ele>33.4</ele>
        <time>2022-04-10T09:05:31.000Z</time>
      </trkpt>
      <trkpt lat="50.52515" lon="3.54442">
        <ele>33.1</ele>
        <time>2022-04-10T09:05:32.000Z</time>
      </trkpt>
      <trkpt lat="50.52516" lon="3.54449">
        <ele>33</ele>
        <time>2022-04-10T09:05:33.000Z</time>
      </trkpt>
      <trkpt lat="50.52517" lon="3.54457">
        <ele>33</ele>
        <time>2022-04-10T09:05:34.000Z</time>
      </trkpt>
      <trkpt lat="50.5252" lon="3.54471">
        <ele>33</ele>
        <time>2022-04-10T09:05:35.000Z</time>
      </trkpt>
      <trkpt lat="50.52521" lon="3.54479">
        <ele>33.1</ele>
        <time>2022-04-10T09:05:36.000Z</time>
      </trkpt>
      <trkpt lat="50.52524" lon="3.54491">
        <ele>33.5</ele>
        <time>2022-04-10T09:05:37.000Z</time>
      </trkpt>
      <trkpt lat="50.52526" lon="3.54499">
        <ele>33.9</ele>
        <time>2022-04-10T09:05:38.000Z</time>
      </trkpt>
      <trkpt lat="50.52529" lon="3.54511">
        <ele>34.3</ele>
        <time>2022-04-10T09:05:39.000Z</time>
      </trkpt>
      <trkpt lat="50.52531" lon="3.54521">
        <ele>34.5</ele>
        <time>2022-04-10T09:05:40.000Z</time>
      </trkpt>
      <trkpt lat="50.52532" lon="3.54528">
        <ele>34.7</ele>
        <time>2022-04-10T09:05:41.000Z</time>
      </trkpt>
      <trkpt lat="50.52534" lon="3.54536">
        <ele>34.6</ele>
        <time>2022-04-10T09:05:42.000Z</time>
      </trkpt>
      <trkpt lat="50.52536" lon="3.54549">
        <ele>34.4</ele>
        <time>2022-04-10T09:05:43.000Z</time>
      </trkpt>
      <trkpt lat="50.52538" lon="3.54557">
        <ele>34.2</ele>
        <time>2022-04-10T09:05:44.000Z</time>
      </trkpt>
      <trkpt lat="50.5254" lon="3.54565">
        <ele>34</ele>
        <time>2022-04-10T09:05:45.000Z</time>
      </trkpt>
      <trkpt lat="50.52542" lon="3.54578">
        <ele>33.6</ele>
        <time>2022-04-10T09:05:46.000Z</time>
      </trkpt>
      <trkpt lat="50.52543" lon="3.54585">
        <ele>33.4</ele>
        <time>2022-04-10T09:05:47.000Z</time>
      </trkpt>
      <trkpt lat="50.52545" lon="3.54596">
        <ele>33.2</ele>
        <time>2022-04-10T09:05:48.000Z</time>
      </trkpt>
      <trkpt lat="50.52546" lon="3.54605">
        <ele>33.1</ele>
        <time>2022-04-10T09:05:49.000Z</time>
      </trkpt>
      <trkpt lat="50.52547" lon="3.54612">
        <ele>33</ele>
        <time>2022-04-10T09:05:50.000Z</time>
      </trkpt>
      <trkpt lat="50.52549" lon="3.5462">
        <ele>33.2</ele>
        <time>2022-04-10T09:05:51.000Z</time>
      </trkpt>
      <trkpt lat="50.52551" lon="3.54633">
        <ele>33.6</ele>
        <time>2022-04-10T09:05:52.000Z</time>
      </trkpt>
      <trkpt lat="50.52555" lon="3.54651">
        <ele>33.9</ele>
        <time>2022-04-10T09:05:54.000Z</time>
      </trkpt>
      <trkpt lat="50.52556" lon="3.5466">
        <ele>34</ele>
        <time>2022-04-10T09:05:55.000Z</time>
      </trkpt>
      <trkpt lat="50.52558" lon="3.54668">
        <ele>34</ele>
        <time>2022-04-10T09:05:56.000Z</time>
      </trkpt>
      <trkpt lat="50.5256" lon="3.54682">
        <ele>34.3</ele>
        <time>2022-04-10T09:05:58.000Z</time>
      </trkpt>
      <trkpt lat="50.52561" lon="3.5469">
        <ele>34.5</ele>
        <time>2022-04-10T09:05:59.000Z</time>
      </trkpt>
      <trkpt lat="50.52563" lon="3.54699">
        <ele>34.5</ele>
        <time>2022-04-10T09:06:00.000Z</time>
      </trkpt>
      <trkpt lat="50.52565" lon="3.54711">
        <ele>34.3</ele>
        <time>2022-04-10T09:06:01.000Z</time>
      </trkpt>
      <trkpt lat="50.52567" lon="3.54718">
        <ele>34.2</ele>
        <time>2022-04-10T09:06:02.000Z</time>
      </trkpt>
      <trkpt lat="50.52569" lon="3.54725">
        <ele>34.2</ele>
        <time>2022-04-10T09:06:03.000Z</time>
      </trkpt>
      <trkpt lat="50.5257" lon="3.54733">
        <ele>34.5</ele>
        <time>2022-04-10T09:06:04.000Z</time>
      </trkpt>
      <trkpt lat="50.52571" lon="3.54741">
        <ele>34.8</ele>
        <time>2022-04-10T09:06:05.000Z</time>
      </trkpt>
      <trkpt lat="50.52574" lon="3.54754">
        <ele>34.7</ele>
        <time>2022-04-10T09:06:06.000Z</time>
      </trkpt>
      <trkpt lat="50.52577" lon="3.54765">
        <ele>34.1</ele>
        <time>2022-04-10T09:06:07.000Z</time>
      </trkpt>
      <trkpt lat="50.52579" lon="3.54773">
        <ele>33.7</ele>
        <time>2022-04-10T09:06:08.000Z</time>
      </trkpt>
      <trkpt lat="50.52582" lon="3.54788">
        <ele>33.5</ele>
        <time>2022-04-10T09:06:10.000Z</time>
      </trkpt>
      <trkpt lat="50.52583" lon="3.54796">
        <ele>33.7</ele>
        <time>2022-04-10T09:06:11.000Z</time>
      </trkpt>
      <trkpt lat="50.52584" lon="3.54805">
        <ele>33.9</ele>
        <time>2022-04-10T09:06:12.000Z</time>
      </trkpt>
      <trkpt lat="50.52585" lon="3.54813">
        <ele>33.9</ele>
        <time>2022-04-10T09:06:13.000Z</time>
      </trkpt>
      <trkpt lat="50.52587" lon="3.54822">
        <ele>33.9</ele>
        <time>2022-04-10T09:06:14.000Z</time>
      </trkpt>
      <trkpt lat="50.52588" lon="3.5483">
        <ele>33.8</ele>
        <time>2022-04-10T09:06:15.000Z</time>
      </trkpt>
      <trkpt lat="50.52589" lon="3.54838">
        <ele>33.9</ele>
        <time>2022-04-10T09:06:16.000Z</time>
      </trkpt>
      <trkpt lat="50.5259" lon="3.54846">
        <ele>34.1</ele>
        <time>2022-04-10T09:06:17.000Z</time>
      </trkpt>
      <trkpt lat="50.52592" lon="3.54854">
        <ele>34.2</ele>
        <time>2022-04-10T09:06:18.000Z</time>
      </trkpt>
      <trkpt lat="50.52593" lon="3.54863">
        <ele>34.3</ele>
        <time>2022-04-10T09:06:19.000Z</time>
      </trkpt>
      <trkpt lat="50.52594" lon="3.54871">
        <ele>34</ele>
        <time>2022-04-10T09:06:20.000Z</time>
      </trkpt>
      <trkpt lat="50.52595" lon="3.54879">
        <ele>33.8</ele>
        <time>2022-04-10T09:06:21.000Z</time>
      </trkpt>
      <trkpt lat="50.52597" lon="3.54887">
        <ele>33.5</ele>
        <time>2022-04-10T09:06:22.000Z</time>
      </trkpt>
      <trkpt lat="50.52598" lon="3.54896">
        <ele>33.4</ele>
        <time>2022-04-10T09:06:23.000Z</time>
      </trkpt>
      <trkpt lat="50.526" lon="3.54904">
        <ele>33.2</ele>
        <time>2022-04-10T09:06:24.000Z</time>
      </trkpt>
      <trkpt lat="50.52602" lon="3.54912">
        <ele>33.1</ele>
        <time>2022-04-10T09:06:25.000Z</time>
      </trkpt>
      <trkpt lat="50.52603" lon="3.5492">
        <ele>32.9</ele>
        <time>2022-04-10T09:06:26.000Z</time>
      </trkpt>
      <trkpt lat="50.52604" lon="3.54928">
        <ele>32.8</ele>
        <time>2022-04-10T09:06:27.000Z</time>
      </trkpt>
      <trkpt lat="50.52605" lon="3.54937">
        <ele>32.7</ele>
        <time>2022-04-10T09:06:28.000Z</time>
      </trkpt>
      <trkpt lat="50.52606" lon="3.54945">
        <ele>32.6</ele>
        <time>2022-04-10T09:06:29.000Z</time>
      </trkpt>
      <trkpt lat="50.52607" lon="3.54953">
        <ele>32.9</ele>
        <time>2022-04-10T09:06:30.000Z</time>
      </trkpt>
      <trkpt lat="50.52609" lon="3.54962">
        <ele>33.3</ele>
        <time>2022-04-10T09:06:31.000Z</time>
      </trkpt>
      <trkpt lat="50.52611" lon="3.5497">
        <ele>33.8</ele>
        <time>2022-04-10T09:06:32.000Z</time>
      </trkpt>
      <trkpt lat="50.52612" lon="3.54978">
        <ele>34.2</ele>
        <time>2022-04-10T09:06:33.000Z</time>
      </trkpt>
      <trkpt lat="50.52613" lon="3.54986">
        <ele>34.4</ele>
        <time>2022-04-10T09:06:34.000Z</time>
      </trkpt>
      <trkpt lat="50.52615" lon="3.54994">
        <ele>34.6</ele>
        <time>2022-04-10T09:06:35.000Z</time>
      </trkpt>
      <trkpt lat="50.52616" lon="3.55002">
        <ele>34.7</ele>
        <time>2022-04-10T09:06:36.000Z</time>
      </trkpt>
      <trkpt lat="50.52617" lon="3.55009">
        <ele>34.6</ele>
        <time>2022-04-10T09:06:37.000Z</time>
      </trkpt>
      <trkpt lat="50.52619" lon="3.55017">
        <ele>34.6</ele>
        <time>2022-04-10T09:06:38.000Z</time>
      </trkpt>
      <trkpt lat="50.5262" lon="3.55025">
        <ele>34.6</ele>
        <time>2022-04-10T09:06:39.000Z</time>
      </trkpt>
      <trkpt lat="50.52622" lon="3.55033">
        <ele>34.3</ele>
        <time>2022-04-10T09:06:40.000Z</time>
      </trkpt>
      <trkpt lat="50.52624" lon="3.55041">
        <ele>33.8</ele>
        <time>2022-04-10T09:06:41.000Z</time>
      </trkpt>
      <trkpt lat="50.52626" lon="3.55049">
        <ele>33.3</ele>
        <time>2022-04-10T09:06:42.000Z</time>
      </trkpt>
      <trkpt lat="50.52628" lon="3.55057">
        <ele>33</ele>
        <time>2022-04-10T09:06:43.000Z</time>
      </trkpt>
      <trkpt lat="50.5263" lon="3.55065">
        <ele>32.8</ele>
        <time>2022-04-10T09:06:44.000Z</time>
      </trkpt>
      <trkpt lat="50.52632" lon="3.55073">
        <ele>32.7</ele>
        <time>2022-04-10T09:06:45.000Z</time>
      </trkpt>
      <trkpt lat="50.52633" lon="3.55081">
        <ele>32.6</ele>
        <time>2022-04-10T09:06:46.000Z</time>
      </trkpt>
      <trkpt lat="50.52634" lon="3.55088">
        <ele>32.7</ele>
        <time>2022-04-10T09:06:47.000Z</time>
      </trkpt>
      <trkpt lat="50.52635" lon="3.55096">
        <ele>32.9</ele>
        <time>2022-04-10T09:06:48.000Z</time>
      </trkpt>
      <trkpt lat="50.52636" lon="3.55104">
        <ele>33.2</ele>
        <time>2022-04-10T09:06:49.000Z</time>
      </trkpt>
      <trkpt lat="50.52637" lon="3.55112">
        <ele>33.6</ele>
        <time>2022-04-10T09:06:50.000Z</time>
      </trkpt>
      <trkpt lat="50.52638" lon="3.5512">
        <ele>33.8</ele>
        <time>2022-04-10T09:06:51.000Z</time>
      </trkpt>
      <trkpt lat="50.52639" lon="3.55127">
        <ele>34</ele>
        <time>2022-04-10T09:06:52.000Z</time>
      </trkpt>
      <trkpt lat="50.52641" lon="3.55134">
        <ele>33.9</ele>
        <time>2022-04-10T09:06:53.000Z</time>
      </trkpt>
      <trkpt lat="50.52642" lon="3.55141">
        <ele>33.9</ele>
        <time>2022-04-10T09:06:54.000Z</time>
      </trkpt>
      <trkpt lat="50.52644" lon="3.55148">
        <ele>34.1</ele>
        <time>2022-04-10T09:06:55.000Z</time>
      </trkpt>
      <trkpt lat="50.52645" lon="3.55155">
        <ele>34.2</ele>
        <time>2022-04-10T09:06:56.000Z</time>
      </trkpt>
      <trkpt lat="50.52646" lon="3.55162">
        <ele>34.3</ele>
        <time>2022-04-10T09:06:57.000Z</time>
      </trkpt>
      <trkpt lat="50.52648" lon="3.55168">
        <ele>34.3</ele>
        <time>2022-04-10T09:06:58.000Z</time>
      </trkpt>
      <trkpt lat="50.52649" lon="3.55175">
        <ele>34.2</ele>
        <time>2022-04-10T09:06:59.000Z</time>
      </trkpt>
      <trkpt lat="50.52651" lon="3.55182">
        <ele>34.1</ele>
        <time>2022-04-10T09:07:00.000Z</time>
      </trkpt>
      <trkpt lat="50.52652" lon="3.55189">
        <ele>34</ele>
        <time>2022-04-10T09:07:01.000Z</time>
      </trkpt>
      <trkpt lat="50.52653" lon="3.55196">
        <ele>34</ele>
        <time>2022-04-10T09:07:02.000Z</time>
      </trkpt>
      <trkpt lat="50.52654" lon="3.55203">
        <ele>33.9</ele>
        <time>2022-04-10T09:07:03.000Z</time>
      </trkpt>
      <trkpt lat="50.52656" lon="3.55211">
        <ele>33.9</ele>
        <time>2022-04-10T09:07:04.000Z</time>
      </trkpt>
      <trkpt lat="50.52657" lon="3.55218">
        <ele>34</ele>
        <time>2022-04-10T09:07:05.000Z</time>
      </trkpt>
      <trkpt lat="50.52659" lon="3.55226">
        <ele>34</ele>
        <time>2022-04-10T09:07:06.000Z</time>
      </trkpt>
      <trkpt lat="50.5266" lon="3.55233">
        <ele>34</ele>
        <time>2022-04-10T09:07:07.000Z</time>
      </trkpt>
      <trkpt lat="50.52662" lon="3.5524">
        <ele>34.1</ele>
        <time>2022-04-10T09:07:08.000Z</time>
      </trkpt>
      <trkpt lat="50.52663" lon="3.55248">
        <ele>34.2</ele>
        <time>2022-04-10T09:07:09.000Z</time>
      </trkpt>
      <trkpt lat="50.52665" lon="3.55255">
        <ele>34.5</ele>
        <time>2022-04-10T09:07:10.000Z</time>
      </trkpt>
      <trkpt lat="50.52666" lon="3.55263">
        <ele>34.9</ele>
        <time>2022-04-10T09:07:11.000Z</time>
      </trkpt>
      <trkpt lat="50.52667" lon="3.5527">
        <ele>35</ele>
        <time>2022-04-10T09:07:12.000Z</time>
      </trkpt>
      <trkpt lat="50.52669" lon="3.55277">
        <ele>34.9</ele>
        <time>2022-04-10T09:07:13.000Z</time>
      </trkpt>
      <trkpt lat="50.5267" lon="3.55284">
        <ele>34.9</ele>
        <time>2022-04-10T09:07:14.000Z</time>
      </trkpt>
      <trkpt lat="50.52672" lon="3.55291">
        <ele>34.8</ele>
        <time>2022-04-10T09:07:15.000Z</time>
      </trkpt>
      <trkpt lat="50.52673" lon="3.55298">
        <ele>34.8</ele>
        <time>2022-04-10T09:07:16.000Z</time>
      </trkpt>
      <trkpt lat="50.52674" lon="3.55305">
        <ele>34.7</ele>
        <time>2022-04-10T09:07:17.000Z</time>
      </trkpt>
      <trkpt lat="50.52676" lon="3.55313">
        <ele>34.5</ele>
        <time>2022-04-10T09:07:18.000Z</time>
      </trkpt>
      <trkpt lat="50.52677" lon="3.5532">
        <ele>34.3</ele>
        <time>2022-04-10T09:07:19.000Z</time>
      </trkpt>
      <trkpt lat="50.52678" lon="3.55327">
        <ele>34.1</ele>
        <time>2022-04-10T09:07:20.000Z</time>
      </trkpt>
      <trkpt lat="50.52679" lon="3.55334">
        <ele>34</ele>
        <time>2022-04-10T09:07:21.000Z</time>
      </trkpt>
      <trkpt lat="50.52681" lon="3.55341">
        <ele>33.9</ele>
        <time>2022-04-10T09:07:22.000Z</time>
      </trkpt>
      <trkpt lat="50.52682" lon="3.55348">
        <ele>33.8</ele>
        <time>2022-04-10T09:07:23.000Z</time>
      </trkpt>
      <trkpt lat="50.52684" lon="3.55356">
        <ele>33.7</ele>
        <time>2022-04-10T09:07:24.000Z</time>
      </trkpt>
      <trkpt lat="50.52685" lon="3.55363">
        <ele>33.7</ele>
        <time>2022-04-10T09:07:25.000Z</time>
      </trkpt>
      <trkpt lat="50.52687" lon="3.5537">
        <ele>33.8</ele>
        <time>2022-04-10T09:07:26.000Z</time>
      </trkpt>
      <trkpt lat="50.52688" lon="3.55378">
        <ele>34</ele>
        <time>2022-04-10T09:07:27.000Z</time>
      </trkpt>
      <trkpt lat="50.52689" lon="3.55386">
        <ele>34.2</ele>
        <time>2022-04-10T09:07:28.000Z</time>
      </trkpt>
      <trkpt lat="50.52691" lon="3.55394">
        <ele>34.5</ele>
        <time>2022-04-10T09:07:29.000Z</time>
      </trkpt>
      <trkpt lat="50.52692" lon="3.55401">
        <ele>34.6</ele>
        <time>2022-04-10T09:07:30.000Z</time>
      </trkpt>
      <trkpt lat="50.52693" lon="3.55409">
        <ele>34.8</ele>
        <time>2022-04-10T09:07:31.000Z</time>
      </trkpt>
      <trkpt lat="50.52695" lon="3.55416">
        <ele>35</ele>
        <time>2022-04-10T09:07:32.000Z</time>
      </trkpt>
      <trkpt lat="50.52696" lon="3.55423">
        <ele>34.9</ele>
        <time>2022-04-10T09:07:33.000Z</time>
      </trkpt>
      <trkpt lat="50.52698" lon="3.55429">
        <ele>34.9</ele>
        <time>2022-04-10T09:07:34.000Z</time>
      </trkpt>
      <trkpt lat="50.527" lon="3.5544">
        <ele>34.8</ele>
        <time>2022-04-10T09:07:36.000Z</time>
      </trkpt>
      <trkpt lat="50.52701" lon="3.55447">
        <ele>34.8</ele>
        <time>2022-04-10T09:07:37.000Z</time>
      </trkpt>
      <trkpt lat="50.52703" lon="3.55461">
        <ele>34.5</ele>
        <time>2022-04-10T09:07:39.000Z</time>
      </trkpt>
      <trkpt lat="50.52706" lon="3.55473">
        <ele>34.2</ele>
        <time>2022-04-10T09:07:41.000Z</time>
      </trkpt>
      <trkpt lat="50.52709" lon="3.55486">
        <ele>34</ele>
        <time>2022-04-10T09:07:43.592Z</time>
      </trkpt>
      <trkpt lat="50.5271" lon="3.55494">
        <ele>34</ele>
        <time>2022-04-10T09:07:44.654Z</time>
      </trkpt>
      <trkpt lat="50.52712" lon="3.55504">
        <ele>33.9</ele>
        <time>2022-04-10T09:07:46.070Z</time>
      </trkpt>
      <trkpt lat="50.52713" lon="3.55518">
        <ele>33.6</ele>
        <time>2022-04-10T09:07:48.052Z</time>
      </trkpt>
      <trkpt lat="50.52717" lon="3.55534">
        <ele>33.8</ele>
        <time>2022-04-10T09:07:50.000Z</time>
      </trkpt>
      <trkpt lat="50.52719" lon="3.55545">
        <ele>34.3</ele>
        <time>2022-04-10T09:07:51.090Z</time>
      </trkpt>
      <trkpt lat="50.52722" lon="3.55563">
        <ele>35</ele>
        <time>2022-04-10T09:07:54.000Z</time>
      </trkpt>
      <trkpt lat="50.52723" lon="3.55572">
        <ele>35</ele>
        <time>2022-04-10T09:07:55.000Z</time>
      </trkpt>
      <trkpt lat="50.52724" lon="3.55581">
        <ele>34.9</ele>
        <time>2022-04-10T09:07:56.931Z</time>
      </trkpt>
      <trkpt lat="50.52725" lon="3.55589">
        <ele>34.9</ele>
        <time>2022-04-10T09:07:57.853Z</time>
      </trkpt>
      <trkpt lat="50.52729" lon="3.55604">
        <ele>34.8</ele>
        <time>2022-04-10T09:08:00.000Z</time>
      </trkpt>
      <trkpt lat="50.52728" lon="3.55615">
        <ele>34.7</ele>
        <time>2022-04-10T09:08:02.000Z</time>
      </trkpt>
      <trkpt lat="50.52731" lon="3.55624">
        <ele>34.4</ele>
        <time>2022-04-10T09:08:03.000Z</time>
      </trkpt>
      <trkpt lat="50.52733" lon="3.55638">
        <ele>34</ele>
        <time>2022-04-10T09:08:05.000Z</time>
      </trkpt>
      <trkpt lat="50.52735" lon="3.55645">
        <ele>33.8</ele>
        <time>2022-04-10T09:08:06.000Z</time>
      </trkpt>
      <trkpt lat="50.52737" lon="3.55657">
        <ele>33.4</ele>
        <time>2022-04-10T09:08:08.000Z</time>
      </trkpt>
      <trkpt lat="50.5274" lon="3.55673">
        <ele>33.2</ele>
        <time>2022-04-10T09:08:10.000Z</time>
      </trkpt>
      <trkpt lat="50.52743" lon="3.55684">
        <ele>33.3</ele>
        <time>2022-04-10T09:08:12.000Z</time>
      </trkpt>
      <trkpt lat="50.52745" lon="3.55694">
        <ele>33.4</ele>
        <time>2022-04-10T09:08:13.000Z</time>
      </trkpt>
      <trkpt lat="50.52747" lon="3.55704">
        <ele>33.9</ele>
        <time>2022-04-10T09:08:15.000Z</time>
      </trkpt>
      <trkpt lat="50.5275" lon="3.55717">
        <ele>34.8</ele>
        <time>2022-04-10T09:08:17.000Z</time>
      </trkpt>
      <trkpt lat="50.52752" lon="3.55729">
        <ele>34.9</ele>
        <time>2022-04-10T09:08:19.000Z</time>
      </trkpt>
      <trkpt lat="50.52752" lon="3.55737">
        <ele>34.9</ele>
        <time>2022-04-10T09:08:20.000Z</time>
      </trkpt>
      <trkpt lat="50.52754" lon="3.55746">
        <ele>34.9</ele>
        <time>2022-04-10T09:08:21.000Z</time>
      </trkpt>
      <trkpt lat="50.52756" lon="3.55754">
        <ele>34.8</ele>
        <time>2022-04-10T09:08:22.000Z</time>
      </trkpt>
      <trkpt lat="50.52757" lon="3.55765">
        <ele>34.7</ele>
        <time>2022-04-10T09:08:23.786Z</time>
      </trkpt>
      <trkpt lat="50.5276" lon="3.55776">
        <ele>34.6</ele>
        <time>2022-04-10T09:08:26.000Z</time>
      </trkpt>
      <trkpt lat="50.52762" lon="3.55787">
        <ele>34.3</ele>
        <time>2022-04-10T09:08:27.028Z</time>
      </trkpt>
      <trkpt lat="50.52765" lon="3.55798">
        <ele>34.2</ele>
        <time>2022-04-10T09:08:28.000Z</time>
      </trkpt>
      <trkpt lat="50.52767" lon="3.55807">
        <ele>34.2</ele>
        <time>2022-04-10T09:08:29.048Z</time>
      </trkpt>
      <trkpt lat="50.52768" lon="3.55817">
        <ele>34.1</ele>
        <time>2022-04-10T09:08:30.644Z</time>
      </trkpt>
      <trkpt lat="50.52769" lon="3.55826">
        <ele>34.1</ele>
        <time>2022-04-10T09:08:32.000Z</time>
      </trkpt>
      <trkpt lat="50.52771" lon="3.55843">
        <ele>34</ele>
        <time>2022-04-10T09:08:34.465Z</time>
      </trkpt>
      <trkpt lat="50.52772" lon="3.55851">
        <ele>33.9</ele>
        <time>2022-04-10T09:08:35.427Z</time>
      </trkpt>
      <trkpt lat="50.52774" lon="3.55861">
        <ele>33.7</ele>
        <time>2022-04-10T09:08:37.000Z</time>
      </trkpt>
      <trkpt lat="50.52775" lon="3.5587">
        <ele>34</ele>
        <time>2022-04-10T09:08:38.190Z</time>
      </trkpt>
      <trkpt lat="50.52778" lon="3.55885">
        <ele>34.8</ele>
        <time>2022-04-10T09:08:41.000Z</time>
      </trkpt>
      <trkpt lat="50.52783" lon="3.55904">
        <ele>34.8</ele>
        <time>2022-04-10T09:08:44.000Z</time>
      </trkpt>
      <trkpt lat="50.52784" lon="3.55912">
        <ele>34.7</ele>
        <time>2022-04-10T09:08:45.000Z</time>
      </trkpt>
      <trkpt lat="50.52785" lon="3.55921">
        <ele>34.6</ele>
        <time>2022-04-10T09:08:47.000Z</time>
      </trkpt>
      <trkpt lat="50.52787" lon="3.55931">
        <ele>34.1</ele>
        <time>2022-04-10T09:08:49.000Z</time>
      </trkpt>
      <trkpt lat="50.5279" lon="3.55945">
        <ele>33.6</ele>
        <time>2022-04-10T09:08:51.684Z</time>
      </trkpt>
      <trkpt lat="50.52792" lon="3.55957">
        <ele>33.3</ele>
        <time>2022-04-10T09:08:52.908Z</time>
      </trkpt>
      <trkpt lat="50.52794" lon="3.55968">
        <ele>33.1</ele>
        <time>2022-04-10T09:08:55.106Z</time>
      </trkpt>
      <trkpt lat="50.52796" lon="3.55979">
        <ele>33</ele>
        <time>2022-04-10T09:08:56.084Z</time>
      </trkpt>
      <trkpt lat="50.52798" lon="3.55987">
        <ele>33</ele>
        <time>2022-04-10T09:08:57.000Z</time>
      </trkpt>
      <trkpt lat="50.52801" lon="3.56">
        <ele>33</ele>
        <time>2022-04-10T09:09:00.000Z</time>
      </trkpt>
      <trkpt lat="50.52803" lon="3.56014">
        <ele>33.9</ele>
        <time>2022-04-10T09:09:02.406Z</time>
      </trkpt>
      <trkpt lat="50.52805" lon="3.56024">
        <ele>34.6</ele>
        <time>2022-04-10T09:09:03.928Z</time>
      </trkpt>
      <trkpt lat="50.52808" lon="3.56036">
        <ele>34.8</ele>
        <time>2022-04-10T09:09:06.044Z</time>
      </trkpt>
      <trkpt lat="50.5281" lon="3.5605">
        <ele>34.7</ele>
        <time>2022-04-10T09:09:08.000Z</time>
      </trkpt>
      <trkpt lat="50.52811" lon="3.56057">
        <ele>34.6</ele>
        <time>2022-04-10T09:09:09.000Z</time>
      </trkpt>
      <trkpt lat="50.52815" lon="3.56068">
        <ele>34.3</ele>
        <time>2022-04-10T09:09:11.000Z</time>
      </trkpt>
      <trkpt lat="50.52817" lon="3.5608">
        <ele>34.2</ele>
        <time>2022-04-10T09:09:13.000Z</time>
      </trkpt>
      <trkpt lat="50.52818" lon="3.56092">
        <ele>33.8</ele>
        <time>2022-04-10T09:09:15.000Z</time>
      </trkpt>
      <trkpt lat="50.5282" lon="3.56105">
        <ele>33.2</ele>
        <time>2022-04-10T09:09:17.000Z</time>
      </trkpt>
      <trkpt lat="50.52822" lon="3.56117">
        <ele>33.1</ele>
        <time>2022-04-10T09:09:19.000Z</time>
      </trkpt>
      <trkpt lat="50.52824" lon="3.56129">
        <ele>33.4</ele>
        <time>2022-04-10T09:09:21.000Z</time>
      </trkpt>
      <trkpt lat="50.52826" lon="3.56146">
        <ele>33.9</ele>
        <time>2022-04-10T09:09:23.921Z</time>
      </trkpt>
      <trkpt lat="50.52828" lon="3.56154">
        <ele>34.1</ele>
        <time>2022-04-10T09:09:25.058Z</time>
      </trkpt>
      <trkpt lat="50.5283" lon="3.56167">
        <ele>34.7</ele>
        <time>2022-04-10T09:09:27.000Z</time>
      </trkpt>
      <trkpt lat="50.52833" lon="3.56178">
        <ele>35</ele>
        <time>2022-04-10T09:09:28.978Z</time>
      </trkpt>
      <trkpt lat="50.52836" lon="3.56196">
        <ele>34.8</ele>
        <time>2022-04-10T09:09:30.777Z</time>
      </trkpt>
      <trkpt lat="50.52839" lon="3.56205">
        <ele>34.7</ele>
        <time>2022-04-10T09:09:32.940Z</time>
      </trkpt>
      <trkpt lat="50.52841" lon="3.56214">
        <ele>34.7</ele>
        <time>2022-04-10T09:09:34.000Z</time>
      </trkpt>
      <trkpt lat="50.52843" lon="3.56223">
        <ele>34.6</ele>
        <time>2022-04-10T09:09:35.000Z</time>
      </trkpt>
      <trkpt lat="50.52844" lon="3.56232">
        <ele>34.2</ele>
        <time>2022-04-10T09:09:36.960Z</time>
      </trkpt>
      <trkpt lat="50.52847" lon="3.56246">
        <ele>33.6</ele>
        <time>2022-04-10T09:09:39.000Z</time>
      </trkpt>
      <trkpt lat="50.52849" lon="3.56259">
        <ele>33.4</ele>
        <time>2022-04-10T09:09:41.338Z</time>
      </trkpt>
      <trkpt lat="50.52851" lon="3.56267">
        <ele>33.3</ele>
        <time>2022-04-10T09:09:42.480Z</time>
      </trkpt>
      <trkpt lat="50.52853" lon="3.56275">
        <ele>33.1</ele>
        <time>2022-04-10T09:09:44.000Z</time>
      </trkpt>
      <trkpt lat="50.52854" lon="3.56282">
        <ele>33.1</ele>
        <time>2022-04-10T09:09:44.940Z</time>
      </trkpt>
      <trkpt lat="50.52855" lon="3.56291">
        <ele>33.4</ele>
        <time>2022-04-10T09:09:47.000Z</time>
      </trkpt>
      <trkpt lat="50.52858" lon="3.56303">
        <ele>33.8</ele>
        <time>2022-04-10T09:09:48.881Z</time>
      </trkpt>
      <trkpt lat="50.52859" lon="3.56316">
        <ele>34.3</ele>
        <time>2022-04-10T09:09:51.000Z</time>
      </trkpt>
      <trkpt lat="50.5286" lon="3.5633">
        <ele>34.8</ele>
        <time>2022-04-10T09:09:52.940Z</time>
      </trkpt>
      <trkpt lat="50.52862" lon="3.56337">
        <ele>35</ele>
        <time>2022-04-10T09:09:54.000Z</time>
      </trkpt>
      <trkpt lat="50.52864" lon="3.56346">
        <ele>34.9</ele>
        <time>2022-04-10T09:09:55.000Z</time>
      </trkpt>
      <trkpt lat="50.52865" lon="3.56353">
        <ele>34.9</ele>
        <time>2022-04-10T09:09:56.000Z</time>
      </trkpt>
      <trkpt lat="50.52867" lon="3.56362">
        <ele>34.8</ele>
        <time>2022-04-10T09:09:57.858Z</time>
      </trkpt>
      <trkpt lat="50.52869" lon="3.5637">
        <ele>34.5</ele>
        <time>2022-04-10T09:10:00.039Z</time>
      </trkpt>
      <trkpt lat="50.52871" lon="3.56378">
        <ele>34.3</ele>
        <time>2022-04-10T09:10:01.000Z</time>
      </trkpt>
      <trkpt lat="50.52873" lon="3.56387">
        <ele>34.1</ele>
        <time>2022-04-10T09:10:02.000Z</time>
      </trkpt>
      <trkpt lat="50.52873" lon="3.56394">
        <ele>34</ele>
        <time>2022-04-10T09:10:03.000Z</time>
      </trkpt>
      <trkpt lat="50.52876" lon="3.56405">
        <ele>34</ele>
        <time>2022-04-10T09:10:05.000Z</time>
      </trkpt>
      <trkpt lat="50.52878" lon="3.56418">
        <ele>34</ele>
        <time>2022-04-10T09:10:06.979Z</time>
      </trkpt>
      <trkpt lat="50.5288" lon="3.5643">
        <ele>33.8</ele>
        <time>2022-04-10T09:10:08.935Z</time>
      </trkpt>
      <trkpt lat="50.52881" lon="3.56439">
        <ele>33.8</ele>
        <time>2022-04-10T09:10:11.000Z</time>
      </trkpt>
      <trkpt lat="50.52882" lon="3.56449">
        <ele>33.8</ele>
        <time>2022-04-10T09:10:12.000Z</time>
      </trkpt>
      <trkpt lat="50.52883" lon="3.56459">
        <ele>34.1</ele>
        <time>2022-04-10T09:10:13.000Z</time>
      </trkpt>
      <trkpt lat="50.52884" lon="3.56466">
        <ele>34.4</ele>
        <time>2022-04-10T09:10:14.000Z</time>
      </trkpt>
      <trkpt lat="50.52886" lon="3.56477">
        <ele>34.7</ele>
        <time>2022-04-10T09:10:16.000Z</time>
      </trkpt>
      <trkpt lat="50.52886" lon="3.56486">
        <ele>34.7</ele>
        <time>2022-04-10T09:10:17.980Z</time>
      </trkpt>
      <trkpt lat="50.52886" lon="3.56494">
        <ele>34.7</ele>
        <time>2022-04-10T09:10:19.000Z</time>
      </trkpt>
      <trkpt lat="50.52888" lon="3.56503">
        <ele>34.8</ele>
        <time>2022-04-10T09:10:21.000Z</time>
      </trkpt>
      <trkpt lat="50.5289" lon="3.56515">
        <ele>35</ele>
        <time>2022-04-10T09:10:22.000Z</time>
      </trkpt>
      <trkpt lat="50.52894" lon="3.5653">
        <ele>34.8</ele>
        <time>2022-04-10T09:10:24.000Z</time>
      </trkpt>
      <trkpt lat="50.52892" lon="3.56539">
        <ele>34.9</ele>
        <time>2022-04-10T09:10:25.391Z</time>
      </trkpt>
      <trkpt lat="50.52892" lon="3.56547">
        <ele>34.9</ele>
        <time>2022-04-10T09:10:26.553Z</time>
      </trkpt>
      <trkpt lat="50.52892" lon="3.56555">
        <ele>34.9</ele>
        <time>2022-04-10T09:10:27.849Z</time>
      </trkpt>
      <trkpt lat="50.52893" lon="3.56565">
        <ele>34.9</ele>
        <time>2022-04-10T09:10:29.011Z</time>
      </trkpt>
      <trkpt lat="50.52894" lon="3.56577">
        <ele>34.8</ele>
        <time>2022-04-10T09:10:31.000Z</time>
      </trkpt>
      <trkpt lat="50.52893" lon="3.56585">
        <ele>34.8</ele>
        <time>2022-04-10T09:10:32.000Z</time>
      </trkpt>
      <trkpt lat="50.52896" lon="3.566">
        <ele>34.8</ele>
        <time>2022-04-10T09:10:34.152Z</time>
      </trkpt>
      <trkpt lat="50.52895" lon="3.56609">
        <ele>34.8</ele>
        <time>2022-04-10T09:10:36.000Z</time>
      </trkpt>
      <trkpt lat="50.52897" lon="3.56618">
        <ele>34.5</ele>
        <time>2022-04-10T09:10:37.000Z</time>
      </trkpt>
      <trkpt lat="50.52903" lon="3.56621">
        <ele>34.3</ele>
        <time>2022-04-10T09:10:37.958Z</time>
      </trkpt>
      <trkpt lat="50.529" lon="3.56631">
        <ele>34.2</ele>
        <time>2022-04-10T09:10:39.497Z</time>
      </trkpt>
      <trkpt lat="50.52898" lon="3.56643">
        <ele>34</ele>
        <time>2022-04-10T09:10:41.159Z</time>
      </trkpt>
      <trkpt lat="50.52897" lon="3.56654">
        <ele>34</ele>
        <time>2022-04-10T09:10:42.120Z</time>
      </trkpt>
      <trkpt lat="50.52897" lon="3.56664">
        <ele>34</ele>
        <time>2022-04-10T09:10:44.000Z</time>
      </trkpt>
      <trkpt lat="50.52897" lon="3.56671">
        <ele>34</ele>
        <time>2022-04-10T09:10:45.000Z</time>
      </trkpt>
      <trkpt lat="50.52898" lon="3.56683">
        <ele>34</ele>
        <time>2022-04-10T09:10:47.000Z</time>
      </trkpt>
      <trkpt lat="50.5289" lon="3.567">
        <ele>34</ele>
        <time>2022-04-10T09:10:49.850Z</time>
      </trkpt>
      <trkpt lat="50.52894" lon="3.56712">
        <ele>34</ele>
        <time>2022-04-10T09:10:51.000Z</time>
      </trkpt>
      <trkpt lat="50.52895" lon="3.56722">
        <ele>34</ele>
        <time>2022-04-10T09:10:51.969Z</time>
      </trkpt>
      <trkpt lat="50.52897" lon="3.56731">
        <ele>34</ele>
        <time>2022-04-10T09:10:53.000Z</time>
      </trkpt>
      <trkpt lat="50.52899" lon="3.56741">
        <ele>34</ele>
        <time>2022-04-10T09:10:54.771Z</time>
      </trkpt>
      <trkpt lat="50.529" lon="3.56755">
        <ele>33.9</ele>
        <time>2022-04-10T09:10:56.000Z</time>
      </trkpt>
      <trkpt lat="50.52902" lon="3.56768">
        <ele>33.7</ele>
        <time>2022-04-10T09:10:58.000Z</time>
      </trkpt>
      <trkpt lat="50.52902" lon="3.56777">
        <ele>33.5</ele>
        <time>2022-04-10T09:11:00.153Z</time>
      </trkpt>
      <trkpt lat="50.52903" lon="3.56791">
        <ele>33.5</ele>
        <time>2022-04-10T09:11:01.995Z</time>
      </trkpt>
      <trkpt lat="50.52902" lon="3.56805">
        <ele>33.5</ele>
        <time>2022-04-10T09:11:04.000Z</time>
      </trkpt>
      <trkpt lat="50.52901" lon="3.56814">
        <ele>33.5</ele>
        <time>2022-04-10T09:11:06.000Z</time>
      </trkpt>
      <trkpt lat="50.52902" lon="3.56823">
        <ele>33.5</ele>
        <time>2022-04-10T09:11:07.000Z</time>
      </trkpt>
      <trkpt lat="50.52901" lon="3.56833">
        <ele>33.5</ele>
        <time>2022-04-10T09:11:08.000Z</time>
      </trkpt>
      <trkpt lat="50.52901" lon="3.56844">
        <ele>33.6</ele>
        <time>2022-04-10T09:11:10.000Z</time>
      </trkpt>
      <trkpt lat="50.529" lon="3.56859">
        <ele>34</ele>
        <time>2022-04-10T09:11:12.000Z</time>
      </trkpt>
      <trkpt lat="50.529" lon="3.56874">
        <ele>34</ele>
        <time>2022-04-10T09:11:14.000Z</time>
      </trkpt>
      <trkpt lat="50.52899" lon="3.56887">
        <ele>34</ele>
        <time>2022-04-10T09:11:16.000Z</time>
      </trkpt>
      <trkpt lat="50.529" lon="3.56895">
        <ele>34</ele>
        <time>2022-04-10T09:11:18.000Z</time>
      </trkpt>
      <trkpt lat="50.529" lon="3.56905">
        <ele>34</ele>
        <time>2022-04-10T09:11:20.035Z</time>
      </trkpt>
      <trkpt lat="50.52896" lon="3.56922">
        <ele>34</ele>
        <time>2022-04-10T09:11:21.000Z</time>
      </trkpt>
      <trkpt lat="50.52896" lon="3.56937">
        <ele>34</ele>
        <time>2022-04-10T09:11:23.000Z</time>
      </trkpt>
      <trkpt lat="50.52896" lon="3.56944">
        <ele>34</ele>
        <time>2022-04-10T09:11:24.000Z</time>
      </trkpt>
      <trkpt lat="50.52895" lon="3.56957">
        <ele>34.3</ele>
        <time>2022-04-10T09:11:26.000Z</time>
      </trkpt>
      <trkpt lat="50.52895" lon="3.56971">
        <ele>34.7</ele>
        <time>2022-04-10T09:11:28.000Z</time>
      </trkpt>
      <trkpt lat="50.52895" lon="3.56981">
        <ele>34.8</ele>
        <time>2022-04-10T09:11:29.000Z</time>
      </trkpt>
      <trkpt lat="50.52894" lon="3.56992">
        <ele>34.8</ele>
        <time>2022-04-10T09:11:31.000Z</time>
      </trkpt>
      <trkpt lat="50.52894" lon="3.57004">
        <ele>34.8</ele>
        <time>2022-04-10T09:11:32.000Z</time>
      </trkpt>
      <trkpt lat="50.52893" lon="3.57018">
        <ele>34.9</ele>
        <time>2022-04-10T09:11:34.000Z</time>
      </trkpt>
      <trkpt lat="50.52891" lon="3.57033">
        <ele>34.7</ele>
        <time>2022-04-10T09:11:37.342Z</time>
      </trkpt>
      <trkpt lat="50.52889" lon="3.57044">
        <ele>34.4</ele>
        <time>2022-04-10T09:11:38.502Z</time>
      </trkpt>
      <trkpt lat="50.52889" lon="3.57055">
        <ele>34</ele>
        <time>2022-04-10T09:11:39.823Z</time>
      </trkpt>
      <trkpt lat="50.5289" lon="3.57065">
        <ele>34.3</ele>
        <time>2022-04-10T09:11:41.143Z</time>
      </trkpt>
      <trkpt lat="50.52889" lon="3.57074">
        <ele>34.7</ele>
        <time>2022-04-10T09:11:42.759Z</time>
      </trkpt>
      <trkpt lat="50.52887" lon="3.57084">
        <ele>34.6</ele>
        <time>2022-04-10T09:11:44.000Z</time>
      </trkpt>
      <trkpt lat="50.52885" lon="3.57094">
        <ele>33.9</ele>
        <time>2022-04-10T09:11:45.166Z</time>
      </trkpt>
      <trkpt lat="50.52884" lon="3.57103">
        <ele>33.4</ele>
        <time>2022-04-10T09:11:46.463Z</time>
      </trkpt>
      <trkpt lat="50.52882" lon="3.57112">
        <ele>33.1</ele>
        <time>2022-04-10T09:11:47.781Z</time>
      </trkpt>
      <trkpt lat="50.52881" lon="3.5712">
        <ele>33</ele>
        <time>2022-04-10T09:11:50.000Z</time>
      </trkpt>
      <trkpt lat="50.5288" lon="3.57132">
        <ele>33.2</ele>
        <time>2022-04-10T09:11:51.000Z</time>
      </trkpt>
      <trkpt lat="50.52877" lon="3.5715">
        <ele>33.3</ele>
        <time>2022-04-10T09:11:54.000Z</time>
      </trkpt>
      <trkpt lat="50.52872" lon="3.57156">
        <ele>33.2</ele>
        <time>2022-04-10T09:11:55.000Z</time>
      </trkpt>
      <trkpt lat="50.52871" lon="3.57166">
        <ele>33.3</ele>
        <time>2022-04-10T09:11:56.498Z</time>
      </trkpt>
      <trkpt lat="50.52872" lon="3.57179">
        <ele>33.7</ele>
        <time>2022-04-10T09:11:57.819Z</time>
      </trkpt>
      <trkpt lat="50.52873" lon="3.57187">
        <ele>33.8</ele>
        <time>2022-04-10T09:11:59.000Z</time>
      </trkpt>
      <trkpt lat="50.52873" lon="3.57203">
        <ele>34.2</ele>
        <time>2022-04-10T09:12:01.394Z</time>
      </trkpt>
      <trkpt lat="50.5287" lon="3.57211">
        <ele>34.4</ele>
        <time>2022-04-10T09:12:02.696Z</time>
      </trkpt>
      <trkpt lat="50.52867" lon="3.57221">
        <ele>34.7</ele>
        <time>2022-04-10T09:12:03.894Z</time>
      </trkpt>
      <trkpt lat="50.52865" lon="3.57231">
        <ele>34.6</ele>
        <time>2022-04-10T09:12:06.073Z</time>
      </trkpt>
      <trkpt lat="50.52864" lon="3.57241">
        <ele>34.3</ele>
        <time>2022-04-10T09:12:07.000Z</time>
      </trkpt>
      <trkpt lat="50.5286" lon="3.57258">
        <ele>33.8</ele>
        <time>2022-04-10T09:12:09.736Z</time>
      </trkpt>
      <trkpt lat="50.52858" lon="3.57269">
        <ele>33.5</ele>
        <time>2022-04-10T09:12:11.895Z</time>
      </trkpt>
      <trkpt lat="50.52857" lon="3.57277">
        <ele>33.4</ele>
        <time>2022-04-10T09:12:13.136Z</time>
      </trkpt>
      <trkpt lat="50.52855" lon="3.57289">
        <ele>33.3</ele>
        <time>2022-04-10T09:12:15.000Z</time>
      </trkpt>
      <trkpt lat="50.52853" lon="3.57301">
        <ele>33.3</ele>
        <time>2022-04-10T09:12:17.000Z</time>
      </trkpt>
      <trkpt lat="50.52849" lon="3.57315">
        <ele>33.4</ele>
        <time>2022-04-10T09:12:19.394Z</time>
      </trkpt>
      <trkpt lat="50.52846" lon="3.57331">
        <ele>33.9</ele>
        <time>2022-04-10T09:12:21.896Z</time>
      </trkpt>
      <trkpt lat="50.52845" lon="3.57338">
        <ele>34.1</ele>
        <time>2022-04-10T09:12:23.000Z</time>
      </trkpt>
      <trkpt lat="50.52843" lon="3.57345">
        <ele>34.3</ele>
        <time>2022-04-10T09:12:24.157Z</time>
      </trkpt>
      <trkpt lat="50.52841" lon="3.57357">
        <ele>34.6</ele>
        <time>2022-04-10T09:12:25.911Z</time>
      </trkpt>
      <trkpt lat="50.52839" lon="3.57364">
        <ele>34.8</ele>
        <time>2022-04-10T09:12:27.000Z</time>
      </trkpt>
      <trkpt lat="50.52836" lon="3.57376">
        <ele>34.9</ele>
        <time>2022-04-10T09:12:29.000Z</time>
      </trkpt>
      <trkpt lat="50.52832" lon="3.57387">
        <ele>35</ele>
        <time>2022-04-10T09:12:31.000Z</time>
      </trkpt>
      <trkpt lat="50.5283" lon="3.57398">
        <ele>34.9</ele>
        <time>2022-04-10T09:12:33.000Z</time>
      </trkpt>
      <trkpt lat="50.52828" lon="3.5741">
        <ele>35</ele>
        <time>2022-04-10T09:12:34.936Z</time>
      </trkpt>
      <trkpt lat="50.52826" lon="3.57418">
        <ele>35</ele>
        <time>2022-04-10T09:12:36.000Z</time>
      </trkpt>
      <trkpt lat="50.52825" lon="3.57424">
        <ele>34.8</ele>
        <time>2022-04-10T09:12:37.000Z</time>
      </trkpt>
      <trkpt lat="50.52823" lon="3.57431">
        <ele>34.7</ele>
        <time>2022-04-10T09:12:38.000Z</time>
      </trkpt>
      <trkpt lat="50.52821" lon="3.57437">
        <ele>34.6</ele>
        <time>2022-04-10T09:12:39.000Z</time>
      </trkpt>
      <trkpt lat="50.52819" lon="3.57444">
        <ele>34.5</ele>
        <time>2022-04-10T09:12:40.000Z</time>
      </trkpt>
      <trkpt lat="50.52816" lon="3.5745">
        <ele>34.6</ele>
        <time>2022-04-10T09:12:41.000Z</time>
      </trkpt>
      <trkpt lat="50.52812" lon="3.57455">
        <ele>34.8</ele>
        <time>2022-04-10T09:12:42.000Z</time>
      </trkpt>
      <trkpt lat="50.52805" lon="3.57463">
        <ele>35</ele>
        <time>2022-04-10T09:12:44.097Z</time>
      </trkpt>
      <trkpt lat="50.52799" lon="3.57472">
        <ele>35</ele>
        <time>2022-04-10T09:12:46.000Z</time>
      </trkpt>
      <trkpt lat="50.52796" lon="3.57478">
        <ele>35</ele>
        <time>2022-04-10T09:12:47.113Z</time>
      </trkpt>
      <trkpt lat="50.52792" lon="3.57489">
        <ele>35</ele>
        <time>2022-04-10T09:12:49.000Z</time>
      </trkpt>
      <trkpt lat="50.52788" lon="3.575">
        <ele>35</ele>
        <time>2022-04-10T09:12:51.000Z</time>
      </trkpt>
      <trkpt lat="50.52784" lon="3.57512">
        <ele>34.9</ele>
        <time>2022-04-10T09:12:53.000Z</time>
      </trkpt>
      <trkpt lat="50.5278" lon="3.57522">
        <ele>34.9</ele>
        <time>2022-04-10T09:12:55.000Z</time>
      </trkpt>
      <trkpt lat="50.52775" lon="3.57537">
        <ele>35</ele>
        <time>2022-04-10T09:12:57.691Z</time>
      </trkpt>
      <trkpt lat="50.52772" lon="3.57545">
        <ele>35</ele>
        <time>2022-04-10T09:12:59.000Z</time>
      </trkpt>
      <trkpt lat="50.52767" lon="3.57556">
        <ele>35</ele>
        <time>2022-04-10T09:13:01.000Z</time>
      </trkpt>
      <trkpt lat="50.52763" lon="3.57567">
        <ele>35</ele>
        <time>2022-04-10T09:13:03.000Z</time>
      </trkpt>
      <trkpt lat="50.52759" lon="3.57578">
        <ele>35</ele>
        <time>2022-04-10T09:13:05.000Z</time>
      </trkpt>
      <trkpt lat="50.52755" lon="3.57589">
        <ele>35</ele>
        <time>2022-04-10T09:13:07.000Z</time>
      </trkpt>
      <trkpt lat="50.52752" lon="3.57601">
        <ele>35</ele>
        <time>2022-04-10T09:13:09.000Z</time>
      </trkpt>
      <trkpt lat="50.52748" lon="3.57612">
        <ele>35</ele>
        <time>2022-04-10T09:13:11.000Z</time>
      </trkpt>
      <trkpt lat="50.52743" lon="3.57625">
        <ele>35</ele>
        <time>2022-04-10T09:13:13.196Z</time>
      </trkpt>
      <trkpt lat="50.52739" lon="3.57635">
        <ele>35</ele>
        <time>2022-04-10T09:13:15.000Z</time>
      </trkpt>
      <trkpt lat="50.52736" lon="3.57647">
        <ele>35</ele>
        <time>2022-04-10T09:13:17.000Z</time>
      </trkpt>
      <trkpt lat="50.52733" lon="3.57659">
        <ele>35</ele>
        <time>2022-04-10T09:13:19.000Z</time>
      </trkpt>
      <trkpt lat="50.52729" lon="3.5767">
        <ele>35</ele>
        <time>2022-04-10T09:13:21.000Z</time>
      </trkpt>
      <trkpt lat="50.52725" lon="3.57681">
        <ele>34.9</ele>
        <time>2022-04-10T09:13:23.000Z</time>
      </trkpt>
      <trkpt lat="50.52721" lon="3.57691">
        <ele>35</ele>
        <time>2022-04-10T09:13:25.000Z</time>
      </trkpt>
      <trkpt lat="50.52717" lon="3.577">
        <ele>35</ele>
        <time>2022-04-10T09:13:27.000Z</time>
      </trkpt>
      <trkpt lat="50.52713" lon="3.5771">
        <ele>34.8</ele>
        <time>2022-04-10T09:13:29.000Z</time>
      </trkpt>
      <trkpt lat="50.52707" lon="3.57718">
        <ele>34.5</ele>
        <time>2022-04-10T09:13:31.000Z</time>
      </trkpt>
      <trkpt lat="50.52702" lon="3.5772">
        <ele>34.3</ele>
        <time>2022-04-10T09:13:33.000Z</time>
      </trkpt>
      <trkpt lat="50.52697" lon="3.57723">
        <ele>34.1</ele>
        <time>2022-04-10T09:13:35.000Z</time>
      </trkpt>
      <trkpt lat="50.52693" lon="3.5773">
        <ele>34</ele>
        <time>2022-04-10T09:13:51.000Z</time>
      </trkpt>
      <trkpt lat="50.52697" lon="3.57735">
        <ele>34.1</ele>
        <time>2022-04-10T09:13:53.000Z</time>
      </trkpt>
      <trkpt lat="50.52702" lon="3.57732">
        <ele>34.3</ele>
        <time>2022-04-10T09:13:55.000Z</time>
      </trkpt>
      <trkpt lat="50.52708" lon="3.57726">
        <ele>34.5</ele>
        <time>2022-04-10T09:13:57.000Z</time>
      </trkpt>
      <trkpt lat="50.52712" lon="3.57718">
        <ele>34.7</ele>
        <time>2022-04-10T09:13:59.000Z</time>
      </trkpt>
      <trkpt lat="50.5272" lon="3.57725">
        <ele>34.9</ele>
        <time>2022-04-10T09:14:02.000Z</time>
      </trkpt>
      <trkpt lat="50.52719" lon="3.57737">
        <ele>34.9</ele>
        <time>2022-04-10T09:14:04.000Z</time>
      </trkpt>
      <trkpt lat="50.52715" lon="3.57735">
        <ele>34.7</ele>
        <time>2022-04-10T09:14:09.256Z</time>
      </trkpt>
      <trkpt lat="50.52709" lon="3.57722">
        <ele>34.5</ele>
        <time>2022-04-10T09:14:13.000Z</time>
      </trkpt>
      <trkpt lat="50.52704" lon="3.57722">
        <ele>34.4</ele>
        <time>2022-04-10T09:14:15.000Z</time>
      </trkpt>
      <trkpt lat="50.52697" lon="3.57729">
        <ele>34.1</ele>
        <time>2022-04-10T09:14:17.000Z</time>
      </trkpt>
      <trkpt lat="50.52692" lon="3.57733">
        <ele>34</ele>
        <time>2022-04-10T09:14:18.000Z</time>
      </trkpt>
      <trkpt lat="50.52688" lon="3.57738">
        <ele>34</ele>
        <time>2022-04-10T09:14:19.000Z</time>
      </trkpt>
      <trkpt lat="50.52684" lon="3.57743">
        <ele>34</ele>
        <time>2022-04-10T09:14:20.000Z</time>
      </trkpt>
      <trkpt lat="50.52679" lon="3.57748">
        <ele>34</ele>
        <time>2022-04-10T09:14:21.000Z</time>
      </trkpt>
      <trkpt lat="50.52675" lon="3.57753">
        <ele>34</ele>
        <time>2022-04-10T09:14:22.000Z</time>
      </trkpt>
      <trkpt lat="50.5267" lon="3.57758">
        <ele>33.8</ele>
        <time>2022-04-10T09:14:23.000Z</time>
      </trkpt>
      <trkpt lat="50.52666" lon="3.57764">
        <ele>33.5</ele>
        <time>2022-04-10T09:14:24.000Z</time>
      </trkpt>
      <trkpt lat="50.52662" lon="3.57768">
        <ele>33.3</ele>
        <time>2022-04-10T09:14:25.000Z</time>
      </trkpt>
      <trkpt lat="50.52657" lon="3.57772">
        <ele>33.2</ele>
        <time>2022-04-10T09:14:26.000Z</time>
      </trkpt>
      <trkpt lat="50.52652" lon="3.57777">
        <ele>33</ele>
        <time>2022-04-10T09:14:27.000Z</time>
      </trkpt>
      <trkpt lat="50.52648" lon="3.57782">
        <ele>32.9</ele>
        <time>2022-04-10T09:14:28.000Z</time>
      </trkpt>
      <trkpt lat="50.52643" lon="3.57788">
        <ele>32.7</ele>
        <time>2022-04-10T09:14:29.000Z</time>
      </trkpt>
      <trkpt lat="50.52639" lon="3.57793">
        <ele>32.5</ele>
        <time>2022-04-10T09:14:30.000Z</time>
      </trkpt>
      <trkpt lat="50.52636" lon="3.57798">
        <ele>32.3</ele>
        <time>2022-04-10T09:14:31.000Z</time>
      </trkpt>
      <trkpt lat="50.52633" lon="3.57804">
        <ele>32</ele>
        <time>2022-04-10T09:14:32.000Z</time>
      </trkpt>
      <trkpt lat="50.5263" lon="3.5781">
        <ele>32.1</ele>
        <time>2022-04-10T09:14:33.000Z</time>
      </trkpt>
      <trkpt lat="50.52624" lon="3.57819">
        <ele>32.2</ele>
        <time>2022-04-10T09:14:35.000Z</time>
      </trkpt>
      <trkpt lat="50.5262" lon="3.57825">
        <ele>32.2</ele>
        <time>2022-04-10T09:14:36.000Z</time>
      </trkpt>
      <trkpt lat="50.52616" lon="3.57829">
        <ele>32.2</ele>
        <time>2022-04-10T09:14:37.000Z</time>
      </trkpt>
      <trkpt lat="50.52613" lon="3.57835">
        <ele>32.1</ele>
        <time>2022-04-10T09:14:38.000Z</time>
      </trkpt>
      <trkpt lat="50.52609" lon="3.5784">
        <ele>32.2</ele>
        <time>2022-04-10T09:14:39.000Z</time>
      </trkpt>
      <trkpt lat="50.52603" lon="3.5785">
        <ele>32.6</ele>
        <time>2022-04-10T09:14:41.000Z</time>
      </trkpt>
      <trkpt lat="50.526" lon="3.57854">
        <ele>32.8</ele>
        <time>2022-04-10T09:14:42.000Z</time>
      </trkpt>
      <trkpt lat="50.52595" lon="3.57863">
        <ele>33</ele>
        <time>2022-04-10T09:14:44.000Z</time>
      </trkpt>
      <trkpt lat="50.52592" lon="3.57869">
        <ele>33</ele>
        <time>2022-04-10T09:14:45.000Z</time>
      </trkpt>
      <trkpt lat="50.52589" lon="3.57875">
        <ele>33</ele>
        <time>2022-04-10T09:14:46.000Z</time>
      </trkpt>
      <trkpt lat="50.52584" lon="3.57884">
        <ele>33</ele>
        <time>2022-04-10T09:14:48.000Z</time>
      </trkpt>
      <trkpt lat="50.52579" lon="3.57893">
        <ele>33</ele>
        <time>2022-04-10T09:14:49.861Z</time>
      </trkpt>
      <trkpt lat="50.52575" lon="3.57899">
        <ele>33</ele>
        <time>2022-04-10T09:14:51.000Z</time>
      </trkpt>
      <trkpt lat="50.52568" lon="3.57909">
        <ele>33</ele>
        <time>2022-04-10T09:14:53.000Z</time>
      </trkpt>
      <trkpt lat="50.52564" lon="3.57914">
        <ele>33</ele>
        <time>2022-04-10T09:14:54.000Z</time>
      </trkpt>
      <trkpt lat="50.52561" lon="3.57919">
        <ele>33</ele>
        <time>2022-04-10T09:14:55.000Z</time>
      </trkpt>
      <trkpt lat="50.52556" lon="3.57923">
        <ele>33</ele>
        <time>2022-04-10T09:14:56.000Z</time>
      </trkpt>
      <trkpt lat="50.52552" lon="3.57928">
        <ele>33</ele>
        <time>2022-04-10T09:14:57.000Z</time>
      </trkpt>
      <trkpt lat="50.52549" lon="3.57933">
        <ele>33</ele>
        <time>2022-04-10T09:14:58.000Z</time>
      </trkpt>
      <trkpt lat="50.52545" lon="3.57938">
        <ele>33</ele>
        <time>2022-04-10T09:14:59.000Z</time>
      </trkpt>
      <trkpt lat="50.52542" lon="3.57943">
        <ele>33</ele>
        <time>2022-04-10T09:15:00.000Z</time>
      </trkpt>
      <trkpt lat="50.52538" lon="3.57948">
        <ele>33</ele>
        <time>2022-04-10T09:15:01.000Z</time>
      </trkpt>
      <trkpt lat="50.52535" lon="3.57954">
        <ele>33</ele>
        <time>2022-04-10T09:15:02.000Z</time>
      </trkpt>
      <trkpt lat="50.52532" lon="3.57959">
        <ele>33</ele>
        <time>2022-04-10T09:15:03.000Z</time>
      </trkpt>
      <trkpt lat="50.52529" lon="3.57965">
        <ele>33</ele>
        <time>2022-04-10T09:15:04.000Z</time>
      </trkpt>
      <trkpt lat="50.52522" lon="3.57974">
        <ele>33.1</ele>
        <time>2022-04-10T09:15:06.000Z</time>
      </trkpt>
      <trkpt lat="50.52518" lon="3.57979">
        <ele>33.3</ele>
        <time>2022-04-10T09:15:07.000Z</time>
      </trkpt>
      <trkpt lat="50.52515" lon="3.57985">
        <ele>33.4</ele>
        <time>2022-04-10T09:15:08.000Z</time>
      </trkpt>
      <trkpt lat="50.52512" lon="3.5799">
        <ele>33.6</ele>
        <time>2022-04-10T09:15:09.000Z</time>
      </trkpt>
      <trkpt lat="50.52506" lon="3.57999">
        <ele>34</ele>
        <time>2022-04-10T09:15:11.000Z</time>
      </trkpt>
      <trkpt lat="50.525" lon="3.58008">
        <ele>34</ele>
        <time>2022-04-10T09:15:13.000Z</time>
      </trkpt>
      <trkpt lat="50.52497" lon="3.58012">
        <ele>33.9</ele>
        <time>2022-04-10T09:15:14.000Z</time>
      </trkpt>
      <trkpt lat="50.52489" lon="3.58021">
        <ele>33.9</ele>
        <time>2022-04-10T09:15:16.114Z</time>
      </trkpt>
      <trkpt lat="50.52485" lon="3.58025">
        <ele>34</ele>
        <time>2022-04-10T09:15:17.000Z</time>
      </trkpt>
      <trkpt lat="50.52481" lon="3.5803">
        <ele>34</ele>
        <time>2022-04-10T09:15:18.000Z</time>
      </trkpt>
      <trkpt lat="50.52477" lon="3.5804">
        <ele>34</ele>
        <time>2022-04-10T09:15:20.000Z</time>
      </trkpt>
      <trkpt lat="50.52469" lon="3.58046">
        <ele>34</ele>
        <time>2022-04-10T09:15:22.000Z</time>
      </trkpt>
      <trkpt lat="50.52461" lon="3.58051">
        <ele>33.9</ele>
        <time>2022-04-10T09:15:24.000Z</time>
      </trkpt>
      <trkpt lat="50.52453" lon="3.58055">
        <ele>34</ele>
        <time>2022-04-10T09:15:26.000Z</time>
      </trkpt>
      <trkpt lat="50.52446" lon="3.58058">
        <ele>34.1</ele>
        <time>2022-04-10T09:15:28.000Z</time>
      </trkpt>
      <trkpt lat="50.52438" lon="3.58062">
        <ele>34.2</ele>
        <time>2022-04-10T09:15:30.052Z</time>
      </trkpt>
      <trkpt lat="50.5243" lon="3.58066">
        <ele>34.2</ele>
        <time>2022-04-10T09:15:32.376Z</time>
      </trkpt>
      <trkpt lat="50.52421" lon="3.58073">
        <ele>34.1</ele>
        <time>2022-04-10T09:15:35.000Z</time>
      </trkpt>
      <trkpt lat="50.52413" lon="3.58076">
        <ele>34</ele>
        <time>2022-04-10T09:15:37.000Z</time>
      </trkpt>
      <trkpt lat="50.52407" lon="3.5808">
        <ele>34</ele>
        <time>2022-04-10T09:15:39.000Z</time>
      </trkpt>
      <trkpt lat="50.524" lon="3.58083">
        <ele>34</ele>
        <time>2022-04-10T09:15:41.000Z</time>
      </trkpt>
      <trkpt lat="50.52394" lon="3.58088">
        <ele>34.2</ele>
        <time>2022-04-10T09:15:43.000Z</time>
      </trkpt>
      <trkpt lat="50.52387" lon="3.58093">
        <ele>34.3</ele>
        <time>2022-04-10T09:15:45.000Z</time>
      </trkpt>
      <trkpt lat="50.5238" lon="3.58096">
        <ele>34.5</ele>
        <time>2022-04-10T09:15:47.000Z</time>
      </trkpt>
      <trkpt lat="50.52373" lon="3.581">
        <ele>34.6</ele>
        <time>2022-04-10T09:15:49.000Z</time>
      </trkpt>
      <trkpt lat="50.52368" lon="3.58104">
        <ele>34.7</ele>
        <time>2022-04-10T09:15:50.433Z</time>
      </trkpt>
      <trkpt lat="50.5236" lon="3.58109">
        <ele>34.9</ele>
        <time>2022-04-10T09:15:52.656Z</time>
      </trkpt>
      <trkpt lat="50.52355" lon="3.58112">
        <ele>35</ele>
        <time>2022-04-10T09:15:54.000Z</time>
      </trkpt>
      <trkpt lat="50.52348" lon="3.58117">
        <ele>35</ele>
        <time>2022-04-10T09:15:56.000Z</time>
      </trkpt>
      <trkpt lat="50.52342" lon="3.58121">
        <ele>35</ele>
        <time>2022-04-10T09:15:58.000Z</time>
      </trkpt>
      <trkpt lat="50.52334" lon="3.58126">
        <ele>35</ele>
        <time>2022-04-10T09:16:00.614Z</time>
      </trkpt>
      <trkpt lat="50.5233" lon="3.58128">
        <ele>35.1</ele>
        <time>2022-04-10T09:16:02.000Z</time>
      </trkpt>
      <trkpt lat="50.52323" lon="3.58131">
        <ele>35.1</ele>
        <time>2022-04-10T09:16:04.000Z</time>
      </trkpt>
      <trkpt lat="50.52316" lon="3.58133">
        <ele>35.1</ele>
        <time>2022-04-10T09:16:06.000Z</time>
      </trkpt>
      <trkpt lat="50.52309" lon="3.58137">
        <ele>35.1</ele>
        <time>2022-04-10T09:16:08.255Z</time>
      </trkpt>
      <trkpt lat="50.52304" lon="3.5814">
        <ele>35</ele>
        <time>2022-04-10T09:16:09.874Z</time>
      </trkpt>
      <trkpt lat="50.52298" lon="3.58145">
        <ele>35.2</ele>
        <time>2022-04-10T09:16:12.000Z</time>
      </trkpt>
      <trkpt lat="50.52292" lon="3.58149">
        <ele>35.4</ele>
        <time>2022-04-10T09:16:14.000Z</time>
      </trkpt>
      <trkpt lat="50.52285" lon="3.58152">
        <ele>35.5</ele>
        <time>2022-04-10T09:16:16.000Z</time>
      </trkpt>
      <trkpt lat="50.52278" lon="3.58156">
        <ele>35.6</ele>
        <time>2022-04-10T09:16:18.000Z</time>
      </trkpt>
      <trkpt lat="50.52271" lon="3.5816">
        <ele>35.8</ele>
        <time>2022-04-10T09:16:20.000Z</time>
      </trkpt>
      <trkpt lat="50.52264" lon="3.58164">
        <ele>35.9</ele>
        <time>2022-04-10T09:16:22.000Z</time>
      </trkpt>
      <trkpt lat="50.52257" lon="3.58169">
        <ele>36</ele>
        <time>2022-04-10T09:16:24.000Z</time>
      </trkpt>
      <trkpt lat="50.5225" lon="3.58172">
        <ele>36</ele>
        <time>2022-04-10T09:16:26.000Z</time>
      </trkpt>
      <trkpt lat="50.52243" lon="3.58177">
        <ele>36</ele>
        <time>2022-04-10T09:16:28.000Z</time>
      </trkpt>
      <trkpt lat="50.52239" lon="3.58179">
        <ele>36</ele>
        <time>2022-04-10T09:16:29.534Z</time>
      </trkpt>
      <trkpt lat="50.52234" lon="3.58183">
        <ele>36</ele>
        <time>2022-04-10T09:16:31.000Z</time>
      </trkpt>
      <trkpt lat="50.52227" lon="3.58188">
        <ele>36</ele>
        <time>2022-04-10T09:16:33.000Z</time>
      </trkpt>
      <trkpt lat="50.5222" lon="3.58191">
        <ele>36</ele>
        <time>2022-04-10T09:16:35.000Z</time>
      </trkpt>
      <trkpt lat="50.52213" lon="3.58195">
        <ele>36</ele>
        <time>2022-04-10T09:16:37.000Z</time>
      </trkpt>
      <trkpt lat="50.52206" lon="3.58199">
        <ele>36</ele>
        <time>2022-04-10T09:16:39.000Z</time>
      </trkpt>
      <trkpt lat="50.52198" lon="3.58203">
        <ele>36</ele>
        <time>2022-04-10T09:16:41.000Z</time>
      </trkpt>
      <trkpt lat="50.52191" lon="3.58206">
        <ele>36</ele>
        <time>2022-04-10T09:16:43.000Z</time>
      </trkpt>
      <trkpt lat="50.52183" lon="3.5821">
        <ele>36</ele>
        <time>2022-04-10T09:16:45.000Z</time>
      </trkpt>
      <trkpt lat="50.52177" lon="3.58214">
        <ele>36</ele>
        <time>2022-04-10T09:16:47.000Z</time>
      </trkpt>
      <trkpt lat="50.5217" lon="3.5822">
        <ele>36</ele>
        <time>2022-04-10T09:16:49.000Z</time>
      </trkpt>
      <trkpt lat="50.52163" lon="3.58224">
        <ele>36.2</ele>
        <time>2022-04-10T09:16:51.000Z</time>
      </trkpt>
      <trkpt lat="50.52156" lon="3.58229">
        <ele>36.4</ele>
        <time>2022-04-10T09:16:53.000Z</time>
      </trkpt>
      <trkpt lat="50.52149" lon="3.58233">
        <ele>36.5</ele>
        <time>2022-04-10T09:16:55.000Z</time>
      </trkpt>
      <trkpt lat="50.52142" lon="3.58239">
        <ele>36.4</ele>
        <time>2022-04-10T09:16:57.000Z</time>
      </trkpt>
      <trkpt lat="50.52135" lon="3.58244">
        <ele>36.3</ele>
        <time>2022-04-10T09:16:59.092Z</time>
      </trkpt>
      <trkpt lat="50.52128" lon="3.58251">
        <ele>36.4</ele>
        <time>2022-04-10T09:17:01.113Z</time>
      </trkpt>
      <trkpt lat="50.52122" lon="3.58258">
        <ele>36.7</ele>
        <time>2022-04-10T09:17:03.115Z</time>
      </trkpt>
      <trkpt lat="50.52116" lon="3.58265">
        <ele>36.9</ele>
        <time>2022-04-10T09:17:05.000Z</time>
      </trkpt>
      <trkpt lat="50.52111" lon="3.58273">
        <ele>37</ele>
        <time>2022-04-10T09:17:07.000Z</time>
      </trkpt>
      <trkpt lat="50.52106" lon="3.58281">
        <ele>37</ele>
        <time>2022-04-10T09:17:09.000Z</time>
      </trkpt>
      <trkpt lat="50.52101" lon="3.5829">
        <ele>37</ele>
        <time>2022-04-10T09:17:11.000Z</time>
      </trkpt>
      <trkpt lat="50.52098" lon="3.58297">
        <ele>37</ele>
        <time>2022-04-10T09:17:12.000Z</time>
      </trkpt>
      <trkpt lat="50.52093" lon="3.58307">
        <ele>37</ele>
        <time>2022-04-10T09:17:14.395Z</time>
      </trkpt>
      <trkpt lat="50.52087" lon="3.58319">
        <ele>37</ele>
        <time>2022-04-10T09:17:17.000Z</time>
      </trkpt>
      <trkpt lat="50.52083" lon="3.5833">
        <ele>37</ele>
        <time>2022-04-10T09:17:19.000Z</time>
      </trkpt>
      <trkpt lat="50.52078" lon="3.5834">
        <ele>37.2</ele>
        <time>2022-04-10T09:17:21.000Z</time>
      </trkpt>
      <trkpt lat="50.52074" lon="3.58353">
        <ele>37.4</ele>
        <time>2022-04-10T09:17:23.472Z</time>
      </trkpt>
      <trkpt lat="50.52071" lon="3.58361">
        <ele>37.4</ele>
        <time>2022-04-10T09:17:25.000Z</time>
      </trkpt>
      <trkpt lat="50.52068" lon="3.58375">
        <ele>37.3</ele>
        <time>2022-04-10T09:17:27.413Z</time>
      </trkpt>
      <trkpt lat="50.52066" lon="3.58383">
        <ele>37.1</ele>
        <time>2022-04-10T09:17:28.754Z</time>
      </trkpt>
      <trkpt lat="50.52062" lon="3.58395">
        <ele>37</ele>
        <time>2022-04-10T09:17:31.134Z</time>
      </trkpt>
      <trkpt lat="50.52059" lon="3.58405">
        <ele>37</ele>
        <time>2022-04-10T09:17:32.934Z</time>
      </trkpt>
      <trkpt lat="50.52057" lon="3.58416">
        <ele>37</ele>
        <time>2022-04-10T09:17:34.993Z</time>
      </trkpt>
      <trkpt lat="50.52056" lon="3.58424">
        <ele>37</ele>
        <time>2022-04-10T09:17:36.373Z</time>
      </trkpt>
      <trkpt lat="50.52055" lon="3.58433">
        <ele>37</ele>
        <time>2022-04-10T09:17:38.000Z</time>
      </trkpt>
      <trkpt lat="50.52053" lon="3.58444">
        <ele>37.1</ele>
        <time>2022-04-10T09:17:40.094Z</time>
      </trkpt>
      <trkpt lat="50.52052" lon="3.58455">
        <ele>37.1</ele>
        <time>2022-04-10T09:17:41.977Z</time>
      </trkpt>
      <trkpt lat="50.52051" lon="3.58467">
        <ele>37.2</ele>
        <time>2022-04-10T09:17:44.000Z</time>
      </trkpt>
      <trkpt lat="50.52051" lon="3.58478">
        <ele>37.2</ele>
        <time>2022-04-10T09:17:46.000Z</time>
      </trkpt>
      <trkpt lat="50.52051" lon="3.5849">
        <ele>37.2</ele>
        <time>2022-04-10T09:17:48.000Z</time>
      </trkpt>
      <trkpt lat="50.5205" lon="3.58501">
        <ele>37.2</ele>
        <time>2022-04-10T09:17:50.000Z</time>
      </trkpt>
      <trkpt lat="50.52054" lon="3.58509">
        <ele>37.4</ele>
        <time>2022-04-10T09:17:52.000Z</time>
      </trkpt>
      <trkpt lat="50.52064" lon="3.58508">
        <ele>37.3</ele>
        <time>2022-04-10T09:17:54.000Z</time>
      </trkpt>
      <trkpt lat="50.52069" lon="3.58507">
        <ele>37.3</ele>
        <time>2022-04-10T09:17:55.000Z</time>
      </trkpt>
      <trkpt lat="50.52079" lon="3.58506">
        <ele>37.2</ele>
        <time>2022-04-10T09:17:57.000Z</time>
      </trkpt>
      <trkpt lat="50.52084" lon="3.58505">
        <ele>37.2</ele>
        <time>2022-04-10T09:17:58.000Z</time>
      </trkpt>
      <trkpt lat="50.52089" lon="3.58505">
        <ele>37.4</ele>
        <time>2022-04-10T09:17:59.000Z</time>
      </trkpt>
      <trkpt lat="50.52094" lon="3.58506">
        <ele>37.5</ele>
        <time>2022-04-10T09:18:00.000Z</time>
      </trkpt>
      <trkpt lat="50.52099" lon="3.58506">
        <ele>37.6</ele>
        <time>2022-04-10T09:18:01.000Z</time>
      </trkpt>
      <trkpt lat="50.52107" lon="3.58508">
        <ele>37.9</ele>
        <time>2022-04-10T09:18:03.000Z</time>
      </trkpt>
      <trkpt lat="50.52116" lon="3.5851">
        <ele>38</ele>
        <time>2022-04-10T09:18:05.000Z</time>
      </trkpt>
      <trkpt lat="50.5212" lon="3.58512">
        <ele>38</ele>
        <time>2022-04-10T09:18:06.000Z</time>
      </trkpt>
      <trkpt lat="50.52127" lon="3.58516">
        <ele>38</ele>
        <time>2022-04-10T09:18:08.000Z</time>
      </trkpt>
      <trkpt lat="50.52132" lon="3.58519">
        <ele>38</ele>
        <time>2022-04-10T09:18:09.000Z</time>
      </trkpt>
      <trkpt lat="50.52143" lon="3.58527">
        <ele>38.1</ele>
        <time>2022-04-10T09:18:12.776Z</time>
      </trkpt>
      <trkpt lat="50.52148" lon="3.5853">
        <ele>38.3</ele>
        <time>2022-04-10T09:18:14.000Z</time>
      </trkpt>
      <trkpt lat="50.52157" lon="3.58534">
        <ele>38.5</ele>
        <time>2022-04-10T09:18:16.000Z</time>
      </trkpt>
      <trkpt lat="50.52165" lon="3.58539">
        <ele>38.6</ele>
        <time>2022-04-10T09:18:18.000Z</time>
      </trkpt>
      <trkpt lat="50.52171" lon="3.58546">
        <ele>38.6</ele>
        <time>2022-04-10T09:18:20.112Z</time>
      </trkpt>
      <trkpt lat="50.52177" lon="3.58552">
        <ele>38.8</ele>
        <time>2022-04-10T09:18:22.000Z</time>
      </trkpt>
      <trkpt lat="50.52183" lon="3.58557">
        <ele>39.2</ele>
        <time>2022-04-10T09:18:24.000Z</time>
      </trkpt>
      <trkpt lat="50.52187" lon="3.58562">
        <ele>39.5</ele>
        <time>2022-04-10T09:18:26.000Z</time>
      </trkpt>
      <trkpt lat="50.5219" lon="3.58569">
        <ele>39.8</ele>
        <time>2022-04-10T09:18:28.000Z</time>
      </trkpt>
      <trkpt lat="50.52189" lon="3.58577">
        <ele>39.8</ele>
        <time>2022-04-10T09:18:30.000Z</time>
      </trkpt>
      <trkpt lat="50.52187" lon="3.58584">
        <ele>39.7</ele>
        <time>2022-04-10T09:18:32.000Z</time>
      </trkpt>
      <trkpt lat="50.52183" lon="3.5859">
        <ele>39</ele>
        <time>2022-04-10T09:18:34.000Z</time>
      </trkpt>
      <trkpt lat="50.52177" lon="3.58597">
        <ele>38.6</ele>
        <time>2022-04-10T09:18:36.000Z</time>
      </trkpt>
      <trkpt lat="50.52172" lon="3.58607">
        <ele>38.6</ele>
        <time>2022-04-10T09:18:38.000Z</time>
      </trkpt>
      <trkpt lat="50.52165" lon="3.5862">
        <ele>38.9</ele>
        <time>2022-04-10T09:18:40.000Z</time>
      </trkpt>
      <trkpt lat="50.52162" lon="3.58625">
        <ele>38.8</ele>
        <time>2022-04-10T09:18:41.000Z</time>
      </trkpt>
      <trkpt lat="50.52156" lon="3.58634">
        <ele>38.6</ele>
        <time>2022-04-10T09:18:43.000Z</time>
      </trkpt>
      <trkpt lat="50.52153" lon="3.5864">
        <ele>38.4</ele>
        <time>2022-04-10T09:18:44.214Z</time>
      </trkpt>
      <trkpt lat="50.52148" lon="3.58653">
        <ele>37.7</ele>
        <time>2022-04-10T09:18:46.000Z</time>
      </trkpt>
      <trkpt lat="50.52145" lon="3.58659">
        <ele>37.6</ele>
        <time>2022-04-10T09:18:47.000Z</time>
      </trkpt>
      <trkpt lat="50.52141" lon="3.58664">
        <ele>37.8</ele>
        <time>2022-04-10T09:18:48.000Z</time>
      </trkpt>
      <trkpt lat="50.52138" lon="3.58671">
        <ele>37.8</ele>
        <time>2022-04-10T09:18:49.000Z</time>
      </trkpt>
      <trkpt lat="50.52135" lon="3.58678">
        <ele>37.5</ele>
        <time>2022-04-10T09:18:50.000Z</time>
      </trkpt>
      <trkpt lat="50.52131" lon="3.58684">
        <ele>37.3</ele>
        <time>2022-04-10T09:18:51.000Z</time>
      </trkpt>
      <trkpt lat="50.52128" lon="3.58691">
        <ele>37.1</ele>
        <time>2022-04-10T09:18:52.000Z</time>
      </trkpt>
      <trkpt lat="50.52125" lon="3.58697">
        <ele>37</ele>
        <time>2022-04-10T09:18:53.000Z</time>
      </trkpt>
      <trkpt lat="50.52121" lon="3.58704">
        <ele>37</ele>
        <time>2022-04-10T09:18:54.000Z</time>
      </trkpt>
      <trkpt lat="50.52117" lon="3.58711">
        <ele>37.2</ele>
        <time>2022-04-10T09:18:55.000Z</time>
      </trkpt>
      <trkpt lat="50.52113" lon="3.58717">
        <ele>37.7</ele>
        <time>2022-04-10T09:18:56.000Z</time>
      </trkpt>
      <trkpt lat="50.52109" lon="3.58724">
        <ele>37.8</ele>
        <time>2022-04-10T09:18:57.000Z</time>
      </trkpt>
      <trkpt lat="50.52106" lon="3.5873">
        <ele>37.3</ele>
        <time>2022-04-10T09:18:58.000Z</time>
      </trkpt>
      <trkpt lat="50.52103" lon="3.58737">
        <ele>36.9</ele>
        <time>2022-04-10T09:18:59.000Z</time>
      </trkpt>
      <trkpt lat="50.521" lon="3.58744">
        <ele>36.7</ele>
        <time>2022-04-10T09:19:00.000Z</time>
      </trkpt>
      <trkpt lat="50.52096" lon="3.58751">
        <ele>36.5</ele>
        <time>2022-04-10T09:19:01.000Z</time>
      </trkpt>
      <trkpt lat="50.52093" lon="3.58757">
        <ele>36.6</ele>
        <time>2022-04-10T09:19:02.000Z</time>
      </trkpt>
      <trkpt lat="50.5209" lon="3.58764">
        <ele>36.7</ele>
        <time>2022-04-10T09:19:03.000Z</time>
      </trkpt>
      <trkpt lat="50.52086" lon="3.58772">
        <ele>36.8</ele>
        <time>2022-04-10T09:19:04.000Z</time>
      </trkpt>
      <trkpt lat="50.52083" lon="3.58779">
        <ele>36.9</ele>
        <time>2022-04-10T09:19:05.000Z</time>
      </trkpt>
      <trkpt lat="50.5208" lon="3.58786">
        <ele>36.6</ele>
        <time>2022-04-10T09:19:06.000Z</time>
      </trkpt>
      <trkpt lat="50.52076" lon="3.58793">
        <ele>36.5</ele>
        <time>2022-04-10T09:19:07.000Z</time>
      </trkpt>
      <trkpt lat="50.52073" lon="3.58799">
        <ele>36.4</ele>
        <time>2022-04-10T09:19:08.000Z</time>
      </trkpt>
      <trkpt lat="50.5207" lon="3.58806">
        <ele>36.5</ele>
        <time>2022-04-10T09:19:09.000Z</time>
      </trkpt>
      <trkpt lat="50.52067" lon="3.58813">
        <ele>36.4</ele>
        <time>2022-04-10T09:19:10.000Z</time>
      </trkpt>
      <trkpt lat="50.52064" lon="3.58821">
        <ele>36.1</ele>
        <time>2022-04-10T09:19:11.000Z</time>
      </trkpt>
      <trkpt lat="50.52062" lon="3.58829">
        <ele>36</ele>
        <time>2022-04-10T09:19:12.000Z</time>
      </trkpt>
      <trkpt lat="50.52059" lon="3.58836">
        <ele>35.9</ele>
        <time>2022-04-10T09:19:13.000Z</time>
      </trkpt>
      <trkpt lat="50.52056" lon="3.58843">
        <ele>36</ele>
        <time>2022-04-10T09:19:14.000Z</time>
      </trkpt>
      <trkpt lat="50.52053" lon="3.5885">
        <ele>36</ele>
        <time>2022-04-10T09:19:15.000Z</time>
      </trkpt>
      <trkpt lat="50.5205" lon="3.58857">
        <ele>36</ele>
        <time>2022-04-10T09:19:16.000Z</time>
      </trkpt>
      <trkpt lat="50.52049" lon="3.58864">
        <ele>35.9</ele>
        <time>2022-04-10T09:19:17.000Z</time>
      </trkpt>
      <trkpt lat="50.52049" lon="3.58873">
        <ele>35.7</ele>
        <time>2022-04-10T09:19:18.000Z</time>
      </trkpt>
      <trkpt lat="50.5205" lon="3.5888">
        <ele>35.5</ele>
        <time>2022-04-10T09:19:19.000Z</time>
      </trkpt>
      <trkpt lat="50.52053" lon="3.58887">
        <ele>35.2</ele>
        <time>2022-04-10T09:19:21.000Z</time>
      </trkpt>
      <trkpt lat="50.52055" lon="3.58893">
        <ele>34.7</ele>
        <time>2022-04-10T09:19:30.000Z</time>
      </trkpt>
      <trkpt lat="50.52054" lon="3.58901">
        <ele>34.2</ele>
        <time>2022-04-10T09:19:34.000Z</time>
      </trkpt>
      <trkpt lat="50.52051" lon="3.58907">
        <ele>34</ele>
        <time>2022-04-10T09:19:37.000Z</time>
      </trkpt>
      <trkpt lat="50.52047" lon="3.58915">
        <ele>33.7</ele>
        <time>2022-04-10T09:19:39.545Z</time>
      </trkpt>
      <trkpt lat="50.52045" lon="3.58921">
        <ele>33.9</ele>
        <time>2022-04-10T09:19:40.904Z</time>
      </trkpt>
      <trkpt lat="50.52042" lon="3.58927">
        <ele>34.2</ele>
        <time>2022-04-10T09:19:42.086Z</time>
      </trkpt>
      <trkpt lat="50.52038" lon="3.58938">
        <ele>34.6</ele>
        <time>2022-04-10T09:19:44.000Z</time>
      </trkpt>
      <trkpt lat="50.52035" lon="3.58944">
        <ele>34.7</ele>
        <time>2022-04-10T09:19:45.000Z</time>
      </trkpt>
      <trkpt lat="50.52032" lon="3.5895">
        <ele>34.7</ele>
        <time>2022-04-10T09:19:46.000Z</time>
      </trkpt>
      <trkpt lat="50.52029" lon="3.58958">
        <ele>34.5</ele>
        <time>2022-04-10T09:19:47.465Z</time>
      </trkpt>
      <trkpt lat="50.52026" lon="3.58968">
        <ele>34.2</ele>
        <time>2022-04-10T09:19:49.147Z</time>
      </trkpt>
      <trkpt lat="50.52022" lon="3.58979">
        <ele>34.2</ele>
        <time>2022-04-10T09:19:50.965Z</time>
      </trkpt>
      <trkpt lat="50.5202" lon="3.58986">
        <ele>34.3</ele>
        <time>2022-04-10T09:19:52.107Z</time>
      </trkpt>
      <trkpt lat="50.52016" lon="3.58997">
        <ele>34.4</ele>
        <time>2022-04-10T09:19:54.000Z</time>
      </trkpt>
      <trkpt lat="50.52012" lon="3.59008">
        <ele>34.4</ele>
        <time>2022-04-10T09:19:56.105Z</time>
      </trkpt>
      <trkpt lat="50.52009" lon="3.59016">
        <ele>34.3</ele>
        <time>2022-04-10T09:19:57.249Z</time>
      </trkpt>
      <trkpt lat="50.52007" lon="3.59023">
        <ele>34.1</ele>
        <time>2022-04-10T09:19:58.386Z</time>
      </trkpt>
      <trkpt lat="50.52004" lon="3.59029">
        <ele>34</ele>
        <time>2022-04-10T09:19:59.503Z</time>
      </trkpt>
      <trkpt lat="50.52002" lon="3.59036">
        <ele>34</ele>
        <time>2022-04-10T09:20:00.666Z</time>
      </trkpt>
      <trkpt lat="50.51998" lon="3.59045">
        <ele>34.1</ele>
        <time>2022-04-10T09:20:02.000Z</time>
      </trkpt>
      <trkpt lat="50.51993" lon="3.59054">
        <ele>34.2</ele>
        <time>2022-04-10T09:20:04.000Z</time>
      </trkpt>
      <trkpt lat="50.5199" lon="3.59063">
        <ele>34.4</ele>
        <time>2022-04-10T09:20:05.393Z</time>
      </trkpt>
      <trkpt lat="50.51985" lon="3.59077">
        <ele>34.5</ele>
        <time>2022-04-10T09:20:07.674Z</time>
      </trkpt>
      <trkpt lat="50.51984" lon="3.59084">
        <ele>34.6</ele>
        <time>2022-04-10T09:20:08.676Z</time>
      </trkpt>
      <trkpt lat="50.51981" lon="3.59092">
        <ele>34.7</ele>
        <time>2022-04-10T09:20:10.000Z</time>
      </trkpt>
      <trkpt lat="50.51976" lon="3.59104">
        <ele>34.9</ele>
        <time>2022-04-10T09:20:12.000Z</time>
      </trkpt>
      <trkpt lat="50.51968" lon="3.59115">
        <ele>34.9</ele>
        <time>2022-04-10T09:20:14.676Z</time>
      </trkpt>
      <trkpt lat="50.51964" lon="3.59122">
        <ele>34.7</ele>
        <time>2022-04-10T09:20:15.998Z</time>
      </trkpt>
      <trkpt lat="50.51961" lon="3.59129">
        <ele>34.6</ele>
        <time>2022-04-10T09:20:17.000Z</time>
      </trkpt>
      <trkpt lat="50.51959" lon="3.59142">
        <ele>34.5</ele>
        <time>2022-04-10T09:20:18.999Z</time>
      </trkpt>
      <trkpt lat="50.51956" lon="3.59153">
        <ele>34.6</ele>
        <time>2022-04-10T09:20:21.000Z</time>
      </trkpt>
      <trkpt lat="50.51952" lon="3.59164">
        <ele>34.7</ele>
        <time>2022-04-10T09:20:23.000Z</time>
      </trkpt>
      <trkpt lat="50.51948" lon="3.59178">
        <ele>34.9</ele>
        <time>2022-04-10T09:20:25.000Z</time>
      </trkpt>
      <trkpt lat="50.51946" lon="3.59184">
        <ele>35</ele>
        <time>2022-04-10T09:20:26.000Z</time>
      </trkpt>
      <trkpt lat="50.51944" lon="3.59191">
        <ele>35</ele>
        <time>2022-04-10T09:20:27.000Z</time>
      </trkpt>
      <trkpt lat="50.51942" lon="3.59198">
        <ele>34.9</ele>
        <time>2022-04-10T09:20:28.000Z</time>
      </trkpt>
      <trkpt lat="50.51941" lon="3.59205">
        <ele>34.9</ele>
        <time>2022-04-10T09:20:29.000Z</time>
      </trkpt>
      <trkpt lat="50.51939" lon="3.59212">
        <ele>34.9</ele>
        <time>2022-04-10T09:20:30.000Z</time>
      </trkpt>
      <trkpt lat="50.51938" lon="3.59219">
        <ele>35</ele>
        <time>2022-04-10T09:20:31.000Z</time>
      </trkpt>
      <trkpt lat="50.51935" lon="3.59226">
        <ele>34.9</ele>
        <time>2022-04-10T09:20:32.000Z</time>
      </trkpt>
      <trkpt lat="50.51933" lon="3.59232">
        <ele>34.8</ele>
        <time>2022-04-10T09:20:33.000Z</time>
      </trkpt>
      <trkpt lat="50.5193" lon="3.59238">
        <ele>34.7</ele>
        <time>2022-04-10T09:20:34.000Z</time>
      </trkpt>
      <trkpt lat="50.51928" lon="3.59245">
        <ele>34.7</ele>
        <time>2022-04-10T09:20:35.000Z</time>
      </trkpt>
      <trkpt lat="50.51926" lon="3.59251">
        <ele>34.7</ele>
        <time>2022-04-10T09:20:36.000Z</time>
      </trkpt>
      <trkpt lat="50.51923" lon="3.59262">
        <ele>34.8</ele>
        <time>2022-04-10T09:20:38.000Z</time>
      </trkpt>
      <trkpt lat="50.51921" lon="3.59276">
        <ele>34.8</ele>
        <time>2022-04-10T09:20:40.000Z</time>
      </trkpt>
      <trkpt lat="50.51918" lon="3.59287">
        <ele>34.9</ele>
        <time>2022-04-10T09:20:42.000Z</time>
      </trkpt>
      <trkpt lat="50.51917" lon="3.59299">
        <ele>35</ele>
        <time>2022-04-10T09:20:44.000Z</time>
      </trkpt>
      <trkpt lat="50.51913" lon="3.59312">
        <ele>34.9</ele>
        <time>2022-04-10T09:20:46.000Z</time>
      </trkpt>
      <trkpt lat="50.51912" lon="3.59319">
        <ele>34.8</ele>
        <time>2022-04-10T09:20:47.000Z</time>
      </trkpt>
      <trkpt lat="50.5191" lon="3.59325">
        <ele>34.8</ele>
        <time>2022-04-10T09:20:48.000Z</time>
      </trkpt>
      <trkpt lat="50.51908" lon="3.59332">
        <ele>34.7</ele>
        <time>2022-04-10T09:20:49.000Z</time>
      </trkpt>
      <trkpt lat="50.51906" lon="3.59339">
        <ele>34.7</ele>
        <time>2022-04-10T09:20:50.000Z</time>
      </trkpt>
      <trkpt lat="50.51905" lon="3.59346">
        <ele>34.8</ele>
        <time>2022-04-10T09:20:51.000Z</time>
      </trkpt>
      <trkpt lat="50.51903" lon="3.59353">
        <ele>34.9</ele>
        <time>2022-04-10T09:20:52.000Z</time>
      </trkpt>
      <trkpt lat="50.51901" lon="3.59365">
        <ele>35</ele>
        <time>2022-04-10T09:20:54.000Z</time>
      </trkpt>
      <trkpt lat="50.519" lon="3.59378">
        <ele>35</ele>
        <time>2022-04-10T09:20:56.000Z</time>
      </trkpt>
      <trkpt lat="50.51901" lon="3.59391">
        <ele>35</ele>
        <time>2022-04-10T09:20:58.000Z</time>
      </trkpt>
      <trkpt lat="50.519" lon="3.59404">
        <ele>35</ele>
        <time>2022-04-10T09:21:00.000Z</time>
      </trkpt>
      <trkpt lat="50.519" lon="3.59419">
        <ele>35</ele>
        <time>2022-04-10T09:21:02.385Z</time>
      </trkpt>
      <trkpt lat="50.51898" lon="3.59432">
        <ele>34.8</ele>
        <time>2022-04-10T09:21:04.344Z</time>
      </trkpt>
      <trkpt lat="50.51897" lon="3.59439">
        <ele>34.8</ele>
        <time>2022-04-10T09:21:05.462Z</time>
      </trkpt>
      <trkpt lat="50.51894" lon="3.59456">
        <ele>34.8</ele>
        <time>2022-04-10T09:21:08.000Z</time>
      </trkpt>
      <trkpt lat="50.51893" lon="3.59463">
        <ele>34.8</ele>
        <time>2022-04-10T09:21:09.000Z</time>
      </trkpt>
      <trkpt lat="50.51891" lon="3.59476">
        <ele>34.9</ele>
        <time>2022-04-10T09:21:11.000Z</time>
      </trkpt>
      <trkpt lat="50.51889" lon="3.59488">
        <ele>35</ele>
        <time>2022-04-10T09:21:12.882Z</time>
      </trkpt>
      <trkpt lat="50.51888" lon="3.59494">
        <ele>35.1</ele>
        <time>2022-04-10T09:21:13.964Z</time>
      </trkpt>
      <trkpt lat="50.51886" lon="3.59508">
        <ele>35.2</ele>
        <time>2022-04-10T09:21:16.049Z</time>
      </trkpt>
      <trkpt lat="50.51884" lon="3.5952">
        <ele>35.3</ele>
        <time>2022-04-10T09:21:18.000Z</time>
      </trkpt>
      <trkpt lat="50.51883" lon="3.59527">
        <ele>35.4</ele>
        <time>2022-04-10T09:21:19.123Z</time>
      </trkpt>
      <trkpt lat="50.51882" lon="3.59539">
        <ele>35.4</ele>
        <time>2022-04-10T09:21:20.746Z</time>
      </trkpt>
      <trkpt lat="50.51881" lon="3.59547">
        <ele>35.4</ele>
        <time>2022-04-10T09:21:22.000Z</time>
      </trkpt>
      <trkpt lat="50.51879" lon="3.5956">
        <ele>35.3</ele>
        <time>2022-04-10T09:21:24.000Z</time>
      </trkpt>
      <trkpt lat="50.51878" lon="3.59573">
        <ele>35</ele>
        <time>2022-04-10T09:21:26.000Z</time>
      </trkpt>
      <trkpt lat="50.51877" lon="3.59585">
        <ele>34.9</ele>
        <time>2022-04-10T09:21:27.966Z</time>
      </trkpt>
      <trkpt lat="50.51876" lon="3.59593">
        <ele>35</ele>
        <time>2022-04-10T09:21:29.000Z</time>
      </trkpt>
      <trkpt lat="50.51874" lon="3.59608">
        <ele>35.1</ele>
        <time>2022-04-10T09:21:31.363Z</time>
      </trkpt>
      <trkpt lat="50.51873" lon="3.59619">
        <ele>35.2</ele>
        <time>2022-04-10T09:21:33.000Z</time>
      </trkpt>
      <trkpt lat="50.51872" lon="3.59632">
        <ele>35.2</ele>
        <time>2022-04-10T09:21:35.000Z</time>
      </trkpt>
      <trkpt lat="50.51871" lon="3.5964">
        <ele>35.3</ele>
        <time>2022-04-10T09:21:36.000Z</time>
      </trkpt>
      <trkpt lat="50.5187" lon="3.59654">
        <ele>35.4</ele>
        <time>2022-04-10T09:21:38.000Z</time>
      </trkpt>
      <trkpt lat="50.51869" lon="3.59662">
        <ele>35.4</ele>
        <time>2022-04-10T09:21:39.000Z</time>
      </trkpt>
      <trkpt lat="50.51868" lon="3.59668">
        <ele>35.4</ele>
        <time>2022-04-10T09:21:40.000Z</time>
      </trkpt>
      <trkpt lat="50.51865" lon="3.59679">
        <ele>35.3</ele>
        <time>2022-04-10T09:21:42.000Z</time>
      </trkpt>
      <trkpt lat="50.51864" lon="3.59695">
        <ele>34.9</ele>
        <time>2022-04-10T09:21:44.334Z</time>
      </trkpt>
      <trkpt lat="50.51864" lon="3.59704">
        <ele>34.9</ele>
        <time>2022-04-10T09:21:45.737Z</time>
      </trkpt>
      <trkpt lat="50.51864" lon="3.59713">
        <ele>34.9</ele>
        <time>2022-04-10T09:21:46.934Z</time>
      </trkpt>
      <trkpt lat="50.51863" lon="3.5972">
        <ele>34.9</ele>
        <time>2022-04-10T09:21:48.000Z</time>
      </trkpt>
      <trkpt lat="50.51863" lon="3.59727">
        <ele>35</ele>
        <time>2022-04-10T09:21:49.033Z</time>
      </trkpt>
      <trkpt lat="50.51863" lon="3.59735">
        <ele>35</ele>
        <time>2022-04-10T09:21:50.000Z</time>
      </trkpt>
      <trkpt lat="50.51862" lon="3.59742">
        <ele>35</ele>
        <time>2022-04-10T09:21:51.000Z</time>
      </trkpt>
      <trkpt lat="50.51862" lon="3.59756">
        <ele>35</ele>
        <time>2022-04-10T09:21:52.994Z</time>
      </trkpt>
      <trkpt lat="50.51861" lon="3.59769">
        <ele>35</ele>
        <time>2022-04-10T09:21:55.000Z</time>
      </trkpt>
      <trkpt lat="50.5186" lon="3.59783">
        <ele>35.1</ele>
        <time>2022-04-10T09:21:57.000Z</time>
      </trkpt>
      <trkpt lat="50.5186" lon="3.5979">
        <ele>35.1</ele>
        <time>2022-04-10T09:21:58.000Z</time>
      </trkpt>
      <trkpt lat="50.51859" lon="3.59797">
        <ele>35.2</ele>
        <time>2022-04-10T09:21:59.000Z</time>
      </trkpt>
      <trkpt lat="50.51858" lon="3.59804">
        <ele>35.2</ele>
        <time>2022-04-10T09:22:00.000Z</time>
      </trkpt>
      <trkpt lat="50.51858" lon="3.59818">
        <ele>35.3</ele>
        <time>2022-04-10T09:22:02.000Z</time>
      </trkpt>
      <trkpt lat="50.51857" lon="3.59825">
        <ele>35.4</ele>
        <time>2022-04-10T09:22:03.000Z</time>
      </trkpt>
      <trkpt lat="50.51857" lon="3.59843">
        <ele>35.4</ele>
        <time>2022-04-10T09:22:06.000Z</time>
      </trkpt>
      <trkpt lat="50.51857" lon="3.5985">
        <ele>35.5</ele>
        <time>2022-04-10T09:22:07.000Z</time>
      </trkpt>
      <trkpt lat="50.51854" lon="3.59856">
        <ele>35.8</ele>
        <time>2022-04-10T09:22:08.000Z</time>
      </trkpt>
      <trkpt lat="50.51854" lon="3.59863">
        <ele>35.8</ele>
        <time>2022-04-10T09:22:09.000Z</time>
      </trkpt>
      <trkpt lat="50.51855" lon="3.59873">
        <ele>35.6</ele>
        <time>2022-04-10T09:22:10.000Z</time>
      </trkpt>
      <trkpt lat="50.51855" lon="3.5988">
        <ele>35.6</ele>
        <time>2022-04-10T09:22:11.000Z</time>
      </trkpt>
      <trkpt lat="50.51853" lon="3.59895">
        <ele>35.9</ele>
        <time>2022-04-10T09:22:13.652Z</time>
      </trkpt>
      <trkpt lat="50.51853" lon="3.59903">
        <ele>35.9</ele>
        <time>2022-04-10T09:22:14.733Z</time>
      </trkpt>
      <trkpt lat="50.51854" lon="3.59913">
        <ele>35.8</ele>
        <time>2022-04-10T09:22:16.136Z</time>
      </trkpt>
      <trkpt lat="50.51854" lon="3.59921">
        <ele>35.6</ele>
        <time>2022-04-10T09:22:17.131Z</time>
      </trkpt>
      <trkpt lat="50.51854" lon="3.59932">
        <ele>35.1</ele>
        <time>2022-04-10T09:22:18.610Z</time>
      </trkpt>
      <trkpt lat="50.51854" lon="3.59942">
        <ele>34.6</ele>
        <time>2022-04-10T09:22:19.956Z</time>
      </trkpt>
      <trkpt lat="50.51854" lon="3.5995">
        <ele>34.8</ele>
        <time>2022-04-10T09:22:21.000Z</time>
      </trkpt>
      <trkpt lat="50.51854" lon="3.59969">
        <ele>35.9</ele>
        <time>2022-04-10T09:22:23.853Z</time>
      </trkpt>
      <trkpt lat="50.51854" lon="3.59976">
        <ele>36</ele>
        <time>2022-04-10T09:22:24.952Z</time>
      </trkpt>
      <trkpt lat="50.51855" lon="3.59983">
        <ele>36</ele>
        <time>2022-04-10T09:22:26.000Z</time>
      </trkpt>
      <trkpt lat="50.51855" lon="3.59996">
        <ele>36.1</ele>
        <time>2022-04-10T09:22:28.000Z</time>
      </trkpt>
      <trkpt lat="50.51856" lon="3.60009">
        <ele>36</ele>
        <time>2022-04-10T09:22:30.000Z</time>
      </trkpt>
      <trkpt lat="50.51856" lon="3.60021">
        <ele>35.9</ele>
        <time>2022-04-10T09:22:31.974Z</time>
      </trkpt>
      <trkpt lat="50.51856" lon="3.60032">
        <ele>36</ele>
        <time>2022-04-10T09:22:34.000Z</time>
      </trkpt>
      <trkpt lat="50.51855" lon="3.60041">
        <ele>36.1</ele>
        <time>2022-04-10T09:22:35.512Z</time>
      </trkpt>
      <trkpt lat="50.51854" lon="3.6005">
        <ele>36.2</ele>
        <time>2022-04-10T09:22:37.117Z</time>
      </trkpt>
      <trkpt lat="50.51853" lon="3.60062">
        <ele>36.5</ele>
        <time>2022-04-10T09:22:39.000Z</time>
      </trkpt>
      <trkpt lat="50.51852" lon="3.60077">
        <ele>36.7</ele>
        <time>2022-04-10T09:22:41.412Z</time>
      </trkpt>
      <trkpt lat="50.51852" lon="3.60085">
        <ele>36.7</ele>
        <time>2022-04-10T09:22:42.471Z</time>
      </trkpt>
      <trkpt lat="50.51852" lon="3.60095">
        <ele>36.6</ele>
        <time>2022-04-10T09:22:44.000Z</time>
      </trkpt>
      <trkpt lat="50.51853" lon="3.60109">
        <ele>36.6</ele>
        <time>2022-04-10T09:22:46.000Z</time>
      </trkpt>
      <trkpt lat="50.51853" lon="3.60117">
        <ele>36.4</ele>
        <time>2022-04-10T09:22:47.000Z</time>
      </trkpt>
      <trkpt lat="50.51854" lon="3.6013">
        <ele>36.2</ele>
        <time>2022-04-10T09:22:49.000Z</time>
      </trkpt>
      <trkpt lat="50.51854" lon="3.60137">
        <ele>36.1</ele>
        <time>2022-04-10T09:22:50.000Z</time>
      </trkpt>
      <trkpt lat="50.51854" lon="3.6015">
        <ele>36.1</ele>
        <time>2022-04-10T09:22:51.913Z</time>
      </trkpt>
      <trkpt lat="50.51854" lon="3.60158">
        <ele>36</ele>
        <time>2022-04-10T09:22:53.000Z</time>
      </trkpt>
      <trkpt lat="50.51854" lon="3.60165">
        <ele>36</ele>
        <time>2022-04-10T09:22:54.000Z</time>
      </trkpt>
      <trkpt lat="50.51854" lon="3.60178">
        <ele>36</ele>
        <time>2022-04-10T09:22:56.000Z</time>
      </trkpt>
      <trkpt lat="50.51854" lon="3.60185">
        <ele>36</ele>
        <time>2022-04-10T09:22:57.010Z</time>
      </trkpt>
      <trkpt lat="50.51854" lon="3.60193">
        <ele>36</ele>
        <time>2022-04-10T09:22:58.000Z</time>
      </trkpt>
      <trkpt lat="50.51854" lon="3.602">
        <ele>35.8</ele>
        <time>2022-04-10T09:22:59.000Z</time>
      </trkpt>
      <trkpt lat="50.51854" lon="3.60216">
        <ele>35.3</ele>
        <time>2022-04-10T09:23:01.392Z</time>
      </trkpt>
      <trkpt lat="50.51854" lon="3.60223">
        <ele>35</ele>
        <time>2022-04-10T09:23:02.493Z</time>
      </trkpt>
      <trkpt lat="50.51854" lon="3.60239">
        <ele>35.1</ele>
        <time>2022-04-10T09:23:04.892Z</time>
      </trkpt>
      <trkpt lat="50.51853" lon="3.60247">
        <ele>35.1</ele>
        <time>2022-04-10T09:23:06.000Z</time>
      </trkpt>
      <trkpt lat="50.51854" lon="3.6026">
        <ele>35.3</ele>
        <time>2022-04-10T09:23:07.974Z</time>
      </trkpt>
      <trkpt lat="50.51854" lon="3.60269">
        <ele>35.5</ele>
        <time>2022-04-10T09:23:09.000Z</time>
      </trkpt>
      <trkpt lat="50.51855" lon="3.60277">
        <ele>35.7</ele>
        <time>2022-04-10T09:23:10.000Z</time>
      </trkpt>
      <trkpt lat="50.51855" lon="3.60284">
        <ele>35.7</ele>
        <time>2022-04-10T09:23:11.000Z</time>
      </trkpt>
      <trkpt lat="50.51855" lon="3.60291">
        <ele>35.7</ele>
        <time>2022-04-10T09:23:12.000Z</time>
      </trkpt>
      <trkpt lat="50.51855" lon="3.60299">
        <ele>35.7</ele>
        <time>2022-04-10T09:23:13.000Z</time>
      </trkpt>
      <trkpt lat="50.51855" lon="3.60306">
        <ele>35.7</ele>
        <time>2022-04-10T09:23:14.000Z</time>
      </trkpt>
      <trkpt lat="50.51855" lon="3.60314">
        <ele>35.7</ele>
        <time>2022-04-10T09:23:15.000Z</time>
      </trkpt>
      <trkpt lat="50.51855" lon="3.60321">
        <ele>35.7</ele>
        <time>2022-04-10T09:23:16.000Z</time>
      </trkpt>
      <trkpt lat="50.51855" lon="3.60329">
        <ele>35.7</ele>
        <time>2022-04-10T09:23:17.000Z</time>
      </trkpt>
      <trkpt lat="50.51855" lon="3.60336">
        <ele>35.6</ele>
        <time>2022-04-10T09:23:18.000Z</time>
      </trkpt>
      <trkpt lat="50.51855" lon="3.60343">
        <ele>35.6</ele>
        <time>2022-04-10T09:23:19.000Z</time>
      </trkpt>
      <trkpt lat="50.51855" lon="3.6035">
        <ele>35.6</ele>
        <time>2022-04-10T09:23:20.000Z</time>
      </trkpt>
      <trkpt lat="50.51854" lon="3.60357">
        <ele>35.5</ele>
        <time>2022-04-10T09:23:21.000Z</time>
      </trkpt>
      <trkpt lat="50.51856" lon="3.60368">
        <ele>35.3</ele>
        <time>2022-04-10T09:23:22.917Z</time>
      </trkpt>
      <trkpt lat="50.51855" lon="3.60377">
        <ele>35.5</ele>
        <time>2022-04-10T09:23:24.000Z</time>
      </trkpt>
      <trkpt lat="50.51851" lon="3.60385">
        <ele>35.7</ele>
        <time>2022-04-10T09:23:26.148Z</time>
      </trkpt>
      <trkpt lat="50.51851" lon="3.60396">
        <ele>35.6</ele>
        <time>2022-04-10T09:23:27.518Z</time>
      </trkpt>
      <trkpt lat="50.51851" lon="3.60404">
        <ele>35.4</ele>
        <time>2022-04-10T09:23:28.581Z</time>
      </trkpt>
      <trkpt lat="50.51852" lon="3.60414">
        <ele>35</ele>
        <time>2022-04-10T09:23:30.002Z</time>
      </trkpt>
      <trkpt lat="50.51853" lon="3.60422">
        <ele>34.9</ele>
        <time>2022-04-10T09:23:31.062Z</time>
      </trkpt>
      <trkpt lat="50.51853" lon="3.6043">
        <ele>34.9</ele>
        <time>2022-04-10T09:23:32.000Z</time>
      </trkpt>
      <trkpt lat="50.51853" lon="3.60437">
        <ele>34.9</ele>
        <time>2022-04-10T09:23:33.000Z</time>
      </trkpt>
      <trkpt lat="50.51853" lon="3.60444">
        <ele>34.8</ele>
        <time>2022-04-10T09:23:34.000Z</time>
      </trkpt>
      <trkpt lat="50.51853" lon="3.60451">
        <ele>34.8</ele>
        <time>2022-04-10T09:23:35.080Z</time>
      </trkpt>
      <trkpt lat="50.51853" lon="3.60462">
        <ele>34.8</ele>
        <time>2022-04-10T09:23:36.500Z</time>
      </trkpt>
      <trkpt lat="50.51854" lon="3.60469">
        <ele>34.8</ele>
        <time>2022-04-10T09:23:37.499Z</time>
      </trkpt>
      <trkpt lat="50.51854" lon="3.60477">
        <ele>34.8</ele>
        <time>2022-04-10T09:23:38.623Z</time>
      </trkpt>
      <trkpt lat="50.51854" lon="3.60487">
        <ele>34.8</ele>
        <time>2022-04-10T09:23:40.099Z</time>
      </trkpt>
      <trkpt lat="50.51852" lon="3.605">
        <ele>35</ele>
        <time>2022-04-10T09:23:42.000Z</time>
      </trkpt>
      <trkpt lat="50.51852" lon="3.60514">
        <ele>35</ele>
        <time>2022-04-10T09:23:44.000Z</time>
      </trkpt>
      <trkpt lat="50.51851" lon="3.60534">
        <ele>35.1</ele>
        <time>2022-04-10T09:23:47.040Z</time>
      </trkpt>
      <trkpt lat="50.51851" lon="3.60546">
        <ele>35.1</ele>
        <time>2022-04-10T09:23:48.960Z</time>
      </trkpt>
      <trkpt lat="50.5185" lon="3.60559">
        <ele>35.2</ele>
        <time>2022-04-10T09:23:51.000Z</time>
      </trkpt>
      <trkpt lat="50.5185" lon="3.60567">
        <ele>35.2</ele>
        <time>2022-04-10T09:23:52.000Z</time>
      </trkpt>
      <trkpt lat="50.51849" lon="3.60584">
        <ele>35.4</ele>
        <time>2022-04-10T09:23:54.659Z</time>
      </trkpt>
      <trkpt lat="50.51848" lon="3.60597">
        <ele>35.4</ele>
        <time>2022-04-10T09:23:56.780Z</time>
      </trkpt>
      <trkpt lat="50.51847" lon="3.60604">
        <ele>35.5</ele>
        <time>2022-04-10T09:23:58.024Z</time>
      </trkpt>
      <trkpt lat="50.51846" lon="3.60616">
        <ele>35.7</ele>
        <time>2022-04-10T09:24:00.000Z</time>
      </trkpt>
      <trkpt lat="50.51845" lon="3.60629">
        <ele>36.4</ele>
        <time>2022-04-10T09:24:02.000Z</time>
      </trkpt>
      <trkpt lat="50.51843" lon="3.60641">
        <ele>36.8</ele>
        <time>2022-04-10T09:24:04.000Z</time>
      </trkpt>
      <trkpt lat="50.51842" lon="3.60653">
        <ele>36.2</ele>
        <time>2022-04-10T09:24:06.000Z</time>
      </trkpt>
      <trkpt lat="50.5184" lon="3.60665">
        <ele>35.7</ele>
        <time>2022-04-10T09:24:08.141Z</time>
      </trkpt>
      <trkpt lat="50.51837" lon="3.60676">
        <ele>35.4</ele>
        <time>2022-04-10T09:24:10.000Z</time>
      </trkpt>
      <trkpt lat="50.51836" lon="3.60688">
        <ele>35.1</ele>
        <time>2022-04-10T09:24:12.000Z</time>
      </trkpt>
      <trkpt lat="50.51834" lon="3.60699">
        <ele>35</ele>
        <time>2022-04-10T09:24:14.000Z</time>
      </trkpt>
      <trkpt lat="50.51832" lon="3.6071">
        <ele>35.1</ele>
        <time>2022-04-10T09:24:16.000Z</time>
      </trkpt>
      <trkpt lat="50.5183" lon="3.60721">
        <ele>35.2</ele>
        <time>2022-04-10T09:24:18.000Z</time>
      </trkpt>
      <trkpt lat="50.51828" lon="3.60733">
        <ele>35</ele>
        <time>2022-04-10T09:24:20.000Z</time>
      </trkpt>
      <trkpt lat="50.51827" lon="3.60744">
        <ele>34.9</ele>
        <time>2022-04-10T09:24:22.020Z</time>
      </trkpt>
      <trkpt lat="50.51826" lon="3.60754">
        <ele>34.8</ele>
        <time>2022-04-10T09:24:24.000Z</time>
      </trkpt>
      <trkpt lat="50.51823" lon="3.60765">
        <ele>35.1</ele>
        <time>2022-04-10T09:24:26.000Z</time>
      </trkpt>
      <trkpt lat="50.51821" lon="3.60776">
        <ele>35.3</ele>
        <time>2022-04-10T09:24:28.000Z</time>
      </trkpt>
      <trkpt lat="50.51819" lon="3.60788">
        <ele>35.3</ele>
        <time>2022-04-10T09:24:30.000Z</time>
      </trkpt>
      <trkpt lat="50.51818" lon="3.60799">
        <ele>35.2</ele>
        <time>2022-04-10T09:24:31.940Z</time>
      </trkpt>
      <trkpt lat="50.51816" lon="3.60809">
        <ele>35.2</ele>
        <time>2022-04-10T09:24:34.000Z</time>
      </trkpt>
      <trkpt lat="50.51813" lon="3.6082">
        <ele>35.1</ele>
        <time>2022-04-10T09:24:36.000Z</time>
      </trkpt>
      <trkpt lat="50.51811" lon="3.60831">
        <ele>34.9</ele>
        <time>2022-04-10T09:24:37.979Z</time>
      </trkpt>
      <trkpt lat="50.51808" lon="3.60843">
        <ele>34.9</ele>
        <time>2022-04-10T09:24:40.000Z</time>
      </trkpt>
      <trkpt lat="50.51806" lon="3.60854">
        <ele>35</ele>
        <time>2022-04-10T09:24:42.000Z</time>
      </trkpt>
      <trkpt lat="50.51804" lon="3.60865">
        <ele>34.9</ele>
        <time>2022-04-10T09:24:44.382Z</time>
      </trkpt>
      <trkpt lat="50.51802" lon="3.60874">
        <ele>34.7</ele>
        <time>2022-04-10T09:24:46.019Z</time>
      </trkpt>
      <trkpt lat="50.518" lon="3.60885">
        <ele>34.5</ele>
        <time>2022-04-10T09:24:48.000Z</time>
      </trkpt>
      <trkpt lat="50.51799" lon="3.60897">
        <ele>34.2</ele>
        <time>2022-04-10T09:24:50.000Z</time>
      </trkpt>
      <trkpt lat="50.51796" lon="3.60906">
        <ele>34</ele>
        <time>2022-04-10T09:24:52.000Z</time>
      </trkpt>
      <trkpt lat="50.51795" lon="3.60914">
        <ele>33.9</ele>
        <time>2022-04-10T09:24:53.440Z</time>
      </trkpt>
      <trkpt lat="50.51793" lon="3.6092">
        <ele>34</ele>
        <time>2022-04-10T09:24:54.563Z</time>
      </trkpt>
      <trkpt lat="50.5179" lon="3.60928">
        <ele>34.3</ele>
        <time>2022-04-10T09:24:56.081Z</time>
      </trkpt>
      <trkpt lat="50.51785" lon="3.60937">
        <ele>34.7</ele>
        <time>2022-04-10T09:24:58.000Z</time>
      </trkpt>
      <trkpt lat="50.51779" lon="3.60948">
        <ele>34.8</ele>
        <time>2022-04-10T09:25:00.442Z</time>
      </trkpt>
      <trkpt lat="50.51776" lon="3.60956">
        <ele>34.6</ele>
        <time>2022-04-10T09:25:02.000Z</time>
      </trkpt>
      <trkpt lat="50.51774" lon="3.60968">
        <ele>34.2</ele>
        <time>2022-04-10T09:25:04.000Z</time>
      </trkpt>
      <trkpt lat="50.51772" lon="3.6098">
        <ele>34.2</ele>
        <time>2022-04-10T09:25:06.000Z</time>
      </trkpt>
      <trkpt lat="50.51768" lon="3.60993">
        <ele>34.3</ele>
        <time>2022-04-10T09:25:08.000Z</time>
      </trkpt>
      <trkpt lat="50.51767" lon="3.61">
        <ele>34.4</ele>
        <time>2022-04-10T09:25:09.160Z</time>
      </trkpt>
      <trkpt lat="50.51766" lon="3.61009">
        <ele>34.3</ele>
        <time>2022-04-10T09:25:10.442Z</time>
      </trkpt>
      <trkpt lat="50.51763" lon="3.61024">
        <ele>34.1</ele>
        <time>2022-04-10T09:25:13.000Z</time>
      </trkpt>
      <trkpt lat="50.51761" lon="3.61036">
        <ele>34.2</ele>
        <time>2022-04-10T09:25:15.000Z</time>
      </trkpt>
      <trkpt lat="50.51758" lon="3.61048">
        <ele>34.4</ele>
        <time>2022-04-10T09:25:17.000Z</time>
      </trkpt>
      <trkpt lat="50.51755" lon="3.61061">
        <ele>34.6</ele>
        <time>2022-04-10T09:25:19.000Z</time>
      </trkpt>
      <trkpt lat="50.51753" lon="3.61071">
        <ele>34.8</ele>
        <time>2022-04-10T09:25:20.901Z</time>
      </trkpt>
      <trkpt lat="50.51753" lon="3.61088">
        <ele>34.8</ele>
        <time>2022-04-10T09:25:23.560Z</time>
      </trkpt>
      <trkpt lat="50.51754" lon="3.61095">
        <ele>34.7</ele>
        <time>2022-04-10T09:25:24.620Z</time>
      </trkpt>
      <trkpt lat="50.51755" lon="3.61104">
        <ele>34.6</ele>
        <time>2022-04-10T09:25:26.000Z</time>
      </trkpt>
      <trkpt lat="50.51754" lon="3.61117">
        <ele>34.5</ele>
        <time>2022-04-10T09:25:27.941Z</time>
      </trkpt>
      <trkpt lat="50.51753" lon="3.61126">
        <ele>34.3</ele>
        <time>2022-04-10T09:25:29.437Z</time>
      </trkpt>
      <trkpt lat="50.51751" lon="3.61136">
        <ele>34.1</ele>
        <time>2022-04-10T09:25:31.042Z</time>
      </trkpt>
      <trkpt lat="50.51749" lon="3.61148">
        <ele>33.7</ele>
        <time>2022-04-10T09:25:33.179Z</time>
      </trkpt>
      <trkpt lat="50.51747" lon="3.61157">
        <ele>33.5</ele>
        <time>2022-04-10T09:25:34.460Z</time>
      </trkpt>
      <trkpt lat="50.51746" lon="3.61166">
        <ele>33.3</ele>
        <time>2022-04-10T09:25:36.000Z</time>
      </trkpt>
      <trkpt lat="50.51743" lon="3.61179">
        <ele>33.5</ele>
        <time>2022-04-10T09:25:38.262Z</time>
      </trkpt>
      <trkpt lat="50.51742" lon="3.61188">
        <ele>33.6</ele>
        <time>2022-04-10T09:25:39.704Z</time>
      </trkpt>
      <trkpt lat="50.5174" lon="3.61195">
        <ele>33.7</ele>
        <time>2022-04-10T09:25:41.000Z</time>
      </trkpt>
      <trkpt lat="50.51738" lon="3.61207">
        <ele>33.9</ele>
        <time>2022-04-10T09:25:43.000Z</time>
      </trkpt>
      <trkpt lat="50.51735" lon="3.61219">
        <ele>34.1</ele>
        <time>2022-04-10T09:25:45.000Z</time>
      </trkpt>
      <trkpt lat="50.51732" lon="3.61231">
        <ele>34.3</ele>
        <time>2022-04-10T09:25:47.000Z</time>
      </trkpt>
      <trkpt lat="50.51729" lon="3.61249">
        <ele>34.5</ele>
        <time>2022-04-10T09:25:49.884Z</time>
      </trkpt>
      <trkpt lat="50.51726" lon="3.61258">
        <ele>34.5</ele>
        <time>2022-04-10T09:25:51.000Z</time>
      </trkpt>
      <trkpt lat="50.51724" lon="3.61265">
        <ele>34.3</ele>
        <time>2022-04-10T09:25:52.000Z</time>
      </trkpt>
      <trkpt lat="50.51723" lon="3.61272">
        <ele>34.2</ele>
        <time>2022-04-10T09:25:53.000Z</time>
      </trkpt>
      <trkpt lat="50.51722" lon="3.61279">
        <ele>34</ele>
        <time>2022-04-10T09:25:54.000Z</time>
      </trkpt>
      <trkpt lat="50.5172" lon="3.61286">
        <ele>33.8</ele>
        <time>2022-04-10T09:25:55.000Z</time>
      </trkpt>
      <trkpt lat="50.51719" lon="3.61293">
        <ele>33.6</ele>
        <time>2022-04-10T09:25:56.000Z</time>
      </trkpt>
      <trkpt lat="50.51718" lon="3.613">
        <ele>33.5</ele>
        <time>2022-04-10T09:25:57.000Z</time>
      </trkpt>
      <trkpt lat="50.51716" lon="3.61307">
        <ele>33.4</ele>
        <time>2022-04-10T09:25:58.000Z</time>
      </trkpt>
      <trkpt lat="50.51715" lon="3.61314">
        <ele>33.6</ele>
        <time>2022-04-10T09:25:59.000Z</time>
      </trkpt>
      <trkpt lat="50.51713" lon="3.61321">
        <ele>33.7</ele>
        <time>2022-04-10T09:26:00.000Z</time>
      </trkpt>
      <trkpt lat="50.51712" lon="3.61328">
        <ele>33.8</ele>
        <time>2022-04-10T09:26:01.000Z</time>
      </trkpt>
      <trkpt lat="50.5171" lon="3.61335">
        <ele>33.9</ele>
        <time>2022-04-10T09:26:02.000Z</time>
      </trkpt>
      <trkpt lat="50.51709" lon="3.61342">
        <ele>34.3</ele>
        <time>2022-04-10T09:26:03.000Z</time>
      </trkpt>
      <trkpt lat="50.51707" lon="3.61349">
        <ele>34.7</ele>
        <time>2022-04-10T09:26:04.000Z</time>
      </trkpt>
      <trkpt lat="50.51706" lon="3.61356">
        <ele>35.2</ele>
        <time>2022-04-10T09:26:05.000Z</time>
      </trkpt>
      <trkpt lat="50.51703" lon="3.61363">
        <ele>35.6</ele>
        <time>2022-04-10T09:26:06.000Z</time>
      </trkpt>
      <trkpt lat="50.51701" lon="3.6137">
        <ele>35.3</ele>
        <time>2022-04-10T09:26:07.000Z</time>
      </trkpt>
      <trkpt lat="50.51699" lon="3.61377">
        <ele>34.9</ele>
        <time>2022-04-10T09:26:08.000Z</time>
      </trkpt>
      <trkpt lat="50.51698" lon="3.61383">
        <ele>34.4</ele>
        <time>2022-04-10T09:26:09.000Z</time>
      </trkpt>
      <trkpt lat="50.51694" lon="3.61394">
        <ele>33.8</ele>
        <time>2022-04-10T09:26:11.000Z</time>
      </trkpt>
      <trkpt lat="50.51691" lon="3.61399">
        <ele>33.6</ele>
        <time>2022-04-10T09:26:12.000Z</time>
      </trkpt>
      <trkpt lat="50.51686" lon="3.6141">
        <ele>33.2</ele>
        <time>2022-04-10T09:26:14.000Z</time>
      </trkpt>
      <trkpt lat="50.51684" lon="3.61417">
        <ele>33</ele>
        <time>2022-04-10T09:26:15.000Z</time>
      </trkpt>
      <trkpt lat="50.51683" lon="3.61431">
        <ele>33.2</ele>
        <time>2022-04-10T09:26:18.109Z</time>
      </trkpt>
      <trkpt lat="50.51676" lon="3.61445">
        <ele>33.7</ele>
        <time>2022-04-10T09:26:20.173Z</time>
      </trkpt>
      <trkpt lat="50.51671" lon="3.61458">
        <ele>33.9</ele>
        <time>2022-04-10T09:26:22.000Z</time>
      </trkpt>
      <trkpt lat="50.51667" lon="3.61466">
        <ele>34</ele>
        <time>2022-04-10T09:26:23.000Z</time>
      </trkpt>
      <trkpt lat="50.51664" lon="3.61473">
        <ele>33.9</ele>
        <time>2022-04-10T09:26:24.000Z</time>
      </trkpt>
      <trkpt lat="50.51662" lon="3.61479">
        <ele>33.7</ele>
        <time>2022-04-10T09:26:25.000Z</time>
      </trkpt>
      <trkpt lat="50.5166" lon="3.61485">
        <ele>33.5</ele>
        <time>2022-04-10T09:26:26.171Z</time>
      </trkpt>
      <trkpt lat="50.51654" lon="3.61498">
        <ele>33.5</ele>
        <time>2022-04-10T09:26:28.000Z</time>
      </trkpt>
      <trkpt lat="50.51649" lon="3.61508">
        <ele>33.6</ele>
        <time>2022-04-10T09:26:30.000Z</time>
      </trkpt>
      <trkpt lat="50.51645" lon="3.6152">
        <ele>33.8</ele>
        <time>2022-04-10T09:26:32.000Z</time>
      </trkpt>
      <trkpt lat="50.51642" lon="3.61527">
        <ele>33.9</ele>
        <time>2022-04-10T09:26:33.000Z</time>
      </trkpt>
      <trkpt lat="50.51637" lon="3.61535">
        <ele>33.7</ele>
        <time>2022-04-10T09:26:35.000Z</time>
      </trkpt>
      <trkpt lat="50.51631" lon="3.61546">
        <ele>33.4</ele>
        <time>2022-04-10T09:26:37.000Z</time>
      </trkpt>
      <trkpt lat="50.51629" lon="3.61552">
        <ele>33.4</ele>
        <time>2022-04-10T09:26:38.000Z</time>
      </trkpt>
      <trkpt lat="50.51627" lon="3.61558">
        <ele>33.4</ele>
        <time>2022-04-10T09:26:39.000Z</time>
      </trkpt>
      <trkpt lat="50.51622" lon="3.61569">
        <ele>33.6</ele>
        <time>2022-04-10T09:26:41.000Z</time>
      </trkpt>
      <trkpt lat="50.51617" lon="3.6158">
        <ele>33.8</ele>
        <time>2022-04-10T09:26:43.000Z</time>
      </trkpt>
      <trkpt lat="50.51612" lon="3.61591">
        <ele>33.7</ele>
        <time>2022-04-10T09:26:45.112Z</time>
      </trkpt>
      <trkpt lat="50.51606" lon="3.61602">
        <ele>33.5</ele>
        <time>2022-04-10T09:26:47.000Z</time>
      </trkpt>
      <trkpt lat="50.51603" lon="3.61607">
        <ele>33.4</ele>
        <time>2022-04-10T09:26:48.000Z</time>
      </trkpt>
      <trkpt lat="50.516" lon="3.61613">
        <ele>33.4</ele>
        <time>2022-04-10T09:26:49.000Z</time>
      </trkpt>
      <trkpt lat="50.51597" lon="3.61619">
        <ele>33.5</ele>
        <time>2022-04-10T09:26:50.000Z</time>
      </trkpt>
      <trkpt lat="50.51595" lon="3.61624">
        <ele>33.6</ele>
        <time>2022-04-10T09:26:51.000Z</time>
      </trkpt>
      <trkpt lat="50.51592" lon="3.6163">
        <ele>33.7</ele>
        <time>2022-04-10T09:26:52.000Z</time>
      </trkpt>
      <trkpt lat="50.51586" lon="3.6164">
        <ele>33.8</ele>
        <time>2022-04-10T09:26:54.132Z</time>
      </trkpt>
      <trkpt lat="50.51582" lon="3.6165">
        <ele>33.7</ele>
        <time>2022-04-10T09:26:56.000Z</time>
      </trkpt>
      <trkpt lat="50.51577" lon="3.61659">
        <ele>33.7</ele>
        <time>2022-04-10T09:26:58.000Z</time>
      </trkpt>
      <trkpt lat="50.51573" lon="3.61669">
        <ele>33.8</ele>
        <time>2022-04-10T09:27:00.000Z</time>
      </trkpt>
      <trkpt lat="50.51568" lon="3.61679">
        <ele>34.1</ele>
        <time>2022-04-10T09:27:02.000Z</time>
      </trkpt>
      <trkpt lat="50.51562" lon="3.61689">
        <ele>34.5</ele>
        <time>2022-04-10T09:27:04.000Z</time>
      </trkpt>
      <trkpt lat="50.51558" lon="3.61699">
        <ele>34.7</ele>
        <time>2022-04-10T09:27:06.000Z</time>
      </trkpt>
      <trkpt lat="50.51553" lon="3.61709">
        <ele>34.5</ele>
        <time>2022-04-10T09:27:08.000Z</time>
      </trkpt>
      <trkpt lat="50.51547" lon="3.61718">
        <ele>34.4</ele>
        <time>2022-04-10T09:27:10.000Z</time>
      </trkpt>
      <trkpt lat="50.51543" lon="3.61729">
        <ele>34.3</ele>
        <time>2022-04-10T09:27:12.000Z</time>
      </trkpt>
      <trkpt lat="50.5154" lon="3.61741">
        <ele>34.2</ele>
        <time>2022-04-10T09:27:14.000Z</time>
      </trkpt>
      <trkpt lat="50.51535" lon="3.61751">
        <ele>34</ele>
        <time>2022-04-10T09:27:16.000Z</time>
      </trkpt>
      <trkpt lat="50.51529" lon="3.61761">
        <ele>34</ele>
        <time>2022-04-10T09:27:18.131Z</time>
      </trkpt>
      <trkpt lat="50.51526" lon="3.61766">
        <ele>34.1</ele>
        <time>2022-04-10T09:27:19.155Z</time>
      </trkpt>
      <trkpt lat="50.51519" lon="3.61776">
        <ele>34.4</ele>
        <time>2022-04-10T09:27:21.000Z</time>
      </trkpt>
      <trkpt lat="50.51516" lon="3.61782">
        <ele>34.4</ele>
        <time>2022-04-10T09:27:22.000Z</time>
      </trkpt>
      <trkpt lat="50.51512" lon="3.61789">
        <ele>34.3</ele>
        <time>2022-04-10T09:27:23.000Z</time>
      </trkpt>
      <trkpt lat="50.51509" lon="3.61795">
        <ele>34.3</ele>
        <time>2022-04-10T09:27:24.000Z</time>
      </trkpt>
      <trkpt lat="50.51505" lon="3.61801">
        <ele>34.1</ele>
        <time>2022-04-10T09:27:25.000Z</time>
      </trkpt>
      <trkpt lat="50.51502" lon="3.61808">
        <ele>33.9</ele>
        <time>2022-04-10T09:27:26.000Z</time>
      </trkpt>
      <trkpt lat="50.51499" lon="3.61814">
        <ele>33.8</ele>
        <time>2022-04-10T09:27:27.000Z</time>
      </trkpt>
      <trkpt lat="50.51495" lon="3.6182">
        <ele>33.8</ele>
        <time>2022-04-10T09:27:28.000Z</time>
      </trkpt>
      <trkpt lat="50.51492" lon="3.61826">
        <ele>33.8</ele>
        <time>2022-04-10T09:27:29.000Z</time>
      </trkpt>
      <trkpt lat="50.51489" lon="3.61833">
        <ele>33.8</ele>
        <time>2022-04-10T09:27:30.000Z</time>
      </trkpt>
      <trkpt lat="50.51485" lon="3.61839">
        <ele>34</ele>
        <time>2022-04-10T09:27:31.000Z</time>
      </trkpt>
      <trkpt lat="50.51482" lon="3.61844">
        <ele>34.1</ele>
        <time>2022-04-10T09:27:32.000Z</time>
      </trkpt>
      <trkpt lat="50.51478" lon="3.61849">
        <ele>34.1</ele>
        <time>2022-04-10T09:27:33.000Z</time>
      </trkpt>
      <trkpt lat="50.51475" lon="3.61854">
        <ele>34.2</ele>
        <time>2022-04-10T09:27:34.000Z</time>
      </trkpt>
      <trkpt lat="50.51471" lon="3.61859">
        <ele>34.2</ele>
        <time>2022-04-10T09:27:35.000Z</time>
      </trkpt>
      <trkpt lat="50.51467" lon="3.61865">
        <ele>34.3</ele>
        <time>2022-04-10T09:27:36.000Z</time>
      </trkpt>
      <trkpt lat="50.51464" lon="3.6187">
        <ele>34.4</ele>
        <time>2022-04-10T09:27:37.000Z</time>
      </trkpt>
      <trkpt lat="50.5146" lon="3.61875">
        <ele>34.4</ele>
        <time>2022-04-10T09:27:38.000Z</time>
      </trkpt>
      <trkpt lat="50.51457" lon="3.6188">
        <ele>34.4</ele>
        <time>2022-04-10T09:27:39.000Z</time>
      </trkpt>
      <trkpt lat="50.51453" lon="3.61885">
        <ele>34.2</ele>
        <time>2022-04-10T09:27:40.000Z</time>
      </trkpt>
      <trkpt lat="50.5145" lon="3.61891">
        <ele>34</ele>
        <time>2022-04-10T09:27:41.000Z</time>
      </trkpt>
      <trkpt lat="50.51444" lon="3.61901">
        <ele>34</ele>
        <time>2022-04-10T09:27:43.000Z</time>
      </trkpt>
      <trkpt lat="50.5144" lon="3.61906">
        <ele>34.3</ele>
        <time>2022-04-10T09:27:44.000Z</time>
      </trkpt>
      <trkpt lat="50.51437" lon="3.61912">
        <ele>34.5</ele>
        <time>2022-04-10T09:27:45.000Z</time>
      </trkpt>
      <trkpt lat="50.51431" lon="3.6192">
        <ele>34.9</ele>
        <time>2022-04-10T09:27:47.000Z</time>
      </trkpt>
      <trkpt lat="50.51427" lon="3.61926">
        <ele>34.8</ele>
        <time>2022-04-10T09:27:49.437Z</time>
      </trkpt>
      <trkpt lat="50.51421" lon="3.61934">
        <ele>34.6</ele>
        <time>2022-04-10T09:27:50.839Z</time>
      </trkpt>
      <trkpt lat="50.51414" lon="3.61943">
        <ele>34.4</ele>
        <time>2022-04-10T09:27:52.000Z</time>
      </trkpt>
      <trkpt lat="50.51411" lon="3.61948">
        <ele>34.7</ele>
        <time>2022-04-10T09:27:53.000Z</time>
      </trkpt>
      <trkpt lat="50.51405" lon="3.61957">
        <ele>34.9</ele>
        <time>2022-04-10T09:27:55.073Z</time>
      </trkpt>
      <trkpt lat="50.514" lon="3.61965">
        <ele>34.6</ele>
        <time>2022-04-10T09:27:56.734Z</time>
      </trkpt>
      <trkpt lat="50.51395" lon="3.61971">
        <ele>34.1</ele>
        <time>2022-04-10T09:27:58.000Z</time>
      </trkpt>
      <trkpt lat="50.51389" lon="3.6198">
        <ele>33.8</ele>
        <time>2022-04-10T09:28:00.000Z</time>
      </trkpt>
      <trkpt lat="50.51383" lon="3.61989">
        <ele>34.5</ele>
        <time>2022-04-10T09:28:02.000Z</time>
      </trkpt>
      <trkpt lat="50.51376" lon="3.61998">
        <ele>34.2</ele>
        <time>2022-04-10T09:28:04.000Z</time>
      </trkpt>
      <trkpt lat="50.51373" lon="3.62003">
        <ele>34.1</ele>
        <time>2022-04-10T09:28:05.094Z</time>
      </trkpt>
      <trkpt lat="50.51369" lon="3.62009">
        <ele>34.2</ele>
        <time>2022-04-10T09:28:06.334Z</time>
      </trkpt>
      <trkpt lat="50.51362" lon="3.62019">
        <ele>34.3</ele>
        <time>2022-04-10T09:28:08.632Z</time>
      </trkpt>
      <trkpt lat="50.51355" lon="3.62028">
        <ele>35.2</ele>
        <time>2022-04-10T09:28:10.875Z</time>
      </trkpt>
      <trkpt lat="50.51348" lon="3.62038">
        <ele>35.6</ele>
        <time>2022-04-10T09:28:13.000Z</time>
      </trkpt>
      <trkpt lat="50.51343" lon="3.62045">
        <ele>35.3</ele>
        <time>2022-04-10T09:28:14.614Z</time>
      </trkpt>
      <trkpt lat="50.51339" lon="3.62051">
        <ele>34.7</ele>
        <time>2022-04-10T09:28:15.834Z</time>
      </trkpt>
      <trkpt lat="50.51332" lon="3.62059">
        <ele>34.1</ele>
        <time>2022-04-10T09:28:18.036Z</time>
      </trkpt>
      <trkpt lat="50.51326" lon="3.62068">
        <ele>34.3</ele>
        <time>2022-04-10T09:28:20.095Z</time>
      </trkpt>
      <trkpt lat="50.5132" lon="3.62077">
        <ele>34.5</ele>
        <time>2022-04-10T09:28:22.176Z</time>
      </trkpt>
      <trkpt lat="50.51314" lon="3.62084">
        <ele>34.7</ele>
        <time>2022-04-10T09:28:23.893Z</time>
      </trkpt>
      <trkpt lat="50.51308" lon="3.62092">
        <ele>34.6</ele>
        <time>2022-04-10T09:28:26.000Z</time>
      </trkpt>
      <trkpt lat="50.513" lon="3.62101">
        <ele>34.5</ele>
        <time>2022-04-10T09:28:28.000Z</time>
      </trkpt>
      <trkpt lat="50.51297" lon="3.62105">
        <ele>34.5</ele>
        <time>2022-04-10T09:28:29.000Z</time>
      </trkpt>
      <trkpt lat="50.51291" lon="3.62113">
        <ele>34.5</ele>
        <time>2022-04-10T09:28:30.972Z</time>
      </trkpt>
      <trkpt lat="50.51281" lon="3.62126">
        <ele>34.3</ele>
        <time>2022-04-10T09:28:33.777Z</time>
      </trkpt>
      <trkpt lat="50.51277" lon="3.62131">
        <ele>34.3</ele>
        <time>2022-04-10T09:28:35.000Z</time>
      </trkpt>
      <trkpt lat="50.51272" lon="3.62137">
        <ele>34.5</ele>
        <time>2022-04-10T09:28:36.453Z</time>
      </trkpt>
      <trkpt lat="50.51267" lon="3.62145">
        <ele>34.6</ele>
        <time>2022-04-10T09:28:38.095Z</time>
      </trkpt>
      <trkpt lat="50.51264" lon="3.6215">
        <ele>34.6</ele>
        <time>2022-04-10T09:28:39.000Z</time>
      </trkpt>
      <trkpt lat="50.5126" lon="3.62154">
        <ele>34.6</ele>
        <time>2022-04-10T09:28:40.136Z</time>
      </trkpt>
      <trkpt lat="50.51252" lon="3.62165">
        <ele>34.1</ele>
        <time>2022-04-10T09:28:42.000Z</time>
      </trkpt>
      <trkpt lat="50.51249" lon="3.6217">
        <ele>34.1</ele>
        <time>2022-04-10T09:28:43.000Z</time>
      </trkpt>
      <trkpt lat="50.51246" lon="3.62175">
        <ele>34.3</ele>
        <time>2022-04-10T09:28:44.000Z</time>
      </trkpt>
      <trkpt lat="50.51242" lon="3.6218">
        <ele>34.4</ele>
        <time>2022-04-10T09:28:45.000Z</time>
      </trkpt>
      <trkpt lat="50.51236" lon="3.6219">
        <ele>34.6</ele>
        <time>2022-04-10T09:28:47.000Z</time>
      </trkpt>
      <trkpt lat="50.51232" lon="3.62195">
        <ele>34.6</ele>
        <time>2022-04-10T09:28:48.000Z</time>
      </trkpt>
      <trkpt lat="50.51228" lon="3.62199">
        <ele>34.6</ele>
        <time>2022-04-10T09:28:49.000Z</time>
      </trkpt>
      <trkpt lat="50.51224" lon="3.62204">
        <ele>34.6</ele>
        <time>2022-04-10T09:28:50.000Z</time>
      </trkpt>
      <trkpt lat="50.5122" lon="3.62212">
        <ele>34.3</ele>
        <time>2022-04-10T09:28:52.000Z</time>
      </trkpt>
      <trkpt lat="50.51215" lon="3.62217">
        <ele>34.1</ele>
        <time>2022-04-10T09:28:53.000Z</time>
      </trkpt>
      <trkpt lat="50.51211" lon="3.62221">
        <ele>34</ele>
        <time>2022-04-10T09:28:54.000Z</time>
      </trkpt>
      <trkpt lat="50.51207" lon="3.62226">
        <ele>33.9</ele>
        <time>2022-04-10T09:28:55.000Z</time>
      </trkpt>
      <trkpt lat="50.51201" lon="3.62226">
        <ele>34</ele>
        <time>2022-04-10T09:28:57.000Z</time>
      </trkpt>
      <trkpt lat="50.51195" lon="3.62236">
        <ele>34</ele>
        <time>2022-04-10T09:28:59.000Z</time>
      </trkpt>
      <trkpt lat="50.51191" lon="3.62242">
        <ele>34</ele>
        <time>2022-04-10T09:29:00.113Z</time>
      </trkpt>
      <trkpt lat="50.51188" lon="3.62246">
        <ele>34</ele>
        <time>2022-04-10T09:29:01.000Z</time>
      </trkpt>
      <trkpt lat="50.51183" lon="3.62254">
        <ele>34</ele>
        <time>2022-04-10T09:29:02.432Z</time>
      </trkpt>
      <trkpt lat="50.51177" lon="3.62261">
        <ele>34</ele>
        <time>2022-04-10T09:29:04.129Z</time>
      </trkpt>
      <trkpt lat="50.51171" lon="3.62269">
        <ele>34</ele>
        <time>2022-04-10T09:29:05.831Z</time>
      </trkpt>
      <trkpt lat="50.51167" lon="3.62273">
        <ele>34</ele>
        <time>2022-04-10T09:29:06.953Z</time>
      </trkpt>
      <trkpt lat="50.5116" lon="3.62282">
        <ele>33.9</ele>
        <time>2022-04-10T09:29:08.930Z</time>
      </trkpt>
      <trkpt lat="50.51156" lon="3.62287">
        <ele>33.8</ele>
        <time>2022-04-10T09:29:10.000Z</time>
      </trkpt>
      <trkpt lat="50.51152" lon="3.62292">
        <ele>33.8</ele>
        <time>2022-04-10T09:29:12.000Z</time>
      </trkpt>
      <trkpt lat="50.51148" lon="3.62296">
        <ele>33.8</ele>
        <time>2022-04-10T09:29:13.975Z</time>
      </trkpt>
      <trkpt lat="50.5114" lon="3.62307">
        <ele>34</ele>
        <time>2022-04-10T09:29:15.834Z</time>
      </trkpt>
      <trkpt lat="50.51135" lon="3.62314">
        <ele>34.1</ele>
        <time>2022-04-10T09:29:17.033Z</time>
      </trkpt>
      <trkpt lat="50.51131" lon="3.62319">
        <ele>34.3</ele>
        <time>2022-04-10T09:29:17.955Z</time>
      </trkpt>
      <trkpt lat="50.51127" lon="3.62325">
        <ele>34.4</ele>
        <time>2022-04-10T09:29:19.000Z</time>
      </trkpt>
      <trkpt lat="50.51123" lon="3.62331">
        <ele>34.6</ele>
        <time>2022-04-10T09:29:20.000Z</time>
      </trkpt>
      <trkpt lat="50.51117" lon="3.62339">
        <ele>34.4</ele>
        <time>2022-04-10T09:29:21.896Z</time>
      </trkpt>
      <trkpt lat="50.51114" lon="3.62344">
        <ele>34.1</ele>
        <time>2022-04-10T09:29:23.078Z</time>
      </trkpt>
      <trkpt lat="50.51107" lon="3.62353">
        <ele>33.8</ele>
        <time>2022-04-10T09:29:25.000Z</time>
      </trkpt>
      <trkpt lat="50.51101" lon="3.62362">
        <ele>33.7</ele>
        <time>2022-04-10T09:29:27.000Z</time>
      </trkpt>
      <trkpt lat="50.51094" lon="3.62371">
        <ele>34</ele>
        <time>2022-04-10T09:29:29.115Z</time>
      </trkpt>
      <trkpt lat="50.51087" lon="3.62379">
        <ele>34.2</ele>
        <time>2022-04-10T09:29:31.000Z</time>
      </trkpt>
      <trkpt lat="50.51081" lon="3.62386">
        <ele>34.2</ele>
        <time>2022-04-10T09:29:33.000Z</time>
      </trkpt>
      <trkpt lat="50.51075" lon="3.62394">
        <ele>34.3</ele>
        <time>2022-04-10T09:29:34.977Z</time>
      </trkpt>
      <trkpt lat="50.51069" lon="3.62404">
        <ele>34.5</ele>
        <time>2022-04-10T09:29:37.118Z</time>
      </trkpt>
      <trkpt lat="50.51062" lon="3.62412">
        <ele>34.8</ele>
        <time>2022-04-10T09:29:39.112Z</time>
      </trkpt>
      <trkpt lat="50.51056" lon="3.6242">
        <ele>34.8</ele>
        <time>2022-04-10T09:29:41.052Z</time>
      </trkpt>
      <trkpt lat="50.51049" lon="3.6243">
        <ele>34.3</ele>
        <time>2022-04-10T09:29:43.534Z</time>
      </trkpt>
      <trkpt lat="50.51044" lon="3.62436">
        <ele>34.2</ele>
        <time>2022-04-10T09:29:45.000Z</time>
      </trkpt>
      <trkpt lat="50.51038" lon="3.62443">
        <ele>34.3</ele>
        <time>2022-04-10T09:29:47.000Z</time>
      </trkpt>
      <trkpt lat="50.51031" lon="3.62451">
        <ele>34.5</ele>
        <time>2022-04-10T09:29:49.000Z</time>
      </trkpt>
      <trkpt lat="50.51026" lon="3.62459">
        <ele>34.5</ele>
        <time>2022-04-10T09:29:51.038Z</time>
      </trkpt>
      <trkpt lat="50.51019" lon="3.62468">
        <ele>34.1</ele>
        <time>2022-04-10T09:29:53.272Z</time>
      </trkpt>
      <trkpt lat="50.51015" lon="3.62473">
        <ele>34</ele>
        <time>2022-04-10T09:29:54.396Z</time>
      </trkpt>
      <trkpt lat="50.51009" lon="3.62481">
        <ele>33.9</ele>
        <time>2022-04-10T09:29:56.455Z</time>
      </trkpt>
      <trkpt lat="50.51005" lon="3.62486">
        <ele>33.9</ele>
        <time>2022-04-10T09:29:57.693Z</time>
      </trkpt>
      <trkpt lat="50.51001" lon="3.62492">
        <ele>34</ele>
        <time>2022-04-10T09:29:59.000Z</time>
      </trkpt>
      <trkpt lat="50.50994" lon="3.62499">
        <ele>34</ele>
        <time>2022-04-10T09:30:01.137Z</time>
      </trkpt>
      <trkpt lat="50.50989" lon="3.62504">
        <ele>34</ele>
        <time>2022-04-10T09:30:02.893Z</time>
      </trkpt>
      <trkpt lat="50.50983" lon="3.62513">
        <ele>34</ele>
        <time>2022-04-10T09:30:05.000Z</time>
      </trkpt>
      <trkpt lat="50.50977" lon="3.62521">
        <ele>34</ele>
        <time>2022-04-10T09:30:07.000Z</time>
      </trkpt>
      <trkpt lat="50.50969" lon="3.62532">
        <ele>34</ele>
        <time>2022-04-10T09:30:09.594Z</time>
      </trkpt>
      <trkpt lat="50.50965" lon="3.62537">
        <ele>34</ele>
        <time>2022-04-10T09:30:10.995Z</time>
      </trkpt>
      <trkpt lat="50.5096" lon="3.62543">
        <ele>34.1</ele>
        <time>2022-04-10T09:30:12.474Z</time>
      </trkpt>
      <trkpt lat="50.50956" lon="3.62549">
        <ele>34.3</ele>
        <time>2022-04-10T09:30:14.000Z</time>
      </trkpt>
      <trkpt lat="50.5095" lon="3.62558">
        <ele>34.4</ele>
        <time>2022-04-10T09:30:16.000Z</time>
      </trkpt>
      <trkpt lat="50.50944" lon="3.62567">
        <ele>34.2</ele>
        <time>2022-04-10T09:30:17.937Z</time>
      </trkpt>
      <trkpt lat="50.50938" lon="3.62574">
        <ele>34.2</ele>
        <time>2022-04-10T09:30:20.000Z</time>
      </trkpt>
      <trkpt lat="50.50932" lon="3.62581">
        <ele>34.4</ele>
        <time>2022-04-10T09:30:21.972Z</time>
      </trkpt>
      <trkpt lat="50.50925" lon="3.62589">
        <ele>34.8</ele>
        <time>2022-04-10T09:30:24.000Z</time>
      </trkpt>
      <trkpt lat="50.50919" lon="3.62596">
        <ele>34.9</ele>
        <time>2022-04-10T09:30:26.000Z</time>
      </trkpt>
      <trkpt lat="50.50914" lon="3.62604">
        <ele>34.6</ele>
        <time>2022-04-10T09:30:28.000Z</time>
      </trkpt>
      <trkpt lat="50.50909" lon="3.62613">
        <ele>34.3</ele>
        <time>2022-04-10T09:30:30.000Z</time>
      </trkpt>
      <trkpt lat="50.50903" lon="3.62621">
        <ele>34.3</ele>
        <time>2022-04-10T09:30:32.000Z</time>
      </trkpt>
      <trkpt lat="50.50897" lon="3.6263">
        <ele>34.5</ele>
        <time>2022-04-10T09:30:34.017Z</time>
      </trkpt>
      <trkpt lat="50.50891" lon="3.62638">
        <ele>34.9</ele>
        <time>2022-04-10T09:30:36.000Z</time>
      </trkpt>
      <trkpt lat="50.50884" lon="3.62646">
        <ele>34.6</ele>
        <time>2022-04-10T09:30:38.393Z</time>
      </trkpt>
      <trkpt lat="50.50879" lon="3.62652">
        <ele>34.4</ele>
        <time>2022-04-10T09:30:40.017Z</time>
      </trkpt>
      <trkpt lat="50.50873" lon="3.62659">
        <ele>34.4</ele>
        <time>2022-04-10T09:30:42.000Z</time>
      </trkpt>
      <trkpt lat="50.50867" lon="3.62667">
        <ele>34.6</ele>
        <time>2022-04-10T09:30:44.000Z</time>
      </trkpt>
      <trkpt lat="50.50861" lon="3.62675">
        <ele>34.4</ele>
        <time>2022-04-10T09:30:46.000Z</time>
      </trkpt>
      <trkpt lat="50.50855" lon="3.62682">
        <ele>34.1</ele>
        <time>2022-04-10T09:30:48.133Z</time>
      </trkpt>
      <trkpt lat="50.5085" lon="3.62687">
        <ele>34.1</ele>
        <time>2022-04-10T09:30:49.617Z</time>
      </trkpt>
      <trkpt lat="50.50846" lon="3.62692">
        <ele>34.2</ele>
        <time>2022-04-10T09:30:51.000Z</time>
      </trkpt>
      <trkpt lat="50.50836" lon="3.62702">
        <ele>34.6</ele>
        <time>2022-04-10T09:30:54.152Z</time>
      </trkpt>
      <trkpt lat="50.50832" lon="3.62709">
        <ele>34.6</ele>
        <time>2022-04-10T09:30:55.656Z</time>
      </trkpt>
      <trkpt lat="50.50826" lon="3.62717">
        <ele>34.7</ele>
        <time>2022-04-10T09:30:57.972Z</time>
      </trkpt>
      <trkpt lat="50.5082" lon="3.62725">
        <ele>34.8</ele>
        <time>2022-04-10T09:31:00.154Z</time>
      </trkpt>
      <trkpt lat="50.50815" lon="3.62732">
        <ele>34.8</ele>
        <time>2022-04-10T09:31:02.000Z</time>
      </trkpt>
      <trkpt lat="50.50809" lon="3.62738">
        <ele>34.7</ele>
        <time>2022-04-10T09:31:04.000Z</time>
      </trkpt>
      <trkpt lat="50.50804" lon="3.62746">
        <ele>34.4</ele>
        <time>2022-04-10T09:31:06.033Z</time>
      </trkpt>
      <trkpt lat="50.508" lon="3.62751">
        <ele>34.4</ele>
        <time>2022-04-10T09:31:07.372Z</time>
      </trkpt>
      <trkpt lat="50.50793" lon="3.62759">
        <ele>34.6</ele>
        <time>2022-04-10T09:31:10.036Z</time>
      </trkpt>
      <trkpt lat="50.50788" lon="3.62766">
        <ele>34.6</ele>
        <time>2022-04-10T09:31:12.000Z</time>
      </trkpt>
      <trkpt lat="50.50783" lon="3.62774">
        <ele>34.8</ele>
        <time>2022-04-10T09:31:14.000Z</time>
      </trkpt>
      <trkpt lat="50.50777" lon="3.62781">
        <ele>34.8</ele>
        <time>2022-04-10T09:31:16.000Z</time>
      </trkpt>
      <trkpt lat="50.50772" lon="3.62789">
        <ele>34.6</ele>
        <time>2022-04-10T09:31:18.000Z</time>
      </trkpt>
      <trkpt lat="50.50768" lon="3.62795">
        <ele>34.6</ele>
        <time>2022-04-10T09:31:19.396Z</time>
      </trkpt>
      <trkpt lat="50.50761" lon="3.62804">
        <ele>34.9</ele>
        <time>2022-04-10T09:31:22.056Z</time>
      </trkpt>
      <trkpt lat="50.50756" lon="3.6281">
        <ele>35.1</ele>
        <time>2022-04-10T09:31:23.931Z</time>
      </trkpt>
      <trkpt lat="50.50752" lon="3.62814">
        <ele>35.2</ele>
        <time>2022-04-10T09:31:25.334Z</time>
      </trkpt>
      <trkpt lat="50.50747" lon="3.6282">
        <ele>35.1</ele>
        <time>2022-04-10T09:31:27.051Z</time>
      </trkpt>
      <trkpt lat="50.50741" lon="3.62827">
        <ele>35</ele>
        <time>2022-04-10T09:31:29.117Z</time>
      </trkpt>
      <trkpt lat="50.50735" lon="3.62834">
        <ele>35</ele>
        <time>2022-04-10T09:31:31.000Z</time>
      </trkpt>
      <trkpt lat="50.50729" lon="3.62841">
        <ele>35</ele>
        <time>2022-04-10T09:31:33.000Z</time>
      </trkpt>
      <trkpt lat="50.50724" lon="3.62849">
        <ele>34.8</ele>
        <time>2022-04-10T09:31:35.053Z</time>
      </trkpt>
      <trkpt lat="50.5072" lon="3.62855">
        <ele>34.5</ele>
        <time>2022-04-10T09:31:36.596Z</time>
      </trkpt>
      <trkpt lat="50.50713" lon="3.62863">
        <ele>34.3</ele>
        <time>2022-04-10T09:31:39.000Z</time>
      </trkpt>
      <trkpt lat="50.50707" lon="3.6287">
        <ele>34.4</ele>
        <time>2022-04-10T09:31:41.000Z</time>
      </trkpt>
      <trkpt lat="50.50701" lon="3.62878">
        <ele>34.6</ele>
        <time>2022-04-10T09:31:42.973Z</time>
      </trkpt>
      <trkpt lat="50.50695" lon="3.62885">
        <ele>35</ele>
        <time>2022-04-10T09:31:45.000Z</time>
      </trkpt>
      <trkpt lat="50.5069" lon="3.62891">
        <ele>34.9</ele>
        <time>2022-04-10T09:31:46.492Z</time>
      </trkpt>
      <trkpt lat="50.50687" lon="3.62896">
        <ele>34.6</ele>
        <time>2022-04-10T09:31:47.813Z</time>
      </trkpt>
      <trkpt lat="50.50683" lon="3.629">
        <ele>34.5</ele>
        <time>2022-04-10T09:31:49.000Z</time>
      </trkpt>
      <trkpt lat="50.50677" lon="3.62908">
        <ele>34.5</ele>
        <time>2022-04-10T09:31:51.000Z</time>
      </trkpt>
      <trkpt lat="50.50674" lon="3.62914">
        <ele>34.5</ele>
        <time>2022-04-10T09:31:52.133Z</time>
      </trkpt>
      <trkpt lat="50.5067" lon="3.62919">
        <ele>34.6</ele>
        <time>2022-04-10T09:31:53.175Z</time>
      </trkpt>
      <trkpt lat="50.50667" lon="3.62924">
        <ele>34.5</ele>
        <time>2022-04-10T09:31:54.457Z</time>
      </trkpt>
      <trkpt lat="50.50661" lon="3.62932">
        <ele>34.1</ele>
        <time>2022-04-10T09:31:56.653Z</time>
      </trkpt>
      <trkpt lat="50.50657" lon="3.62936">
        <ele>34.1</ele>
        <time>2022-04-10T09:31:58.000Z</time>
      </trkpt>
      <trkpt lat="50.50651" lon="3.62943">
        <ele>34.2</ele>
        <time>2022-04-10T09:32:00.053Z</time>
      </trkpt>
      <trkpt lat="50.50645" lon="3.62954">
        <ele>34.3</ele>
        <time>2022-04-10T09:32:02.154Z</time>
      </trkpt>
      <trkpt lat="50.5064" lon="3.62961">
        <ele>34.3</ele>
        <time>2022-04-10T09:32:03.716Z</time>
      </trkpt>
      <trkpt lat="50.50636" lon="3.62967">
        <ele>34.3</ele>
        <time>2022-04-10T09:32:05.000Z</time>
      </trkpt>
      <trkpt lat="50.5063" lon="3.62974">
        <ele>34.3</ele>
        <time>2022-04-10T09:32:07.000Z</time>
      </trkpt>
      <trkpt lat="50.50623" lon="3.62983">
        <ele>34.4</ele>
        <time>2022-04-10T09:32:09.000Z</time>
      </trkpt>
      <trkpt lat="50.50617" lon="3.62991">
        <ele>34.7</ele>
        <time>2022-04-10T09:32:11.000Z</time>
      </trkpt>
      <trkpt lat="50.5061" lon="3.62998">
        <ele>35.1</ele>
        <time>2022-04-10T09:32:13.094Z</time>
      </trkpt>
      <trkpt lat="50.50603" lon="3.63006">
        <ele>35.2</ele>
        <time>2022-04-10T09:32:15.054Z</time>
      </trkpt>
      <trkpt lat="50.50597" lon="3.63014">
        <ele>35</ele>
        <time>2022-04-10T09:32:17.000Z</time>
      </trkpt>
      <trkpt lat="50.50591" lon="3.63023">
        <ele>34.8</ele>
        <time>2022-04-10T09:32:18.993Z</time>
      </trkpt>
      <trkpt lat="50.50584" lon="3.63032">
        <ele>34.6</ele>
        <time>2022-04-10T09:32:21.000Z</time>
      </trkpt>
      <trkpt lat="50.50578" lon="3.63041">
        <ele>34.5</ele>
        <time>2022-04-10T09:32:23.000Z</time>
      </trkpt>
      <trkpt lat="50.50572" lon="3.63049">
        <ele>34.6</ele>
        <time>2022-04-10T09:32:24.874Z</time>
      </trkpt>
      <trkpt lat="50.50568" lon="3.63054">
        <ele>34.8</ele>
        <time>2022-04-10T09:32:26.000Z</time>
      </trkpt>
      <trkpt lat="50.50562" lon="3.63065">
        <ele>34.8</ele>
        <time>2022-04-10T09:32:28.000Z</time>
      </trkpt>
      <trkpt lat="50.50555" lon="3.63073">
        <ele>34.8</ele>
        <time>2022-04-10T09:32:30.054Z</time>
      </trkpt>
      <trkpt lat="50.50549" lon="3.63082">
        <ele>34.6</ele>
        <time>2022-04-10T09:32:32.036Z</time>
      </trkpt>
      <trkpt lat="50.50545" lon="3.63086">
        <ele>34.6</ele>
        <time>2022-04-10T09:32:33.098Z</time>
      </trkpt>
      <trkpt lat="50.50541" lon="3.63091">
        <ele>34.6</ele>
        <time>2022-04-10T09:32:34.000Z</time>
      </trkpt>
      <trkpt lat="50.50535" lon="3.63098">
        <ele>34.6</ele>
        <time>2022-04-10T09:32:35.895Z</time>
      </trkpt>
      <trkpt lat="50.50528" lon="3.63106">
        <ele>34.4</ele>
        <time>2022-04-10T09:32:38.000Z</time>
      </trkpt>
      <trkpt lat="50.50524" lon="3.63111">
        <ele>34.3</ele>
        <time>2022-04-10T09:32:39.495Z</time>
      </trkpt>
      <trkpt lat="50.50518" lon="3.63121">
        <ele>34.4</ele>
        <time>2022-04-10T09:32:41.711Z</time>
      </trkpt>
      <trkpt lat="50.50513" lon="3.63126">
        <ele>34.5</ele>
        <time>2022-04-10T09:32:43.057Z</time>
      </trkpt>
      <trkpt lat="50.50506" lon="3.63134">
        <ele>34.7</ele>
        <time>2022-04-10T09:32:45.073Z</time>
      </trkpt>
      <trkpt lat="50.50501" lon="3.63143">
        <ele>34.7</ele>
        <time>2022-04-10T09:32:47.000Z</time>
      </trkpt>
      <trkpt lat="50.50496" lon="3.63148">
        <ele>34.6</ele>
        <time>2022-04-10T09:32:48.596Z</time>
      </trkpt>
      <trkpt lat="50.50489" lon="3.63157">
        <ele>34.6</ele>
        <time>2022-04-10T09:32:51.000Z</time>
      </trkpt>
      <trkpt lat="50.50483" lon="3.63166">
        <ele>34.9</ele>
        <time>2022-04-10T09:32:53.000Z</time>
      </trkpt>
      <trkpt lat="50.50477" lon="3.63174">
        <ele>35.1</ele>
        <time>2022-04-10T09:32:55.000Z</time>
      </trkpt>
      <trkpt lat="50.50473" lon="3.63179">
        <ele>35</ele>
        <time>2022-04-10T09:32:56.000Z</time>
      </trkpt>
      <trkpt lat="50.50467" lon="3.63188">
        <ele>34.8</ele>
        <time>2022-04-10T09:32:58.000Z</time>
      </trkpt>
      <trkpt lat="50.50463" lon="3.63194">
        <ele>34.7</ele>
        <time>2022-04-10T09:32:59.373Z</time>
      </trkpt>
      <trkpt lat="50.50458" lon="3.63202">
        <ele>34.6</ele>
        <time>2022-04-10T09:33:01.095Z</time>
      </trkpt>
      <trkpt lat="50.50451" lon="3.63211">
        <ele>34.5</ele>
        <time>2022-04-10T09:33:03.000Z</time>
      </trkpt>
      <trkpt lat="50.50445" lon="3.63218">
        <ele>34.3</ele>
        <time>2022-04-10T09:33:05.000Z</time>
      </trkpt>
      <trkpt lat="50.50439" lon="3.63226">
        <ele>34.2</ele>
        <time>2022-04-10T09:33:07.157Z</time>
      </trkpt>
      <trkpt lat="50.50433" lon="3.63232">
        <ele>34.4</ele>
        <time>2022-04-10T09:33:08.954Z</time>
      </trkpt>
      <trkpt lat="50.50425" lon="3.63241">
        <ele>34.7</ele>
        <time>2022-04-10T09:33:11.536Z</time>
      </trkpt>
      <trkpt lat="50.50417" lon="3.6325">
        <ele>35</ele>
        <time>2022-04-10T09:33:13.753Z</time>
      </trkpt>
      <trkpt lat="50.50413" lon="3.63254">
        <ele>34.8</ele>
        <time>2022-04-10T09:33:14.972Z</time>
      </trkpt>
      <trkpt lat="50.50409" lon="3.63261">
        <ele>34.6</ele>
        <time>2022-04-10T09:33:16.355Z</time>
      </trkpt>
      <trkpt lat="50.50405" lon="3.63265">
        <ele>34.5</ele>
        <time>2022-04-10T09:33:17.574Z</time>
      </trkpt>
      <trkpt lat="50.50401" lon="3.6327">
        <ele>34.5</ele>
        <time>2022-04-10T09:33:18.836Z</time>
      </trkpt>
      <trkpt lat="50.50397" lon="3.63275">
        <ele>34.5</ele>
        <time>2022-04-10T09:33:20.000Z</time>
      </trkpt>
      <trkpt lat="50.50391" lon="3.63284">
        <ele>34.4</ele>
        <time>2022-04-10T09:33:22.000Z</time>
      </trkpt>
      <trkpt lat="50.50386" lon="3.63293">
        <ele>34.1</ele>
        <time>2022-04-10T09:33:24.000Z</time>
      </trkpt>
      <trkpt lat="50.50378" lon="3.63304">
        <ele>34.3</ele>
        <time>2022-04-10T09:33:26.732Z</time>
      </trkpt>
      <trkpt lat="50.50374" lon="3.63309">
        <ele>34.5</ele>
        <time>2022-04-10T09:33:28.000Z</time>
      </trkpt>
      <trkpt lat="50.50368" lon="3.63316">
        <ele>34.8</ele>
        <time>2022-04-10T09:33:30.000Z</time>
      </trkpt>
      <trkpt lat="50.50363" lon="3.6332">
        <ele>34.9</ele>
        <time>2022-04-10T09:33:32.000Z</time>
      </trkpt>
      <trkpt lat="50.50351" lon="3.63341">
        <ele>34.4</ele>
        <time>2022-04-10T09:35:14.000Z</time>
      </trkpt>
      <trkpt lat="50.50347" lon="3.63348">
        <ele>34.5</ele>
        <time>2022-04-10T09:35:16.000Z</time>
      </trkpt>
      <trkpt lat="50.50341" lon="3.63356">
        <ele>34.6</ele>
        <time>2022-04-10T09:35:18.056Z</time>
      </trkpt>
      <trkpt lat="50.50335" lon="3.63364">
        <ele>34.7</ele>
        <time>2022-04-10T09:35:20.000Z</time>
      </trkpt>
      <trkpt lat="50.50327" lon="3.63373">
        <ele>34.4</ele>
        <time>2022-04-10T09:35:22.319Z</time>
      </trkpt>
      <trkpt lat="50.50323" lon="3.63378">
        <ele>34.4</ele>
        <time>2022-04-10T09:35:23.514Z</time>
      </trkpt>
      <trkpt lat="50.50319" lon="3.63383">
        <ele>34.3</ele>
        <time>2022-04-10T09:35:24.739Z</time>
      </trkpt>
      <trkpt lat="50.50315" lon="3.63389">
        <ele>34.4</ele>
        <time>2022-04-10T09:35:26.016Z</time>
      </trkpt>
      <trkpt lat="50.50307" lon="3.63397">
        <ele>34.3</ele>
        <time>2022-04-10T09:35:28.000Z</time>
      </trkpt>
      <trkpt lat="50.50304" lon="3.63402">
        <ele>34.2</ele>
        <time>2022-04-10T09:35:29.000Z</time>
      </trkpt>
      <trkpt lat="50.50297" lon="3.63409">
        <ele>34.3</ele>
        <time>2022-04-10T09:35:31.000Z</time>
      </trkpt>
      <trkpt lat="50.50292" lon="3.63416">
        <ele>34.5</ele>
        <time>2022-04-10T09:35:32.757Z</time>
      </trkpt>
      <trkpt lat="50.50288" lon="3.63421">
        <ele>34.8</ele>
        <time>2022-04-10T09:35:34.000Z</time>
      </trkpt>
      <trkpt lat="50.50284" lon="3.63427">
        <ele>34.9</ele>
        <time>2022-04-10T09:35:35.571Z</time>
      </trkpt>
      <trkpt lat="50.5028" lon="3.63431">
        <ele>34.9</ele>
        <time>2022-04-10T09:35:36.761Z</time>
      </trkpt>
      <trkpt lat="50.50276" lon="3.63436">
        <ele>34.7</ele>
        <time>2022-04-10T09:35:38.000Z</time>
      </trkpt>
      <trkpt lat="50.5027" lon="3.63443">
        <ele>34.6</ele>
        <time>2022-04-10T09:35:39.918Z</time>
      </trkpt>
      <trkpt lat="50.50267" lon="3.63447">
        <ele>34.7</ele>
        <time>2022-04-10T09:35:41.157Z</time>
      </trkpt>
      <trkpt lat="50.50263" lon="3.63453">
        <ele>34.6</ele>
        <time>2022-04-10T09:35:42.438Z</time>
      </trkpt>
      <trkpt lat="50.50259" lon="3.63459">
        <ele>34.5</ele>
        <time>2022-04-10T09:35:43.979Z</time>
      </trkpt>
      <trkpt lat="50.50253" lon="3.63466">
        <ele>34.3</ele>
        <time>2022-04-10T09:35:46.000Z</time>
      </trkpt>
      <trkpt lat="50.50247" lon="3.63472">
        <ele>34.2</ele>
        <time>2022-04-10T09:35:48.000Z</time>
      </trkpt>
      <trkpt lat="50.50243" lon="3.63479">
        <ele>34.5</ele>
        <time>2022-04-10T09:35:50.037Z</time>
      </trkpt>
      <trkpt lat="50.50238" lon="3.63486">
        <ele>34.6</ele>
        <time>2022-04-10T09:35:52.000Z</time>
      </trkpt>
      <trkpt lat="50.5023" lon="3.63495">
        <ele>34.8</ele>
        <time>2022-04-10T09:35:54.618Z</time>
      </trkpt>
      <trkpt lat="50.50223" lon="3.63504">
        <ele>34.7</ele>
        <time>2022-04-10T09:35:56.954Z</time>
      </trkpt>
      <trkpt lat="50.50216" lon="3.63514">
        <ele>34.5</ele>
        <time>2022-04-10T09:35:59.595Z</time>
      </trkpt>
      <trkpt lat="50.50212" lon="3.63519">
        <ele>34.5</ele>
        <time>2022-04-10T09:36:00.814Z</time>
      </trkpt>
      <trkpt lat="50.50208" lon="3.63524">
        <ele>34.6</ele>
        <time>2022-04-10T09:36:01.937Z</time>
      </trkpt>
      <trkpt lat="50.50202" lon="3.63533">
        <ele>34.8</ele>
        <time>2022-04-10T09:36:04.000Z</time>
      </trkpt>
      <trkpt lat="50.50195" lon="3.63541">
        <ele>34.5</ele>
        <time>2022-04-10T09:36:06.076Z</time>
      </trkpt>
      <trkpt lat="50.50189" lon="3.63548">
        <ele>34.4</ele>
        <time>2022-04-10T09:36:07.997Z</time>
      </trkpt>
      <trkpt lat="50.50182" lon="3.6355">
        <ele>35.2</ele>
        <time>2022-04-10T09:36:10.000Z</time>
      </trkpt>
      <trkpt lat="50.50175" lon="3.63545">
        <ele>36.2</ele>
        <time>2022-04-10T09:36:12.097Z</time>
      </trkpt>
      <trkpt lat="50.50169" lon="3.63537">
        <ele>36.8</ele>
        <time>2022-04-10T09:36:14.117Z</time>
      </trkpt>
      <trkpt lat="50.50166" lon="3.6353">
        <ele>37</ele>
        <time>2022-04-10T09:36:16.000Z</time>
      </trkpt>
      <trkpt lat="50.50161" lon="3.6353">
        <ele>37</ele>
        <time>2022-04-10T09:36:18.000Z</time>
      </trkpt>
      <trkpt lat="50.50155" lon="3.63535">
        <ele>37</ele>
        <time>2022-04-10T09:36:21.000Z</time>
      </trkpt>
      <trkpt lat="50.50152" lon="3.63541">
        <ele>37</ele>
        <time>2022-04-10T09:36:23.000Z</time>
      </trkpt>
      <trkpt lat="50.50148" lon="3.63545">
        <ele>37</ele>
        <time>2022-04-10T09:36:25.000Z</time>
      </trkpt>
      <trkpt lat="50.50145" lon="3.63551">
        <ele>37</ele>
        <time>2022-04-10T09:36:27.035Z</time>
      </trkpt>
      <trkpt lat="50.50139" lon="3.63559">
        <ele>37</ele>
        <time>2022-04-10T09:36:30.000Z</time>
      </trkpt>
      <trkpt lat="50.50135" lon="3.63563">
        <ele>37.2</ele>
        <time>2022-04-10T09:36:32.000Z</time>
      </trkpt>
      <trkpt lat="50.5013" lon="3.63569">
        <ele>37.3</ele>
        <time>2022-04-10T09:36:34.000Z</time>
      </trkpt>
      <trkpt lat="50.50126" lon="3.63577">
        <ele>37.5</ele>
        <time>2022-04-10T09:36:36.377Z</time>
      </trkpt>
      <trkpt lat="50.50122" lon="3.63581">
        <ele>37.6</ele>
        <time>2022-04-10T09:36:38.000Z</time>
      </trkpt>
      <trkpt lat="50.50118" lon="3.63586">
        <ele>37.7</ele>
        <time>2022-04-10T09:36:40.000Z</time>
      </trkpt>
      <trkpt lat="50.50114" lon="3.63592">
        <ele>37.8</ele>
        <time>2022-04-10T09:36:42.000Z</time>
      </trkpt>
      <trkpt lat="50.5011" lon="3.63598">
        <ele>38</ele>
        <time>2022-04-10T09:36:44.000Z</time>
      </trkpt>
      <trkpt lat="50.50104" lon="3.63607">
        <ele>38</ele>
        <time>2022-04-10T09:36:46.735Z</time>
      </trkpt>
      <trkpt lat="50.501" lon="3.63615">
        <ele>37.9</ele>
        <time>2022-04-10T09:36:49.000Z</time>
      </trkpt>
      <trkpt lat="50.50097" lon="3.63621">
        <ele>37.8</ele>
        <time>2022-04-10T09:36:51.000Z</time>
      </trkpt>
      <trkpt lat="50.50094" lon="3.6363">
        <ele>37.9</ele>
        <time>2022-04-10T09:36:53.000Z</time>
      </trkpt>
      <trkpt lat="50.50092" lon="3.63638">
        <ele>38.1</ele>
        <time>2022-04-10T09:36:55.099Z</time>
      </trkpt>
      <trkpt lat="50.50089" lon="3.63646">
        <ele>38.1</ele>
        <time>2022-04-10T09:36:57.000Z</time>
      </trkpt>
      <trkpt lat="50.50086" lon="3.63652">
        <ele>38.2</ele>
        <time>2022-04-10T09:36:58.958Z</time>
      </trkpt>
      <trkpt lat="50.50083" lon="3.63658">
        <ele>38.3</ele>
        <time>2022-04-10T09:37:01.000Z</time>
      </trkpt>
      <trkpt lat="50.50078" lon="3.63664">
        <ele>38.3</ele>
        <time>2022-04-10T09:37:03.098Z</time>
      </trkpt>
      <trkpt lat="50.50074" lon="3.63669">
        <ele>38.2</ele>
        <time>2022-04-10T09:37:05.000Z</time>
      </trkpt>
      <trkpt lat="50.5007" lon="3.63674">
        <ele>38</ele>
        <time>2022-04-10T09:37:07.000Z</time>
      </trkpt>
      <trkpt lat="50.50064" lon="3.63678">
        <ele>38.2</ele>
        <time>2022-04-10T09:37:09.000Z</time>
      </trkpt>
      <trkpt lat="50.50058" lon="3.63682">
        <ele>38.7</ele>
        <time>2022-04-10T09:37:11.183Z</time>
      </trkpt>
      <trkpt lat="50.50052" lon="3.63685">
        <ele>39.1</ele>
        <time>2022-04-10T09:37:13.000Z</time>
      </trkpt>
      <trkpt lat="50.50047" lon="3.63688">
        <ele>39.3</ele>
        <time>2022-04-10T09:37:14.940Z</time>
      </trkpt>
      <trkpt lat="50.50042" lon="3.63693">
        <ele>39.5</ele>
        <time>2022-04-10T09:37:17.000Z</time>
      </trkpt>
      <trkpt lat="50.50037" lon="3.63697">
        <ele>39.7</ele>
        <time>2022-04-10T09:37:19.163Z</time>
      </trkpt>
      <trkpt lat="50.50031" lon="3.637">
        <ele>40</ele>
        <time>2022-04-10T09:37:21.000Z</time>
      </trkpt>
      <trkpt lat="50.50026" lon="3.63702">
        <ele>40.4</ele>
        <time>2022-04-10T09:37:23.000Z</time>
      </trkpt>
      <trkpt lat="50.5002" lon="3.63706">
        <ele>40.8</ele>
        <time>2022-04-10T09:37:25.935Z</time>
      </trkpt>
      <trkpt lat="50.50015" lon="3.6371">
        <ele>41.2</ele>
        <time>2022-04-10T09:37:28.572Z</time>
      </trkpt>
      <trkpt lat="50.50009" lon="3.63712">
        <ele>41.6</ele>
        <time>2022-04-10T09:37:31.000Z</time>
      </trkpt>
      <trkpt lat="50.50004" lon="3.63709">
        <ele>41.8</ele>
        <time>2022-04-10T09:37:33.000Z</time>
      </trkpt>
      <trkpt lat="50.50001" lon="3.63701">
        <ele>41.9</ele>
        <time>2022-04-10T09:37:36.000Z</time>
      </trkpt>
      <trkpt lat="50.49997" lon="3.63693">
        <ele>42.1</ele>
        <time>2022-04-10T09:37:38.958Z</time>
      </trkpt>
      <trkpt lat="50.49994" lon="3.63684">
        <ele>42</ele>
        <time>2022-04-10T09:37:42.000Z</time>
      </trkpt>
      <trkpt lat="50.49991" lon="3.63674">
        <ele>41.9</ele>
        <time>2022-04-10T09:37:45.000Z</time>
      </trkpt>
      <trkpt lat="50.49989" lon="3.63667">
        <ele>41.8</ele>
        <time>2022-04-10T09:37:47.000Z</time>
      </trkpt>
      <trkpt lat="50.49986" lon="3.6366">
        <ele>41.9</ele>
        <time>2022-04-10T09:37:49.000Z</time>
      </trkpt>
      <trkpt lat="50.49983" lon="3.63654">
        <ele>41.9</ele>
        <time>2022-04-10T09:37:51.000Z</time>
      </trkpt>
      <trkpt lat="50.49981" lon="3.63645">
        <ele>41.8</ele>
        <time>2022-04-10T09:37:54.000Z</time>
      </trkpt>
      <trkpt lat="50.4998" lon="3.63637">
        <ele>41.7</ele>
        <time>2022-04-10T09:37:59.000Z</time>
      </trkpt>
      <trkpt lat="50.49981" lon="3.63645">
        <ele>41.9</ele>
        <time>2022-04-10T09:38:22.000Z</time>
      </trkpt>
      <trkpt lat="50.49983" lon="3.63654">
        <ele>41.9</ele>
        <time>2022-04-10T09:38:24.000Z</time>
      </trkpt>
      <trkpt lat="50.49986" lon="3.63663">
        <ele>42</ele>
        <time>2022-04-10T09:38:26.000Z</time>
      </trkpt>
      <trkpt lat="50.49988" lon="3.63671">
        <ele>42</ele>
        <time>2022-04-10T09:38:28.000Z</time>
      </trkpt>
      <trkpt lat="50.49991" lon="3.6368">
        <ele>42.1</ele>
        <time>2022-04-10T09:38:30.000Z</time>
      </trkpt>
      <trkpt lat="50.49994" lon="3.63688">
        <ele>42.2</ele>
        <time>2022-04-10T09:38:32.000Z</time>
      </trkpt>
      <trkpt lat="50.49997" lon="3.63695">
        <ele>42.2</ele>
        <time>2022-04-10T09:38:34.000Z</time>
      </trkpt>
      <trkpt lat="50.49999" lon="3.63703">
        <ele>42.1</ele>
        <time>2022-04-10T09:38:36.000Z</time>
      </trkpt>
      <trkpt lat="50.50003" lon="3.63712">
        <ele>41.9</ele>
        <time>2022-04-10T09:38:39.000Z</time>
      </trkpt>
      <trkpt lat="50.50005" lon="3.63719">
        <ele>41.8</ele>
        <time>2022-04-10T09:38:42.000Z</time>
      </trkpt>
      <trkpt lat="50.50001" lon="3.63718">
        <ele>42</ele>
        <time>2022-04-10T09:38:48.959Z</time>
      </trkpt>
      <trkpt lat="50.49994" lon="3.63717">
        <ele>42.5</ele>
        <time>2022-04-10T09:38:52.395Z</time>
      </trkpt>
      <trkpt lat="50.49986" lon="3.6372">
        <ele>43</ele>
        <time>2022-04-10T09:38:55.000Z</time>
      </trkpt>
      <trkpt lat="50.49978" lon="3.63721">
        <ele>43.6</ele>
        <time>2022-04-10T09:38:57.116Z</time>
      </trkpt>
      <trkpt lat="50.49973" lon="3.63726">
        <ele>44</ele>
        <time>2022-04-10T09:38:58.674Z</time>
      </trkpt>
      <trkpt lat="50.49969" lon="3.63736">
        <ele>44.3</ele>
        <time>2022-04-10T09:39:01.000Z</time>
      </trkpt>
      <trkpt lat="50.49969" lon="3.63745">
        <ele>44.3</ele>
        <time>2022-04-10T09:39:03.038Z</time>
      </trkpt>
      <trkpt lat="50.49969" lon="3.63754">
        <ele>44.3</ele>
        <time>2022-04-10T09:39:05.000Z</time>
      </trkpt>
      <trkpt lat="50.4997" lon="3.63763">
        <ele>44.3</ele>
        <time>2022-04-10T09:39:07.000Z</time>
      </trkpt>
      <trkpt lat="50.4997" lon="3.6377">
        <ele>44.3</ele>
        <time>2022-04-10T09:39:09.518Z</time>
      </trkpt>
      <trkpt lat="50.49967" lon="3.63777">
        <ele>44.7</ele>
        <time>2022-04-10T09:39:13.098Z</time>
      </trkpt>
      <trkpt lat="50.49963" lon="3.63785">
        <ele>44.4</ele>
        <time>2022-04-10T09:39:16.000Z</time>
      </trkpt>
      <trkpt lat="50.4996" lon="3.63792">
        <ele>44.3</ele>
        <time>2022-04-10T09:39:18.320Z</time>
      </trkpt>
      <trkpt lat="50.49956" lon="3.63798">
        <ele>44.2</ele>
        <time>2022-04-10T09:39:21.020Z</time>
      </trkpt>
      <trkpt lat="50.49953" lon="3.63805">
        <ele>44.3</ele>
        <time>2022-04-10T09:39:24.000Z</time>
      </trkpt>
      <trkpt lat="50.49949" lon="3.6381">
        <ele>44.6</ele>
        <time>2022-04-10T09:39:29.000Z</time>
      </trkpt>
      <trkpt lat="50.49945" lon="3.63816">
        <ele>44.8</ele>
        <time>2022-04-10T09:39:54.000Z</time>
      </trkpt>
      <trkpt lat="50.4994" lon="3.63819">
        <ele>45.2</ele>
        <time>2022-04-10T09:40:01.000Z</time>
      </trkpt>
      <trkpt lat="50.49935" lon="3.63826">
        <ele>45.6</ele>
        <time>2022-04-10T09:40:04.317Z</time>
      </trkpt>
      <trkpt lat="50.4993" lon="3.63832">
        <ele>46.1</ele>
        <time>2022-04-10T09:40:07.000Z</time>
      </trkpt>
      <trkpt lat="50.49926" lon="3.63835">
        <ele>46.6</ele>
        <time>2022-04-10T09:40:08.998Z</time>
      </trkpt>
      <trkpt lat="50.49921" lon="3.63836">
        <ele>47.6</ele>
        <time>2022-04-10T09:40:11.000Z</time>
      </trkpt>
      <trkpt lat="50.49915" lon="3.63834">
        <ele>49</ele>
        <time>2022-04-10T09:40:13.715Z</time>
      </trkpt>
      <trkpt lat="50.49909" lon="3.63835">
        <ele>49.3</ele>
        <time>2022-04-10T09:40:16.000Z</time>
      </trkpt>
      <trkpt lat="50.49904" lon="3.63835">
        <ele>49.8</ele>
        <time>2022-04-10T09:40:18.583Z</time>
      </trkpt>
      <trkpt lat="50.49899" lon="3.63839">
        <ele>50</ele>
        <time>2022-04-10T09:40:21.000Z</time>
      </trkpt>
      <trkpt lat="50.49897" lon="3.63845">
        <ele>50</ele>
        <time>2022-04-10T09:40:23.435Z</time>
      </trkpt>
      <trkpt lat="50.49891" lon="3.63847">
        <ele>50.8</ele>
        <time>2022-04-10T09:40:27.000Z</time>
      </trkpt>
      <trkpt lat="50.49885" lon="3.63846">
        <ele>51.2</ele>
        <time>2022-04-10T09:40:30.000Z</time>
      </trkpt>
      <trkpt lat="50.49878" lon="3.63842">
        <ele>51.4</ele>
        <time>2022-04-10T09:40:32.760Z</time>
      </trkpt>
      <trkpt lat="50.49873" lon="3.63843">
        <ele>51.6</ele>
        <time>2022-04-10T09:40:35.495Z</time>
      </trkpt>
      <trkpt lat="50.49869" lon="3.63848">
        <ele>51.7</ele>
        <time>2022-04-10T09:40:37.938Z</time>
      </trkpt>
      <trkpt lat="50.49865" lon="3.63852">
        <ele>51.9</ele>
        <time>2022-04-10T09:40:40.000Z</time>
      </trkpt>
      <trkpt lat="50.49858" lon="3.63854">
        <ele>52.2</ele>
        <time>2022-04-10T09:40:43.461Z</time>
      </trkpt>
      <trkpt lat="50.49854" lon="3.63847">
        <ele>52.4</ele>
        <time>2022-04-10T09:40:47.000Z</time>
      </trkpt>
      <trkpt lat="50.49849" lon="3.63844">
        <ele>52.6</ele>
        <time>2022-04-10T09:40:50.000Z</time>
      </trkpt>
      <trkpt lat="50.49844" lon="3.63841">
        <ele>52.8</ele>
        <time>2022-04-10T09:40:53.000Z</time>
      </trkpt>
      <trkpt lat="50.49848" lon="3.63846">
        <ele>52.7</ele>
        <time>2022-04-10T09:41:52.000Z</time>
      </trkpt>
      <trkpt lat="50.49853" lon="3.63851">
        <ele>52.5</ele>
        <time>2022-04-10T09:41:55.000Z</time>
      </trkpt>
      <trkpt lat="50.49858" lon="3.63851">
        <ele>52.2</ele>
        <time>2022-04-10T09:41:58.000Z</time>
      </trkpt>
      <trkpt lat="50.49863" lon="3.63849">
        <ele>51.9</ele>
        <time>2022-04-10T09:42:02.000Z</time>
      </trkpt>
      <trkpt lat="50.49867" lon="3.63844">
        <ele>51.8</ele>
        <time>2022-04-10T09:42:08.000Z</time>
      </trkpt>
      <trkpt lat="50.49872" lon="3.63848">
        <ele>51.6</ele>
        <time>2022-04-10T09:42:13.000Z</time>
      </trkpt>
      <trkpt lat="50.49876" lon="3.63843">
        <ele>51.5</ele>
        <time>2022-04-10T09:42:23.817Z</time>
      </trkpt>
      <trkpt lat="50.49881" lon="3.63845">
        <ele>51.3</ele>
        <time>2022-04-10T09:42:26.097Z</time>
      </trkpt>
      <trkpt lat="50.49886" lon="3.63841">
        <ele>51.1</ele>
        <time>2022-04-10T09:42:28.656Z</time>
      </trkpt>
      <trkpt lat="50.49893" lon="3.63841">
        <ele>50.6</ele>
        <time>2022-04-10T09:42:31.000Z</time>
      </trkpt>
      <trkpt lat="50.49898" lon="3.63838">
        <ele>50.1</ele>
        <time>2022-04-10T09:42:33.000Z</time>
      </trkpt>
      <trkpt lat="50.49904" lon="3.63839">
        <ele>49.5</ele>
        <time>2022-04-10T09:42:36.000Z</time>
      </trkpt>
      <trkpt lat="50.4991" lon="3.63842">
        <ele>48.5</ele>
        <time>2022-04-10T09:42:50.100Z</time>
      </trkpt>
      <trkpt lat="50.49917" lon="3.63841">
        <ele>47.7</ele>
        <time>2022-04-10T09:42:52.336Z</time>
      </trkpt>
      <trkpt lat="50.49926" lon="3.63832">
        <ele>47.1</ele>
        <time>2022-04-10T09:42:54.698Z</time>
      </trkpt>
      <trkpt lat="50.49931" lon="3.63824">
        <ele>46.5</ele>
        <time>2022-04-10T09:42:56.000Z</time>
      </trkpt>
      <trkpt lat="50.49936" lon="3.63812">
        <ele>46.4</ele>
        <time>2022-04-10T09:42:58.000Z</time>
      </trkpt>
      <trkpt lat="50.4994" lon="3.63806">
        <ele>46.5</ele>
        <time>2022-04-10T09:42:59.119Z</time>
      </trkpt>
      <trkpt lat="50.49946" lon="3.63804">
        <ele>45.8</ele>
        <time>2022-04-10T09:43:01.000Z</time>
      </trkpt>
      <trkpt lat="50.49948" lon="3.63814">
        <ele>44.4</ele>
        <time>2022-04-10T09:43:05.019Z</time>
      </trkpt>
      <trkpt lat="50.49951" lon="3.63806">
        <ele>44.6</ele>
        <time>2022-04-10T09:43:07.000Z</time>
      </trkpt>
      <trkpt lat="50.49954" lon="3.63799">
        <ele>44.5</ele>
        <time>2022-04-10T09:43:09.000Z</time>
      </trkpt>
      <trkpt lat="50.49956" lon="3.63791">
        <ele>45</ele>
        <time>2022-04-10T09:43:11.143Z</time>
      </trkpt>
      <trkpt lat="50.4996" lon="3.63783">
        <ele>45.2</ele>
        <time>2022-04-10T09:43:13.000Z</time>
      </trkpt>
      <trkpt lat="50.49964" lon="3.63777">
        <ele>45.2</ele>
        <time>2022-04-10T09:43:14.956Z</time>
      </trkpt>
      <trkpt lat="50.49968" lon="3.63772">
        <ele>44.6</ele>
        <time>2022-04-10T09:43:17.000Z</time>
      </trkpt>
      <trkpt lat="50.49974" lon="3.63767">
        <ele>43.7</ele>
        <time>2022-04-10T09:43:20.079Z</time>
      </trkpt>
      <trkpt lat="50.49979" lon="3.63769">
        <ele>42.8</ele>
        <time>2022-04-10T09:43:24.000Z</time>
      </trkpt>
      <trkpt lat="50.49984" lon="3.63765">
        <ele>42.3</ele>
        <time>2022-04-10T09:43:27.000Z</time>
      </trkpt>
      <trkpt lat="50.49988" lon="3.63763">
        <ele>41.7</ele>
        <time>2022-04-10T09:43:29.977Z</time>
      </trkpt>
      <trkpt lat="50.49994" lon="3.6376">
        <ele>41.3</ele>
        <time>2022-04-10T09:43:33.000Z</time>
      </trkpt>
      <trkpt lat="50.49998" lon="3.63755">
        <ele>41.5</ele>
        <time>2022-04-10T09:43:35.036Z</time>
      </trkpt>
      <trkpt lat="50.50004" lon="3.63758">
        <ele>40.2</ele>
        <time>2022-04-10T09:43:38.000Z</time>
      </trkpt>
      <trkpt lat="50.50008" lon="3.63766">
        <ele>38.7</ele>
        <time>2022-04-10T09:43:41.000Z</time>
      </trkpt>
      <trkpt lat="50.5001" lon="3.63774">
        <ele>37.4</ele>
        <time>2022-04-10T09:43:44.000Z</time>
      </trkpt>
      <trkpt lat="50.50015" lon="3.63777">
        <ele>36.5</ele>
        <time>2022-04-10T09:43:48.000Z</time>
      </trkpt>
      <trkpt lat="50.50017" lon="3.63774">
        <ele>36.5</ele>
        <time>2022-04-10T09:43:50.133Z</time>
      </trkpt>
      <trkpt lat="50.50002" lon="3.63722">
        <ele>41.9</ele>
        <time>2022-04-10T09:44:12.691Z</time>
      </trkpt>
      <trkpt lat="50.49987" lon="3.63671">
        <ele>42.1</ele>
        <time>2022-04-10T09:44:34.835Z</time>
      </trkpt>
      <trkpt lat="50.49971" lon="3.63618">
        <ele>42</ele>
        <time>2022-04-10T09:44:57.659Z</time>
      </trkpt>
      <trkpt lat="50.49956" lon="3.63565">
        <ele>42</ele>
        <time>2022-04-10T09:45:20.465Z</time>
      </trkpt>
      <trkpt lat="50.49935" lon="3.63577">
        <ele>42.7</ele>
        <time>2022-04-10T09:45:34.166Z</time>
      </trkpt>
      <trkpt lat="50.4993" lon="3.63575">
        <ele>43.1</ele>
        <time>2022-04-10T09:45:37.700Z</time>
      </trkpt>
      <trkpt lat="50.49925" lon="3.63571">
        <ele>43.4</ele>
        <time>2022-04-10T09:45:40.748Z</time>
      </trkpt>
      <trkpt lat="50.49895" lon="3.63612">
        <ele>44.8</ele>
        <time>2022-04-10T09:46:05.592Z</time>
      </trkpt>
      <trkpt lat="50.49829" lon="3.63771">
        <ele>51.7</ele>
        <time>2022-04-10T09:47:20.000Z</time>
      </trkpt>
      <trkpt lat="50.49826" lon="3.63777">
        <ele>52.1</ele>
        <time>2022-04-10T09:47:22.000Z</time>
      </trkpt>
      <trkpt lat="50.49824" lon="3.63784">
        <ele>52.4</ele>
        <time>2022-04-10T09:47:24.000Z</time>
      </trkpt>
      <trkpt lat="50.49822" lon="3.63791">
        <ele>52.7</ele>
        <time>2022-04-10T09:47:26.000Z</time>
      </trkpt>
      <trkpt lat="50.49821" lon="3.63801">
        <ele>52.9</ele>
        <time>2022-04-10T09:47:29.000Z</time>
      </trkpt>
      <trkpt lat="50.49819" lon="3.63809">
        <ele>53.1</ele>
        <time>2022-04-10T09:47:32.000Z</time>
      </trkpt>
      <trkpt lat="50.49815" lon="3.63817">
        <ele>53.5</ele>
        <time>2022-04-10T09:47:35.000Z</time>
      </trkpt>
      <trkpt lat="50.49811" lon="3.63825">
        <ele>53.7</ele>
        <time>2022-04-10T09:47:38.000Z</time>
      </trkpt>
      <trkpt lat="50.49808" lon="3.63834">
        <ele>53.9</ele>
        <time>2022-04-10T09:47:41.000Z</time>
      </trkpt>
      <trkpt lat="50.49804" lon="3.63841">
        <ele>54.1</ele>
        <time>2022-04-10T09:47:44.000Z</time>
      </trkpt>
      <trkpt lat="50.49801" lon="3.63849">
        <ele>54.4</ele>
        <time>2022-04-10T09:47:47.000Z</time>
      </trkpt>
      <trkpt lat="50.49798" lon="3.63856">
        <ele>54.8</ele>
        <time>2022-04-10T09:47:50.000Z</time>
      </trkpt>
      <trkpt lat="50.49795" lon="3.63864">
        <ele>55.2</ele>
        <time>2022-04-10T09:47:53.000Z</time>
      </trkpt>
      <trkpt lat="50.49791" lon="3.63871">
        <ele>55.6</ele>
        <time>2022-04-10T09:47:55.834Z</time>
      </trkpt>
      <trkpt lat="50.49788" lon="3.63876">
        <ele>55.8</ele>
        <time>2022-04-10T09:47:58.000Z</time>
      </trkpt>
      <trkpt lat="50.49785" lon="3.63882">
        <ele>55.8</ele>
        <time>2022-04-10T09:48:00.000Z</time>
      </trkpt>
      <trkpt lat="50.49782" lon="3.63888">
        <ele>55.8</ele>
        <time>2022-04-10T09:48:02.000Z</time>
      </trkpt>
      <trkpt lat="50.49779" lon="3.63894">
        <ele>55.8</ele>
        <time>2022-04-10T09:48:04.000Z</time>
      </trkpt>
      <trkpt lat="50.49775" lon="3.63902">
        <ele>56</ele>
        <time>2022-04-10T09:48:06.602Z</time>
      </trkpt>
      <trkpt lat="50.49771" lon="3.63908">
        <ele>56.3</ele>
        <time>2022-04-10T09:48:09.000Z</time>
      </trkpt>
      <trkpt lat="50.49767" lon="3.63914">
        <ele>56.6</ele>
        <time>2022-04-10T09:48:11.000Z</time>
      </trkpt>
      <trkpt lat="50.49764" lon="3.63922">
        <ele>56.8</ele>
        <time>2022-04-10T09:48:13.000Z</time>
      </trkpt>
      <trkpt lat="50.49759" lon="3.63931">
        <ele>56.6</ele>
        <time>2022-04-10T09:48:15.438Z</time>
      </trkpt>
      <trkpt lat="50.49754" lon="3.63939">
        <ele>55.9</ele>
        <time>2022-04-10T09:48:17.436Z</time>
      </trkpt>
      <trkpt lat="50.49751" lon="3.63945">
        <ele>55.1</ele>
        <time>2022-04-10T09:48:18.655Z</time>
      </trkpt>
      <trkpt lat="50.49747" lon="3.63951">
        <ele>55.6</ele>
        <time>2022-04-10T09:48:20.158Z</time>
      </trkpt>
      <trkpt lat="50.49743" lon="3.63959">
        <ele>56.3</ele>
        <time>2022-04-10T09:48:21.595Z</time>
      </trkpt>
      <trkpt lat="50.4974" lon="3.63967">
        <ele>56.5</ele>
        <time>2022-04-10T09:48:22.977Z</time>
      </trkpt>
      <trkpt lat="50.49736" lon="3.63973">
        <ele>56.5</ele>
        <time>2022-04-10T09:48:24.135Z</time>
      </trkpt>
      <trkpt lat="50.49733" lon="3.6398">
        <ele>56.5</ele>
        <time>2022-04-10T09:48:25.355Z</time>
      </trkpt>
      <trkpt lat="50.49728" lon="3.63987">
        <ele>56.2</ele>
        <time>2022-04-10T09:48:26.656Z</time>
      </trkpt>
      <trkpt lat="50.49721" lon="3.63997">
        <ele>55.4</ele>
        <time>2022-04-10T09:48:28.000Z</time>
      </trkpt>
      <trkpt lat="50.49717" lon="3.64004">
        <ele>55.6</ele>
        <time>2022-04-10T09:48:29.000Z</time>
      </trkpt>
      <trkpt lat="50.49714" lon="3.6401">
        <ele>55.8</ele>
        <time>2022-04-10T09:48:30.000Z</time>
      </trkpt>
      <trkpt lat="50.49711" lon="3.64017">
        <ele>55.6</ele>
        <time>2022-04-10T09:48:31.000Z</time>
      </trkpt>
      <trkpt lat="50.49708" lon="3.64024">
        <ele>55.3</ele>
        <time>2022-04-10T09:48:32.000Z</time>
      </trkpt>
      <trkpt lat="50.49705" lon="3.64031">
        <ele>54.9</ele>
        <time>2022-04-10T09:48:33.000Z</time>
      </trkpt>
      <trkpt lat="50.49701" lon="3.64038">
        <ele>54.7</ele>
        <time>2022-04-10T09:48:34.000Z</time>
      </trkpt>
      <trkpt lat="50.49698" lon="3.64045">
        <ele>54.5</ele>
        <time>2022-04-10T09:48:35.000Z</time>
      </trkpt>
      <trkpt lat="50.49694" lon="3.64052">
        <ele>54.1</ele>
        <time>2022-04-10T09:48:36.000Z</time>
      </trkpt>
      <trkpt lat="50.49691" lon="3.64058">
        <ele>53.8</ele>
        <time>2022-04-10T09:48:37.000Z</time>
      </trkpt>
      <trkpt lat="50.49687" lon="3.64065">
        <ele>53.4</ele>
        <time>2022-04-10T09:48:38.000Z</time>
      </trkpt>
      <trkpt lat="50.49684" lon="3.64072">
        <ele>53</ele>
        <time>2022-04-10T09:48:39.000Z</time>
      </trkpt>
      <trkpt lat="50.4968" lon="3.64078">
        <ele>52.7</ele>
        <time>2022-04-10T09:48:40.000Z</time>
      </trkpt>
      <trkpt lat="50.49676" lon="3.64084">
        <ele>52.4</ele>
        <time>2022-04-10T09:48:41.000Z</time>
      </trkpt>
      <trkpt lat="50.49672" lon="3.64091">
        <ele>52.3</ele>
        <time>2022-04-10T09:48:42.000Z</time>
      </trkpt>
      <trkpt lat="50.49666" lon="3.64097">
        <ele>52</ele>
        <time>2022-04-10T09:48:43.000Z</time>
      </trkpt>
      <trkpt lat="50.49661" lon="3.64103">
        <ele>51.4</ele>
        <time>2022-04-10T09:48:44.000Z</time>
      </trkpt>
      <trkpt lat="50.49655" lon="3.64109">
        <ele>50.8</ele>
        <time>2022-04-10T09:48:45.000Z</time>
      </trkpt>
      <trkpt lat="50.4965" lon="3.64115">
        <ele>50.3</ele>
        <time>2022-04-10T09:48:46.000Z</time>
      </trkpt>
      <trkpt lat="50.49644" lon="3.64121">
        <ele>50.1</ele>
        <time>2022-04-10T09:48:47.000Z</time>
      </trkpt>
      <trkpt lat="50.49638" lon="3.64128">
        <ele>50.1</ele>
        <time>2022-04-10T09:48:48.000Z</time>
      </trkpt>
      <trkpt lat="50.49632" lon="3.64134">
        <ele>49.7</ele>
        <time>2022-04-10T09:48:49.000Z</time>
      </trkpt>
      <trkpt lat="50.49626" lon="3.6414">
        <ele>49.1</ele>
        <time>2022-04-10T09:48:50.000Z</time>
      </trkpt>
      <trkpt lat="50.4962" lon="3.64146">
        <ele>48.4</ele>
        <time>2022-04-10T09:48:51.000Z</time>
      </trkpt>
      <trkpt lat="50.49614" lon="3.64153">
        <ele>48.2</ele>
        <time>2022-04-10T09:48:52.000Z</time>
      </trkpt>
      <trkpt lat="50.49608" lon="3.64159">
        <ele>48</ele>
        <time>2022-04-10T09:48:53.000Z</time>
      </trkpt>
      <trkpt lat="50.49602" lon="3.64166">
        <ele>47.6</ele>
        <time>2022-04-10T09:48:54.000Z</time>
      </trkpt>
      <trkpt lat="50.49596" lon="3.64172">
        <ele>47.1</ele>
        <time>2022-04-10T09:48:55.000Z</time>
      </trkpt>
      <trkpt lat="50.4959" lon="3.64178">
        <ele>46.9</ele>
        <time>2022-04-10T09:48:56.000Z</time>
      </trkpt>
      <trkpt lat="50.49583" lon="3.64184">
        <ele>46.9</ele>
        <time>2022-04-10T09:48:57.000Z</time>
      </trkpt>
      <trkpt lat="50.49577" lon="3.64191">
        <ele>47</ele>
        <time>2022-04-10T09:48:58.000Z</time>
      </trkpt>
      <trkpt lat="50.49571" lon="3.64197">
        <ele>46.7</ele>
        <time>2022-04-10T09:48:59.000Z</time>
      </trkpt>
      <trkpt lat="50.49565" lon="3.64201">
        <ele>46.3</ele>
        <time>2022-04-10T09:49:01.000Z</time>
      </trkpt>
      <trkpt lat="50.4956" lon="3.64194">
        <ele>45.4</ele>
        <time>2022-04-10T09:49:03.000Z</time>
      </trkpt>
      <trkpt lat="50.49557" lon="3.64179">
        <ele>44.5</ele>
        <time>2022-04-10T09:49:05.000Z</time>
      </trkpt>
      <trkpt lat="50.49555" lon="3.64169">
        <ele>44.1</ele>
        <time>2022-04-10T09:49:06.000Z</time>
      </trkpt>
      <trkpt lat="50.49555" lon="3.6416">
        <ele>44</ele>
        <time>2022-04-10T09:49:07.000Z</time>
      </trkpt>
      <trkpt lat="50.49555" lon="3.64152">
        <ele>44</ele>
        <time>2022-04-10T09:49:08.000Z</time>
      </trkpt>
      <trkpt lat="50.49553" lon="3.64139">
        <ele>43.9</ele>
        <time>2022-04-10T09:49:09.000Z</time>
      </trkpt>
      <trkpt lat="50.49548" lon="3.64135">
        <ele>43.7</ele>
        <time>2022-04-10T09:49:11.000Z</time>
      </trkpt>
      <trkpt lat="50.49547" lon="3.64127">
        <ele>43.7</ele>
        <time>2022-04-10T09:49:12.000Z</time>
      </trkpt>
      <trkpt lat="50.49545" lon="3.6412">
        <ele>43.6</ele>
        <time>2022-04-10T09:49:13.000Z</time>
      </trkpt>
      <trkpt lat="50.49543" lon="3.64109">
        <ele>43.6</ele>
        <time>2022-04-10T09:49:14.000Z</time>
      </trkpt>
      <trkpt lat="50.49539" lon="3.64096">
        <ele>43.7</ele>
        <time>2022-04-10T09:49:16.000Z</time>
      </trkpt>
      <trkpt lat="50.49537" lon="3.64085">
        <ele>44</ele>
        <time>2022-04-10T09:49:17.000Z</time>
      </trkpt>
      <trkpt lat="50.49538" lon="3.64075">
        <ele>44</ele>
        <time>2022-04-10T09:49:19.000Z</time>
      </trkpt>
      <trkpt lat="50.49536" lon="3.64066">
        <ele>44</ele>
        <time>2022-04-10T09:49:20.000Z</time>
      </trkpt>
      <trkpt lat="50.49535" lon="3.64058">
        <ele>44</ele>
        <time>2022-04-10T09:49:21.000Z</time>
      </trkpt>
      <trkpt lat="50.49531" lon="3.64045">
        <ele>44</ele>
        <time>2022-04-10T09:49:23.000Z</time>
      </trkpt>
      <trkpt lat="50.49528" lon="3.64034">
        <ele>44</ele>
        <time>2022-04-10T09:49:24.000Z</time>
      </trkpt>
      <trkpt lat="50.49525" lon="3.64018">
        <ele>43.9</ele>
        <time>2022-04-10T09:49:26.000Z</time>
      </trkpt>
      <trkpt lat="50.49524" lon="3.64011">
        <ele>43.8</ele>
        <time>2022-04-10T09:49:27.000Z</time>
      </trkpt>
      <trkpt lat="50.49522" lon="3.64003">
        <ele>43.8</ele>
        <time>2022-04-10T09:49:28.000Z</time>
      </trkpt>
      <trkpt lat="50.49521" lon="3.63997">
        <ele>43.7</ele>
        <time>2022-04-10T09:49:29.000Z</time>
      </trkpt>
      <trkpt lat="50.49518" lon="3.63984">
        <ele>43.7</ele>
        <time>2022-04-10T09:49:30.000Z</time>
      </trkpt>
      <trkpt lat="50.49515" lon="3.63967">
        <ele>43.5</ele>
        <time>2022-04-10T09:49:32.000Z</time>
      </trkpt>
      <trkpt lat="50.49514" lon="3.6396">
        <ele>43.5</ele>
        <time>2022-04-10T09:49:33.000Z</time>
      </trkpt>
      <trkpt lat="50.49512" lon="3.63948">
        <ele>43.4</ele>
        <time>2022-04-10T09:49:35.000Z</time>
      </trkpt>
      <trkpt lat="50.49509" lon="3.63937">
        <ele>43.3</ele>
        <time>2022-04-10T09:49:36.000Z</time>
      </trkpt>
      <trkpt lat="50.49507" lon="3.63922">
        <ele>43.2</ele>
        <time>2022-04-10T09:49:38.000Z</time>
      </trkpt>
      <trkpt lat="50.49503" lon="3.63909">
        <ele>43.1</ele>
        <time>2022-04-10T09:49:40.000Z</time>
      </trkpt>
      <trkpt lat="50.49501" lon="3.63898">
        <ele>43</ele>
        <time>2022-04-10T09:49:41.000Z</time>
      </trkpt>
      <trkpt lat="50.49499" lon="3.6389">
        <ele>43</ele>
        <time>2022-04-10T09:49:42.000Z</time>
      </trkpt>
      <trkpt lat="50.49497" lon="3.63882">
        <ele>42.9</ele>
        <time>2022-04-10T09:49:43.000Z</time>
      </trkpt>
      <trkpt lat="50.49496" lon="3.63874">
        <ele>42.8</ele>
        <time>2022-04-10T09:49:44.000Z</time>
      </trkpt>
      <trkpt lat="50.49494" lon="3.6386">
        <ele>42.8</ele>
        <time>2022-04-10T09:49:45.000Z</time>
      </trkpt>
      <trkpt lat="50.49492" lon="3.63847">
        <ele>42.7</ele>
        <time>2022-04-10T09:49:47.000Z</time>
      </trkpt>
      <trkpt lat="50.4949" lon="3.63836">
        <ele>42.6</ele>
        <time>2022-04-10T09:49:48.000Z</time>
      </trkpt>
      <trkpt lat="50.49488" lon="3.63828">
        <ele>42.5</ele>
        <time>2022-04-10T09:49:49.000Z</time>
      </trkpt>
      <trkpt lat="50.49487" lon="3.63821">
        <ele>42.3</ele>
        <time>2022-04-10T09:49:50.000Z</time>
      </trkpt>
      <trkpt lat="50.49486" lon="3.63815">
        <ele>42.1</ele>
        <time>2022-04-10T09:49:51.000Z</time>
      </trkpt>
      <trkpt lat="50.49484" lon="3.63807">
        <ele>41.9</ele>
        <time>2022-04-10T09:49:52.000Z</time>
      </trkpt>
      <trkpt lat="50.49481" lon="3.63796">
        <ele>41.9</ele>
        <time>2022-04-10T09:49:53.000Z</time>
      </trkpt>
      <trkpt lat="50.4948" lon="3.63789">
        <ele>42</ele>
        <time>2022-04-10T09:49:54.000Z</time>
      </trkpt>
      <trkpt lat="50.49478" lon="3.63779">
        <ele>42.2</ele>
        <time>2022-04-10T09:49:56.000Z</time>
      </trkpt>
      <trkpt lat="50.49476" lon="3.63772">
        <ele>42.1</ele>
        <time>2022-04-10T09:49:57.000Z</time>
      </trkpt>
      <trkpt lat="50.49474" lon="3.63764">
        <ele>42.1</ele>
        <time>2022-04-10T09:49:58.000Z</time>
      </trkpt>
      <trkpt lat="50.49471" lon="3.63752">
        <ele>42</ele>
        <time>2022-04-10T09:49:59.000Z</time>
      </trkpt>
      <trkpt lat="50.4947" lon="3.63744">
        <ele>41.9</ele>
        <time>2022-04-10T09:50:00.000Z</time>
      </trkpt>
      <trkpt lat="50.49467" lon="3.63731">
        <ele>41.7</ele>
        <time>2022-04-10T09:50:02.000Z</time>
      </trkpt>
      <trkpt lat="50.49465" lon="3.6372">
        <ele>41.5</ele>
        <time>2022-04-10T09:50:03.000Z</time>
      </trkpt>
      <trkpt lat="50.49463" lon="3.63708">
        <ele>41.5</ele>
        <time>2022-04-10T09:50:05.126Z</time>
      </trkpt>
      <trkpt lat="50.49463" lon="3.63699">
        <ele>41.6</ele>
        <time>2022-04-10T09:50:06.027Z</time>
      </trkpt>
      <trkpt lat="50.4946" lon="3.63686">
        <ele>41.6</ele>
        <time>2022-04-10T09:50:07.639Z</time>
      </trkpt>
      <trkpt lat="50.49458" lon="3.63675">
        <ele>41.5</ele>
        <time>2022-04-10T09:50:09.210Z</time>
      </trkpt>
      <trkpt lat="50.49455" lon="3.63664">
        <ele>41.4</ele>
        <time>2022-04-10T09:50:10.645Z</time>
      </trkpt>
      <trkpt lat="50.49453" lon="3.63653">
        <ele>41.3</ele>
        <time>2022-04-10T09:50:12.103Z</time>
      </trkpt>
      <trkpt lat="50.49452" lon="3.63646">
        <ele>41.3</ele>
        <time>2022-04-10T09:50:13.000Z</time>
      </trkpt>
      <trkpt lat="50.4945" lon="3.63629">
        <ele>41.2</ele>
        <time>2022-04-10T09:50:15.767Z</time>
      </trkpt>
      <trkpt lat="50.49449" lon="3.63617">
        <ele>41.1</ele>
        <time>2022-04-10T09:50:18.000Z</time>
      </trkpt>
      <trkpt lat="50.49447" lon="3.63608">
        <ele>41.1</ele>
        <time>2022-04-10T09:50:19.632Z</time>
      </trkpt>
      <trkpt lat="50.49446" lon="3.63601">
        <ele>41.1</ele>
        <time>2022-04-10T09:50:20.783Z</time>
      </trkpt>
      <trkpt lat="50.49444" lon="3.6359">
        <ele>41</ele>
        <time>2022-04-10T09:50:21.845Z</time>
      </trkpt>
      <trkpt lat="50.49442" lon="3.63581">
        <ele>40.9</ele>
        <time>2022-04-10T09:50:22.868Z</time>
      </trkpt>
      <trkpt lat="50.4944" lon="3.63573">
        <ele>40.8</ele>
        <time>2022-04-10T09:50:24.000Z</time>
      </trkpt>
      <trkpt lat="50.49437" lon="3.63563">
        <ele>40.7</ele>
        <time>2022-04-10T09:50:27.000Z</time>
      </trkpt>
      <trkpt lat="50.49435" lon="3.63554">
        <ele>40.7</ele>
        <time>2022-04-10T09:50:28.000Z</time>
      </trkpt>
      <trkpt lat="50.49433" lon="3.63546">
        <ele>41</ele>
        <time>2022-04-10T09:50:30.000Z</time>
      </trkpt>
      <trkpt lat="50.49431" lon="3.63534">
        <ele>41.3</ele>
        <time>2022-04-10T09:50:32.000Z</time>
      </trkpt>
      <trkpt lat="50.49429" lon="3.63522">
        <ele>41.4</ele>
        <time>2022-04-10T09:50:34.226Z</time>
      </trkpt>
      <trkpt lat="50.49427" lon="3.63514">
        <ele>41.4</ele>
        <time>2022-04-10T09:50:35.730Z</time>
      </trkpt>
      <trkpt lat="50.49426" lon="3.63507">
        <ele>41.3</ele>
        <time>2022-04-10T09:50:37.105Z</time>
      </trkpt>
      <trkpt lat="50.49425" lon="3.63495">
        <ele>41.3</ele>
        <time>2022-04-10T09:50:39.000Z</time>
      </trkpt>
      <trkpt lat="50.49423" lon="3.63483">
        <ele>41.2</ele>
        <time>2022-04-10T09:50:41.146Z</time>
      </trkpt>
      <trkpt lat="50.49422" lon="3.63474">
        <ele>41.2</ele>
        <time>2022-04-10T09:50:42.347Z</time>
      </trkpt>
      <trkpt lat="50.4942" lon="3.63464">
        <ele>41.1</ele>
        <time>2022-04-10T09:50:43.887Z</time>
      </trkpt>
      <trkpt lat="50.49419" lon="3.63457">
        <ele>41.1</ele>
        <time>2022-04-10T09:50:45.088Z</time>
      </trkpt>
      <trkpt lat="50.49418" lon="3.63447">
        <ele>41</ele>
        <time>2022-04-10T09:50:46.925Z</time>
      </trkpt>
      <trkpt lat="50.49415" lon="3.63435">
        <ele>40.9</ele>
        <time>2022-04-10T09:50:49.000Z</time>
      </trkpt>
      <trkpt lat="50.49412" lon="3.63425">
        <ele>40.8</ele>
        <time>2022-04-10T09:50:51.189Z</time>
      </trkpt>
      <trkpt lat="50.4941" lon="3.63415">
        <ele>40.8</ele>
        <time>2022-04-10T09:50:52.644Z</time>
      </trkpt>
      <trkpt lat="50.49407" lon="3.63403">
        <ele>40.7</ele>
        <time>2022-04-10T09:50:54.000Z</time>
      </trkpt>
      <trkpt lat="50.49405" lon="3.63391">
        <ele>40.6</ele>
        <time>2022-04-10T09:50:55.828Z</time>
      </trkpt>
      <trkpt lat="50.49403" lon="3.63382">
        <ele>40.5</ele>
        <time>2022-04-10T09:50:56.907Z</time>
      </trkpt>
      <trkpt lat="50.494" lon="3.63373">
        <ele>40.4</ele>
        <time>2022-04-10T09:50:58.088Z</time>
      </trkpt>
      <trkpt lat="50.49397" lon="3.63361">
        <ele>40.3</ele>
        <time>2022-04-10T09:51:00.000Z</time>
      </trkpt>
      <trkpt lat="50.49394" lon="3.63343">
        <ele>40.2</ele>
        <time>2022-04-10T09:51:03.146Z</time>
      </trkpt>
      <trkpt lat="50.49391" lon="3.63331">
        <ele>40.1</ele>
        <time>2022-04-10T09:51:04.928Z</time>
      </trkpt>
      <trkpt lat="50.49389" lon="3.63322">
        <ele>40</ele>
        <time>2022-04-10T09:51:06.000Z</time>
      </trkpt>
      <trkpt lat="50.49389" lon="3.63314">
        <ele>40</ele>
        <time>2022-04-10T09:51:07.000Z</time>
      </trkpt>
      <trkpt lat="50.49387" lon="3.63303">
        <ele>40</ele>
        <time>2022-04-10T09:51:09.000Z</time>
      </trkpt>
      <trkpt lat="50.49386" lon="3.63294">
        <ele>40</ele>
        <time>2022-04-10T09:51:10.000Z</time>
      </trkpt>
      <trkpt lat="50.49384" lon="3.63284">
        <ele>39.9</ele>
        <time>2022-04-10T09:51:11.725Z</time>
      </trkpt>
      <trkpt lat="50.49381" lon="3.63275">
        <ele>39.7</ele>
        <time>2022-04-10T09:51:13.043Z</time>
      </trkpt>
      <trkpt lat="50.49379" lon="3.63268">
        <ele>39.7</ele>
        <time>2022-04-10T09:51:14.067Z</time>
      </trkpt>
      <trkpt lat="50.49377" lon="3.63258">
        <ele>39.6</ele>
        <time>2022-04-10T09:51:16.025Z</time>
      </trkpt>
      <trkpt lat="50.49374" lon="3.63247">
        <ele>39.5</ele>
        <time>2022-04-10T09:51:17.145Z</time>
      </trkpt>
      <trkpt lat="50.49371" lon="3.63232">
        <ele>39.4</ele>
        <time>2022-04-10T09:51:19.000Z</time>
      </trkpt>
      <trkpt lat="50.4937" lon="3.63224">
        <ele>39.3</ele>
        <time>2022-04-10T09:51:20.000Z</time>
      </trkpt>
      <trkpt lat="50.49369" lon="3.63217">
        <ele>39.3</ele>
        <time>2022-04-10T09:51:21.546Z</time>
      </trkpt>
      <trkpt lat="50.49367" lon="3.6321">
        <ele>39.2</ele>
        <time>2022-04-10T09:51:22.707Z</time>
      </trkpt>
      <trkpt lat="50.49365" lon="3.632">
        <ele>39.2</ele>
        <time>2022-04-10T09:51:24.124Z</time>
      </trkpt>
      <trkpt lat="50.49364" lon="3.63185">
        <ele>39.1</ele>
        <time>2022-04-10T09:51:26.748Z</time>
      </trkpt>
      <trkpt lat="50.49359" lon="3.63168">
        <ele>38.9</ele>
        <time>2022-04-10T09:51:28.967Z</time>
      </trkpt>
      <trkpt lat="50.49356" lon="3.63154">
        <ele>38.8</ele>
        <time>2022-04-10T09:51:31.765Z</time>
      </trkpt>
      <trkpt lat="50.49353" lon="3.6314">
        <ele>38.7</ele>
        <time>2022-04-10T09:51:34.205Z</time>
      </trkpt>
      <trkpt lat="50.49351" lon="3.63124">
        <ele>38.6</ele>
        <time>2022-04-10T09:51:36.000Z</time>
      </trkpt>
      <trkpt lat="50.49349" lon="3.63116">
        <ele>38.6</ele>
        <time>2022-04-10T09:51:37.000Z</time>
      </trkpt>
      <trkpt lat="50.49346" lon="3.63104">
        <ele>38.5</ele>
        <time>2022-04-10T09:51:39.000Z</time>
      </trkpt>
      <trkpt lat="50.49344" lon="3.63091">
        <ele>38.4</ele>
        <time>2022-04-10T09:51:40.666Z</time>
      </trkpt>
      <trkpt lat="50.49341" lon="3.63074">
        <ele>38.3</ele>
        <time>2022-04-10T09:51:43.000Z</time>
      </trkpt>
      <trkpt lat="50.49339" lon="3.63063">
        <ele>38.2</ele>
        <time>2022-04-10T09:51:45.000Z</time>
      </trkpt>
      <trkpt lat="50.49338" lon="3.63054">
        <ele>38.2</ele>
        <time>2022-04-10T09:51:46.000Z</time>
      </trkpt>
      <trkpt lat="50.49337" lon="3.63047">
        <ele>38.1</ele>
        <time>2022-04-10T09:51:47.226Z</time>
      </trkpt>
      <trkpt lat="50.49336" lon="3.6304">
        <ele>38.1</ele>
        <time>2022-04-10T09:51:48.284Z</time>
      </trkpt>
      <trkpt lat="50.49335" lon="3.63028">
        <ele>38</ele>
        <time>2022-04-10T09:51:49.290Z</time>
      </trkpt>
      <trkpt lat="50.49331" lon="3.63012">
        <ele>37.9</ele>
        <time>2022-04-10T09:51:51.000Z</time>
      </trkpt>
      <trkpt lat="50.49329" lon="3.63004">
        <ele>37.8</ele>
        <time>2022-04-10T09:51:52.000Z</time>
      </trkpt>
      <trkpt lat="50.49327" lon="3.62996">
        <ele>37.8</ele>
        <time>2022-04-10T09:51:53.000Z</time>
      </trkpt>
      <trkpt lat="50.49324" lon="3.62986">
        <ele>37.6</ele>
        <time>2022-04-10T09:51:55.109Z</time>
      </trkpt>
      <trkpt lat="50.49321" lon="3.62974">
        <ele>37.6</ele>
        <time>2022-04-10T09:51:56.771Z</time>
      </trkpt>
      <trkpt lat="50.49319" lon="3.6296">
        <ele>37.5</ele>
        <time>2022-04-10T09:51:58.000Z</time>
      </trkpt>
      <trkpt lat="50.49316" lon="3.62947">
        <ele>37.4</ele>
        <time>2022-04-10T09:51:59.000Z</time>
      </trkpt>
      <trkpt lat="50.49314" lon="3.62937">
        <ele>37.3</ele>
        <time>2022-04-10T09:52:00.000Z</time>
      </trkpt>
      <trkpt lat="50.49313" lon="3.62923">
        <ele>37.3</ele>
        <time>2022-04-10T09:52:02.000Z</time>
      </trkpt>
      <trkpt lat="50.4931" lon="3.6291">
        <ele>37.2</ele>
        <time>2022-04-10T09:52:04.090Z</time>
      </trkpt>
      <trkpt lat="50.49309" lon="3.62895">
        <ele>37.1</ele>
        <time>2022-04-10T09:52:05.968Z</time>
      </trkpt>
      <trkpt lat="50.49307" lon="3.62884">
        <ele>37.1</ele>
        <time>2022-04-10T09:52:07.109Z</time>
      </trkpt>
      <trkpt lat="50.49305" lon="3.62874">
        <ele>37</ele>
        <time>2022-04-10T09:52:08.488Z</time>
      </trkpt>
      <trkpt lat="50.49303" lon="3.62866">
        <ele>36.9</ele>
        <time>2022-04-10T09:52:09.612Z</time>
      </trkpt>
      <trkpt lat="50.49299" lon="3.62848">
        <ele>36.8</ele>
        <time>2022-04-10T09:52:13.072Z</time>
      </trkpt>
      <trkpt lat="50.49295" lon="3.62832">
        <ele>36.6</ele>
        <time>2022-04-10T09:52:15.430Z</time>
      </trkpt>
      <trkpt lat="50.49293" lon="3.62825">
        <ele>36.6</ele>
        <time>2022-04-10T09:52:16.649Z</time>
      </trkpt>
      <trkpt lat="50.49291" lon="3.62815">
        <ele>36.5</ele>
        <time>2022-04-10T09:52:18.000Z</time>
      </trkpt>
      <trkpt lat="50.49289" lon="3.62804">
        <ele>36.4</ele>
        <time>2022-04-10T09:52:20.000Z</time>
      </trkpt>
      <trkpt lat="50.49288" lon="3.62792">
        <ele>36.3</ele>
        <time>2022-04-10T09:52:20.970Z</time>
      </trkpt>
      <trkpt lat="50.49284" lon="3.62771">
        <ele>36.2</ele>
        <time>2022-04-10T09:52:23.991Z</time>
      </trkpt>
      <trkpt lat="50.49281" lon="3.62763">
        <ele>36.1</ele>
        <time>2022-04-10T09:52:25.000Z</time>
      </trkpt>
      <trkpt lat="50.4928" lon="3.62755">
        <ele>36.1</ele>
        <time>2022-04-10T09:52:26.124Z</time>
      </trkpt>
      <trkpt lat="50.49278" lon="3.62743">
        <ele>36</ele>
        <time>2022-04-10T09:52:28.000Z</time>
      </trkpt>
      <trkpt lat="50.49277" lon="3.62734">
        <ele>36</ele>
        <time>2022-04-10T09:52:29.000Z</time>
      </trkpt>
      <trkpt lat="50.49276" lon="3.62726">
        <ele>35.9</ele>
        <time>2022-04-10T09:52:31.000Z</time>
      </trkpt>
      <trkpt lat="50.49274" lon="3.62717">
        <ele>35.9</ele>
        <time>2022-04-10T09:52:32.000Z</time>
      </trkpt>
      <trkpt lat="50.49271" lon="3.62706">
        <ele>35.8</ele>
        <time>2022-04-10T09:52:33.000Z</time>
      </trkpt>
      <trkpt lat="50.49268" lon="3.62694">
        <ele>35.6</ele>
        <time>2022-04-10T09:52:35.000Z</time>
      </trkpt>
      <trkpt lat="50.49266" lon="3.62684">
        <ele>35.6</ele>
        <time>2022-04-10T09:52:35.946Z</time>
      </trkpt>
      <trkpt lat="50.49264" lon="3.62674">
        <ele>35.5</ele>
        <time>2022-04-10T09:52:38.000Z</time>
      </trkpt>
      <trkpt lat="50.49262" lon="3.62662">
        <ele>35.3</ele>
        <time>2022-04-10T09:52:39.036Z</time>
      </trkpt>
      <trkpt lat="50.49261" lon="3.62648">
        <ele>35.1</ele>
        <time>2022-04-10T09:52:40.702Z</time>
      </trkpt>
      <trkpt lat="50.4926" lon="3.62639">
        <ele>35</ele>
        <time>2022-04-10T09:52:41.621Z</time>
      </trkpt>
      <trkpt lat="50.49257" lon="3.6263">
        <ele>35</ele>
        <time>2022-04-10T09:52:43.162Z</time>
      </trkpt>
      <trkpt lat="50.49255" lon="3.62618">
        <ele>35</ele>
        <time>2022-04-10T09:52:45.000Z</time>
      </trkpt>
      <trkpt lat="50.49252" lon="3.62607">
        <ele>35</ele>
        <time>2022-04-10T09:52:47.098Z</time>
      </trkpt>
      <trkpt lat="50.49251" lon="3.62596">
        <ele>35</ele>
        <time>2022-04-10T09:52:48.161Z</time>
      </trkpt>
      <trkpt lat="50.49248" lon="3.62587">
        <ele>35</ele>
        <time>2022-04-10T09:52:49.237Z</time>
      </trkpt>
      <trkpt lat="50.49244" lon="3.62571">
        <ele>35</ele>
        <time>2022-04-10T09:52:52.000Z</time>
      </trkpt>
      <trkpt lat="50.49242" lon="3.62563">
        <ele>35</ele>
        <time>2022-04-10T09:52:53.000Z</time>
      </trkpt>
      <trkpt lat="50.49241" lon="3.62555">
        <ele>35</ele>
        <time>2022-04-10T09:52:54.499Z</time>
      </trkpt>
      <trkpt lat="50.49239" lon="3.62547">
        <ele>35</ele>
        <time>2022-04-10T09:52:55.627Z</time>
      </trkpt>
      <trkpt lat="50.49237" lon="3.62538">
        <ele>35</ele>
        <time>2022-04-10T09:52:58.000Z</time>
      </trkpt>
      <trkpt lat="50.49234" lon="3.62529">
        <ele>35</ele>
        <time>2022-04-10T09:52:59.144Z</time>
      </trkpt>
      <trkpt lat="50.49232" lon="3.62522">
        <ele>35</ele>
        <time>2022-04-10T09:53:00.401Z</time>
      </trkpt>
      <trkpt lat="50.49229" lon="3.62513">
        <ele>35</ele>
        <time>2022-04-10T09:53:01.740Z</time>
      </trkpt>
      <trkpt lat="50.49228" lon="3.62504">
        <ele>35</ele>
        <time>2022-04-10T09:53:03.840Z</time>
      </trkpt>
      <trkpt lat="50.49227" lon="3.62497">
        <ele>35</ele>
        <time>2022-04-10T09:53:05.000Z</time>
      </trkpt>
      <trkpt lat="50.49226" lon="3.6249">
        <ele>35</ele>
        <time>2022-04-10T09:53:06.000Z</time>
      </trkpt>
      <trkpt lat="50.49224" lon="3.62473">
        <ele>35</ele>
        <time>2022-04-10T09:53:09.122Z</time>
      </trkpt>
      <trkpt lat="50.49222" lon="3.62463">
        <ele>35.3</ele>
        <time>2022-04-10T09:53:11.119Z</time>
      </trkpt>
      <trkpt lat="50.49218" lon="3.62456">
        <ele>35.5</ele>
        <time>2022-04-10T09:53:13.000Z</time>
      </trkpt>
      <trkpt lat="50.49214" lon="3.62453">
        <ele>35.5</ele>
        <time>2022-04-10T09:53:14.000Z</time>
      </trkpt>
      <trkpt lat="50.49208" lon="3.6245">
        <ele>35.4</ele>
        <time>2022-04-10T09:53:16.000Z</time>
      </trkpt>
      <trkpt lat="50.49202" lon="3.62448">
        <ele>35.2</ele>
        <time>2022-04-10T09:53:17.500Z</time>
      </trkpt>
      <trkpt lat="50.49197" lon="3.62446">
        <ele>35.1</ele>
        <time>2022-04-10T09:53:18.611Z</time>
      </trkpt>
      <trkpt lat="50.49193" lon="3.62445">
        <ele>35</ele>
        <time>2022-04-10T09:53:19.627Z</time>
      </trkpt>
      <trkpt lat="50.49185" lon="3.62445">
        <ele>35</ele>
        <time>2022-04-10T09:53:21.000Z</time>
      </trkpt>
      <trkpt lat="50.49178" lon="3.62442">
        <ele>35</ele>
        <time>2022-04-10T09:53:23.000Z</time>
      </trkpt>
      <trkpt lat="50.49167" lon="3.62439">
        <ele>35.2</ele>
        <time>2022-04-10T09:53:26.000Z</time>
      </trkpt>
      <trkpt lat="50.49161" lon="3.62437">
        <ele>35.3</ele>
        <time>2022-04-10T09:53:28.439Z</time>
      </trkpt>
      <trkpt lat="50.49154" lon="3.62436">
        <ele>35.3</ele>
        <time>2022-04-10T09:53:29.878Z</time>
      </trkpt>
      <trkpt lat="50.49145" lon="3.62434">
        <ele>35.4</ele>
        <time>2022-04-10T09:53:32.801Z</time>
      </trkpt>
      <trkpt lat="50.49136" lon="3.62433">
        <ele>35.4</ele>
        <time>2022-04-10T09:53:37.000Z</time>
      </trkpt>
      <trkpt lat="50.49129" lon="3.62431">
        <ele>35.5</ele>
        <time>2022-04-10T09:53:39.478Z</time>
      </trkpt>
      <trkpt lat="50.49121" lon="3.6243">
        <ele>35.5</ele>
        <time>2022-04-10T09:53:41.609Z</time>
      </trkpt>
      <trkpt lat="50.49116" lon="3.62428">
        <ele>35.6</ele>
        <time>2022-04-10T09:53:42.820Z</time>
      </trkpt>
      <trkpt lat="50.49108" lon="3.62426">
        <ele>35.7</ele>
        <time>2022-04-10T09:53:45.000Z</time>
      </trkpt>
      <trkpt lat="50.49101" lon="3.62425">
        <ele>35.8</ele>
        <time>2022-04-10T09:53:47.158Z</time>
      </trkpt>
      <trkpt lat="50.49096" lon="3.62424">
        <ele>35.9</ele>
        <time>2022-04-10T09:53:48.400Z</time>
      </trkpt>
      <trkpt lat="50.4909" lon="3.62422">
        <ele>36</ele>
        <time>2022-04-10T09:53:49.780Z</time>
      </trkpt>
      <trkpt lat="50.49086" lon="3.62421">
        <ele>36</ele>
        <time>2022-04-10T09:53:50.981Z</time>
      </trkpt>
      <trkpt lat="50.49078" lon="3.62419">
        <ele>36</ele>
        <time>2022-04-10T09:53:53.000Z</time>
      </trkpt>
      <trkpt lat="50.4907" lon="3.62417">
        <ele>36</ele>
        <time>2022-04-10T09:53:55.000Z</time>
      </trkpt>
      <trkpt lat="50.49064" lon="3.62415">
        <ele>36</ele>
        <time>2022-04-10T09:53:57.000Z</time>
      </trkpt>
      <trkpt lat="50.49059" lon="3.62413">
        <ele>36</ele>
        <time>2022-04-10T09:53:58.459Z</time>
      </trkpt>
      <trkpt lat="50.49052" lon="3.62411">
        <ele>36</ele>
        <time>2022-04-10T09:54:00.590Z</time>
      </trkpt>
      <trkpt lat="50.49045" lon="3.62409">
        <ele>36</ele>
        <time>2022-04-10T09:54:02.626Z</time>
      </trkpt>
      <trkpt lat="50.49038" lon="3.62408">
        <ele>36</ele>
        <time>2022-04-10T09:54:05.116Z</time>
      </trkpt>
      <trkpt lat="50.49032" lon="3.62407">
        <ele>36</ele>
        <time>2022-04-10T09:54:06.639Z</time>
      </trkpt>
      <trkpt lat="50.49023" lon="3.62405">
        <ele>36.1</ele>
        <time>2022-04-10T09:54:09.000Z</time>
      </trkpt>
      <trkpt lat="50.49015" lon="3.62403">
        <ele>36.2</ele>
        <time>2022-04-10T09:54:10.977Z</time>
      </trkpt>
      <trkpt lat="50.49008" lon="3.62401">
        <ele>36.4</ele>
        <time>2022-04-10T09:54:13.001Z</time>
      </trkpt>
      <trkpt lat="50.49" lon="3.624">
        <ele>36.6</ele>
        <time>2022-04-10T09:54:15.000Z</time>
      </trkpt>
      <trkpt lat="50.48989" lon="3.62396">
        <ele>36.7</ele>
        <time>2022-04-10T09:54:18.179Z</time>
      </trkpt>
      <trkpt lat="50.48982" lon="3.62395">
        <ele>36.8</ele>
        <time>2022-04-10T09:54:19.859Z</time>
      </trkpt>
      <trkpt lat="50.48975" lon="3.62394">
        <ele>36.8</ele>
        <time>2022-04-10T09:54:22.000Z</time>
      </trkpt>
      <trkpt lat="50.48968" lon="3.62393">
        <ele>36.9</ele>
        <time>2022-04-10T09:54:24.801Z</time>
      </trkpt>
      <trkpt lat="50.48963" lon="3.62392">
        <ele>36.9</ele>
        <time>2022-04-10T09:54:27.000Z</time>
      </trkpt>
      <trkpt lat="50.48957" lon="3.6239">
        <ele>37</ele>
        <time>2022-04-10T09:54:30.000Z</time>
      </trkpt>
      <trkpt lat="50.48952" lon="3.62388">
        <ele>37</ele>
        <time>2022-04-10T09:54:31.899Z</time>
      </trkpt>
      <trkpt lat="50.48947" lon="3.62387">
        <ele>37</ele>
        <time>2022-04-10T09:54:33.899Z</time>
      </trkpt>
      <trkpt lat="50.48941" lon="3.62385">
        <ele>37</ele>
        <time>2022-04-10T09:54:36.000Z</time>
      </trkpt>
      <trkpt lat="50.48936" lon="3.62384">
        <ele>37</ele>
        <time>2022-04-10T09:54:38.100Z</time>
      </trkpt>
      <trkpt lat="50.48929" lon="3.62382">
        <ele>37</ele>
        <time>2022-04-10T09:54:40.124Z</time>
      </trkpt>
      <trkpt lat="50.48923" lon="3.62381">
        <ele>37</ele>
        <time>2022-04-10T09:54:41.700Z</time>
      </trkpt>
      <trkpt lat="50.48915" lon="3.6238">
        <ele>37</ele>
        <time>2022-04-10T09:54:44.000Z</time>
      </trkpt>
      <trkpt lat="50.48906" lon="3.62377">
        <ele>37</ele>
        <time>2022-04-10T09:54:46.898Z</time>
      </trkpt>
      <trkpt lat="50.48898" lon="3.62373">
        <ele>37</ele>
        <time>2022-04-10T09:54:49.078Z</time>
      </trkpt>
      <trkpt lat="50.48889" lon="3.62372">
        <ele>37</ele>
        <time>2022-04-10T09:54:51.580Z</time>
      </trkpt>
      <trkpt lat="50.48882" lon="3.62371">
        <ele>37</ele>
        <time>2022-04-10T09:54:53.778Z</time>
      </trkpt>
      <trkpt lat="50.48875" lon="3.62368">
        <ele>37</ele>
        <time>2022-04-10T09:54:56.082Z</time>
      </trkpt>
      <trkpt lat="50.48866" lon="3.62365">
        <ele>37</ele>
        <time>2022-04-10T09:54:58.000Z</time>
      </trkpt>
      <trkpt lat="50.48861" lon="3.62365">
        <ele>37</ele>
        <time>2022-04-10T09:55:00.122Z</time>
      </trkpt>
      <trkpt lat="50.48856" lon="3.62364">
        <ele>36.8</ele>
        <time>2022-04-10T09:55:01.900Z</time>
      </trkpt>
      <trkpt lat="50.48851" lon="3.62363">
        <ele>36.6</ele>
        <time>2022-04-10T09:55:03.000Z</time>
      </trkpt>
      <trkpt lat="50.48845" lon="3.62361">
        <ele>36.4</ele>
        <time>2022-04-10T09:55:04.000Z</time>
      </trkpt>
      <trkpt lat="50.48837" lon="3.62358">
        <ele>36.1</ele>
        <time>2022-04-10T09:55:05.879Z</time>
      </trkpt>
      <trkpt lat="50.48832" lon="3.62356">
        <ele>36</ele>
        <time>2022-04-10T09:55:07.059Z</time>
      </trkpt>
      <trkpt lat="50.48821" lon="3.62353">
        <ele>36</ele>
        <time>2022-04-10T09:55:09.321Z</time>
      </trkpt>
      <trkpt lat="50.48814" lon="3.62349">
        <ele>36</ele>
        <time>2022-04-10T09:55:11.000Z</time>
      </trkpt>
      <trkpt lat="50.48802" lon="3.62346">
        <ele>35.9</ele>
        <time>2022-04-10T09:55:13.041Z</time>
      </trkpt>
      <trkpt lat="50.48795" lon="3.62346">
        <ele>35.8</ele>
        <time>2022-04-10T09:55:15.000Z</time>
      </trkpt>
      <trkpt lat="50.48789" lon="3.62345">
        <ele>35.7</ele>
        <time>2022-04-10T09:55:16.000Z</time>
      </trkpt>
      <trkpt lat="50.48783" lon="3.62344">
        <ele>35.7</ele>
        <time>2022-04-10T09:55:17.000Z</time>
      </trkpt>
      <trkpt lat="50.48777" lon="3.62342">
        <ele>35.7</ele>
        <time>2022-04-10T09:55:18.000Z</time>
      </trkpt>
      <trkpt lat="50.48773" lon="3.62341">
        <ele>35.6</ele>
        <time>2022-04-10T09:55:19.000Z</time>
      </trkpt>
      <trkpt lat="50.48766" lon="3.62339">
        <ele>35.4</ele>
        <time>2022-04-10T09:55:20.000Z</time>
      </trkpt>
      <trkpt lat="50.48755" lon="3.62337">
        <ele>35.2</ele>
        <time>2022-04-10T09:55:22.000Z</time>
      </trkpt>
      <trkpt lat="50.48746" lon="3.62335">
        <ele>34.8</ele>
        <time>2022-04-10T09:55:24.000Z</time>
      </trkpt>
      <trkpt lat="50.48738" lon="3.62333">
        <ele>34.6</ele>
        <time>2022-04-10T09:55:25.000Z</time>
      </trkpt>
      <trkpt lat="50.48732" lon="3.62332">
        <ele>34.4</ele>
        <time>2022-04-10T09:55:26.000Z</time>
      </trkpt>
      <trkpt lat="50.48727" lon="3.6233">
        <ele>34.2</ele>
        <time>2022-04-10T09:55:27.000Z</time>
      </trkpt>
      <trkpt lat="50.48719" lon="3.62328">
        <ele>33.9</ele>
        <time>2022-04-10T09:55:28.000Z</time>
      </trkpt>
      <trkpt lat="50.48713" lon="3.62326">
        <ele>33.7</ele>
        <time>2022-04-10T09:55:29.000Z</time>
      </trkpt>
      <trkpt lat="50.48707" lon="3.62325">
        <ele>33.4</ele>
        <time>2022-04-10T09:55:30.000Z</time>
      </trkpt>
      <trkpt lat="50.48701" lon="3.62323">
        <ele>33.2</ele>
        <time>2022-04-10T09:55:31.000Z</time>
      </trkpt>
      <trkpt lat="50.48692" lon="3.6232">
        <ele>32.9</ele>
        <time>2022-04-10T09:55:32.000Z</time>
      </trkpt>
      <trkpt lat="50.48688" lon="3.62318">
        <ele>32.7</ele>
        <time>2022-04-10T09:55:33.000Z</time>
      </trkpt>
      <trkpt lat="50.48682" lon="3.62317">
        <ele>32.6</ele>
        <time>2022-04-10T09:55:34.000Z</time>
      </trkpt>
      <trkpt lat="50.48674" lon="3.62315">
        <ele>32.3</ele>
        <time>2022-04-10T09:55:35.000Z</time>
      </trkpt>
      <trkpt lat="50.48668" lon="3.62314">
        <ele>32.1</ele>
        <time>2022-04-10T09:55:36.000Z</time>
      </trkpt>
      <trkpt lat="50.48663" lon="3.62313">
        <ele>32</ele>
        <time>2022-04-10T09:55:37.000Z</time>
      </trkpt>
      <trkpt lat="50.48656" lon="3.62312">
        <ele>31.9</ele>
        <time>2022-04-10T09:55:38.000Z</time>
      </trkpt>
      <trkpt lat="50.48648" lon="3.62312">
        <ele>31.9</ele>
        <time>2022-04-10T09:55:41.000Z</time>
      </trkpt>
      <trkpt lat="50.48637" lon="3.62309">
        <ele>31.8</ele>
        <time>2022-04-10T09:55:43.000Z</time>
      </trkpt>
      <trkpt lat="50.48632" lon="3.62309">
        <ele>31.7</ele>
        <time>2022-04-10T09:55:44.000Z</time>
      </trkpt>
      <trkpt lat="50.48624" lon="3.62308">
        <ele>31.4</ele>
        <time>2022-04-10T09:55:45.000Z</time>
      </trkpt>
      <trkpt lat="50.48619" lon="3.62306">
        <ele>31.3</ele>
        <time>2022-04-10T09:55:46.000Z</time>
      </trkpt>
      <trkpt lat="50.48611" lon="3.62304">
        <ele>31</ele>
        <time>2022-04-10T09:55:47.000Z</time>
      </trkpt>
      <trkpt lat="50.48604" lon="3.62302">
        <ele>30.8</ele>
        <time>2022-04-10T09:55:48.000Z</time>
      </trkpt>
      <trkpt lat="50.48598" lon="3.62301">
        <ele>30.6</ele>
        <time>2022-04-10T09:55:49.000Z</time>
      </trkpt>
      <trkpt lat="50.48592" lon="3.62299">
        <ele>30.5</ele>
        <time>2022-04-10T09:55:50.000Z</time>
      </trkpt>
      <trkpt lat="50.48582" lon="3.62297">
        <ele>30.3</ele>
        <time>2022-04-10T09:55:51.000Z</time>
      </trkpt>
      <trkpt lat="50.48577" lon="3.62296">
        <ele>30.3</ele>
        <time>2022-04-10T09:55:52.000Z</time>
      </trkpt>
      <trkpt lat="50.48569" lon="3.62293">
        <ele>30.2</ele>
        <time>2022-04-10T09:55:53.000Z</time>
      </trkpt>
      <trkpt lat="50.48563" lon="3.62291">
        <ele>30.1</ele>
        <time>2022-04-10T09:55:54.000Z</time>
      </trkpt>
      <trkpt lat="50.48557" lon="3.6229">
        <ele>30</ele>
        <time>2022-04-10T09:55:55.000Z</time>
      </trkpt>
      <trkpt lat="50.48551" lon="3.62289">
        <ele>29.9</ele>
        <time>2022-04-10T09:55:56.000Z</time>
      </trkpt>
      <trkpt lat="50.48542" lon="3.62287">
        <ele>29.8</ele>
        <time>2022-04-10T09:55:57.000Z</time>
      </trkpt>
      <trkpt lat="50.48537" lon="3.62285">
        <ele>29.8</ele>
        <time>2022-04-10T09:55:58.000Z</time>
      </trkpt>
      <trkpt lat="50.48529" lon="3.62282">
        <ele>29.8</ele>
        <time>2022-04-10T09:55:59.000Z</time>
      </trkpt>
      <trkpt lat="50.48524" lon="3.6228">
        <ele>29.8</ele>
        <time>2022-04-10T09:56:00.000Z</time>
      </trkpt>
      <trkpt lat="50.48516" lon="3.62278">
        <ele>29.6</ele>
        <time>2022-04-10T09:56:02.000Z</time>
      </trkpt>
      <trkpt lat="50.48508" lon="3.62276">
        <ele>29.4</ele>
        <time>2022-04-10T09:56:03.000Z</time>
      </trkpt>
      <trkpt lat="50.48499" lon="3.62272">
        <ele>29.2</ele>
        <time>2022-04-10T09:56:05.000Z</time>
      </trkpt>
      <trkpt lat="50.48495" lon="3.62268">
        <ele>29.3</ele>
        <time>2022-04-10T09:56:06.000Z</time>
      </trkpt>
      <trkpt lat="50.48494" lon="3.6226">
        <ele>29.5</ele>
        <time>2022-04-10T09:56:08.000Z</time>
      </trkpt>
      <trkpt lat="50.48492" lon="3.6225">
        <ele>29.7</ele>
        <time>2022-04-10T09:56:10.000Z</time>
      </trkpt>
      <trkpt lat="50.48488" lon="3.62241">
        <ele>29.6</ele>
        <time>2022-04-10T09:56:12.000Z</time>
      </trkpt>
      <trkpt lat="50.48488" lon="3.62231">
        <ele>29.6</ele>
        <time>2022-04-10T09:56:14.000Z</time>
      </trkpt>
      <trkpt lat="50.48483" lon="3.62223">
        <ele>29.4</ele>
        <time>2022-04-10T09:56:15.151Z</time>
      </trkpt>
      <trkpt lat="50.48476" lon="3.62212">
        <ele>29.1</ele>
        <time>2022-04-10T09:56:17.091Z</time>
      </trkpt>
      <trkpt lat="50.48472" lon="3.62206">
        <ele>29</ele>
        <time>2022-04-10T09:56:18.195Z</time>
      </trkpt>
      <trkpt lat="50.48467" lon="3.62195">
        <ele>29</ele>
        <time>2022-04-10T09:56:20.051Z</time>
      </trkpt>
      <trkpt lat="50.48464" lon="3.62189">
        <ele>29</ele>
        <time>2022-04-10T09:56:21.000Z</time>
      </trkpt>
      <trkpt lat="50.4846" lon="3.62179">
        <ele>29</ele>
        <time>2022-04-10T09:56:22.712Z</time>
      </trkpt>
      <trkpt lat="50.48456" lon="3.62169">
        <ele>29</ele>
        <time>2022-04-10T09:56:23.974Z</time>
      </trkpt>
      <trkpt lat="50.48454" lon="3.62164">
        <ele>29</ele>
        <time>2022-04-10T09:56:32.000Z</time>
      </trkpt>
      <trkpt lat="50.48289" lon="3.61749">
        <ele>26.4</ele>
        <time>2022-04-10T09:58:28.244Z</time>
      </trkpt>
      <trkpt lat="50.48099" lon="3.61274">
        <ele>26.1</ele>
        <time>2022-04-10T10:00:41.501Z</time>
      </trkpt>
      <trkpt lat="50.48244" lon="3.60864">
        <ele>28.7</ele>
        <time>2022-04-10T10:02:33.000Z</time>
      </trkpt>
      <trkpt lat="50.48248" lon="3.60856">
        <ele>28.7</ele>
        <time>2022-04-10T10:02:35.000Z</time>
      </trkpt>
      <trkpt lat="50.48251" lon="3.60848">
        <ele>28.6</ele>
        <time>2022-04-10T10:02:37.000Z</time>
      </trkpt>
      <trkpt lat="50.48255" lon="3.60841">
        <ele>28.4</ele>
        <time>2022-04-10T10:02:38.978Z</time>
      </trkpt>
      <trkpt lat="50.4826" lon="3.60831">
        <ele>28.4</ele>
        <time>2022-04-10T10:02:41.279Z</time>
      </trkpt>
      <trkpt lat="50.48264" lon="3.6082">
        <ele>28.7</ele>
        <time>2022-04-10T10:02:44.000Z</time>
      </trkpt>
      <trkpt lat="50.48266" lon="3.60812">
        <ele>28.9</ele>
        <time>2022-04-10T10:02:46.000Z</time>
      </trkpt>
      <trkpt lat="50.48268" lon="3.60803">
        <ele>29</ele>
        <time>2022-04-10T10:02:48.000Z</time>
      </trkpt>
      <trkpt lat="50.4827" lon="3.60795">
        <ele>29</ele>
        <time>2022-04-10T10:02:51.077Z</time>
      </trkpt>
      <trkpt lat="50.48273" lon="3.60789">
        <ele>29</ele>
        <time>2022-04-10T10:02:53.000Z</time>
      </trkpt>
      <trkpt lat="50.48275" lon="3.60779">
        <ele>29</ele>
        <time>2022-04-10T10:02:55.000Z</time>
      </trkpt>
      <trkpt lat="50.48278" lon="3.60772">
        <ele>29.2</ele>
        <time>2022-04-10T10:02:57.000Z</time>
      </trkpt>
      <trkpt lat="50.4828" lon="3.60765">
        <ele>29.4</ele>
        <time>2022-04-10T10:02:58.998Z</time>
      </trkpt>
      <trkpt lat="50.48285" lon="3.60753">
        <ele>29.7</ele>
        <time>2022-04-10T10:03:02.000Z</time>
      </trkpt>
      <trkpt lat="50.4829" lon="3.6074">
        <ele>29.7</ele>
        <time>2022-04-10T10:03:05.075Z</time>
      </trkpt>
      <trkpt lat="50.48293" lon="3.60731">
        <ele>29.8</ele>
        <time>2022-04-10T10:03:07.217Z</time>
      </trkpt>
      <trkpt lat="50.48299" lon="3.60721">
        <ele>30</ele>
        <time>2022-04-10T10:03:09.920Z</time>
      </trkpt>
      <trkpt lat="50.48302" lon="3.60715">
        <ele>30</ele>
        <time>2022-04-10T10:03:12.000Z</time>
      </trkpt>
      <trkpt lat="50.48297" lon="3.60715">
        <ele>30</ele>
        <time>2022-04-10T10:03:16.000Z</time>
      </trkpt>
      <trkpt lat="50.48302" lon="3.60712">
        <ele>30</ele>
        <time>2022-04-10T10:03:33.000Z</time>
      </trkpt>
      <trkpt lat="50.48305" lon="3.60707">
        <ele>30</ele>
        <time>2022-04-10T10:03:36.401Z</time>
      </trkpt>
      <trkpt lat="50.48309" lon="3.60696">
        <ele>29.9</ele>
        <time>2022-04-10T10:03:38.395Z</time>
      </trkpt>
      <trkpt lat="50.48311" lon="3.60688">
        <ele>29.8</ele>
        <time>2022-04-10T10:03:39.356Z</time>
      </trkpt>
      <trkpt lat="50.48316" lon="3.60675">
        <ele>29.6</ele>
        <time>2022-04-10T10:03:40.878Z</time>
      </trkpt>
      <trkpt lat="50.48318" lon="3.60668">
        <ele>29.6</ele>
        <time>2022-04-10T10:03:42.000Z</time>
      </trkpt>
      <trkpt lat="50.48322" lon="3.60659">
        <ele>29.6</ele>
        <time>2022-04-10T10:03:43.000Z</time>
      </trkpt>
      <trkpt lat="50.48328" lon="3.60642">
        <ele>29.9</ele>
        <time>2022-04-10T10:03:45.375Z</time>
      </trkpt>
      <trkpt lat="50.48333" lon="3.60625">
        <ele>30</ele>
        <time>2022-04-10T10:03:47.695Z</time>
      </trkpt>
      <trkpt lat="50.48335" lon="3.60615">
        <ele>29.9</ele>
        <time>2022-04-10T10:03:48.996Z</time>
      </trkpt>
      <trkpt lat="50.48338" lon="3.60607">
        <ele>29.9</ele>
        <time>2022-04-10T10:03:50.000Z</time>
      </trkpt>
      <trkpt lat="50.48343" lon="3.60595">
        <ele>29.9</ele>
        <time>2022-04-10T10:03:52.000Z</time>
      </trkpt>
      <trkpt lat="50.48346" lon="3.60587">
        <ele>29.9</ele>
        <time>2022-04-10T10:03:53.979Z</time>
      </trkpt>
      <trkpt lat="50.48348" lon="3.6058">
        <ele>30</ele>
        <time>2022-04-10T10:03:55.299Z</time>
      </trkpt>
      <trkpt lat="50.48351" lon="3.60572">
        <ele>30</ele>
        <time>2022-04-10T10:03:56.357Z</time>
      </trkpt>
      <trkpt lat="50.48354" lon="3.60564">
        <ele>30</ele>
        <time>2022-04-10T10:03:57.675Z</time>
      </trkpt>
      <trkpt lat="50.48358" lon="3.60553">
        <ele>30</ele>
        <time>2022-04-10T10:03:59.736Z</time>
      </trkpt>
      <trkpt lat="50.48361" lon="3.60546">
        <ele>30</ele>
        <time>2022-04-10T10:04:01.804Z</time>
      </trkpt>
      <trkpt lat="50.48364" lon="3.60538">
        <ele>30</ele>
        <time>2022-04-10T10:04:03.018Z</time>
      </trkpt>
      <trkpt lat="50.48369" lon="3.60525">
        <ele>30</ele>
        <time>2022-04-10T10:04:05.634Z</time>
      </trkpt>
      <trkpt lat="50.48372" lon="3.60516">
        <ele>30</ele>
        <time>2022-04-10T10:04:07.000Z</time>
      </trkpt>
      <trkpt lat="50.48374" lon="3.60509">
        <ele>30</ele>
        <time>2022-04-10T10:04:08.000Z</time>
      </trkpt>
      <trkpt lat="50.48376" lon="3.60502">
        <ele>30</ele>
        <time>2022-04-10T10:04:10.000Z</time>
      </trkpt>
      <trkpt lat="50.48378" lon="3.60494">
        <ele>30</ele>
        <time>2022-04-10T10:04:11.118Z</time>
      </trkpt>
      <trkpt lat="50.48384" lon="3.60478">
        <ele>30</ele>
        <time>2022-04-10T10:04:14.338Z</time>
      </trkpt>
      <trkpt lat="50.48387" lon="3.6047">
        <ele>30</ele>
        <time>2022-04-10T10:04:15.936Z</time>
      </trkpt>
      <trkpt lat="50.48391" lon="3.6046">
        <ele>30</ele>
        <time>2022-04-10T10:04:18.000Z</time>
      </trkpt>
      <trkpt lat="50.48394" lon="3.60452">
        <ele>30</ele>
        <time>2022-04-10T10:04:19.000Z</time>
      </trkpt>
      <trkpt lat="50.48397" lon="3.60442">
        <ele>30</ele>
        <time>2022-04-10T10:04:21.000Z</time>
      </trkpt>
      <trkpt lat="50.48399" lon="3.60433">
        <ele>30</ele>
        <time>2022-04-10T10:04:23.416Z</time>
      </trkpt>
      <trkpt lat="50.48404" lon="3.60421">
        <ele>30</ele>
        <time>2022-04-10T10:04:25.837Z</time>
      </trkpt>
      <trkpt lat="50.48406" lon="3.60414">
        <ele>30</ele>
        <time>2022-04-10T10:04:28.000Z</time>
      </trkpt>
      <trkpt lat="50.48409" lon="3.60408">
        <ele>30</ele>
        <time>2022-04-10T10:04:29.954Z</time>
      </trkpt>
      <trkpt lat="50.48413" lon="3.60398">
        <ele>30</ele>
        <time>2022-04-10T10:04:32.059Z</time>
      </trkpt>
      <trkpt lat="50.48417" lon="3.60387">
        <ele>30</ele>
        <time>2022-04-10T10:04:34.438Z</time>
      </trkpt>
      <trkpt lat="50.48419" lon="3.60379">
        <ele>30</ele>
        <time>2022-04-10T10:04:35.937Z</time>
      </trkpt>
      <trkpt lat="50.48423" lon="3.60369">
        <ele>30</ele>
        <time>2022-04-10T10:04:38.059Z</time>
      </trkpt>
      <trkpt lat="50.48426" lon="3.6036">
        <ele>30</ele>
        <time>2022-04-10T10:04:40.000Z</time>
      </trkpt>
      <trkpt lat="50.4843" lon="3.60351">
        <ele>30</ele>
        <time>2022-04-10T10:04:42.020Z</time>
      </trkpt>
      <trkpt lat="50.48435" lon="3.60339">
        <ele>30</ele>
        <time>2022-04-10T10:04:44.919Z</time>
      </trkpt>
      <trkpt lat="50.48438" lon="3.60329">
        <ele>30</ele>
        <time>2022-04-10T10:04:47.054Z</time>
      </trkpt>
      <trkpt lat="50.48442" lon="3.6032">
        <ele>30</ele>
        <time>2022-04-10T10:04:48.135Z</time>
      </trkpt>
      <trkpt lat="50.48447" lon="3.60312">
        <ele>30</ele>
        <time>2022-04-10T10:04:50.037Z</time>
      </trkpt>
      <trkpt lat="50.48451" lon="3.60302">
        <ele>30</ele>
        <time>2022-04-10T10:04:52.621Z</time>
      </trkpt>
      <trkpt lat="50.48455" lon="3.60293">
        <ele>30</ele>
        <time>2022-04-10T10:04:55.000Z</time>
      </trkpt>
      <trkpt lat="50.48456" lon="3.60285">
        <ele>30</ele>
        <time>2022-04-10T10:04:57.000Z</time>
      </trkpt>
      <trkpt lat="50.48457" lon="3.60276">
        <ele>30</ele>
        <time>2022-04-10T10:04:59.157Z</time>
      </trkpt>
      <trkpt lat="50.48456" lon="3.60263">
        <ele>30.3</ele>
        <time>2022-04-10T10:05:01.999Z</time>
      </trkpt>
      <trkpt lat="50.48461" lon="3.60257">
        <ele>30.3</ele>
        <time>2022-04-10T10:05:03.616Z</time>
      </trkpt>
      <trkpt lat="50.48466" lon="3.60255">
        <ele>30.2</ele>
        <time>2022-04-10T10:05:06.000Z</time>
      </trkpt>
      <trkpt lat="50.48471" lon="3.60256">
        <ele>30</ele>
        <time>2022-04-10T10:05:08.000Z</time>
      </trkpt>
      <trkpt lat="50.4847" lon="3.60242">
        <ele>30</ele>
        <time>2022-04-10T10:05:11.000Z</time>
      </trkpt>
      <trkpt lat="50.48466" lon="3.60232">
        <ele>30.1</ele>
        <time>2022-04-10T10:05:14.000Z</time>
      </trkpt>
      <trkpt lat="50.48469" lon="3.60225">
        <ele>30</ele>
        <time>2022-04-10T10:05:17.000Z</time>
      </trkpt>
      <trkpt lat="50.48466" lon="3.60231">
        <ele>30.1</ele>
        <time>2022-04-10T10:05:24.000Z</time>
      </trkpt>
      <trkpt lat="50.48461" lon="3.60223">
        <ele>30</ele>
        <time>2022-04-10T10:05:31.457Z</time>
      </trkpt>
      <trkpt lat="50.48459" lon="3.60216">
        <ele>30</ele>
        <time>2022-04-10T10:05:32.456Z</time>
      </trkpt>
      <trkpt lat="50.48456" lon="3.60207">
        <ele>30</ele>
        <time>2022-04-10T10:05:34.000Z</time>
      </trkpt>
      <trkpt lat="50.48455" lon="3.60198">
        <ele>30</ele>
        <time>2022-04-10T10:05:36.018Z</time>
      </trkpt>
      <trkpt lat="50.48453" lon="3.60187">
        <ele>30</ele>
        <time>2022-04-10T10:05:37.000Z</time>
      </trkpt>
      <trkpt lat="50.4845" lon="3.60178">
        <ele>30</ele>
        <time>2022-04-10T10:05:38.216Z</time>
      </trkpt>
      <trkpt lat="50.48448" lon="3.60168">
        <ele>30</ele>
        <time>2022-04-10T10:05:40.598Z</time>
      </trkpt>
      <trkpt lat="50.48446" lon="3.6016">
        <ele>30</ele>
        <time>2022-04-10T10:05:42.119Z</time>
      </trkpt>
      <trkpt lat="50.48445" lon="3.60153">
        <ele>30</ele>
        <time>2022-04-10T10:05:44.577Z</time>
      </trkpt>
      <trkpt lat="50.48442" lon="3.60143">
        <ele>30.1</ele>
        <time>2022-04-10T10:05:49.599Z</time>
      </trkpt>
      <trkpt lat="50.4844" lon="3.60135">
        <ele>30.3</ele>
        <time>2022-04-10T10:05:53.000Z</time>
      </trkpt>
      <trkpt lat="50.48437" lon="3.60128">
        <ele>30.6</ele>
        <time>2022-04-10T10:05:56.098Z</time>
      </trkpt>
      <trkpt lat="50.48437" lon="3.6012">
        <ele>30.8</ele>
        <time>2022-04-10T10:05:58.778Z</time>
      </trkpt>
      <trkpt lat="50.48436" lon="3.60113">
        <ele>31</ele>
        <time>2022-04-10T10:06:01.000Z</time>
      </trkpt>
      <trkpt lat="50.48434" lon="3.60101">
        <ele>31</ele>
        <time>2022-04-10T10:06:03.920Z</time>
      </trkpt>
      <trkpt lat="50.48432" lon="3.60093">
        <ele>31</ele>
        <time>2022-04-10T10:06:06.034Z</time>
      </trkpt>
      <trkpt lat="50.4843" lon="3.60086">
        <ele>31</ele>
        <time>2022-04-10T10:06:07.179Z</time>
      </trkpt>
      <trkpt lat="50.48428" lon="3.60078">
        <ele>31.1</ele>
        <time>2022-04-10T10:06:08.317Z</time>
      </trkpt>
      <trkpt lat="50.48427" lon="3.6007">
        <ele>31.3</ele>
        <time>2022-04-10T10:06:09.558Z</time>
      </trkpt>
      <trkpt lat="50.48426" lon="3.60061">
        <ele>31.6</ele>
        <time>2022-04-10T10:06:12.000Z</time>
      </trkpt>
      <trkpt lat="50.48425" lon="3.60051">
        <ele>31.8</ele>
        <time>2022-04-10T10:06:14.000Z</time>
      </trkpt>
      <trkpt lat="50.48423" lon="3.60042">
        <ele>31.9</ele>
        <time>2022-04-10T10:06:16.237Z</time>
      </trkpt>
      <trkpt lat="50.48422" lon="3.60033">
        <ele>32</ele>
        <time>2022-04-10T10:06:19.000Z</time>
      </trkpt>
      <trkpt lat="50.4842" lon="3.60023">
        <ele>32</ele>
        <time>2022-04-10T10:06:21.120Z</time>
      </trkpt>
      <trkpt lat="50.48418" lon="3.60012">
        <ele>32</ele>
        <time>2022-04-10T10:06:24.056Z</time>
      </trkpt>
      <trkpt lat="50.48415" lon="3.60005">
        <ele>32</ele>
        <time>2022-04-10T10:06:26.000Z</time>
      </trkpt>
      <trkpt lat="50.48411" lon="3.59993">
        <ele>32</ele>
        <time>2022-04-10T10:06:28.877Z</time>
      </trkpt>
      <trkpt lat="50.4841" lon="3.59985">
        <ele>32</ele>
        <time>2022-04-10T10:06:30.000Z</time>
      </trkpt>
      <trkpt lat="50.48407" lon="3.59977">
        <ele>32</ele>
        <time>2022-04-10T10:06:32.000Z</time>
      </trkpt>
      <trkpt lat="50.48405" lon="3.59968">
        <ele>32</ele>
        <time>2022-04-10T10:06:34.097Z</time>
      </trkpt>
      <trkpt lat="50.48404" lon="3.59957">
        <ele>32</ele>
        <time>2022-04-10T10:06:36.376Z</time>
      </trkpt>
      <trkpt lat="50.48401" lon="3.59944">
        <ele>32</ele>
        <time>2022-04-10T10:06:39.000Z</time>
      </trkpt>
      <trkpt lat="50.48399" lon="3.59936">
        <ele>32</ele>
        <time>2022-04-10T10:06:40.057Z</time>
      </trkpt>
      <trkpt lat="50.48397" lon="3.59923">
        <ele>32</ele>
        <time>2022-04-10T10:06:42.737Z</time>
      </trkpt>
      <trkpt lat="50.48396" lon="3.59913">
        <ele>32</ele>
        <time>2022-04-10T10:06:44.978Z</time>
      </trkpt>
      <trkpt lat="50.48394" lon="3.59901">
        <ele>32</ele>
        <time>2022-04-10T10:06:47.000Z</time>
      </trkpt>
      <trkpt lat="50.48393" lon="3.59888">
        <ele>32</ele>
        <time>2022-04-10T10:06:49.875Z</time>
      </trkpt>
      <trkpt lat="50.48391" lon="3.59881">
        <ele>32</ele>
        <time>2022-04-10T10:06:52.000Z</time>
      </trkpt>
      <trkpt lat="50.48389" lon="3.59874">
        <ele>32</ele>
        <time>2022-04-10T10:06:52.958Z</time>
      </trkpt>
      <trkpt lat="50.48386" lon="3.59861">
        <ele>32.1</ele>
        <time>2022-04-10T10:06:55.838Z</time>
      </trkpt>
      <trkpt lat="50.48385" lon="3.59852">
        <ele>32.2</ele>
        <time>2022-04-10T10:06:58.118Z</time>
      </trkpt>
      <trkpt lat="50.48383" lon="3.59843">
        <ele>32.2</ele>
        <time>2022-04-10T10:07:01.000Z</time>
      </trkpt>
      <trkpt lat="50.48381" lon="3.59835">
        <ele>32.3</ele>
        <time>2022-04-10T10:07:03.000Z</time>
      </trkpt>
      <trkpt lat="50.48381" lon="3.59822">
        <ele>32.6</ele>
        <time>2022-04-10T10:07:06.139Z</time>
      </trkpt>
      <trkpt lat="50.48378" lon="3.59815">
        <ele>32.8</ele>
        <time>2022-04-10T10:07:09.000Z</time>
      </trkpt>
      <trkpt lat="50.48375" lon="3.59809">
        <ele>32.9</ele>
        <time>2022-04-10T10:07:28.000Z</time>
      </trkpt>
      <trkpt lat="50.48374" lon="3.598">
        <ele>33</ele>
        <time>2022-04-10T10:07:30.297Z</time>
      </trkpt>
      <trkpt lat="50.48373" lon="3.59792">
        <ele>33</ele>
        <time>2022-04-10T10:07:33.000Z</time>
      </trkpt>
      <trkpt lat="50.48369" lon="3.59782">
        <ele>33</ele>
        <time>2022-04-10T10:07:35.000Z</time>
      </trkpt>
      <trkpt lat="50.48369" lon="3.59773">
        <ele>33</ele>
        <time>2022-04-10T10:07:37.000Z</time>
      </trkpt>
      <trkpt lat="50.48368" lon="3.59765">
        <ele>33</ele>
        <time>2022-04-10T10:07:39.000Z</time>
      </trkpt>
      <trkpt lat="50.48368" lon="3.59758">
        <ele>33</ele>
        <time>2022-04-10T10:07:41.000Z</time>
      </trkpt>
      <trkpt lat="50.48365" lon="3.59751">
        <ele>33</ele>
        <time>2022-04-10T10:07:44.000Z</time>
      </trkpt>
      <trkpt lat="50.48362" lon="3.59744">
        <ele>33.2</ele>
        <time>2022-04-10T10:08:43.000Z</time>
      </trkpt>
      <trkpt lat="50.4836" lon="3.59737">
        <ele>33.5</ele>
        <time>2022-04-10T10:08:47.000Z</time>
      </trkpt>
      <trkpt lat="50.48358" lon="3.59727">
        <ele>33.8</ele>
        <time>2022-04-10T10:08:50.000Z</time>
      </trkpt>
      <trkpt lat="50.48357" lon="3.5972">
        <ele>34</ele>
        <time>2022-04-10T10:08:52.000Z</time>
      </trkpt>
      <trkpt lat="50.48355" lon="3.59712">
        <ele>34</ele>
        <time>2022-04-10T10:08:54.059Z</time>
      </trkpt>
      <trkpt lat="50.48353" lon="3.59705">
        <ele>34</ele>
        <time>2022-04-10T10:08:56.000Z</time>
      </trkpt>
      <trkpt lat="50.48352" lon="3.59696">
        <ele>34</ele>
        <time>2022-04-10T10:08:59.000Z</time>
      </trkpt>
      <trkpt lat="50.48352" lon="3.59686">
        <ele>34</ele>
        <time>2022-04-10T10:09:02.000Z</time>
      </trkpt>
      <trkpt lat="50.48352" lon="3.59679">
        <ele>34</ele>
        <time>2022-04-10T10:09:04.000Z</time>
      </trkpt>
      <trkpt lat="50.48351" lon="3.59672">
        <ele>34</ele>
        <time>2022-04-10T10:09:06.000Z</time>
      </trkpt>
      <trkpt lat="50.4835" lon="3.59663">
        <ele>34</ele>
        <time>2022-04-10T10:09:08.000Z</time>
      </trkpt>
      <trkpt lat="50.48349" lon="3.59652">
        <ele>34</ele>
        <time>2022-04-10T10:09:10.000Z</time>
      </trkpt>
      <trkpt lat="50.48347" lon="3.59641">
        <ele>34</ele>
        <time>2022-04-10T10:09:12.000Z</time>
      </trkpt>
      <trkpt lat="50.48346" lon="3.59628">
        <ele>34.2</ele>
        <time>2022-04-10T10:09:14.000Z</time>
      </trkpt>
      <trkpt lat="50.48346" lon="3.59618">
        <ele>34.4</ele>
        <time>2022-04-10T10:09:15.956Z</time>
      </trkpt>
      <trkpt lat="50.48345" lon="3.59609">
        <ele>34.6</ele>
        <time>2022-04-10T10:09:18.000Z</time>
      </trkpt>
      <trkpt lat="50.48344" lon="3.596">
        <ele>34.8</ele>
        <time>2022-04-10T10:09:20.000Z</time>
      </trkpt>
      <trkpt lat="50.48343" lon="3.59592">
        <ele>34.9</ele>
        <time>2022-04-10T10:09:22.000Z</time>
      </trkpt>
      <trkpt lat="50.48342" lon="3.59583">
        <ele>35</ele>
        <time>2022-04-10T10:09:24.018Z</time>
      </trkpt>
      <trkpt lat="50.48342" lon="3.59573">
        <ele>35</ele>
        <time>2022-04-10T10:09:26.336Z</time>
      </trkpt>
      <trkpt lat="50.48341" lon="3.59566">
        <ele>35</ele>
        <time>2022-04-10T10:09:28.015Z</time>
      </trkpt>
      <trkpt lat="50.48341" lon="3.59557">
        <ele>35</ele>
        <time>2022-04-10T10:09:30.000Z</time>
      </trkpt>
      <trkpt lat="50.48341" lon="3.59547">
        <ele>35.2</ele>
        <time>2022-04-10T10:09:32.138Z</time>
      </trkpt>
      <trkpt lat="50.48341" lon="3.59539">
        <ele>35.4</ele>
        <time>2022-04-10T10:09:33.657Z</time>
      </trkpt>
      <trkpt lat="50.4834" lon="3.59527">
        <ele>35.8</ele>
        <time>2022-04-10T10:09:35.995Z</time>
      </trkpt>
      <trkpt lat="50.48339" lon="3.59517">
        <ele>35.8</ele>
        <time>2022-04-10T10:09:38.000Z</time>
      </trkpt>
      <trkpt lat="50.48337" lon="3.59507">
        <ele>35.9</ele>
        <time>2022-04-10T10:09:40.000Z</time>
      </trkpt>
      <trkpt lat="50.48337" lon="3.59497">
        <ele>35.9</ele>
        <time>2022-04-10T10:09:41.996Z</time>
      </trkpt>
      <trkpt lat="50.48335" lon="3.59487">
        <ele>36</ele>
        <time>2022-04-10T10:09:44.000Z</time>
      </trkpt>
      <trkpt lat="50.48332" lon="3.59475">
        <ele>36</ele>
        <time>2022-04-10T10:09:47.000Z</time>
      </trkpt>
      <trkpt lat="50.48332" lon="3.59465">
        <ele>36.3</ele>
        <time>2022-04-10T10:09:49.000Z</time>
      </trkpt>
      <trkpt lat="50.48331" lon="3.59455">
        <ele>36.6</ele>
        <time>2022-04-10T10:09:51.000Z</time>
      </trkpt>
      <trkpt lat="50.4833" lon="3.59445">
        <ele>37</ele>
        <time>2022-04-10T10:09:53.000Z</time>
      </trkpt>
      <trkpt lat="50.48331" lon="3.59436">
        <ele>37</ele>
        <time>2022-04-10T10:09:55.000Z</time>
      </trkpt>
      <trkpt lat="50.48333" lon="3.59426">
        <ele>37</ele>
        <time>2022-04-10T10:09:57.000Z</time>
      </trkpt>
      <trkpt lat="50.48335" lon="3.59415">
        <ele>36.9</ele>
        <time>2022-04-10T10:09:59.000Z</time>
      </trkpt>
      <trkpt lat="50.48337" lon="3.59405">
        <ele>36.9</ele>
        <time>2022-04-10T10:10:01.099Z</time>
      </trkpt>
      <trkpt lat="50.4834" lon="3.59395">
        <ele>36.7</ele>
        <time>2022-04-10T10:10:03.000Z</time>
      </trkpt>
      <trkpt lat="50.48343" lon="3.59387">
        <ele>36.7</ele>
        <time>2022-04-10T10:10:05.000Z</time>
      </trkpt>
      <trkpt lat="50.48345" lon="3.59378">
        <ele>36.7</ele>
        <time>2022-04-10T10:10:07.000Z</time>
      </trkpt>
      <trkpt lat="50.48348" lon="3.59368">
        <ele>36.9</ele>
        <time>2022-04-10T10:10:09.000Z</time>
      </trkpt>
      <trkpt lat="50.4835" lon="3.59358">
        <ele>37</ele>
        <time>2022-04-10T10:10:11.000Z</time>
      </trkpt>
      <trkpt lat="50.48353" lon="3.59349">
        <ele>37.1</ele>
        <time>2022-04-10T10:10:13.000Z</time>
      </trkpt>
      <trkpt lat="50.48355" lon="3.59339">
        <ele>37.2</ele>
        <time>2022-04-10T10:10:15.080Z</time>
      </trkpt>
      <trkpt lat="50.48358" lon="3.59329">
        <ele>37.3</ele>
        <time>2022-04-10T10:10:17.020Z</time>
      </trkpt>
      <trkpt lat="50.4836" lon="3.59319">
        <ele>37.5</ele>
        <time>2022-04-10T10:10:19.034Z</time>
      </trkpt>
      <trkpt lat="50.48363" lon="3.59308">
        <ele>37.9</ele>
        <time>2022-04-10T10:10:21.000Z</time>
      </trkpt>
      <trkpt lat="50.48365" lon="3.59297">
        <ele>37.9</ele>
        <time>2022-04-10T10:10:23.000Z</time>
      </trkpt>
      <trkpt lat="50.48368" lon="3.59285">
        <ele>37.8</ele>
        <time>2022-04-10T10:10:25.000Z</time>
      </trkpt>
      <trkpt lat="50.48371" lon="3.59274">
        <ele>37.7</ele>
        <time>2022-04-10T10:10:27.000Z</time>
      </trkpt>
      <trkpt lat="50.48373" lon="3.59262">
        <ele>37.8</ele>
        <time>2022-04-10T10:10:29.077Z</time>
      </trkpt>
      <trkpt lat="50.48376" lon="3.5925">
        <ele>38</ele>
        <time>2022-04-10T10:10:31.000Z</time>
      </trkpt>
      <trkpt lat="50.4838" lon="3.59235">
        <ele>38</ele>
        <time>2022-04-10T10:10:34.000Z</time>
      </trkpt>
      <trkpt lat="50.48382" lon="3.59229">
        <ele>38</ele>
        <time>2022-04-10T10:10:36.000Z</time>
      </trkpt>
      <trkpt lat="50.48378" lon="3.59235">
        <ele>38</ele>
        <time>2022-04-10T10:10:42.598Z</time>
      </trkpt>
      <trkpt lat="50.48379" lon="3.59242">
        <ele>38</ele>
        <time>2022-04-10T10:10:45.080Z</time>
      </trkpt>
      <trkpt lat="50.48377" lon="3.5925">
        <ele>38</ele>
        <time>2022-04-10T10:10:47.000Z</time>
      </trkpt>
      <trkpt lat="50.48375" lon="3.59258">
        <ele>37.9</ele>
        <time>2022-04-10T10:10:49.000Z</time>
      </trkpt>
      <trkpt lat="50.48373" lon="3.59269">
        <ele>37.7</ele>
        <time>2022-04-10T10:10:51.000Z</time>
      </trkpt>
      <trkpt lat="50.4837" lon="3.59277">
        <ele>37.7</ele>
        <time>2022-04-10T10:10:52.000Z</time>
      </trkpt>
      <trkpt lat="50.48369" lon="3.59283">
        <ele>37.7</ele>
        <time>2022-04-10T10:10:53.000Z</time>
      </trkpt>
      <trkpt lat="50.48366" lon="3.59292">
        <ele>37.8</ele>
        <time>2022-04-10T10:10:54.000Z</time>
      </trkpt>
      <trkpt lat="50.48364" lon="3.59299">
        <ele>37.9</ele>
        <time>2022-04-10T10:10:54.979Z</time>
      </trkpt>
      <trkpt lat="50.48359" lon="3.59307">
        <ele>37.9</ele>
        <time>2022-04-10T10:10:56.118Z</time>
      </trkpt>
      <trkpt lat="50.48354" lon="3.59313">
        <ele>37.8</ele>
        <time>2022-04-10T10:10:57.115Z</time>
      </trkpt>
      <trkpt lat="50.48346" lon="3.59317">
        <ele>37.8</ele>
        <time>2022-04-10T10:10:58.898Z</time>
      </trkpt>
      <trkpt lat="50.48341" lon="3.59316">
        <ele>37.9</ele>
        <time>2022-04-10T10:11:00.038Z</time>
      </trkpt>
      <trkpt lat="50.48335" lon="3.59312">
        <ele>38</ele>
        <time>2022-04-10T10:11:01.694Z</time>
      </trkpt>
      <trkpt lat="50.4833" lon="3.59309">
        <ele>38</ele>
        <time>2022-04-10T10:11:02.939Z</time>
      </trkpt>
      <trkpt lat="50.48325" lon="3.59305">
        <ele>38</ele>
        <time>2022-04-10T10:11:04.000Z</time>
      </trkpt>
      <trkpt lat="50.48321" lon="3.59301">
        <ele>38.1</ele>
        <time>2022-04-10T10:11:05.000Z</time>
      </trkpt>
      <trkpt lat="50.48313" lon="3.59296">
        <ele>38.3</ele>
        <time>2022-04-10T10:11:07.000Z</time>
      </trkpt>
      <trkpt lat="50.48306" lon="3.59291">
        <ele>38.5</ele>
        <time>2022-04-10T10:11:09.000Z</time>
      </trkpt>
      <trkpt lat="50.48299" lon="3.59288">
        <ele>38.6</ele>
        <time>2022-04-10T10:11:11.102Z</time>
      </trkpt>
      <trkpt lat="50.48293" lon="3.59284">
        <ele>38.8</ele>
        <time>2022-04-10T10:11:13.000Z</time>
      </trkpt>
      <trkpt lat="50.48287" lon="3.5928">
        <ele>38.9</ele>
        <time>2022-04-10T10:11:15.157Z</time>
      </trkpt>
      <trkpt lat="50.48282" lon="3.59278">
        <ele>39</ele>
        <time>2022-04-10T10:11:16.976Z</time>
      </trkpt>
      <trkpt lat="50.48276" lon="3.59273">
        <ele>39</ele>
        <time>2022-04-10T10:11:19.037Z</time>
      </trkpt>
      <trkpt lat="50.48269" lon="3.59268">
        <ele>39</ele>
        <time>2022-04-10T10:11:21.000Z</time>
      </trkpt>
      <trkpt lat="50.48262" lon="3.59263">
        <ele>39</ele>
        <time>2022-04-10T10:11:23.000Z</time>
      </trkpt>
      <trkpt lat="50.48252" lon="3.59256">
        <ele>39</ele>
        <time>2022-04-10T10:11:25.738Z</time>
      </trkpt>
      <trkpt lat="50.48248" lon="3.59252">
        <ele>39</ele>
        <time>2022-04-10T10:11:26.919Z</time>
      </trkpt>
      <trkpt lat="50.4824" lon="3.59246">
        <ele>39</ele>
        <time>2022-04-10T10:11:29.155Z</time>
      </trkpt>
      <trkpt lat="50.48236" lon="3.59243">
        <ele>39</ele>
        <time>2022-04-10T10:11:30.356Z</time>
      </trkpt>
      <trkpt lat="50.48231" lon="3.59238">
        <ele>39</ele>
        <time>2022-04-10T10:11:31.898Z</time>
      </trkpt>
      <trkpt lat="50.48224" lon="3.59233">
        <ele>39</ele>
        <time>2022-04-10T10:11:34.000Z</time>
      </trkpt>
      <trkpt lat="50.48218" lon="3.59227">
        <ele>39</ele>
        <time>2022-04-10T10:11:36.000Z</time>
      </trkpt>
      <trkpt lat="50.48211" lon="3.59221">
        <ele>39</ele>
        <time>2022-04-10T10:11:38.600Z</time>
      </trkpt>
      <trkpt lat="50.48203" lon="3.59215">
        <ele>39</ele>
        <time>2022-04-10T10:11:41.000Z</time>
      </trkpt>
      <trkpt lat="50.48197" lon="3.59209">
        <ele>39</ele>
        <time>2022-04-10T10:11:43.000Z</time>
      </trkpt>
      <trkpt lat="50.4819" lon="3.59204">
        <ele>39</ele>
        <time>2022-04-10T10:11:45.000Z</time>
      </trkpt>
      <trkpt lat="50.48183" lon="3.592">
        <ele>39</ele>
        <time>2022-04-10T10:11:47.000Z</time>
      </trkpt>
      <trkpt lat="50.48177" lon="3.59195">
        <ele>39</ele>
        <time>2022-04-10T10:11:48.959Z</time>
      </trkpt>
      <trkpt lat="50.4817" lon="3.59189">
        <ele>39</ele>
        <time>2022-04-10T10:11:51.000Z</time>
      </trkpt>
      <trkpt lat="50.48162" lon="3.59184">
        <ele>39</ele>
        <time>2022-04-10T10:11:53.000Z</time>
      </trkpt>
      <trkpt lat="50.48155" lon="3.59179">
        <ele>39</ele>
        <time>2022-04-10T10:11:55.000Z</time>
      </trkpt>
      <trkpt lat="50.48145" lon="3.59171">
        <ele>39</ele>
        <time>2022-04-10T10:11:57.798Z</time>
      </trkpt>
      <trkpt lat="50.48141" lon="3.59167">
        <ele>39</ele>
        <time>2022-04-10T10:11:58.917Z</time>
      </trkpt>
      <trkpt lat="50.48134" lon="3.59161">
        <ele>39</ele>
        <time>2022-04-10T10:12:01.000Z</time>
      </trkpt>
      <trkpt lat="50.48127" lon="3.59154">
        <ele>38.8</ele>
        <time>2022-04-10T10:12:03.000Z</time>
      </trkpt>
      <trkpt lat="50.4812" lon="3.59145">
        <ele>38.5</ele>
        <time>2022-04-10T10:12:05.000Z</time>
      </trkpt>
      <trkpt lat="50.48114" lon="3.59135">
        <ele>38.2</ele>
        <time>2022-04-10T10:12:07.000Z</time>
      </trkpt>
      <trkpt lat="50.4811" lon="3.5913">
        <ele>38.3</ele>
        <time>2022-04-10T10:12:07.938Z</time>
      </trkpt>
      <trkpt lat="50.48105" lon="3.59126">
        <ele>38.3</ele>
        <time>2022-04-10T10:12:08.998Z</time>
      </trkpt>
      <trkpt lat="50.48098" lon="3.5912">
        <ele>38.2</ele>
        <time>2022-04-10T10:12:10.000Z</time>
      </trkpt>
      <trkpt lat="50.48093" lon="3.59117">
        <ele>38.2</ele>
        <time>2022-04-10T10:12:11.000Z</time>
      </trkpt>
      <trkpt lat="50.48088" lon="3.59113">
        <ele>38.1</ele>
        <time>2022-04-10T10:12:12.000Z</time>
      </trkpt>
      <trkpt lat="50.48084" lon="3.59111">
        <ele>38</ele>
        <time>2022-04-10T10:12:13.000Z</time>
      </trkpt>
      <trkpt lat="50.48079" lon="3.5911">
        <ele>37.9</ele>
        <time>2022-04-10T10:12:14.000Z</time>
      </trkpt>
      <trkpt lat="50.48075" lon="3.59107">
        <ele>37.7</ele>
        <time>2022-04-10T10:12:15.000Z</time>
      </trkpt>
      <trkpt lat="50.4807" lon="3.59104">
        <ele>37.6</ele>
        <time>2022-04-10T10:12:16.000Z</time>
      </trkpt>
      <trkpt lat="50.48065" lon="3.59101">
        <ele>37.6</ele>
        <time>2022-04-10T10:12:17.000Z</time>
      </trkpt>
      <trkpt lat="50.4806" lon="3.59098">
        <ele>37.6</ele>
        <time>2022-04-10T10:12:18.000Z</time>
      </trkpt>
      <trkpt lat="50.48054" lon="3.59095">
        <ele>37.6</ele>
        <time>2022-04-10T10:12:19.000Z</time>
      </trkpt>
      <trkpt lat="50.48049" lon="3.59091">
        <ele>37.8</ele>
        <time>2022-04-10T10:12:20.000Z</time>
      </trkpt>
      <trkpt lat="50.48045" lon="3.59088">
        <ele>37.9</ele>
        <time>2022-04-10T10:12:21.000Z</time>
      </trkpt>
      <trkpt lat="50.4804" lon="3.59085">
        <ele>38</ele>
        <time>2022-04-10T10:12:22.000Z</time>
      </trkpt>
      <trkpt lat="50.48035" lon="3.59082">
        <ele>38</ele>
        <time>2022-04-10T10:12:23.000Z</time>
      </trkpt>
      <trkpt lat="50.4803" lon="3.59078">
        <ele>38</ele>
        <time>2022-04-10T10:12:24.000Z</time>
      </trkpt>
      <trkpt lat="50.48026" lon="3.59075">
        <ele>38</ele>
        <time>2022-04-10T10:12:25.000Z</time>
      </trkpt>
      <trkpt lat="50.48021" lon="3.59071">
        <ele>38</ele>
        <time>2022-04-10T10:12:26.000Z</time>
      </trkpt>
      <trkpt lat="50.48016" lon="3.59068">
        <ele>38</ele>
        <time>2022-04-10T10:12:27.000Z</time>
      </trkpt>
      <trkpt lat="50.48011" lon="3.59065">
        <ele>38</ele>
        <time>2022-04-10T10:12:28.000Z</time>
      </trkpt>
      <trkpt lat="50.48007" lon="3.59061">
        <ele>38</ele>
        <time>2022-04-10T10:12:29.000Z</time>
      </trkpt>
      <trkpt lat="50.48002" lon="3.59057">
        <ele>38</ele>
        <time>2022-04-10T10:12:30.000Z</time>
      </trkpt>
      <trkpt lat="50.47998" lon="3.59054">
        <ele>37.9</ele>
        <time>2022-04-10T10:12:31.000Z</time>
      </trkpt>
      <trkpt lat="50.47993" lon="3.5905">
        <ele>37.8</ele>
        <time>2022-04-10T10:12:32.000Z</time>
      </trkpt>
      <trkpt lat="50.47989" lon="3.59046">
        <ele>37.6</ele>
        <time>2022-04-10T10:12:33.000Z</time>
      </trkpt>
      <trkpt lat="50.47984" lon="3.59042">
        <ele>37.4</ele>
        <time>2022-04-10T10:12:34.000Z</time>
      </trkpt>
      <trkpt lat="50.47979" lon="3.59037">
        <ele>37.3</ele>
        <time>2022-04-10T10:12:35.000Z</time>
      </trkpt>
      <trkpt lat="50.47975" lon="3.59034">
        <ele>37.1</ele>
        <time>2022-04-10T10:12:36.000Z</time>
      </trkpt>
      <trkpt lat="50.47968" lon="3.59028">
        <ele>37</ele>
        <time>2022-04-10T10:12:37.000Z</time>
      </trkpt>
      <trkpt lat="50.47963" lon="3.59024">
        <ele>37</ele>
        <time>2022-04-10T10:12:38.000Z</time>
      </trkpt>
      <trkpt lat="50.47955" lon="3.59019">
        <ele>37</ele>
        <time>2022-04-10T10:12:40.000Z</time>
      </trkpt>
      <trkpt lat="50.47947" lon="3.59014">
        <ele>37</ele>
        <time>2022-04-10T10:12:42.000Z</time>
      </trkpt>
      <trkpt lat="50.47942" lon="3.5901">
        <ele>37</ele>
        <time>2022-04-10T10:12:43.000Z</time>
      </trkpt>
      <trkpt lat="50.47937" lon="3.59007">
        <ele>37</ele>
        <time>2022-04-10T10:12:44.000Z</time>
      </trkpt>
      <trkpt lat="50.47931" lon="3.59002">
        <ele>37</ele>
        <time>2022-04-10T10:12:45.000Z</time>
      </trkpt>
      <trkpt lat="50.47923" lon="3.58996">
        <ele>37</ele>
        <time>2022-04-10T10:12:47.000Z</time>
      </trkpt>
      <trkpt lat="50.47917" lon="3.5899">
        <ele>37</ele>
        <time>2022-04-10T10:12:48.000Z</time>
      </trkpt>
      <trkpt lat="50.47912" lon="3.58986">
        <ele>36.8</ele>
        <time>2022-04-10T10:12:49.000Z</time>
      </trkpt>
      <trkpt lat="50.47908" lon="3.58982">
        <ele>36.7</ele>
        <time>2022-04-10T10:12:50.000Z</time>
      </trkpt>
      <trkpt lat="50.479" lon="3.58976">
        <ele>36.4</ele>
        <time>2022-04-10T10:12:52.000Z</time>
      </trkpt>
      <trkpt lat="50.47894" lon="3.58971">
        <ele>36.2</ele>
        <time>2022-04-10T10:12:53.000Z</time>
      </trkpt>
      <trkpt lat="50.47885" lon="3.58963">
        <ele>36</ele>
        <time>2022-04-10T10:12:55.000Z</time>
      </trkpt>
      <trkpt lat="50.4788" lon="3.5896">
        <ele>36</ele>
        <time>2022-04-10T10:12:56.000Z</time>
      </trkpt>
      <trkpt lat="50.47875" lon="3.58957">
        <ele>36</ele>
        <time>2022-04-10T10:12:57.000Z</time>
      </trkpt>
      <trkpt lat="50.47867" lon="3.58951">
        <ele>36</ele>
        <time>2022-04-10T10:12:59.000Z</time>
      </trkpt>
      <trkpt lat="50.47862" lon="3.58948">
        <ele>36</ele>
        <time>2022-04-10T10:13:00.000Z</time>
      </trkpt>
      <trkpt lat="50.47856" lon="3.58943">
        <ele>35.7</ele>
        <time>2022-04-10T10:13:01.000Z</time>
      </trkpt>
      <trkpt lat="50.47847" lon="3.58936">
        <ele>35.4</ele>
        <time>2022-04-10T10:13:03.000Z</time>
      </trkpt>
      <trkpt lat="50.47841" lon="3.5893">
        <ele>35.1</ele>
        <time>2022-04-10T10:13:04.000Z</time>
      </trkpt>
      <trkpt lat="50.47831" lon="3.58922">
        <ele>34.9</ele>
        <time>2022-04-10T10:13:06.000Z</time>
      </trkpt>
      <trkpt lat="50.47826" lon="3.58918">
        <ele>34.7</ele>
        <time>2022-04-10T10:13:07.000Z</time>
      </trkpt>
      <trkpt lat="50.47822" lon="3.58915">
        <ele>34.6</ele>
        <time>2022-04-10T10:13:08.000Z</time>
      </trkpt>
      <trkpt lat="50.47814" lon="3.5891">
        <ele>34.4</ele>
        <time>2022-04-10T10:13:10.000Z</time>
      </trkpt>
      <trkpt lat="50.47807" lon="3.58904">
        <ele>34.1</ele>
        <time>2022-04-10T10:13:11.000Z</time>
      </trkpt>
      <trkpt lat="50.47799" lon="3.58898">
        <ele>34</ele>
        <time>2022-04-10T10:13:13.000Z</time>
      </trkpt>
      <trkpt lat="50.47792" lon="3.58893">
        <ele>34</ele>
        <time>2022-04-10T10:13:14.000Z</time>
      </trkpt>
      <trkpt lat="50.47784" lon="3.58887">
        <ele>34</ele>
        <time>2022-04-10T10:13:16.000Z</time>
      </trkpt>
      <trkpt lat="50.47779" lon="3.58882">
        <ele>34</ele>
        <time>2022-04-10T10:13:17.000Z</time>
      </trkpt>
      <trkpt lat="50.47784" lon="3.58885">
        <ele>34</ele>
        <time>2022-04-10T10:13:26.000Z</time>
      </trkpt>
      <trkpt lat="50.47789" lon="3.58887">
        <ele>34</ele>
        <time>2022-04-10T10:13:28.164Z</time>
      </trkpt>
      <trkpt lat="50.47793" lon="3.58892">
        <ele>34</ele>
        <time>2022-04-10T10:13:30.627Z</time>
      </trkpt>
      <trkpt lat="50.47798" lon="3.58885">
        <ele>34</ele>
        <time>2022-04-10T10:13:34.027Z</time>
      </trkpt>
      <trkpt lat="50.47802" lon="3.58874">
        <ele>34</ele>
        <time>2022-04-10T10:13:37.000Z</time>
      </trkpt>
      <trkpt lat="50.47804" lon="3.58864">
        <ele>34</ele>
        <time>2022-04-10T10:13:39.125Z</time>
      </trkpt>
      <trkpt lat="50.47807" lon="3.5885">
        <ele>34.1</ele>
        <time>2022-04-10T10:13:42.007Z</time>
      </trkpt>
      <trkpt lat="50.47809" lon="3.58838">
        <ele>34.2</ele>
        <time>2022-04-10T10:13:44.000Z</time>
      </trkpt>
      <trkpt lat="50.47811" lon="3.58831">
        <ele>34.4</ele>
        <time>2022-04-10T10:13:46.044Z</time>
      </trkpt>
      <trkpt lat="50.47815" lon="3.58821">
        <ele>34.7</ele>
        <time>2022-04-10T10:13:48.987Z</time>
      </trkpt>
      <trkpt lat="50.47818" lon="3.58807">
        <ele>34.9</ele>
        <time>2022-04-10T10:13:52.393Z</time>
      </trkpt>
      <trkpt lat="50.47822" lon="3.58797">
        <ele>35.2</ele>
        <time>2022-04-10T10:13:55.000Z</time>
      </trkpt>
      <trkpt lat="50.47824" lon="3.58788">
        <ele>35.4</ele>
        <time>2022-04-10T10:13:56.986Z</time>
      </trkpt>
      <trkpt lat="50.47827" lon="3.58776">
        <ele>35.6</ele>
        <time>2022-04-10T10:13:59.305Z</time>
      </trkpt>
      <trkpt lat="50.47831" lon="3.58764">
        <ele>35.8</ele>
        <time>2022-04-10T10:14:02.000Z</time>
      </trkpt>
      <trkpt lat="50.47834" lon="3.58754">
        <ele>36</ele>
        <time>2022-04-10T10:14:03.986Z</time>
      </trkpt>
      <trkpt lat="50.47836" lon="3.58741">
        <ele>36</ele>
        <time>2022-04-10T10:14:06.786Z</time>
      </trkpt>
      <trkpt lat="50.47839" lon="3.58733">
        <ele>36.1</ele>
        <time>2022-04-10T10:14:09.000Z</time>
      </trkpt>
      <trkpt lat="50.47839" lon="3.58723">
        <ele>36.2</ele>
        <time>2022-04-10T10:14:20.108Z</time>
      </trkpt>
      <trkpt lat="50.47841" lon="3.58712">
        <ele>36.3</ele>
        <time>2022-04-10T10:14:23.000Z</time>
      </trkpt>
      <trkpt lat="50.47842" lon="3.58704">
        <ele>36.3</ele>
        <time>2022-04-10T10:14:24.000Z</time>
      </trkpt>
      <trkpt lat="50.47845" lon="3.58694">
        <ele>36.4</ele>
        <time>2022-04-10T10:14:26.066Z</time>
      </trkpt>
      <trkpt lat="50.47848" lon="3.58679">
        <ele>36.5</ele>
        <time>2022-04-10T10:14:28.663Z</time>
      </trkpt>
      <trkpt lat="50.47852" lon="3.58669">
        <ele>36.7</ele>
        <time>2022-04-10T10:14:30.945Z</time>
      </trkpt>
      <trkpt lat="50.47856" lon="3.58658">
        <ele>36.8</ele>
        <time>2022-04-10T10:14:33.988Z</time>
      </trkpt>
      <trkpt lat="50.47858" lon="3.58649">
        <ele>36.9</ele>
        <time>2022-04-10T10:14:36.264Z</time>
      </trkpt>
      <trkpt lat="50.4786" lon="3.5864">
        <ele>36.9</ele>
        <time>2022-04-10T10:14:38.045Z</time>
      </trkpt>
      <trkpt lat="50.47863" lon="3.58628">
        <ele>37</ele>
        <time>2022-04-10T10:14:40.787Z</time>
      </trkpt>
      <trkpt lat="50.47863" lon="3.5862">
        <ele>37</ele>
        <time>2022-04-10T10:14:43.000Z</time>
      </trkpt>
      <trkpt lat="50.47867" lon="3.58613">
        <ele>37</ele>
        <time>2022-04-10T10:14:46.000Z</time>
      </trkpt>
      <trkpt lat="50.47862" lon="3.58613">
        <ele>37</ele>
        <time>2022-04-10T10:14:51.000Z</time>
      </trkpt>
      <trkpt lat="50.47863" lon="3.58605">
        <ele>37</ele>
        <time>2022-04-10T10:15:02.000Z</time>
      </trkpt>
      <trkpt lat="50.47867" lon="3.58597">
        <ele>37</ele>
        <time>2022-04-10T10:15:04.267Z</time>
      </trkpt>
      <trkpt lat="50.4787" lon="3.58587">
        <ele>37</ele>
        <time>2022-04-10T10:15:07.000Z</time>
      </trkpt>
      <trkpt lat="50.47874" lon="3.58576">
        <ele>37</ele>
        <time>2022-04-10T10:15:10.044Z</time>
      </trkpt>
      <trkpt lat="50.47878" lon="3.58563">
        <ele>37</ele>
        <time>2022-04-10T10:15:13.226Z</time>
      </trkpt>
      <trkpt lat="50.47881" lon="3.58556">
        <ele>37</ele>
        <time>2022-04-10T10:15:15.027Z</time>
      </trkpt>
      <trkpt lat="50.47884" lon="3.58543">
        <ele>37</ele>
        <time>2022-04-10T10:15:17.645Z</time>
      </trkpt>
      <trkpt lat="50.47886" lon="3.58534">
        <ele>37</ele>
        <time>2022-04-10T10:15:19.648Z</time>
      </trkpt>
      <trkpt lat="50.47888" lon="3.58525">
        <ele>37</ele>
        <time>2022-04-10T10:15:21.845Z</time>
      </trkpt>
      <trkpt lat="50.47889" lon="3.58514">
        <ele>37</ele>
        <time>2022-04-10T10:15:23.727Z</time>
      </trkpt>
      <trkpt lat="50.47891" lon="3.58507">
        <ele>37.1</ele>
        <time>2022-04-10T10:15:25.004Z</time>
      </trkpt>
      <trkpt lat="50.47896" lon="3.58492">
        <ele>37.5</ele>
        <time>2022-04-10T10:15:28.000Z</time>
      </trkpt>
      <trkpt lat="50.47898" lon="3.58483">
        <ele>37.7</ele>
        <time>2022-04-10T10:15:30.665Z</time>
      </trkpt>
      <trkpt lat="50.479" lon="3.58471">
        <ele>38</ele>
        <time>2022-04-10T10:15:33.006Z</time>
      </trkpt>
      <trkpt lat="50.47903" lon="3.58463">
        <ele>37.8</ele>
        <time>2022-04-10T10:15:35.862Z</time>
      </trkpt>
      <trkpt lat="50.47905" lon="3.58456">
        <ele>37.7</ele>
        <time>2022-04-10T10:15:38.067Z</time>
      </trkpt>
      <trkpt lat="50.47906" lon="3.58448">
        <ele>37.7</ele>
        <time>2022-04-10T10:15:39.944Z</time>
      </trkpt>
      <trkpt lat="50.47909" lon="3.58433">
        <ele>37.8</ele>
        <time>2022-04-10T10:15:44.000Z</time>
      </trkpt>
      <trkpt lat="50.47912" lon="3.58423">
        <ele>38</ele>
        <time>2022-04-10T10:15:46.528Z</time>
      </trkpt>
      <trkpt lat="50.47914" lon="3.58415">
        <ele>38</ele>
        <time>2022-04-10T10:15:49.413Z</time>
      </trkpt>
      <trkpt lat="50.47916" lon="3.58407">
        <ele>38</ele>
        <time>2022-04-10T10:15:52.000Z</time>
      </trkpt>
      <trkpt lat="50.47917" lon="3.58399">
        <ele>38</ele>
        <time>2022-04-10T10:15:54.552Z</time>
      </trkpt>
      <trkpt lat="50.4792" lon="3.58391">
        <ele>38</ele>
        <time>2022-04-10T10:15:56.908Z</time>
      </trkpt>
      <trkpt lat="50.47922" lon="3.58383">
        <ele>38</ele>
        <time>2022-04-10T10:15:59.605Z</time>
      </trkpt>
      <trkpt lat="50.47924" lon="3.58376">
        <ele>38</ele>
        <time>2022-04-10T10:16:01.905Z</time>
      </trkpt>
      <trkpt lat="50.47926" lon="3.58366">
        <ele>38</ele>
        <time>2022-04-10T10:16:04.986Z</time>
      </trkpt>
      <trkpt lat="50.47929" lon="3.58357">
        <ele>38</ele>
        <time>2022-04-10T10:16:07.000Z</time>
      </trkpt>
      <trkpt lat="50.4793" lon="3.5835">
        <ele>38</ele>
        <time>2022-04-10T10:16:09.000Z</time>
      </trkpt>
      <trkpt lat="50.47932" lon="3.58343">
        <ele>38</ele>
        <time>2022-04-10T10:16:10.962Z</time>
      </trkpt>
      <trkpt lat="50.47935" lon="3.58336">
        <ele>38</ele>
        <time>2022-04-10T10:16:13.000Z</time>
      </trkpt>
      <trkpt lat="50.47937" lon="3.5833">
        <ele>38</ele>
        <time>2022-04-10T10:16:15.000Z</time>
      </trkpt>
      <trkpt lat="50.47939" lon="3.5832">
        <ele>38</ele>
        <time>2022-04-10T10:16:18.000Z</time>
      </trkpt>
      <trkpt lat="50.4794" lon="3.58313">
        <ele>38</ele>
        <time>2022-04-10T10:16:20.000Z</time>
      </trkpt>
      <trkpt lat="50.47941" lon="3.58303">
        <ele>38</ele>
        <time>2022-04-10T10:16:22.000Z</time>
      </trkpt>
      <trkpt lat="50.47942" lon="3.58293">
        <ele>38</ele>
        <time>2022-04-10T10:16:24.986Z</time>
      </trkpt>
      <trkpt lat="50.47945" lon="3.58284">
        <ele>38</ele>
        <time>2022-04-10T10:16:28.000Z</time>
      </trkpt>
      <trkpt lat="50.47946" lon="3.58275">
        <ele>38.1</ele>
        <time>2022-04-10T10:16:38.703Z</time>
      </trkpt>
      <trkpt lat="50.47947" lon="3.58266">
        <ele>38.1</ele>
        <time>2022-04-10T10:16:42.000Z</time>
      </trkpt>
      <trkpt lat="50.47948" lon="3.58258">
        <ele>38.1</ele>
        <time>2022-04-10T10:16:44.148Z</time>
      </trkpt>
      <trkpt lat="50.47951" lon="3.58247">
        <ele>38.2</ele>
        <time>2022-04-10T10:16:46.707Z</time>
      </trkpt>
      <trkpt lat="50.47953" lon="3.5824">
        <ele>38.2</ele>
        <time>2022-04-10T10:16:49.000Z</time>
      </trkpt>
      <trkpt lat="50.47956" lon="3.58232">
        <ele>38.1</ele>
        <time>2022-04-10T10:16:51.000Z</time>
      </trkpt>
      <trkpt lat="50.47959" lon="3.58222">
        <ele>38</ele>
        <time>2022-04-10T10:16:53.044Z</time>
      </trkpt>
      <trkpt lat="50.47962" lon="3.58213">
        <ele>38.2</ele>
        <time>2022-04-10T10:16:57.000Z</time>
      </trkpt>
      <trkpt lat="50.47965" lon="3.58204">
        <ele>38.5</ele>
        <time>2022-04-10T10:17:17.000Z</time>
      </trkpt>
      <trkpt lat="50.47967" lon="3.58196">
        <ele>38.7</ele>
        <time>2022-04-10T10:17:22.000Z</time>
      </trkpt>
      <trkpt lat="50.47968" lon="3.58189">
        <ele>38.8</ele>
        <time>2022-04-10T10:17:27.000Z</time>
      </trkpt>
      <trkpt lat="50.47969" lon="3.58181">
        <ele>38.9</ele>
        <time>2022-04-10T10:17:31.000Z</time>
      </trkpt>
      <trkpt lat="50.47971" lon="3.58173">
        <ele>39</ele>
        <time>2022-04-10T10:17:35.228Z</time>
      </trkpt>
      <trkpt lat="50.47973" lon="3.58165">
        <ele>39</ele>
        <time>2022-04-10T10:17:39.888Z</time>
      </trkpt>
      <trkpt lat="50.47975" lon="3.58157">
        <ele>39</ele>
        <time>2022-04-10T10:17:43.584Z</time>
      </trkpt>
      <trkpt lat="50.47977" lon="3.58148">
        <ele>39</ele>
        <time>2022-04-10T10:17:46.000Z</time>
      </trkpt>
      <trkpt lat="50.4798" lon="3.58139">
        <ele>39</ele>
        <time>2022-04-10T10:17:48.000Z</time>
      </trkpt>
      <trkpt lat="50.47985" lon="3.58126">
        <ele>39</ele>
        <time>2022-04-10T10:17:50.000Z</time>
      </trkpt>
      <trkpt lat="50.47986" lon="3.58119">
        <ele>39</ele>
        <time>2022-04-10T10:17:51.664Z</time>
      </trkpt>
      <trkpt lat="50.47988" lon="3.5811">
        <ele>39</ele>
        <time>2022-04-10T10:17:52.990Z</time>
      </trkpt>
      <trkpt lat="50.47989" lon="3.58102">
        <ele>39</ele>
        <time>2022-04-10T10:17:55.089Z</time>
      </trkpt>
      <trkpt lat="50.47992" lon="3.58094">
        <ele>39</ele>
        <time>2022-04-10T10:17:57.000Z</time>
      </trkpt>
      <trkpt lat="50.47995" lon="3.58086">
        <ele>39</ele>
        <time>2022-04-10T10:17:59.000Z</time>
      </trkpt>
      <trkpt lat="50.47996" lon="3.58079">
        <ele>39</ele>
        <time>2022-04-10T10:18:01.000Z</time>
      </trkpt>
      <trkpt lat="50.47995" lon="3.58086">
        <ele>39</ele>
        <time>2022-04-10T10:18:07.000Z</time>
      </trkpt>
      <trkpt lat="50.47993" lon="3.58094">
        <ele>39</ele>
        <time>2022-04-10T10:18:38.000Z</time>
      </trkpt>
      <trkpt lat="50.4799" lon="3.58099">
        <ele>39</ele>
        <time>2022-04-10T10:18:45.000Z</time>
      </trkpt>
      <trkpt lat="50.47989" lon="3.58109">
        <ele>39</ele>
        <time>2022-04-10T10:20:12.000Z</time>
      </trkpt>
      <trkpt lat="50.47988" lon="3.58117">
        <ele>39</ele>
        <time>2022-04-10T10:20:15.000Z</time>
      </trkpt>
      <trkpt lat="50.47986" lon="3.58124">
        <ele>39</ele>
        <time>2022-04-10T10:20:18.000Z</time>
      </trkpt>
      <trkpt lat="50.47984" lon="3.58134">
        <ele>39</ele>
        <time>2022-04-10T10:20:20.764Z</time>
      </trkpt>
      <trkpt lat="50.47983" lon="3.58142">
        <ele>39</ele>
        <time>2022-04-10T10:20:23.064Z</time>
      </trkpt>
      <trkpt lat="50.47981" lon="3.58149">
        <ele>39</ele>
        <time>2022-04-10T10:20:25.000Z</time>
      </trkpt>
      <trkpt lat="50.47979" lon="3.58156">
        <ele>39</ele>
        <time>2022-04-10T10:20:27.044Z</time>
      </trkpt>
      <trkpt lat="50.47975" lon="3.58164">
        <ele>39</ele>
        <time>2022-04-10T10:20:30.000Z</time>
      </trkpt>
      <trkpt lat="50.47974" lon="3.58171">
        <ele>39</ele>
        <time>2022-04-10T10:20:32.086Z</time>
      </trkpt>
      <trkpt lat="50.4797" lon="3.58177">
        <ele>38.9</ele>
        <time>2022-04-10T10:20:35.000Z</time>
      </trkpt>
      <trkpt lat="50.47965" lon="3.5818">
        <ele>38.8</ele>
        <time>2022-04-10T10:20:56.000Z</time>
      </trkpt>
      <trkpt lat="50.47961" lon="3.58178">
        <ele>38.6</ele>
        <time>2022-04-10T10:21:00.105Z</time>
      </trkpt>
      <trkpt lat="50.47958" lon="3.58173">
        <ele>38.5</ele>
        <time>2022-04-10T10:21:05.000Z</time>
      </trkpt>
      <trkpt lat="50.47956" lon="3.58165">
        <ele>38.5</ele>
        <time>2022-04-10T10:21:10.846Z</time>
      </trkpt>
      <trkpt lat="50.47955" lon="3.58157">
        <ele>38.6</ele>
        <time>2022-04-10T10:21:16.000Z</time>
      </trkpt>
      <trkpt lat="50.47958" lon="3.58151">
        <ele>38.8</ele>
        <time>2022-04-10T10:21:20.064Z</time>
      </trkpt>
      <trkpt lat="50.4796" lon="3.58144">
        <ele>38.9</ele>
        <time>2022-04-10T10:21:25.448Z</time>
      </trkpt>
      <trkpt lat="50.47962" lon="3.58137">
        <ele>39</ele>
        <time>2022-04-10T10:21:29.945Z</time>
      </trkpt>
      <trkpt lat="50.47964" lon="3.5813">
        <ele>38.9</ele>
        <time>2022-04-10T10:21:34.449Z</time>
      </trkpt>
      <trkpt lat="50.47964" lon="3.58122">
        <ele>38.8</ele>
        <time>2022-04-10T10:21:39.889Z</time>
      </trkpt>
      <trkpt lat="50.4796" lon="3.58116">
        <ele>38.7</ele>
        <time>2022-04-10T10:21:46.126Z</time>
      </trkpt>
      <trkpt lat="50.47962" lon="3.58109">
        <ele>38.6</ele>
        <time>2022-04-10T10:21:50.464Z</time>
      </trkpt>
      <trkpt lat="50.47961" lon="3.58101">
        <ele>38.6</ele>
        <time>2022-04-10T10:21:56.000Z</time>
      </trkpt>
      <trkpt lat="50.47958" lon="3.58096">
        <ele>38.5</ele>
        <time>2022-04-10T10:22:00.788Z</time>
      </trkpt>
      <trkpt lat="50.47955" lon="3.58091">
        <ele>38.4</ele>
        <time>2022-04-10T10:22:05.948Z</time>
      </trkpt>
      <trkpt lat="50.47952" lon="3.58085">
        <ele>38.3</ele>
        <time>2022-04-10T10:22:25.000Z</time>
      </trkpt>
      <trkpt lat="50.47949" lon="3.58079">
        <ele>38.3</ele>
        <time>2022-04-10T10:22:30.386Z</time>
      </trkpt>
      <trkpt lat="50.47944" lon="3.58078">
        <ele>38.2</ele>
        <time>2022-04-10T10:22:35.000Z</time>
      </trkpt>
      <trkpt lat="50.47939" lon="3.58076">
        <ele>38.2</ele>
        <time>2022-04-10T10:22:39.273Z</time>
      </trkpt>
      <trkpt lat="50.47935" lon="3.58075">
        <ele>38.2</ele>
        <time>2022-04-10T10:22:44.000Z</time>
      </trkpt>
      <trkpt lat="50.4793" lon="3.58073">
        <ele>38.2</ele>
        <time>2022-04-10T10:22:49.000Z</time>
      </trkpt>
      <trkpt lat="50.47926" lon="3.58068">
        <ele>38.2</ele>
        <time>2022-04-10T10:22:54.000Z</time>
      </trkpt>
      <trkpt lat="50.47921" lon="3.58066">
        <ele>38.1</ele>
        <time>2022-04-10T10:23:01.786Z</time>
      </trkpt>
      <trkpt lat="50.47916" lon="3.58065">
        <ele>38</ele>
        <time>2022-04-10T10:23:12.000Z</time>
      </trkpt>
      <trkpt lat="50.4791" lon="3.58063">
        <ele>38.2</ele>
        <time>2022-04-10T10:23:18.926Z</time>
      </trkpt>
      <trkpt lat="50.47906" lon="3.58063">
        <ele>38.3</ele>
        <time>2022-04-10T10:23:23.543Z</time>
      </trkpt>
      <trkpt lat="50.47901" lon="3.58065">
        <ele>38.4</ele>
        <time>2022-04-10T10:23:28.000Z</time>
      </trkpt>
      <trkpt lat="50.47896" lon="3.58065">
        <ele>38.5</ele>
        <time>2022-04-10T10:23:33.944Z</time>
      </trkpt>
      <trkpt lat="50.47892" lon="3.58065">
        <ele>38.6</ele>
        <time>2022-04-10T10:23:41.000Z</time>
      </trkpt>
      <trkpt lat="50.47887" lon="3.58067">
        <ele>38.5</ele>
        <time>2022-04-10T10:23:45.000Z</time>
      </trkpt>
      <trkpt lat="50.47882" lon="3.58065">
        <ele>38.5</ele>
        <time>2022-04-10T10:23:50.166Z</time>
      </trkpt>
      <trkpt lat="50.47878" lon="3.58067">
        <ele>38.3</ele>
        <time>2022-04-10T10:23:54.547Z</time>
      </trkpt>
      <trkpt lat="50.47874" lon="3.58063">
        <ele>38.3</ele>
        <time>2022-04-10T10:23:59.000Z</time>
      </trkpt>
      <trkpt lat="50.47872" lon="3.58054">
        <ele>38.4</ele>
        <time>2022-04-10T10:24:03.525Z</time>
      </trkpt>
      <trkpt lat="50.47874" lon="3.58048">
        <ele>38.4</ele>
        <time>2022-04-10T10:24:07.000Z</time>
      </trkpt>
      <trkpt lat="50.47873" lon="3.58039">
        <ele>38.4</ele>
        <time>2022-04-10T10:24:11.786Z</time>
      </trkpt>
      <trkpt lat="50.47869" lon="3.58033">
        <ele>38.3</ele>
        <time>2022-04-10T10:24:16.000Z</time>
      </trkpt>
      <trkpt lat="50.47863" lon="3.58032">
        <ele>38.1</ele>
        <time>2022-04-10T10:24:20.043Z</time>
      </trkpt>
      <trkpt lat="50.47856" lon="3.58032">
        <ele>38</ele>
        <time>2022-04-10T10:24:23.000Z</time>
      </trkpt>
      <trkpt lat="50.4785" lon="3.58032">
        <ele>38.1</ele>
        <time>2022-04-10T10:24:25.000Z</time>
      </trkpt>
      <trkpt lat="50.47842" lon="3.58032">
        <ele>38.1</ele>
        <time>2022-04-10T10:24:27.000Z</time>
      </trkpt>
      <trkpt lat="50.47835" lon="3.58031">
        <ele>38.1</ele>
        <time>2022-04-10T10:24:29.000Z</time>
      </trkpt>
      <trkpt lat="50.47826" lon="3.58032">
        <ele>37.9</ele>
        <time>2022-04-10T10:24:31.000Z</time>
      </trkpt>
      <trkpt lat="50.47819" lon="3.58031">
        <ele>37.5</ele>
        <time>2022-04-10T10:24:32.994Z</time>
      </trkpt>
      <trkpt lat="50.47813" lon="3.58031">
        <ele>37.3</ele>
        <time>2022-04-10T10:24:34.000Z</time>
      </trkpt>
      <trkpt lat="50.47806" lon="3.58031">
        <ele>37</ele>
        <time>2022-04-10T10:24:36.000Z</time>
      </trkpt>
      <trkpt lat="50.47799" lon="3.58031">
        <ele>36.8</ele>
        <time>2022-04-10T10:24:38.044Z</time>
      </trkpt>
      <trkpt lat="50.47792" lon="3.58031">
        <ele>36.5</ele>
        <time>2022-04-10T10:24:40.046Z</time>
      </trkpt>
      <trkpt lat="50.47781" lon="3.58031">
        <ele>36.1</ele>
        <time>2022-04-10T10:24:43.000Z</time>
      </trkpt>
      <trkpt lat="50.47776" lon="3.58031">
        <ele>36</ele>
        <time>2022-04-10T10:24:44.000Z</time>
      </trkpt>
      <trkpt lat="50.47767" lon="3.58032">
        <ele>36</ele>
        <time>2022-04-10T10:24:46.000Z</time>
      </trkpt>
      <trkpt lat="50.47757" lon="3.58033">
        <ele>36</ele>
        <time>2022-04-10T10:24:48.000Z</time>
      </trkpt>
      <trkpt lat="50.47751" lon="3.58032">
        <ele>36</ele>
        <time>2022-04-10T10:24:49.601Z</time>
      </trkpt>
      <trkpt lat="50.47746" lon="3.58031">
        <ele>36</ele>
        <time>2022-04-10T10:24:50.962Z</time>
      </trkpt>
      <trkpt lat="50.47738" lon="3.5803">
        <ele>36</ele>
        <time>2022-04-10T10:24:53.086Z</time>
      </trkpt>
      <trkpt lat="50.4773" lon="3.58029">
        <ele>36</ele>
        <time>2022-04-10T10:24:55.024Z</time>
      </trkpt>
      <trkpt lat="50.47725" lon="3.58028">
        <ele>36</ele>
        <time>2022-04-10T10:24:56.000Z</time>
      </trkpt>
      <trkpt lat="50.47721" lon="3.58027">
        <ele>36</ele>
        <time>2022-04-10T10:24:57.000Z</time>
      </trkpt>
      <trkpt lat="50.47713" lon="3.58025">
        <ele>36</ele>
        <time>2022-04-10T10:24:59.043Z</time>
      </trkpt>
      <trkpt lat="50.47703" lon="3.58023">
        <ele>36</ele>
        <time>2022-04-10T10:25:01.848Z</time>
      </trkpt>
      <trkpt lat="50.47699" lon="3.58021">
        <ele>36</ele>
        <time>2022-04-10T10:25:03.000Z</time>
      </trkpt>
      <trkpt lat="50.47692" lon="3.58017">
        <ele>36</ele>
        <time>2022-04-10T10:25:05.000Z</time>
      </trkpt>
      <trkpt lat="50.47681" lon="3.5801">
        <ele>36</ele>
        <time>2022-04-10T10:25:07.751Z</time>
      </trkpt>
      <trkpt lat="50.47676" lon="3.58008">
        <ele>36</ele>
        <time>2022-04-10T10:25:08.986Z</time>
      </trkpt>
      <trkpt lat="50.47668" lon="3.58003">
        <ele>36</ele>
        <time>2022-04-10T10:25:11.000Z</time>
      </trkpt>
      <trkpt lat="50.47661" lon="3.57998">
        <ele>36</ele>
        <time>2022-04-10T10:25:13.000Z</time>
      </trkpt>
      <trkpt lat="50.47653" lon="3.57993">
        <ele>36</ele>
        <time>2022-04-10T10:25:15.000Z</time>
      </trkpt>
      <trkpt lat="50.4764" lon="3.57984">
        <ele>36</ele>
        <time>2022-04-10T10:25:18.000Z</time>
      </trkpt>
      <trkpt lat="50.47634" lon="3.5798">
        <ele>35.9</ele>
        <time>2022-04-10T10:25:20.049Z</time>
      </trkpt>
      <trkpt lat="50.47628" lon="3.57976">
        <ele>35.6</ele>
        <time>2022-04-10T10:25:21.000Z</time>
      </trkpt>
      <trkpt lat="50.47619" lon="3.57972">
        <ele>35.3</ele>
        <time>2022-04-10T10:25:23.000Z</time>
      </trkpt>
      <trkpt lat="50.4761" lon="3.57965">
        <ele>35.3</ele>
        <time>2022-04-10T10:25:25.000Z</time>
      </trkpt>
      <trkpt lat="50.47599" lon="3.5796">
        <ele>35.2</ele>
        <time>2022-04-10T10:25:27.186Z</time>
      </trkpt>
      <trkpt lat="50.47594" lon="3.57954">
        <ele>35.3</ele>
        <time>2022-04-10T10:25:29.000Z</time>
      </trkpt>
      <trkpt lat="50.47584" lon="3.57945">
        <ele>35</ele>
        <time>2022-04-10T10:25:31.000Z</time>
      </trkpt>
      <trkpt lat="50.47578" lon="3.5794">
        <ele>35</ele>
        <time>2022-04-10T10:25:33.000Z</time>
      </trkpt>
      <trkpt lat="50.4757" lon="3.57935">
        <ele>35</ele>
        <time>2022-04-10T10:25:35.000Z</time>
      </trkpt>
      <trkpt lat="50.47565" lon="3.57933">
        <ele>35</ele>
        <time>2022-04-10T10:25:36.000Z</time>
      </trkpt>
      <trkpt lat="50.4756" lon="3.57931">
        <ele>35</ele>
        <time>2022-04-10T10:25:37.000Z</time>
      </trkpt>
      <trkpt lat="50.47556" lon="3.57929">
        <ele>35</ele>
        <time>2022-04-10T10:25:38.000Z</time>
      </trkpt>
      <trkpt lat="50.47549" lon="3.57926">
        <ele>35</ele>
        <time>2022-04-10T10:25:39.000Z</time>
      </trkpt>
      <trkpt lat="50.47539" lon="3.57922">
        <ele>35</ele>
        <time>2022-04-10T10:25:41.000Z</time>
      </trkpt>
      <trkpt lat="50.47533" lon="3.57922">
        <ele>35</ele>
        <time>2022-04-10T10:25:43.000Z</time>
      </trkpt>
      <trkpt lat="50.47524" lon="3.57922">
        <ele>35</ele>
        <time>2022-04-10T10:25:45.000Z</time>
      </trkpt>
      <trkpt lat="50.47516" lon="3.57923">
        <ele>35</ele>
        <time>2022-04-10T10:25:47.000Z</time>
      </trkpt>
      <trkpt lat="50.47508" lon="3.57925">
        <ele>35</ele>
        <time>2022-04-10T10:25:49.026Z</time>
      </trkpt>
      <trkpt lat="50.475" lon="3.57926">
        <ele>35</ele>
        <time>2022-04-10T10:25:51.000Z</time>
      </trkpt>
      <trkpt lat="50.47492" lon="3.57929">
        <ele>35</ele>
        <time>2022-04-10T10:25:53.000Z</time>
      </trkpt>
      <trkpt lat="50.47485" lon="3.57932">
        <ele>35</ele>
        <time>2022-04-10T10:25:55.000Z</time>
      </trkpt>
      <trkpt lat="50.47477" lon="3.57934">
        <ele>35</ele>
        <time>2022-04-10T10:25:57.000Z</time>
      </trkpt>
      <trkpt lat="50.47469" lon="3.57936">
        <ele>35</ele>
        <time>2022-04-10T10:25:59.000Z</time>
      </trkpt>
      <trkpt lat="50.47462" lon="3.57939">
        <ele>35</ele>
        <time>2022-04-10T10:26:00.933Z</time>
      </trkpt>
      <trkpt lat="50.47454" lon="3.57941">
        <ele>35</ele>
        <time>2022-04-10T10:26:03.056Z</time>
      </trkpt>
      <trkpt lat="50.47446" lon="3.57943">
        <ele>35</ele>
        <time>2022-04-10T10:26:05.000Z</time>
      </trkpt>
      <trkpt lat="50.47438" lon="3.57946">
        <ele>35</ele>
        <time>2022-04-10T10:26:07.000Z</time>
      </trkpt>
      <trkpt lat="50.47432" lon="3.57948">
        <ele>35</ele>
        <time>2022-04-10T10:26:09.000Z</time>
      </trkpt>
      <trkpt lat="50.47427" lon="3.57949">
        <ele>35</ele>
        <time>2022-04-10T10:26:10.000Z</time>
      </trkpt>
      <trkpt lat="50.4742" lon="3.57952">
        <ele>35</ele>
        <time>2022-04-10T10:26:11.452Z</time>
      </trkpt>
      <trkpt lat="50.47413" lon="3.57954">
        <ele>34.9</ele>
        <time>2022-04-10T10:26:13.000Z</time>
      </trkpt>
      <trkpt lat="50.47409" lon="3.57955">
        <ele>34.7</ele>
        <time>2022-04-10T10:26:14.111Z</time>
      </trkpt>
      <trkpt lat="50.474" lon="3.57957">
        <ele>34.4</ele>
        <time>2022-04-10T10:26:16.000Z</time>
      </trkpt>
      <trkpt lat="50.47392" lon="3.57958">
        <ele>34.1</ele>
        <time>2022-04-10T10:26:18.000Z</time>
      </trkpt>
      <trkpt lat="50.47386" lon="3.57959">
        <ele>34</ele>
        <time>2022-04-10T10:26:19.290Z</time>
      </trkpt>
      <trkpt lat="50.47379" lon="3.57961">
        <ele>34.1</ele>
        <time>2022-04-10T10:26:21.000Z</time>
      </trkpt>
      <trkpt lat="50.4737" lon="3.57963">
        <ele>34.2</ele>
        <time>2022-04-10T10:26:23.136Z</time>
      </trkpt>
      <trkpt lat="50.47364" lon="3.57964">
        <ele>34.3</ele>
        <time>2022-04-10T10:26:24.553Z</time>
      </trkpt>
      <trkpt lat="50.47357" lon="3.57966">
        <ele>34.2</ele>
        <time>2022-04-10T10:26:26.000Z</time>
      </trkpt>
      <trkpt lat="50.47348" lon="3.57969">
        <ele>34.1</ele>
        <time>2022-04-10T10:26:28.000Z</time>
      </trkpt>
      <trkpt lat="50.4734" lon="3.57971">
        <ele>34</ele>
        <time>2022-04-10T10:26:29.991Z</time>
      </trkpt>
      <trkpt lat="50.47332" lon="3.57974">
        <ele>34</ele>
        <time>2022-04-10T10:26:32.000Z</time>
      </trkpt>
      <trkpt lat="50.47324" lon="3.57975">
        <ele>34</ele>
        <time>2022-04-10T10:26:34.000Z</time>
      </trkpt>
      <trkpt lat="50.47316" lon="3.5798">
        <ele>34</ele>
        <time>2022-04-10T10:26:36.000Z</time>
      </trkpt>
      <trkpt lat="50.47311" lon="3.57989">
        <ele>34</ele>
        <time>2022-04-10T10:26:38.000Z</time>
      </trkpt>
      <trkpt lat="50.47305" lon="3.57993">
        <ele>34</ele>
        <time>2022-04-10T10:26:40.000Z</time>
      </trkpt>
      <trkpt lat="50.473" lon="3.57994">
        <ele>33.8</ele>
        <time>2022-04-10T10:26:45.000Z</time>
      </trkpt>
      <trkpt lat="50.47295" lon="3.57997">
        <ele>33.6</ele>
        <time>2022-04-10T10:26:48.000Z</time>
      </trkpt>
      <trkpt lat="50.47289" lon="3.58">
        <ele>33.4</ele>
        <time>2022-04-10T10:26:50.000Z</time>
      </trkpt>
      <trkpt lat="50.47281" lon="3.58003">
        <ele>33.2</ele>
        <time>2022-04-10T10:26:52.000Z</time>
      </trkpt>
      <trkpt lat="50.47273" lon="3.58007">
        <ele>33.2</ele>
        <time>2022-04-10T10:26:54.091Z</time>
      </trkpt>
      <trkpt lat="50.47268" lon="3.58009">
        <ele>33.2</ele>
        <time>2022-04-10T10:26:55.000Z</time>
      </trkpt>
      <trkpt lat="50.47263" lon="3.58012">
        <ele>33.2</ele>
        <time>2022-04-10T10:26:56.133Z</time>
      </trkpt>
      <trkpt lat="50.47258" lon="3.58015">
        <ele>33.2</ele>
        <time>2022-04-10T10:26:57.178Z</time>
      </trkpt>
      <trkpt lat="50.4725" lon="3.58019">
        <ele>33</ele>
        <time>2022-04-10T10:26:59.000Z</time>
      </trkpt>
      <trkpt lat="50.47246" lon="3.58022">
        <ele>33</ele>
        <time>2022-04-10T10:27:00.000Z</time>
      </trkpt>
      <trkpt lat="50.47241" lon="3.58025">
        <ele>33</ele>
        <time>2022-04-10T10:27:01.074Z</time>
      </trkpt>
      <trkpt lat="50.47237" lon="3.58028">
        <ele>33</ele>
        <time>2022-04-10T10:27:02.000Z</time>
      </trkpt>
      <trkpt lat="50.47229" lon="3.58034">
        <ele>33</ele>
        <time>2022-04-10T10:27:03.000Z</time>
      </trkpt>
      <trkpt lat="50.47221" lon="3.58039">
        <ele>33</ele>
        <time>2022-04-10T10:27:05.000Z</time>
      </trkpt>
      <trkpt lat="50.47213" lon="3.58044">
        <ele>33</ele>
        <time>2022-04-10T10:27:06.654Z</time>
      </trkpt>
      <trkpt lat="50.47206" lon="3.5805">
        <ele>33</ele>
        <time>2022-04-10T10:27:07.991Z</time>
      </trkpt>
      <trkpt lat="50.47201" lon="3.58053">
        <ele>33</ele>
        <time>2022-04-10T10:27:10.000Z</time>
      </trkpt>
      <trkpt lat="50.47194" lon="3.58058">
        <ele>33</ele>
        <time>2022-04-10T10:27:11.994Z</time>
      </trkpt>
      <trkpt lat="50.47189" lon="3.58061">
        <ele>33</ele>
        <time>2022-04-10T10:27:13.000Z</time>
      </trkpt>
      <trkpt lat="50.47185" lon="3.58064">
        <ele>33</ele>
        <time>2022-04-10T10:27:14.112Z</time>
      </trkpt>
      <trkpt lat="50.47176" lon="3.5807">
        <ele>33</ele>
        <time>2022-04-10T10:27:16.138Z</time>
      </trkpt>
      <trkpt lat="50.4717" lon="3.58075">
        <ele>33</ele>
        <time>2022-04-10T10:27:17.278Z</time>
      </trkpt>
      <trkpt lat="50.47162" lon="3.58081">
        <ele>32.8</ele>
        <time>2022-04-10T10:27:19.611Z</time>
      </trkpt>
      <trkpt lat="50.47157" lon="3.58085">
        <ele>32.6</ele>
        <time>2022-04-10T10:27:20.954Z</time>
      </trkpt>
      <trkpt lat="50.47153" lon="3.58089">
        <ele>32.5</ele>
        <time>2022-04-10T10:27:22.000Z</time>
      </trkpt>
      <trkpt lat="50.47148" lon="3.58092">
        <ele>32.3</ele>
        <time>2022-04-10T10:27:23.000Z</time>
      </trkpt>
      <trkpt lat="50.47144" lon="3.58096">
        <ele>32.2</ele>
        <time>2022-04-10T10:27:24.000Z</time>
      </trkpt>
      <trkpt lat="50.47136" lon="3.58102">
        <ele>32</ele>
        <time>2022-04-10T10:27:26.000Z</time>
      </trkpt>
      <trkpt lat="50.47132" lon="3.58106">
        <ele>32</ele>
        <time>2022-04-10T10:27:27.000Z</time>
      </trkpt>
      <trkpt lat="50.47127" lon="3.58109">
        <ele>32</ele>
        <time>2022-04-10T10:27:28.000Z</time>
      </trkpt>
      <trkpt lat="50.47122" lon="3.58111">
        <ele>32</ele>
        <time>2022-04-10T10:27:29.000Z</time>
      </trkpt>
      <trkpt lat="50.47118" lon="3.58114">
        <ele>32</ele>
        <time>2022-04-10T10:27:30.000Z</time>
      </trkpt>
      <trkpt lat="50.47109" lon="3.58119">
        <ele>32</ele>
        <time>2022-04-10T10:27:32.000Z</time>
      </trkpt>
      <trkpt lat="50.47104" lon="3.58121">
        <ele>32</ele>
        <time>2022-04-10T10:27:33.000Z</time>
      </trkpt>
      <trkpt lat="50.47099" lon="3.58123">
        <ele>32</ele>
        <time>2022-04-10T10:27:34.000Z</time>
      </trkpt>
      <trkpt lat="50.47094" lon="3.58126">
        <ele>32</ele>
        <time>2022-04-10T10:27:35.000Z</time>
      </trkpt>
      <trkpt lat="50.47089" lon="3.58128">
        <ele>32</ele>
        <time>2022-04-10T10:27:36.000Z</time>
      </trkpt>
      <trkpt lat="50.47084" lon="3.5813">
        <ele>32</ele>
        <time>2022-04-10T10:27:37.000Z</time>
      </trkpt>
      <trkpt lat="50.47079" lon="3.58133">
        <ele>32</ele>
        <time>2022-04-10T10:27:38.000Z</time>
      </trkpt>
      <trkpt lat="50.47074" lon="3.58135">
        <ele>32</ele>
        <time>2022-04-10T10:27:39.000Z</time>
      </trkpt>
      <trkpt lat="50.47069" lon="3.58137">
        <ele>32</ele>
        <time>2022-04-10T10:27:40.000Z</time>
      </trkpt>
      <trkpt lat="50.47063" lon="3.5814">
        <ele>32</ele>
        <time>2022-04-10T10:27:41.000Z</time>
      </trkpt>
      <trkpt lat="50.47058" lon="3.58142">
        <ele>32</ele>
        <time>2022-04-10T10:27:42.000Z</time>
      </trkpt>
      <trkpt lat="50.47053" lon="3.58144">
        <ele>32</ele>
        <time>2022-04-10T10:27:43.000Z</time>
      </trkpt>
      <trkpt lat="50.47047" lon="3.58147">
        <ele>31.9</ele>
        <time>2022-04-10T10:27:44.000Z</time>
      </trkpt>
      <trkpt lat="50.47042" lon="3.5815">
        <ele>31.8</ele>
        <time>2022-04-10T10:27:45.000Z</time>
      </trkpt>
      <trkpt lat="50.47037" lon="3.58154">
        <ele>31.7</ele>
        <time>2022-04-10T10:27:46.000Z</time>
      </trkpt>
      <trkpt lat="50.47032" lon="3.58158">
        <ele>31.4</ele>
        <time>2022-04-10T10:27:47.000Z</time>
      </trkpt>
      <trkpt lat="50.47027" lon="3.58161">
        <ele>31.2</ele>
        <time>2022-04-10T10:27:48.000Z</time>
      </trkpt>
      <trkpt lat="50.47022" lon="3.58165">
        <ele>31</ele>
        <time>2022-04-10T10:27:49.000Z</time>
      </trkpt>
      <trkpt lat="50.47017" lon="3.58169">
        <ele>31</ele>
        <time>2022-04-10T10:27:50.000Z</time>
      </trkpt>
      <trkpt lat="50.47012" lon="3.58172">
        <ele>31</ele>
        <time>2022-04-10T10:27:51.000Z</time>
      </trkpt>
      <trkpt lat="50.47007" lon="3.58175">
        <ele>31</ele>
        <time>2022-04-10T10:27:52.000Z</time>
      </trkpt>
      <trkpt lat="50.47003" lon="3.58179">
        <ele>31</ele>
        <time>2022-04-10T10:27:53.000Z</time>
      </trkpt>
      <trkpt lat="50.46998" lon="3.58182">
        <ele>31</ele>
        <time>2022-04-10T10:27:54.000Z</time>
      </trkpt>
      <trkpt lat="50.46994" lon="3.58185">
        <ele>31</ele>
        <time>2022-04-10T10:27:55.000Z</time>
      </trkpt>
      <trkpt lat="50.46989" lon="3.58189">
        <ele>31</ele>
        <time>2022-04-10T10:27:56.000Z</time>
      </trkpt>
      <trkpt lat="50.46984" lon="3.58193">
        <ele>31</ele>
        <time>2022-04-10T10:27:57.000Z</time>
      </trkpt>
      <trkpt lat="50.4698" lon="3.58196">
        <ele>31</ele>
        <time>2022-04-10T10:27:58.000Z</time>
      </trkpt>
      <trkpt lat="50.46976" lon="3.58199">
        <ele>31</ele>
        <time>2022-04-10T10:27:59.000Z</time>
      </trkpt>
      <trkpt lat="50.46971" lon="3.58202">
        <ele>31</ele>
        <time>2022-04-10T10:28:00.000Z</time>
      </trkpt>
      <trkpt lat="50.46967" lon="3.58205">
        <ele>31</ele>
        <time>2022-04-10T10:28:01.000Z</time>
      </trkpt>
      <trkpt lat="50.46963" lon="3.58209">
        <ele>31</ele>
        <time>2022-04-10T10:28:02.000Z</time>
      </trkpt>
      <trkpt lat="50.46958" lon="3.58212">
        <ele>31</ele>
        <time>2022-04-10T10:28:03.000Z</time>
      </trkpt>
      <trkpt lat="50.46954" lon="3.58215">
        <ele>31</ele>
        <time>2022-04-10T10:28:04.000Z</time>
      </trkpt>
      <trkpt lat="50.46945" lon="3.58222">
        <ele>31</ele>
        <time>2022-04-10T10:28:06.000Z</time>
      </trkpt>
      <trkpt lat="50.4694" lon="3.58226">
        <ele>31</ele>
        <time>2022-04-10T10:28:07.000Z</time>
      </trkpt>
      <trkpt lat="50.46935" lon="3.58229">
        <ele>31</ele>
        <time>2022-04-10T10:28:08.000Z</time>
      </trkpt>
      <trkpt lat="50.4693" lon="3.58233">
        <ele>31</ele>
        <time>2022-04-10T10:28:09.000Z</time>
      </trkpt>
      <trkpt lat="50.46925" lon="3.58236">
        <ele>31</ele>
        <time>2022-04-10T10:28:10.000Z</time>
      </trkpt>
      <trkpt lat="50.4692" lon="3.5824">
        <ele>31</ele>
        <time>2022-04-10T10:28:11.000Z</time>
      </trkpt>
      <trkpt lat="50.46915" lon="3.58244">
        <ele>30.9</ele>
        <time>2022-04-10T10:28:12.000Z</time>
      </trkpt>
      <trkpt lat="50.4691" lon="3.58248">
        <ele>30.7</ele>
        <time>2022-04-10T10:28:13.000Z</time>
      </trkpt>
      <trkpt lat="50.46905" lon="3.58252">
        <ele>30.5</ele>
        <time>2022-04-10T10:28:14.000Z</time>
      </trkpt>
      <trkpt lat="50.469" lon="3.58256">
        <ele>30.3</ele>
        <time>2022-04-10T10:28:15.000Z</time>
      </trkpt>
      <trkpt lat="50.46893" lon="3.58261">
        <ele>30.1</ele>
        <time>2022-04-10T10:28:16.000Z</time>
      </trkpt>
      <trkpt lat="50.46889" lon="3.58264">
        <ele>30</ele>
        <time>2022-04-10T10:28:17.000Z</time>
      </trkpt>
      <trkpt lat="50.46884" lon="3.58268">
        <ele>30</ele>
        <time>2022-04-10T10:28:18.000Z</time>
      </trkpt>
      <trkpt lat="50.46879" lon="3.58272">
        <ele>30</ele>
        <time>2022-04-10T10:28:19.000Z</time>
      </trkpt>
      <trkpt lat="50.46874" lon="3.58276">
        <ele>30</ele>
        <time>2022-04-10T10:28:20.000Z</time>
      </trkpt>
      <trkpt lat="50.46869" lon="3.5828">
        <ele>30</ele>
        <time>2022-04-10T10:28:21.000Z</time>
      </trkpt>
      <trkpt lat="50.46865" lon="3.58283">
        <ele>30</ele>
        <time>2022-04-10T10:28:22.000Z</time>
      </trkpt>
      <trkpt lat="50.4686" lon="3.58287">
        <ele>30</ele>
        <time>2022-04-10T10:28:23.000Z</time>
      </trkpt>
      <trkpt lat="50.46855" lon="3.58291">
        <ele>29.9</ele>
        <time>2022-04-10T10:28:24.000Z</time>
      </trkpt>
      <trkpt lat="50.4685" lon="3.58294">
        <ele>29.8</ele>
        <time>2022-04-10T10:28:25.000Z</time>
      </trkpt>
      <trkpt lat="50.46846" lon="3.58298">
        <ele>29.6</ele>
        <time>2022-04-10T10:28:26.000Z</time>
      </trkpt>
      <trkpt lat="50.46841" lon="3.58301">
        <ele>29.4</ele>
        <time>2022-04-10T10:28:27.000Z</time>
      </trkpt>
      <trkpt lat="50.46836" lon="3.58304">
        <ele>29.2</ele>
        <time>2022-04-10T10:28:28.000Z</time>
      </trkpt>
      <trkpt lat="50.46831" lon="3.58307">
        <ele>29</ele>
        <time>2022-04-10T10:28:29.000Z</time>
      </trkpt>
      <trkpt lat="50.46826" lon="3.5831">
        <ele>29</ele>
        <time>2022-04-10T10:28:30.000Z</time>
      </trkpt>
      <trkpt lat="50.46822" lon="3.58313">
        <ele>29</ele>
        <time>2022-04-10T10:28:31.000Z</time>
      </trkpt>
      <trkpt lat="50.46817" lon="3.58316">
        <ele>29</ele>
        <time>2022-04-10T10:28:32.000Z</time>
      </trkpt>
      <trkpt lat="50.46812" lon="3.58319">
        <ele>29</ele>
        <time>2022-04-10T10:28:33.000Z</time>
      </trkpt>
      <trkpt lat="50.46807" lon="3.58322">
        <ele>29</ele>
        <time>2022-04-10T10:28:34.000Z</time>
      </trkpt>
      <trkpt lat="50.46802" lon="3.58325">
        <ele>29</ele>
        <time>2022-04-10T10:28:35.000Z</time>
      </trkpt>
      <trkpt lat="50.46798" lon="3.58327">
        <ele>29</ele>
        <time>2022-04-10T10:28:36.000Z</time>
      </trkpt>
      <trkpt lat="50.46793" lon="3.5833">
        <ele>29</ele>
        <time>2022-04-10T10:28:37.000Z</time>
      </trkpt>
      <trkpt lat="50.46788" lon="3.58333">
        <ele>29</ele>
        <time>2022-04-10T10:28:38.000Z</time>
      </trkpt>
      <trkpt lat="50.46783" lon="3.58336">
        <ele>28.9</ele>
        <time>2022-04-10T10:28:39.000Z</time>
      </trkpt>
      <trkpt lat="50.46777" lon="3.58339">
        <ele>28.8</ele>
        <time>2022-04-10T10:28:40.000Z</time>
      </trkpt>
      <trkpt lat="50.46772" lon="3.58341">
        <ele>28.6</ele>
        <time>2022-04-10T10:28:41.000Z</time>
      </trkpt>
      <trkpt lat="50.46767" lon="3.58343">
        <ele>28.4</ele>
        <time>2022-04-10T10:28:42.000Z</time>
      </trkpt>
      <trkpt lat="50.46761" lon="3.58344">
        <ele>28.3</ele>
        <time>2022-04-10T10:28:43.000Z</time>
      </trkpt>
      <trkpt lat="50.46756" lon="3.58345">
        <ele>28.1</ele>
        <time>2022-04-10T10:28:44.000Z</time>
      </trkpt>
      <trkpt lat="50.46751" lon="3.58345">
        <ele>28</ele>
        <time>2022-04-10T10:28:45.000Z</time>
      </trkpt>
      <trkpt lat="50.46745" lon="3.58346">
        <ele>28</ele>
        <time>2022-04-10T10:28:46.000Z</time>
      </trkpt>
      <trkpt lat="50.4674" lon="3.58346">
        <ele>28</ele>
        <time>2022-04-10T10:28:47.000Z</time>
      </trkpt>
      <trkpt lat="50.46735" lon="3.58346">
        <ele>28</ele>
        <time>2022-04-10T10:28:48.000Z</time>
      </trkpt>
      <trkpt lat="50.4673" lon="3.58347">
        <ele>28</ele>
        <time>2022-04-10T10:28:49.000Z</time>
      </trkpt>
      <trkpt lat="50.46725" lon="3.58349">
        <ele>28</ele>
        <time>2022-04-10T10:28:50.000Z</time>
      </trkpt>
      <trkpt lat="50.4672" lon="3.58351">
        <ele>27.9</ele>
        <time>2022-04-10T10:28:51.000Z</time>
      </trkpt>
      <trkpt lat="50.46715" lon="3.58351">
        <ele>27.8</ele>
        <time>2022-04-10T10:28:52.000Z</time>
      </trkpt>
      <trkpt lat="50.4671" lon="3.5835">
        <ele>27.7</ele>
        <time>2022-04-10T10:28:53.000Z</time>
      </trkpt>
      <trkpt lat="50.46705" lon="3.5835">
        <ele>27.6</ele>
        <time>2022-04-10T10:28:54.000Z</time>
      </trkpt>
      <trkpt lat="50.467" lon="3.5835">
        <ele>27.5</ele>
        <time>2022-04-10T10:28:55.000Z</time>
      </trkpt>
      <trkpt lat="50.46695" lon="3.5835">
        <ele>27.4</ele>
        <time>2022-04-10T10:28:56.000Z</time>
      </trkpt>
      <trkpt lat="50.46689" lon="3.58351">
        <ele>27.3</ele>
        <time>2022-04-10T10:28:57.000Z</time>
      </trkpt>
      <trkpt lat="50.46684" lon="3.58352">
        <ele>27.2</ele>
        <time>2022-04-10T10:28:58.000Z</time>
      </trkpt>
      <trkpt lat="50.46678" lon="3.58353">
        <ele>27.1</ele>
        <time>2022-04-10T10:28:59.000Z</time>
      </trkpt>
      <trkpt lat="50.46672" lon="3.58353">
        <ele>27.1</ele>
        <time>2022-04-10T10:29:00.000Z</time>
      </trkpt>
      <trkpt lat="50.46666" lon="3.58354">
        <ele>27</ele>
        <time>2022-04-10T10:29:01.000Z</time>
      </trkpt>
      <trkpt lat="50.4666" lon="3.58354">
        <ele>26.8</ele>
        <time>2022-04-10T10:29:02.000Z</time>
      </trkpt>
      <trkpt lat="50.46652" lon="3.58355">
        <ele>26.5</ele>
        <time>2022-04-10T10:29:03.000Z</time>
      </trkpt>
      <trkpt lat="50.46647" lon="3.58356">
        <ele>26.3</ele>
        <time>2022-04-10T10:29:04.000Z</time>
      </trkpt>
      <trkpt lat="50.46639" lon="3.58357">
        <ele>26</ele>
        <time>2022-04-10T10:29:05.000Z</time>
      </trkpt>
      <trkpt lat="50.46634" lon="3.58358">
        <ele>26</ele>
        <time>2022-04-10T10:29:06.000Z</time>
      </trkpt>
      <trkpt lat="50.46625" lon="3.58358">
        <ele>26</ele>
        <time>2022-04-10T10:29:07.000Z</time>
      </trkpt>
      <trkpt lat="50.46614" lon="3.58359">
        <ele>26</ele>
        <time>2022-04-10T10:29:09.000Z</time>
      </trkpt>
      <trkpt lat="50.46609" lon="3.58359">
        <ele>26</ele>
        <time>2022-04-10T10:29:10.000Z</time>
      </trkpt>
      <trkpt lat="50.46604" lon="3.5836">
        <ele>26</ele>
        <time>2022-04-10T10:29:11.000Z</time>
      </trkpt>
      <trkpt lat="50.46596" lon="3.5836">
        <ele>26</ele>
        <time>2022-04-10T10:29:12.000Z</time>
      </trkpt>
      <trkpt lat="50.46592" lon="3.58361">
        <ele>26</ele>
        <time>2022-04-10T10:29:13.000Z</time>
      </trkpt>
      <trkpt lat="50.46585" lon="3.58362">
        <ele>26</ele>
        <time>2022-04-10T10:29:14.000Z</time>
      </trkpt>
      <trkpt lat="50.46579" lon="3.58362">
        <ele>25.8</ele>
        <time>2022-04-10T10:29:15.000Z</time>
      </trkpt>
      <trkpt lat="50.46574" lon="3.58363">
        <ele>25.6</ele>
        <time>2022-04-10T10:29:16.000Z</time>
      </trkpt>
      <trkpt lat="50.46566" lon="3.58364">
        <ele>25.4</ele>
        <time>2022-04-10T10:29:17.000Z</time>
      </trkpt>
      <trkpt lat="50.46561" lon="3.58365">
        <ele>25.2</ele>
        <time>2022-04-10T10:29:18.000Z</time>
      </trkpt>
      <trkpt lat="50.46556" lon="3.58366">
        <ele>25</ele>
        <time>2022-04-10T10:29:19.000Z</time>
      </trkpt>
      <trkpt lat="50.46551" lon="3.58367">
        <ele>25</ele>
        <time>2022-04-10T10:29:20.000Z</time>
      </trkpt>
      <trkpt lat="50.46545" lon="3.58368">
        <ele>25</ele>
        <time>2022-04-10T10:29:21.000Z</time>
      </trkpt>
      <trkpt lat="50.46539" lon="3.5837">
        <ele>25</ele>
        <time>2022-04-10T10:29:22.000Z</time>
      </trkpt>
      <trkpt lat="50.46531" lon="3.58373">
        <ele>25</ele>
        <time>2022-04-10T10:29:23.000Z</time>
      </trkpt>
      <trkpt lat="50.46526" lon="3.58375">
        <ele>25</ele>
        <time>2022-04-10T10:29:24.000Z</time>
      </trkpt>
      <trkpt lat="50.46519" lon="3.58378">
        <ele>25</ele>
        <time>2022-04-10T10:29:25.000Z</time>
      </trkpt>
      <trkpt lat="50.46514" lon="3.58381">
        <ele>25</ele>
        <time>2022-04-10T10:29:26.000Z</time>
      </trkpt>
      <trkpt lat="50.46509" lon="3.58383">
        <ele>25</ele>
        <time>2022-04-10T10:29:27.000Z</time>
      </trkpt>
      <trkpt lat="50.46504" lon="3.58386">
        <ele>25</ele>
        <time>2022-04-10T10:29:28.000Z</time>
      </trkpt>
      <trkpt lat="50.46498" lon="3.58388">
        <ele>25</ele>
        <time>2022-04-10T10:29:29.000Z</time>
      </trkpt>
      <trkpt lat="50.46493" lon="3.58391">
        <ele>25</ele>
        <time>2022-04-10T10:29:30.000Z</time>
      </trkpt>
      <trkpt lat="50.46488" lon="3.58394">
        <ele>24.9</ele>
        <time>2022-04-10T10:29:31.000Z</time>
      </trkpt>
      <trkpt lat="50.46483" lon="3.58396">
        <ele>24.8</ele>
        <time>2022-04-10T10:29:32.000Z</time>
      </trkpt>
      <trkpt lat="50.46478" lon="3.58399">
        <ele>24.7</ele>
        <time>2022-04-10T10:29:33.000Z</time>
      </trkpt>
      <trkpt lat="50.46472" lon="3.58402">
        <ele>24.5</ele>
        <time>2022-04-10T10:29:34.000Z</time>
      </trkpt>
      <trkpt lat="50.46466" lon="3.58404">
        <ele>24.4</ele>
        <time>2022-04-10T10:29:35.000Z</time>
      </trkpt>
      <trkpt lat="50.46461" lon="3.58407">
        <ele>24.2</ele>
        <time>2022-04-10T10:29:36.000Z</time>
      </trkpt>
      <trkpt lat="50.46456" lon="3.58409">
        <ele>24.1</ele>
        <time>2022-04-10T10:29:37.000Z</time>
      </trkpt>
      <trkpt lat="50.4645" lon="3.58411">
        <ele>24</ele>
        <time>2022-04-10T10:29:38.000Z</time>
      </trkpt>
      <trkpt lat="50.46445" lon="3.58414">
        <ele>24</ele>
        <time>2022-04-10T10:29:39.000Z</time>
      </trkpt>
      <trkpt lat="50.4644" lon="3.58416">
        <ele>24</ele>
        <time>2022-04-10T10:29:40.000Z</time>
      </trkpt>
      <trkpt lat="50.46434" lon="3.58419">
        <ele>24</ele>
        <time>2022-04-10T10:29:41.000Z</time>
      </trkpt>
      <trkpt lat="50.4643" lon="3.58421">
        <ele>24</ele>
        <time>2022-04-10T10:29:42.000Z</time>
      </trkpt>
      <trkpt lat="50.46424" lon="3.58423">
        <ele>24</ele>
        <time>2022-04-10T10:29:43.000Z</time>
      </trkpt>
      <trkpt lat="50.46416" lon="3.58427">
        <ele>24</ele>
        <time>2022-04-10T10:29:44.000Z</time>
      </trkpt>
      <trkpt lat="50.46411" lon="3.58428">
        <ele>23.8</ele>
        <time>2022-04-10T10:29:45.000Z</time>
      </trkpt>
      <trkpt lat="50.46406" lon="3.58429">
        <ele>23.6</ele>
        <time>2022-04-10T10:29:46.000Z</time>
      </trkpt>
      <trkpt lat="50.46402" lon="3.5843">
        <ele>23.5</ele>
        <time>2022-04-10T10:29:47.000Z</time>
      </trkpt>
      <trkpt lat="50.46396" lon="3.58431">
        <ele>23.3</ele>
        <time>2022-04-10T10:29:48.000Z</time>
      </trkpt>
      <trkpt lat="50.46391" lon="3.58431">
        <ele>23.1</ele>
        <time>2022-04-10T10:29:49.000Z</time>
      </trkpt>
      <trkpt lat="50.46386" lon="3.5843">
        <ele>23.1</ele>
        <time>2022-04-10T10:29:50.000Z</time>
      </trkpt>
      <trkpt lat="50.4638" lon="3.5843">
        <ele>23.2</ele>
        <time>2022-04-10T10:29:51.000Z</time>
      </trkpt>
      <trkpt lat="50.46375" lon="3.58429">
        <ele>23.3</ele>
        <time>2022-04-10T10:29:52.000Z</time>
      </trkpt>
      <trkpt lat="50.4637" lon="3.58429">
        <ele>23.4</ele>
        <time>2022-04-10T10:29:53.000Z</time>
      </trkpt>
      <trkpt lat="50.46364" lon="3.58428">
        <ele>23.5</ele>
        <time>2022-04-10T10:29:54.000Z</time>
      </trkpt>
      <trkpt lat="50.46359" lon="3.58427">
        <ele>23.6</ele>
        <time>2022-04-10T10:29:55.000Z</time>
      </trkpt>
      <trkpt lat="50.46354" lon="3.58427">
        <ele>23.6</ele>
        <time>2022-04-10T10:29:56.000Z</time>
      </trkpt>
      <trkpt lat="50.46349" lon="3.58426">
        <ele>23.7</ele>
        <time>2022-04-10T10:29:57.000Z</time>
      </trkpt>
      <trkpt lat="50.46345" lon="3.58425">
        <ele>23.7</ele>
        <time>2022-04-10T10:29:58.000Z</time>
      </trkpt>
      <trkpt lat="50.4634" lon="3.58425">
        <ele>23.7</ele>
        <time>2022-04-10T10:29:59.000Z</time>
      </trkpt>
      <trkpt lat="50.46332" lon="3.58424">
        <ele>23.7</ele>
        <time>2022-04-10T10:30:01.000Z</time>
      </trkpt>
      <trkpt lat="50.46321" lon="3.58423">
        <ele>23.9</ele>
        <time>2022-04-10T10:30:03.000Z</time>
      </trkpt>
      <trkpt lat="50.46313" lon="3.58422">
        <ele>23.9</ele>
        <time>2022-04-10T10:30:05.067Z</time>
      </trkpt>
      <trkpt lat="50.46306" lon="3.58422">
        <ele>24</ele>
        <time>2022-04-10T10:30:07.000Z</time>
      </trkpt>
      <trkpt lat="50.46301" lon="3.58423">
        <ele>24.2</ele>
        <time>2022-04-10T10:30:08.706Z</time>
      </trkpt>
      <trkpt lat="50.46295" lon="3.58424">
        <ele>24.4</ele>
        <time>2022-04-10T10:30:09.969Z</time>
      </trkpt>
      <trkpt lat="50.46288" lon="3.58425">
        <ele>24.6</ele>
        <time>2022-04-10T10:30:12.000Z</time>
      </trkpt>
      <trkpt lat="50.46281" lon="3.58429">
        <ele>24.9</ele>
        <time>2022-04-10T10:30:14.115Z</time>
      </trkpt>
      <trkpt lat="50.46275" lon="3.58432">
        <ele>25</ele>
        <time>2022-04-10T10:30:16.000Z</time>
      </trkpt>
      <trkpt lat="50.46269" lon="3.58434">
        <ele>25</ele>
        <time>2022-04-10T10:30:18.000Z</time>
      </trkpt>
      <trkpt lat="50.46263" lon="3.58437">
        <ele>25</ele>
        <time>2022-04-10T10:30:20.000Z</time>
      </trkpt>
      <trkpt lat="50.46258" lon="3.5844">
        <ele>25</ele>
        <time>2022-04-10T10:30:22.000Z</time>
      </trkpt>
      <trkpt lat="50.46265" lon="3.58433">
        <ele>25</ele>
        <time>2022-04-10T10:30:26.950Z</time>
      </trkpt>
      <trkpt lat="50.46269" lon="3.58422">
        <ele>25</ele>
        <time>2022-04-10T10:30:29.546Z</time>
      </trkpt>
      <trkpt lat="50.46271" lon="3.58407">
        <ele>25.1</ele>
        <time>2022-04-10T10:30:31.675Z</time>
      </trkpt>
      <trkpt lat="50.46271" lon="3.58395">
        <ele>25.2</ele>
        <time>2022-04-10T10:30:33.830Z</time>
      </trkpt>
      <trkpt lat="50.46271" lon="3.58381">
        <ele>25.4</ele>
        <time>2022-04-10T10:30:36.000Z</time>
      </trkpt>
      <trkpt lat="50.46271" lon="3.5837">
        <ele>25.7</ele>
        <time>2022-04-10T10:30:37.966Z</time>
      </trkpt>
      <trkpt lat="50.46271" lon="3.58359">
        <ele>26</ele>
        <time>2022-04-10T10:30:40.000Z</time>
      </trkpt>
      <trkpt lat="50.4627" lon="3.58341">
        <ele>26</ele>
        <time>2022-04-10T10:30:42.730Z</time>
      </trkpt>
      <trkpt lat="50.4627" lon="3.58333">
        <ele>26</ele>
        <time>2022-04-10T10:30:44.000Z</time>
      </trkpt>
      <trkpt lat="50.46271" lon="3.58325">
        <ele>26</ele>
        <time>2022-04-10T10:30:45.000Z</time>
      </trkpt>
      <trkpt lat="50.4627" lon="3.58312">
        <ele>26</ele>
        <time>2022-04-10T10:30:47.000Z</time>
      </trkpt>
      <trkpt lat="50.46269" lon="3.583">
        <ele>26.1</ele>
        <time>2022-04-10T10:30:49.000Z</time>
      </trkpt>
      <trkpt lat="50.46269" lon="3.58292">
        <ele>26.3</ele>
        <time>2022-04-10T10:30:50.000Z</time>
      </trkpt>
      <trkpt lat="50.46268" lon="3.58284">
        <ele>26.5</ele>
        <time>2022-04-10T10:30:51.447Z</time>
      </trkpt>
      <trkpt lat="50.46266" lon="3.58274">
        <ele>26.6</ele>
        <time>2022-04-10T10:30:52.906Z</time>
      </trkpt>
      <trkpt lat="50.46265" lon="3.58264">
        <ele>26.5</ele>
        <time>2022-04-10T10:30:54.807Z</time>
      </trkpt>
      <trkpt lat="50.46262" lon="3.58251">
        <ele>26.4</ele>
        <time>2022-04-10T10:30:56.000Z</time>
      </trkpt>
      <trkpt lat="50.46262" lon="3.5824">
        <ele>26.4</ele>
        <time>2022-04-10T10:30:58.049Z</time>
      </trkpt>
      <trkpt lat="50.4626" lon="3.58228">
        <ele>26.3</ele>
        <time>2022-04-10T10:31:00.271Z</time>
      </trkpt>
      <trkpt lat="50.46258" lon="3.58221">
        <ele>26.3</ele>
        <time>2022-04-10T10:31:01.471Z</time>
      </trkpt>
      <trkpt lat="50.46256" lon="3.58213">
        <ele>26.5</ele>
        <time>2022-04-10T10:31:02.887Z</time>
      </trkpt>
      <trkpt lat="50.46253" lon="3.58203">
        <ele>26.7</ele>
        <time>2022-04-10T10:31:04.790Z</time>
      </trkpt>
      <trkpt lat="50.46251" lon="3.58195">
        <ele>27</ele>
        <time>2022-04-10T10:31:06.000Z</time>
      </trkpt>
      <trkpt lat="50.46246" lon="3.58184">
        <ele>26.9</ele>
        <time>2022-04-10T10:31:08.000Z</time>
      </trkpt>
      <trkpt lat="50.46242" lon="3.58172">
        <ele>26.7</ele>
        <time>2022-04-10T10:31:10.409Z</time>
      </trkpt>
      <trkpt lat="50.46238" lon="3.5816">
        <ele>26.8</ele>
        <time>2022-04-10T10:31:13.007Z</time>
      </trkpt>
      <trkpt lat="50.46235" lon="3.58151">
        <ele>27</ele>
        <time>2022-04-10T10:31:15.000Z</time>
      </trkpt>
      <trkpt lat="50.46233" lon="3.58141">
        <ele>27.3</ele>
        <time>2022-04-10T10:31:17.000Z</time>
      </trkpt>
      <trkpt lat="50.4623" lon="3.58133">
        <ele>27.3</ele>
        <time>2022-04-10T10:31:19.000Z</time>
      </trkpt>
      <trkpt lat="50.46227" lon="3.58126">
        <ele>27.2</ele>
        <time>2022-04-10T10:31:21.000Z</time>
      </trkpt>
      <trkpt lat="50.46223" lon="3.58118">
        <ele>27</ele>
        <time>2022-04-10T10:31:23.030Z</time>
      </trkpt>
      <trkpt lat="50.46218" lon="3.58108">
        <ele>27</ele>
        <time>2022-04-10T10:31:25.109Z</time>
      </trkpt>
      <trkpt lat="50.46213" lon="3.581">
        <ele>27.1</ele>
        <time>2022-04-10T10:31:26.772Z</time>
      </trkpt>
      <trkpt lat="50.46209" lon="3.58095">
        <ele>27.3</ele>
        <time>2022-04-10T10:31:27.946Z</time>
      </trkpt>
      <trkpt lat="50.46204" lon="3.58084">
        <ele>27.7</ele>
        <time>2022-04-10T10:31:30.169Z</time>
      </trkpt>
      <trkpt lat="50.462" lon="3.58079">
        <ele>27.8</ele>
        <time>2022-04-10T10:31:31.427Z</time>
      </trkpt>
      <trkpt lat="50.46195" lon="3.58069">
        <ele>28</ele>
        <time>2022-04-10T10:31:33.468Z</time>
      </trkpt>
      <trkpt lat="50.46191" lon="3.58062">
        <ele>27.9</ele>
        <time>2022-04-10T10:31:34.711Z</time>
      </trkpt>
      <trkpt lat="50.46187" lon="3.58056">
        <ele>27.7</ele>
        <time>2022-04-10T10:31:37.000Z</time>
      </trkpt>
      <trkpt lat="50.46183" lon="3.5805">
        <ele>27.6</ele>
        <time>2022-04-10T10:31:39.000Z</time>
      </trkpt>
      <trkpt lat="50.46177" lon="3.58038">
        <ele>27.4</ele>
        <time>2022-04-10T10:31:41.730Z</time>
      </trkpt>
      <trkpt lat="50.46168" lon="3.58033">
        <ele>27.1</ele>
        <time>2022-04-10T10:31:44.112Z</time>
      </trkpt>
      <trkpt lat="50.46161" lon="3.58028">
        <ele>27</ele>
        <time>2022-04-10T10:31:46.000Z</time>
      </trkpt>
      <trkpt lat="50.46154" lon="3.58018">
        <ele>27.4</ele>
        <time>2022-04-10T10:31:48.349Z</time>
      </trkpt>
      <trkpt lat="50.4615" lon="3.58014">
        <ele>27.5</ele>
        <time>2022-04-10T10:31:49.530Z</time>
      </trkpt>
      <trkpt lat="50.46145" lon="3.58007">
        <ele>27.7</ele>
        <time>2022-04-10T10:31:51.152Z</time>
      </trkpt>
      <trkpt lat="50.46141" lon="3.58002">
        <ele>27.9</ele>
        <time>2022-04-10T10:31:52.468Z</time>
      </trkpt>
      <trkpt lat="50.46136" lon="3.57996">
        <ele>28</ele>
        <time>2022-04-10T10:31:54.110Z</time>
      </trkpt>
      <trkpt lat="50.46129" lon="3.57988">
        <ele>28.1</ele>
        <time>2022-04-10T10:31:56.000Z</time>
      </trkpt>
      <trkpt lat="50.46123" lon="3.5798">
        <ele>28.1</ele>
        <time>2022-04-10T10:31:58.000Z</time>
      </trkpt>
      <trkpt lat="50.46117" lon="3.57972">
        <ele>28.2</ele>
        <time>2022-04-10T10:32:00.014Z</time>
      </trkpt>
      <trkpt lat="50.46111" lon="3.57964">
        <ele>28</ele>
        <time>2022-04-10T10:32:02.000Z</time>
      </trkpt>
      <trkpt lat="50.46105" lon="3.57956">
        <ele>27.9</ele>
        <time>2022-04-10T10:32:04.000Z</time>
      </trkpt>
      <trkpt lat="50.461" lon="3.57948">
        <ele>28</ele>
        <time>2022-04-10T10:32:06.000Z</time>
      </trkpt>
      <trkpt lat="50.46093" lon="3.57937">
        <ele>28.1</ele>
        <time>2022-04-10T10:32:08.308Z</time>
      </trkpt>
      <trkpt lat="50.46089" lon="3.57931">
        <ele>28.1</ele>
        <time>2022-04-10T10:32:09.747Z</time>
      </trkpt>
      <trkpt lat="50.46084" lon="3.57924">
        <ele>28</ele>
        <time>2022-04-10T10:32:11.749Z</time>
      </trkpt>
      <trkpt lat="50.4608" lon="3.57919">
        <ele>28</ele>
        <time>2022-04-10T10:32:12.911Z</time>
      </trkpt>
      <trkpt lat="50.46077" lon="3.57914">
        <ele>28</ele>
        <time>2022-04-10T10:32:14.000Z</time>
      </trkpt>
      <trkpt lat="50.4607" lon="3.57907">
        <ele>28</ele>
        <time>2022-04-10T10:32:16.128Z</time>
      </trkpt>
      <trkpt lat="50.46065" lon="3.57901">
        <ele>28</ele>
        <time>2022-04-10T10:32:17.973Z</time>
      </trkpt>
      <trkpt lat="50.46059" lon="3.57894">
        <ele>28</ele>
        <time>2022-04-10T10:32:20.000Z</time>
      </trkpt>
      <trkpt lat="50.46054" lon="3.57888">
        <ele>28</ele>
        <time>2022-04-10T10:32:22.000Z</time>
      </trkpt>
      <trkpt lat="50.46048" lon="3.57883">
        <ele>28.2</ele>
        <time>2022-04-10T10:32:24.000Z</time>
      </trkpt>
      <trkpt lat="50.46041" lon="3.57874">
        <ele>28.5</ele>
        <time>2022-04-10T10:32:27.000Z</time>
      </trkpt>
      <trkpt lat="50.46036" lon="3.57866">
        <ele>28.8</ele>
        <time>2022-04-10T10:32:29.000Z</time>
      </trkpt>
      <trkpt lat="50.46031" lon="3.57859">
        <ele>29</ele>
        <time>2022-04-10T10:32:31.010Z</time>
      </trkpt>
      <trkpt lat="50.46029" lon="3.57853">
        <ele>29</ele>
        <time>2022-04-10T10:32:33.000Z</time>
      </trkpt>
      <trkpt lat="50.46026" lon="3.57841">
        <ele>29</ele>
        <time>2022-04-10T10:32:37.000Z</time>
      </trkpt>
      <trkpt lat="50.46022" lon="3.57832">
        <ele>29</ele>
        <time>2022-04-10T10:32:39.089Z</time>
      </trkpt>
      <trkpt lat="50.46016" lon="3.57827">
        <ele>29</ele>
        <time>2022-04-10T10:32:41.000Z</time>
      </trkpt>
      <trkpt lat="50.46008" lon="3.57819">
        <ele>29</ele>
        <time>2022-04-10T10:32:43.228Z</time>
      </trkpt>
      <trkpt lat="50.46002" lon="3.57812">
        <ele>29</ele>
        <time>2022-04-10T10:32:45.067Z</time>
      </trkpt>
      <trkpt lat="50.45997" lon="3.57803">
        <ele>29</ele>
        <time>2022-04-10T10:32:46.000Z</time>
      </trkpt>
      <trkpt lat="50.45992" lon="3.57797">
        <ele>29</ele>
        <time>2022-04-10T10:32:48.000Z</time>
      </trkpt>
      <trkpt lat="50.45987" lon="3.57786">
        <ele>29</ele>
        <time>2022-04-10T10:32:50.000Z</time>
      </trkpt>
      <trkpt lat="50.45984" lon="3.57782">
        <ele>29</ele>
        <time>2022-04-10T10:32:51.000Z</time>
      </trkpt>
      <trkpt lat="50.4598" lon="3.57776">
        <ele>29</ele>
        <time>2022-04-10T10:32:52.000Z</time>
      </trkpt>
      <trkpt lat="50.45976" lon="3.57772">
        <ele>29</ele>
        <time>2022-04-10T10:32:53.000Z</time>
      </trkpt>
      <trkpt lat="50.45973" lon="3.57768">
        <ele>29</ele>
        <time>2022-04-10T10:32:54.000Z</time>
      </trkpt>
      <trkpt lat="50.45969" lon="3.57763">
        <ele>29</ele>
        <time>2022-04-10T10:32:55.000Z</time>
      </trkpt>
      <trkpt lat="50.45965" lon="3.57757">
        <ele>29</ele>
        <time>2022-04-10T10:32:56.000Z</time>
      </trkpt>
      <trkpt lat="50.45961" lon="3.57751">
        <ele>29</ele>
        <time>2022-04-10T10:32:57.000Z</time>
      </trkpt>
      <trkpt lat="50.45958" lon="3.57746">
        <ele>29</ele>
        <time>2022-04-10T10:32:58.000Z</time>
      </trkpt>
      <trkpt lat="50.45954" lon="3.57741">
        <ele>29</ele>
        <time>2022-04-10T10:32:59.000Z</time>
      </trkpt>
      <trkpt lat="50.4595" lon="3.57735">
        <ele>29</ele>
        <time>2022-04-10T10:33:00.000Z</time>
      </trkpt>
      <trkpt lat="50.45947" lon="3.57731">
        <ele>29</ele>
        <time>2022-04-10T10:33:01.000Z</time>
      </trkpt>
      <trkpt lat="50.45943" lon="3.57726">
        <ele>29</ele>
        <time>2022-04-10T10:33:02.000Z</time>
      </trkpt>
      <trkpt lat="50.45939" lon="3.57721">
        <ele>29</ele>
        <time>2022-04-10T10:33:03.000Z</time>
      </trkpt>
      <trkpt lat="50.45935" lon="3.57716">
        <ele>29</ele>
        <time>2022-04-10T10:33:04.000Z</time>
      </trkpt>
      <trkpt lat="50.45932" lon="3.57712">
        <ele>29</ele>
        <time>2022-04-10T10:33:05.000Z</time>
      </trkpt>
      <trkpt lat="50.45928" lon="3.57708">
        <ele>29</ele>
        <time>2022-04-10T10:33:06.000Z</time>
      </trkpt>
      <trkpt lat="50.45924" lon="3.57703">
        <ele>29</ele>
        <time>2022-04-10T10:33:07.000Z</time>
      </trkpt>
      <trkpt lat="50.4592" lon="3.57699">
        <ele>29</ele>
        <time>2022-04-10T10:33:08.000Z</time>
      </trkpt>
      <trkpt lat="50.45916" lon="3.57693">
        <ele>29</ele>
        <time>2022-04-10T10:33:09.000Z</time>
      </trkpt>
      <trkpt lat="50.45913" lon="3.57687">
        <ele>29</ele>
        <time>2022-04-10T10:33:10.000Z</time>
      </trkpt>
      <trkpt lat="50.45908" lon="3.57679">
        <ele>29</ele>
        <time>2022-04-10T10:33:11.000Z</time>
      </trkpt>
      <trkpt lat="50.45905" lon="3.57674">
        <ele>29</ele>
        <time>2022-04-10T10:33:12.000Z</time>
      </trkpt>
      <trkpt lat="50.45897" lon="3.57661">
        <ele>28.9</ele>
        <time>2022-04-10T10:33:14.000Z</time>
      </trkpt>
      <trkpt lat="50.4589" lon="3.57652">
        <ele>28.5</ele>
        <time>2022-04-10T10:33:16.000Z</time>
      </trkpt>
      <trkpt lat="50.45884" lon="3.57645">
        <ele>28.2</ele>
        <time>2022-04-10T10:33:18.000Z</time>
      </trkpt>
      <trkpt lat="50.45879" lon="3.57639">
        <ele>28</ele>
        <time>2022-04-10T10:33:19.000Z</time>
      </trkpt>
      <trkpt lat="50.45871" lon="3.57628">
        <ele>28</ele>
        <time>2022-04-10T10:33:21.000Z</time>
      </trkpt>
      <trkpt lat="50.45866" lon="3.57621">
        <ele>28</ele>
        <time>2022-04-10T10:33:23.000Z</time>
      </trkpt>
      <trkpt lat="50.45862" lon="3.57615">
        <ele>28</ele>
        <time>2022-04-10T10:33:24.000Z</time>
      </trkpt>
      <trkpt lat="50.45856" lon="3.57605">
        <ele>28</ele>
        <time>2022-04-10T10:33:25.979Z</time>
      </trkpt>
      <trkpt lat="50.45851" lon="3.57595">
        <ele>27.8</ele>
        <time>2022-04-10T10:33:28.137Z</time>
      </trkpt>
      <trkpt lat="50.45843" lon="3.5759">
        <ele>27.5</ele>
        <time>2022-04-10T10:33:30.000Z</time>
      </trkpt>
      <trkpt lat="50.45837" lon="3.57582">
        <ele>27.1</ele>
        <time>2022-04-10T10:33:32.000Z</time>
      </trkpt>
      <trkpt lat="50.45833" lon="3.57576">
        <ele>27</ele>
        <time>2022-04-10T10:33:33.000Z</time>
      </trkpt>
      <trkpt lat="50.45829" lon="3.57571">
        <ele>27</ele>
        <time>2022-04-10T10:33:34.000Z</time>
      </trkpt>
      <trkpt lat="50.45825" lon="3.57567">
        <ele>27</ele>
        <time>2022-04-10T10:33:35.000Z</time>
      </trkpt>
      <trkpt lat="50.45821" lon="3.57562">
        <ele>27</ele>
        <time>2022-04-10T10:33:36.000Z</time>
      </trkpt>
      <trkpt lat="50.45817" lon="3.57558">
        <ele>27</ele>
        <time>2022-04-10T10:33:37.000Z</time>
      </trkpt>
      <trkpt lat="50.45813" lon="3.57553">
        <ele>27</ele>
        <time>2022-04-10T10:33:38.000Z</time>
      </trkpt>
      <trkpt lat="50.4581" lon="3.57547">
        <ele>27</ele>
        <time>2022-04-10T10:33:39.509Z</time>
      </trkpt>
      <trkpt lat="50.45804" lon="3.57533">
        <ele>27</ele>
        <time>2022-04-10T10:33:41.170Z</time>
      </trkpt>
      <trkpt lat="50.458" lon="3.57527">
        <ele>27</ele>
        <time>2022-04-10T10:33:43.000Z</time>
      </trkpt>
      <trkpt lat="50.458" lon="3.57513">
        <ele>27</ele>
        <time>2022-04-10T10:33:45.000Z</time>
      </trkpt>
      <trkpt lat="50.45796" lon="3.57504">
        <ele>27</ele>
        <time>2022-04-10T10:33:47.000Z</time>
      </trkpt>
      <trkpt lat="50.45789" lon="3.57498">
        <ele>26.9</ele>
        <time>2022-04-10T10:33:48.570Z</time>
      </trkpt>
      <trkpt lat="50.45784" lon="3.57497">
        <ele>26.9</ele>
        <time>2022-04-10T10:33:49.950Z</time>
      </trkpt>
      <trkpt lat="50.45776" lon="3.57498">
        <ele>26.9</ele>
        <time>2022-04-10T10:33:52.000Z</time>
      </trkpt>
      <trkpt lat="50.45771" lon="3.57498">
        <ele>26.7</ele>
        <time>2022-04-10T10:33:53.000Z</time>
      </trkpt>
      <trkpt lat="50.45766" lon="3.57498">
        <ele>26.5</ele>
        <time>2022-04-10T10:33:54.000Z</time>
      </trkpt>
      <trkpt lat="50.45762" lon="3.57499">
        <ele>26.4</ele>
        <time>2022-04-10T10:33:55.035Z</time>
      </trkpt>
      <trkpt lat="50.45756" lon="3.575">
        <ele>26.2</ele>
        <time>2022-04-10T10:33:56.000Z</time>
      </trkpt>
      <trkpt lat="50.4575" lon="3.57502">
        <ele>26</ele>
        <time>2022-04-10T10:33:57.000Z</time>
      </trkpt>
      <trkpt lat="50.45744" lon="3.57502">
        <ele>25.8</ele>
        <time>2022-04-10T10:33:58.000Z</time>
      </trkpt>
      <trkpt lat="50.45739" lon="3.57503">
        <ele>25.6</ele>
        <time>2022-04-10T10:33:59.000Z</time>
      </trkpt>
      <trkpt lat="50.45733" lon="3.57504">
        <ele>25.4</ele>
        <time>2022-04-10T10:34:00.000Z</time>
      </trkpt>
      <trkpt lat="50.45728" lon="3.57505">
        <ele>25.2</ele>
        <time>2022-04-10T10:34:01.000Z</time>
      </trkpt>
      <trkpt lat="50.45722" lon="3.57506">
        <ele>25</ele>
        <time>2022-04-10T10:34:02.000Z</time>
      </trkpt>
      <trkpt lat="50.45714" lon="3.57506">
        <ele>25</ele>
        <time>2022-04-10T10:34:03.000Z</time>
      </trkpt>
      <trkpt lat="50.45709" lon="3.57506">
        <ele>25</ele>
        <time>2022-04-10T10:34:04.000Z</time>
      </trkpt>
      <trkpt lat="50.45702" lon="3.57505">
        <ele>25</ele>
        <time>2022-04-10T10:34:05.000Z</time>
      </trkpt>
      <trkpt lat="50.45691" lon="3.57504">
        <ele>25</ele>
        <time>2022-04-10T10:34:07.000Z</time>
      </trkpt>
      <trkpt lat="50.45683" lon="3.57502">
        <ele>25</ele>
        <time>2022-04-10T10:34:09.000Z</time>
      </trkpt>
      <trkpt lat="50.45677" lon="3.575">
        <ele>25</ele>
        <time>2022-04-10T10:34:11.075Z</time>
      </trkpt>
      <trkpt lat="50.4567" lon="3.57501">
        <ele>25</ele>
        <time>2022-04-10T10:34:13.000Z</time>
      </trkpt>
      <trkpt lat="50.45662" lon="3.575">
        <ele>24.8</ele>
        <time>2022-04-10T10:34:15.000Z</time>
      </trkpt>
      <trkpt lat="50.45655" lon="3.57499">
        <ele>24.6</ele>
        <time>2022-04-10T10:34:17.642Z</time>
      </trkpt>
      <trkpt lat="50.45649" lon="3.57501">
        <ele>24.4</ele>
        <time>2022-04-10T10:34:19.000Z</time>
      </trkpt>
      <trkpt lat="50.45644" lon="3.57501">
        <ele>24.2</ele>
        <time>2022-04-10T10:34:20.000Z</time>
      </trkpt>
      <trkpt lat="50.45638" lon="3.575">
        <ele>24</ele>
        <time>2022-04-10T10:34:21.000Z</time>
      </trkpt>
      <trkpt lat="50.45632" lon="3.57501">
        <ele>24</ele>
        <time>2022-04-10T10:34:22.000Z</time>
      </trkpt>
      <trkpt lat="50.45627" lon="3.57502">
        <ele>24</ele>
        <time>2022-04-10T10:34:23.000Z</time>
      </trkpt>
      <trkpt lat="50.4562" lon="3.57503">
        <ele>24</ele>
        <time>2022-04-10T10:34:24.000Z</time>
      </trkpt>
      <trkpt lat="50.4561" lon="3.57505">
        <ele>24</ele>
        <time>2022-04-10T10:34:26.000Z</time>
      </trkpt>
      <trkpt lat="50.45605" lon="3.57506">
        <ele>24</ele>
        <time>2022-04-10T10:34:27.000Z</time>
      </trkpt>
      <trkpt lat="50.456" lon="3.57506">
        <ele>24</ele>
        <time>2022-04-10T10:34:28.000Z</time>
      </trkpt>
      <trkpt lat="50.45595" lon="3.57506">
        <ele>24</ele>
        <time>2022-04-10T10:34:29.000Z</time>
      </trkpt>
      <trkpt lat="50.4559" lon="3.57507">
        <ele>24</ele>
        <time>2022-04-10T10:34:30.000Z</time>
      </trkpt>
      <trkpt lat="50.45584" lon="3.57508">
        <ele>24</ele>
        <time>2022-04-10T10:34:31.000Z</time>
      </trkpt>
      <trkpt lat="50.45579" lon="3.57509">
        <ele>24</ele>
        <time>2022-04-10T10:34:32.000Z</time>
      </trkpt>
      <trkpt lat="50.45574" lon="3.57509">
        <ele>24</ele>
        <time>2022-04-10T10:34:33.000Z</time>
      </trkpt>
      <trkpt lat="50.45566" lon="3.5751">
        <ele>24</ele>
        <time>2022-04-10T10:34:35.005Z</time>
      </trkpt>
      <trkpt lat="50.45561" lon="3.57511">
        <ele>24</ele>
        <time>2022-04-10T10:34:36.000Z</time>
      </trkpt>
      <trkpt lat="50.45556" lon="3.57512">
        <ele>24</ele>
        <time>2022-04-10T10:34:37.000Z</time>
      </trkpt>
      <trkpt lat="50.45551" lon="3.57513">
        <ele>24</ele>
        <time>2022-04-10T10:34:38.000Z</time>
      </trkpt>
      <trkpt lat="50.45546" lon="3.57514">
        <ele>24</ele>
        <time>2022-04-10T10:34:39.000Z</time>
      </trkpt>
      <trkpt lat="50.45541" lon="3.57514">
        <ele>24</ele>
        <time>2022-04-10T10:34:40.000Z</time>
      </trkpt>
      <trkpt lat="50.45536" lon="3.57515">
        <ele>24</ele>
        <time>2022-04-10T10:34:41.000Z</time>
      </trkpt>
      <trkpt lat="50.45528" lon="3.57517">
        <ele>24</ele>
        <time>2022-04-10T10:34:43.000Z</time>
      </trkpt>
      <trkpt lat="50.45521" lon="3.57519">
        <ele>24</ele>
        <time>2022-04-10T10:34:45.000Z</time>
      </trkpt>
      <trkpt lat="50.45516" lon="3.57521">
        <ele>24</ele>
        <time>2022-04-10T10:34:46.000Z</time>
      </trkpt>
      <trkpt lat="50.45512" lon="3.57522">
        <ele>24</ele>
        <time>2022-04-10T10:34:47.000Z</time>
      </trkpt>
      <trkpt lat="50.45504" lon="3.57526">
        <ele>24</ele>
        <time>2022-04-10T10:34:49.000Z</time>
      </trkpt>
      <trkpt lat="50.455" lon="3.57528">
        <ele>24</ele>
        <time>2022-04-10T10:34:50.000Z</time>
      </trkpt>
      <trkpt lat="50.45496" lon="3.57531">
        <ele>24</ele>
        <time>2022-04-10T10:34:51.000Z</time>
      </trkpt>
      <trkpt lat="50.45488" lon="3.57534">
        <ele>24</ele>
        <time>2022-04-10T10:34:52.966Z</time>
      </trkpt>
      <trkpt lat="50.45481" lon="3.57532">
        <ele>24</ele>
        <time>2022-04-10T10:34:56.750Z</time>
      </trkpt>
      <trkpt lat="50.45475" lon="3.57535">
        <ele>24</ele>
        <time>2022-04-10T10:34:58.808Z</time>
      </trkpt>
      <trkpt lat="50.45467" lon="3.5754">
        <ele>23.8</ele>
        <time>2022-04-10T10:35:01.000Z</time>
      </trkpt>
      <trkpt lat="50.4546" lon="3.57546">
        <ele>23.6</ele>
        <time>2022-04-10T10:35:03.000Z</time>
      </trkpt>
      <trkpt lat="50.45453" lon="3.5755">
        <ele>23.3</ele>
        <time>2022-04-10T10:35:04.809Z</time>
      </trkpt>
      <trkpt lat="50.45446" lon="3.57556">
        <ele>23.1</ele>
        <time>2022-04-10T10:35:06.000Z</time>
      </trkpt>
      <trkpt lat="50.45441" lon="3.5756">
        <ele>23</ele>
        <time>2022-04-10T10:35:07.000Z</time>
      </trkpt>
      <trkpt lat="50.45437" lon="3.57564">
        <ele>23</ele>
        <time>2022-04-10T10:35:08.000Z</time>
      </trkpt>
      <trkpt lat="50.45432" lon="3.57568">
        <ele>23</ele>
        <time>2022-04-10T10:35:09.000Z</time>
      </trkpt>
      <trkpt lat="50.45428" lon="3.57571">
        <ele>23</ele>
        <time>2022-04-10T10:35:10.000Z</time>
      </trkpt>
      <trkpt lat="50.45424" lon="3.57575">
        <ele>23</ele>
        <time>2022-04-10T10:35:11.000Z</time>
      </trkpt>
      <trkpt lat="50.4542" lon="3.57578">
        <ele>22.9</ele>
        <time>2022-04-10T10:35:12.000Z</time>
      </trkpt>
      <trkpt lat="50.45415" lon="3.57582">
        <ele>22.8</ele>
        <time>2022-04-10T10:35:13.000Z</time>
      </trkpt>
      <trkpt lat="50.4541" lon="3.57586">
        <ele>22.5</ele>
        <time>2022-04-10T10:35:14.000Z</time>
      </trkpt>
      <trkpt lat="50.45405" lon="3.57591">
        <ele>22.3</ele>
        <time>2022-04-10T10:35:15.000Z</time>
      </trkpt>
      <trkpt lat="50.45401" lon="3.57596">
        <ele>22.1</ele>
        <time>2022-04-10T10:35:16.000Z</time>
      </trkpt>
      <trkpt lat="50.45396" lon="3.57601">
        <ele>22</ele>
        <time>2022-04-10T10:35:17.000Z</time>
      </trkpt>
      <trkpt lat="50.45392" lon="3.57607">
        <ele>22</ele>
        <time>2022-04-10T10:35:18.000Z</time>
      </trkpt>
      <trkpt lat="50.45387" lon="3.57614">
        <ele>21.9</ele>
        <time>2022-04-10T10:35:19.000Z</time>
      </trkpt>
      <trkpt lat="50.45383" lon="3.57619">
        <ele>21.8</ele>
        <time>2022-04-10T10:35:20.000Z</time>
      </trkpt>
      <trkpt lat="50.4538" lon="3.57626">
        <ele>21.7</ele>
        <time>2022-04-10T10:35:21.000Z</time>
      </trkpt>
      <trkpt lat="50.45376" lon="3.57632">
        <ele>21.7</ele>
        <time>2022-04-10T10:35:22.000Z</time>
      </trkpt>
      <trkpt lat="50.4537" lon="3.57641">
        <ele>21.7</ele>
        <time>2022-04-10T10:35:23.000Z</time>
      </trkpt>
      <trkpt lat="50.45367" lon="3.57647">
        <ele>21.7</ele>
        <time>2022-04-10T10:35:24.000Z</time>
      </trkpt>
      <trkpt lat="50.45364" lon="3.57653">
        <ele>21.7</ele>
        <time>2022-04-10T10:35:25.000Z</time>
      </trkpt>
      <trkpt lat="50.4536" lon="3.57665">
        <ele>21.7</ele>
        <time>2022-04-10T10:35:27.000Z</time>
      </trkpt>
      <trkpt lat="50.45353" lon="3.57678">
        <ele>21.2</ele>
        <time>2022-04-10T10:35:29.000Z</time>
      </trkpt>
      <trkpt lat="50.4535" lon="3.57683">
        <ele>21.2</ele>
        <time>2022-04-10T10:35:30.000Z</time>
      </trkpt>
      <trkpt lat="50.45347" lon="3.5769">
        <ele>21.2</ele>
        <time>2022-04-10T10:35:31.000Z</time>
      </trkpt>
      <trkpt lat="50.45343" lon="3.57696">
        <ele>21.4</ele>
        <time>2022-04-10T10:35:32.000Z</time>
      </trkpt>
      <trkpt lat="50.45335" lon="3.57709">
        <ele>21.6</ele>
        <time>2022-04-10T10:35:34.000Z</time>
      </trkpt>
      <trkpt lat="50.45332" lon="3.57716">
        <ele>21.6</ele>
        <time>2022-04-10T10:35:35.000Z</time>
      </trkpt>
      <trkpt lat="50.45328" lon="3.57723">
        <ele>21.6</ele>
        <time>2022-04-10T10:35:36.000Z</time>
      </trkpt>
      <trkpt lat="50.45324" lon="3.5773">
        <ele>21.4</ele>
        <time>2022-04-10T10:35:37.000Z</time>
      </trkpt>
      <trkpt lat="50.4532" lon="3.57738">
        <ele>21.3</ele>
        <time>2022-04-10T10:35:38.000Z</time>
      </trkpt>
      <trkpt lat="50.45317" lon="3.57746">
        <ele>21.3</ele>
        <time>2022-04-10T10:35:39.000Z</time>
      </trkpt>
      <trkpt lat="50.45314" lon="3.57753">
        <ele>21.3</ele>
        <time>2022-04-10T10:35:40.000Z</time>
      </trkpt>
      <trkpt lat="50.4531" lon="3.5776">
        <ele>21.2</ele>
        <time>2022-04-10T10:35:41.000Z</time>
      </trkpt>
      <trkpt lat="50.45307" lon="3.57767">
        <ele>21</ele>
        <time>2022-04-10T10:35:42.000Z</time>
      </trkpt>
      <trkpt lat="50.45304" lon="3.57773">
        <ele>20.9</ele>
        <time>2022-04-10T10:35:43.000Z</time>
      </trkpt>
      <trkpt lat="50.453" lon="3.5778">
        <ele>20.9</ele>
        <time>2022-04-10T10:35:44.000Z</time>
      </trkpt>
      <trkpt lat="50.45297" lon="3.57785">
        <ele>21</ele>
        <time>2022-04-10T10:35:45.000Z</time>
      </trkpt>
      <trkpt lat="50.45294" lon="3.57791">
        <ele>21</ele>
        <time>2022-04-10T10:35:46.000Z</time>
      </trkpt>
      <trkpt lat="50.4529" lon="3.57797">
        <ele>21.1</ele>
        <time>2022-04-10T10:35:47.000Z</time>
      </trkpt>
      <trkpt lat="50.45288" lon="3.57804">
        <ele>21.3</ele>
        <time>2022-04-10T10:35:48.000Z</time>
      </trkpt>
      <trkpt lat="50.45283" lon="3.57812">
        <ele>21.2</ele>
        <time>2022-04-10T10:35:50.000Z</time>
      </trkpt>
      <trkpt lat="50.4528" lon="3.57819">
        <ele>21.1</ele>
        <time>2022-04-10T10:35:52.000Z</time>
      </trkpt>
      <trkpt lat="50.45277" lon="3.57825">
        <ele>21</ele>
        <time>2022-04-10T10:35:54.000Z</time>
      </trkpt>
      <trkpt lat="50.4527" lon="3.57835">
        <ele>20.8</ele>
        <time>2022-04-10T10:35:56.198Z</time>
      </trkpt>
      <trkpt lat="50.45265" lon="3.57846">
        <ele>21</ele>
        <time>2022-04-10T10:35:57.896Z</time>
      </trkpt>
      <trkpt lat="50.45262" lon="3.57852">
        <ele>21.1</ele>
        <time>2022-04-10T10:35:59.039Z</time>
      </trkpt>
      <trkpt lat="50.4526" lon="3.57859">
        <ele>21.3</ele>
        <time>2022-04-10T10:36:00.000Z</time>
      </trkpt>
      <trkpt lat="50.45256" lon="3.57866">
        <ele>21.3</ele>
        <time>2022-04-10T10:36:01.000Z</time>
      </trkpt>
      <trkpt lat="50.45251" lon="3.57877">
        <ele>21</ele>
        <time>2022-04-10T10:36:03.000Z</time>
      </trkpt>
      <trkpt lat="50.45247" lon="3.57886">
        <ele>20.8</ele>
        <time>2022-04-10T10:36:04.560Z</time>
      </trkpt>
      <trkpt lat="50.45241" lon="3.57895">
        <ele>20.6</ele>
        <time>2022-04-10T10:36:06.244Z</time>
      </trkpt>
      <trkpt lat="50.45236" lon="3.57903">
        <ele>20.5</ele>
        <time>2022-04-10T10:36:07.532Z</time>
      </trkpt>
      <trkpt lat="50.4523" lon="3.57911">
        <ele>20.4</ele>
        <time>2022-04-10T10:36:09.000Z</time>
      </trkpt>
      <trkpt lat="50.45224" lon="3.57924">
        <ele>20.4</ele>
        <time>2022-04-10T10:36:11.000Z</time>
      </trkpt>
      <trkpt lat="50.45221" lon="3.57931">
        <ele>20.5</ele>
        <time>2022-04-10T10:36:12.000Z</time>
      </trkpt>
      <trkpt lat="50.45218" lon="3.57939">
        <ele>20.9</ele>
        <time>2022-04-10T10:36:13.000Z</time>
      </trkpt>
      <trkpt lat="50.45215" lon="3.57945">
        <ele>21.3</ele>
        <time>2022-04-10T10:36:14.000Z</time>
      </trkpt>
      <trkpt lat="50.45212" lon="3.57952">
        <ele>21.3</ele>
        <time>2022-04-10T10:36:15.000Z</time>
      </trkpt>
      <trkpt lat="50.45206" lon="3.57966">
        <ele>21.1</ele>
        <time>2022-04-10T10:36:17.000Z</time>
      </trkpt>
      <trkpt lat="50.45203" lon="3.57972">
        <ele>21</ele>
        <time>2022-04-10T10:36:18.000Z</time>
      </trkpt>
      <trkpt lat="50.45194" lon="3.57986">
        <ele>21</ele>
        <time>2022-04-10T10:36:19.962Z</time>
      </trkpt>
      <trkpt lat="50.4519" lon="3.57996">
        <ele>20.6</ele>
        <time>2022-04-10T10:36:22.000Z</time>
      </trkpt>
      <trkpt lat="50.45185" lon="3.58008">
        <ele>20.1</ele>
        <time>2022-04-10T10:36:24.000Z</time>
      </trkpt>
      <trkpt lat="50.4518" lon="3.5802">
        <ele>19.8</ele>
        <time>2022-04-10T10:36:26.000Z</time>
      </trkpt>
      <trkpt lat="50.45177" lon="3.58027">
        <ele>19.7</ele>
        <time>2022-04-10T10:36:27.000Z</time>
      </trkpt>
      <trkpt lat="50.45173" lon="3.58033">
        <ele>19.8</ele>
        <time>2022-04-10T10:36:28.000Z</time>
      </trkpt>
      <trkpt lat="50.45171" lon="3.58038">
        <ele>20</ele>
        <time>2022-04-10T10:36:29.000Z</time>
      </trkpt>
      <trkpt lat="50.45167" lon="3.58046">
        <ele>20.3</ele>
        <time>2022-04-10T10:36:31.000Z</time>
      </trkpt>
      <trkpt lat="50.45163" lon="3.58052">
        <ele>20.3</ele>
        <time>2022-04-10T10:36:33.451Z</time>
      </trkpt>
      <trkpt lat="50.45158" lon="3.58061">
        <ele>20.2</ele>
        <time>2022-04-10T10:36:34.810Z</time>
      </trkpt>
      <trkpt lat="50.45155" lon="3.58069">
        <ele>19.9</ele>
        <time>2022-04-10T10:36:36.000Z</time>
      </trkpt>
      <trkpt lat="50.4515" lon="3.58079">
        <ele>19.7</ele>
        <time>2022-04-10T10:36:37.000Z</time>
      </trkpt>
      <trkpt lat="50.45147" lon="3.58085">
        <ele>19.6</ele>
        <time>2022-04-10T10:36:38.030Z</time>
      </trkpt>
      <trkpt lat="50.45145" lon="3.58091">
        <ele>19.7</ele>
        <time>2022-04-10T10:36:39.000Z</time>
      </trkpt>
      <trkpt lat="50.45143" lon="3.58098">
        <ele>19.8</ele>
        <time>2022-04-10T10:36:40.000Z</time>
      </trkpt>
      <trkpt lat="50.45139" lon="3.58104">
        <ele>19.7</ele>
        <time>2022-04-10T10:36:41.172Z</time>
      </trkpt>
      <trkpt lat="50.45132" lon="3.58115">
        <ele>19.6</ele>
        <time>2022-04-10T10:36:43.000Z</time>
      </trkpt>
      <trkpt lat="50.45129" lon="3.5812">
        <ele>19.5</ele>
        <time>2022-04-10T10:36:44.000Z</time>
      </trkpt>
      <trkpt lat="50.45126" lon="3.58125">
        <ele>19.3</ele>
        <time>2022-04-10T10:36:45.000Z</time>
      </trkpt>
      <trkpt lat="50.45123" lon="3.58131">
        <ele>19.1</ele>
        <time>2022-04-10T10:36:46.000Z</time>
      </trkpt>
      <trkpt lat="50.45117" lon="3.58141">
        <ele>18.7</ele>
        <time>2022-04-10T10:36:48.069Z</time>
      </trkpt>
      <trkpt lat="50.45112" lon="3.58147">
        <ele>18.7</ele>
        <time>2022-04-10T10:36:49.000Z</time>
      </trkpt>
      <trkpt lat="50.45103" lon="3.58161">
        <ele>19</ele>
        <time>2022-04-10T10:36:52.028Z</time>
      </trkpt>
      <trkpt lat="50.45097" lon="3.58169">
        <ele>19.1</ele>
        <time>2022-04-10T10:36:54.000Z</time>
      </trkpt>
      <trkpt lat="50.45091" lon="3.58178">
        <ele>18.9</ele>
        <time>2022-04-10T10:36:55.971Z</time>
      </trkpt>
      <trkpt lat="50.45087" lon="3.58183">
        <ele>18.9</ele>
        <time>2022-04-10T10:36:57.000Z</time>
      </trkpt>
      <trkpt lat="50.45084" lon="3.58189">
        <ele>18.8</ele>
        <time>2022-04-10T10:36:58.000Z</time>
      </trkpt>
      <trkpt lat="50.45079" lon="3.58196">
        <ele>18.7</ele>
        <time>2022-04-10T10:36:59.000Z</time>
      </trkpt>
      <trkpt lat="50.45074" lon="3.58202">
        <ele>18.6</ele>
        <time>2022-04-10T10:37:00.000Z</time>
      </trkpt>
      <trkpt lat="50.45066" lon="3.58212">
        <ele>18.4</ele>
        <time>2022-04-10T10:37:02.388Z</time>
      </trkpt>
      <trkpt lat="50.45062" lon="3.58217">
        <ele>18.3</ele>
        <time>2022-04-10T10:37:03.489Z</time>
      </trkpt>
      <trkpt lat="50.45054" lon="3.58227">
        <ele>18.1</ele>
        <time>2022-04-10T10:37:06.000Z</time>
      </trkpt>
      <trkpt lat="50.4505" lon="3.58232">
        <ele>18.2</ele>
        <time>2022-04-10T10:37:07.000Z</time>
      </trkpt>
      <trkpt lat="50.45043" lon="3.5824">
        <ele>18.2</ele>
        <time>2022-04-10T10:37:09.000Z</time>
      </trkpt>
      <trkpt lat="50.45041" lon="3.58247">
        <ele>18.4</ele>
        <time>2022-04-10T10:37:10.000Z</time>
      </trkpt>
      <trkpt lat="50.45032" lon="3.58254">
        <ele>18.2</ele>
        <time>2022-04-10T10:37:12.288Z</time>
      </trkpt>
      <trkpt lat="50.45027" lon="3.58258">
        <ele>18</ele>
        <time>2022-04-10T10:37:13.848Z</time>
      </trkpt>
      <trkpt lat="50.45023" lon="3.58262">
        <ele>18</ele>
        <time>2022-04-10T10:37:14.991Z</time>
      </trkpt>
      <trkpt lat="50.45016" lon="3.58269">
        <ele>18</ele>
        <time>2022-04-10T10:37:17.000Z</time>
      </trkpt>
      <trkpt lat="50.45012" lon="3.58272">
        <ele>18</ele>
        <time>2022-04-10T10:37:18.000Z</time>
      </trkpt>
      <trkpt lat="50.45005" lon="3.5828">
        <ele>18</ele>
        <time>2022-04-10T10:37:20.000Z</time>
      </trkpt>
      <trkpt lat="50.44998" lon="3.58287">
        <ele>18.1</ele>
        <time>2022-04-10T10:37:22.128Z</time>
      </trkpt>
      <trkpt lat="50.44992" lon="3.58291">
        <ele>18.3</ele>
        <time>2022-04-10T10:37:23.589Z</time>
      </trkpt>
      <trkpt lat="50.44988" lon="3.58297">
        <ele>18.4</ele>
        <time>2022-04-10T10:37:25.047Z</time>
      </trkpt>
      <trkpt lat="50.44984" lon="3.58301">
        <ele>18.6</ele>
        <time>2022-04-10T10:37:26.071Z</time>
      </trkpt>
      <trkpt lat="50.44976" lon="3.58308">
        <ele>18.9</ele>
        <time>2022-04-10T10:37:28.000Z</time>
      </trkpt>
      <trkpt lat="50.44969" lon="3.58314">
        <ele>19</ele>
        <time>2022-04-10T10:37:29.887Z</time>
      </trkpt>
      <trkpt lat="50.44965" lon="3.58317">
        <ele>19</ele>
        <time>2022-04-10T10:37:31.000Z</time>
      </trkpt>
      <trkpt lat="50.44957" lon="3.58322">
        <ele>19</ele>
        <time>2022-04-10T10:37:33.000Z</time>
      </trkpt>
      <trkpt lat="50.44949" lon="3.58327">
        <ele>19</ele>
        <time>2022-04-10T10:37:35.211Z</time>
      </trkpt>
      <trkpt lat="50.44944" lon="3.58331">
        <ele>19</ele>
        <time>2022-04-10T10:37:36.711Z</time>
      </trkpt>
      <trkpt lat="50.44936" lon="3.58337">
        <ele>19</ele>
        <time>2022-04-10T10:37:39.000Z</time>
      </trkpt>
      <trkpt lat="50.44929" lon="3.5834">
        <ele>19</ele>
        <time>2022-04-10T10:37:40.000Z</time>
      </trkpt>
      <trkpt lat="50.44923" lon="3.58343">
        <ele>19</ele>
        <time>2022-04-10T10:37:41.087Z</time>
      </trkpt>
      <trkpt lat="50.44915" lon="3.58349">
        <ele>19</ele>
        <time>2022-04-10T10:37:43.606Z</time>
      </trkpt>
      <trkpt lat="50.4491" lon="3.58355">
        <ele>19</ele>
        <time>2022-04-10T10:37:44.806Z</time>
      </trkpt>
      <trkpt lat="50.44902" lon="3.58361">
        <ele>19</ele>
        <time>2022-04-10T10:37:48.000Z</time>
      </trkpt>
      <trkpt lat="50.44894" lon="3.58366">
        <ele>19.2</ele>
        <time>2022-04-10T10:37:50.000Z</time>
      </trkpt>
      <trkpt lat="50.44889" lon="3.58369">
        <ele>19.3</ele>
        <time>2022-04-10T10:37:52.000Z</time>
      </trkpt>
      <trkpt lat="50.44883" lon="3.58371">
        <ele>19.4</ele>
        <time>2022-04-10T10:37:53.170Z</time>
      </trkpt>
      <trkpt lat="50.44878" lon="3.58374">
        <ele>19.5</ele>
        <time>2022-04-10T10:37:54.749Z</time>
      </trkpt>
      <trkpt lat="50.44873" lon="3.58378">
        <ele>19.6</ele>
        <time>2022-04-10T10:37:55.968Z</time>
      </trkpt>
      <trkpt lat="50.44868" lon="3.5838">
        <ele>19.7</ele>
        <time>2022-04-10T10:37:56.912Z</time>
      </trkpt>
      <trkpt lat="50.44859" lon="3.58386">
        <ele>19.8</ele>
        <time>2022-04-10T10:37:59.867Z</time>
      </trkpt>
      <trkpt lat="50.44854" lon="3.5839">
        <ele>19.8</ele>
        <time>2022-04-10T10:38:01.000Z</time>
      </trkpt>
      <trkpt lat="50.44849" lon="3.58394">
        <ele>19.6</ele>
        <time>2022-04-10T10:38:03.000Z</time>
      </trkpt>
      <trkpt lat="50.44842" lon="3.58399">
        <ele>19.3</ele>
        <time>2022-04-10T10:38:05.027Z</time>
      </trkpt>
      <trkpt lat="50.44837" lon="3.58402">
        <ele>19.1</ele>
        <time>2022-04-10T10:38:07.000Z</time>
      </trkpt>
      <trkpt lat="50.4483" lon="3.58408">
        <ele>18.9</ele>
        <time>2022-04-10T10:38:09.000Z</time>
      </trkpt>
      <trkpt lat="50.44821" lon="3.58413">
        <ele>18.5</ele>
        <time>2022-04-10T10:38:11.000Z</time>
      </trkpt>
      <trkpt lat="50.44815" lon="3.58416">
        <ele>18.4</ele>
        <time>2022-04-10T10:38:12.928Z</time>
      </trkpt>
      <trkpt lat="50.44807" lon="3.58421">
        <ele>18</ele>
        <time>2022-04-10T10:38:15.000Z</time>
      </trkpt>
      <trkpt lat="50.44801" lon="3.58423">
        <ele>18.1</ele>
        <time>2022-04-10T10:38:15.951Z</time>
      </trkpt>
      <trkpt lat="50.44796" lon="3.58428">
        <ele>18.2</ele>
        <time>2022-04-10T10:38:18.000Z</time>
      </trkpt>
      <trkpt lat="50.4479" lon="3.58433">
        <ele>18.2</ele>
        <time>2022-04-10T10:38:18.956Z</time>
      </trkpt>
      <trkpt lat="50.44784" lon="3.58435">
        <ele>18.2</ele>
        <time>2022-04-10T10:38:21.000Z</time>
      </trkpt>
      <trkpt lat="50.44779" lon="3.58439">
        <ele>18.2</ele>
        <time>2022-04-10T10:38:22.000Z</time>
      </trkpt>
      <trkpt lat="50.44773" lon="3.58443">
        <ele>18</ele>
        <time>2022-04-10T10:38:24.000Z</time>
      </trkpt>
      <trkpt lat="50.44766" lon="3.58448">
        <ele>17.9</ele>
        <time>2022-04-10T10:38:25.000Z</time>
      </trkpt>
      <trkpt lat="50.44761" lon="3.58451">
        <ele>17.8</ele>
        <time>2022-04-10T10:38:27.110Z</time>
      </trkpt>
      <trkpt lat="50.44755" lon="3.58454">
        <ele>17.7</ele>
        <time>2022-04-10T10:38:28.000Z</time>
      </trkpt>
      <trkpt lat="50.4475" lon="3.58458">
        <ele>17.5</ele>
        <time>2022-04-10T10:38:29.000Z</time>
      </trkpt>
      <trkpt lat="50.44743" lon="3.58463">
        <ele>17.3</ele>
        <time>2022-04-10T10:38:31.000Z</time>
      </trkpt>
      <trkpt lat="50.44738" lon="3.58467">
        <ele>17.2</ele>
        <time>2022-04-10T10:38:33.000Z</time>
      </trkpt>
      <trkpt lat="50.44728" lon="3.58471">
        <ele>17</ele>
        <time>2022-04-10T10:38:35.932Z</time>
      </trkpt>
      <trkpt lat="50.44724" lon="3.58473">
        <ele>17</ele>
        <time>2022-04-10T10:38:37.048Z</time>
      </trkpt>
      <trkpt lat="50.44718" lon="3.5848">
        <ele>17</ele>
        <time>2022-04-10T10:38:39.089Z</time>
      </trkpt>
      <trkpt lat="50.4471" lon="3.58484">
        <ele>17</ele>
        <time>2022-04-10T10:38:41.213Z</time>
      </trkpt>
      <trkpt lat="50.44706" lon="3.58487">
        <ele>17</ele>
        <time>2022-04-10T10:38:43.000Z</time>
      </trkpt>
      <trkpt lat="50.44697" lon="3.58491">
        <ele>17</ele>
        <time>2022-04-10T10:38:46.086Z</time>
      </trkpt>
      <trkpt lat="50.4469" lon="3.58497">
        <ele>16.8</ele>
        <time>2022-04-10T10:38:48.171Z</time>
      </trkpt>
      <trkpt lat="50.44684" lon="3.585">
        <ele>16.6</ele>
        <time>2022-04-10T10:38:51.111Z</time>
      </trkpt>
      <trkpt lat="50.44681" lon="3.58504">
        <ele>16.5</ele>
        <time>2022-04-10T10:38:53.000Z</time>
      </trkpt>
      <trkpt lat="50.44674" lon="3.58508">
        <ele>16.2</ele>
        <time>2022-04-10T10:38:56.000Z</time>
      </trkpt>
      <trkpt lat="50.44668" lon="3.58511">
        <ele>16.1</ele>
        <time>2022-04-10T10:38:58.000Z</time>
      </trkpt>
      <trkpt lat="50.44664" lon="3.58514">
        <ele>16.2</ele>
        <time>2022-04-10T10:39:00.009Z</time>
      </trkpt>
      <trkpt lat="50.44659" lon="3.58517">
        <ele>16.6</ele>
        <time>2022-04-10T10:39:02.149Z</time>
      </trkpt>
      <trkpt lat="50.44653" lon="3.58522">
        <ele>17</ele>
        <time>2022-04-10T10:39:04.590Z</time>
      </trkpt>
      <trkpt lat="50.44647" lon="3.58526">
        <ele>17.4</ele>
        <time>2022-04-10T10:39:07.000Z</time>
      </trkpt>
      <trkpt lat="50.4464" lon="3.5853">
        <ele>17.9</ele>
        <time>2022-04-10T10:39:09.000Z</time>
      </trkpt>
      <trkpt lat="50.4463" lon="3.58535">
        <ele>18.3</ele>
        <time>2022-04-10T10:39:11.810Z</time>
      </trkpt>
      <trkpt lat="50.44622" lon="3.58539">
        <ele>18.6</ele>
        <time>2022-04-10T10:39:14.000Z</time>
      </trkpt>
      <trkpt lat="50.44615" lon="3.58542">
        <ele>18.9</ele>
        <time>2022-04-10T10:39:16.000Z</time>
      </trkpt>
      <trkpt lat="50.44611" lon="3.58545">
        <ele>19</ele>
        <time>2022-04-10T10:39:17.000Z</time>
      </trkpt>
      <trkpt lat="50.44606" lon="3.58546">
        <ele>19.2</ele>
        <time>2022-04-10T10:39:18.000Z</time>
      </trkpt>
      <trkpt lat="50.44594" lon="3.58552">
        <ele>19.6</ele>
        <time>2022-04-10T10:39:20.848Z</time>
      </trkpt>
      <trkpt lat="50.44585" lon="3.58558">
        <ele>19.9</ele>
        <time>2022-04-10T10:39:22.952Z</time>
      </trkpt>
      <trkpt lat="50.44581" lon="3.58562">
        <ele>20</ele>
        <time>2022-04-10T10:39:24.000Z</time>
      </trkpt>
      <trkpt lat="50.44574" lon="3.58567">
        <ele>20.1</ele>
        <time>2022-04-10T10:39:26.000Z</time>
      </trkpt>
      <trkpt lat="50.44566" lon="3.58572">
        <ele>20.4</ele>
        <time>2022-04-10T10:39:28.000Z</time>
      </trkpt>
      <trkpt lat="50.4456" lon="3.58576">
        <ele>20.6</ele>
        <time>2022-04-10T10:39:29.000Z</time>
      </trkpt>
      <trkpt lat="50.44551" lon="3.58583">
        <ele>20.8</ele>
        <time>2022-04-10T10:39:31.000Z</time>
      </trkpt>
      <trkpt lat="50.44546" lon="3.58586">
        <ele>20.6</ele>
        <time>2022-04-10T10:39:32.000Z</time>
      </trkpt>
      <trkpt lat="50.44537" lon="3.58591">
        <ele>20.1</ele>
        <time>2022-04-10T10:39:34.000Z</time>
      </trkpt>
      <trkpt lat="50.44528" lon="3.58597">
        <ele>19.5</ele>
        <time>2022-04-10T10:39:36.000Z</time>
      </trkpt>
      <trkpt lat="50.44523" lon="3.586">
        <ele>19.4</ele>
        <time>2022-04-10T10:39:37.000Z</time>
      </trkpt>
      <trkpt lat="50.44518" lon="3.58602">
        <ele>19.3</ele>
        <time>2022-04-10T10:39:38.000Z</time>
      </trkpt>
      <trkpt lat="50.44513" lon="3.58605">
        <ele>19.2</ele>
        <time>2022-04-10T10:39:39.000Z</time>
      </trkpt>
      <trkpt lat="50.44507" lon="3.58608">
        <ele>19.1</ele>
        <time>2022-04-10T10:39:40.000Z</time>
      </trkpt>
      <trkpt lat="50.44503" lon="3.58611">
        <ele>19</ele>
        <time>2022-04-10T10:39:41.000Z</time>
      </trkpt>
      <trkpt lat="50.44498" lon="3.58613">
        <ele>19</ele>
        <time>2022-04-10T10:39:42.063Z</time>
      </trkpt>
      <trkpt lat="50.44491" lon="3.58617">
        <ele>19.2</ele>
        <time>2022-04-10T10:39:43.000Z</time>
      </trkpt>
      <trkpt lat="50.44486" lon="3.58621">
        <ele>19.4</ele>
        <time>2022-04-10T10:39:44.000Z</time>
      </trkpt>
      <trkpt lat="50.4448" lon="3.58625">
        <ele>19.6</ele>
        <time>2022-04-10T10:39:45.000Z</time>
      </trkpt>
      <trkpt lat="50.44473" lon="3.58629">
        <ele>19.9</ele>
        <time>2022-04-10T10:39:46.000Z</time>
      </trkpt>
      <trkpt lat="50.44469" lon="3.58632">
        <ele>20</ele>
        <time>2022-04-10T10:39:47.000Z</time>
      </trkpt>
      <trkpt lat="50.44465" lon="3.58636">
        <ele>20</ele>
        <time>2022-04-10T10:39:48.000Z</time>
      </trkpt>
      <trkpt lat="50.4446" lon="3.58639">
        <ele>20</ele>
        <time>2022-04-10T10:39:49.000Z</time>
      </trkpt>
      <trkpt lat="50.44455" lon="3.58643">
        <ele>19.9</ele>
        <time>2022-04-10T10:39:50.000Z</time>
      </trkpt>
      <trkpt lat="50.4445" lon="3.58647">
        <ele>19.9</ele>
        <time>2022-04-10T10:39:51.000Z</time>
      </trkpt>
      <trkpt lat="50.44446" lon="3.5865">
        <ele>20</ele>
        <time>2022-04-10T10:39:52.000Z</time>
      </trkpt>
      <trkpt lat="50.4444" lon="3.58654">
        <ele>19.8</ele>
        <time>2022-04-10T10:39:53.000Z</time>
      </trkpt>
      <trkpt lat="50.44434" lon="3.58658">
        <ele>19.6</ele>
        <time>2022-04-10T10:39:54.000Z</time>
      </trkpt>
      <trkpt lat="50.44428" lon="3.58662">
        <ele>19.4</ele>
        <time>2022-04-10T10:39:55.000Z</time>
      </trkpt>
      <trkpt lat="50.44423" lon="3.58666">
        <ele>19.2</ele>
        <time>2022-04-10T10:39:56.000Z</time>
      </trkpt>
      <trkpt lat="50.44419" lon="3.58669">
        <ele>19</ele>
        <time>2022-04-10T10:39:57.000Z</time>
      </trkpt>
      <trkpt lat="50.44414" lon="3.58672">
        <ele>18.7</ele>
        <time>2022-04-10T10:39:58.000Z</time>
      </trkpt>
      <trkpt lat="50.44405" lon="3.58678">
        <ele>18.2</ele>
        <time>2022-04-10T10:40:00.000Z</time>
      </trkpt>
      <trkpt lat="50.44398" lon="3.58682">
        <ele>17.8</ele>
        <time>2022-04-10T10:40:02.063Z</time>
      </trkpt>
      <trkpt lat="50.44392" lon="3.58685">
        <ele>17.5</ele>
        <time>2022-04-10T10:40:03.000Z</time>
      </trkpt>
      <trkpt lat="50.44384" lon="3.58691">
        <ele>17.1</ele>
        <time>2022-04-10T10:40:05.000Z</time>
      </trkpt>
      <trkpt lat="50.44379" lon="3.58693">
        <ele>17</ele>
        <time>2022-04-10T10:40:06.000Z</time>
      </trkpt>
      <trkpt lat="50.44372" lon="3.58696">
        <ele>17</ele>
        <time>2022-04-10T10:40:07.000Z</time>
      </trkpt>
      <trkpt lat="50.44366" lon="3.58699">
        <ele>17</ele>
        <time>2022-04-10T10:40:08.000Z</time>
      </trkpt>
      <trkpt lat="50.44362" lon="3.587">
        <ele>17</ele>
        <time>2022-04-10T10:40:09.059Z</time>
      </trkpt>
      <trkpt lat="50.44354" lon="3.58705">
        <ele>16.8</ele>
        <time>2022-04-10T10:40:10.000Z</time>
      </trkpt>
      <trkpt lat="50.44348" lon="3.58707">
        <ele>16.8</ele>
        <time>2022-04-10T10:40:11.000Z</time>
      </trkpt>
      <trkpt lat="50.44343" lon="3.5871">
        <ele>16.7</ele>
        <time>2022-04-10T10:40:12.000Z</time>
      </trkpt>
      <trkpt lat="50.44338" lon="3.58712">
        <ele>16.7</ele>
        <time>2022-04-10T10:40:13.000Z</time>
      </trkpt>
      <trkpt lat="50.44332" lon="3.58713">
        <ele>16.7</ele>
        <time>2022-04-10T10:40:14.000Z</time>
      </trkpt>
      <trkpt lat="50.44327" lon="3.58715">
        <ele>16.8</ele>
        <time>2022-04-10T10:40:15.000Z</time>
      </trkpt>
      <trkpt lat="50.44322" lon="3.58717">
        <ele>16.9</ele>
        <time>2022-04-10T10:40:16.000Z</time>
      </trkpt>
      <trkpt lat="50.44317" lon="3.58718">
        <ele>16.9</ele>
        <time>2022-04-10T10:40:17.000Z</time>
      </trkpt>
      <trkpt lat="50.44312" lon="3.58719">
        <ele>17</ele>
        <time>2022-04-10T10:40:18.000Z</time>
      </trkpt>
      <trkpt lat="50.44306" lon="3.5872">
        <ele>17</ele>
        <time>2022-04-10T10:40:19.000Z</time>
      </trkpt>
      <trkpt lat="50.44301" lon="3.58722">
        <ele>17.2</ele>
        <time>2022-04-10T10:40:20.000Z</time>
      </trkpt>
      <trkpt lat="50.44296" lon="3.58723">
        <ele>17.4</ele>
        <time>2022-04-10T10:40:21.000Z</time>
      </trkpt>
      <trkpt lat="50.44291" lon="3.58724">
        <ele>17.5</ele>
        <time>2022-04-10T10:40:22.000Z</time>
      </trkpt>
      <trkpt lat="50.44286" lon="3.58726">
        <ele>17.7</ele>
        <time>2022-04-10T10:40:23.000Z</time>
      </trkpt>
      <trkpt lat="50.44281" lon="3.58727">
        <ele>17.9</ele>
        <time>2022-04-10T10:40:24.000Z</time>
      </trkpt>
      <trkpt lat="50.4427" lon="3.5873">
        <ele>18</ele>
        <time>2022-04-10T10:40:26.000Z</time>
      </trkpt>
      <trkpt lat="50.44265" lon="3.58731">
        <ele>18</ele>
        <time>2022-04-10T10:40:27.000Z</time>
      </trkpt>
      <trkpt lat="50.44259" lon="3.58731">
        <ele>18</ele>
        <time>2022-04-10T10:40:28.000Z</time>
      </trkpt>
      <trkpt lat="50.44254" lon="3.58732">
        <ele>18</ele>
        <time>2022-04-10T10:40:29.000Z</time>
      </trkpt>
      <trkpt lat="50.44244" lon="3.58732">
        <ele>18</ele>
        <time>2022-04-10T10:40:31.000Z</time>
      </trkpt>
      <trkpt lat="50.44238" lon="3.58732">
        <ele>18</ele>
        <time>2022-04-10T10:40:32.000Z</time>
      </trkpt>
      <trkpt lat="50.44233" lon="3.58731">
        <ele>18</ele>
        <time>2022-04-10T10:40:33.000Z</time>
      </trkpt>
      <trkpt lat="50.44227" lon="3.58731">
        <ele>18</ele>
        <time>2022-04-10T10:40:34.000Z</time>
      </trkpt>
      <trkpt lat="50.44223" lon="3.58731">
        <ele>18</ele>
        <time>2022-04-10T10:40:35.000Z</time>
      </trkpt>
      <trkpt lat="50.44215" lon="3.5873">
        <ele>18.2</ele>
        <time>2022-04-10T10:40:37.000Z</time>
      </trkpt>
      <trkpt lat="50.44203" lon="3.58728">
        <ele>18.6</ele>
        <time>2022-04-10T10:40:40.000Z</time>
      </trkpt>
      <trkpt lat="50.44194" lon="3.58725">
        <ele>18.9</ele>
        <time>2022-04-10T10:40:42.733Z</time>
      </trkpt>
      <trkpt lat="50.44189" lon="3.58725">
        <ele>18.9</ele>
        <time>2022-04-10T10:40:44.654Z</time>
      </trkpt>
      <trkpt lat="50.44182" lon="3.58726">
        <ele>18.9</ele>
        <time>2022-04-10T10:40:46.000Z</time>
      </trkpt>
      <trkpt lat="50.44175" lon="3.58726">
        <ele>19</ele>
        <time>2022-04-10T10:40:47.952Z</time>
      </trkpt>
      <trkpt lat="50.4417" lon="3.58723">
        <ele>19</ele>
        <time>2022-04-10T10:40:50.554Z</time>
      </trkpt>
      <trkpt lat="50.44163" lon="3.58721">
        <ele>19.1</ele>
        <time>2022-04-10T10:40:53.813Z</time>
      </trkpt>
      <trkpt lat="50.44154" lon="3.58716">
        <ele>19.5</ele>
        <time>2022-04-10T10:40:57.091Z</time>
      </trkpt>
      <trkpt lat="50.44146" lon="3.58714">
        <ele>19.7</ele>
        <time>2022-04-10T10:40:59.000Z</time>
      </trkpt>
      <trkpt lat="50.4414" lon="3.5871">
        <ele>20</ele>
        <time>2022-04-10T10:41:02.000Z</time>
      </trkpt>
      <trkpt lat="50.4413" lon="3.58704">
        <ele>20</ele>
        <time>2022-04-10T10:41:05.955Z</time>
      </trkpt>
      <trkpt lat="50.44124" lon="3.587">
        <ele>20</ele>
        <time>2022-04-10T10:41:08.000Z</time>
      </trkpt>
      <trkpt lat="50.4412" lon="3.58697">
        <ele>20</ele>
        <time>2022-04-10T10:41:10.000Z</time>
      </trkpt>
      <trkpt lat="50.44116" lon="3.58694">
        <ele>20</ele>
        <time>2022-04-10T10:41:11.000Z</time>
      </trkpt>
      <trkpt lat="50.44109" lon="3.58689">
        <ele>19.6</ele>
        <time>2022-04-10T10:41:13.000Z</time>
      </trkpt>
      <trkpt lat="50.44102" lon="3.58683">
        <ele>18.8</ele>
        <time>2022-04-10T10:41:16.170Z</time>
      </trkpt>
      <trkpt lat="50.44098" lon="3.58679">
        <ele>18.4</ele>
        <time>2022-04-10T10:41:17.434Z</time>
      </trkpt>
      <trkpt lat="50.44092" lon="3.58676">
        <ele>18</ele>
        <time>2022-04-10T10:41:19.000Z</time>
      </trkpt>
      <trkpt lat="50.44087" lon="3.58672">
        <ele>17.5</ele>
        <time>2022-04-10T10:41:21.000Z</time>
      </trkpt>
      <trkpt lat="50.44082" lon="3.58667">
        <ele>17</ele>
        <time>2022-04-10T10:41:22.098Z</time>
      </trkpt>
      <trkpt lat="50.44077" lon="3.58665">
        <ele>16.5</ele>
        <time>2022-04-10T10:41:23.000Z</time>
      </trkpt>
      <trkpt lat="50.44068" lon="3.58659">
        <ele>15.9</ele>
        <time>2022-04-10T10:41:26.134Z</time>
      </trkpt>
      <trkpt lat="50.44061" lon="3.58653">
        <ele>15.7</ele>
        <time>2022-04-10T10:41:28.015Z</time>
      </trkpt>
      <trkpt lat="50.44054" lon="3.58649">
        <ele>15.7</ele>
        <time>2022-04-10T10:41:30.000Z</time>
      </trkpt>
      <trkpt lat="50.44047" lon="3.58644">
        <ele>15.8</ele>
        <time>2022-04-10T10:41:32.000Z</time>
      </trkpt>
      <trkpt lat="50.44038" lon="3.58638">
        <ele>16</ele>
        <time>2022-04-10T10:41:34.613Z</time>
      </trkpt>
      <trkpt lat="50.44028" lon="3.58631">
        <ele>16.3</ele>
        <time>2022-04-10T10:41:37.000Z</time>
      </trkpt>
      <trkpt lat="50.44022" lon="3.58627">
        <ele>16.9</ele>
        <time>2022-04-10T10:41:39.074Z</time>
      </trkpt>
      <trkpt lat="50.44013" lon="3.58621">
        <ele>17.9</ele>
        <time>2022-04-10T10:41:41.623Z</time>
      </trkpt>
      <trkpt lat="50.44009" lon="3.58618">
        <ele>18.3</ele>
        <time>2022-04-10T10:41:42.771Z</time>
      </trkpt>
      <trkpt lat="50.44004" lon="3.58615">
        <ele>18.7</ele>
        <time>2022-04-10T10:41:43.949Z</time>
      </trkpt>
      <trkpt lat="50.43999" lon="3.58611">
        <ele>19</ele>
        <time>2022-04-10T10:41:45.000Z</time>
      </trkpt>
      <trkpt lat="50.43995" lon="3.58607">
        <ele>18.7</ele>
        <time>2022-04-10T10:41:46.000Z</time>
      </trkpt>
      <trkpt lat="50.4399" lon="3.58604">
        <ele>18.5</ele>
        <time>2022-04-10T10:41:47.000Z</time>
      </trkpt>
      <trkpt lat="50.43985" lon="3.586">
        <ele>18.3</ele>
        <time>2022-04-10T10:41:48.000Z</time>
      </trkpt>
      <trkpt lat="50.4398" lon="3.58595">
        <ele>18.1</ele>
        <time>2022-04-10T10:41:49.000Z</time>
      </trkpt>
      <trkpt lat="50.43974" lon="3.5859">
        <ele>18</ele>
        <time>2022-04-10T10:41:50.000Z</time>
      </trkpt>
      <trkpt lat="50.4397" lon="3.58586">
        <ele>18</ele>
        <time>2022-04-10T10:41:51.000Z</time>
      </trkpt>
      <trkpt lat="50.43965" lon="3.58582">
        <ele>18</ele>
        <time>2022-04-10T10:41:52.000Z</time>
      </trkpt>
      <trkpt lat="50.4396" lon="3.58579">
        <ele>18</ele>
        <time>2022-04-10T10:41:52.994Z</time>
      </trkpt>
      <trkpt lat="50.43954" lon="3.58576">
        <ele>18</ele>
        <time>2022-04-10T10:41:54.000Z</time>
      </trkpt>
      <trkpt lat="50.43949" lon="3.58572">
        <ele>18</ele>
        <time>2022-04-10T10:41:55.000Z</time>
      </trkpt>
      <trkpt lat="50.43944" lon="3.58568">
        <ele>18</ele>
        <time>2022-04-10T10:41:56.000Z</time>
      </trkpt>
      <trkpt lat="50.43939" lon="3.58564">
        <ele>17.8</ele>
        <time>2022-04-10T10:41:57.000Z</time>
      </trkpt>
      <trkpt lat="50.43935" lon="3.58559">
        <ele>17.6</ele>
        <time>2022-04-10T10:41:58.000Z</time>
      </trkpt>
      <trkpt lat="50.4393" lon="3.58555">
        <ele>17.5</ele>
        <time>2022-04-10T10:41:59.000Z</time>
      </trkpt>
      <trkpt lat="50.43926" lon="3.5855">
        <ele>17.3</ele>
        <time>2022-04-10T10:42:00.000Z</time>
      </trkpt>
      <trkpt lat="50.43922" lon="3.58546">
        <ele>17.2</ele>
        <time>2022-04-10T10:42:01.000Z</time>
      </trkpt>
      <trkpt lat="50.43918" lon="3.58541">
        <ele>17.1</ele>
        <time>2022-04-10T10:42:02.000Z</time>
      </trkpt>
      <trkpt lat="50.43911" lon="3.58531">
        <ele>17</ele>
        <time>2022-04-10T10:42:04.000Z</time>
      </trkpt>
      <trkpt lat="50.43904" lon="3.58521">
        <ele>17</ele>
        <time>2022-04-10T10:42:06.000Z</time>
      </trkpt>
      <trkpt lat="50.439" lon="3.58516">
        <ele>17</ele>
        <time>2022-04-10T10:42:07.000Z</time>
      </trkpt>
      <trkpt lat="50.43897" lon="3.58511">
        <ele>17</ele>
        <time>2022-04-10T10:42:08.000Z</time>
      </trkpt>
      <trkpt lat="50.4389" lon="3.58499">
        <ele>17</ele>
        <time>2022-04-10T10:42:10.000Z</time>
      </trkpt>
      <trkpt lat="50.43885" lon="3.58493">
        <ele>17</ele>
        <time>2022-04-10T10:42:11.000Z</time>
      </trkpt>
      <trkpt lat="50.4388" lon="3.58487">
        <ele>17</ele>
        <time>2022-04-10T10:42:12.000Z</time>
      </trkpt>
      <trkpt lat="50.43875" lon="3.58481">
        <ele>17</ele>
        <time>2022-04-10T10:42:13.000Z</time>
      </trkpt>
      <trkpt lat="50.4387" lon="3.58475">
        <ele>17</ele>
        <time>2022-04-10T10:42:14.000Z</time>
      </trkpt>
      <trkpt lat="50.43866" lon="3.58469">
        <ele>17</ele>
        <time>2022-04-10T10:42:15.000Z</time>
      </trkpt>
      <trkpt lat="50.43862" lon="3.58463">
        <ele>17</ele>
        <time>2022-04-10T10:42:16.000Z</time>
      </trkpt>
      <trkpt lat="50.43859" lon="3.58458">
        <ele>16.9</ele>
        <time>2022-04-10T10:42:17.079Z</time>
      </trkpt>
      <trkpt lat="50.43853" lon="3.5845">
        <ele>16.7</ele>
        <time>2022-04-10T10:42:18.000Z</time>
      </trkpt>
      <trkpt lat="50.4385" lon="3.58443">
        <ele>16.6</ele>
        <time>2022-04-10T10:42:19.000Z</time>
      </trkpt>
      <trkpt lat="50.43847" lon="3.58436">
        <ele>16.5</ele>
        <time>2022-04-10T10:42:20.000Z</time>
      </trkpt>
      <trkpt lat="50.43844" lon="3.58429">
        <ele>16.4</ele>
        <time>2022-04-10T10:42:21.000Z</time>
      </trkpt>
      <trkpt lat="50.4384" lon="3.58423">
        <ele>16.2</ele>
        <time>2022-04-10T10:42:22.000Z</time>
      </trkpt>
      <trkpt lat="50.43836" lon="3.58416">
        <ele>16.1</ele>
        <time>2022-04-10T10:42:23.000Z</time>
      </trkpt>
      <trkpt lat="50.43832" lon="3.58409">
        <ele>16.3</ele>
        <time>2022-04-10T10:42:24.000Z</time>
      </trkpt>
      <trkpt lat="50.43828" lon="3.58402">
        <ele>16.4</ele>
        <time>2022-04-10T10:42:25.000Z</time>
      </trkpt>
      <trkpt lat="50.43824" lon="3.58396">
        <ele>16.5</ele>
        <time>2022-04-10T10:42:26.000Z</time>
      </trkpt>
      <trkpt lat="50.43821" lon="3.58389">
        <ele>16.6</ele>
        <time>2022-04-10T10:42:27.000Z</time>
      </trkpt>
      <trkpt lat="50.43818" lon="3.58383">
        <ele>16.4</ele>
        <time>2022-04-10T10:42:28.000Z</time>
      </trkpt>
      <trkpt lat="50.43815" lon="3.58375">
        <ele>16.3</ele>
        <time>2022-04-10T10:42:29.000Z</time>
      </trkpt>
      <trkpt lat="50.43812" lon="3.58369">
        <ele>16.2</ele>
        <time>2022-04-10T10:42:30.000Z</time>
      </trkpt>
      <trkpt lat="50.43809" lon="3.58362">
        <ele>16.1</ele>
        <time>2022-04-10T10:42:31.000Z</time>
      </trkpt>
      <trkpt lat="50.43806" lon="3.58356">
        <ele>16.2</ele>
        <time>2022-04-10T10:42:32.000Z</time>
      </trkpt>
      <trkpt lat="50.43804" lon="3.5835">
        <ele>16.4</ele>
        <time>2022-04-10T10:42:33.000Z</time>
      </trkpt>
      <trkpt lat="50.43801" lon="3.58344">
        <ele>16.5</ele>
        <time>2022-04-10T10:42:34.000Z</time>
      </trkpt>
      <trkpt lat="50.43797" lon="3.58334">
        <ele>16.7</ele>
        <time>2022-04-10T10:42:36.000Z</time>
      </trkpt>
      <trkpt lat="50.43793" lon="3.58324">
        <ele>16.3</ele>
        <time>2022-04-10T10:42:38.000Z</time>
      </trkpt>
      <trkpt lat="50.43789" lon="3.58316">
        <ele>16.3</ele>
        <time>2022-04-10T10:42:39.000Z</time>
      </trkpt>
      <trkpt lat="50.43786" lon="3.58308">
        <ele>16.4</ele>
        <time>2022-04-10T10:42:41.000Z</time>
      </trkpt>
      <trkpt lat="50.43785" lon="3.583">
        <ele>16.5</ele>
        <time>2022-04-10T10:42:44.000Z</time>
      </trkpt>
      <trkpt lat="50.43779" lon="3.5829">
        <ele>16.9</ele>
        <time>2022-04-10T10:42:46.093Z</time>
      </trkpt>
      <trkpt lat="50.43774" lon="3.58281">
        <ele>17</ele>
        <time>2022-04-10T10:42:48.000Z</time>
      </trkpt>
      <trkpt lat="50.43773" lon="3.58273">
        <ele>17</ele>
        <time>2022-04-10T10:42:50.000Z</time>
      </trkpt>
      <trkpt lat="50.4377" lon="3.58265">
        <ele>17</ele>
        <time>2022-04-10T10:42:52.000Z</time>
      </trkpt>
      <trkpt lat="50.43766" lon="3.58259">
        <ele>17</ele>
        <time>2022-04-10T10:42:53.174Z</time>
      </trkpt>
      <trkpt lat="50.43759" lon="3.5825">
        <ele>17</ele>
        <time>2022-04-10T10:42:56.055Z</time>
      </trkpt>
      <trkpt lat="50.43755" lon="3.58237">
        <ele>16.9</ele>
        <time>2022-04-10T10:42:58.071Z</time>
      </trkpt>
      <trkpt lat="50.43751" lon="3.58225">
        <ele>17</ele>
        <time>2022-04-10T10:43:00.092Z</time>
      </trkpt>
      <trkpt lat="50.43749" lon="3.58218">
        <ele>17</ele>
        <time>2022-04-10T10:43:01.152Z</time>
      </trkpt>
      <trkpt lat="50.43746" lon="3.58211">
        <ele>17.1</ele>
        <time>2022-04-10T10:43:02.601Z</time>
      </trkpt>
      <trkpt lat="50.43743" lon="3.58196">
        <ele>17.2</ele>
        <time>2022-04-10T10:43:05.455Z</time>
      </trkpt>
      <trkpt lat="50.43741" lon="3.58189">
        <ele>17.4</ele>
        <time>2022-04-10T10:43:07.000Z</time>
      </trkpt>
      <trkpt lat="50.43739" lon="3.5818">
        <ele>17.7</ele>
        <time>2022-04-10T10:43:09.000Z</time>
      </trkpt>
      <trkpt lat="50.43735" lon="3.58169">
        <ele>18</ele>
        <time>2022-04-10T10:43:11.455Z</time>
      </trkpt>
      <trkpt lat="50.43733" lon="3.5816">
        <ele>18.1</ele>
        <time>2022-04-10T10:43:13.000Z</time>
      </trkpt>
      <trkpt lat="50.4373" lon="3.58152">
        <ele>18.4</ele>
        <time>2022-04-10T10:43:15.392Z</time>
      </trkpt>
      <trkpt lat="50.43725" lon="3.58141">
        <ele>18.8</ele>
        <time>2022-04-10T10:43:20.000Z</time>
      </trkpt>
      <trkpt lat="50.43722" lon="3.58133">
        <ele>19</ele>
        <time>2022-04-10T10:43:21.936Z</time>
      </trkpt>
      <trkpt lat="50.43718" lon="3.58124">
        <ele>19.1</ele>
        <time>2022-04-10T10:43:24.000Z</time>
      </trkpt>
      <trkpt lat="50.43715" lon="3.58114">
        <ele>19.2</ele>
        <time>2022-04-10T10:43:26.176Z</time>
      </trkpt>
      <trkpt lat="50.43713" lon="3.58108">
        <ele>19.4</ele>
        <time>2022-04-10T10:43:27.843Z</time>
      </trkpt>
      <trkpt lat="50.43709" lon="3.581">
        <ele>19.7</ele>
        <time>2022-04-10T10:43:29.512Z</time>
      </trkpt>
      <trkpt lat="50.43706" lon="3.58093">
        <ele>19.9</ele>
        <time>2022-04-10T10:43:32.000Z</time>
      </trkpt>
      <trkpt lat="50.43704" lon="3.58086">
        <ele>20</ele>
        <time>2022-04-10T10:43:34.000Z</time>
      </trkpt>
      <trkpt lat="50.43701" lon="3.58078">
        <ele>20</ele>
        <time>2022-04-10T10:43:36.952Z</time>
      </trkpt>
      <trkpt lat="50.43697" lon="3.58066">
        <ele>20</ele>
        <time>2022-04-10T10:43:40.000Z</time>
      </trkpt>
      <trkpt lat="50.43692" lon="3.58056">
        <ele>20.1</ele>
        <time>2022-04-10T10:43:42.000Z</time>
      </trkpt>
      <trkpt lat="50.43688" lon="3.58046">
        <ele>20.5</ele>
        <time>2022-04-10T10:43:43.995Z</time>
      </trkpt>
      <trkpt lat="50.43683" lon="3.58036">
        <ele>20.8</ele>
        <time>2022-04-10T10:43:46.000Z</time>
      </trkpt>
      <trkpt lat="50.43681" lon="3.58029">
        <ele>21</ele>
        <time>2022-04-10T10:43:47.554Z</time>
      </trkpt>
      <trkpt lat="50.43678" lon="3.5802">
        <ele>21.2</ele>
        <time>2022-04-10T10:43:49.947Z</time>
      </trkpt>
      <trkpt lat="50.43675" lon="3.58013">
        <ele>21.4</ele>
        <time>2022-04-10T10:43:52.000Z</time>
      </trkpt>
      <trkpt lat="50.43672" lon="3.58004">
        <ele>21.7</ele>
        <time>2022-04-10T10:43:54.000Z</time>
      </trkpt>
      <trkpt lat="50.4367" lon="3.57998">
        <ele>21.9</ele>
        <time>2022-04-10T10:43:55.000Z</time>
      </trkpt>
      <trkpt lat="50.43664" lon="3.57985">
        <ele>22</ele>
        <time>2022-04-10T10:43:58.033Z</time>
      </trkpt>
      <trkpt lat="50.43662" lon="3.57977">
        <ele>22.1</ele>
        <time>2022-04-10T10:44:00.913Z</time>
      </trkpt>
      <trkpt lat="50.43659" lon="3.57969">
        <ele>22.3</ele>
        <time>2022-04-10T10:44:03.000Z</time>
      </trkpt>
      <trkpt lat="50.43656" lon="3.5796">
        <ele>22.4</ele>
        <time>2022-04-10T10:44:06.000Z</time>
      </trkpt>
      <trkpt lat="50.43652" lon="3.57951">
        <ele>22.5</ele>
        <time>2022-04-10T10:44:07.975Z</time>
      </trkpt>
      <trkpt lat="50.43648" lon="3.57941">
        <ele>22.7</ele>
        <time>2022-04-10T10:44:10.000Z</time>
      </trkpt>
      <trkpt lat="50.43644" lon="3.57934">
        <ele>22.9</ele>
        <time>2022-04-10T10:44:12.075Z</time>
      </trkpt>
      <trkpt lat="50.43641" lon="3.57928">
        <ele>23</ele>
        <time>2022-04-10T10:44:14.172Z</time>
      </trkpt>
      <trkpt lat="50.43639" lon="3.57921">
        <ele>23</ele>
        <time>2022-04-10T10:44:15.762Z</time>
      </trkpt>
      <trkpt lat="50.43636" lon="3.57912">
        <ele>23</ele>
        <time>2022-04-10T10:44:18.000Z</time>
      </trkpt>
      <trkpt lat="50.43634" lon="3.57904">
        <ele>23</ele>
        <time>2022-04-10T10:44:20.137Z</time>
      </trkpt>
      <trkpt lat="50.43632" lon="3.57894">
        <ele>23</ele>
        <time>2022-04-10T10:44:22.030Z</time>
      </trkpt>
      <trkpt lat="50.43629" lon="3.57885">
        <ele>23</ele>
        <time>2022-04-10T10:44:24.000Z</time>
      </trkpt>
      <trkpt lat="50.43626" lon="3.57876">
        <ele>23</ele>
        <time>2022-04-10T10:44:26.371Z</time>
      </trkpt>
      <trkpt lat="50.43621" lon="3.57861">
        <ele>23</ele>
        <time>2022-04-10T10:44:28.973Z</time>
      </trkpt>
      <trkpt lat="50.43616" lon="3.5785">
        <ele>23</ele>
        <time>2022-04-10T10:44:31.170Z</time>
      </trkpt>
      <trkpt lat="50.43611" lon="3.57837">
        <ele>23</ele>
        <time>2022-04-10T10:44:33.774Z</time>
      </trkpt>
      <trkpt lat="50.43607" lon="3.57827">
        <ele>23</ele>
        <time>2022-04-10T10:44:36.654Z</time>
      </trkpt>
      <trkpt lat="50.43602" lon="3.57818">
        <ele>23</ele>
        <time>2022-04-10T10:44:37.974Z</time>
      </trkpt>
      <trkpt lat="50.43597" lon="3.5781">
        <ele>23</ele>
        <time>2022-04-10T10:44:40.000Z</time>
      </trkpt>
      <trkpt lat="50.43592" lon="3.578">
        <ele>23</ele>
        <time>2022-04-10T10:44:42.000Z</time>
      </trkpt>
      <trkpt lat="50.43588" lon="3.5779">
        <ele>23</ele>
        <time>2022-04-10T10:44:44.000Z</time>
      </trkpt>
      <trkpt lat="50.43584" lon="3.57779">
        <ele>23</ele>
        <time>2022-04-10T10:44:46.000Z</time>
      </trkpt>
      <trkpt lat="50.4358" lon="3.57768">
        <ele>23</ele>
        <time>2022-04-10T10:44:48.000Z</time>
      </trkpt>
      <trkpt lat="50.43577" lon="3.57762">
        <ele>23</ele>
        <time>2022-04-10T10:44:49.133Z</time>
      </trkpt>
      <trkpt lat="50.43571" lon="3.5775">
        <ele>23</ele>
        <time>2022-04-10T10:44:51.000Z</time>
      </trkpt>
      <trkpt lat="50.43569" lon="3.57744">
        <ele>23</ele>
        <time>2022-04-10T10:44:52.000Z</time>
      </trkpt>
      <trkpt lat="50.43566" lon="3.57738">
        <ele>23</ele>
        <time>2022-04-10T10:44:53.000Z</time>
      </trkpt>
      <trkpt lat="50.43563" lon="3.57726">
        <ele>23</ele>
        <time>2022-04-10T10:44:55.013Z</time>
      </trkpt>
      <trkpt lat="50.43559" lon="3.57714">
        <ele>23</ele>
        <time>2022-04-10T10:44:57.000Z</time>
      </trkpt>
      <trkpt lat="50.43555" lon="3.57702">
        <ele>23</ele>
        <time>2022-04-10T10:44:58.972Z</time>
      </trkpt>
      <trkpt lat="50.43551" lon="3.57691">
        <ele>23.1</ele>
        <time>2022-04-10T10:45:01.000Z</time>
      </trkpt>
      <trkpt lat="50.43548" lon="3.57684">
        <ele>23.2</ele>
        <time>2022-04-10T10:45:07.000Z</time>
      </trkpt>
      <trkpt lat="50.43542" lon="3.57673">
        <ele>23.1</ele>
        <time>2022-04-10T10:45:09.000Z</time>
      </trkpt>
      <trkpt lat="50.43539" lon="3.57665">
        <ele>23</ele>
        <time>2022-04-10T10:45:10.000Z</time>
      </trkpt>
      <trkpt lat="50.43535" lon="3.57654">
        <ele>23</ele>
        <time>2022-04-10T10:45:11.000Z</time>
      </trkpt>
      <trkpt lat="50.43533" lon="3.57647">
        <ele>23</ele>
        <time>2022-04-10T10:45:12.000Z</time>
      </trkpt>
      <trkpt lat="50.4353" lon="3.5764">
        <ele>23</ele>
        <time>2022-04-10T10:45:13.000Z</time>
      </trkpt>
      <trkpt lat="50.43527" lon="3.57634">
        <ele>23</ele>
        <time>2022-04-10T10:45:14.000Z</time>
      </trkpt>
      <trkpt lat="50.43524" lon="3.57627">
        <ele>23.1</ele>
        <time>2022-04-10T10:45:15.000Z</time>
      </trkpt>
      <trkpt lat="50.43521" lon="3.57619">
        <ele>23.1</ele>
        <time>2022-04-10T10:45:16.000Z</time>
      </trkpt>
      <trkpt lat="50.43518" lon="3.57612">
        <ele>23</ele>
        <time>2022-04-10T10:45:17.000Z</time>
      </trkpt>
      <trkpt lat="50.43515" lon="3.57603">
        <ele>23</ele>
        <time>2022-04-10T10:45:18.000Z</time>
      </trkpt>
      <trkpt lat="50.43511" lon="3.57592">
        <ele>23</ele>
        <time>2022-04-10T10:45:20.000Z</time>
      </trkpt>
      <trkpt lat="50.43509" lon="3.57586">
        <ele>23</ele>
        <time>2022-04-10T10:45:21.000Z</time>
      </trkpt>
      <trkpt lat="50.43506" lon="3.57579">
        <ele>23</ele>
        <time>2022-04-10T10:45:22.000Z</time>
      </trkpt>
      <trkpt lat="50.43503" lon="3.57573">
        <ele>23</ele>
        <time>2022-04-10T10:45:23.000Z</time>
      </trkpt>
      <trkpt lat="50.435" lon="3.57567">
        <ele>23</ele>
        <time>2022-04-10T10:45:24.000Z</time>
      </trkpt>
      <trkpt lat="50.43497" lon="3.57561">
        <ele>23</ele>
        <time>2022-04-10T10:45:25.000Z</time>
      </trkpt>
      <trkpt lat="50.43493" lon="3.57553">
        <ele>23</ele>
        <time>2022-04-10T10:45:26.000Z</time>
      </trkpt>
      <trkpt lat="50.43485" lon="3.5754">
        <ele>23</ele>
        <time>2022-04-10T10:45:28.000Z</time>
      </trkpt>
      <trkpt lat="50.43481" lon="3.57533">
        <ele>23</ele>
        <time>2022-04-10T10:45:30.000Z</time>
      </trkpt>
      <trkpt lat="50.43477" lon="3.57525">
        <ele>23</ele>
        <time>2022-04-10T10:45:31.000Z</time>
      </trkpt>
      <trkpt lat="50.43473" lon="3.57518">
        <ele>23</ele>
        <time>2022-04-10T10:45:33.000Z</time>
      </trkpt>
      <trkpt lat="50.43468" lon="3.57511">
        <ele>23</ele>
        <time>2022-04-10T10:45:34.377Z</time>
      </trkpt>
      <trkpt lat="50.43463" lon="3.57501">
        <ele>23</ele>
        <time>2022-04-10T10:45:36.497Z</time>
      </trkpt>
      <trkpt lat="50.43458" lon="3.57491">
        <ele>23</ele>
        <time>2022-04-10T10:45:39.000Z</time>
      </trkpt>
      <trkpt lat="50.43456" lon="3.57483">
        <ele>23</ele>
        <time>2022-04-10T10:45:40.000Z</time>
      </trkpt>
      <trkpt lat="50.4345" lon="3.57474">
        <ele>23</ele>
        <time>2022-04-10T10:45:42.594Z</time>
      </trkpt>
      <trkpt lat="50.43446" lon="3.57468">
        <ele>22.9</ele>
        <time>2022-04-10T10:45:43.944Z</time>
      </trkpt>
      <trkpt lat="50.43443" lon="3.57462">
        <ele>22.7</ele>
        <time>2022-04-10T10:45:45.000Z</time>
      </trkpt>
      <trkpt lat="50.43438" lon="3.57451">
        <ele>22.4</ele>
        <time>2022-04-10T10:45:47.000Z</time>
      </trkpt>
      <trkpt lat="50.43434" lon="3.57441">
        <ele>22.3</ele>
        <time>2022-04-10T10:45:48.000Z</time>
      </trkpt>
      <trkpt lat="50.43429" lon="3.57431">
        <ele>22.3</ele>
        <time>2022-04-10T10:45:50.000Z</time>
      </trkpt>
      <trkpt lat="50.43422" lon="3.57427">
        <ele>22.3</ele>
        <time>2022-04-10T10:45:52.000Z</time>
      </trkpt>
      <trkpt lat="50.43421" lon="3.5742">
        <ele>22.1</ele>
        <time>2022-04-10T10:45:53.000Z</time>
      </trkpt>
      <trkpt lat="50.43417" lon="3.57407">
        <ele>22.3</ele>
        <time>2022-04-10T10:45:55.000Z</time>
      </trkpt>
      <trkpt lat="50.43413" lon="3.574">
        <ele>22.6</ele>
        <time>2022-04-10T10:45:56.000Z</time>
      </trkpt>
      <trkpt lat="50.43409" lon="3.57389">
        <ele>23</ele>
        <time>2022-04-10T10:45:58.000Z</time>
      </trkpt>
      <trkpt lat="50.43404" lon="3.57378">
        <ele>23</ele>
        <time>2022-04-10T10:46:00.000Z</time>
      </trkpt>
      <trkpt lat="50.43401" lon="3.57373">
        <ele>23</ele>
        <time>2022-04-10T10:46:01.000Z</time>
      </trkpt>
      <trkpt lat="50.43395" lon="3.57362">
        <ele>23</ele>
        <time>2022-04-10T10:46:03.541Z</time>
      </trkpt>
      <trkpt lat="50.43391" lon="3.57357">
        <ele>23</ele>
        <time>2022-04-10T10:46:05.000Z</time>
      </trkpt>
      <trkpt lat="50.43386" lon="3.57348">
        <ele>23</ele>
        <time>2022-04-10T10:46:06.965Z</time>
      </trkpt>
      <trkpt lat="50.43381" lon="3.57338">
        <ele>23</ele>
        <time>2022-04-10T10:46:09.006Z</time>
      </trkpt>
      <trkpt lat="50.43377" lon="3.57327">
        <ele>23</ele>
        <time>2022-04-10T10:46:11.176Z</time>
      </trkpt>
      <trkpt lat="50.43373" lon="3.57319">
        <ele>23</ele>
        <time>2022-04-10T10:46:12.828Z</time>
      </trkpt>
      <trkpt lat="50.43369" lon="3.57309">
        <ele>23</ele>
        <time>2022-04-10T10:46:15.043Z</time>
      </trkpt>
      <trkpt lat="50.43365" lon="3.573">
        <ele>23</ele>
        <time>2022-04-10T10:46:17.000Z</time>
      </trkpt>
      <trkpt lat="50.43362" lon="3.57294">
        <ele>23</ele>
        <time>2022-04-10T10:46:18.000Z</time>
      </trkpt>
      <trkpt lat="50.43358" lon="3.57289">
        <ele>23.1</ele>
        <time>2022-04-10T10:46:19.000Z</time>
      </trkpt>
      <trkpt lat="50.43355" lon="3.57283">
        <ele>23.2</ele>
        <time>2022-04-10T10:46:20.000Z</time>
      </trkpt>
      <trkpt lat="50.43349" lon="3.57272">
        <ele>23.5</ele>
        <time>2022-04-10T10:46:22.000Z</time>
      </trkpt>
      <trkpt lat="50.43346" lon="3.57265">
        <ele>23.5</ele>
        <time>2022-04-10T10:46:23.000Z</time>
      </trkpt>
      <trkpt lat="50.43343" lon="3.57259">
        <ele>23.4</ele>
        <time>2022-04-10T10:46:24.000Z</time>
      </trkpt>
      <trkpt lat="50.4334" lon="3.57253">
        <ele>23.3</ele>
        <time>2022-04-10T10:46:25.000Z</time>
      </trkpt>
      <trkpt lat="50.43337" lon="3.57247">
        <ele>23.1</ele>
        <time>2022-04-10T10:46:26.000Z</time>
      </trkpt>
      <trkpt lat="50.43333" lon="3.57242">
        <ele>23</ele>
        <time>2022-04-10T10:46:27.086Z</time>
      </trkpt>
      <trkpt lat="50.43329" lon="3.57235">
        <ele>23</ele>
        <time>2022-04-10T10:46:28.000Z</time>
      </trkpt>
      <trkpt lat="50.43326" lon="3.5723">
        <ele>23</ele>
        <time>2022-04-10T10:46:29.000Z</time>
      </trkpt>
      <trkpt lat="50.43322" lon="3.57225">
        <ele>23</ele>
        <time>2022-04-10T10:46:30.000Z</time>
      </trkpt>
      <trkpt lat="50.43319" lon="3.57215">
        <ele>23.1</ele>
        <time>2022-04-10T10:46:32.000Z</time>
      </trkpt>
      <trkpt lat="50.43312" lon="3.57203">
        <ele>23.1</ele>
        <time>2022-04-10T10:46:34.000Z</time>
      </trkpt>
      <trkpt lat="50.43307" lon="3.57198">
        <ele>23.1</ele>
        <time>2022-04-10T10:46:35.000Z</time>
      </trkpt>
      <trkpt lat="50.43301" lon="3.57188">
        <ele>23.4</ele>
        <time>2022-04-10T10:46:37.000Z</time>
      </trkpt>
      <trkpt lat="50.43296" lon="3.57177">
        <ele>23.8</ele>
        <time>2022-04-10T10:46:39.000Z</time>
      </trkpt>
      <trkpt lat="50.4329" lon="3.57166">
        <ele>24</ele>
        <time>2022-04-10T10:46:41.000Z</time>
      </trkpt>
      <trkpt lat="50.43285" lon="3.57154">
        <ele>24.1</ele>
        <time>2022-04-10T10:46:43.000Z</time>
      </trkpt>
      <trkpt lat="50.43279" lon="3.57144">
        <ele>24</ele>
        <time>2022-04-10T10:46:45.000Z</time>
      </trkpt>
      <trkpt lat="50.43274" lon="3.57134">
        <ele>24.1</ele>
        <time>2022-04-10T10:46:47.000Z</time>
      </trkpt>
      <trkpt lat="50.43269" lon="3.57124">
        <ele>24.4</ele>
        <time>2022-04-10T10:46:49.000Z</time>
      </trkpt>
      <trkpt lat="50.43262" lon="3.57113">
        <ele>24.4</ele>
        <time>2022-04-10T10:46:51.000Z</time>
      </trkpt>
      <trkpt lat="50.43259" lon="3.57107">
        <ele>24.3</ele>
        <time>2022-04-10T10:46:52.000Z</time>
      </trkpt>
      <trkpt lat="50.43254" lon="3.57096">
        <ele>24.1</ele>
        <time>2022-04-10T10:46:54.154Z</time>
      </trkpt>
      <trkpt lat="50.43249" lon="3.57086">
        <ele>24</ele>
        <time>2022-04-10T10:46:55.912Z</time>
      </trkpt>
      <trkpt lat="50.43246" lon="3.5708">
        <ele>24.1</ele>
        <time>2022-04-10T10:46:57.000Z</time>
      </trkpt>
      <trkpt lat="50.4324" lon="3.5707">
        <ele>24.3</ele>
        <time>2022-04-10T10:46:59.000Z</time>
      </trkpt>
      <trkpt lat="50.43237" lon="3.57064">
        <ele>24.4</ele>
        <time>2022-04-10T10:47:00.000Z</time>
      </trkpt>
      <trkpt lat="50.43232" lon="3.57054">
        <ele>24.3</ele>
        <time>2022-04-10T10:47:02.000Z</time>
      </trkpt>
      <trkpt lat="50.43227" lon="3.57042">
        <ele>24.2</ele>
        <time>2022-04-10T10:47:04.000Z</time>
      </trkpt>
      <trkpt lat="50.43224" lon="3.57037">
        <ele>24.1</ele>
        <time>2022-04-10T10:47:05.051Z</time>
      </trkpt>
      <trkpt lat="50.4322" lon="3.57029">
        <ele>24</ele>
        <time>2022-04-10T10:47:06.000Z</time>
      </trkpt>
      <trkpt lat="50.43216" lon="3.5702">
        <ele>24</ele>
        <time>2022-04-10T10:47:07.000Z</time>
      </trkpt>
      <trkpt lat="50.43212" lon="3.57012">
        <ele>24</ele>
        <time>2022-04-10T10:47:08.000Z</time>
      </trkpt>
      <trkpt lat="50.43209" lon="3.57007">
        <ele>24</ele>
        <time>2022-04-10T10:47:09.000Z</time>
      </trkpt>
      <trkpt lat="50.43204" lon="3.56996">
        <ele>24</ele>
        <time>2022-04-10T10:47:11.000Z</time>
      </trkpt>
      <trkpt lat="50.43198" lon="3.56986">
        <ele>24</ele>
        <time>2022-04-10T10:47:13.000Z</time>
      </trkpt>
      <trkpt lat="50.4319" lon="3.56973">
        <ele>23.8</ele>
        <time>2022-04-10T10:47:15.000Z</time>
      </trkpt>
      <trkpt lat="50.43187" lon="3.56966">
        <ele>23.7</ele>
        <time>2022-04-10T10:47:16.000Z</time>
      </trkpt>
      <trkpt lat="50.43184" lon="3.56959">
        <ele>23.6</ele>
        <time>2022-04-10T10:47:17.000Z</time>
      </trkpt>
      <trkpt lat="50.43179" lon="3.56949">
        <ele>23.4</ele>
        <time>2022-04-10T10:47:19.000Z</time>
      </trkpt>
      <trkpt lat="50.43175" lon="3.56944">
        <ele>23.3</ele>
        <time>2022-04-10T10:47:20.000Z</time>
      </trkpt>
      <trkpt lat="50.43171" lon="3.56935">
        <ele>23.1</ele>
        <time>2022-04-10T10:47:21.000Z</time>
      </trkpt>
      <trkpt lat="50.43165" lon="3.56926">
        <ele>23</ele>
        <time>2022-04-10T10:47:23.000Z</time>
      </trkpt>
      <trkpt lat="50.43161" lon="3.56919">
        <ele>23</ele>
        <time>2022-04-10T10:47:24.000Z</time>
      </trkpt>
      <trkpt lat="50.43157" lon="3.56912">
        <ele>23</ele>
        <time>2022-04-10T10:47:25.000Z</time>
      </trkpt>
      <trkpt lat="50.43152" lon="3.56904">
        <ele>23</ele>
        <time>2022-04-10T10:47:27.020Z</time>
      </trkpt>
      <trkpt lat="50.43149" lon="3.56898">
        <ele>23</ele>
        <time>2022-04-10T10:47:28.000Z</time>
      </trkpt>
      <trkpt lat="50.43143" lon="3.5689">
        <ele>23</ele>
        <time>2022-04-10T10:47:30.000Z</time>
      </trkpt>
      <trkpt lat="50.4314" lon="3.56883">
        <ele>23</ele>
        <time>2022-04-10T10:47:31.000Z</time>
      </trkpt>
      <trkpt lat="50.43137" lon="3.56878">
        <ele>23</ele>
        <time>2022-04-10T10:47:32.000Z</time>
      </trkpt>
      <trkpt lat="50.43131" lon="3.56865">
        <ele>23</ele>
        <time>2022-04-10T10:47:34.000Z</time>
      </trkpt>
      <trkpt lat="50.43126" lon="3.5686">
        <ele>23</ele>
        <time>2022-04-10T10:47:35.799Z</time>
      </trkpt>
      <trkpt lat="50.43122" lon="3.56854">
        <ele>23</ele>
        <time>2022-04-10T10:47:37.030Z</time>
      </trkpt>
      <trkpt lat="50.4312" lon="3.56848">
        <ele>23</ele>
        <time>2022-04-10T10:47:38.000Z</time>
      </trkpt>
      <trkpt lat="50.43117" lon="3.56841">
        <ele>23</ele>
        <time>2022-04-10T10:47:39.000Z</time>
      </trkpt>
      <trkpt lat="50.43115" lon="3.56835">
        <ele>23</ele>
        <time>2022-04-10T10:47:40.000Z</time>
      </trkpt>
      <trkpt lat="50.43113" lon="3.56829">
        <ele>22.8</ele>
        <time>2022-04-10T10:47:41.000Z</time>
      </trkpt>
      <trkpt lat="50.43111" lon="3.56822">
        <ele>22.6</ele>
        <time>2022-04-10T10:47:42.000Z</time>
      </trkpt>
      <trkpt lat="50.43108" lon="3.56816">
        <ele>22.5</ele>
        <time>2022-04-10T10:47:43.000Z</time>
      </trkpt>
      <trkpt lat="50.43102" lon="3.56806">
        <ele>22.4</ele>
        <time>2022-04-10T10:47:45.000Z</time>
      </trkpt>
      <trkpt lat="50.43096" lon="3.56797">
        <ele>22.5</ele>
        <time>2022-04-10T10:47:47.000Z</time>
      </trkpt>
      <trkpt lat="50.43092" lon="3.56791">
        <ele>22.7</ele>
        <time>2022-04-10T10:47:49.000Z</time>
      </trkpt>
      <trkpt lat="50.43093" lon="3.568">
        <ele>22.6</ele>
        <time>2022-04-10T10:47:55.000Z</time>
      </trkpt>
      <trkpt lat="50.43098" lon="3.56797">
        <ele>22.5</ele>
        <time>2022-04-10T10:47:57.000Z</time>
      </trkpt>
      <trkpt lat="50.43102" lon="3.56789">
        <ele>22.3</ele>
        <time>2022-04-10T10:47:59.000Z</time>
      </trkpt>
      <trkpt lat="50.43099" lon="3.56783">
        <ele>22.4</ele>
        <time>2022-04-10T10:48:14.000Z</time>
      </trkpt>
      <trkpt lat="50.43095" lon="3.56778">
        <ele>22.6</ele>
        <time>2022-04-10T10:48:16.986Z</time>
      </trkpt>
      <trkpt lat="50.43088" lon="3.56774">
        <ele>22.7</ele>
        <time>2022-04-10T10:48:18.000Z</time>
      </trkpt>
      <trkpt lat="50.43084" lon="3.56771">
        <ele>22.7</ele>
        <time>2022-04-10T10:48:19.000Z</time>
      </trkpt>
      <trkpt lat="50.43075" lon="3.56758">
        <ele>22.5</ele>
        <time>2022-04-10T10:48:21.765Z</time>
      </trkpt>
      <trkpt lat="50.43071" lon="3.56752">
        <ele>22.5</ele>
        <time>2022-04-10T10:48:23.000Z</time>
      </trkpt>
      <trkpt lat="50.43067" lon="3.56747">
        <ele>22.6</ele>
        <time>2022-04-10T10:48:24.000Z</time>
      </trkpt>
      <trkpt lat="50.4306" lon="3.56737">
        <ele>22.8</ele>
        <time>2022-04-10T10:48:26.000Z</time>
      </trkpt>
      <trkpt lat="50.43056" lon="3.5673">
        <ele>23</ele>
        <time>2022-04-10T10:48:28.000Z</time>
      </trkpt>
      <trkpt lat="50.43061" lon="3.56734">
        <ele>22.8</ele>
        <time>2022-04-10T10:48:48.000Z</time>
      </trkpt>
      <trkpt lat="50.43067" lon="3.56747">
        <ele>22.6</ele>
        <time>2022-04-10T10:48:50.504Z</time>
      </trkpt>
      <trkpt lat="50.43073" lon="3.56756">
        <ele>22.5</ele>
        <time>2022-04-10T10:48:52.000Z</time>
      </trkpt>
      <trkpt lat="50.43078" lon="3.56765">
        <ele>22.6</ele>
        <time>2022-04-10T10:48:54.000Z</time>
      </trkpt>
      <trkpt lat="50.43082" lon="3.56772">
        <ele>22.8</ele>
        <time>2022-04-10T10:48:55.000Z</time>
      </trkpt>
      <trkpt lat="50.43086" lon="3.5678">
        <ele>22.9</ele>
        <time>2022-04-10T10:48:57.000Z</time>
      </trkpt>
      <trkpt lat="50.43092" lon="3.56786">
        <ele>22.7</ele>
        <time>2022-04-10T10:48:58.928Z</time>
      </trkpt>
      <trkpt lat="50.43098" lon="3.56788">
        <ele>22.5</ele>
        <time>2022-04-10T10:49:00.524Z</time>
      </trkpt>
      <trkpt lat="50.43105" lon="3.56786">
        <ele>22.2</ele>
        <time>2022-04-10T10:49:02.823Z</time>
      </trkpt>
      <trkpt lat="50.4311" lon="3.56779">
        <ele>22</ele>
        <time>2022-04-10T10:49:04.000Z</time>
      </trkpt>
      <trkpt lat="50.43118" lon="3.56768">
        <ele>21.7</ele>
        <time>2022-04-10T10:49:06.000Z</time>
      </trkpt>
      <trkpt lat="50.43123" lon="3.56761">
        <ele>21.4</ele>
        <time>2022-04-10T10:49:07.000Z</time>
      </trkpt>
      <trkpt lat="50.43127" lon="3.56756">
        <ele>21.2</ele>
        <time>2022-04-10T10:49:08.000Z</time>
      </trkpt>
      <trkpt lat="50.43132" lon="3.56749">
        <ele>21</ele>
        <time>2022-04-10T10:49:09.000Z</time>
      </trkpt>
      <trkpt lat="50.43137" lon="3.56745">
        <ele>21</ele>
        <time>2022-04-10T10:49:10.000Z</time>
      </trkpt>
      <trkpt lat="50.43142" lon="3.56742">
        <ele>21</ele>
        <time>2022-04-10T10:49:11.000Z</time>
      </trkpt>
      <trkpt lat="50.43147" lon="3.56737">
        <ele>21</ele>
        <time>2022-04-10T10:49:12.000Z</time>
      </trkpt>
      <trkpt lat="50.43152" lon="3.56729">
        <ele>21</ele>
        <time>2022-04-10T10:49:13.000Z</time>
      </trkpt>
      <trkpt lat="50.43158" lon="3.56718">
        <ele>21</ele>
        <time>2022-04-10T10:49:15.000Z</time>
      </trkpt>
      <trkpt lat="50.43164" lon="3.56712">
        <ele>21</ele>
        <time>2022-04-10T10:49:16.000Z</time>
      </trkpt>
      <trkpt lat="50.43173" lon="3.56703">
        <ele>21</ele>
        <time>2022-04-10T10:49:18.000Z</time>
      </trkpt>
      <trkpt lat="50.43182" lon="3.56693">
        <ele>21</ele>
        <time>2022-04-10T10:49:20.000Z</time>
      </trkpt>
      <trkpt lat="50.43188" lon="3.56687">
        <ele>20.9</ele>
        <time>2022-04-10T10:49:22.000Z</time>
      </trkpt>
      <trkpt lat="50.43192" lon="3.56682">
        <ele>21</ele>
        <time>2022-04-10T10:49:23.000Z</time>
      </trkpt>
      <trkpt lat="50.43196" lon="3.56677">
        <ele>21</ele>
        <time>2022-04-10T10:49:24.000Z</time>
      </trkpt>
      <trkpt lat="50.43201" lon="3.56673">
        <ele>21</ele>
        <time>2022-04-10T10:49:25.000Z</time>
      </trkpt>
      <trkpt lat="50.43206" lon="3.56668">
        <ele>21</ele>
        <time>2022-04-10T10:49:26.000Z</time>
      </trkpt>
      <trkpt lat="50.4321" lon="3.56664">
        <ele>21</ele>
        <time>2022-04-10T10:49:27.000Z</time>
      </trkpt>
      <trkpt lat="50.43215" lon="3.5666">
        <ele>20.9</ele>
        <time>2022-04-10T10:49:28.000Z</time>
      </trkpt>
      <trkpt lat="50.43219" lon="3.56657">
        <ele>21</ele>
        <time>2022-04-10T10:49:29.000Z</time>
      </trkpt>
      <trkpt lat="50.43224" lon="3.56654">
        <ele>21.1</ele>
        <time>2022-04-10T10:49:30.000Z</time>
      </trkpt>
      <trkpt lat="50.43231" lon="3.56646">
        <ele>21.3</ele>
        <time>2022-04-10T10:49:32.000Z</time>
      </trkpt>
      <trkpt lat="50.43234" lon="3.5664">
        <ele>21.4</ele>
        <time>2022-04-10T10:49:33.000Z</time>
      </trkpt>
      <trkpt lat="50.43238" lon="3.56635">
        <ele>21.5</ele>
        <time>2022-04-10T10:49:34.000Z</time>
      </trkpt>
      <trkpt lat="50.43244" lon="3.56629">
        <ele>21.5</ele>
        <time>2022-04-10T10:49:35.000Z</time>
      </trkpt>
      <trkpt lat="50.43251" lon="3.56624">
        <ele>21.5</ele>
        <time>2022-04-10T10:49:37.000Z</time>
      </trkpt>
      <trkpt lat="50.43255" lon="3.5662">
        <ele>21.4</ele>
        <time>2022-04-10T10:49:38.000Z</time>
      </trkpt>
      <trkpt lat="50.43261" lon="3.56614">
        <ele>21.5</ele>
        <time>2022-04-10T10:49:40.000Z</time>
      </trkpt>
      <trkpt lat="50.43269" lon="3.56607">
        <ele>21.7</ele>
        <time>2022-04-10T10:49:42.000Z</time>
      </trkpt>
      <trkpt lat="50.43276" lon="3.56605">
        <ele>21.9</ele>
        <time>2022-04-10T10:49:44.000Z</time>
      </trkpt>
      <trkpt lat="50.43282" lon="3.56601">
        <ele>22</ele>
        <time>2022-04-10T10:49:46.000Z</time>
      </trkpt>
      <trkpt lat="50.43288" lon="3.56599">
        <ele>21.8</ele>
        <time>2022-04-10T10:49:48.000Z</time>
      </trkpt>
      <trkpt lat="50.43297" lon="3.56605">
        <ele>21.9</ele>
        <time>2022-04-10T10:49:51.000Z</time>
      </trkpt>
      <trkpt lat="50.43301" lon="3.56612">
        <ele>22</ele>
        <time>2022-04-10T10:49:52.000Z</time>
      </trkpt>
      <trkpt lat="50.43308" lon="3.56621">
        <ele>22</ele>
        <time>2022-04-10T10:49:53.945Z</time>
      </trkpt>
      <trkpt lat="50.43313" lon="3.56628">
        <ele>22</ele>
        <time>2022-04-10T10:49:55.000Z</time>
      </trkpt>
      <trkpt lat="50.43322" lon="3.56638">
        <ele>22</ele>
        <time>2022-04-10T10:49:57.000Z</time>
      </trkpt>
      <trkpt lat="50.43329" lon="3.56646">
        <ele>22</ele>
        <time>2022-04-10T10:49:59.000Z</time>
      </trkpt>
      <trkpt lat="50.43332" lon="3.5665">
        <ele>22</ele>
        <time>2022-04-10T10:50:00.000Z</time>
      </trkpt>
      <trkpt lat="50.43336" lon="3.56655">
        <ele>22</ele>
        <time>2022-04-10T10:50:01.000Z</time>
      </trkpt>
      <trkpt lat="50.43341" lon="3.56653">
        <ele>22</ele>
        <time>2022-04-10T10:50:04.016Z</time>
      </trkpt>
      <trkpt lat="50.43342" lon="3.56645">
        <ele>22</ele>
        <time>2022-04-10T10:50:06.000Z</time>
      </trkpt>
      <trkpt lat="50.43346" lon="3.56637">
        <ele>22</ele>
        <time>2022-04-10T10:50:08.000Z</time>
      </trkpt>
      <trkpt lat="50.43351" lon="3.56631">
        <ele>22</ele>
        <time>2022-04-10T10:50:10.000Z</time>
      </trkpt>
      <trkpt lat="50.43358" lon="3.56621">
        <ele>22</ele>
        <time>2022-04-10T10:50:12.000Z</time>
      </trkpt>
      <trkpt lat="50.43361" lon="3.56614">
        <ele>22</ele>
        <time>2022-04-10T10:50:13.515Z</time>
      </trkpt>
      <trkpt lat="50.43365" lon="3.56608">
        <ele>21.8</ele>
        <time>2022-04-10T10:50:14.753Z</time>
      </trkpt>
      <trkpt lat="50.43369" lon="3.56602">
        <ele>21.5</ele>
        <time>2022-04-10T10:50:16.000Z</time>
      </trkpt>
      <trkpt lat="50.43373" lon="3.56598">
        <ele>21.3</ele>
        <time>2022-04-10T10:50:17.000Z</time>
      </trkpt>
      <trkpt lat="50.43377" lon="3.56593">
        <ele>21.2</ele>
        <time>2022-04-10T10:50:18.000Z</time>
      </trkpt>
      <trkpt lat="50.43381" lon="3.56589">
        <ele>21.1</ele>
        <time>2022-04-10T10:50:19.000Z</time>
      </trkpt>
      <trkpt lat="50.43385" lon="3.56583">
        <ele>21</ele>
        <time>2022-04-10T10:50:20.000Z</time>
      </trkpt>
      <trkpt lat="50.43388" lon="3.56578">
        <ele>21</ele>
        <time>2022-04-10T10:50:21.000Z</time>
      </trkpt>
      <trkpt lat="50.43393" lon="3.56571">
        <ele>20.9</ele>
        <time>2022-04-10T10:50:22.000Z</time>
      </trkpt>
      <trkpt lat="50.43399" lon="3.56562">
        <ele>20.7</ele>
        <time>2022-04-10T10:50:24.000Z</time>
      </trkpt>
      <trkpt lat="50.43403" lon="3.56556">
        <ele>20.5</ele>
        <time>2022-04-10T10:50:25.000Z</time>
      </trkpt>
      <trkpt lat="50.43406" lon="3.56551">
        <ele>20.4</ele>
        <time>2022-04-10T10:50:26.000Z</time>
      </trkpt>
      <trkpt lat="50.4341" lon="3.56545">
        <ele>20.2</ele>
        <time>2022-04-10T10:50:27.000Z</time>
      </trkpt>
      <trkpt lat="50.43413" lon="3.56538">
        <ele>20.1</ele>
        <time>2022-04-10T10:50:28.000Z</time>
      </trkpt>
      <trkpt lat="50.43415" lon="3.56532">
        <ele>20.1</ele>
        <time>2022-04-10T10:50:29.000Z</time>
      </trkpt>
      <trkpt lat="50.43421" lon="3.56518">
        <ele>20</ele>
        <time>2022-04-10T10:50:31.000Z</time>
      </trkpt>
      <trkpt lat="50.43424" lon="3.56512">
        <ele>20</ele>
        <time>2022-04-10T10:50:32.000Z</time>
      </trkpt>
      <trkpt lat="50.43428" lon="3.56505">
        <ele>20</ele>
        <time>2022-04-10T10:50:33.000Z</time>
      </trkpt>
      <trkpt lat="50.43432" lon="3.565">
        <ele>20</ele>
        <time>2022-04-10T10:50:34.000Z</time>
      </trkpt>
      <trkpt lat="50.43436" lon="3.56494">
        <ele>20</ele>
        <time>2022-04-10T10:50:35.000Z</time>
      </trkpt>
      <trkpt lat="50.4344" lon="3.56488">
        <ele>20</ele>
        <time>2022-04-10T10:50:36.000Z</time>
      </trkpt>
      <trkpt lat="50.43444" lon="3.56483">
        <ele>20</ele>
        <time>2022-04-10T10:50:37.000Z</time>
      </trkpt>
      <trkpt lat="50.43447" lon="3.56475">
        <ele>19.9</ele>
        <time>2022-04-10T10:50:38.000Z</time>
      </trkpt>
      <trkpt lat="50.43451" lon="3.56469">
        <ele>19.7</ele>
        <time>2022-04-10T10:50:39.000Z</time>
      </trkpt>
      <trkpt lat="50.43454" lon="3.56463">
        <ele>19.4</ele>
        <time>2022-04-10T10:50:40.000Z</time>
      </trkpt>
      <trkpt lat="50.43458" lon="3.56457">
        <ele>19.2</ele>
        <time>2022-04-10T10:50:41.000Z</time>
      </trkpt>
      <trkpt lat="50.43462" lon="3.56451">
        <ele>19.1</ele>
        <time>2022-04-10T10:50:42.000Z</time>
      </trkpt>
      <trkpt lat="50.43465" lon="3.56446">
        <ele>19</ele>
        <time>2022-04-10T10:50:43.000Z</time>
      </trkpt>
      <trkpt lat="50.43468" lon="3.5644">
        <ele>19</ele>
        <time>2022-04-10T10:50:44.000Z</time>
      </trkpt>
      <trkpt lat="50.43475" lon="3.56426">
        <ele>19</ele>
        <time>2022-04-10T10:50:46.000Z</time>
      </trkpt>
      <trkpt lat="50.43478" lon="3.56419">
        <ele>19</ele>
        <time>2022-04-10T10:50:47.000Z</time>
      </trkpt>
      <trkpt lat="50.43481" lon="3.56413">
        <ele>19</ele>
        <time>2022-04-10T10:50:48.000Z</time>
      </trkpt>
      <trkpt lat="50.43485" lon="3.56405">
        <ele>19</ele>
        <time>2022-04-10T10:50:49.000Z</time>
      </trkpt>
      <trkpt lat="50.43492" lon="3.56394">
        <ele>19</ele>
        <time>2022-04-10T10:50:51.000Z</time>
      </trkpt>
      <trkpt lat="50.43495" lon="3.56389">
        <ele>19</ele>
        <time>2022-04-10T10:50:52.000Z</time>
      </trkpt>
      <trkpt lat="50.43499" lon="3.56382">
        <ele>19</ele>
        <time>2022-04-10T10:50:53.000Z</time>
      </trkpt>
      <trkpt lat="50.43502" lon="3.56376">
        <ele>19</ele>
        <time>2022-04-10T10:50:54.000Z</time>
      </trkpt>
      <trkpt lat="50.43505" lon="3.5637">
        <ele>19</ele>
        <time>2022-04-10T10:50:55.000Z</time>
      </trkpt>
      <trkpt lat="50.43509" lon="3.56364">
        <ele>19</ele>
        <time>2022-04-10T10:50:56.000Z</time>
      </trkpt>
      <trkpt lat="50.43512" lon="3.56358">
        <ele>19</ele>
        <time>2022-04-10T10:50:57.000Z</time>
      </trkpt>
      <trkpt lat="50.43517" lon="3.56349">
        <ele>19</ele>
        <time>2022-04-10T10:50:58.000Z</time>
      </trkpt>
      <trkpt lat="50.43521" lon="3.56342">
        <ele>19</ele>
        <time>2022-04-10T10:50:59.000Z</time>
      </trkpt>
      <trkpt lat="50.43524" lon="3.56336">
        <ele>19</ele>
        <time>2022-04-10T10:51:00.000Z</time>
      </trkpt>
      <trkpt lat="50.43528" lon="3.56327">
        <ele>19</ele>
        <time>2022-04-10T10:51:02.000Z</time>
      </trkpt>
      <trkpt lat="50.43531" lon="3.56321">
        <ele>19</ele>
        <time>2022-04-10T10:51:05.000Z</time>
      </trkpt>
      <trkpt lat="50.43534" lon="3.56315">
        <ele>19</ele>
        <time>2022-04-10T10:51:07.000Z</time>
      </trkpt>
      <trkpt lat="50.43538" lon="3.56301">
        <ele>19</ele>
        <time>2022-04-10T10:51:10.000Z</time>
      </trkpt>
      <trkpt lat="50.43542" lon="3.56291">
        <ele>19</ele>
        <time>2022-04-10T10:51:12.000Z</time>
      </trkpt>
      <trkpt lat="50.43548" lon="3.56277">
        <ele>19</ele>
        <time>2022-04-10T10:51:14.939Z</time>
      </trkpt>
      <trkpt lat="50.43552" lon="3.56267">
        <ele>19</ele>
        <time>2022-04-10T10:51:17.000Z</time>
      </trkpt>
      <trkpt lat="50.43555" lon="3.56259">
        <ele>19</ele>
        <time>2022-04-10T10:51:18.000Z</time>
      </trkpt>
      <trkpt lat="50.43559" lon="3.5625">
        <ele>19</ele>
        <time>2022-04-10T10:51:20.000Z</time>
      </trkpt>
      <trkpt lat="50.43563" lon="3.56241">
        <ele>19.2</ele>
        <time>2022-04-10T10:51:21.945Z</time>
      </trkpt>
      <trkpt lat="50.43567" lon="3.56231">
        <ele>19.4</ele>
        <time>2022-04-10T10:51:23.737Z</time>
      </trkpt>
      <trkpt lat="50.43569" lon="3.56223">
        <ele>19.5</ele>
        <time>2022-04-10T10:51:25.134Z</time>
      </trkpt>
      <trkpt lat="50.43571" lon="3.56215">
        <ele>19.5</ele>
        <time>2022-04-10T10:51:26.594Z</time>
      </trkpt>
      <trkpt lat="50.43574" lon="3.5621">
        <ele>19.5</ele>
        <time>2022-04-10T10:51:28.000Z</time>
      </trkpt>
      <trkpt lat="50.4358" lon="3.56202">
        <ele>19.7</ele>
        <time>2022-04-10T10:51:30.138Z</time>
      </trkpt>
      <trkpt lat="50.43586" lon="3.56192">
        <ele>20</ele>
        <time>2022-04-10T10:51:32.435Z</time>
      </trkpt>
      <trkpt lat="50.43591" lon="3.56186">
        <ele>20</ele>
        <time>2022-04-10T10:51:35.000Z</time>
      </trkpt>
      <trkpt lat="50.43595" lon="3.5618">
        <ele>20</ele>
        <time>2022-04-10T10:51:37.179Z</time>
      </trkpt>
      <trkpt lat="50.43599" lon="3.56174">
        <ele>20</ele>
        <time>2022-04-10T10:51:38.994Z</time>
      </trkpt>
      <trkpt lat="50.43604" lon="3.56167">
        <ele>20</ele>
        <time>2022-04-10T10:51:41.000Z</time>
      </trkpt>
      <trkpt lat="50.43609" lon="3.5616">
        <ele>20</ele>
        <time>2022-04-10T10:51:42.955Z</time>
      </trkpt>
      <trkpt lat="50.43613" lon="3.56152">
        <ele>20</ele>
        <time>2022-04-10T10:51:45.000Z</time>
      </trkpt>
      <trkpt lat="50.43617" lon="3.56143">
        <ele>20</ele>
        <time>2022-04-10T10:51:47.136Z</time>
      </trkpt>
      <trkpt lat="50.43621" lon="3.56138">
        <ele>20</ele>
        <time>2022-04-10T10:51:48.697Z</time>
      </trkpt>
      <trkpt lat="50.43626" lon="3.5613">
        <ele>20.2</ele>
        <time>2022-04-10T10:51:51.000Z</time>
      </trkpt>
      <trkpt lat="50.4363" lon="3.56124">
        <ele>20.4</ele>
        <time>2022-04-10T10:51:53.000Z</time>
      </trkpt>
      <trkpt lat="50.43633" lon="3.56117">
        <ele>20.6</ele>
        <time>2022-04-10T10:51:55.000Z</time>
      </trkpt>
      <trkpt lat="50.43637" lon="3.5611">
        <ele>20.9</ele>
        <time>2022-04-10T10:51:57.154Z</time>
      </trkpt>
      <trkpt lat="50.43642" lon="3.56103">
        <ele>20.7</ele>
        <time>2022-04-10T10:51:59.000Z</time>
      </trkpt>
      <trkpt lat="50.43648" lon="3.56094">
        <ele>20.5</ele>
        <time>2022-04-10T10:52:01.638Z</time>
      </trkpt>
      <trkpt lat="50.43652" lon="3.5609">
        <ele>20.5</ele>
        <time>2022-04-10T10:52:02.977Z</time>
      </trkpt>
      <trkpt lat="50.43657" lon="3.56085">
        <ele>20.6</ele>
        <time>2022-04-10T10:52:05.000Z</time>
      </trkpt>
      <trkpt lat="50.43661" lon="3.5608">
        <ele>20.8</ele>
        <time>2022-04-10T10:52:07.000Z</time>
      </trkpt>
      <trkpt lat="50.43662" lon="3.56069">
        <ele>20.8</ele>
        <time>2022-04-10T10:52:10.000Z</time>
      </trkpt>
      <trkpt lat="50.4366" lon="3.5606">
        <ele>20.8</ele>
        <time>2022-04-10T10:52:12.000Z</time>
      </trkpt>
      <trkpt lat="50.43659" lon="3.5605">
        <ele>20.7</ele>
        <time>2022-04-10T10:52:14.000Z</time>
      </trkpt>
      <trkpt lat="50.43656" lon="3.5604">
        <ele>20.6</ele>
        <time>2022-04-10T10:52:16.000Z</time>
      </trkpt>
      <trkpt lat="50.43654" lon="3.56029">
        <ele>20.5</ele>
        <time>2022-04-10T10:52:18.000Z</time>
      </trkpt>
      <trkpt lat="50.43652" lon="3.56018">
        <ele>20.5</ele>
        <time>2022-04-10T10:52:20.034Z</time>
      </trkpt>
      <trkpt lat="50.4365" lon="3.56006">
        <ele>20.4</ele>
        <time>2022-04-10T10:52:22.000Z</time>
      </trkpt>
      <trkpt lat="50.43647" lon="3.55993">
        <ele>20.5</ele>
        <time>2022-04-10T10:52:24.000Z</time>
      </trkpt>
      <trkpt lat="50.43644" lon="3.55982">
        <ele>20.7</ele>
        <time>2022-04-10T10:52:26.000Z</time>
      </trkpt>
      <trkpt lat="50.4364" lon="3.55969">
        <ele>21</ele>
        <time>2022-04-10T10:52:28.000Z</time>
      </trkpt>
      <trkpt lat="50.43638" lon="3.55962">
        <ele>21</ele>
        <time>2022-04-10T10:52:29.000Z</time>
      </trkpt>
      <trkpt lat="50.43637" lon="3.55955">
        <ele>21</ele>
        <time>2022-04-10T10:52:30.000Z</time>
      </trkpt>
      <trkpt lat="50.43635" lon="3.55949">
        <ele>21</ele>
        <time>2022-04-10T10:52:31.000Z</time>
      </trkpt>
      <trkpt lat="50.43634" lon="3.55942">
        <ele>21</ele>
        <time>2022-04-10T10:52:32.000Z</time>
      </trkpt>
      <trkpt lat="50.43632" lon="3.55935">
        <ele>21</ele>
        <time>2022-04-10T10:52:33.000Z</time>
      </trkpt>
      <trkpt lat="50.4363" lon="3.55928">
        <ele>21</ele>
        <time>2022-04-10T10:52:34.000Z</time>
      </trkpt>
      <trkpt lat="50.43627" lon="3.55915">
        <ele>21</ele>
        <time>2022-04-10T10:52:36.000Z</time>
      </trkpt>
      <trkpt lat="50.43625" lon="3.55908">
        <ele>21</ele>
        <time>2022-04-10T10:52:37.000Z</time>
      </trkpt>
      <trkpt lat="50.43624" lon="3.55901">
        <ele>21</ele>
        <time>2022-04-10T10:52:38.000Z</time>
      </trkpt>
      <trkpt lat="50.43621" lon="3.55891">
        <ele>21</ele>
        <time>2022-04-10T10:52:40.000Z</time>
      </trkpt>
      <trkpt lat="50.43619" lon="3.55884">
        <ele>20.9</ele>
        <time>2022-04-10T10:52:41.000Z</time>
      </trkpt>
      <trkpt lat="50.43618" lon="3.55878">
        <ele>20.7</ele>
        <time>2022-04-10T10:52:42.000Z</time>
      </trkpt>
      <trkpt lat="50.43615" lon="3.55864">
        <ele>20.2</ele>
        <time>2022-04-10T10:52:44.000Z</time>
      </trkpt>
      <trkpt lat="50.43613" lon="3.55852">
        <ele>20.4</ele>
        <time>2022-04-10T10:52:45.759Z</time>
      </trkpt>
      <trkpt lat="50.43611" lon="3.55843">
        <ele>20.7</ele>
        <time>2022-04-10T10:52:47.000Z</time>
      </trkpt>
      <trkpt lat="50.43608" lon="3.55831">
        <ele>21</ele>
        <time>2022-04-10T10:52:49.000Z</time>
      </trkpt>
      <trkpt lat="50.43606" lon="3.55818">
        <ele>21</ele>
        <time>2022-04-10T10:52:51.000Z</time>
      </trkpt>
      <trkpt lat="50.43602" lon="3.55802">
        <ele>21</ele>
        <time>2022-04-10T10:52:53.603Z</time>
      </trkpt>
      <trkpt lat="50.43599" lon="3.55793">
        <ele>21</ele>
        <time>2022-04-10T10:52:55.000Z</time>
      </trkpt>
      <trkpt lat="50.43598" lon="3.5578">
        <ele>21</ele>
        <time>2022-04-10T10:52:57.000Z</time>
      </trkpt>
      <trkpt lat="50.43596" lon="3.55767">
        <ele>21</ele>
        <time>2022-04-10T10:52:59.000Z</time>
      </trkpt>
      <trkpt lat="50.43596" lon="3.55759">
        <ele>21</ele>
        <time>2022-04-10T10:53:00.339Z</time>
      </trkpt>
      <trkpt lat="50.43596" lon="3.55743">
        <ele>21</ele>
        <time>2022-04-10T10:53:02.878Z</time>
      </trkpt>
      <trkpt lat="50.43595" lon="3.55733">
        <ele>21</ele>
        <time>2022-04-10T10:53:05.000Z</time>
      </trkpt>
      <trkpt lat="50.43595" lon="3.55721">
        <ele>21</ele>
        <time>2022-04-10T10:53:07.000Z</time>
      </trkpt>
      <trkpt lat="50.43594" lon="3.55711">
        <ele>21.4</ele>
        <time>2022-04-10T10:53:09.000Z</time>
      </trkpt>
      <trkpt lat="50.43594" lon="3.557">
        <ele>21.8</ele>
        <time>2022-04-10T10:53:10.995Z</time>
      </trkpt>
      <trkpt lat="50.43592" lon="3.55688">
        <ele>22</ele>
        <time>2022-04-10T10:53:13.000Z</time>
      </trkpt>
      <trkpt lat="50.43591" lon="3.55677">
        <ele>22</ele>
        <time>2022-04-10T10:53:15.000Z</time>
      </trkpt>
      <trkpt lat="50.4359" lon="3.55666">
        <ele>22</ele>
        <time>2022-04-10T10:53:17.000Z</time>
      </trkpt>
      <trkpt lat="50.4359" lon="3.55653">
        <ele>22</ele>
        <time>2022-04-10T10:53:19.415Z</time>
      </trkpt>
      <trkpt lat="50.43589" lon="3.55644">
        <ele>22</ele>
        <time>2022-04-10T10:53:21.000Z</time>
      </trkpt>
      <trkpt lat="50.43588" lon="3.55633">
        <ele>22.2</ele>
        <time>2022-04-10T10:53:23.000Z</time>
      </trkpt>
      <trkpt lat="50.43586" lon="3.55622">
        <ele>22.6</ele>
        <time>2022-04-10T10:53:25.000Z</time>
      </trkpt>
      <trkpt lat="50.43586" lon="3.55612">
        <ele>23</ele>
        <time>2022-04-10T10:53:27.000Z</time>
      </trkpt>
      <trkpt lat="50.43586" lon="3.55602">
        <ele>23</ele>
        <time>2022-04-10T10:53:29.000Z</time>
      </trkpt>
      <trkpt lat="50.43585" lon="3.55593">
        <ele>23</ele>
        <time>2022-04-10T10:53:31.000Z</time>
      </trkpt>
      <trkpt lat="50.43584" lon="3.55583">
        <ele>23</ele>
        <time>2022-04-10T10:53:33.000Z</time>
      </trkpt>
      <trkpt lat="50.43584" lon="3.55574">
        <ele>23</ele>
        <time>2022-04-10T10:53:35.000Z</time>
      </trkpt>
      <trkpt lat="50.43583" lon="3.55563">
        <ele>23</ele>
        <time>2022-04-10T10:53:37.000Z</time>
      </trkpt>
      <trkpt lat="50.43583" lon="3.55555">
        <ele>23</ele>
        <time>2022-04-10T10:53:38.520Z</time>
      </trkpt>
      <trkpt lat="50.43582" lon="3.55548">
        <ele>23</ele>
        <time>2022-04-10T10:53:39.905Z</time>
      </trkpt>
      <trkpt lat="50.43582" lon="3.55535">
        <ele>23</ele>
        <time>2022-04-10T10:53:42.000Z</time>
      </trkpt>
      <trkpt lat="50.43581" lon="3.55521">
        <ele>23.2</ele>
        <time>2022-04-10T10:53:44.000Z</time>
      </trkpt>
      <trkpt lat="50.43579" lon="3.55508">
        <ele>23.7</ele>
        <time>2022-04-10T10:53:46.000Z</time>
      </trkpt>
      <trkpt lat="50.43578" lon="3.55496">
        <ele>24</ele>
        <time>2022-04-10T10:53:48.000Z</time>
      </trkpt>
      <trkpt lat="50.43577" lon="3.55483">
        <ele>24</ele>
        <time>2022-04-10T10:53:50.000Z</time>
      </trkpt>
      <trkpt lat="50.43575" lon="3.55469">
        <ele>24</ele>
        <time>2022-04-10T10:53:52.000Z</time>
      </trkpt>
      <trkpt lat="50.43574" lon="3.55457">
        <ele>24</ele>
        <time>2022-04-10T10:53:54.051Z</time>
      </trkpt>
      <trkpt lat="50.43573" lon="3.55443">
        <ele>24</ele>
        <time>2022-04-10T10:53:56.000Z</time>
      </trkpt>
      <trkpt lat="50.43572" lon="3.55427">
        <ele>24</ele>
        <time>2022-04-10T10:53:58.621Z</time>
      </trkpt>
      <trkpt lat="50.43572" lon="3.55419">
        <ele>24</ele>
        <time>2022-04-10T10:53:59.874Z</time>
      </trkpt>
      <trkpt lat="50.43571" lon="3.55412">
        <ele>24</ele>
        <time>2022-04-10T10:54:01.000Z</time>
      </trkpt>
      <trkpt lat="50.43572" lon="3.55405">
        <ele>24</ele>
        <time>2022-04-10T10:54:02.116Z</time>
      </trkpt>
      <trkpt lat="50.43574" lon="3.55392">
        <ele>24</ele>
        <time>2022-04-10T10:54:04.076Z</time>
      </trkpt>
      <trkpt lat="50.43577" lon="3.5538">
        <ele>24</ele>
        <time>2022-04-10T10:54:06.000Z</time>
      </trkpt>
      <trkpt lat="50.4358" lon="3.55369">
        <ele>24</ele>
        <time>2022-04-10T10:54:08.000Z</time>
      </trkpt>
      <trkpt lat="50.43584" lon="3.55357">
        <ele>24</ele>
        <time>2022-04-10T10:54:10.000Z</time>
      </trkpt>
      <trkpt lat="50.43589" lon="3.55347">
        <ele>24</ele>
        <time>2022-04-10T10:54:12.000Z</time>
      </trkpt>
      <trkpt lat="50.43594" lon="3.55333">
        <ele>24</ele>
        <time>2022-04-10T10:54:14.000Z</time>
      </trkpt>
      <trkpt lat="50.43598" lon="3.55322">
        <ele>24</ele>
        <time>2022-04-10T10:54:16.000Z</time>
      </trkpt>
      <trkpt lat="50.43602" lon="3.55311">
        <ele>24</ele>
        <time>2022-04-10T10:54:18.000Z</time>
      </trkpt>
      <trkpt lat="50.43605" lon="3.55305">
        <ele>24</ele>
        <time>2022-04-10T10:54:19.000Z</time>
      </trkpt>
      <trkpt lat="50.43609" lon="3.55299">
        <ele>24</ele>
        <time>2022-04-10T10:54:21.000Z</time>
      </trkpt>
      <trkpt lat="50.43612" lon="3.55295">
        <ele>24</ele>
        <time>2022-04-10T10:54:23.000Z</time>
      </trkpt>
      <trkpt lat="50.43615" lon="3.55287">
        <ele>24</ele>
        <time>2022-04-10T10:54:24.041Z</time>
      </trkpt>
      <trkpt lat="50.43617" lon="3.55278">
        <ele>24</ele>
        <time>2022-04-10T10:54:25.000Z</time>
      </trkpt>
      <trkpt lat="50.43618" lon="3.55271">
        <ele>24</ele>
        <time>2022-04-10T10:54:26.000Z</time>
      </trkpt>
      <trkpt lat="50.43621" lon="3.5526">
        <ele>24</ele>
        <time>2022-04-10T10:54:27.433Z</time>
      </trkpt>
      <trkpt lat="50.43624" lon="3.5525">
        <ele>24</ele>
        <time>2022-04-10T10:54:29.057Z</time>
      </trkpt>
      <trkpt lat="50.43626" lon="3.55243">
        <ele>24</ele>
        <time>2022-04-10T10:54:30.000Z</time>
      </trkpt>
      <trkpt lat="50.43631" lon="3.55237">
        <ele>24</ele>
        <time>2022-04-10T10:54:31.000Z</time>
      </trkpt>
      <trkpt lat="50.43639" lon="3.55235">
        <ele>24</ele>
        <time>2022-04-10T10:54:33.000Z</time>
      </trkpt>
      <trkpt lat="50.43651" lon="3.55243">
        <ele>24</ele>
        <time>2022-04-10T10:54:36.000Z</time>
      </trkpt>
      <trkpt lat="50.4366" lon="3.55247">
        <ele>24</ele>
        <time>2022-04-10T10:54:38.000Z</time>
      </trkpt>
      <trkpt lat="50.43665" lon="3.55249">
        <ele>24</ele>
        <time>2022-04-10T10:54:39.000Z</time>
      </trkpt>
      <trkpt lat="50.43669" lon="3.55253">
        <ele>24</ele>
        <time>2022-04-10T10:54:40.000Z</time>
      </trkpt>
      <trkpt lat="50.43673" lon="3.55256">
        <ele>24</ele>
        <time>2022-04-10T10:54:41.078Z</time>
      </trkpt>
      <trkpt lat="50.43683" lon="3.5526">
        <ele>24</ele>
        <time>2022-04-10T10:54:43.000Z</time>
      </trkpt>
      <trkpt lat="50.43688" lon="3.55262">
        <ele>24</ele>
        <time>2022-04-10T10:54:44.000Z</time>
      </trkpt>
      <trkpt lat="50.43695" lon="3.55265">
        <ele>24</ele>
        <time>2022-04-10T10:54:46.000Z</time>
      </trkpt>
      <trkpt lat="50.43699" lon="3.55268">
        <ele>24</ele>
        <time>2022-04-10T10:54:49.000Z</time>
      </trkpt>
      <trkpt lat="50.43706" lon="3.55271">
        <ele>24</ele>
        <time>2022-04-10T10:54:50.000Z</time>
      </trkpt>
      <trkpt lat="50.4371" lon="3.5527">
        <ele>24</ele>
        <time>2022-04-10T10:54:51.000Z</time>
      </trkpt>
      <trkpt lat="50.43715" lon="3.55266">
        <ele>24</ele>
        <time>2022-04-10T10:54:52.000Z</time>
      </trkpt>
      <trkpt lat="50.4372" lon="3.55262">
        <ele>24</ele>
        <time>2022-04-10T10:54:53.000Z</time>
      </trkpt>
      <trkpt lat="50.43724" lon="3.55258">
        <ele>24</ele>
        <time>2022-04-10T10:54:54.000Z</time>
      </trkpt>
      <trkpt lat="50.43728" lon="3.55244">
        <ele>23.8</ele>
        <time>2022-04-10T10:54:56.462Z</time>
      </trkpt>
      <trkpt lat="50.43732" lon="3.55236">
        <ele>23.5</ele>
        <time>2022-04-10T10:54:58.823Z</time>
      </trkpt>
      <trkpt lat="50.43735" lon="3.55225">
        <ele>23.1</ele>
        <time>2022-04-10T10:55:01.000Z</time>
      </trkpt>
      <trkpt lat="50.43738" lon="3.55218">
        <ele>23</ele>
        <time>2022-04-10T10:55:02.962Z</time>
      </trkpt>
      <trkpt lat="50.43741" lon="3.5521">
        <ele>23</ele>
        <time>2022-04-10T10:55:05.000Z</time>
      </trkpt>
      <trkpt lat="50.43745" lon="3.552">
        <ele>23</ele>
        <time>2022-04-10T10:55:07.542Z</time>
      </trkpt>
      <trkpt lat="50.43751" lon="3.55185">
        <ele>23</ele>
        <time>2022-04-10T10:55:10.720Z</time>
      </trkpt>
      <trkpt lat="50.43753" lon="3.55177">
        <ele>23</ele>
        <time>2022-04-10T10:55:12.880Z</time>
      </trkpt>
      <trkpt lat="50.43756" lon="3.55171">
        <ele>23</ele>
        <time>2022-04-10T10:55:14.000Z</time>
      </trkpt>
      <trkpt lat="50.4376" lon="3.55158">
        <ele>23</ele>
        <time>2022-04-10T10:55:16.887Z</time>
      </trkpt>
      <trkpt lat="50.43762" lon="3.55151">
        <ele>23</ele>
        <time>2022-04-10T10:55:18.125Z</time>
      </trkpt>
      <trkpt lat="50.43765" lon="3.55144">
        <ele>23</ele>
        <time>2022-04-10T10:55:20.819Z</time>
      </trkpt>
      <trkpt lat="50.4377" lon="3.55134">
        <ele>23</ele>
        <time>2022-04-10T10:55:22.947Z</time>
      </trkpt>
      <trkpt lat="50.43773" lon="3.55129">
        <ele>23</ele>
        <time>2022-04-10T10:55:24.000Z</time>
      </trkpt>
      <trkpt lat="50.43775" lon="3.55122">
        <ele>23</ele>
        <time>2022-04-10T10:55:26.000Z</time>
      </trkpt>
      <trkpt lat="50.43777" lon="3.55115">
        <ele>23</ele>
        <time>2022-04-10T10:55:27.000Z</time>
      </trkpt>
      <trkpt lat="50.43782" lon="3.55103">
        <ele>23</ele>
        <time>2022-04-10T10:55:30.000Z</time>
      </trkpt>
      <trkpt lat="50.43787" lon="3.5509">
        <ele>23</ele>
        <time>2022-04-10T10:55:32.000Z</time>
      </trkpt>
      <trkpt lat="50.43788" lon="3.55082">
        <ele>23</ele>
        <time>2022-04-10T10:55:33.000Z</time>
      </trkpt>
      <trkpt lat="50.43792" lon="3.55072">
        <ele>23.2</ele>
        <time>2022-04-10T10:55:34.926Z</time>
      </trkpt>
      <trkpt lat="50.43794" lon="3.55064">
        <ele>23.4</ele>
        <time>2022-04-10T10:55:37.000Z</time>
      </trkpt>
      <trkpt lat="50.43796" lon="3.55056">
        <ele>23.6</ele>
        <time>2022-04-10T10:55:38.000Z</time>
      </trkpt>
      <trkpt lat="50.43799" lon="3.55049">
        <ele>23.8</ele>
        <time>2022-04-10T10:55:40.000Z</time>
      </trkpt>
      <trkpt lat="50.43802" lon="3.55042">
        <ele>23.9</ele>
        <time>2022-04-10T10:55:41.041Z</time>
      </trkpt>
      <trkpt lat="50.43806" lon="3.55034">
        <ele>24</ele>
        <time>2022-04-10T10:55:42.000Z</time>
      </trkpt>
      <trkpt lat="50.43809" lon="3.55023">
        <ele>24</ele>
        <time>2022-04-10T10:55:45.002Z</time>
      </trkpt>
      <trkpt lat="50.4381" lon="3.55012">
        <ele>24</ele>
        <time>2022-04-10T10:55:47.085Z</time>
      </trkpt>
      <trkpt lat="50.43815" lon="3.55001">
        <ele>24</ele>
        <time>2022-04-10T10:55:49.000Z</time>
      </trkpt>
      <trkpt lat="50.43818" lon="3.54993">
        <ele>24</ele>
        <time>2022-04-10T10:55:50.022Z</time>
      </trkpt>
      <trkpt lat="50.43821" lon="3.54983">
        <ele>24</ele>
        <time>2022-04-10T10:55:52.542Z</time>
      </trkpt>
      <trkpt lat="50.43824" lon="3.54975">
        <ele>24</ele>
        <time>2022-04-10T10:55:54.113Z</time>
      </trkpt>
      <trkpt lat="50.43827" lon="3.54964">
        <ele>24</ele>
        <time>2022-04-10T10:55:56.544Z</time>
      </trkpt>
      <trkpt lat="50.4383" lon="3.54955">
        <ele>24</ele>
        <time>2022-04-10T10:55:58.000Z</time>
      </trkpt>
      <trkpt lat="50.43831" lon="3.54947">
        <ele>24</ele>
        <time>2022-04-10T10:56:00.022Z</time>
      </trkpt>
      <trkpt lat="50.43835" lon="3.54934">
        <ele>24</ele>
        <time>2022-04-10T10:56:03.000Z</time>
      </trkpt>
      <trkpt lat="50.4384" lon="3.54925">
        <ele>24</ele>
        <time>2022-04-10T10:56:05.403Z</time>
      </trkpt>
      <trkpt lat="50.43845" lon="3.54917">
        <ele>24</ele>
        <time>2022-04-10T10:56:07.793Z</time>
      </trkpt>
      <trkpt lat="50.43849" lon="3.54907">
        <ele>24</ele>
        <time>2022-04-10T10:56:10.000Z</time>
      </trkpt>
      <trkpt lat="50.43852" lon="3.54896">
        <ele>24</ele>
        <time>2022-04-10T10:56:13.151Z</time>
      </trkpt>
      <trkpt lat="50.43855" lon="3.54883">
        <ele>24</ele>
        <time>2022-04-10T10:56:15.700Z</time>
      </trkpt>
      <trkpt lat="50.43858" lon="3.54874">
        <ele>24</ele>
        <time>2022-04-10T10:56:18.026Z</time>
      </trkpt>
      <trkpt lat="50.43862" lon="3.54865">
        <ele>24</ele>
        <time>2022-04-10T10:56:19.061Z</time>
      </trkpt>
      <trkpt lat="50.43864" lon="3.54858">
        <ele>24</ele>
        <time>2022-04-10T10:56:20.000Z</time>
      </trkpt>
      <trkpt lat="50.43866" lon="3.54848">
        <ele>24</ele>
        <time>2022-04-10T10:56:21.183Z</time>
      </trkpt>
      <trkpt lat="50.43869" lon="3.54842">
        <ele>24</ele>
        <time>2022-04-10T10:56:23.000Z</time>
      </trkpt>
      <trkpt lat="50.43873" lon="3.54833">
        <ele>24</ele>
        <time>2022-04-10T10:56:24.000Z</time>
      </trkpt>
      <trkpt lat="50.43877" lon="3.54818">
        <ele>24</ele>
        <time>2022-04-10T10:56:26.000Z</time>
      </trkpt>
      <trkpt lat="50.4388" lon="3.54812">
        <ele>24</ele>
        <time>2022-04-10T10:56:27.000Z</time>
      </trkpt>
      <trkpt lat="50.43883" lon="3.54805">
        <ele>24</ele>
        <time>2022-04-10T10:56:28.000Z</time>
      </trkpt>
      <trkpt lat="50.43887" lon="3.54798">
        <ele>24.3</ele>
        <time>2022-04-10T10:56:30.000Z</time>
      </trkpt>
      <trkpt lat="50.4389" lon="3.54789">
        <ele>24.6</ele>
        <time>2022-04-10T10:56:31.000Z</time>
      </trkpt>
      <trkpt lat="50.43894" lon="3.54778">
        <ele>25</ele>
        <time>2022-04-10T10:56:33.000Z</time>
      </trkpt>
      <trkpt lat="50.43896" lon="3.54769">
        <ele>25</ele>
        <time>2022-04-10T10:56:35.000Z</time>
      </trkpt>
      <trkpt lat="50.43903" lon="3.54753">
        <ele>25</ele>
        <time>2022-04-10T10:56:37.000Z</time>
      </trkpt>
      <trkpt lat="50.43905" lon="3.54742">
        <ele>25</ele>
        <time>2022-04-10T10:56:39.000Z</time>
      </trkpt>
      <trkpt lat="50.43907" lon="3.54731">
        <ele>25</ele>
        <time>2022-04-10T10:56:40.141Z</time>
      </trkpt>
      <trkpt lat="50.43909" lon="3.54722">
        <ele>25</ele>
        <time>2022-04-10T10:56:42.000Z</time>
      </trkpt>
      <trkpt lat="50.43915" lon="3.54707">
        <ele>25</ele>
        <time>2022-04-10T10:56:44.000Z</time>
      </trkpt>
      <trkpt lat="50.43918" lon="3.547">
        <ele>25</ele>
        <time>2022-04-10T10:56:45.000Z</time>
      </trkpt>
      <trkpt lat="50.43921" lon="3.54693">
        <ele>25</ele>
        <time>2022-04-10T10:56:46.722Z</time>
      </trkpt>
      <trkpt lat="50.43925" lon="3.54686">
        <ele>25.3</ele>
        <time>2022-04-10T10:56:47.662Z</time>
      </trkpt>
      <trkpt lat="50.43927" lon="3.54678">
        <ele>25.6</ele>
        <time>2022-04-10T10:56:50.000Z</time>
      </trkpt>
      <trkpt lat="50.43935" lon="3.5466">
        <ele>26</ele>
        <time>2022-04-10T10:56:53.000Z</time>
      </trkpt>
      <trkpt lat="50.43938" lon="3.5465">
        <ele>26</ele>
        <time>2022-04-10T10:56:54.000Z</time>
      </trkpt>
      <trkpt lat="50.43939" lon="3.54641">
        <ele>26</ele>
        <time>2022-04-10T10:56:55.527Z</time>
      </trkpt>
      <trkpt lat="50.43941" lon="3.54632">
        <ele>26</ele>
        <time>2022-04-10T10:56:56.567Z</time>
      </trkpt>
      <trkpt lat="50.43945" lon="3.54618">
        <ele>26</ele>
        <time>2022-04-10T10:56:58.851Z</time>
      </trkpt>
      <trkpt lat="50.43948" lon="3.5461">
        <ele>26</ele>
        <time>2022-04-10T10:57:00.723Z</time>
      </trkpt>
      <trkpt lat="50.43952" lon="3.54603">
        <ele>26</ele>
        <time>2022-04-10T10:57:01.746Z</time>
      </trkpt>
      <trkpt lat="50.43954" lon="3.54595">
        <ele>26</ele>
        <time>2022-04-10T10:57:03.000Z</time>
      </trkpt>
      <trkpt lat="50.43956" lon="3.54586">
        <ele>26</ele>
        <time>2022-04-10T10:57:04.000Z</time>
      </trkpt>
      <trkpt lat="50.43959" lon="3.54575">
        <ele>26</ele>
        <time>2022-04-10T10:57:06.107Z</time>
      </trkpt>
      <trkpt lat="50.43964" lon="3.54565">
        <ele>26</ele>
        <time>2022-04-10T10:57:08.000Z</time>
      </trkpt>
      <trkpt lat="50.43968" lon="3.54556">
        <ele>26</ele>
        <time>2022-04-10T10:57:10.287Z</time>
      </trkpt>
      <trkpt lat="50.43974" lon="3.54542">
        <ele>26</ele>
        <time>2022-04-10T10:57:14.000Z</time>
      </trkpt>
      <trkpt lat="50.43979" lon="3.54526">
        <ele>26</ele>
        <time>2022-04-10T10:57:16.767Z</time>
      </trkpt>
      <trkpt lat="50.43982" lon="3.54519">
        <ele>26</ele>
        <time>2022-04-10T10:57:18.000Z</time>
      </trkpt>
      <trkpt lat="50.43984" lon="3.54512">
        <ele>26</ele>
        <time>2022-04-10T10:57:19.587Z</time>
      </trkpt>
      <trkpt lat="50.43987" lon="3.54505">
        <ele>26</ele>
        <time>2022-04-10T10:57:21.008Z</time>
      </trkpt>
      <trkpt lat="50.43989" lon="3.54496">
        <ele>26</ele>
        <time>2022-04-10T10:57:22.143Z</time>
      </trkpt>
      <trkpt lat="50.43993" lon="3.54485">
        <ele>26</ele>
        <time>2022-04-10T10:57:23.906Z</time>
      </trkpt>
      <trkpt lat="50.43997" lon="3.54475">
        <ele>26</ele>
        <time>2022-04-10T10:57:25.107Z</time>
      </trkpt>
      <trkpt lat="50.44003" lon="3.54462">
        <ele>25.6</ele>
        <time>2022-04-10T10:57:27.767Z</time>
      </trkpt>
      <trkpt lat="50.44007" lon="3.54454">
        <ele>25.3</ele>
        <time>2022-04-10T10:57:28.828Z</time>
      </trkpt>
      <trkpt lat="50.44009" lon="3.54446">
        <ele>25</ele>
        <time>2022-04-10T10:57:31.024Z</time>
      </trkpt>
      <trkpt lat="50.44012" lon="3.54438">
        <ele>25</ele>
        <time>2022-04-10T10:57:32.000Z</time>
      </trkpt>
      <trkpt lat="50.44015" lon="3.54428">
        <ele>25</ele>
        <time>2022-04-10T10:57:33.000Z</time>
      </trkpt>
      <trkpt lat="50.44017" lon="3.54421">
        <ele>25</ele>
        <time>2022-04-10T10:57:34.000Z</time>
      </trkpt>
      <trkpt lat="50.44021" lon="3.5441">
        <ele>25</ele>
        <time>2022-04-10T10:57:36.000Z</time>
      </trkpt>
      <trkpt lat="50.44024" lon="3.54403">
        <ele>25</ele>
        <time>2022-04-10T10:57:37.202Z</time>
      </trkpt>
      <trkpt lat="50.44027" lon="3.54394">
        <ele>25</ele>
        <time>2022-04-10T10:57:39.000Z</time>
      </trkpt>
      <trkpt lat="50.44031" lon="3.54385">
        <ele>25</ele>
        <time>2022-04-10T10:57:40.687Z</time>
      </trkpt>
      <trkpt lat="50.44034" lon="3.54376">
        <ele>24.9</ele>
        <time>2022-04-10T10:57:41.845Z</time>
      </trkpt>
      <trkpt lat="50.44037" lon="3.54367">
        <ele>24.7</ele>
        <time>2022-04-10T10:57:42.987Z</time>
      </trkpt>
      <trkpt lat="50.4404" lon="3.54355">
        <ele>24.5</ele>
        <time>2022-04-10T10:57:45.000Z</time>
      </trkpt>
      <trkpt lat="50.44043" lon="3.54343">
        <ele>24.5</ele>
        <time>2022-04-10T10:57:47.000Z</time>
      </trkpt>
      <trkpt lat="50.44051" lon="3.54322">
        <ele>24.2</ele>
        <time>2022-04-10T10:57:51.873Z</time>
      </trkpt>
      <trkpt lat="50.44053" lon="3.54309">
        <ele>24.1</ele>
        <time>2022-04-10T10:57:53.000Z</time>
      </trkpt>
      <trkpt lat="50.44056" lon="3.54299">
        <ele>24</ele>
        <time>2022-04-10T10:57:55.000Z</time>
      </trkpt>
      <trkpt lat="50.44059" lon="3.54288">
        <ele>24</ele>
        <time>2022-04-10T10:57:56.000Z</time>
      </trkpt>
      <trkpt lat="50.44066" lon="3.5427">
        <ele>24</ele>
        <time>2022-04-10T10:57:59.093Z</time>
      </trkpt>
      <trkpt lat="50.44069" lon="3.54264">
        <ele>24</ele>
        <time>2022-04-10T10:58:00.000Z</time>
      </trkpt>
      <trkpt lat="50.44073" lon="3.54256">
        <ele>24</ele>
        <time>2022-04-10T10:58:01.671Z</time>
      </trkpt>
      <trkpt lat="50.44076" lon="3.54249">
        <ele>24</ele>
        <time>2022-04-10T10:58:02.911Z</time>
      </trkpt>
      <trkpt lat="50.44078" lon="3.5424">
        <ele>24</ele>
        <time>2022-04-10T10:58:04.000Z</time>
      </trkpt>
      <trkpt lat="50.44082" lon="3.54227">
        <ele>24</ele>
        <time>2022-04-10T10:58:06.000Z</time>
      </trkpt>
      <trkpt lat="50.44085" lon="3.54219">
        <ele>24</ele>
        <time>2022-04-10T10:58:07.000Z</time>
      </trkpt>
      <trkpt lat="50.44088" lon="3.54212">
        <ele>24</ele>
        <time>2022-04-10T10:58:08.651Z</time>
      </trkpt>
      <trkpt lat="50.44091" lon="3.54204">
        <ele>24</ele>
        <time>2022-04-10T10:58:09.749Z</time>
      </trkpt>
      <trkpt lat="50.44093" lon="3.54195">
        <ele>24</ele>
        <time>2022-04-10T10:58:11.000Z</time>
      </trkpt>
      <trkpt lat="50.441" lon="3.54178">
        <ele>24</ele>
        <time>2022-04-10T10:58:14.000Z</time>
      </trkpt>
      <trkpt lat="50.44102" lon="3.5417">
        <ele>24</ele>
        <time>2022-04-10T10:58:15.000Z</time>
      </trkpt>
      <trkpt lat="50.44105" lon="3.54162">
        <ele>24</ele>
        <time>2022-04-10T10:58:16.989Z</time>
      </trkpt>
      <trkpt lat="50.44108" lon="3.54151">
        <ele>24</ele>
        <time>2022-04-10T10:58:18.851Z</time>
      </trkpt>
      <trkpt lat="50.44113" lon="3.54136">
        <ele>24.1</ele>
        <time>2022-04-10T10:58:21.377Z</time>
      </trkpt>
      <trkpt lat="50.44118" lon="3.54124">
        <ele>24.4</ele>
        <time>2022-04-10T10:58:22.990Z</time>
      </trkpt>
      <trkpt lat="50.44122" lon="3.54113">
        <ele>24.6</ele>
        <time>2022-04-10T10:58:25.000Z</time>
      </trkpt>
      <trkpt lat="50.44124" lon="3.54105">
        <ele>24.5</ele>
        <time>2022-04-10T10:58:27.131Z</time>
      </trkpt>
      <trkpt lat="50.44126" lon="3.54098">
        <ele>24.5</ele>
        <time>2022-04-10T10:58:28.869Z</time>
      </trkpt>
      <trkpt lat="50.44129" lon="3.54092">
        <ele>24.4</ele>
        <time>2022-04-10T10:58:31.000Z</time>
      </trkpt>
      <trkpt lat="50.44131" lon="3.54083">
        <ele>24.3</ele>
        <time>2022-04-10T10:58:33.000Z</time>
      </trkpt>
      <trkpt lat="50.44136" lon="3.54074">
        <ele>24.1</ele>
        <time>2022-04-10T10:58:36.271Z</time>
      </trkpt>
      <trkpt lat="50.44139" lon="3.54064">
        <ele>24</ele>
        <time>2022-04-10T10:58:38.830Z</time>
      </trkpt>
      <trkpt lat="50.44143" lon="3.54053">
        <ele>24</ele>
        <time>2022-04-10T10:58:41.000Z</time>
      </trkpt>
      <trkpt lat="50.44146" lon="3.54045">
        <ele>24</ele>
        <time>2022-04-10T10:58:42.550Z</time>
      </trkpt>
      <trkpt lat="50.44148" lon="3.54037">
        <ele>24</ele>
        <time>2022-04-10T10:58:44.094Z</time>
      </trkpt>
      <trkpt lat="50.44151" lon="3.54027">
        <ele>24</ele>
        <time>2022-04-10T10:58:46.088Z</time>
      </trkpt>
      <trkpt lat="50.44153" lon="3.54021">
        <ele>24</ele>
        <time>2022-04-10T10:58:47.289Z</time>
      </trkpt>
      <trkpt lat="50.44155" lon="3.54014">
        <ele>24</ele>
        <time>2022-04-10T10:58:48.412Z</time>
      </trkpt>
      <trkpt lat="50.4416" lon="3.54003">
        <ele>24</ele>
        <time>2022-04-10T10:58:50.491Z</time>
      </trkpt>
      <trkpt lat="50.44164" lon="3.53991">
        <ele>24</ele>
        <time>2022-04-10T10:58:53.000Z</time>
      </trkpt>
      <trkpt lat="50.44167" lon="3.53983">
        <ele>24</ele>
        <time>2022-04-10T10:58:54.000Z</time>
      </trkpt>
      <trkpt lat="50.44169" lon="3.53975">
        <ele>24</ele>
        <time>2022-04-10T10:58:55.310Z</time>
      </trkpt>
      <trkpt lat="50.44173" lon="3.53963">
        <ele>24</ele>
        <time>2022-04-10T10:58:57.419Z</time>
      </trkpt>
      <trkpt lat="50.44175" lon="3.53957">
        <ele>24</ele>
        <time>2022-04-10T10:58:59.068Z</time>
      </trkpt>
      <trkpt lat="50.44178" lon="3.53949">
        <ele>24</ele>
        <time>2022-04-10T10:59:00.000Z</time>
      </trkpt>
      <trkpt lat="50.44181" lon="3.5394">
        <ele>24</ele>
        <time>2022-04-10T10:59:01.000Z</time>
      </trkpt>
      <trkpt lat="50.44183" lon="3.53934">
        <ele>24</ele>
        <time>2022-04-10T10:59:02.000Z</time>
      </trkpt>
      <trkpt lat="50.44189" lon="3.53919">
        <ele>24</ele>
        <time>2022-04-10T10:59:05.000Z</time>
      </trkpt>
      <trkpt lat="50.44194" lon="3.53908">
        <ele>24</ele>
        <time>2022-04-10T10:59:07.000Z</time>
      </trkpt>
      <trkpt lat="50.44198" lon="3.53899">
        <ele>24</ele>
        <time>2022-04-10T10:59:08.000Z</time>
      </trkpt>
      <trkpt lat="50.44202" lon="3.53888">
        <ele>24</ele>
        <time>2022-04-10T10:59:10.000Z</time>
      </trkpt>
      <trkpt lat="50.44206" lon="3.53879">
        <ele>24</ele>
        <time>2022-04-10T10:59:11.000Z</time>
      </trkpt>
      <trkpt lat="50.44209" lon="3.53869">
        <ele>24</ele>
        <time>2022-04-10T10:59:12.000Z</time>
      </trkpt>
      <trkpt lat="50.44212" lon="3.53859">
        <ele>24</ele>
        <time>2022-04-10T10:59:14.000Z</time>
      </trkpt>
      <trkpt lat="50.44218" lon="3.53841">
        <ele>24</ele>
        <time>2022-04-10T10:59:16.000Z</time>
      </trkpt>
      <trkpt lat="50.44222" lon="3.53831">
        <ele>24</ele>
        <time>2022-04-10T10:59:19.000Z</time>
      </trkpt>
      <trkpt lat="50.44226" lon="3.53821">
        <ele>24</ele>
        <time>2022-04-10T10:59:20.000Z</time>
      </trkpt>
      <trkpt lat="50.44229" lon="3.53814">
        <ele>24</ele>
        <time>2022-04-10T10:59:21.000Z</time>
      </trkpt>
      <trkpt lat="50.44234" lon="3.53798">
        <ele>24</ele>
        <time>2022-04-10T10:59:23.000Z</time>
      </trkpt>
      <trkpt lat="50.44237" lon="3.53791">
        <ele>24</ele>
        <time>2022-04-10T10:59:24.000Z</time>
      </trkpt>
      <trkpt lat="50.4424" lon="3.53783">
        <ele>24</ele>
        <time>2022-04-10T10:59:25.000Z</time>
      </trkpt>
      <trkpt lat="50.44244" lon="3.53776">
        <ele>24</ele>
        <time>2022-04-10T10:59:26.000Z</time>
      </trkpt>
      <trkpt lat="50.44246" lon="3.53768">
        <ele>24</ele>
        <time>2022-04-10T10:59:27.000Z</time>
      </trkpt>
      <trkpt lat="50.44248" lon="3.53759">
        <ele>24</ele>
        <time>2022-04-10T10:59:28.517Z</time>
      </trkpt>
      <trkpt lat="50.44252" lon="3.53744">
        <ele>24</ele>
        <time>2022-04-10T10:59:30.834Z</time>
      </trkpt>
      <trkpt lat="50.44255" lon="3.53733">
        <ele>24</ele>
        <time>2022-04-10T10:59:33.000Z</time>
      </trkpt>
      <trkpt lat="50.44259" lon="3.53723">
        <ele>24</ele>
        <time>2022-04-10T10:59:34.000Z</time>
      </trkpt>
      <trkpt lat="50.44261" lon="3.53715">
        <ele>24</ele>
        <time>2022-04-10T10:59:35.000Z</time>
      </trkpt>
      <trkpt lat="50.44264" lon="3.53709">
        <ele>24</ele>
        <time>2022-04-10T10:59:36.000Z</time>
      </trkpt>
      <trkpt lat="50.44266" lon="3.53703">
        <ele>24</ele>
        <time>2022-04-10T10:59:37.000Z</time>
      </trkpt>
      <trkpt lat="50.44272" lon="3.53684">
        <ele>24</ele>
        <time>2022-04-10T10:59:40.000Z</time>
      </trkpt>
      <trkpt lat="50.44274" lon="3.53677">
        <ele>24</ele>
        <time>2022-04-10T10:59:41.000Z</time>
      </trkpt>
      <trkpt lat="50.44276" lon="3.53668">
        <ele>24</ele>
        <time>2022-04-10T10:59:42.000Z</time>
      </trkpt>
      <trkpt lat="50.44283" lon="3.53645">
        <ele>24</ele>
        <time>2022-04-10T10:59:45.913Z</time>
      </trkpt>
      <trkpt lat="50.44287" lon="3.53637">
        <ele>24.1</ele>
        <time>2022-04-10T10:59:47.000Z</time>
      </trkpt>
      <trkpt lat="50.44291" lon="3.53628">
        <ele>24.4</ele>
        <time>2022-04-10T10:59:49.000Z</time>
      </trkpt>
      <trkpt lat="50.44293" lon="3.5362">
        <ele>24.7</ele>
        <time>2022-04-10T10:59:50.928Z</time>
      </trkpt>
      <trkpt lat="50.44297" lon="3.5361">
        <ele>25</ele>
        <time>2022-04-10T10:59:53.114Z</time>
      </trkpt>
      <trkpt lat="50.44299" lon="3.53598">
        <ele>25</ele>
        <time>2022-04-10T10:59:55.754Z</time>
      </trkpt>
      <trkpt lat="50.44303" lon="3.53588">
        <ele>25</ele>
        <time>2022-04-10T10:59:58.000Z</time>
      </trkpt>
      <trkpt lat="50.44307" lon="3.53576">
        <ele>25.3</ele>
        <time>2022-04-10T11:00:00.952Z</time>
      </trkpt>
      <trkpt lat="50.44311" lon="3.53565">
        <ele>25.7</ele>
        <time>2022-04-10T11:00:03.290Z</time>
      </trkpt>
      <trkpt lat="50.44313" lon="3.53553">
        <ele>26</ele>
        <time>2022-04-10T11:00:06.112Z</time>
      </trkpt>
      <trkpt lat="50.44316" lon="3.53544">
        <ele>26</ele>
        <time>2022-04-10T11:00:09.000Z</time>
      </trkpt>
      <trkpt lat="50.44321" lon="3.53534">
        <ele>26</ele>
        <time>2022-04-10T11:00:12.832Z</time>
      </trkpt>
      <trkpt lat="50.44325" lon="3.53525">
        <ele>26.1</ele>
        <time>2022-04-10T11:00:16.000Z</time>
      </trkpt>
      <trkpt lat="50.44327" lon="3.53518">
        <ele>26.4</ele>
        <time>2022-04-10T11:00:18.000Z</time>
      </trkpt>
      <trkpt lat="50.44332" lon="3.5351">
        <ele>26.7</ele>
        <time>2022-04-10T11:00:20.192Z</time>
      </trkpt>
      <trkpt lat="50.44334" lon="3.53496">
        <ele>27</ele>
        <time>2022-04-10T11:00:23.000Z</time>
      </trkpt>
      <trkpt lat="50.44339" lon="3.53486">
        <ele>26.9</ele>
        <time>2022-04-10T11:00:25.000Z</time>
      </trkpt>
      <trkpt lat="50.44342" lon="3.53475">
        <ele>27</ele>
        <time>2022-04-10T11:00:28.000Z</time>
      </trkpt>
      <trkpt lat="50.44346" lon="3.53466">
        <ele>27.1</ele>
        <time>2022-04-10T11:00:30.753Z</time>
      </trkpt>
      <trkpt lat="50.44349" lon="3.5346">
        <ele>27.2</ele>
        <time>2022-04-10T11:00:32.000Z</time>
      </trkpt>
      <trkpt lat="50.44351" lon="3.53448">
        <ele>27.3</ele>
        <time>2022-04-10T11:00:35.000Z</time>
      </trkpt>
      <trkpt lat="50.44354" lon="3.5344">
        <ele>27.4</ele>
        <time>2022-04-10T11:00:36.931Z</time>
      </trkpt>
      <trkpt lat="50.44359" lon="3.53428">
        <ele>27.6</ele>
        <time>2022-04-10T11:00:39.029Z</time>
      </trkpt>
      <trkpt lat="50.44362" lon="3.53421">
        <ele>27.8</ele>
        <time>2022-04-10T11:00:41.013Z</time>
      </trkpt>
      <trkpt lat="50.44365" lon="3.53411">
        <ele>28.2</ele>
        <time>2022-04-10T11:00:42.750Z</time>
      </trkpt>
      <trkpt lat="50.44367" lon="3.53405">
        <ele>28.3</ele>
        <time>2022-04-10T11:00:45.000Z</time>
      </trkpt>
      <trkpt lat="50.44371" lon="3.53394">
        <ele>28.5</ele>
        <time>2022-04-10T11:00:47.000Z</time>
      </trkpt>
      <trkpt lat="50.44374" lon="3.53386">
        <ele>28.6</ele>
        <time>2022-04-10T11:00:49.171Z</time>
      </trkpt>
      <trkpt lat="50.44376" lon="3.53379">
        <ele>28.7</ele>
        <time>2022-04-10T11:00:51.011Z</time>
      </trkpt>
      <trkpt lat="50.44379" lon="3.53372">
        <ele>28.8</ele>
        <time>2022-04-10T11:00:52.995Z</time>
      </trkpt>
      <trkpt lat="50.44382" lon="3.53364">
        <ele>28.9</ele>
        <time>2022-04-10T11:00:55.000Z</time>
      </trkpt>
      <trkpt lat="50.44384" lon="3.53357">
        <ele>29</ele>
        <time>2022-04-10T11:00:57.000Z</time>
      </trkpt>
      <trkpt lat="50.44387" lon="3.53348">
        <ele>29</ele>
        <time>2022-04-10T11:00:59.973Z</time>
      </trkpt>
      <trkpt lat="50.44392" lon="3.53337">
        <ele>29</ele>
        <time>2022-04-10T11:01:02.093Z</time>
      </trkpt>
      <trkpt lat="50.44393" lon="3.53328">
        <ele>29</ele>
        <time>2022-04-10T11:01:05.000Z</time>
      </trkpt>
      <trkpt lat="50.44396" lon="3.53319">
        <ele>29</ele>
        <time>2022-04-10T11:01:07.000Z</time>
      </trkpt>
      <trkpt lat="50.44399" lon="3.53312">
        <ele>29</ele>
        <time>2022-04-10T11:01:08.032Z</time>
      </trkpt>
      <trkpt lat="50.44402" lon="3.533">
        <ele>29.1</ele>
        <time>2022-04-10T11:01:11.000Z</time>
      </trkpt>
      <trkpt lat="50.44404" lon="3.53294">
        <ele>29.2</ele>
        <time>2022-04-10T11:01:13.000Z</time>
      </trkpt>
      <trkpt lat="50.44406" lon="3.53287">
        <ele>29.2</ele>
        <time>2022-04-10T11:01:14.000Z</time>
      </trkpt>
      <trkpt lat="50.44411" lon="3.53277">
        <ele>29.3</ele>
        <time>2022-04-10T11:01:17.000Z</time>
      </trkpt>
      <trkpt lat="50.44414" lon="3.5327">
        <ele>29.4</ele>
        <time>2022-04-10T11:01:19.000Z</time>
      </trkpt>
      <trkpt lat="50.44416" lon="3.53262">
        <ele>29.6</ele>
        <time>2022-04-10T11:01:21.708Z</time>
      </trkpt>
      <trkpt lat="50.4442" lon="3.53253">
        <ele>29.8</ele>
        <time>2022-04-10T11:01:24.000Z</time>
      </trkpt>
      <trkpt lat="50.44424" lon="3.53244">
        <ele>29.8</ele>
        <time>2022-04-10T11:01:27.291Z</time>
      </trkpt>
      <trkpt lat="50.44427" lon="3.53235">
        <ele>29.8</ele>
        <time>2022-04-10T11:01:29.794Z</time>
      </trkpt>
      <trkpt lat="50.44432" lon="3.53221">
        <ele>30</ele>
        <time>2022-04-10T11:01:34.000Z</time>
      </trkpt>
      <trkpt lat="50.44434" lon="3.53211">
        <ele>30</ele>
        <time>2022-04-10T11:01:37.000Z</time>
      </trkpt>
      <trkpt lat="50.44437" lon="3.53199">
        <ele>30</ele>
        <time>2022-04-10T11:01:40.000Z</time>
      </trkpt>
      <trkpt lat="50.44441" lon="3.53189">
        <ele>30</ele>
        <time>2022-04-10T11:01:42.139Z</time>
      </trkpt>
      <trkpt lat="50.44444" lon="3.53182">
        <ele>30</ele>
        <time>2022-04-10T11:01:44.150Z</time>
      </trkpt>
      <trkpt lat="50.44447" lon="3.53174">
        <ele>30</ele>
        <time>2022-04-10T11:01:47.310Z</time>
      </trkpt>
      <trkpt lat="50.44451" lon="3.53167">
        <ele>30</ele>
        <time>2022-04-10T11:01:49.052Z</time>
      </trkpt>
      <trkpt lat="50.44456" lon="3.53155">
        <ele>30.2</ele>
        <time>2022-04-10T11:01:52.029Z</time>
      </trkpt>
      <trkpt lat="50.44458" lon="3.53149">
        <ele>30.3</ele>
        <time>2022-04-10T11:01:54.000Z</time>
      </trkpt>
      <trkpt lat="50.44461" lon="3.53142">
        <ele>30.4</ele>
        <time>2022-04-10T11:01:56.000Z</time>
      </trkpt>
      <trkpt lat="50.44464" lon="3.53131">
        <ele>30.5</ele>
        <time>2022-04-10T11:01:59.000Z</time>
      </trkpt>
      <trkpt lat="50.44466" lon="3.53125">
        <ele>30.6</ele>
        <time>2022-04-10T11:02:00.000Z</time>
      </trkpt>
      <trkpt lat="50.44468" lon="3.53115">
        <ele>30.9</ele>
        <time>2022-04-10T11:02:02.091Z</time>
      </trkpt>
      <trkpt lat="50.4447" lon="3.53107">
        <ele>31</ele>
        <time>2022-04-10T11:02:03.991Z</time>
      </trkpt>
      <trkpt lat="50.44474" lon="3.53095">
        <ele>31</ele>
        <time>2022-04-10T11:02:07.000Z</time>
      </trkpt>
      <trkpt lat="50.44476" lon="3.53085">
        <ele>31</ele>
        <time>2022-04-10T11:02:09.873Z</time>
      </trkpt>
      <trkpt lat="50.44479" lon="3.53076">
        <ele>31.3</ele>
        <time>2022-04-10T11:02:13.000Z</time>
      </trkpt>
      <trkpt lat="50.44482" lon="3.53067">
        <ele>31.6</ele>
        <time>2022-04-10T11:02:15.810Z</time>
      </trkpt>
      <trkpt lat="50.44485" lon="3.53058">
        <ele>31.9</ele>
        <time>2022-04-10T11:02:17.952Z</time>
      </trkpt>
      <trkpt lat="50.44487" lon="3.53051">
        <ele>32.2</ele>
        <time>2022-04-10T11:02:20.000Z</time>
      </trkpt>
      <trkpt lat="50.4449" lon="3.53042">
        <ele>32.5</ele>
        <time>2022-04-10T11:02:23.550Z</time>
      </trkpt>
      <trkpt lat="50.44493" lon="3.53036">
        <ele>32.7</ele>
        <time>2022-04-10T11:02:25.000Z</time>
      </trkpt>
      <trkpt lat="50.44497" lon="3.53024">
        <ele>33.1</ele>
        <time>2022-04-10T11:02:29.000Z</time>
      </trkpt>
      <trkpt lat="50.445" lon="3.53018">
        <ele>33.3</ele>
        <time>2022-04-10T11:02:31.000Z</time>
      </trkpt>
      <trkpt lat="50.44503" lon="3.53007">
        <ele>33.7</ele>
        <time>2022-04-10T11:02:34.074Z</time>
      </trkpt>
      <trkpt lat="50.44507" lon="3.52997">
        <ele>34</ele>
        <time>2022-04-10T11:02:37.013Z</time>
      </trkpt>
      <trkpt lat="50.44512" lon="3.52989">
        <ele>34</ele>
        <time>2022-04-10T11:02:39.134Z</time>
      </trkpt>
      <trkpt lat="50.44515" lon="3.52981">
        <ele>34</ele>
        <time>2022-04-10T11:02:42.000Z</time>
      </trkpt>
      <trkpt lat="50.44516" lon="3.52974">
        <ele>34</ele>
        <time>2022-04-10T11:02:44.000Z</time>
      </trkpt>
      <trkpt lat="50.44518" lon="3.52965">
        <ele>34.2</ele>
        <time>2022-04-10T11:02:46.529Z</time>
      </trkpt>
      <trkpt lat="50.44522" lon="3.52956">
        <ele>34.4</ele>
        <time>2022-04-10T11:02:49.000Z</time>
      </trkpt>
      <trkpt lat="50.44524" lon="3.52949">
        <ele>34.7</ele>
        <time>2022-04-10T11:02:52.444Z</time>
      </trkpt>
      <trkpt lat="50.44527" lon="3.52943">
        <ele>35</ele>
        <time>2022-04-10T11:02:53.913Z</time>
      </trkpt>
      <trkpt lat="50.44529" lon="3.52935">
        <ele>35</ele>
        <time>2022-04-10T11:02:55.992Z</time>
      </trkpt>
      <trkpt lat="50.44533" lon="3.52925">
        <ele>34.9</ele>
        <time>2022-04-10T11:02:59.000Z</time>
      </trkpt>
      <trkpt lat="50.44536" lon="3.52918">
        <ele>35</ele>
        <time>2022-04-10T11:03:01.112Z</time>
      </trkpt>
      <trkpt lat="50.4454" lon="3.52911">
        <ele>35</ele>
        <time>2022-04-10T11:03:02.471Z</time>
      </trkpt>
      <trkpt lat="50.44543" lon="3.529">
        <ele>35</ele>
        <time>2022-04-10T11:03:05.010Z</time>
      </trkpt>
      <trkpt lat="50.44547" lon="3.52886">
        <ele>35.1</ele>
        <time>2022-04-10T11:03:09.109Z</time>
      </trkpt>
      <trkpt lat="50.44549" lon="3.52875">
        <ele>35.4</ele>
        <time>2022-04-10T11:03:12.010Z</time>
      </trkpt>
      <trkpt lat="50.44552" lon="3.52865">
        <ele>35.7</ele>
        <time>2022-04-10T11:03:15.000Z</time>
      </trkpt>
      <trkpt lat="50.44555" lon="3.52859">
        <ele>36</ele>
        <time>2022-04-10T11:03:17.031Z</time>
      </trkpt>
      <trkpt lat="50.44558" lon="3.52852">
        <ele>35.9</ele>
        <time>2022-04-10T11:03:19.000Z</time>
      </trkpt>
      <trkpt lat="50.44562" lon="3.52844">
        <ele>35.9</ele>
        <time>2022-04-10T11:03:21.343Z</time>
      </trkpt>
      <trkpt lat="50.44565" lon="3.52836">
        <ele>36</ele>
        <time>2022-04-10T11:03:23.569Z</time>
      </trkpt>
      <trkpt lat="50.44567" lon="3.52827">
        <ele>36.2</ele>
        <time>2022-04-10T11:03:26.000Z</time>
      </trkpt>
      <trkpt lat="50.44569" lon="3.52819">
        <ele>36.5</ele>
        <time>2022-04-10T11:03:28.155Z</time>
      </trkpt>
      <trkpt lat="50.44572" lon="3.52811">
        <ele>36.8</ele>
        <time>2022-04-10T11:03:30.429Z</time>
      </trkpt>
      <trkpt lat="50.44575" lon="3.52802">
        <ele>37</ele>
        <time>2022-04-10T11:03:33.000Z</time>
      </trkpt>
      <trkpt lat="50.4458" lon="3.528">
        <ele>37</ele>
        <time>2022-04-10T11:03:36.000Z</time>
      </trkpt>
      <trkpt lat="50.44585" lon="3.528">
        <ele>36.9</ele>
        <time>2022-04-10T11:03:38.000Z</time>
      </trkpt>
      <trkpt lat="50.44592" lon="3.52799">
        <ele>36.7</ele>
        <time>2022-04-10T11:03:40.000Z</time>
      </trkpt>
      <trkpt lat="50.44599" lon="3.52798">
        <ele>36.4</ele>
        <time>2022-04-10T11:03:42.000Z</time>
      </trkpt>
      <trkpt lat="50.44605" lon="3.52798">
        <ele>36.2</ele>
        <time>2022-04-10T11:03:43.000Z</time>
      </trkpt>
      <trkpt lat="50.4461" lon="3.52797">
        <ele>36</ele>
        <time>2022-04-10T11:03:44.000Z</time>
      </trkpt>
      <trkpt lat="50.44615" lon="3.52798">
        <ele>35.9</ele>
        <time>2022-04-10T11:03:45.000Z</time>
      </trkpt>
      <trkpt lat="50.44621" lon="3.52799">
        <ele>35.7</ele>
        <time>2022-04-10T11:03:46.000Z</time>
      </trkpt>
      <trkpt lat="50.44626" lon="3.528">
        <ele>35.6</ele>
        <time>2022-04-10T11:03:47.000Z</time>
      </trkpt>
      <trkpt lat="50.44632" lon="3.528">
        <ele>35.4</ele>
        <time>2022-04-10T11:03:48.000Z</time>
      </trkpt>
      <trkpt lat="50.44637" lon="3.52801">
        <ele>35.2</ele>
        <time>2022-04-10T11:03:49.000Z</time>
      </trkpt>
      <trkpt lat="50.44642" lon="3.52802">
        <ele>35.1</ele>
        <time>2022-04-10T11:03:50.000Z</time>
      </trkpt>
      <trkpt lat="50.44647" lon="3.52802">
        <ele>35.1</ele>
        <time>2022-04-10T11:03:51.000Z</time>
      </trkpt>
      <trkpt lat="50.44654" lon="3.52802">
        <ele>35.1</ele>
        <time>2022-04-10T11:03:52.000Z</time>
      </trkpt>
      <trkpt lat="50.4466" lon="3.52801">
        <ele>35</ele>
        <time>2022-04-10T11:03:53.000Z</time>
      </trkpt>
      <trkpt lat="50.44666" lon="3.52801">
        <ele>35</ele>
        <time>2022-04-10T11:03:54.000Z</time>
      </trkpt>
      <trkpt lat="50.44672" lon="3.52801">
        <ele>34.8</ele>
        <time>2022-04-10T11:03:55.000Z</time>
      </trkpt>
      <trkpt lat="50.44679" lon="3.528">
        <ele>34.5</ele>
        <time>2022-04-10T11:03:56.000Z</time>
      </trkpt>
      <trkpt lat="50.44689" lon="3.52799">
        <ele>34.2</ele>
        <time>2022-04-10T11:03:57.000Z</time>
      </trkpt>
      <trkpt lat="50.44697" lon="3.52798">
        <ele>34</ele>
        <time>2022-04-10T11:03:59.000Z</time>
      </trkpt>
      <trkpt lat="50.44704" lon="3.52796">
        <ele>33.9</ele>
        <time>2022-04-10T11:04:00.000Z</time>
      </trkpt>
      <trkpt lat="50.44712" lon="3.52794">
        <ele>33.7</ele>
        <time>2022-04-10T11:04:02.000Z</time>
      </trkpt>
      <trkpt lat="50.44722" lon="3.52793">
        <ele>33.5</ele>
        <time>2022-04-10T11:04:04.000Z</time>
      </trkpt>
      <trkpt lat="50.44727" lon="3.52792">
        <ele>33.2</ele>
        <time>2022-04-10T11:04:05.000Z</time>
      </trkpt>
      <trkpt lat="50.44735" lon="3.5279">
        <ele>32.8</ele>
        <time>2022-04-10T11:04:06.000Z</time>
      </trkpt>
      <trkpt lat="50.44741" lon="3.52789">
        <ele>32.4</ele>
        <time>2022-04-10T11:04:07.000Z</time>
      </trkpt>
      <trkpt lat="50.44746" lon="3.52788">
        <ele>32.2</ele>
        <time>2022-04-10T11:04:08.000Z</time>
      </trkpt>
      <trkpt lat="50.44755" lon="3.52784">
        <ele>31.9</ele>
        <time>2022-04-10T11:04:09.000Z</time>
      </trkpt>
      <trkpt lat="50.44763" lon="3.5278">
        <ele>31.6</ele>
        <time>2022-04-10T11:04:11.000Z</time>
      </trkpt>
      <trkpt lat="50.44768" lon="3.52777">
        <ele>31.4</ele>
        <time>2022-04-10T11:04:12.000Z</time>
      </trkpt>
      <trkpt lat="50.44773" lon="3.52775">
        <ele>31.2</ele>
        <time>2022-04-10T11:04:13.000Z</time>
      </trkpt>
      <trkpt lat="50.44778" lon="3.52773">
        <ele>31.2</ele>
        <time>2022-04-10T11:04:14.000Z</time>
      </trkpt>
      <trkpt lat="50.44784" lon="3.5277">
        <ele>31.2</ele>
        <time>2022-04-10T11:04:15.000Z</time>
      </trkpt>
      <trkpt lat="50.44789" lon="3.52767">
        <ele>31.2</ele>
        <time>2022-04-10T11:04:16.000Z</time>
      </trkpt>
      <trkpt lat="50.44794" lon="3.52764">
        <ele>31.2</ele>
        <time>2022-04-10T11:04:17.000Z</time>
      </trkpt>
      <trkpt lat="50.448" lon="3.5276">
        <ele>31.1</ele>
        <time>2022-04-10T11:04:18.000Z</time>
      </trkpt>
      <trkpt lat="50.44805" lon="3.52755">
        <ele>31</ele>
        <time>2022-04-10T11:04:19.000Z</time>
      </trkpt>
      <trkpt lat="50.4481" lon="3.52751">
        <ele>31</ele>
        <time>2022-04-10T11:04:20.000Z</time>
      </trkpt>
      <trkpt lat="50.44815" lon="3.52747">
        <ele>30.9</ele>
        <time>2022-04-10T11:04:21.000Z</time>
      </trkpt>
      <trkpt lat="50.4482" lon="3.52744">
        <ele>30.8</ele>
        <time>2022-04-10T11:04:22.000Z</time>
      </trkpt>
      <trkpt lat="50.44825" lon="3.5274">
        <ele>30.6</ele>
        <time>2022-04-10T11:04:23.000Z</time>
      </trkpt>
      <trkpt lat="50.44831" lon="3.52737">
        <ele>30.5</ele>
        <time>2022-04-10T11:04:24.000Z</time>
      </trkpt>
      <trkpt lat="50.44837" lon="3.52734">
        <ele>30.4</ele>
        <time>2022-04-10T11:04:25.000Z</time>
      </trkpt>
      <trkpt lat="50.44843" lon="3.5273">
        <ele>30.2</ele>
        <time>2022-04-10T11:04:26.000Z</time>
      </trkpt>
      <trkpt lat="50.44848" lon="3.52726">
        <ele>30.1</ele>
        <time>2022-04-10T11:04:27.000Z</time>
      </trkpt>
      <trkpt lat="50.44854" lon="3.52723">
        <ele>30</ele>
        <time>2022-04-10T11:04:28.000Z</time>
      </trkpt>
      <trkpt lat="50.44859" lon="3.52719">
        <ele>29.9</ele>
        <time>2022-04-10T11:04:29.000Z</time>
      </trkpt>
      <trkpt lat="50.44864" lon="3.52716">
        <ele>29.8</ele>
        <time>2022-04-10T11:04:30.000Z</time>
      </trkpt>
      <trkpt lat="50.44869" lon="3.52712">
        <ele>29.7</ele>
        <time>2022-04-10T11:04:31.000Z</time>
      </trkpt>
      <trkpt lat="50.44873" lon="3.52708">
        <ele>29.7</ele>
        <time>2022-04-10T11:04:32.000Z</time>
      </trkpt>
      <trkpt lat="50.44879" lon="3.52704">
        <ele>29.8</ele>
        <time>2022-04-10T11:04:33.000Z</time>
      </trkpt>
      <trkpt lat="50.44883" lon="3.527">
        <ele>29.8</ele>
        <time>2022-04-10T11:04:34.000Z</time>
      </trkpt>
      <trkpt lat="50.44888" lon="3.52697">
        <ele>30</ele>
        <time>2022-04-10T11:04:35.000Z</time>
      </trkpt>
      <trkpt lat="50.44892" lon="3.52694">
        <ele>30</ele>
        <time>2022-04-10T11:04:36.000Z</time>
      </trkpt>
      <trkpt lat="50.44896" lon="3.52691">
        <ele>30</ele>
        <time>2022-04-10T11:04:37.000Z</time>
      </trkpt>
      <trkpt lat="50.44901" lon="3.52688">
        <ele>30</ele>
        <time>2022-04-10T11:04:38.000Z</time>
      </trkpt>
      <trkpt lat="50.44905" lon="3.52686">
        <ele>30</ele>
        <time>2022-04-10T11:04:39.000Z</time>
      </trkpt>
      <trkpt lat="50.4491" lon="3.52682">
        <ele>30</ele>
        <time>2022-04-10T11:04:40.000Z</time>
      </trkpt>
      <trkpt lat="50.44916" lon="3.52678">
        <ele>30</ele>
        <time>2022-04-10T11:04:42.073Z</time>
      </trkpt>
      <trkpt lat="50.44921" lon="3.52675">
        <ele>30</ele>
        <time>2022-04-10T11:04:43.000Z</time>
      </trkpt>
      <trkpt lat="50.44928" lon="3.52671">
        <ele>30.1</ele>
        <time>2022-04-10T11:04:45.000Z</time>
      </trkpt>
      <trkpt lat="50.44936" lon="3.52665">
        <ele>30</ele>
        <time>2022-04-10T11:04:47.000Z</time>
      </trkpt>
      <trkpt lat="50.44943" lon="3.52661">
        <ele>30</ele>
        <time>2022-04-10T11:04:49.000Z</time>
      </trkpt>
      <trkpt lat="50.44951" lon="3.52655">
        <ele>29.9</ele>
        <time>2022-04-10T11:04:51.000Z</time>
      </trkpt>
      <trkpt lat="50.44958" lon="3.52649">
        <ele>29.7</ele>
        <time>2022-04-10T11:04:53.000Z</time>
      </trkpt>
      <trkpt lat="50.44967" lon="3.52643">
        <ele>29.3</ele>
        <time>2022-04-10T11:04:55.000Z</time>
      </trkpt>
    </trkseg>
  </trk>
</gpx>